<?xml version="1.0" encoding="UTF-8" standalone="no" ?>
<gpx xmlns="http://www.topografix.com/GPX/1/1" xmlns:xsi="http://www.w3.org/2001/XMLSchema-instance" xsi:schemaLocation="http://www.topografix.com/GPX/1/1 http://www.topografix.com/GPX/1/1/gpx.xsd" version="1.1" creator="VisuGPX - https://www.visugpx.com">
  <metadata>
    <name>ULTRA IBIZA 84K</name>
    <desc><![CDATA[ULTRA IBIZA 84K-----------------]]></desc>
  </metadata>
  <trk>
    <name><![CDATA[ULTRA IBIZA 84K on GPSies.com]]></name>
    <trkseg>
      <trkpt lat="38.97935" lon="1.30482">
        <ele>2</ele>
        <time>2010-01-01T00:00:00Z</time>
      </trkpt>
      <trkpt lat="38.97937" lon="1.30488">
        <ele>2</ele>
        <time>2010-01-01T00:00:01Z</time>
      </trkpt>
      <trkpt lat="38.97942" lon="1.30498">
        <ele>2</ele>
        <time>2010-01-01T00:00:05Z</time>
      </trkpt>
      <trkpt lat="38.97944" lon="1.30511">
        <ele>1</ele>
        <time>2010-01-01T00:00:09Z</time>
      </trkpt>
      <trkpt lat="38.97945" lon="1.30524">
        <ele>1</ele>
        <time>2010-01-01T00:00:13Z</time>
      </trkpt>
      <trkpt lat="38.97948" lon="1.30538">
        <ele>-1</ele>
        <time>2010-01-01T00:00:18Z</time>
      </trkpt>
      <trkpt lat="38.97945" lon="1.30551">
        <ele>-1</ele>
        <time>2010-01-01T00:00:22Z</time>
      </trkpt>
      <trkpt lat="38.9794" lon="1.30561">
        <ele>-1</ele>
        <time>2010-01-01T00:00:26Z</time>
      </trkpt>
      <trkpt lat="38.97934" lon="1.30571">
        <ele>1</ele>
        <time>2010-01-01T00:00:29Z</time>
      </trkpt>
      <trkpt lat="38.97928" lon="1.30584">
        <ele>1</ele>
        <time>2010-01-01T00:00:34Z</time>
      </trkpt>
      <trkpt lat="38.97923" lon="1.30596">
        <ele>1</ele>
        <time>2010-01-01T00:00:39Z</time>
      </trkpt>
      <trkpt lat="38.97918" lon="1.30607">
        <ele>1</ele>
        <time>2010-01-01T00:00:43Z</time>
      </trkpt>
      <trkpt lat="38.97913" lon="1.3062">
        <ele>1</ele>
        <time>2010-01-01T00:00:47Z</time>
      </trkpt>
      <trkpt lat="38.97908" lon="1.30632">
        <ele>1</ele>
        <time>2010-01-01T00:00:51Z</time>
      </trkpt>
      <trkpt lat="38.97904" lon="1.30645">
        <ele>1</ele>
        <time>2010-01-01T00:00:55Z</time>
      </trkpt>
      <trkpt lat="38.979" lon="1.30656">
        <ele>1</ele>
        <time>2010-01-01T00:01:00Z</time>
      </trkpt>
      <trkpt lat="38.97894" lon="1.30667">
        <ele>2</ele>
        <time>2010-01-01T00:01:04Z</time>
      </trkpt>
      <trkpt lat="38.97886" lon="1.30675">
        <ele>2</ele>
        <time>2010-01-01T00:01:08Z</time>
      </trkpt>
      <trkpt lat="38.97879" lon="1.30684">
        <ele>2</ele>
        <time>2010-01-01T00:01:11Z</time>
      </trkpt>
      <trkpt lat="38.9787" lon="1.3069">
        <ele>2</ele>
        <time>2010-01-01T00:01:15Z</time>
      </trkpt>
      <trkpt lat="38.97862" lon="1.30695">
        <ele>2</ele>
        <time>2010-01-01T00:01:19Z</time>
      </trkpt>
      <trkpt lat="38.97851" lon="1.30701">
        <ele>2</ele>
        <time>2010-01-01T00:01:24Z</time>
      </trkpt>
      <trkpt lat="38.97843" lon="1.30706">
        <ele>2</ele>
        <time>2010-01-01T00:01:28Z</time>
      </trkpt>
      <trkpt lat="38.97833" lon="1.30713">
        <ele>1</ele>
        <time>2010-01-01T00:01:32Z</time>
      </trkpt>
      <trkpt lat="38.97823" lon="1.30719">
        <ele>1.6</ele>
        <time>2010-01-01T00:01:37Z</time>
      </trkpt>
      <trkpt lat="38.97813" lon="1.30725">
        <ele>-1</ele>
        <time>2010-01-01T00:01:41Z</time>
      </trkpt>
      <trkpt lat="38.97804" lon="1.30731">
        <ele>-2</ele>
        <time>2010-01-01T00:01:45Z</time>
      </trkpt>
      <trkpt lat="38.97794" lon="1.30738">
        <ele>1.3</ele>
        <time>2010-01-01T00:01:49Z</time>
      </trkpt>
      <trkpt lat="38.97785" lon="1.30743">
        <ele>1.2</ele>
        <time>2010-01-01T00:01:53Z</time>
      </trkpt>
      <trkpt lat="38.97777" lon="1.30749">
        <ele>1</ele>
        <time>2010-01-01T00:01:57Z</time>
      </trkpt>
      <trkpt lat="38.97768" lon="1.30757">
        <ele>1</ele>
        <time>2010-01-01T00:02:02Z</time>
      </trkpt>
      <trkpt lat="38.97758" lon="1.30761">
        <ele>1</ele>
        <time>2010-01-01T00:02:06Z</time>
      </trkpt>
      <trkpt lat="38.97748" lon="1.30768">
        <ele>1</ele>
        <time>2010-01-01T00:02:10Z</time>
      </trkpt>
      <trkpt lat="38.97738" lon="1.3077">
        <ele>1</ele>
        <time>2010-01-01T00:02:14Z</time>
      </trkpt>
      <trkpt lat="38.97729" lon="1.3077">
        <ele>1</ele>
        <time>2010-01-01T00:02:18Z</time>
      </trkpt>
      <trkpt lat="38.97719" lon="1.30771">
        <ele>2</ele>
        <time>2010-01-01T00:02:22Z</time>
      </trkpt>
      <trkpt lat="38.97708" lon="1.30773">
        <ele>2</ele>
        <time>2010-01-01T00:02:26Z</time>
      </trkpt>
      <trkpt lat="38.97697" lon="1.30778">
        <ele>2</ele>
        <time>2010-01-01T00:02:31Z</time>
      </trkpt>
      <trkpt lat="38.97686" lon="1.30781">
        <ele>1</ele>
        <time>2010-01-01T00:02:35Z</time>
      </trkpt>
      <trkpt lat="38.97677" lon="1.30783">
        <ele>1</ele>
        <time>2010-01-01T00:02:39Z</time>
      </trkpt>
      <trkpt lat="38.97668" lon="1.30786">
        <ele>1</ele>
        <time>2010-01-01T00:02:43Z</time>
      </trkpt>
      <trkpt lat="38.97659" lon="1.3079">
        <ele>2</ele>
        <time>2010-01-01T00:02:47Z</time>
      </trkpt>
      <trkpt lat="38.97648" lon="1.30793">
        <ele>2</ele>
        <time>2010-01-01T00:02:51Z</time>
      </trkpt>
      <trkpt lat="38.97637" lon="1.30795">
        <ele>2</ele>
        <time>2010-01-01T00:02:56Z</time>
      </trkpt>
      <trkpt lat="38.97627" lon="1.30799">
        <ele>2</ele>
        <time>2010-01-01T00:03:00Z</time>
      </trkpt>
      <trkpt lat="38.97617" lon="1.30803">
        <ele>2</ele>
        <time>2010-01-01T00:03:04Z</time>
      </trkpt>
      <trkpt lat="38.97608" lon="1.30804">
        <ele>2</ele>
        <time>2010-01-01T00:03:08Z</time>
      </trkpt>
      <trkpt lat="38.97598" lon="1.30799">
        <ele>2</ele>
        <time>2010-01-01T00:03:12Z</time>
      </trkpt>
      <trkpt lat="38.97589" lon="1.30795">
        <ele>2</ele>
        <time>2010-01-01T00:03:16Z</time>
      </trkpt>
      <trkpt lat="38.9758" lon="1.30794">
        <ele>2</ele>
        <time>2010-01-01T00:03:20Z</time>
      </trkpt>
      <trkpt lat="38.97569" lon="1.30794">
        <ele>2</ele>
        <time>2010-01-01T00:03:24Z</time>
      </trkpt>
      <trkpt lat="38.97559" lon="1.30793">
        <ele>2</ele>
        <time>2010-01-01T00:03:28Z</time>
      </trkpt>
      <trkpt lat="38.97548" lon="1.30793">
        <ele>2</ele>
        <time>2010-01-01T00:03:32Z</time>
      </trkpt>
      <trkpt lat="38.97538" lon="1.30794">
        <ele>3</ele>
        <time>2010-01-01T00:03:36Z</time>
      </trkpt>
      <trkpt lat="38.97527" lon="1.30795">
        <ele>4</ele>
        <time>2010-01-01T00:03:41Z</time>
      </trkpt>
      <trkpt lat="38.97515" lon="1.30795">
        <ele>5</ele>
        <time>2010-01-01T00:03:45Z</time>
      </trkpt>
      <trkpt lat="38.97504" lon="1.30795">
        <ele>7</ele>
        <time>2010-01-01T00:03:50Z</time>
      </trkpt>
      <trkpt lat="38.97493" lon="1.30794">
        <ele>8</ele>
        <time>2010-01-01T00:03:54Z</time>
      </trkpt>
      <trkpt lat="38.97482" lon="1.30794">
        <ele>8</ele>
        <time>2010-01-01T00:03:59Z</time>
      </trkpt>
      <trkpt lat="38.97471" lon="1.30794">
        <ele>7</ele>
        <time>2010-01-01T00:04:03Z</time>
      </trkpt>
      <trkpt lat="38.9746" lon="1.30793">
        <ele>6</ele>
        <time>2010-01-01T00:04:08Z</time>
      </trkpt>
      <trkpt lat="38.9745" lon="1.30796">
        <ele>4</ele>
        <time>2010-01-01T00:04:12Z</time>
      </trkpt>
      <trkpt lat="38.97439" lon="1.30798">
        <ele>3</ele>
        <time>2010-01-01T00:04:16Z</time>
      </trkpt>
      <trkpt lat="38.97428" lon="1.30797">
        <ele>3</ele>
        <time>2010-01-01T00:04:20Z</time>
      </trkpt>
      <trkpt lat="38.97418" lon="1.30798">
        <ele>3</ele>
        <time>2010-01-01T00:04:24Z</time>
      </trkpt>
      <trkpt lat="38.97408" lon="1.30798">
        <ele>4</ele>
        <time>2010-01-01T00:04:29Z</time>
      </trkpt>
      <trkpt lat="38.97397" lon="1.30798">
        <ele>4</ele>
        <time>2010-01-01T00:04:33Z</time>
      </trkpt>
      <trkpt lat="38.97386" lon="1.30796">
        <ele>4</ele>
        <time>2010-01-01T00:04:37Z</time>
      </trkpt>
      <trkpt lat="38.97374" lon="1.30793">
        <ele>5</ele>
        <time>2010-01-01T00:04:42Z</time>
      </trkpt>
      <trkpt lat="38.97364" lon="1.30791">
        <ele>5</ele>
        <time>2010-01-01T00:04:46Z</time>
      </trkpt>
      <trkpt lat="38.97354" lon="1.30787">
        <ele>4</ele>
        <time>2010-01-01T00:04:51Z</time>
      </trkpt>
      <trkpt lat="38.97345" lon="1.30784">
        <ele>4</ele>
        <time>2010-01-01T00:04:54Z</time>
      </trkpt>
      <trkpt lat="38.97335" lon="1.30778">
        <ele>3</ele>
        <time>2010-01-01T00:04:59Z</time>
      </trkpt>
      <trkpt lat="38.97326" lon="1.3077">
        <ele>2</ele>
        <time>2010-01-01T00:05:03Z</time>
      </trkpt>
      <trkpt lat="38.97318" lon="1.30762">
        <ele>2</ele>
        <time>2010-01-01T00:05:07Z</time>
      </trkpt>
      <trkpt lat="38.9731" lon="1.30752">
        <ele>1</ele>
        <time>2010-01-01T00:05:11Z</time>
      </trkpt>
      <trkpt lat="38.97302" lon="1.30744">
        <ele>1.8</ele>
        <time>2010-01-01T00:05:16Z</time>
      </trkpt>
      <trkpt lat="38.97294" lon="1.30736">
        <ele>1.7</ele>
        <time>2010-01-01T00:05:20Z</time>
      </trkpt>
      <trkpt lat="38.97288" lon="1.30728">
        <ele>1</ele>
        <time>2010-01-01T00:05:23Z</time>
      </trkpt>
      <trkpt lat="38.97279" lon="1.30719">
        <ele>1</ele>
        <time>2010-01-01T00:05:28Z</time>
      </trkpt>
      <trkpt lat="38.9727" lon="1.30709">
        <ele>1</ele>
        <time>2010-01-01T00:05:32Z</time>
      </trkpt>
      <trkpt lat="38.97262" lon="1.30701">
        <ele>1</ele>
        <time>2010-01-01T00:05:37Z</time>
      </trkpt>
      <trkpt lat="38.97254" lon="1.30693">
        <ele>1.86</ele>
        <time>2010-01-01T00:05:41Z</time>
      </trkpt>
      <trkpt lat="38.97248" lon="1.30681">
        <ele>2</ele>
        <time>2010-01-01T00:05:45Z</time>
      </trkpt>
      <trkpt lat="38.9724" lon="1.30671">
        <ele>-1</ele>
        <time>2010-01-01T00:05:49Z</time>
      </trkpt>
      <trkpt lat="38.97234" lon="1.3066">
        <ele>-1</ele>
        <time>2010-01-01T00:05:54Z</time>
      </trkpt>
      <trkpt lat="38.97227" lon="1.30649">
        <ele>1.4</ele>
        <time>2010-01-01T00:05:58Z</time>
      </trkpt>
      <trkpt lat="38.97219" lon="1.30638">
        <ele>1.2</ele>
        <time>2010-01-01T00:06:03Z</time>
      </trkpt>
      <trkpt lat="38.97213" lon="1.30627">
        <ele>1.6</ele>
        <time>2010-01-01T00:06:07Z</time>
      </trkpt>
      <trkpt lat="38.9721" lon="1.30614">
        <ele>1.9</ele>
        <time>2010-01-01T00:06:11Z</time>
      </trkpt>
      <trkpt lat="38.9721" lon="1.30603">
        <ele>2.3</ele>
        <time>2010-01-01T00:06:15Z</time>
      </trkpt>
      <trkpt lat="38.97211" lon="1.30589">
        <ele>2.8</ele>
        <time>2010-01-01T00:06:19Z</time>
      </trkpt>
      <trkpt lat="38.97214" lon="1.30577">
        <ele>2.9</ele>
        <time>2010-01-01T00:06:23Z</time>
      </trkpt>
      <trkpt lat="38.97217" lon="1.30564">
        <ele>2.3</ele>
        <time>2010-01-01T00:06:27Z</time>
      </trkpt>
      <trkpt lat="38.97221" lon="1.30553">
        <ele>1</ele>
        <time>2010-01-01T00:06:31Z</time>
      </trkpt>
      <trkpt lat="38.97224" lon="1.30541">
        <ele>1</ele>
        <time>2010-01-01T00:06:35Z</time>
      </trkpt>
      <trkpt lat="38.97228" lon="1.30527">
        <ele>1</ele>
        <time>2010-01-01T00:06:39Z</time>
      </trkpt>
      <trkpt lat="38.97231" lon="1.30515">
        <ele>2</ele>
        <time>2010-01-01T00:06:43Z</time>
      </trkpt>
      <trkpt lat="38.97235" lon="1.30501">
        <ele>2</ele>
        <time>2010-01-01T00:06:48Z</time>
      </trkpt>
      <trkpt lat="38.97237" lon="1.3049">
        <ele>2</ele>
        <time>2010-01-01T00:06:52Z</time>
      </trkpt>
      <trkpt lat="38.97242" lon="1.30478">
        <ele>2</ele>
        <time>2010-01-01T00:06:56Z</time>
      </trkpt>
      <trkpt lat="38.97245" lon="1.30464">
        <ele>3</ele>
        <time>2010-01-01T00:07:00Z</time>
      </trkpt>
      <trkpt lat="38.97247" lon="1.30451">
        <ele>3</ele>
        <time>2010-01-01T00:07:04Z</time>
      </trkpt>
      <trkpt lat="38.97249" lon="1.30438">
        <ele>2</ele>
        <time>2010-01-01T00:07:08Z</time>
      </trkpt>
      <trkpt lat="38.97246" lon="1.30424">
        <ele>1</ele>
        <time>2010-01-01T00:07:13Z</time>
      </trkpt>
      <trkpt lat="38.97238" lon="1.30414">
        <ele>1</ele>
        <time>2010-01-01T00:07:17Z</time>
      </trkpt>
      <trkpt lat="38.9723" lon="1.30408">
        <ele>1</ele>
        <time>2010-01-01T00:07:21Z</time>
      </trkpt>
      <trkpt lat="38.9722" lon="1.30404">
        <ele>2</ele>
        <time>2010-01-01T00:07:25Z</time>
      </trkpt>
      <trkpt lat="38.9721" lon="1.30401">
        <ele>2</ele>
        <time>2010-01-01T00:07:29Z</time>
      </trkpt>
      <trkpt lat="38.972" lon="1.30399">
        <ele>2</ele>
        <time>2010-01-01T00:07:33Z</time>
      </trkpt>
      <trkpt lat="38.9719" lon="1.30395">
        <ele>3</ele>
        <time>2010-01-01T00:07:38Z</time>
      </trkpt>
      <trkpt lat="38.97179" lon="1.30393">
        <ele>3</ele>
        <time>2010-01-01T00:07:42Z</time>
      </trkpt>
      <trkpt lat="38.9717" lon="1.30392">
        <ele>3</ele>
        <time>2010-01-01T00:07:46Z</time>
      </trkpt>
      <trkpt lat="38.9716" lon="1.3039">
        <ele>4</ele>
        <time>2010-01-01T00:07:50Z</time>
      </trkpt>
      <trkpt lat="38.97149" lon="1.30389">
        <ele>5</ele>
        <time>2010-01-01T00:07:54Z</time>
      </trkpt>
      <trkpt lat="38.97139" lon="1.3039">
        <ele>6</ele>
        <time>2010-01-01T00:07:58Z</time>
      </trkpt>
      <trkpt lat="38.97128" lon="1.3039">
        <ele>6</ele>
        <time>2010-01-01T00:08:03Z</time>
      </trkpt>
      <trkpt lat="38.97117" lon="1.30392">
        <ele>6</ele>
        <time>2010-01-01T00:08:07Z</time>
      </trkpt>
      <trkpt lat="38.97108" lon="1.30397">
        <ele>6</ele>
        <time>2010-01-01T00:08:11Z</time>
      </trkpt>
      <trkpt lat="38.97097" lon="1.30401">
        <ele>5</ele>
        <time>2010-01-01T00:08:16Z</time>
      </trkpt>
      <trkpt lat="38.97087" lon="1.30406">
        <ele>5</ele>
        <time>2010-01-01T00:08:20Z</time>
      </trkpt>
      <trkpt lat="38.97078" lon="1.30411">
        <ele>4</ele>
        <time>2010-01-01T00:08:24Z</time>
      </trkpt>
      <trkpt lat="38.97068" lon="1.30416">
        <ele>3</ele>
        <time>2010-01-01T00:08:28Z</time>
      </trkpt>
      <trkpt lat="38.97057" lon="1.3042">
        <ele>2</ele>
        <time>2010-01-01T00:08:32Z</time>
      </trkpt>
      <trkpt lat="38.97047" lon="1.30422">
        <ele>2</ele>
        <time>2010-01-01T00:08:37Z</time>
      </trkpt>
      <trkpt lat="38.97037" lon="1.30424">
        <ele>2</ele>
        <time>2010-01-01T00:08:41Z</time>
      </trkpt>
      <trkpt lat="38.97026" lon="1.30426">
        <ele>2</ele>
        <time>2010-01-01T00:08:45Z</time>
      </trkpt>
      <trkpt lat="38.97018" lon="1.30419">
        <ele>2</ele>
        <time>2010-01-01T00:08:49Z</time>
      </trkpt>
      <trkpt lat="38.9701" lon="1.3041">
        <ele>2</ele>
        <time>2010-01-01T00:08:53Z</time>
      </trkpt>
      <trkpt lat="38.97002" lon="1.304">
        <ele>2</ele>
        <time>2010-01-01T00:08:58Z</time>
      </trkpt>
      <trkpt lat="38.96994" lon="1.30389">
        <ele>2</ele>
        <time>2010-01-01T00:09:02Z</time>
      </trkpt>
      <trkpt lat="38.96987" lon="1.30379">
        <ele>2</ele>
        <time>2010-01-01T00:09:07Z</time>
      </trkpt>
      <trkpt lat="38.96979" lon="1.30372">
        <ele>2</ele>
        <time>2010-01-01T00:09:10Z</time>
      </trkpt>
      <trkpt lat="38.9697" lon="1.30362">
        <ele>2</ele>
        <time>2010-01-01T00:09:15Z</time>
      </trkpt>
      <trkpt lat="38.96963" lon="1.30353">
        <ele>2</ele>
        <time>2010-01-01T00:09:19Z</time>
      </trkpt>
      <trkpt lat="38.96956" lon="1.30344">
        <ele>2</ele>
        <time>2010-01-01T00:09:23Z</time>
      </trkpt>
      <trkpt lat="38.96949" lon="1.30335">
        <ele>2</ele>
        <time>2010-01-01T00:09:27Z</time>
      </trkpt>
      <trkpt lat="38.96947" lon="1.30323">
        <ele>3</ele>
        <time>2010-01-01T00:09:31Z</time>
      </trkpt>
      <trkpt lat="38.96945" lon="1.3031">
        <ele>3</ele>
        <time>2010-01-01T00:09:35Z</time>
      </trkpt>
      <trkpt lat="38.96942" lon="1.30298">
        <ele>4</ele>
        <time>2010-01-01T00:09:39Z</time>
      </trkpt>
      <trkpt lat="38.96939" lon="1.30286">
        <ele>4</ele>
        <time>2010-01-01T00:09:43Z</time>
      </trkpt>
      <trkpt lat="38.96937" lon="1.30273">
        <ele>3</ele>
        <time>2010-01-01T00:09:47Z</time>
      </trkpt>
      <trkpt lat="38.96934" lon="1.3026">
        <ele>2</ele>
        <time>2010-01-01T00:09:51Z</time>
      </trkpt>
      <trkpt lat="38.96931" lon="1.30247">
        <ele>2</ele>
        <time>2010-01-01T00:09:55Z</time>
      </trkpt>
      <trkpt lat="38.96929" lon="1.30235">
        <ele>2</ele>
        <time>2010-01-01T00:09:59Z</time>
      </trkpt>
      <trkpt lat="38.96928" lon="1.30223">
        <ele>2</ele>
        <time>2010-01-01T00:10:03Z</time>
      </trkpt>
      <trkpt lat="38.96927" lon="1.3021">
        <ele>2</ele>
        <time>2010-01-01T00:10:07Z</time>
      </trkpt>
      <trkpt lat="38.96924" lon="1.30196">
        <ele>2</ele>
        <time>2010-01-01T00:10:11Z</time>
      </trkpt>
      <trkpt lat="38.96923" lon="1.30184">
        <ele>2</ele>
        <time>2010-01-01T00:10:15Z</time>
      </trkpt>
      <trkpt lat="38.96922" lon="1.30171">
        <ele>2</ele>
        <time>2010-01-01T00:10:19Z</time>
      </trkpt>
      <trkpt lat="38.96919" lon="1.30158">
        <ele>1</ele>
        <time>2010-01-01T00:10:23Z</time>
      </trkpt>
      <trkpt lat="38.96914" lon="1.30148">
        <ele>2</ele>
        <time>2010-01-01T00:10:27Z</time>
      </trkpt>
      <trkpt lat="38.96904" lon="1.30139">
        <ele>2</ele>
        <time>2010-01-01T00:10:32Z</time>
      </trkpt>
      <trkpt lat="38.96895" lon="1.30132">
        <ele>1</ele>
        <time>2010-01-01T00:10:36Z</time>
      </trkpt>
      <trkpt lat="38.96886" lon="1.3013">
        <ele>1</ele>
        <time>2010-01-01T00:10:40Z</time>
      </trkpt>
      <trkpt lat="38.96876" lon="1.30131">
        <ele>1</ele>
        <time>2010-01-01T00:10:44Z</time>
      </trkpt>
      <trkpt lat="38.96865" lon="1.30135">
        <ele>1</ele>
        <time>2010-01-01T00:10:48Z</time>
      </trkpt>
      <trkpt lat="38.96854" lon="1.30137">
        <ele>1</ele>
        <time>2010-01-01T00:10:53Z</time>
      </trkpt>
      <trkpt lat="38.96844" lon="1.30132">
        <ele>1</ele>
        <time>2010-01-01T00:10:57Z</time>
      </trkpt>
      <trkpt lat="38.96836" lon="1.30125">
        <ele>1</ele>
        <time>2010-01-01T00:11:01Z</time>
      </trkpt>
      <trkpt lat="38.96826" lon="1.30121">
        <ele>2</ele>
        <time>2010-01-01T00:11:05Z</time>
      </trkpt>
      <trkpt lat="38.96817" lon="1.30114">
        <ele>3</ele>
        <time>2010-01-01T00:11:09Z</time>
      </trkpt>
      <trkpt lat="38.96813" lon="1.30104">
        <ele>3</ele>
        <time>2010-01-01T00:11:13Z</time>
      </trkpt>
      <trkpt lat="38.96819" lon="1.30092">
        <ele>3</ele>
        <time>2010-01-01T00:11:17Z</time>
      </trkpt>
      <trkpt lat="38.96824" lon="1.3008">
        <ele>2</ele>
        <time>2010-01-01T00:11:22Z</time>
      </trkpt>
      <trkpt lat="38.96824" lon="1.30066">
        <ele>2</ele>
        <time>2010-01-01T00:11:26Z</time>
      </trkpt>
      <trkpt lat="38.96822" lon="1.30054">
        <ele>2</ele>
        <time>2010-01-01T00:11:30Z</time>
      </trkpt>
      <trkpt lat="38.96819" lon="1.30042">
        <ele>2</ele>
        <time>2010-01-01T00:11:34Z</time>
      </trkpt>
      <trkpt lat="38.96813" lon="1.30033">
        <ele>1</ele>
        <time>2010-01-01T00:11:37Z</time>
      </trkpt>
      <trkpt lat="38.96806" lon="1.30023">
        <ele>1</ele>
        <time>2010-01-01T00:11:42Z</time>
      </trkpt>
      <trkpt lat="38.96801" lon="1.30012">
        <ele>1</ele>
        <time>2010-01-01T00:11:45Z</time>
      </trkpt>
      <trkpt lat="38.96796" lon="1.3">
        <ele>1</ele>
        <time>2010-01-01T00:11:50Z</time>
      </trkpt>
      <trkpt lat="38.96794" lon="1.29988">
        <ele>1</ele>
        <time>2010-01-01T00:11:53Z</time>
      </trkpt>
      <trkpt lat="38.96793" lon="1.29976">
        <ele>2</ele>
        <time>2010-01-01T00:11:57Z</time>
      </trkpt>
      <trkpt lat="38.96793" lon="1.29963">
        <ele>2</ele>
        <time>2010-01-01T00:12:01Z</time>
      </trkpt>
      <trkpt lat="38.96793" lon="1.29948">
        <ele>1</ele>
        <time>2010-01-01T00:12:06Z</time>
      </trkpt>
      <trkpt lat="38.96792" lon="1.29935">
        <ele>1</ele>
        <time>2010-01-01T00:12:10Z</time>
      </trkpt>
      <trkpt lat="38.96786" lon="1.29922">
        <ele>2</ele>
        <time>2010-01-01T00:12:15Z</time>
      </trkpt>
      <trkpt lat="38.96786" lon="1.29909">
        <ele>2</ele>
        <time>2010-01-01T00:12:19Z</time>
      </trkpt>
      <trkpt lat="38.96791" lon="1.29896">
        <ele>2</ele>
        <time>2010-01-01T00:12:23Z</time>
      </trkpt>
      <trkpt lat="38.96793" lon="1.29883">
        <ele>3</ele>
        <time>2010-01-01T00:12:27Z</time>
      </trkpt>
      <trkpt lat="38.96796" lon="1.29871">
        <ele>3</ele>
        <time>2010-01-01T00:12:31Z</time>
      </trkpt>
      <trkpt lat="38.96803" lon="1.29861">
        <ele>4</ele>
        <time>2010-01-01T00:12:35Z</time>
      </trkpt>
      <trkpt lat="38.96812" lon="1.29858">
        <ele>3</ele>
        <time>2010-01-01T00:12:39Z</time>
      </trkpt>
      <trkpt lat="38.96819" lon="1.29847">
        <ele>2</ele>
        <time>2010-01-01T00:12:44Z</time>
      </trkpt>
      <trkpt lat="38.96825" lon="1.29836">
        <ele>1</ele>
        <time>2010-01-01T00:12:48Z</time>
      </trkpt>
      <trkpt lat="38.9683" lon="1.29823">
        <ele>1</ele>
        <time>2010-01-01T00:12:52Z</time>
      </trkpt>
      <trkpt lat="38.96837" lon="1.29811">
        <ele>1</ele>
        <time>2010-01-01T00:12:57Z</time>
      </trkpt>
      <trkpt lat="38.96844" lon="1.29803">
        <ele>1</ele>
        <time>2010-01-01T00:13:01Z</time>
      </trkpt>
      <trkpt lat="38.96851" lon="1.29795">
        <ele>1</ele>
        <time>2010-01-01T00:13:05Z</time>
      </trkpt>
      <trkpt lat="38.96856" lon="1.29782">
        <ele>2</ele>
        <time>2010-01-01T00:13:09Z</time>
      </trkpt>
      <trkpt lat="38.96862" lon="1.29771">
        <ele>2</ele>
        <time>2010-01-01T00:13:13Z</time>
      </trkpt>
      <trkpt lat="38.96869" lon="1.2976">
        <ele>3</ele>
        <time>2010-01-01T00:13:18Z</time>
      </trkpt>
      <trkpt lat="38.96874" lon="1.29749">
        <ele>3</ele>
        <time>2010-01-01T00:13:22Z</time>
      </trkpt>
      <trkpt lat="38.96881" lon="1.29736">
        <ele>3</ele>
        <time>2010-01-01T00:13:26Z</time>
      </trkpt>
      <trkpt lat="38.96882" lon="1.29722">
        <ele>3</ele>
        <time>2010-01-01T00:13:31Z</time>
      </trkpt>
      <trkpt lat="38.96881" lon="1.29709">
        <ele>4</ele>
        <time>2010-01-01T00:13:35Z</time>
      </trkpt>
      <trkpt lat="38.9688" lon="1.29696">
        <ele>4</ele>
        <time>2010-01-01T00:13:39Z</time>
      </trkpt>
      <trkpt lat="38.96875" lon="1.29683">
        <ele>5</ele>
        <time>2010-01-01T00:13:44Z</time>
      </trkpt>
      <trkpt lat="38.96869" lon="1.29671">
        <ele>7</ele>
        <time>2010-01-01T00:13:48Z</time>
      </trkpt>
      <trkpt lat="38.9686" lon="1.29663">
        <ele>10</ele>
        <time>2010-01-01T00:13:52Z</time>
      </trkpt>
      <trkpt lat="38.96853" lon="1.29655">
        <ele>12</ele>
        <time>2010-01-01T00:13:56Z</time>
      </trkpt>
      <trkpt lat="38.96844" lon="1.29646">
        <ele>14</ele>
        <time>2010-01-01T00:14:01Z</time>
      </trkpt>
      <trkpt lat="38.96839" lon="1.29636">
        <ele>15</ele>
        <time>2010-01-01T00:14:04Z</time>
      </trkpt>
      <trkpt lat="38.96836" lon="1.29625">
        <ele>14</ele>
        <time>2010-01-01T00:14:08Z</time>
      </trkpt>
      <trkpt lat="38.96835" lon="1.29612">
        <ele>12</ele>
        <time>2010-01-01T00:14:12Z</time>
      </trkpt>
      <trkpt lat="38.96836" lon="1.29599">
        <ele>9</ele>
        <time>2010-01-01T00:14:16Z</time>
      </trkpt>
      <trkpt lat="38.96836" lon="1.29586">
        <ele>5</ele>
        <time>2010-01-01T00:14:20Z</time>
      </trkpt>
      <trkpt lat="38.96838" lon="1.29573">
        <ele>4</ele>
        <time>2010-01-01T00:14:24Z</time>
      </trkpt>
      <trkpt lat="38.96842" lon="1.29563">
        <ele>3</ele>
        <time>2010-01-01T00:14:28Z</time>
      </trkpt>
      <trkpt lat="38.96848" lon="1.29553">
        <ele>3</ele>
        <time>2010-01-01T00:14:32Z</time>
      </trkpt>
      <trkpt lat="38.96854" lon="1.29542">
        <ele>3</ele>
        <time>2010-01-01T00:14:36Z</time>
      </trkpt>
      <trkpt lat="38.96858" lon="1.29531">
        <ele>4</ele>
        <time>2010-01-01T00:14:40Z</time>
      </trkpt>
      <trkpt lat="38.96866" lon="1.29524">
        <ele>5</ele>
        <time>2010-01-01T00:14:44Z</time>
      </trkpt>
      <trkpt lat="38.96877" lon="1.29521">
        <ele>6</ele>
        <time>2010-01-01T00:14:48Z</time>
      </trkpt>
      <trkpt lat="38.96882" lon="1.29512">
        <ele>7</ele>
        <time>2010-01-01T00:14:52Z</time>
      </trkpt>
      <trkpt lat="38.96888" lon="1.295">
        <ele>7</ele>
        <time>2010-01-01T00:14:56Z</time>
      </trkpt>
      <trkpt lat="38.96892" lon="1.29489">
        <ele>7</ele>
        <time>2010-01-01T00:15:00Z</time>
      </trkpt>
      <trkpt lat="38.969" lon="1.29482">
        <ele>6</ele>
        <time>2010-01-01T00:15:04Z</time>
      </trkpt>
      <trkpt lat="38.96909" lon="1.29476">
        <ele>5</ele>
        <time>2010-01-01T00:15:08Z</time>
      </trkpt>
      <trkpt lat="38.96919" lon="1.29468">
        <ele>4</ele>
        <time>2010-01-01T00:15:12Z</time>
      </trkpt>
      <trkpt lat="38.96928" lon="1.29461">
        <ele>4</ele>
        <time>2010-01-01T00:15:17Z</time>
      </trkpt>
      <trkpt lat="38.96938" lon="1.29456">
        <ele>3</ele>
        <time>2010-01-01T00:15:21Z</time>
      </trkpt>
      <trkpt lat="38.96948" lon="1.2945">
        <ele>3</ele>
        <time>2010-01-01T00:15:25Z</time>
      </trkpt>
      <trkpt lat="38.96957" lon="1.29444">
        <ele>4</ele>
        <time>2010-01-01T00:15:30Z</time>
      </trkpt>
      <trkpt lat="38.96965" lon="1.29434">
        <ele>5</ele>
        <time>2010-01-01T00:15:34Z</time>
      </trkpt>
      <trkpt lat="38.96971" lon="1.29425">
        <ele>5</ele>
        <time>2010-01-01T00:15:38Z</time>
      </trkpt>
      <trkpt lat="38.96978" lon="1.29417">
        <ele>5</ele>
        <time>2010-01-01T00:15:41Z</time>
      </trkpt>
      <trkpt lat="38.96989" lon="1.29411">
        <ele>5</ele>
        <time>2010-01-01T00:15:46Z</time>
      </trkpt>
      <trkpt lat="38.96998" lon="1.29408">
        <ele>4</ele>
        <time>2010-01-01T00:15:50Z</time>
      </trkpt>
      <trkpt lat="38.97007" lon="1.29399">
        <ele>3</ele>
        <time>2010-01-01T00:15:54Z</time>
      </trkpt>
      <trkpt lat="38.97013" lon="1.2939">
        <ele>2</ele>
        <time>2010-01-01T00:15:58Z</time>
      </trkpt>
      <trkpt lat="38.9702" lon="1.29379">
        <ele>3</ele>
        <time>2010-01-01T00:16:03Z</time>
      </trkpt>
      <trkpt lat="38.97027" lon="1.29371">
        <ele>4</ele>
        <time>2010-01-01T00:16:06Z</time>
      </trkpt>
      <trkpt lat="38.97033" lon="1.29362">
        <ele>6</ele>
        <time>2010-01-01T00:16:10Z</time>
      </trkpt>
      <trkpt lat="38.97037" lon="1.29349">
        <ele>6</ele>
        <time>2010-01-01T00:16:14Z</time>
      </trkpt>
      <trkpt lat="38.97039" lon="1.29338">
        <ele>4</ele>
        <time>2010-01-01T00:16:18Z</time>
      </trkpt>
      <trkpt lat="38.97042" lon="1.29326">
        <ele>4</ele>
        <time>2010-01-01T00:16:22Z</time>
      </trkpt>
      <trkpt lat="38.97043" lon="1.29312">
        <ele>4</ele>
        <time>2010-01-01T00:16:26Z</time>
      </trkpt>
      <trkpt lat="38.97044" lon="1.29297">
        <ele>3</ele>
        <time>2010-01-01T00:16:31Z</time>
      </trkpt>
      <trkpt lat="38.97045" lon="1.29284">
        <ele>3</ele>
        <time>2010-01-01T00:16:35Z</time>
      </trkpt>
      <trkpt lat="38.97046" lon="1.2927">
        <ele>3</ele>
        <time>2010-01-01T00:16:39Z</time>
      </trkpt>
      <trkpt lat="38.97049" lon="1.29259">
        <ele>2</ele>
        <time>2010-01-01T00:16:43Z</time>
      </trkpt>
      <trkpt lat="38.97053" lon="1.29246">
        <ele>2</ele>
        <time>2010-01-01T00:16:47Z</time>
      </trkpt>
      <trkpt lat="38.97058" lon="1.29234">
        <ele>2</ele>
        <time>2010-01-01T00:16:51Z</time>
      </trkpt>
      <trkpt lat="38.97064" lon="1.29225">
        <ele>2</ele>
        <time>2010-01-01T00:16:55Z</time>
      </trkpt>
      <trkpt lat="38.97073" lon="1.29219">
        <ele>2</ele>
        <time>2010-01-01T00:16:59Z</time>
      </trkpt>
      <trkpt lat="38.97082" lon="1.29213">
        <ele>2</ele>
        <time>2010-01-01T00:17:03Z</time>
      </trkpt>
      <trkpt lat="38.97089" lon="1.29206">
        <ele>3</ele>
        <time>2010-01-01T00:17:07Z</time>
      </trkpt>
      <trkpt lat="38.97098" lon="1.292">
        <ele>3</ele>
        <time>2010-01-01T00:17:11Z</time>
      </trkpt>
      <trkpt lat="38.97108" lon="1.29196">
        <ele>3</ele>
        <time>2010-01-01T00:17:15Z</time>
      </trkpt>
      <trkpt lat="38.97119" lon="1.29194">
        <ele>4</ele>
        <time>2010-01-01T00:17:20Z</time>
      </trkpt>
      <trkpt lat="38.97128" lon="1.29192">
        <ele>4</ele>
        <time>2010-01-01T00:17:23Z</time>
      </trkpt>
      <trkpt lat="38.97138" lon="1.29197">
        <ele>3</ele>
        <time>2010-01-01T00:17:27Z</time>
      </trkpt>
      <trkpt lat="38.97141" lon="1.29208">
        <ele>3</ele>
        <time>2010-01-01T00:17:31Z</time>
      </trkpt>
      <trkpt lat="38.97146" lon="1.29219">
        <ele>3</ele>
        <time>2010-01-01T00:17:35Z</time>
      </trkpt>
      <trkpt lat="38.97151" lon="1.29232">
        <ele>3</ele>
        <time>2010-01-01T00:17:40Z</time>
      </trkpt>
      <trkpt lat="38.97157" lon="1.29242">
        <ele>3</ele>
        <time>2010-01-01T00:17:43Z</time>
      </trkpt>
      <trkpt lat="38.97165" lon="1.29251">
        <ele>2</ele>
        <time>2010-01-01T00:17:48Z</time>
      </trkpt>
      <trkpt lat="38.97173" lon="1.29248">
        <ele>2</ele>
        <time>2010-01-01T00:17:51Z</time>
      </trkpt>
      <trkpt lat="38.97183" lon="1.29242">
        <ele>2</ele>
        <time>2010-01-01T00:17:56Z</time>
      </trkpt>
      <trkpt lat="38.97192" lon="1.29238">
        <ele>2</ele>
        <time>2010-01-01T00:18:00Z</time>
      </trkpt>
      <trkpt lat="38.972" lon="1.29229">
        <ele>3</ele>
        <time>2010-01-01T00:18:04Z</time>
      </trkpt>
      <trkpt lat="38.97209" lon="1.29223">
        <ele>2</ele>
        <time>2010-01-01T00:18:08Z</time>
      </trkpt>
      <trkpt lat="38.97217" lon="1.29217">
        <ele>2</ele>
        <time>2010-01-01T00:18:11Z</time>
      </trkpt>
      <trkpt lat="38.97224" lon="1.29207">
        <ele>2</ele>
        <time>2010-01-01T00:18:16Z</time>
      </trkpt>
      <trkpt lat="38.97228" lon="1.29195">
        <ele>2</ele>
        <time>2010-01-01T00:18:20Z</time>
      </trkpt>
      <trkpt lat="38.97231" lon="1.29183">
        <ele>3</ele>
        <time>2010-01-01T00:18:24Z</time>
      </trkpt>
      <trkpt lat="38.97229" lon="1.29168">
        <ele>3</ele>
        <time>2010-01-01T00:18:29Z</time>
      </trkpt>
      <trkpt lat="38.97223" lon="1.29156">
        <ele>2</ele>
        <time>2010-01-01T00:18:33Z</time>
      </trkpt>
      <trkpt lat="38.97218" lon="1.29143">
        <ele>2</ele>
        <time>2010-01-01T00:18:37Z</time>
      </trkpt>
      <trkpt lat="38.97214" lon="1.29132">
        <ele>2</ele>
        <time>2010-01-01T00:18:41Z</time>
      </trkpt>
      <trkpt lat="38.97207" lon="1.29119">
        <ele>2</ele>
        <time>2010-01-01T00:18:46Z</time>
      </trkpt>
      <trkpt lat="38.97201" lon="1.29108">
        <ele>2</ele>
        <time>2010-01-01T00:18:51Z</time>
      </trkpt>
      <trkpt lat="38.97195" lon="1.29097">
        <ele>2</ele>
        <time>2010-01-01T00:18:55Z</time>
      </trkpt>
      <trkpt lat="38.9719" lon="1.29082">
        <ele>3</ele>
        <time>2010-01-01T00:19:00Z</time>
      </trkpt>
      <trkpt lat="38.97188" lon="1.29068">
        <ele>2</ele>
        <time>2010-01-01T00:19:04Z</time>
      </trkpt>
      <trkpt lat="38.97185" lon="1.29056">
        <ele>1</ele>
        <time>2010-01-01T00:19:08Z</time>
      </trkpt>
      <trkpt lat="38.9718" lon="1.29046">
        <ele>1</ele>
        <time>2010-01-01T00:19:12Z</time>
      </trkpt>
      <trkpt lat="38.97179" lon="1.29034">
        <ele>1</ele>
        <time>2010-01-01T00:19:15Z</time>
      </trkpt>
      <trkpt lat="38.97176" lon="1.29023">
        <ele>1</ele>
        <time>2010-01-01T00:19:19Z</time>
      </trkpt>
      <trkpt lat="38.97172" lon="1.29011">
        <ele>2</ele>
        <time>2010-01-01T00:19:23Z</time>
      </trkpt>
      <trkpt lat="38.9717" lon="1.28999">
        <ele>2</ele>
        <time>2010-01-01T00:19:27Z</time>
      </trkpt>
      <trkpt lat="38.97167" lon="1.28986">
        <ele>2</ele>
        <time>2010-01-01T00:19:31Z</time>
      </trkpt>
      <trkpt lat="38.97165" lon="1.28974">
        <ele>3</ele>
        <time>2010-01-01T00:19:35Z</time>
      </trkpt>
      <trkpt lat="38.9716" lon="1.28965">
        <ele>2</ele>
        <time>2010-01-01T00:19:38Z</time>
      </trkpt>
      <trkpt lat="38.97153" lon="1.28955">
        <ele>2</ele>
        <time>2010-01-01T00:19:42Z</time>
      </trkpt>
      <trkpt lat="38.97147" lon="1.28945">
        <ele>2</ele>
        <time>2010-01-01T00:19:46Z</time>
      </trkpt>
      <trkpt lat="38.97147" lon="1.28932">
        <ele>2</ele>
        <time>2010-01-01T00:19:51Z</time>
      </trkpt>
      <trkpt lat="38.97145" lon="1.2892">
        <ele>2</ele>
        <time>2010-01-01T00:19:54Z</time>
      </trkpt>
      <trkpt lat="38.97143" lon="1.28907">
        <ele>2</ele>
        <time>2010-01-01T00:19:58Z</time>
      </trkpt>
      <trkpt lat="38.97139" lon="1.28893">
        <ele>2</ele>
        <time>2010-01-01T00:20:03Z</time>
      </trkpt>
      <trkpt lat="38.97135" lon="1.28883">
        <ele>2</ele>
        <time>2010-01-01T00:20:07Z</time>
      </trkpt>
      <trkpt lat="38.9713" lon="1.28869">
        <ele>2</ele>
        <time>2010-01-01T00:20:11Z</time>
      </trkpt>
      <trkpt lat="38.97127" lon="1.28858">
        <ele>2</ele>
        <time>2010-01-01T00:20:15Z</time>
      </trkpt>
      <trkpt lat="38.97122" lon="1.28845">
        <ele>3</ele>
        <time>2010-01-01T00:20:20Z</time>
      </trkpt>
      <trkpt lat="38.97115" lon="1.28833">
        <ele>4</ele>
        <time>2010-01-01T00:20:24Z</time>
      </trkpt>
      <trkpt lat="38.97109" lon="1.28821">
        <ele>5</ele>
        <time>2010-01-01T00:20:29Z</time>
      </trkpt>
      <trkpt lat="38.97106" lon="1.28808">
        <ele>5</ele>
        <time>2010-01-01T00:20:33Z</time>
      </trkpt>
      <trkpt lat="38.97104" lon="1.28795">
        <ele>6</ele>
        <time>2010-01-01T00:20:37Z</time>
      </trkpt>
      <trkpt lat="38.97103" lon="1.28783">
        <ele>6</ele>
        <time>2010-01-01T00:20:41Z</time>
      </trkpt>
      <trkpt lat="38.97098" lon="1.28773">
        <ele>6</ele>
        <time>2010-01-01T00:20:45Z</time>
      </trkpt>
      <trkpt lat="38.97098" lon="1.2876">
        <ele>6</ele>
        <time>2010-01-01T00:20:49Z</time>
      </trkpt>
      <trkpt lat="38.97104" lon="1.28749">
        <ele>5</ele>
        <time>2010-01-01T00:20:52Z</time>
      </trkpt>
      <trkpt lat="38.97108" lon="1.28739">
        <ele>5</ele>
        <time>2010-01-01T00:20:56Z</time>
      </trkpt>
      <trkpt lat="38.97111" lon="1.28725">
        <ele>5</ele>
        <time>2010-01-01T00:21:01Z</time>
      </trkpt>
      <trkpt lat="38.97114" lon="1.28714">
        <ele>4</ele>
        <time>2010-01-01T00:21:04Z</time>
      </trkpt>
      <trkpt lat="38.97118" lon="1.28702">
        <ele>3</ele>
        <time>2010-01-01T00:21:08Z</time>
      </trkpt>
      <trkpt lat="38.97122" lon="1.2869">
        <ele>3</ele>
        <time>2010-01-01T00:21:12Z</time>
      </trkpt>
      <trkpt lat="38.97126" lon="1.28679">
        <ele>2</ele>
        <time>2010-01-01T00:21:16Z</time>
      </trkpt>
      <trkpt lat="38.9713" lon="1.28668">
        <ele>2</ele>
        <time>2010-01-01T00:21:20Z</time>
      </trkpt>
      <trkpt lat="38.97135" lon="1.28656">
        <ele>2</ele>
        <time>2010-01-01T00:21:24Z</time>
      </trkpt>
      <trkpt lat="38.9714" lon="1.28647">
        <ele>2</ele>
        <time>2010-01-01T00:21:28Z</time>
      </trkpt>
      <trkpt lat="38.97146" lon="1.28637">
        <ele>3</ele>
        <time>2010-01-01T00:21:32Z</time>
      </trkpt>
      <trkpt lat="38.97153" lon="1.28629">
        <ele>4</ele>
        <time>2010-01-01T00:21:35Z</time>
      </trkpt>
      <trkpt lat="38.97162" lon="1.28619">
        <ele>4</ele>
        <time>2010-01-01T00:21:40Z</time>
      </trkpt>
      <trkpt lat="38.97168" lon="1.28609">
        <ele>4</ele>
        <time>2010-01-01T00:21:44Z</time>
      </trkpt>
      <trkpt lat="38.97175" lon="1.286">
        <ele>4</ele>
        <time>2010-01-01T00:21:48Z</time>
      </trkpt>
      <trkpt lat="38.97184" lon="1.28591">
        <ele>3</ele>
        <time>2010-01-01T00:21:53Z</time>
      </trkpt>
      <trkpt lat="38.97194" lon="1.28582">
        <ele>3</ele>
        <time>2010-01-01T00:21:57Z</time>
      </trkpt>
      <trkpt lat="38.97203" lon="1.28577">
        <ele>3</ele>
        <time>2010-01-01T00:22:01Z</time>
      </trkpt>
      <trkpt lat="38.97211" lon="1.28572">
        <ele>5</ele>
        <time>2010-01-01T00:22:05Z</time>
      </trkpt>
      <trkpt lat="38.97221" lon="1.28568">
        <ele>6</ele>
        <time>2010-01-01T00:22:09Z</time>
      </trkpt>
      <trkpt lat="38.97231" lon="1.28567">
        <ele>7</ele>
        <time>2010-01-01T00:22:13Z</time>
      </trkpt>
      <trkpt lat="38.9724" lon="1.28566">
        <ele>7</ele>
        <time>2010-01-01T00:22:17Z</time>
      </trkpt>
      <trkpt lat="38.97251" lon="1.2857">
        <ele>6</ele>
        <time>2010-01-01T00:22:22Z</time>
      </trkpt>
      <trkpt lat="38.97259" lon="1.28578">
        <ele>6</ele>
        <time>2010-01-01T00:22:25Z</time>
      </trkpt>
      <trkpt lat="38.97268" lon="1.28585">
        <ele>5</ele>
        <time>2010-01-01T00:22:30Z</time>
      </trkpt>
      <trkpt lat="38.97275" lon="1.28594">
        <ele>5</ele>
        <time>2010-01-01T00:22:34Z</time>
      </trkpt>
      <trkpt lat="38.97282" lon="1.28606">
        <ele>4</ele>
        <time>2010-01-01T00:22:38Z</time>
      </trkpt>
      <trkpt lat="38.97288" lon="1.28616">
        <ele>4</ele>
        <time>2010-01-01T00:22:42Z</time>
      </trkpt>
      <trkpt lat="38.9729" lon="1.28629">
        <ele>4</ele>
        <time>2010-01-01T00:22:46Z</time>
      </trkpt>
      <trkpt lat="38.97301" lon="1.28625">
        <ele>3</ele>
        <time>2010-01-01T00:22:51Z</time>
      </trkpt>
      <trkpt lat="38.97308" lon="1.28617">
        <ele>3</ele>
        <time>2010-01-01T00:22:54Z</time>
      </trkpt>
      <trkpt lat="38.97315" lon="1.28608">
        <ele>3</ele>
        <time>2010-01-01T00:22:58Z</time>
      </trkpt>
      <trkpt lat="38.97321" lon="1.28598">
        <ele>3</ele>
        <time>2010-01-01T00:23:02Z</time>
      </trkpt>
      <trkpt lat="38.97325" lon="1.28587">
        <ele>3</ele>
        <time>2010-01-01T00:23:06Z</time>
      </trkpt>
      <trkpt lat="38.9733" lon="1.28576">
        <ele>3</ele>
        <time>2010-01-01T00:23:10Z</time>
      </trkpt>
      <trkpt lat="38.97335" lon="1.28564">
        <ele>2</ele>
        <time>2010-01-01T00:23:14Z</time>
      </trkpt>
      <trkpt lat="38.97338" lon="1.28551">
        <ele>3</ele>
        <time>2010-01-01T00:23:19Z</time>
      </trkpt>
      <trkpt lat="38.9734" lon="1.28536">
        <ele>3</ele>
        <time>2010-01-01T00:23:23Z</time>
      </trkpt>
      <trkpt lat="38.97342" lon="1.28524">
        <ele>3</ele>
        <time>2010-01-01T00:23:27Z</time>
      </trkpt>
      <trkpt lat="38.97346" lon="1.28513">
        <ele>3</ele>
        <time>2010-01-01T00:23:31Z</time>
      </trkpt>
      <trkpt lat="38.97351" lon="1.28501">
        <ele>3</ele>
        <time>2010-01-01T00:23:35Z</time>
      </trkpt>
      <trkpt lat="38.97355" lon="1.28489">
        <ele>3</ele>
        <time>2010-01-01T00:23:39Z</time>
      </trkpt>
      <trkpt lat="38.97359" lon="1.28478">
        <ele>3</ele>
        <time>2010-01-01T00:23:43Z</time>
      </trkpt>
      <trkpt lat="38.97365" lon="1.28467">
        <ele>3</ele>
        <time>2010-01-01T00:23:47Z</time>
      </trkpt>
      <trkpt lat="38.97364" lon="1.28452">
        <ele>4</ele>
        <time>2010-01-01T00:23:52Z</time>
      </trkpt>
      <trkpt lat="38.97365" lon="1.28437">
        <ele>3</ele>
        <time>2010-01-01T00:23:56Z</time>
      </trkpt>
      <trkpt lat="38.97368" lon="1.28421">
        <ele>2</ele>
        <time>2010-01-01T00:24:02Z</time>
      </trkpt>
      <trkpt lat="38.97365" lon="1.28407">
        <ele>1</ele>
        <time>2010-01-01T00:24:06Z</time>
      </trkpt>
      <trkpt lat="38.97366" lon="1.28394">
        <ele>-1</ele>
        <time>2010-01-01T00:24:10Z</time>
      </trkpt>
      <trkpt lat="38.97362" lon="1.28383">
        <ele>-1</ele>
        <time>2010-01-01T00:24:14Z</time>
      </trkpt>
      <trkpt lat="38.97357" lon="1.28372">
        <ele>-1</ele>
        <time>2010-01-01T00:24:18Z</time>
      </trkpt>
      <trkpt lat="38.9735" lon="1.28361">
        <ele>-1</ele>
        <time>2010-01-01T00:24:22Z</time>
      </trkpt>
      <trkpt lat="38.97341" lon="1.2835">
        <ele>3</ele>
        <time>2010-01-01T00:24:27Z</time>
      </trkpt>
      <trkpt lat="38.97335" lon="1.28339">
        <ele>3</ele>
        <time>2010-01-01T00:24:31Z</time>
      </trkpt>
      <trkpt lat="38.97327" lon="1.2833">
        <ele>2.9</ele>
        <time>2010-01-01T00:24:36Z</time>
      </trkpt>
      <trkpt lat="38.97319" lon="1.2832">
        <ele>2.8</ele>
        <time>2010-01-01T00:24:40Z</time>
      </trkpt>
      <trkpt lat="38.97311" lon="1.28311">
        <ele>2.9</ele>
        <time>2010-01-01T00:24:44Z</time>
      </trkpt>
      <trkpt lat="38.97302" lon="1.28304">
        <ele>1</ele>
        <time>2010-01-01T00:24:49Z</time>
      </trkpt>
      <trkpt lat="38.97295" lon="1.28295">
        <ele>2</ele>
        <time>2010-01-01T00:24:53Z</time>
      </trkpt>
      <trkpt lat="38.97285" lon="1.28289">
        <ele>2</ele>
        <time>2010-01-01T00:24:57Z</time>
      </trkpt>
      <trkpt lat="38.97275" lon="1.28285">
        <ele>3</ele>
        <time>2010-01-01T00:25:01Z</time>
      </trkpt>
      <trkpt lat="38.97265" lon="1.2828">
        <ele>3</ele>
        <time>2010-01-01T00:25:06Z</time>
      </trkpt>
      <trkpt lat="38.97256" lon="1.28277">
        <ele>3</ele>
        <time>2010-01-01T00:25:09Z</time>
      </trkpt>
      <trkpt lat="38.97244" lon="1.28272">
        <ele>3</ele>
        <time>2010-01-01T00:25:14Z</time>
      </trkpt>
      <trkpt lat="38.97237" lon="1.28261">
        <ele>3</ele>
        <time>2010-01-01T00:25:19Z</time>
      </trkpt>
      <trkpt lat="38.9723" lon="1.28252">
        <ele>3</ele>
        <time>2010-01-01T00:25:22Z</time>
      </trkpt>
      <trkpt lat="38.97224" lon="1.28244">
        <ele>2</ele>
        <time>2010-01-01T00:25:26Z</time>
      </trkpt>
      <trkpt lat="38.97215" lon="1.28236">
        <ele>2</ele>
        <time>2010-01-01T00:25:30Z</time>
      </trkpt>
      <trkpt lat="38.97209" lon="1.28227">
        <ele>2</ele>
        <time>2010-01-01T00:25:34Z</time>
      </trkpt>
      <trkpt lat="38.97201" lon="1.28216">
        <ele>2</ele>
        <time>2010-01-01T00:25:39Z</time>
      </trkpt>
      <trkpt lat="38.97195" lon="1.28205">
        <ele>2</ele>
        <time>2010-01-01T00:25:43Z</time>
      </trkpt>
      <trkpt lat="38.97192" lon="1.28191">
        <ele>2</ele>
        <time>2010-01-01T00:25:47Z</time>
      </trkpt>
      <trkpt lat="38.97188" lon="1.2818">
        <ele>2</ele>
        <time>2010-01-01T00:25:51Z</time>
      </trkpt>
      <trkpt lat="38.97183" lon="1.28167">
        <ele>2</ele>
        <time>2010-01-01T00:25:56Z</time>
      </trkpt>
      <trkpt lat="38.9718" lon="1.28156">
        <ele>2</ele>
        <time>2010-01-01T00:25:59Z</time>
      </trkpt>
      <trkpt lat="38.97179" lon="1.28143">
        <ele>2</ele>
        <time>2010-01-01T00:26:03Z</time>
      </trkpt>
      <trkpt lat="38.97179" lon="1.28129">
        <ele>2</ele>
        <time>2010-01-01T00:26:08Z</time>
      </trkpt>
      <trkpt lat="38.97181" lon="1.28115">
        <ele>2</ele>
        <time>2010-01-01T00:26:12Z</time>
      </trkpt>
      <trkpt lat="38.97186" lon="1.28104">
        <ele>1</ele>
        <time>2010-01-01T00:26:16Z</time>
      </trkpt>
      <trkpt lat="38.97191" lon="1.28094">
        <ele>1</ele>
        <time>2010-01-01T00:26:20Z</time>
      </trkpt>
      <trkpt lat="38.97196" lon="1.28083">
        <ele>1</ele>
        <time>2010-01-01T00:26:24Z</time>
      </trkpt>
      <trkpt lat="38.97201" lon="1.2807">
        <ele>1</ele>
        <time>2010-01-01T00:26:28Z</time>
      </trkpt>
      <trkpt lat="38.97206" lon="1.28058">
        <ele>1</ele>
        <time>2010-01-01T00:26:32Z</time>
      </trkpt>
      <trkpt lat="38.9721" lon="1.28045">
        <ele>1</ele>
        <time>2010-01-01T00:26:37Z</time>
      </trkpt>
      <trkpt lat="38.97213" lon="1.28034">
        <ele>1</ele>
        <time>2010-01-01T00:26:40Z</time>
      </trkpt>
      <trkpt lat="38.97216" lon="1.28022">
        <ele>1</ele>
        <time>2010-01-01T00:26:45Z</time>
      </trkpt>
      <trkpt lat="38.9722" lon="1.2801">
        <ele>1</ele>
        <time>2010-01-01T00:26:49Z</time>
      </trkpt>
      <trkpt lat="38.97224" lon="1.27998">
        <ele>2</ele>
        <time>2010-01-01T00:26:53Z</time>
      </trkpt>
      <trkpt lat="38.97224" lon="1.27985">
        <ele>3</ele>
        <time>2010-01-01T00:26:57Z</time>
      </trkpt>
      <trkpt lat="38.97224" lon="1.27972">
        <ele>3</ele>
        <time>2010-01-01T00:27:01Z</time>
      </trkpt>
      <trkpt lat="38.97223" lon="1.27958">
        <ele>3</ele>
        <time>2010-01-01T00:27:05Z</time>
      </trkpt>
      <trkpt lat="38.97224" lon="1.27944">
        <ele>3</ele>
        <time>2010-01-01T00:27:09Z</time>
      </trkpt>
      <trkpt lat="38.97224" lon="1.27932">
        <ele>3</ele>
        <time>2010-01-01T00:27:13Z</time>
      </trkpt>
      <trkpt lat="38.97222" lon="1.27921">
        <ele>4</ele>
        <time>2010-01-01T00:27:17Z</time>
      </trkpt>
      <trkpt lat="38.97215" lon="1.2791">
        <ele>4</ele>
        <time>2010-01-01T00:27:21Z</time>
      </trkpt>
      <trkpt lat="38.97208" lon="1.27899">
        <ele>4</ele>
        <time>2010-01-01T00:27:25Z</time>
      </trkpt>
      <trkpt lat="38.97202" lon="1.27889">
        <ele>4</ele>
        <time>2010-01-01T00:27:30Z</time>
      </trkpt>
      <trkpt lat="38.97194" lon="1.2788">
        <ele>4</ele>
        <time>2010-01-01T00:27:34Z</time>
      </trkpt>
      <trkpt lat="38.97186" lon="1.27871">
        <ele>4</ele>
        <time>2010-01-01T00:27:38Z</time>
      </trkpt>
      <trkpt lat="38.97177" lon="1.27865">
        <ele>5</ele>
        <time>2010-01-01T00:27:42Z</time>
      </trkpt>
      <trkpt lat="38.97168" lon="1.27859">
        <ele>5</ele>
        <time>2010-01-01T00:27:46Z</time>
      </trkpt>
      <trkpt lat="38.97159" lon="1.27851">
        <ele>5</ele>
        <time>2010-01-01T00:27:50Z</time>
      </trkpt>
      <trkpt lat="38.97149" lon="1.27845">
        <ele>5</ele>
        <time>2010-01-01T00:27:55Z</time>
      </trkpt>
      <trkpt lat="38.97141" lon="1.27836">
        <ele>5</ele>
        <time>2010-01-01T00:27:59Z</time>
      </trkpt>
      <trkpt lat="38.97132" lon="1.27826">
        <ele>4</ele>
        <time>2010-01-01T00:28:04Z</time>
      </trkpt>
      <trkpt lat="38.97125" lon="1.27816">
        <ele>4</ele>
        <time>2010-01-01T00:28:08Z</time>
      </trkpt>
      <trkpt lat="38.97118" lon="1.27806">
        <ele>4</ele>
        <time>2010-01-01T00:28:12Z</time>
      </trkpt>
      <trkpt lat="38.97111" lon="1.27798">
        <ele>3</ele>
        <time>2010-01-01T00:28:16Z</time>
      </trkpt>
      <trkpt lat="38.97105" lon="1.27787">
        <ele>3</ele>
        <time>2010-01-01T00:28:20Z</time>
      </trkpt>
      <trkpt lat="38.97099" lon="1.27778">
        <ele>3</ele>
        <time>2010-01-01T00:28:24Z</time>
      </trkpt>
      <trkpt lat="38.97093" lon="1.2777">
        <ele>3</ele>
        <time>2010-01-01T00:28:27Z</time>
      </trkpt>
      <trkpt lat="38.97087" lon="1.27758">
        <ele>2</ele>
        <time>2010-01-01T00:28:32Z</time>
      </trkpt>
      <trkpt lat="38.97083" lon="1.27746">
        <ele>1</ele>
        <time>2010-01-01T00:28:36Z</time>
      </trkpt>
      <trkpt lat="38.97077" lon="1.27737">
        <ele>1</ele>
        <time>2010-01-01T00:28:39Z</time>
      </trkpt>
      <trkpt lat="38.9707" lon="1.27728">
        <ele>1.6</ele>
        <time>2010-01-01T00:28:43Z</time>
      </trkpt>
      <trkpt lat="38.97065" lon="1.27719">
        <ele>1.67</ele>
        <time>2010-01-01T00:28:47Z</time>
      </trkpt>
      <trkpt lat="38.97055" lon="1.27718">
        <ele>1</ele>
        <time>2010-01-01T00:28:51Z</time>
      </trkpt>
      <trkpt lat="38.97046" lon="1.27718">
        <ele>1</ele>
        <time>2010-01-01T00:28:55Z</time>
      </trkpt>
      <trkpt lat="38.97037" lon="1.27715">
        <ele>2</ele>
        <time>2010-01-01T00:28:58Z</time>
      </trkpt>
      <trkpt lat="38.97026" lon="1.27712">
        <ele>2</ele>
        <time>2010-01-01T00:29:03Z</time>
      </trkpt>
      <trkpt lat="38.97017" lon="1.27706">
        <ele>2</ele>
        <time>2010-01-01T00:29:07Z</time>
      </trkpt>
      <trkpt lat="38.97008" lon="1.27701">
        <ele>2</ele>
        <time>2010-01-01T00:29:11Z</time>
      </trkpt>
      <trkpt lat="38.97" lon="1.27694">
        <ele>2</ele>
        <time>2010-01-01T00:29:15Z</time>
      </trkpt>
      <trkpt lat="38.96991" lon="1.27689">
        <ele>2</ele>
        <time>2010-01-01T00:29:19Z</time>
      </trkpt>
      <trkpt lat="38.96984" lon="1.27681">
        <ele>2</ele>
        <time>2010-01-01T00:29:22Z</time>
      </trkpt>
      <trkpt lat="38.96981" lon="1.27668">
        <ele>2</ele>
        <time>2010-01-01T00:29:27Z</time>
      </trkpt>
      <trkpt lat="38.96978" lon="1.27655">
        <ele>2</ele>
        <time>2010-01-01T00:29:31Z</time>
      </trkpt>
      <trkpt lat="38.96975" lon="1.27643">
        <ele>2</ele>
        <time>2010-01-01T00:29:35Z</time>
      </trkpt>
      <trkpt lat="38.96971" lon="1.27631">
        <ele>1</ele>
        <time>2010-01-01T00:29:39Z</time>
      </trkpt>
      <trkpt lat="38.96968" lon="1.27619">
        <ele>1</ele>
        <time>2010-01-01T00:29:43Z</time>
      </trkpt>
      <trkpt lat="38.96966" lon="1.27606">
        <ele>1</ele>
        <time>2010-01-01T00:29:47Z</time>
      </trkpt>
      <trkpt lat="38.96964" lon="1.27593">
        <ele>1</ele>
        <time>2010-01-01T00:29:51Z</time>
      </trkpt>
      <trkpt lat="38.9696" lon="1.27581">
        <ele>2</ele>
        <time>2010-01-01T00:29:55Z</time>
      </trkpt>
      <trkpt lat="38.96958" lon="1.27568">
        <ele>2</ele>
        <time>2010-01-01T00:29:59Z</time>
      </trkpt>
      <trkpt lat="38.96955" lon="1.27556">
        <ele>1</ele>
        <time>2010-01-01T00:30:03Z</time>
      </trkpt>
      <trkpt lat="38.96953" lon="1.27544">
        <ele>1</ele>
        <time>2010-01-01T00:30:07Z</time>
      </trkpt>
      <trkpt lat="38.96949" lon="1.27532">
        <ele>1</ele>
        <time>2010-01-01T00:30:11Z</time>
      </trkpt>
      <trkpt lat="38.96947" lon="1.2752">
        <ele>1</ele>
        <time>2010-01-01T00:30:15Z</time>
      </trkpt>
      <trkpt lat="38.96943" lon="1.27505">
        <ele>2</ele>
        <time>2010-01-01T00:30:19Z</time>
      </trkpt>
      <trkpt lat="38.9694" lon="1.27493">
        <ele>2</ele>
        <time>2010-01-01T00:30:24Z</time>
      </trkpt>
      <trkpt lat="38.96936" lon="1.27479">
        <ele>3</ele>
        <time>2010-01-01T00:30:28Z</time>
      </trkpt>
      <trkpt lat="38.96932" lon="1.27466">
        <ele>3</ele>
        <time>2010-01-01T00:30:32Z</time>
      </trkpt>
      <trkpt lat="38.96927" lon="1.27454">
        <ele>4</ele>
        <time>2010-01-01T00:30:37Z</time>
      </trkpt>
      <trkpt lat="38.96923" lon="1.27442">
        <ele>4</ele>
        <time>2010-01-01T00:30:41Z</time>
      </trkpt>
      <trkpt lat="38.96918" lon="1.2743">
        <ele>4</ele>
        <time>2010-01-01T00:30:45Z</time>
      </trkpt>
      <trkpt lat="38.96912" lon="1.27419">
        <ele>5</ele>
        <time>2010-01-01T00:30:49Z</time>
      </trkpt>
      <trkpt lat="38.96909" lon="1.27406">
        <ele>5</ele>
        <time>2010-01-01T00:30:53Z</time>
      </trkpt>
      <trkpt lat="38.96912" lon="1.27394">
        <ele>5</ele>
        <time>2010-01-01T00:30:57Z</time>
      </trkpt>
      <trkpt lat="38.96916" lon="1.27381">
        <ele>4</ele>
        <time>2010-01-01T00:31:02Z</time>
      </trkpt>
      <trkpt lat="38.96914" lon="1.27368">
        <ele>4</ele>
        <time>2010-01-01T00:31:06Z</time>
      </trkpt>
      <trkpt lat="38.96914" lon="1.27355">
        <ele>3</ele>
        <time>2010-01-01T00:31:10Z</time>
      </trkpt>
      <trkpt lat="38.96916" lon="1.27343">
        <ele>3</ele>
        <time>2010-01-01T00:31:14Z</time>
      </trkpt>
      <trkpt lat="38.96915" lon="1.27331">
        <ele>2</ele>
        <time>2010-01-01T00:31:18Z</time>
      </trkpt>
      <trkpt lat="38.96913" lon="1.27319">
        <ele>2</ele>
        <time>2010-01-01T00:31:22Z</time>
      </trkpt>
      <trkpt lat="38.9691" lon="1.27305">
        <ele>2</ele>
        <time>2010-01-01T00:31:26Z</time>
      </trkpt>
      <trkpt lat="38.96908" lon="1.27292">
        <ele>2</ele>
        <time>2010-01-01T00:31:30Z</time>
      </trkpt>
      <trkpt lat="38.96906" lon="1.27281">
        <ele>2</ele>
        <time>2010-01-01T00:31:34Z</time>
      </trkpt>
      <trkpt lat="38.96905" lon="1.27269">
        <ele>2</ele>
        <time>2010-01-01T00:31:37Z</time>
      </trkpt>
      <trkpt lat="38.96901" lon="1.27257">
        <ele>2</ele>
        <time>2010-01-01T00:31:41Z</time>
      </trkpt>
      <trkpt lat="38.96897" lon="1.27246">
        <ele>3</ele>
        <time>2010-01-01T00:31:45Z</time>
      </trkpt>
      <trkpt lat="38.96891" lon="1.27238">
        <ele>4</ele>
        <time>2010-01-01T00:31:49Z</time>
      </trkpt>
      <trkpt lat="38.96889" lon="1.27224">
        <ele>5</ele>
        <time>2010-01-01T00:31:53Z</time>
      </trkpt>
      <trkpt lat="38.96889" lon="1.27211">
        <ele>6</ele>
        <time>2010-01-01T00:31:57Z</time>
      </trkpt>
      <trkpt lat="38.96891" lon="1.27198">
        <ele>5</ele>
        <time>2010-01-01T00:32:01Z</time>
      </trkpt>
      <trkpt lat="38.96893" lon="1.27185">
        <ele>4</ele>
        <time>2010-01-01T00:32:05Z</time>
      </trkpt>
      <trkpt lat="38.96893" lon="1.27171">
        <ele>4</ele>
        <time>2010-01-01T00:32:10Z</time>
      </trkpt>
      <trkpt lat="38.96895" lon="1.27156">
        <ele>3</ele>
        <time>2010-01-01T00:32:14Z</time>
      </trkpt>
      <trkpt lat="38.96896" lon="1.27145">
        <ele>3</ele>
        <time>2010-01-01T00:32:18Z</time>
      </trkpt>
      <trkpt lat="38.96897" lon="1.27132">
        <ele>3</ele>
        <time>2010-01-01T00:32:22Z</time>
      </trkpt>
      <trkpt lat="38.969" lon="1.27119">
        <ele>3</ele>
        <time>2010-01-01T00:32:26Z</time>
      </trkpt>
      <trkpt lat="38.969" lon="1.27106">
        <ele>3</ele>
        <time>2010-01-01T00:32:30Z</time>
      </trkpt>
      <trkpt lat="38.96901" lon="1.2709">
        <ele>3</ele>
        <time>2010-01-01T00:32:35Z</time>
      </trkpt>
      <trkpt lat="38.96905" lon="1.27078">
        <ele>3</ele>
        <time>2010-01-01T00:32:39Z</time>
      </trkpt>
      <trkpt lat="38.96911" lon="1.27068">
        <ele>3</ele>
        <time>2010-01-01T00:32:43Z</time>
      </trkpt>
      <trkpt lat="38.96917" lon="1.27057">
        <ele>3</ele>
        <time>2010-01-01T00:32:47Z</time>
      </trkpt>
      <trkpt lat="38.96922" lon="1.27045">
        <ele>2</ele>
        <time>2010-01-01T00:32:52Z</time>
      </trkpt>
      <trkpt lat="38.96923" lon="1.27033">
        <ele>2</ele>
        <time>2010-01-01T00:32:55Z</time>
      </trkpt>
      <trkpt lat="38.9692" lon="1.27021">
        <ele>2</ele>
        <time>2010-01-01T00:32:59Z</time>
      </trkpt>
      <trkpt lat="38.96916" lon="1.27007">
        <ele>3</ele>
        <time>2010-01-01T00:33:04Z</time>
      </trkpt>
      <trkpt lat="38.96915" lon="1.26996">
        <ele>3</ele>
        <time>2010-01-01T00:33:08Z</time>
      </trkpt>
      <trkpt lat="38.96912" lon="1.26982">
        <ele>3</ele>
        <time>2010-01-01T00:33:12Z</time>
      </trkpt>
      <trkpt lat="38.96905" lon="1.26969">
        <ele>4</ele>
        <time>2010-01-01T00:33:17Z</time>
      </trkpt>
      <trkpt lat="38.96903" lon="1.26957">
        <ele>4</ele>
        <time>2010-01-01T00:33:21Z</time>
      </trkpt>
      <trkpt lat="38.96901" lon="1.26944">
        <ele>4</ele>
        <time>2010-01-01T00:33:25Z</time>
      </trkpt>
      <trkpt lat="38.96898" lon="1.2693">
        <ele>4</ele>
        <time>2010-01-01T00:33:29Z</time>
      </trkpt>
      <trkpt lat="38.96898" lon="1.26918">
        <ele>5</ele>
        <time>2010-01-01T00:33:33Z</time>
      </trkpt>
      <trkpt lat="38.96899" lon="1.26904">
        <ele>6</ele>
        <time>2010-01-01T00:33:38Z</time>
      </trkpt>
      <trkpt lat="38.969" lon="1.26891">
        <ele>6</ele>
        <time>2010-01-01T00:33:42Z</time>
      </trkpt>
      <trkpt lat="38.96903" lon="1.26878">
        <ele>7</ele>
        <time>2010-01-01T00:33:46Z</time>
      </trkpt>
      <trkpt lat="38.96905" lon="1.26865">
        <ele>7</ele>
        <time>2010-01-01T00:33:50Z</time>
      </trkpt>
      <trkpt lat="38.96908" lon="1.26854">
        <ele>7</ele>
        <time>2010-01-01T00:33:54Z</time>
      </trkpt>
      <trkpt lat="38.96911" lon="1.26842">
        <ele>6</ele>
        <time>2010-01-01T00:33:58Z</time>
      </trkpt>
      <trkpt lat="38.96914" lon="1.2683">
        <ele>6</ele>
        <time>2010-01-01T00:34:01Z</time>
      </trkpt>
      <trkpt lat="38.96919" lon="1.26817">
        <ele>5</ele>
        <time>2010-01-01T00:34:06Z</time>
      </trkpt>
      <trkpt lat="38.96923" lon="1.26807">
        <ele>5</ele>
        <time>2010-01-01T00:34:10Z</time>
      </trkpt>
      <trkpt lat="38.96931" lon="1.26798">
        <ele>4</ele>
        <time>2010-01-01T00:34:14Z</time>
      </trkpt>
      <trkpt lat="38.96934" lon="1.26785">
        <ele>4</ele>
        <time>2010-01-01T00:34:18Z</time>
      </trkpt>
      <trkpt lat="38.96929" lon="1.26773">
        <ele>5</ele>
        <time>2010-01-01T00:34:22Z</time>
      </trkpt>
      <trkpt lat="38.96926" lon="1.2676">
        <ele>4</ele>
        <time>2010-01-01T00:34:26Z</time>
      </trkpt>
      <trkpt lat="38.96922" lon="1.2675">
        <ele>3</ele>
        <time>2010-01-01T00:34:30Z</time>
      </trkpt>
      <trkpt lat="38.96918" lon="1.26738">
        <ele>3</ele>
        <time>2010-01-01T00:34:34Z</time>
      </trkpt>
      <trkpt lat="38.96911" lon="1.2673">
        <ele>2</ele>
        <time>2010-01-01T00:34:38Z</time>
      </trkpt>
      <trkpt lat="38.96903" lon="1.26725">
        <ele>2</ele>
        <time>2010-01-01T00:34:41Z</time>
      </trkpt>
      <trkpt lat="38.96895" lon="1.26717">
        <ele>1</ele>
        <time>2010-01-01T00:34:45Z</time>
      </trkpt>
      <trkpt lat="38.96888" lon="1.26708">
        <ele>1</ele>
        <time>2010-01-01T00:34:49Z</time>
      </trkpt>
      <trkpt lat="38.9688" lon="1.26702">
        <ele>1</ele>
        <time>2010-01-01T00:34:53Z</time>
      </trkpt>
      <trkpt lat="38.96871" lon="1.26697">
        <ele>4.8</ele>
        <time>2010-01-01T00:34:57Z</time>
      </trkpt>
      <trkpt lat="38.96862" lon="1.26697">
        <ele>5.2</ele>
        <time>2010-01-01T00:35:01Z</time>
      </trkpt>
      <trkpt lat="38.96854" lon="1.26703">
        <ele>1</ele>
        <time>2010-01-01T00:35:04Z</time>
      </trkpt>
      <trkpt lat="38.96849" lon="1.26713">
        <ele>2</ele>
        <time>2010-01-01T00:35:08Z</time>
      </trkpt>
      <trkpt lat="38.96844" lon="1.26723">
        <ele>3</ele>
        <time>2010-01-01T00:35:12Z</time>
      </trkpt>
      <trkpt lat="38.96838" lon="1.26735">
        <ele>4</ele>
        <time>2010-01-01T00:35:16Z</time>
      </trkpt>
      <trkpt lat="38.96833" lon="1.26745">
        <ele>5</ele>
        <time>2010-01-01T00:35:20Z</time>
      </trkpt>
      <trkpt lat="38.96828" lon="1.26756">
        <ele>6</ele>
        <time>2010-01-01T00:35:24Z</time>
      </trkpt>
      <trkpt lat="38.96824" lon="1.26767">
        <ele>6</ele>
        <time>2010-01-01T00:35:27Z</time>
      </trkpt>
      <trkpt lat="38.96819" lon="1.26777">
        <ele>7</ele>
        <time>2010-01-01T00:35:31Z</time>
      </trkpt>
      <trkpt lat="38.96812" lon="1.26786">
        <ele>8</ele>
        <time>2010-01-01T00:35:35Z</time>
      </trkpt>
      <trkpt lat="38.96806" lon="1.26796">
        <ele>8</ele>
        <time>2010-01-01T00:35:39Z</time>
      </trkpt>
      <trkpt lat="38.96796" lon="1.26801">
        <ele>8</ele>
        <time>2010-01-01T00:35:43Z</time>
      </trkpt>
      <trkpt lat="38.96789" lon="1.2681">
        <ele>8</ele>
        <time>2010-01-01T00:35:47Z</time>
      </trkpt>
      <trkpt lat="38.96782" lon="1.26821">
        <ele>9</ele>
        <time>2010-01-01T00:35:52Z</time>
      </trkpt>
      <trkpt lat="38.96778" lon="1.26831">
        <ele>11</ele>
        <time>2010-01-01T00:35:55Z</time>
      </trkpt>
      <trkpt lat="38.96771" lon="1.2684">
        <ele>11</ele>
        <time>2010-01-01T00:35:59Z</time>
      </trkpt>
      <trkpt lat="38.96766" lon="1.26851">
        <ele>11</ele>
        <time>2010-01-01T00:36:03Z</time>
      </trkpt>
      <trkpt lat="38.9676" lon="1.26862">
        <ele>10</ele>
        <time>2010-01-01T00:36:07Z</time>
      </trkpt>
      <trkpt lat="38.96753" lon="1.2687">
        <ele>9</ele>
        <time>2010-01-01T00:36:11Z</time>
      </trkpt>
      <trkpt lat="38.96744" lon="1.26877">
        <ele>7</ele>
        <time>2010-01-01T00:36:15Z</time>
      </trkpt>
      <trkpt lat="38.96735" lon="1.26881">
        <ele>6</ele>
        <time>2010-01-01T00:36:19Z</time>
      </trkpt>
      <trkpt lat="38.96727" lon="1.26888">
        <ele>5</ele>
        <time>2010-01-01T00:36:23Z</time>
      </trkpt>
      <trkpt lat="38.96717" lon="1.26895">
        <ele>5</ele>
        <time>2010-01-01T00:36:27Z</time>
      </trkpt>
      <trkpt lat="38.96708" lon="1.26894">
        <ele>5</ele>
        <time>2010-01-01T00:36:31Z</time>
      </trkpt>
      <trkpt lat="38.96699" lon="1.26892">
        <ele>5</ele>
        <time>2010-01-01T00:36:35Z</time>
      </trkpt>
      <trkpt lat="38.96688" lon="1.26886">
        <ele>5</ele>
        <time>2010-01-01T00:36:40Z</time>
      </trkpt>
      <trkpt lat="38.96681" lon="1.26879">
        <ele>4</ele>
        <time>2010-01-01T00:36:43Z</time>
      </trkpt>
      <trkpt lat="38.96671" lon="1.26871">
        <ele>3</ele>
        <time>2010-01-01T00:36:48Z</time>
      </trkpt>
      <trkpt lat="38.96666" lon="1.26861">
        <ele>2</ele>
        <time>2010-01-01T00:36:51Z</time>
      </trkpt>
      <trkpt lat="38.9666" lon="1.26849">
        <ele>2</ele>
        <time>2010-01-01T00:36:56Z</time>
      </trkpt>
      <trkpt lat="38.96654" lon="1.2684">
        <ele>1</ele>
        <time>2010-01-01T00:37:00Z</time>
      </trkpt>
      <trkpt lat="38.96646" lon="1.26831">
        <ele>1</ele>
        <time>2010-01-01T00:37:04Z</time>
      </trkpt>
      <trkpt lat="38.9664" lon="1.26822">
        <ele>1</ele>
        <time>2010-01-01T00:37:08Z</time>
      </trkpt>
      <trkpt lat="38.96633" lon="1.2681">
        <ele>1</ele>
        <time>2010-01-01T00:37:12Z</time>
      </trkpt>
      <trkpt lat="38.96626" lon="1.26802">
        <ele>1</ele>
        <time>2010-01-01T00:37:16Z</time>
      </trkpt>
      <trkpt lat="38.96627" lon="1.26789">
        <ele>1</ele>
        <time>2010-01-01T00:37:20Z</time>
      </trkpt>
      <trkpt lat="38.96633" lon="1.2678">
        <ele>1</ele>
        <time>2010-01-01T00:37:24Z</time>
      </trkpt>
      <trkpt lat="38.96639" lon="1.2677">
        <ele>1</ele>
        <time>2010-01-01T00:37:28Z</time>
      </trkpt>
      <trkpt lat="38.96645" lon="1.2676">
        <ele>1</ele>
        <time>2010-01-01T00:37:32Z</time>
      </trkpt>
      <trkpt lat="38.96653" lon="1.26752">
        <ele>1</ele>
        <time>2010-01-01T00:37:36Z</time>
      </trkpt>
      <trkpt lat="38.96658" lon="1.26743">
        <ele>2</ele>
        <time>2010-01-01T00:37:39Z</time>
      </trkpt>
      <trkpt lat="38.96663" lon="1.26731">
        <ele>2</ele>
        <time>2010-01-01T00:37:43Z</time>
      </trkpt>
      <trkpt lat="38.96669" lon="1.26719">
        <ele>1</ele>
        <time>2010-01-01T00:37:48Z</time>
      </trkpt>
      <trkpt lat="38.96671" lon="1.26706">
        <ele>1</ele>
        <time>2010-01-01T00:37:52Z</time>
      </trkpt>
      <trkpt lat="38.9667" lon="1.26692">
        <ele>1</ele>
        <time>2010-01-01T00:37:56Z</time>
      </trkpt>
      <trkpt lat="38.96671" lon="1.26679">
        <ele>2</ele>
        <time>2010-01-01T00:38:00Z</time>
      </trkpt>
      <trkpt lat="38.96671" lon="1.26667">
        <ele>2</ele>
        <time>2010-01-01T00:38:04Z</time>
      </trkpt>
      <trkpt lat="38.96672" lon="1.26654">
        <ele>2</ele>
        <time>2010-01-01T00:38:08Z</time>
      </trkpt>
      <trkpt lat="38.96672" lon="1.26641">
        <ele>2</ele>
        <time>2010-01-01T00:38:12Z</time>
      </trkpt>
      <trkpt lat="38.96677" lon="1.26629">
        <ele>2</ele>
        <time>2010-01-01T00:38:16Z</time>
      </trkpt>
      <trkpt lat="38.96679" lon="1.26615">
        <ele>2</ele>
        <time>2010-01-01T00:38:21Z</time>
      </trkpt>
      <trkpt lat="38.9668" lon="1.26602">
        <ele>2</ele>
        <time>2010-01-01T00:38:25Z</time>
      </trkpt>
      <trkpt lat="38.96676" lon="1.26589">
        <ele>2</ele>
        <time>2010-01-01T00:38:29Z</time>
      </trkpt>
      <trkpt lat="38.96673" lon="1.26578">
        <ele>2</ele>
        <time>2010-01-01T00:38:33Z</time>
      </trkpt>
      <trkpt lat="38.96669" lon="1.26567">
        <ele>2</ele>
        <time>2010-01-01T00:38:37Z</time>
      </trkpt>
      <trkpt lat="38.96664" lon="1.26556">
        <ele>2</ele>
        <time>2010-01-01T00:38:41Z</time>
      </trkpt>
      <trkpt lat="38.96659" lon="1.26543">
        <ele>2</ele>
        <time>2010-01-01T00:38:45Z</time>
      </trkpt>
      <trkpt lat="38.96655" lon="1.26531">
        <ele>3</ele>
        <time>2010-01-01T00:38:49Z</time>
      </trkpt>
      <trkpt lat="38.96654" lon="1.26518">
        <ele>3</ele>
        <time>2010-01-01T00:38:53Z</time>
      </trkpt>
      <trkpt lat="38.96661" lon="1.26506">
        <ele>3</ele>
        <time>2010-01-01T00:38:58Z</time>
      </trkpt>
      <trkpt lat="38.96669" lon="1.265">
        <ele>2</ele>
        <time>2010-01-01T00:39:02Z</time>
      </trkpt>
      <trkpt lat="38.96671" lon="1.26488">
        <ele>3</ele>
        <time>2010-01-01T00:39:06Z</time>
      </trkpt>
      <trkpt lat="38.96675" lon="1.26476">
        <ele>3</ele>
        <time>2010-01-01T00:39:09Z</time>
      </trkpt>
      <trkpt lat="38.9668" lon="1.26464">
        <ele>3</ele>
        <time>2010-01-01T00:39:14Z</time>
      </trkpt>
      <trkpt lat="38.96684" lon="1.26454">
        <ele>2</ele>
        <time>2010-01-01T00:39:18Z</time>
      </trkpt>
      <trkpt lat="38.96684" lon="1.2644">
        <ele>3</ele>
        <time>2010-01-01T00:39:22Z</time>
      </trkpt>
      <trkpt lat="38.96688" lon="1.26427">
        <ele>2</ele>
        <time>2010-01-01T00:39:26Z</time>
      </trkpt>
      <trkpt lat="38.96694" lon="1.26416">
        <ele>2</ele>
        <time>2010-01-01T00:39:30Z</time>
      </trkpt>
      <trkpt lat="38.96695" lon="1.26403">
        <ele>2</ele>
        <time>2010-01-01T00:39:34Z</time>
      </trkpt>
      <trkpt lat="38.967" lon="1.26393">
        <ele>3</ele>
        <time>2010-01-01T00:39:38Z</time>
      </trkpt>
      <trkpt lat="38.96702" lon="1.2638">
        <ele>3</ele>
        <time>2010-01-01T00:39:42Z</time>
      </trkpt>
      <trkpt lat="38.96703" lon="1.26368">
        <ele>3</ele>
        <time>2010-01-01T00:39:46Z</time>
      </trkpt>
      <trkpt lat="38.96705" lon="1.26355">
        <ele>4</ele>
        <time>2010-01-01T00:39:50Z</time>
      </trkpt>
      <trkpt lat="38.96707" lon="1.26342">
        <ele>4</ele>
        <time>2010-01-01T00:39:54Z</time>
      </trkpt>
      <trkpt lat="38.96711" lon="1.2633">
        <ele>4</ele>
        <time>2010-01-01T00:39:58Z</time>
      </trkpt>
      <trkpt lat="38.96718" lon="1.26321">
        <ele>5</ele>
        <time>2010-01-01T00:40:02Z</time>
      </trkpt>
      <trkpt lat="38.96727" lon="1.26315">
        <ele>4</ele>
        <time>2010-01-01T00:40:06Z</time>
      </trkpt>
      <trkpt lat="38.96737" lon="1.26309">
        <ele>4</ele>
        <time>2010-01-01T00:40:11Z</time>
      </trkpt>
      <trkpt lat="38.96746" lon="1.26304">
        <ele>3</ele>
        <time>2010-01-01T00:40:15Z</time>
      </trkpt>
      <trkpt lat="38.96756" lon="1.26299">
        <ele>2</ele>
        <time>2010-01-01T00:40:19Z</time>
      </trkpt>
      <trkpt lat="38.96765" lon="1.26292">
        <ele>2</ele>
        <time>2010-01-01T00:40:23Z</time>
      </trkpt>
      <trkpt lat="38.96774" lon="1.26283">
        <ele>2</ele>
        <time>2010-01-01T00:40:28Z</time>
      </trkpt>
      <trkpt lat="38.96782" lon="1.26275">
        <ele>2</ele>
        <time>2010-01-01T00:40:32Z</time>
      </trkpt>
      <trkpt lat="38.96789" lon="1.26267">
        <ele>2</ele>
        <time>2010-01-01T00:40:35Z</time>
      </trkpt>
      <trkpt lat="38.96797" lon="1.26259">
        <ele>2</ele>
        <time>2010-01-01T00:40:40Z</time>
      </trkpt>
      <trkpt lat="38.96801" lon="1.26248">
        <ele>3</ele>
        <time>2010-01-01T00:40:43Z</time>
      </trkpt>
      <trkpt lat="38.96809" lon="1.26244">
        <ele>3</ele>
        <time>2010-01-01T00:40:47Z</time>
      </trkpt>
      <trkpt lat="38.96818" lon="1.26241">
        <ele>3</ele>
        <time>2010-01-01T00:40:51Z</time>
      </trkpt>
      <trkpt lat="38.96827" lon="1.26236">
        <ele>4</ele>
        <time>2010-01-01T00:40:54Z</time>
      </trkpt>
      <trkpt lat="38.96836" lon="1.26232">
        <ele>4</ele>
        <time>2010-01-01T00:40:58Z</time>
      </trkpt>
      <trkpt lat="38.96845" lon="1.26233">
        <ele>4</ele>
        <time>2010-01-01T00:41:02Z</time>
      </trkpt>
      <trkpt lat="38.96855" lon="1.26241">
        <ele>3</ele>
        <time>2010-01-01T00:41:06Z</time>
      </trkpt>
      <trkpt lat="38.96863" lon="1.26246">
        <ele>3</ele>
        <time>2010-01-01T00:41:10Z</time>
      </trkpt>
      <trkpt lat="38.96874" lon="1.26246">
        <ele>2</ele>
        <time>2010-01-01T00:41:14Z</time>
      </trkpt>
      <trkpt lat="38.96884" lon="1.26245">
        <ele>2</ele>
        <time>2010-01-01T00:41:18Z</time>
      </trkpt>
      <trkpt lat="38.96895" lon="1.26243">
        <ele>2</ele>
        <time>2010-01-01T00:41:23Z</time>
      </trkpt>
      <trkpt lat="38.96907" lon="1.26241">
        <ele>2</ele>
        <time>2010-01-01T00:41:28Z</time>
      </trkpt>
      <trkpt lat="38.96917" lon="1.26239">
        <ele>2</ele>
        <time>2010-01-01T00:41:32Z</time>
      </trkpt>
      <trkpt lat="38.96927" lon="1.26237">
        <ele>2</ele>
        <time>2010-01-01T00:41:36Z</time>
      </trkpt>
      <trkpt lat="38.96935" lon="1.2623">
        <ele>3</ele>
        <time>2010-01-01T00:41:40Z</time>
      </trkpt>
      <trkpt lat="38.96944" lon="1.26229">
        <ele>2</ele>
        <time>2010-01-01T00:41:43Z</time>
      </trkpt>
      <trkpt lat="38.96954" lon="1.26229">
        <ele>2</ele>
        <time>2010-01-01T00:41:47Z</time>
      </trkpt>
      <trkpt lat="38.96963" lon="1.26227">
        <ele>2</ele>
        <time>2010-01-01T00:41:51Z</time>
      </trkpt>
      <trkpt lat="38.96972" lon="1.26222">
        <ele>2</ele>
        <time>2010-01-01T00:41:55Z</time>
      </trkpt>
      <trkpt lat="38.96981" lon="1.26219">
        <ele>3</ele>
        <time>2010-01-01T00:41:59Z</time>
      </trkpt>
      <trkpt lat="38.96989" lon="1.26213">
        <ele>3</ele>
        <time>2010-01-01T00:42:03Z</time>
      </trkpt>
      <trkpt lat="38.96995" lon="1.26204">
        <ele>3</ele>
        <time>2010-01-01T00:42:06Z</time>
      </trkpt>
      <trkpt lat="38.97003" lon="1.26195">
        <ele>3</ele>
        <time>2010-01-01T00:42:10Z</time>
      </trkpt>
      <trkpt lat="38.97009" lon="1.26185">
        <ele>4</ele>
        <time>2010-01-01T00:42:14Z</time>
      </trkpt>
      <trkpt lat="38.97015" lon="1.26174">
        <ele>5</ele>
        <time>2010-01-01T00:42:19Z</time>
      </trkpt>
      <trkpt lat="38.97018" lon="1.26162">
        <ele>6</ele>
        <time>2010-01-01T00:42:22Z</time>
      </trkpt>
      <trkpt lat="38.97016" lon="1.2615">
        <ele>6</ele>
        <time>2010-01-01T00:42:26Z</time>
      </trkpt>
      <trkpt lat="38.97011" lon="1.26139">
        <ele>7</ele>
        <time>2010-01-01T00:42:30Z</time>
      </trkpt>
      <trkpt lat="38.97016" lon="1.26128">
        <ele>7</ele>
        <time>2010-01-01T00:42:34Z</time>
      </trkpt>
      <trkpt lat="38.97005" lon="1.26125">
        <ele>7</ele>
        <time>2010-01-01T00:42:39Z</time>
      </trkpt>
      <trkpt lat="38.96996" lon="1.26127">
        <ele>7</ele>
        <time>2010-01-01T00:42:43Z</time>
      </trkpt>
      <trkpt lat="38.96985" lon="1.26129">
        <ele>7</ele>
        <time>2010-01-01T00:42:47Z</time>
      </trkpt>
      <trkpt lat="38.96975" lon="1.2613">
        <ele>7</ele>
        <time>2010-01-01T00:42:51Z</time>
      </trkpt>
      <trkpt lat="38.96965" lon="1.26131">
        <ele>7</ele>
        <time>2010-01-01T00:42:55Z</time>
      </trkpt>
      <trkpt lat="38.96957" lon="1.26135">
        <ele>7</ele>
        <time>2010-01-01T00:42:59Z</time>
      </trkpt>
      <trkpt lat="38.96946" lon="1.26136">
        <ele>7</ele>
        <time>2010-01-01T00:43:03Z</time>
      </trkpt>
      <trkpt lat="38.96937" lon="1.26138">
        <ele>8</ele>
        <time>2010-01-01T00:43:07Z</time>
      </trkpt>
      <trkpt lat="38.96927" lon="1.26139">
        <ele>9</ele>
        <time>2010-01-01T00:43:10Z</time>
      </trkpt>
      <trkpt lat="38.96918" lon="1.26132">
        <ele>9</ele>
        <time>2010-01-01T00:43:15Z</time>
      </trkpt>
      <trkpt lat="38.9691" lon="1.26124">
        <ele>9</ele>
        <time>2010-01-01T00:43:19Z</time>
      </trkpt>
      <trkpt lat="38.96901" lon="1.26118">
        <ele>10</ele>
        <time>2010-01-01T00:43:23Z</time>
      </trkpt>
      <trkpt lat="38.96892" lon="1.26111">
        <ele>10</ele>
        <time>2010-01-01T00:43:27Z</time>
      </trkpt>
      <trkpt lat="38.96883" lon="1.26104">
        <ele>11</ele>
        <time>2010-01-01T00:43:31Z</time>
      </trkpt>
      <trkpt lat="38.96873" lon="1.26097">
        <ele>11</ele>
        <time>2010-01-01T00:43:36Z</time>
      </trkpt>
      <trkpt lat="38.96864" lon="1.26089">
        <ele>11</ele>
        <time>2010-01-01T00:43:40Z</time>
      </trkpt>
      <trkpt lat="38.96856" lon="1.26083">
        <ele>10</ele>
        <time>2010-01-01T00:43:44Z</time>
      </trkpt>
      <trkpt lat="38.96847" lon="1.26075">
        <ele>10</ele>
        <time>2010-01-01T00:43:48Z</time>
      </trkpt>
      <trkpt lat="38.96838" lon="1.26069">
        <ele>10</ele>
        <time>2010-01-01T00:43:52Z</time>
      </trkpt>
      <trkpt lat="38.96828" lon="1.26064">
        <ele>9</ele>
        <time>2010-01-01T00:43:57Z</time>
      </trkpt>
      <trkpt lat="38.96819" lon="1.26057">
        <ele>9</ele>
        <time>2010-01-01T00:44:01Z</time>
      </trkpt>
      <trkpt lat="38.96812" lon="1.26048">
        <ele>9</ele>
        <time>2010-01-01T00:44:05Z</time>
      </trkpt>
      <trkpt lat="38.96804" lon="1.2604">
        <ele>8</ele>
        <time>2010-01-01T00:44:09Z</time>
      </trkpt>
      <trkpt lat="38.96797" lon="1.26031">
        <ele>9</ele>
        <time>2010-01-01T00:44:13Z</time>
      </trkpt>
      <trkpt lat="38.9679" lon="1.26022">
        <ele>10</ele>
        <time>2010-01-01T00:44:17Z</time>
      </trkpt>
      <trkpt lat="38.96783" lon="1.26013">
        <ele>11</ele>
        <time>2010-01-01T00:44:21Z</time>
      </trkpt>
      <trkpt lat="38.96776" lon="1.26002">
        <ele>11</ele>
        <time>2010-01-01T00:44:25Z</time>
      </trkpt>
      <trkpt lat="38.9677" lon="1.25994">
        <ele>13</ele>
        <time>2010-01-01T00:44:29Z</time>
      </trkpt>
      <trkpt lat="38.96762" lon="1.25984">
        <ele>15</ele>
        <time>2010-01-01T00:44:33Z</time>
      </trkpt>
      <trkpt lat="38.96757" lon="1.25972">
        <ele>18</ele>
        <time>2010-01-01T00:44:37Z</time>
      </trkpt>
      <trkpt lat="38.96749" lon="1.25965">
        <ele>21</ele>
        <time>2010-01-01T00:44:41Z</time>
      </trkpt>
      <trkpt lat="38.96742" lon="1.25957">
        <ele>22</ele>
        <time>2010-01-01T00:44:45Z</time>
      </trkpt>
      <trkpt lat="38.96735" lon="1.25948">
        <ele>24</ele>
        <time>2010-01-01T00:44:49Z</time>
      </trkpt>
      <trkpt lat="38.96732" lon="1.25937">
        <ele>25</ele>
        <time>2010-01-01T00:44:53Z</time>
      </trkpt>
      <trkpt lat="38.96729" lon="1.25924">
        <ele>25</ele>
        <time>2010-01-01T00:44:56Z</time>
      </trkpt>
      <trkpt lat="38.96726" lon="1.25911">
        <ele>24</ele>
        <time>2010-01-01T00:45:01Z</time>
      </trkpt>
      <trkpt lat="38.96722" lon="1.25898">
        <ele>23</ele>
        <time>2010-01-01T00:45:05Z</time>
      </trkpt>
      <trkpt lat="38.9672" lon="1.25884">
        <ele>23</ele>
        <time>2010-01-01T00:45:10Z</time>
      </trkpt>
      <trkpt lat="38.96718" lon="1.25871">
        <ele>23</ele>
        <time>2010-01-01T00:45:14Z</time>
      </trkpt>
      <trkpt lat="38.96718" lon="1.25859">
        <ele>23</ele>
        <time>2010-01-01T00:45:18Z</time>
      </trkpt>
      <trkpt lat="38.96717" lon="1.25846">
        <ele>24</ele>
        <time>2010-01-01T00:45:22Z</time>
      </trkpt>
      <trkpt lat="38.96721" lon="1.25835">
        <ele>25</ele>
        <time>2010-01-01T00:45:25Z</time>
      </trkpt>
      <trkpt lat="38.96725" lon="1.25823">
        <ele>25</ele>
        <time>2010-01-01T00:45:29Z</time>
      </trkpt>
      <trkpt lat="38.96728" lon="1.25812">
        <ele>25</ele>
        <time>2010-01-01T00:45:33Z</time>
      </trkpt>
      <trkpt lat="38.96732" lon="1.258">
        <ele>25</ele>
        <time>2010-01-01T00:45:37Z</time>
      </trkpt>
      <trkpt lat="38.96736" lon="1.25787">
        <ele>26</ele>
        <time>2010-01-01T00:45:42Z</time>
      </trkpt>
      <trkpt lat="38.9674" lon="1.25774">
        <ele>27</ele>
        <time>2010-01-01T00:45:46Z</time>
      </trkpt>
      <trkpt lat="38.96745" lon="1.25764">
        <ele>26</ele>
        <time>2010-01-01T00:45:50Z</time>
      </trkpt>
      <trkpt lat="38.96752" lon="1.25756">
        <ele>25</ele>
        <time>2010-01-01T00:45:53Z</time>
      </trkpt>
      <trkpt lat="38.96758" lon="1.25746">
        <ele>25</ele>
        <time>2010-01-01T00:45:57Z</time>
      </trkpt>
      <trkpt lat="38.96763" lon="1.25736">
        <ele>25</ele>
        <time>2010-01-01T00:46:01Z</time>
      </trkpt>
      <trkpt lat="38.96767" lon="1.25724">
        <ele>25</ele>
        <time>2010-01-01T00:46:05Z</time>
      </trkpt>
      <trkpt lat="38.96769" lon="1.25713">
        <ele>26</ele>
        <time>2010-01-01T00:46:08Z</time>
      </trkpt>
      <trkpt lat="38.96768" lon="1.25701">
        <ele>28</ele>
        <time>2010-01-01T00:46:12Z</time>
      </trkpt>
      <trkpt lat="38.96768" lon="1.25688">
        <ele>30</ele>
        <time>2010-01-01T00:46:16Z</time>
      </trkpt>
      <trkpt lat="38.96773" lon="1.25676">
        <ele>30</ele>
        <time>2010-01-01T00:46:21Z</time>
      </trkpt>
      <trkpt lat="38.96778" lon="1.25663">
        <ele>31</ele>
        <time>2010-01-01T00:46:25Z</time>
      </trkpt>
      <trkpt lat="38.96781" lon="1.25651">
        <ele>30</ele>
        <time>2010-01-01T00:46:29Z</time>
      </trkpt>
      <trkpt lat="38.96784" lon="1.25637">
        <ele>30</ele>
        <time>2010-01-01T00:46:33Z</time>
      </trkpt>
      <trkpt lat="38.96784" lon="1.25624">
        <ele>30</ele>
        <time>2010-01-01T00:46:38Z</time>
      </trkpt>
      <trkpt lat="38.96786" lon="1.2561">
        <ele>30</ele>
        <time>2010-01-01T00:46:42Z</time>
      </trkpt>
      <trkpt lat="38.96788" lon="1.25598">
        <ele>31</ele>
        <time>2010-01-01T00:46:46Z</time>
      </trkpt>
      <trkpt lat="38.96789" lon="1.25584">
        <ele>33</ele>
        <time>2010-01-01T00:46:50Z</time>
      </trkpt>
      <trkpt lat="38.96789" lon="1.25571">
        <ele>34</ele>
        <time>2010-01-01T00:46:54Z</time>
      </trkpt>
      <trkpt lat="38.9679" lon="1.25559">
        <ele>35</ele>
        <time>2010-01-01T00:46:58Z</time>
      </trkpt>
      <trkpt lat="38.96796" lon="1.25547">
        <ele>36</ele>
        <time>2010-01-01T00:47:02Z</time>
      </trkpt>
      <trkpt lat="38.96801" lon="1.25536">
        <ele>37</ele>
        <time>2010-01-01T00:47:06Z</time>
      </trkpt>
      <trkpt lat="38.96805" lon="1.25523">
        <ele>38</ele>
        <time>2010-01-01T00:47:11Z</time>
      </trkpt>
      <trkpt lat="38.96805" lon="1.25511">
        <ele>38</ele>
        <time>2010-01-01T00:47:14Z</time>
      </trkpt>
      <trkpt lat="38.96804" lon="1.25497">
        <ele>38</ele>
        <time>2010-01-01T00:47:19Z</time>
      </trkpt>
      <trkpt lat="38.96805" lon="1.25484">
        <ele>39</ele>
        <time>2010-01-01T00:47:23Z</time>
      </trkpt>
      <trkpt lat="38.96802" lon="1.25472">
        <ele>40</ele>
        <time>2010-01-01T00:47:27Z</time>
      </trkpt>
      <trkpt lat="38.96805" lon="1.2546">
        <ele>41</ele>
        <time>2010-01-01T00:47:30Z</time>
      </trkpt>
      <trkpt lat="38.96804" lon="1.25449">
        <ele>41</ele>
        <time>2010-01-01T00:47:34Z</time>
      </trkpt>
      <trkpt lat="38.96808" lon="1.25437">
        <ele>41</ele>
        <time>2010-01-01T00:47:38Z</time>
      </trkpt>
      <trkpt lat="38.9681" lon="1.25423">
        <ele>41</ele>
        <time>2010-01-01T00:47:42Z</time>
      </trkpt>
      <trkpt lat="38.96812" lon="1.25411">
        <ele>40</ele>
        <time>2010-01-01T00:47:46Z</time>
      </trkpt>
      <trkpt lat="38.96816" lon="1.25397">
        <ele>39</ele>
        <time>2010-01-01T00:47:51Z</time>
      </trkpt>
      <trkpt lat="38.96818" lon="1.25384">
        <ele>38</ele>
        <time>2010-01-01T00:47:55Z</time>
      </trkpt>
      <trkpt lat="38.96821" lon="1.25372">
        <ele>37</ele>
        <time>2010-01-01T00:47:59Z</time>
      </trkpt>
      <trkpt lat="38.96822" lon="1.2536">
        <ele>35</ele>
        <time>2010-01-01T00:48:03Z</time>
      </trkpt>
      <trkpt lat="38.96824" lon="1.25348">
        <ele>34</ele>
        <time>2010-01-01T00:48:07Z</time>
      </trkpt>
      <trkpt lat="38.96829" lon="1.25336">
        <ele>32</ele>
        <time>2010-01-01T00:48:11Z</time>
      </trkpt>
      <trkpt lat="38.9683" lon="1.25324">
        <ele>32</ele>
        <time>2010-01-01T00:48:14Z</time>
      </trkpt>
      <trkpt lat="38.96831" lon="1.25311">
        <ele>32</ele>
        <time>2010-01-01T00:48:18Z</time>
      </trkpt>
      <trkpt lat="38.96839" lon="1.25303">
        <ele>30</ele>
        <time>2010-01-01T00:48:23Z</time>
      </trkpt>
      <trkpt lat="38.96841" lon="1.25291">
        <ele>29</ele>
        <time>2010-01-01T00:48:26Z</time>
      </trkpt>
      <trkpt lat="38.96844" lon="1.25279">
        <ele>27</ele>
        <time>2010-01-01T00:48:30Z</time>
      </trkpt>
      <trkpt lat="38.96844" lon="1.25267">
        <ele>26</ele>
        <time>2010-01-01T00:48:34Z</time>
      </trkpt>
      <trkpt lat="38.96844" lon="1.25253">
        <ele>26</ele>
        <time>2010-01-01T00:48:38Z</time>
      </trkpt>
      <trkpt lat="38.96843" lon="1.25241">
        <ele>25</ele>
        <time>2010-01-01T00:48:42Z</time>
      </trkpt>
      <trkpt lat="38.96843" lon="1.25227">
        <ele>23</ele>
        <time>2010-01-01T00:48:46Z</time>
      </trkpt>
      <trkpt lat="38.96845" lon="1.25215">
        <ele>22</ele>
        <time>2010-01-01T00:48:50Z</time>
      </trkpt>
      <trkpt lat="38.96849" lon="1.25202">
        <ele>21</ele>
        <time>2010-01-01T00:48:55Z</time>
      </trkpt>
      <trkpt lat="38.96852" lon="1.25191">
        <ele>21</ele>
        <time>2010-01-01T00:48:58Z</time>
      </trkpt>
      <trkpt lat="38.96849" lon="1.25179">
        <ele>20</ele>
        <time>2010-01-01T00:49:02Z</time>
      </trkpt>
      <trkpt lat="38.96848" lon="1.25166">
        <ele>19</ele>
        <time>2010-01-01T00:49:06Z</time>
      </trkpt>
      <trkpt lat="38.96848" lon="1.25151">
        <ele>18</ele>
        <time>2010-01-01T00:49:11Z</time>
      </trkpt>
      <trkpt lat="38.96847" lon="1.25139">
        <ele>18</ele>
        <time>2010-01-01T00:49:15Z</time>
      </trkpt>
      <trkpt lat="38.96846" lon="1.25126">
        <ele>16</ele>
        <time>2010-01-01T00:49:19Z</time>
      </trkpt>
      <trkpt lat="38.96844" lon="1.25113">
        <ele>15</ele>
        <time>2010-01-01T00:49:23Z</time>
      </trkpt>
      <trkpt lat="38.9684" lon="1.25102">
        <ele>14</ele>
        <time>2010-01-01T00:49:27Z</time>
      </trkpt>
      <trkpt lat="38.96838" lon="1.25088">
        <ele>12</ele>
        <time>2010-01-01T00:49:31Z</time>
      </trkpt>
      <trkpt lat="38.96836" lon="1.25076">
        <ele>10</ele>
        <time>2010-01-01T00:49:35Z</time>
      </trkpt>
      <trkpt lat="38.96834" lon="1.25062">
        <ele>8</ele>
        <time>2010-01-01T00:49:39Z</time>
      </trkpt>
      <trkpt lat="38.96828" lon="1.25052">
        <ele>6</ele>
        <time>2010-01-01T00:49:43Z</time>
      </trkpt>
      <trkpt lat="38.9682" lon="1.25057">
        <ele>8</ele>
        <time>2010-01-01T00:49:47Z</time>
      </trkpt>
      <trkpt lat="38.96811" lon="1.2506">
        <ele>9</ele>
        <time>2010-01-01T00:49:50Z</time>
      </trkpt>
      <trkpt lat="38.96804" lon="1.25069">
        <ele>10</ele>
        <time>2010-01-01T00:49:54Z</time>
      </trkpt>
      <trkpt lat="38.96796" lon="1.25076">
        <ele>12</ele>
        <time>2010-01-01T00:49:58Z</time>
      </trkpt>
      <trkpt lat="38.96785" lon="1.25075">
        <ele>12</ele>
        <time>2010-01-01T00:50:03Z</time>
      </trkpt>
      <trkpt lat="38.96775" lon="1.25077">
        <ele>12</ele>
        <time>2010-01-01T00:50:07Z</time>
      </trkpt>
      <trkpt lat="38.96772" lon="1.25089">
        <ele>14</ele>
        <time>2010-01-01T00:50:11Z</time>
      </trkpt>
      <trkpt lat="38.96768" lon="1.25102">
        <ele>15</ele>
        <time>2010-01-01T00:50:15Z</time>
      </trkpt>
      <trkpt lat="38.96762" lon="1.25111">
        <ele>15</ele>
        <time>2010-01-01T00:50:19Z</time>
      </trkpt>
      <trkpt lat="38.96754" lon="1.25118">
        <ele>15</ele>
        <time>2010-01-01T00:50:23Z</time>
      </trkpt>
      <trkpt lat="38.96747" lon="1.25127">
        <ele>15</ele>
        <time>2010-01-01T00:50:26Z</time>
      </trkpt>
      <trkpt lat="38.96741" lon="1.25136">
        <ele>16</ele>
        <time>2010-01-01T00:50:30Z</time>
      </trkpt>
      <trkpt lat="38.96734" lon="1.25144">
        <ele>16</ele>
        <time>2010-01-01T00:50:34Z</time>
      </trkpt>
      <trkpt lat="38.96726" lon="1.25151">
        <ele>17</ele>
        <time>2010-01-01T00:50:38Z</time>
      </trkpt>
      <trkpt lat="38.96717" lon="1.25155">
        <ele>17</ele>
        <time>2010-01-01T00:50:42Z</time>
      </trkpt>
      <trkpt lat="38.96707" lon="1.25157">
        <ele>16</ele>
        <time>2010-01-01T00:50:46Z</time>
      </trkpt>
      <trkpt lat="38.96699" lon="1.25163">
        <ele>16</ele>
        <time>2010-01-01T00:50:49Z</time>
      </trkpt>
      <trkpt lat="38.96691" lon="1.25169">
        <ele>16</ele>
        <time>2010-01-01T00:50:53Z</time>
      </trkpt>
      <trkpt lat="38.96681" lon="1.25172">
        <ele>17</ele>
        <time>2010-01-01T00:50:57Z</time>
      </trkpt>
      <trkpt lat="38.96672" lon="1.25175">
        <ele>18</ele>
        <time>2010-01-01T00:51:01Z</time>
      </trkpt>
      <trkpt lat="38.96663" lon="1.25182">
        <ele>19</ele>
        <time>2010-01-01T00:51:05Z</time>
      </trkpt>
      <trkpt lat="38.96655" lon="1.25188">
        <ele>20</ele>
        <time>2010-01-01T00:51:09Z</time>
      </trkpt>
      <trkpt lat="38.96644" lon="1.25192">
        <ele>21</ele>
        <time>2010-01-01T00:51:13Z</time>
      </trkpt>
      <trkpt lat="38.96636" lon="1.25199">
        <ele>22</ele>
        <time>2010-01-01T00:51:17Z</time>
      </trkpt>
      <trkpt lat="38.9663" lon="1.25207">
        <ele>22</ele>
        <time>2010-01-01T00:51:21Z</time>
      </trkpt>
      <trkpt lat="38.9662" lon="1.25213">
        <ele>23</ele>
        <time>2010-01-01T00:51:25Z</time>
      </trkpt>
      <trkpt lat="38.96612" lon="1.25218">
        <ele>23</ele>
        <time>2010-01-01T00:51:29Z</time>
      </trkpt>
      <trkpt lat="38.96603" lon="1.25221">
        <ele>23</ele>
        <time>2010-01-01T00:51:33Z</time>
      </trkpt>
      <trkpt lat="38.96594" lon="1.25226">
        <ele>24</ele>
        <time>2010-01-01T00:51:36Z</time>
      </trkpt>
      <trkpt lat="38.96584" lon="1.25228">
        <ele>24</ele>
        <time>2010-01-01T00:51:40Z</time>
      </trkpt>
      <trkpt lat="38.96574" lon="1.25227">
        <ele>24</ele>
        <time>2010-01-01T00:51:44Z</time>
      </trkpt>
      <trkpt lat="38.96565" lon="1.25224">
        <ele>25</ele>
        <time>2010-01-01T00:51:48Z</time>
      </trkpt>
      <trkpt lat="38.96559" lon="1.25212">
        <ele>25</ele>
        <time>2010-01-01T00:51:52Z</time>
      </trkpt>
      <trkpt lat="38.96555" lon="1.25199">
        <ele>26</ele>
        <time>2010-01-01T00:51:57Z</time>
      </trkpt>
      <trkpt lat="38.9656" lon="1.25189">
        <ele>26</ele>
        <time>2010-01-01T00:52:00Z</time>
      </trkpt>
      <trkpt lat="38.96568" lon="1.25183">
        <ele>25</ele>
        <time>2010-01-01T00:52:04Z</time>
      </trkpt>
      <trkpt lat="38.96577" lon="1.25176">
        <ele>25</ele>
        <time>2010-01-01T00:52:08Z</time>
      </trkpt>
      <trkpt lat="38.96585" lon="1.2517">
        <ele>25</ele>
        <time>2010-01-01T00:52:12Z</time>
      </trkpt>
      <trkpt lat="38.96589" lon="1.25158">
        <ele>25</ele>
        <time>2010-01-01T00:52:16Z</time>
      </trkpt>
      <trkpt lat="38.96589" lon="1.25146">
        <ele>26</ele>
        <time>2010-01-01T00:52:20Z</time>
      </trkpt>
      <trkpt lat="38.96594" lon="1.25133">
        <ele>26</ele>
        <time>2010-01-01T00:52:24Z</time>
      </trkpt>
      <trkpt lat="38.96595" lon="1.25121">
        <ele>26</ele>
        <time>2010-01-01T00:52:28Z</time>
      </trkpt>
      <trkpt lat="38.96593" lon="1.2511">
        <ele>26</ele>
        <time>2010-01-01T00:52:32Z</time>
      </trkpt>
      <trkpt lat="38.966" lon="1.25101">
        <ele>26</ele>
        <time>2010-01-01T00:52:36Z</time>
      </trkpt>
      <trkpt lat="38.9661" lon="1.25101">
        <ele>25</ele>
        <time>2010-01-01T00:52:40Z</time>
      </trkpt>
      <trkpt lat="38.96619" lon="1.25097">
        <ele>24</ele>
        <time>2010-01-01T00:52:43Z</time>
      </trkpt>
      <trkpt lat="38.96627" lon="1.25088">
        <ele>23</ele>
        <time>2010-01-01T00:52:48Z</time>
      </trkpt>
      <trkpt lat="38.96635" lon="1.25082">
        <ele>22</ele>
        <time>2010-01-01T00:52:51Z</time>
      </trkpt>
      <trkpt lat="38.96643" lon="1.25075">
        <ele>21</ele>
        <time>2010-01-01T00:52:55Z</time>
      </trkpt>
      <trkpt lat="38.96649" lon="1.25065">
        <ele>20</ele>
        <time>2010-01-01T00:52:59Z</time>
      </trkpt>
      <trkpt lat="38.96656" lon="1.25055">
        <ele>19</ele>
        <time>2010-01-01T00:53:03Z</time>
      </trkpt>
      <trkpt lat="38.96663" lon="1.25047">
        <ele>18</ele>
        <time>2010-01-01T00:53:07Z</time>
      </trkpt>
      <trkpt lat="38.96666" lon="1.25036">
        <ele>18</ele>
        <time>2010-01-01T00:53:11Z</time>
      </trkpt>
      <trkpt lat="38.96669" lon="1.25024">
        <ele>18</ele>
        <time>2010-01-01T00:53:15Z</time>
      </trkpt>
      <trkpt lat="38.96669" lon="1.25012">
        <ele>19</ele>
        <time>2010-01-01T00:53:18Z</time>
      </trkpt>
      <trkpt lat="38.96669" lon="1.24998">
        <ele>19</ele>
        <time>2010-01-01T00:53:23Z</time>
      </trkpt>
      <trkpt lat="38.96671" lon="1.24986">
        <ele>19</ele>
        <time>2010-01-01T00:53:26Z</time>
      </trkpt>
      <trkpt lat="38.96677" lon="1.24974">
        <ele>18</ele>
        <time>2010-01-01T00:53:31Z</time>
      </trkpt>
      <trkpt lat="38.96684" lon="1.24962">
        <ele>18</ele>
        <time>2010-01-01T00:53:36Z</time>
      </trkpt>
      <trkpt lat="38.96684" lon="1.24949">
        <ele>19</ele>
        <time>2010-01-01T00:53:40Z</time>
      </trkpt>
      <trkpt lat="38.96686" lon="1.24937">
        <ele>20</ele>
        <time>2010-01-01T00:53:44Z</time>
      </trkpt>
      <trkpt lat="38.9669" lon="1.24924">
        <ele>20</ele>
        <time>2010-01-01T00:53:48Z</time>
      </trkpt>
      <trkpt lat="38.96692" lon="1.24913">
        <ele>20</ele>
        <time>2010-01-01T00:53:52Z</time>
      </trkpt>
      <trkpt lat="38.96695" lon="1.249">
        <ele>20</ele>
        <time>2010-01-01T00:53:56Z</time>
      </trkpt>
      <trkpt lat="38.96698" lon="1.24888">
        <ele>19</ele>
        <time>2010-01-01T00:54:00Z</time>
      </trkpt>
      <trkpt lat="38.96702" lon="1.24876">
        <ele>18</ele>
        <time>2010-01-01T00:54:04Z</time>
      </trkpt>
      <trkpt lat="38.96701" lon="1.24864">
        <ele>18</ele>
        <time>2010-01-01T00:54:08Z</time>
      </trkpt>
      <trkpt lat="38.96698" lon="1.24852">
        <ele>19</ele>
        <time>2010-01-01T00:54:12Z</time>
      </trkpt>
      <trkpt lat="38.96696" lon="1.24839">
        <ele>19</ele>
        <time>2010-01-01T00:54:15Z</time>
      </trkpt>
      <trkpt lat="38.96692" lon="1.24829">
        <ele>20</ele>
        <time>2010-01-01T00:54:19Z</time>
      </trkpt>
      <trkpt lat="38.96688" lon="1.24818">
        <ele>21</ele>
        <time>2010-01-01T00:54:23Z</time>
      </trkpt>
      <trkpt lat="38.96683" lon="1.24808">
        <ele>21</ele>
        <time>2010-01-01T00:54:27Z</time>
      </trkpt>
      <trkpt lat="38.96678" lon="1.24797">
        <ele>21</ele>
        <time>2010-01-01T00:54:30Z</time>
      </trkpt>
      <trkpt lat="38.96676" lon="1.24785">
        <ele>21</ele>
        <time>2010-01-01T00:54:34Z</time>
      </trkpt>
      <trkpt lat="38.96674" lon="1.24773">
        <ele>21</ele>
        <time>2010-01-01T00:54:38Z</time>
      </trkpt>
      <trkpt lat="38.9667" lon="1.24761">
        <ele>21</ele>
        <time>2010-01-01T00:54:42Z</time>
      </trkpt>
      <trkpt lat="38.96669" lon="1.24749">
        <ele>21</ele>
        <time>2010-01-01T00:54:46Z</time>
      </trkpt>
      <trkpt lat="38.96666" lon="1.24738">
        <ele>20</ele>
        <time>2010-01-01T00:54:50Z</time>
      </trkpt>
      <trkpt lat="38.96662" lon="1.24727">
        <ele>19</ele>
        <time>2010-01-01T00:54:53Z</time>
      </trkpt>
      <trkpt lat="38.96658" lon="1.24716">
        <ele>19</ele>
        <time>2010-01-01T00:54:57Z</time>
      </trkpt>
      <trkpt lat="38.96653" lon="1.24705">
        <ele>18</ele>
        <time>2010-01-01T00:55:01Z</time>
      </trkpt>
      <trkpt lat="38.9665" lon="1.24693">
        <ele>16</ele>
        <time>2010-01-01T00:55:05Z</time>
      </trkpt>
      <trkpt lat="38.96645" lon="1.24682">
        <ele>15</ele>
        <time>2010-01-01T00:55:09Z</time>
      </trkpt>
      <trkpt lat="38.9664" lon="1.24672">
        <ele>14</ele>
        <time>2010-01-01T00:55:13Z</time>
      </trkpt>
      <trkpt lat="38.96636" lon="1.24659">
        <ele>12</ele>
        <time>2010-01-01T00:55:17Z</time>
      </trkpt>
      <trkpt lat="38.96634" lon="1.24645">
        <ele>10</ele>
        <time>2010-01-01T00:55:21Z</time>
      </trkpt>
      <trkpt lat="38.9663" lon="1.24633">
        <ele>9</ele>
        <time>2010-01-01T00:55:26Z</time>
      </trkpt>
      <trkpt lat="38.96626" lon="1.24622">
        <ele>9</ele>
        <time>2010-01-01T00:55:29Z</time>
      </trkpt>
      <trkpt lat="38.96619" lon="1.24614">
        <ele>9</ele>
        <time>2010-01-01T00:55:33Z</time>
      </trkpt>
      <trkpt lat="38.96612" lon="1.24605">
        <ele>9</ele>
        <time>2010-01-01T00:55:37Z</time>
      </trkpt>
      <trkpt lat="38.96604" lon="1.24597">
        <ele>9</ele>
        <time>2010-01-01T00:55:41Z</time>
      </trkpt>
      <trkpt lat="38.96598" lon="1.24586">
        <ele>9</ele>
        <time>2010-01-01T00:55:45Z</time>
      </trkpt>
      <trkpt lat="38.96593" lon="1.24573">
        <ele>9</ele>
        <time>2010-01-01T00:55:49Z</time>
      </trkpt>
      <trkpt lat="38.96589" lon="1.24562">
        <ele>9</ele>
        <time>2010-01-01T00:55:53Z</time>
      </trkpt>
      <trkpt lat="38.96582" lon="1.24551">
        <ele>11</ele>
        <time>2010-01-01T00:55:58Z</time>
      </trkpt>
      <trkpt lat="38.96577" lon="1.2454">
        <ele>12</ele>
        <time>2010-01-01T00:56:02Z</time>
      </trkpt>
      <trkpt lat="38.96574" lon="1.24527">
        <ele>12</ele>
        <time>2010-01-01T00:56:06Z</time>
      </trkpt>
      <trkpt lat="38.96572" lon="1.24515">
        <ele>12</ele>
        <time>2010-01-01T00:56:10Z</time>
      </trkpt>
      <trkpt lat="38.96573" lon="1.24501">
        <ele>12</ele>
        <time>2010-01-01T00:56:14Z</time>
      </trkpt>
      <trkpt lat="38.96575" lon="1.24489">
        <ele>12</ele>
        <time>2010-01-01T00:56:18Z</time>
      </trkpt>
      <trkpt lat="38.96576" lon="1.24478">
        <ele>12</ele>
        <time>2010-01-01T00:56:21Z</time>
      </trkpt>
      <trkpt lat="38.96578" lon="1.24466">
        <ele>12</ele>
        <time>2010-01-01T00:56:25Z</time>
      </trkpt>
      <trkpt lat="38.96585" lon="1.24455">
        <ele>11</ele>
        <time>2010-01-01T00:56:30Z</time>
      </trkpt>
      <trkpt lat="38.9659" lon="1.24443">
        <ele>10</ele>
        <time>2010-01-01T00:56:34Z</time>
      </trkpt>
      <trkpt lat="38.96593" lon="1.24431">
        <ele>9</ele>
        <time>2010-01-01T00:56:38Z</time>
      </trkpt>
      <trkpt lat="38.96597" lon="1.24418">
        <ele>9</ele>
        <time>2010-01-01T00:56:42Z</time>
      </trkpt>
      <trkpt lat="38.96604" lon="1.24406">
        <ele>9</ele>
        <time>2010-01-01T00:56:47Z</time>
      </trkpt>
      <trkpt lat="38.9661" lon="1.24398">
        <ele>9</ele>
        <time>2010-01-01T00:56:50Z</time>
      </trkpt>
      <trkpt lat="38.96616" lon="1.24385">
        <ele>8</ele>
        <time>2010-01-01T00:56:55Z</time>
      </trkpt>
      <trkpt lat="38.96619" lon="1.24373">
        <ele>8</ele>
        <time>2010-01-01T00:56:59Z</time>
      </trkpt>
      <trkpt lat="38.96621" lon="1.24361">
        <ele>8</ele>
        <time>2010-01-01T00:57:03Z</time>
      </trkpt>
      <trkpt lat="38.96625" lon="1.24349">
        <ele>8</ele>
        <time>2010-01-01T00:57:07Z</time>
      </trkpt>
      <trkpt lat="38.96629" lon="1.24337">
        <ele>7</ele>
        <time>2010-01-01T00:57:11Z</time>
      </trkpt>
      <trkpt lat="38.96634" lon="1.24324">
        <ele>5</ele>
        <time>2010-01-01T00:57:15Z</time>
      </trkpt>
      <trkpt lat="38.9664" lon="1.24314">
        <ele>4</ele>
        <time>2010-01-01T00:57:19Z</time>
      </trkpt>
      <trkpt lat="38.96643" lon="1.24302">
        <ele>3</ele>
        <time>2010-01-01T00:57:23Z</time>
      </trkpt>
      <trkpt lat="38.96641" lon="1.2429">
        <ele>3</ele>
        <time>2010-01-01T00:57:27Z</time>
      </trkpt>
      <trkpt lat="38.96637" lon="1.24277">
        <ele>4</ele>
        <time>2010-01-01T00:57:31Z</time>
      </trkpt>
      <trkpt lat="38.96633" lon="1.24267">
        <ele>4</ele>
        <time>2010-01-01T00:57:35Z</time>
      </trkpt>
      <trkpt lat="38.9663" lon="1.24254">
        <ele>4</ele>
        <time>2010-01-01T00:57:39Z</time>
      </trkpt>
      <trkpt lat="38.96634" lon="1.24241">
        <ele>3</ele>
        <time>2010-01-01T00:57:43Z</time>
      </trkpt>
      <trkpt lat="38.96637" lon="1.24228">
        <ele>3</ele>
        <time>2010-01-01T00:57:48Z</time>
      </trkpt>
      <trkpt lat="38.96637" lon="1.24215">
        <ele>3</ele>
        <time>2010-01-01T00:57:52Z</time>
      </trkpt>
      <trkpt lat="38.96637" lon="1.24201">
        <ele>3</ele>
        <time>2010-01-01T00:57:56Z</time>
      </trkpt>
      <trkpt lat="38.96641" lon="1.24189">
        <ele>2</ele>
        <time>2010-01-01T00:58:00Z</time>
      </trkpt>
      <trkpt lat="38.96644" lon="1.24177">
        <ele>2</ele>
        <time>2010-01-01T00:58:04Z</time>
      </trkpt>
      <trkpt lat="38.96651" lon="1.24166">
        <ele>1</ele>
        <time>2010-01-01T00:58:09Z</time>
      </trkpt>
      <trkpt lat="38.96658" lon="1.24154">
        <ele>1</ele>
        <time>2010-01-01T00:58:13Z</time>
      </trkpt>
      <trkpt lat="38.96653" lon="1.24143">
        <ele>1</ele>
        <time>2010-01-01T00:58:17Z</time>
      </trkpt>
      <trkpt lat="38.96643" lon="1.24136">
        <ele>1</ele>
        <time>2010-01-01T00:58:21Z</time>
      </trkpt>
      <trkpt lat="38.96636" lon="1.24127">
        <ele>2</ele>
        <time>2010-01-01T00:58:25Z</time>
      </trkpt>
      <trkpt lat="38.96631" lon="1.24115">
        <ele>3</ele>
        <time>2010-01-01T00:58:30Z</time>
      </trkpt>
      <trkpt lat="38.96625" lon="1.24104">
        <ele>3</ele>
        <time>2010-01-01T00:58:34Z</time>
      </trkpt>
      <trkpt lat="38.96619" lon="1.24094">
        <ele>4</ele>
        <time>2010-01-01T00:58:38Z</time>
      </trkpt>
      <trkpt lat="38.96613" lon="1.24083">
        <ele>4</ele>
        <time>2010-01-01T00:58:42Z</time>
      </trkpt>
      <trkpt lat="38.96615" lon="1.24069">
        <ele>4</ele>
        <time>2010-01-01T00:58:46Z</time>
      </trkpt>
      <trkpt lat="38.96621" lon="1.24057">
        <ele>4</ele>
        <time>2010-01-01T00:58:51Z</time>
      </trkpt>
      <trkpt lat="38.96612" lon="1.24052">
        <ele>4</ele>
        <time>2010-01-01T00:58:54Z</time>
      </trkpt>
      <trkpt lat="38.96603" lon="1.24051">
        <ele>5</ele>
        <time>2010-01-01T00:58:58Z</time>
      </trkpt>
      <trkpt lat="38.96595" lon="1.24044">
        <ele>6</ele>
        <time>2010-01-01T00:59:02Z</time>
      </trkpt>
      <trkpt lat="38.96586" lon="1.24037">
        <ele>6</ele>
        <time>2010-01-01T00:59:06Z</time>
      </trkpt>
      <trkpt lat="38.96583" lon="1.24024">
        <ele>7</ele>
        <time>2010-01-01T00:59:10Z</time>
      </trkpt>
      <trkpt lat="38.96587" lon="1.24014">
        <ele>6</ele>
        <time>2010-01-01T00:59:14Z</time>
      </trkpt>
      <trkpt lat="38.96592" lon="1.24002">
        <ele>6</ele>
        <time>2010-01-01T00:59:18Z</time>
      </trkpt>
      <trkpt lat="38.96599" lon="1.23993">
        <ele>5</ele>
        <time>2010-01-01T00:59:22Z</time>
      </trkpt>
      <trkpt lat="38.96607" lon="1.23983">
        <ele>4</ele>
        <time>2010-01-01T00:59:26Z</time>
      </trkpt>
      <trkpt lat="38.96614" lon="1.23973">
        <ele>4</ele>
        <time>2010-01-01T00:59:31Z</time>
      </trkpt>
      <trkpt lat="38.96623" lon="1.23966">
        <ele>4</ele>
        <time>2010-01-01T00:59:35Z</time>
      </trkpt>
      <trkpt lat="38.96628" lon="1.23957">
        <ele>5</ele>
        <time>2010-01-01T00:59:39Z</time>
      </trkpt>
      <trkpt lat="38.96627" lon="1.23945">
        <ele>5</ele>
        <time>2010-01-01T00:59:42Z</time>
      </trkpt>
      <trkpt lat="38.96627" lon="1.23932">
        <ele>6</ele>
        <time>2010-01-01T00:59:46Z</time>
      </trkpt>
      <trkpt lat="38.96623" lon="1.23918">
        <ele>7</ele>
        <time>2010-01-01T00:59:51Z</time>
      </trkpt>
      <trkpt lat="38.96621" lon="1.23906">
        <ele>9</ele>
        <time>2010-01-01T00:59:55Z</time>
      </trkpt>
      <trkpt lat="38.9662" lon="1.23894">
        <ele>10</ele>
        <time>2010-01-01T00:59:59Z</time>
      </trkpt>
      <trkpt lat="38.96619" lon="1.23881">
        <ele>12</ele>
        <time>2010-01-01T01:00:03Z</time>
      </trkpt>
      <trkpt lat="38.9662" lon="1.23868">
        <ele>12</ele>
        <time>2010-01-01T01:00:07Z</time>
      </trkpt>
      <trkpt lat="38.96616" lon="1.23856">
        <ele>13</ele>
        <time>2010-01-01T01:00:11Z</time>
      </trkpt>
      <trkpt lat="38.96609" lon="1.23846">
        <ele>14</ele>
        <time>2010-01-01T01:00:15Z</time>
      </trkpt>
      <trkpt lat="38.96606" lon="1.23835">
        <ele>15</ele>
        <time>2010-01-01T01:00:19Z</time>
      </trkpt>
      <trkpt lat="38.96601" lon="1.23825">
        <ele>15</ele>
        <time>2010-01-01T01:00:22Z</time>
      </trkpt>
      <trkpt lat="38.96593" lon="1.23814">
        <ele>16</ele>
        <time>2010-01-01T01:00:27Z</time>
      </trkpt>
      <trkpt lat="38.96585" lon="1.23806">
        <ele>17</ele>
        <time>2010-01-01T01:00:31Z</time>
      </trkpt>
      <trkpt lat="38.9658" lon="1.23795">
        <ele>18</ele>
        <time>2010-01-01T01:00:35Z</time>
      </trkpt>
      <trkpt lat="38.96572" lon="1.23788">
        <ele>19</ele>
        <time>2010-01-01T01:00:39Z</time>
      </trkpt>
      <trkpt lat="38.96561" lon="1.23783">
        <ele>19</ele>
        <time>2010-01-01T01:00:44Z</time>
      </trkpt>
      <trkpt lat="38.96551" lon="1.23783">
        <ele>19</ele>
        <time>2010-01-01T01:00:48Z</time>
      </trkpt>
      <trkpt lat="38.96543" lon="1.23776">
        <ele>20</ele>
        <time>2010-01-01T01:00:51Z</time>
      </trkpt>
      <trkpt lat="38.96544" lon="1.23765">
        <ele>20</ele>
        <time>2010-01-01T01:00:55Z</time>
      </trkpt>
      <trkpt lat="38.96551" lon="1.23755">
        <ele>21</ele>
        <time>2010-01-01T01:00:59Z</time>
      </trkpt>
      <trkpt lat="38.96554" lon="1.23741">
        <ele>21</ele>
        <time>2010-01-01T01:01:04Z</time>
      </trkpt>
      <trkpt lat="38.96554" lon="1.23727">
        <ele>22</ele>
        <time>2010-01-01T01:01:08Z</time>
      </trkpt>
      <trkpt lat="38.96555" lon="1.23715">
        <ele>23</ele>
        <time>2010-01-01T01:01:12Z</time>
      </trkpt>
      <trkpt lat="38.96561" lon="1.23705">
        <ele>23</ele>
        <time>2010-01-01T01:01:16Z</time>
      </trkpt>
      <trkpt lat="38.96568" lon="1.23697">
        <ele>24</ele>
        <time>2010-01-01T01:01:20Z</time>
      </trkpt>
      <trkpt lat="38.96576" lon="1.23689">
        <ele>25</ele>
        <time>2010-01-01T01:01:24Z</time>
      </trkpt>
      <trkpt lat="38.96583" lon="1.23679">
        <ele>26</ele>
        <time>2010-01-01T01:01:28Z</time>
      </trkpt>
      <trkpt lat="38.96589" lon="1.2367">
        <ele>26</ele>
        <time>2010-01-01T01:01:32Z</time>
      </trkpt>
      <trkpt lat="38.96594" lon="1.23659">
        <ele>26</ele>
        <time>2010-01-01T01:01:35Z</time>
      </trkpt>
      <trkpt lat="38.966" lon="1.23648">
        <ele>26</ele>
        <time>2010-01-01T01:01:40Z</time>
      </trkpt>
      <trkpt lat="38.96606" lon="1.23638">
        <ele>26</ele>
        <time>2010-01-01T01:01:44Z</time>
      </trkpt>
      <trkpt lat="38.96609" lon="1.23627">
        <ele>27</ele>
        <time>2010-01-01T01:01:47Z</time>
      </trkpt>
      <trkpt lat="38.96608" lon="1.23615">
        <ele>27</ele>
        <time>2010-01-01T01:01:51Z</time>
      </trkpt>
      <trkpt lat="38.96602" lon="1.23606">
        <ele>29</ele>
        <time>2010-01-01T01:01:55Z</time>
      </trkpt>
      <trkpt lat="38.96596" lon="1.23593">
        <ele>30</ele>
        <time>2010-01-01T01:02:00Z</time>
      </trkpt>
      <trkpt lat="38.96591" lon="1.23581">
        <ele>30</ele>
        <time>2010-01-01T01:02:04Z</time>
      </trkpt>
      <trkpt lat="38.96587" lon="1.2357">
        <ele>31</ele>
        <time>2010-01-01T01:02:07Z</time>
      </trkpt>
      <trkpt lat="38.96584" lon="1.23558">
        <ele>32</ele>
        <time>2010-01-01T01:02:12Z</time>
      </trkpt>
      <trkpt lat="38.96584" lon="1.23545">
        <ele>33</ele>
        <time>2010-01-01T01:02:15Z</time>
      </trkpt>
      <trkpt lat="38.96583" lon="1.23532">
        <ele>34</ele>
        <time>2010-01-01T01:02:20Z</time>
      </trkpt>
      <trkpt lat="38.96584" lon="1.23518">
        <ele>35</ele>
        <time>2010-01-01T01:02:24Z</time>
      </trkpt>
      <trkpt lat="38.96579" lon="1.23508">
        <ele>35</ele>
        <time>2010-01-01T01:02:28Z</time>
      </trkpt>
      <trkpt lat="38.96581" lon="1.23495">
        <ele>36</ele>
        <time>2010-01-01T01:02:32Z</time>
      </trkpt>
      <trkpt lat="38.96579" lon="1.23483">
        <ele>36</ele>
        <time>2010-01-01T01:02:36Z</time>
      </trkpt>
      <trkpt lat="38.96575" lon="1.23471">
        <ele>36</ele>
        <time>2010-01-01T01:02:40Z</time>
      </trkpt>
      <trkpt lat="38.96569" lon="1.23461">
        <ele>36</ele>
        <time>2010-01-01T01:02:44Z</time>
      </trkpt>
      <trkpt lat="38.96559" lon="1.23454">
        <ele>36</ele>
        <time>2010-01-01T01:02:48Z</time>
      </trkpt>
      <trkpt lat="38.96554" lon="1.23443">
        <ele>37</ele>
        <time>2010-01-01T01:02:52Z</time>
      </trkpt>
      <trkpt lat="38.96552" lon="1.23429">
        <ele>37</ele>
        <time>2010-01-01T01:02:57Z</time>
      </trkpt>
      <trkpt lat="38.96553" lon="1.23415">
        <ele>37</ele>
        <time>2010-01-01T01:03:01Z</time>
      </trkpt>
      <trkpt lat="38.96559" lon="1.23405">
        <ele>36</ele>
        <time>2010-01-01T01:03:05Z</time>
      </trkpt>
      <trkpt lat="38.96568" lon="1.23402">
        <ele>35</ele>
        <time>2010-01-01T01:03:09Z</time>
      </trkpt>
      <trkpt lat="38.96578" lon="1.23398">
        <ele>34</ele>
        <time>2010-01-01T01:03:13Z</time>
      </trkpt>
      <trkpt lat="38.96584" lon="1.23388">
        <ele>33</ele>
        <time>2010-01-01T01:03:17Z</time>
      </trkpt>
      <trkpt lat="38.9659" lon="1.23378">
        <ele>32</ele>
        <time>2010-01-01T01:03:21Z</time>
      </trkpt>
      <trkpt lat="38.96594" lon="1.23367">
        <ele>31</ele>
        <time>2010-01-01T01:03:24Z</time>
      </trkpt>
      <trkpt lat="38.96595" lon="1.23353">
        <ele>30</ele>
        <time>2010-01-01T01:03:29Z</time>
      </trkpt>
      <trkpt lat="38.96598" lon="1.23342">
        <ele>30</ele>
        <time>2010-01-01T01:03:32Z</time>
      </trkpt>
      <trkpt lat="38.96601" lon="1.23328">
        <ele>30</ele>
        <time>2010-01-01T01:03:37Z</time>
      </trkpt>
      <trkpt lat="38.96603" lon="1.23315">
        <ele>29</ele>
        <time>2010-01-01T01:03:41Z</time>
      </trkpt>
      <trkpt lat="38.96608" lon="1.23303">
        <ele>29</ele>
        <time>2010-01-01T01:03:45Z</time>
      </trkpt>
      <trkpt lat="38.96609" lon="1.2329">
        <ele>28</ele>
        <time>2010-01-01T01:03:49Z</time>
      </trkpt>
      <trkpt lat="38.96608" lon="1.23278">
        <ele>28</ele>
        <time>2010-01-01T01:03:53Z</time>
      </trkpt>
      <trkpt lat="38.96609" lon="1.23264">
        <ele>27</ele>
        <time>2010-01-01T01:03:58Z</time>
      </trkpt>
      <trkpt lat="38.96609" lon="1.23252">
        <ele>26</ele>
        <time>2010-01-01T01:04:01Z</time>
      </trkpt>
      <trkpt lat="38.96609" lon="1.2324">
        <ele>25</ele>
        <time>2010-01-01T01:04:05Z</time>
      </trkpt>
      <trkpt lat="38.9661" lon="1.23228">
        <ele>24</ele>
        <time>2010-01-01T01:04:09Z</time>
      </trkpt>
      <trkpt lat="38.96613" lon="1.23215">
        <ele>23</ele>
        <time>2010-01-01T01:04:13Z</time>
      </trkpt>
      <trkpt lat="38.96612" lon="1.23203">
        <ele>22</ele>
        <time>2010-01-01T01:04:17Z</time>
      </trkpt>
      <trkpt lat="38.96612" lon="1.23189">
        <ele>21</ele>
        <time>2010-01-01T01:04:21Z</time>
      </trkpt>
      <trkpt lat="38.96613" lon="1.23176">
        <ele>21</ele>
        <time>2010-01-01T01:04:25Z</time>
      </trkpt>
      <trkpt lat="38.96609" lon="1.23165">
        <ele>21</ele>
        <time>2010-01-01T01:04:29Z</time>
      </trkpt>
      <trkpt lat="38.96601" lon="1.23155">
        <ele>20</ele>
        <time>2010-01-01T01:04:33Z</time>
      </trkpt>
      <trkpt lat="38.96595" lon="1.23144">
        <ele>20</ele>
        <time>2010-01-01T01:04:37Z</time>
      </trkpt>
      <trkpt lat="38.96589" lon="1.23133">
        <ele>19</ele>
        <time>2010-01-01T01:04:42Z</time>
      </trkpt>
      <trkpt lat="38.96584" lon="1.23123">
        <ele>18</ele>
        <time>2010-01-01T01:04:45Z</time>
      </trkpt>
      <trkpt lat="38.96578" lon="1.23111">
        <ele>18</ele>
        <time>2010-01-01T01:04:50Z</time>
      </trkpt>
      <trkpt lat="38.96574" lon="1.23098">
        <ele>18</ele>
        <time>2010-01-01T01:04:54Z</time>
      </trkpt>
      <trkpt lat="38.96567" lon="1.23089">
        <ele>18</ele>
        <time>2010-01-01T01:04:58Z</time>
      </trkpt>
      <trkpt lat="38.9656" lon="1.23079">
        <ele>18</ele>
        <time>2010-01-01T01:05:02Z</time>
      </trkpt>
      <trkpt lat="38.96553" lon="1.2307">
        <ele>18</ele>
        <time>2010-01-01T01:05:06Z</time>
      </trkpt>
      <trkpt lat="38.96544" lon="1.23062">
        <ele>18</ele>
        <time>2010-01-01T01:05:10Z</time>
      </trkpt>
      <trkpt lat="38.96539" lon="1.23052">
        <ele>18</ele>
        <time>2010-01-01T01:05:14Z</time>
      </trkpt>
      <trkpt lat="38.96539" lon="1.23038">
        <ele>17</ele>
        <time>2010-01-01T01:05:19Z</time>
      </trkpt>
      <trkpt lat="38.96537" lon="1.23026">
        <ele>17</ele>
        <time>2010-01-01T01:05:23Z</time>
      </trkpt>
      <trkpt lat="38.96534" lon="1.23014">
        <ele>17</ele>
        <time>2010-01-01T01:05:26Z</time>
      </trkpt>
      <trkpt lat="38.96532" lon="1.23003">
        <ele>16</ele>
        <time>2010-01-01T01:05:30Z</time>
      </trkpt>
      <trkpt lat="38.96527" lon="1.22992">
        <ele>17</ele>
        <time>2010-01-01T01:05:34Z</time>
      </trkpt>
      <trkpt lat="38.96518" lon="1.22986">
        <ele>17</ele>
        <time>2010-01-01T01:05:38Z</time>
      </trkpt>
      <trkpt lat="38.9651" lon="1.22979">
        <ele>18</ele>
        <time>2010-01-01T01:05:42Z</time>
      </trkpt>
      <trkpt lat="38.96503" lon="1.2297">
        <ele>18</ele>
        <time>2010-01-01T01:05:46Z</time>
      </trkpt>
      <trkpt lat="38.96498" lon="1.2296">
        <ele>19</ele>
        <time>2010-01-01T01:05:49Z</time>
      </trkpt>
      <trkpt lat="38.96496" lon="1.22947">
        <ele>19</ele>
        <time>2010-01-01T01:05:54Z</time>
      </trkpt>
      <trkpt lat="38.96491" lon="1.22934">
        <ele>19</ele>
        <time>2010-01-01T01:05:58Z</time>
      </trkpt>
      <trkpt lat="38.96486" lon="1.22925">
        <ele>19</ele>
        <time>2010-01-01T01:06:02Z</time>
      </trkpt>
      <trkpt lat="38.96482" lon="1.22914">
        <ele>19</ele>
        <time>2010-01-01T01:06:05Z</time>
      </trkpt>
      <trkpt lat="38.9648" lon="1.22903">
        <ele>19</ele>
        <time>2010-01-01T01:06:09Z</time>
      </trkpt>
      <trkpt lat="38.96478" lon="1.2289">
        <ele>19</ele>
        <time>2010-01-01T01:06:13Z</time>
      </trkpt>
      <trkpt lat="38.96475" lon="1.22879">
        <ele>18</ele>
        <time>2010-01-01T01:06:17Z</time>
      </trkpt>
      <trkpt lat="38.96474" lon="1.22866">
        <ele>18</ele>
        <time>2010-01-01T01:06:21Z</time>
      </trkpt>
      <trkpt lat="38.96475" lon="1.22852">
        <ele>17</ele>
        <time>2010-01-01T01:06:25Z</time>
      </trkpt>
      <trkpt lat="38.96471" lon="1.22841">
        <ele>17</ele>
        <time>2010-01-01T01:06:29Z</time>
      </trkpt>
      <trkpt lat="38.96471" lon="1.22827">
        <ele>16</ele>
        <time>2010-01-01T01:06:33Z</time>
      </trkpt>
      <trkpt lat="38.96476" lon="1.22815">
        <ele>16</ele>
        <time>2010-01-01T01:06:37Z</time>
      </trkpt>
      <trkpt lat="38.9648" lon="1.22804">
        <ele>16</ele>
        <time>2010-01-01T01:06:41Z</time>
      </trkpt>
      <trkpt lat="38.96483" lon="1.2279">
        <ele>16</ele>
        <time>2010-01-01T01:06:46Z</time>
      </trkpt>
      <trkpt lat="38.9649" lon="1.22777">
        <ele>15</ele>
        <time>2010-01-01T01:06:50Z</time>
      </trkpt>
      <trkpt lat="38.96495" lon="1.22765">
        <ele>15</ele>
        <time>2010-01-01T01:06:55Z</time>
      </trkpt>
      <trkpt lat="38.96496" lon="1.22752">
        <ele>15</ele>
        <time>2010-01-01T01:06:59Z</time>
      </trkpt>
      <trkpt lat="38.96494" lon="1.22741">
        <ele>14</ele>
        <time>2010-01-01T01:07:03Z</time>
      </trkpt>
      <trkpt lat="38.96489" lon="1.22729">
        <ele>13</ele>
        <time>2010-01-01T01:07:07Z</time>
      </trkpt>
      <trkpt lat="38.96484" lon="1.22718">
        <ele>13</ele>
        <time>2010-01-01T01:07:11Z</time>
      </trkpt>
      <trkpt lat="38.96477" lon="1.22705">
        <ele>12</ele>
        <time>2010-01-01T01:07:15Z</time>
      </trkpt>
      <trkpt lat="38.96473" lon="1.22694">
        <ele>11</ele>
        <time>2010-01-01T01:07:19Z</time>
      </trkpt>
      <trkpt lat="38.96469" lon="1.22683">
        <ele>11</ele>
        <time>2010-01-01T01:07:23Z</time>
      </trkpt>
      <trkpt lat="38.96463" lon="1.22672">
        <ele>11</ele>
        <time>2010-01-01T01:07:27Z</time>
      </trkpt>
      <trkpt lat="38.96458" lon="1.22661">
        <ele>11</ele>
        <time>2010-01-01T01:07:31Z</time>
      </trkpt>
      <trkpt lat="38.96454" lon="1.2265">
        <ele>12</ele>
        <time>2010-01-01T01:07:35Z</time>
      </trkpt>
      <trkpt lat="38.96454" lon="1.22637">
        <ele>11</ele>
        <time>2010-01-01T01:07:39Z</time>
      </trkpt>
      <trkpt lat="38.96455" lon="1.22624">
        <ele>11</ele>
        <time>2010-01-01T01:07:43Z</time>
      </trkpt>
      <trkpt lat="38.96452" lon="1.22611">
        <ele>11</ele>
        <time>2010-01-01T01:07:47Z</time>
      </trkpt>
      <trkpt lat="38.96448" lon="1.22601">
        <ele>10</ele>
        <time>2010-01-01T01:07:51Z</time>
      </trkpt>
      <trkpt lat="38.96443" lon="1.22588">
        <ele>10</ele>
        <time>2010-01-01T01:07:55Z</time>
      </trkpt>
      <trkpt lat="38.96437" lon="1.22577">
        <ele>9</ele>
        <time>2010-01-01T01:07:59Z</time>
      </trkpt>
      <trkpt lat="38.96432" lon="1.22568">
        <ele>9</ele>
        <time>2010-01-01T01:08:03Z</time>
      </trkpt>
      <trkpt lat="38.96425" lon="1.22558">
        <ele>9</ele>
        <time>2010-01-01T01:08:07Z</time>
      </trkpt>
      <trkpt lat="38.96418" lon="1.22548">
        <ele>9</ele>
        <time>2010-01-01T01:08:11Z</time>
      </trkpt>
      <trkpt lat="38.96411" lon="1.22538">
        <ele>9</ele>
        <time>2010-01-01T01:08:16Z</time>
      </trkpt>
      <trkpt lat="38.96405" lon="1.22528">
        <ele>9</ele>
        <time>2010-01-01T01:08:19Z</time>
      </trkpt>
      <trkpt lat="38.96399" lon="1.22518">
        <ele>8</ele>
        <time>2010-01-01T01:08:23Z</time>
      </trkpt>
      <trkpt lat="38.96391" lon="1.22512">
        <ele>8</ele>
        <time>2010-01-01T01:08:27Z</time>
      </trkpt>
      <trkpt lat="38.96381" lon="1.22513">
        <ele>10</ele>
        <time>2010-01-01T01:08:31Z</time>
      </trkpt>
      <trkpt lat="38.96371" lon="1.2251">
        <ele>11</ele>
        <time>2010-01-01T01:08:35Z</time>
      </trkpt>
      <trkpt lat="38.96362" lon="1.22505">
        <ele>11</ele>
        <time>2010-01-01T01:08:39Z</time>
      </trkpt>
      <trkpt lat="38.96351" lon="1.22501">
        <ele>12</ele>
        <time>2010-01-01T01:08:44Z</time>
      </trkpt>
      <trkpt lat="38.96343" lon="1.22495">
        <ele>12</ele>
        <time>2010-01-01T01:08:47Z</time>
      </trkpt>
      <trkpt lat="38.96336" lon="1.22486">
        <ele>12</ele>
        <time>2010-01-01T01:08:51Z</time>
      </trkpt>
      <trkpt lat="38.96329" lon="1.22474">
        <ele>10</ele>
        <time>2010-01-01T01:08:56Z</time>
      </trkpt>
      <trkpt lat="38.96322" lon="1.22462">
        <ele>10</ele>
        <time>2010-01-01T01:09:01Z</time>
      </trkpt>
      <trkpt lat="38.96315" lon="1.22452">
        <ele>10</ele>
        <time>2010-01-01T01:09:05Z</time>
      </trkpt>
      <trkpt lat="38.96309" lon="1.2244">
        <ele>10</ele>
        <time>2010-01-01T01:09:09Z</time>
      </trkpt>
      <trkpt lat="38.96308" lon="1.22426">
        <ele>10</ele>
        <time>2010-01-01T01:09:14Z</time>
      </trkpt>
      <trkpt lat="38.96311" lon="1.22412">
        <ele>9</ele>
        <time>2010-01-01T01:09:18Z</time>
      </trkpt>
      <trkpt lat="38.96316" lon="1.22401">
        <ele>8</ele>
        <time>2010-01-01T01:09:22Z</time>
      </trkpt>
      <trkpt lat="38.96321" lon="1.22388">
        <ele>7</ele>
        <time>2010-01-01T01:09:27Z</time>
      </trkpt>
      <trkpt lat="38.96327" lon="1.22378">
        <ele>6</ele>
        <time>2010-01-01T01:09:31Z</time>
      </trkpt>
      <trkpt lat="38.96332" lon="1.22366">
        <ele>5</ele>
        <time>2010-01-01T01:09:35Z</time>
      </trkpt>
      <trkpt lat="38.96336" lon="1.22353">
        <ele>4</ele>
        <time>2010-01-01T01:09:39Z</time>
      </trkpt>
      <trkpt lat="38.96341" lon="1.22341">
        <ele>2</ele>
        <time>2010-01-01T01:09:44Z</time>
      </trkpt>
      <trkpt lat="38.96343" lon="1.22329">
        <ele>1</ele>
        <time>2010-01-01T01:09:48Z</time>
      </trkpt>
      <trkpt lat="38.96344" lon="1.22315">
        <ele>1</ele>
        <time>2010-01-01T01:09:52Z</time>
      </trkpt>
      <trkpt lat="38.96344" lon="1.22301">
        <ele>1</ele>
        <time>2010-01-01T01:09:56Z</time>
      </trkpt>
      <trkpt lat="38.96342" lon="1.22289">
        <ele>1</ele>
        <time>2010-01-01T01:10:00Z</time>
      </trkpt>
      <trkpt lat="38.96338" lon="1.22277">
        <ele>1</ele>
        <time>2010-01-01T01:10:04Z</time>
      </trkpt>
      <trkpt lat="38.96332" lon="1.22268">
        <ele>2</ele>
        <time>2010-01-01T01:10:08Z</time>
      </trkpt>
      <trkpt lat="38.96325" lon="1.22258">
        <ele>3</ele>
        <time>2010-01-01T01:10:12Z</time>
      </trkpt>
      <trkpt lat="38.96319" lon="1.22247">
        <ele>4</ele>
        <time>2010-01-01T01:10:16Z</time>
      </trkpt>
      <trkpt lat="38.96314" lon="1.22235">
        <ele>4</ele>
        <time>2010-01-01T01:10:20Z</time>
      </trkpt>
      <trkpt lat="38.96314" lon="1.22223">
        <ele>4</ele>
        <time>2010-01-01T01:10:24Z</time>
      </trkpt>
      <trkpt lat="38.96307" lon="1.22211">
        <ele>4</ele>
        <time>2010-01-01T01:10:29Z</time>
      </trkpt>
      <trkpt lat="38.963" lon="1.22203">
        <ele>4</ele>
        <time>2010-01-01T01:10:33Z</time>
      </trkpt>
      <trkpt lat="38.96296" lon="1.22191">
        <ele>4</ele>
        <time>2010-01-01T01:10:37Z</time>
      </trkpt>
      <trkpt lat="38.96289" lon="1.2218">
        <ele>3</ele>
        <time>2010-01-01T01:10:41Z</time>
      </trkpt>
      <trkpt lat="38.96284" lon="1.2217">
        <ele>3</ele>
        <time>2010-01-01T01:10:45Z</time>
      </trkpt>
      <trkpt lat="38.96279" lon="1.22158">
        <ele>3</ele>
        <time>2010-01-01T01:10:49Z</time>
      </trkpt>
      <trkpt lat="38.96274" lon="1.22147">
        <ele>3</ele>
        <time>2010-01-01T01:10:53Z</time>
      </trkpt>
      <trkpt lat="38.96269" lon="1.22137">
        <ele>4</ele>
        <time>2010-01-01T01:10:57Z</time>
      </trkpt>
      <trkpt lat="38.96264" lon="1.22125">
        <ele>4</ele>
        <time>2010-01-01T01:11:01Z</time>
      </trkpt>
      <trkpt lat="38.96257" lon="1.22114">
        <ele>5</ele>
        <time>2010-01-01T01:11:05Z</time>
      </trkpt>
      <trkpt lat="38.96252" lon="1.22103">
        <ele>6</ele>
        <time>2010-01-01T01:11:09Z</time>
      </trkpt>
      <trkpt lat="38.96252" lon="1.22091">
        <ele>6</ele>
        <time>2010-01-01T01:11:13Z</time>
      </trkpt>
      <trkpt lat="38.96255" lon="1.22079">
        <ele>6</ele>
        <time>2010-01-01T01:11:17Z</time>
      </trkpt>
      <trkpt lat="38.96246" lon="1.22074">
        <ele>6</ele>
        <time>2010-01-01T01:11:21Z</time>
      </trkpt>
      <trkpt lat="38.96238" lon="1.22065">
        <ele>6</ele>
        <time>2010-01-01T01:11:25Z</time>
      </trkpt>
      <trkpt lat="38.9623" lon="1.22058">
        <ele>6</ele>
        <time>2010-01-01T01:11:29Z</time>
      </trkpt>
      <trkpt lat="38.96221" lon="1.22051">
        <ele>6</ele>
        <time>2010-01-01T01:11:33Z</time>
      </trkpt>
      <trkpt lat="38.96213" lon="1.22046">
        <ele>5</ele>
        <time>2010-01-01T01:11:37Z</time>
      </trkpt>
      <trkpt lat="38.96204" lon="1.2204">
        <ele>5</ele>
        <time>2010-01-01T01:11:41Z</time>
      </trkpt>
      <trkpt lat="38.96196" lon="1.22036">
        <ele>4</ele>
        <time>2010-01-01T01:11:44Z</time>
      </trkpt>
      <trkpt lat="38.96187" lon="1.2203">
        <ele>4</ele>
        <time>2010-01-01T01:11:48Z</time>
      </trkpt>
      <trkpt lat="38.96179" lon="1.22025">
        <ele>4</ele>
        <time>2010-01-01T01:11:52Z</time>
      </trkpt>
      <trkpt lat="38.96169" lon="1.2202">
        <ele>4</ele>
        <time>2010-01-01T01:11:56Z</time>
      </trkpt>
      <trkpt lat="38.96159" lon="1.22014">
        <ele>4</ele>
        <time>2010-01-01T01:12:00Z</time>
      </trkpt>
      <trkpt lat="38.9615" lon="1.2201">
        <ele>4</ele>
        <time>2010-01-01T01:12:05Z</time>
      </trkpt>
      <trkpt lat="38.96141" lon="1.22004">
        <ele>4</ele>
        <time>2010-01-01T01:12:08Z</time>
      </trkpt>
      <trkpt lat="38.96132" lon="1.22004">
        <ele>5</ele>
        <time>2010-01-01T01:12:12Z</time>
      </trkpt>
      <trkpt lat="38.96123" lon="1.22002">
        <ele>6</ele>
        <time>2010-01-01T01:12:16Z</time>
      </trkpt>
      <trkpt lat="38.96113" lon="1.22">
        <ele>6</ele>
        <time>2010-01-01T01:12:20Z</time>
      </trkpt>
      <trkpt lat="38.96103" lon="1.22001">
        <ele>6</ele>
        <time>2010-01-01T01:12:24Z</time>
      </trkpt>
      <trkpt lat="38.96095" lon="1.22006">
        <ele>6</ele>
        <time>2010-01-01T01:12:28Z</time>
      </trkpt>
      <trkpt lat="38.96085" lon="1.22011">
        <ele>7</ele>
        <time>2010-01-01T01:12:32Z</time>
      </trkpt>
      <trkpt lat="38.96076" lon="1.2201">
        <ele>6</ele>
        <time>2010-01-01T01:12:35Z</time>
      </trkpt>
      <trkpt lat="38.96065" lon="1.22014">
        <ele>6</ele>
        <time>2010-01-01T01:12:40Z</time>
      </trkpt>
      <trkpt lat="38.96056" lon="1.22012">
        <ele>6</ele>
        <time>2010-01-01T01:12:44Z</time>
      </trkpt>
      <trkpt lat="38.96046" lon="1.2201">
        <ele>6</ele>
        <time>2010-01-01T01:12:48Z</time>
      </trkpt>
      <trkpt lat="38.96038" lon="1.22005">
        <ele>6</ele>
        <time>2010-01-01T01:12:51Z</time>
      </trkpt>
      <trkpt lat="38.96032" lon="1.21995">
        <ele>6</ele>
        <time>2010-01-01T01:12:55Z</time>
      </trkpt>
      <trkpt lat="38.96026" lon="1.21985">
        <ele>5</ele>
        <time>2010-01-01T01:12:59Z</time>
      </trkpt>
      <trkpt lat="38.96022" lon="1.21975">
        <ele>5</ele>
        <time>2010-01-01T01:13:03Z</time>
      </trkpt>
      <trkpt lat="38.96017" lon="1.21963">
        <ele>5</ele>
        <time>2010-01-01T01:13:07Z</time>
      </trkpt>
      <trkpt lat="38.96006" lon="1.21962">
        <ele>6</ele>
        <time>2010-01-01T01:13:11Z</time>
      </trkpt>
      <trkpt lat="38.95995" lon="1.21963">
        <ele>8</ele>
        <time>2010-01-01T01:13:16Z</time>
      </trkpt>
      <trkpt lat="38.95986" lon="1.21964">
        <ele>9</ele>
        <time>2010-01-01T01:13:19Z</time>
      </trkpt>
      <trkpt lat="38.95977" lon="1.21968">
        <ele>10</ele>
        <time>2010-01-01T01:13:23Z</time>
      </trkpt>
      <trkpt lat="38.95966" lon="1.21971">
        <ele>10</ele>
        <time>2010-01-01T01:13:28Z</time>
      </trkpt>
      <trkpt lat="38.95957" lon="1.21981">
        <ele>10</ele>
        <time>2010-01-01T01:13:33Z</time>
      </trkpt>
      <trkpt lat="38.9595" lon="1.21989">
        <ele>10</ele>
        <time>2010-01-01T01:13:36Z</time>
      </trkpt>
      <trkpt lat="38.95943" lon="1.21998">
        <ele>10</ele>
        <time>2010-01-01T01:13:40Z</time>
      </trkpt>
      <trkpt lat="38.95937" lon="1.22005">
        <ele>9</ele>
        <time>2010-01-01T01:13:44Z</time>
      </trkpt>
      <trkpt lat="38.95928" lon="1.22">
        <ele>10</ele>
        <time>2010-01-01T01:13:47Z</time>
      </trkpt>
      <trkpt lat="38.95919" lon="1.21992">
        <ele>10</ele>
        <time>2010-01-01T01:13:52Z</time>
      </trkpt>
      <trkpt lat="38.9591" lon="1.21986">
        <ele>10</ele>
        <time>2010-01-01T01:13:56Z</time>
      </trkpt>
      <trkpt lat="38.95901" lon="1.2198">
        <ele>11</ele>
        <time>2010-01-01T01:14:00Z</time>
      </trkpt>
      <trkpt lat="38.95891" lon="1.21974">
        <ele>11</ele>
        <time>2010-01-01T01:14:04Z</time>
      </trkpt>
      <trkpt lat="38.95886" lon="1.21964">
        <ele>11</ele>
        <time>2010-01-01T01:14:08Z</time>
      </trkpt>
      <trkpt lat="38.9588" lon="1.21954">
        <ele>11</ele>
        <time>2010-01-01T01:14:12Z</time>
      </trkpt>
      <trkpt lat="38.95874" lon="1.21943">
        <ele>12</ele>
        <time>2010-01-01T01:14:16Z</time>
      </trkpt>
      <trkpt lat="38.95869" lon="1.2193">
        <ele>12</ele>
        <time>2010-01-01T01:14:21Z</time>
      </trkpt>
      <trkpt lat="38.95868" lon="1.21918">
        <ele>13</ele>
        <time>2010-01-01T01:14:24Z</time>
      </trkpt>
      <trkpt lat="38.95868" lon="1.21906">
        <ele>13</ele>
        <time>2010-01-01T01:14:28Z</time>
      </trkpt>
      <trkpt lat="38.95866" lon="1.21891">
        <ele>13</ele>
        <time>2010-01-01T01:14:33Z</time>
      </trkpt>
      <trkpt lat="38.95866" lon="1.21876">
        <ele>12</ele>
        <time>2010-01-01T01:14:37Z</time>
      </trkpt>
      <trkpt lat="38.95865" lon="1.21864">
        <ele>11</ele>
        <time>2010-01-01T01:14:41Z</time>
      </trkpt>
      <trkpt lat="38.95867" lon="1.21851">
        <ele>11</ele>
        <time>2010-01-01T01:14:45Z</time>
      </trkpt>
      <trkpt lat="38.95867" lon="1.21837">
        <ele>11</ele>
        <time>2010-01-01T01:14:50Z</time>
      </trkpt>
      <trkpt lat="38.95867" lon="1.21824">
        <ele>11</ele>
        <time>2010-01-01T01:14:54Z</time>
      </trkpt>
      <trkpt lat="38.95866" lon="1.21812">
        <ele>11</ele>
        <time>2010-01-01T01:14:57Z</time>
      </trkpt>
      <trkpt lat="38.95861" lon="1.21798">
        <ele>12</ele>
        <time>2010-01-01T01:15:02Z</time>
      </trkpt>
      <trkpt lat="38.95854" lon="1.21788">
        <ele>12</ele>
        <time>2010-01-01T01:15:06Z</time>
      </trkpt>
      <trkpt lat="38.95843" lon="1.21784">
        <ele>12</ele>
        <time>2010-01-01T01:15:11Z</time>
      </trkpt>
      <trkpt lat="38.95831" lon="1.21782">
        <ele>12</ele>
        <time>2010-01-01T01:15:16Z</time>
      </trkpt>
      <trkpt lat="38.9582" lon="1.2178">
        <ele>13</ele>
        <time>2010-01-01T01:15:20Z</time>
      </trkpt>
      <trkpt lat="38.95811" lon="1.21779">
        <ele>13</ele>
        <time>2010-01-01T01:15:24Z</time>
      </trkpt>
      <trkpt lat="38.95802" lon="1.2178">
        <ele>14</ele>
        <time>2010-01-01T01:15:27Z</time>
      </trkpt>
      <trkpt lat="38.95792" lon="1.21782">
        <ele>14</ele>
        <time>2010-01-01T01:15:31Z</time>
      </trkpt>
      <trkpt lat="38.95782" lon="1.21784">
        <ele>14</ele>
        <time>2010-01-01T01:15:36Z</time>
      </trkpt>
      <trkpt lat="38.95772" lon="1.21785">
        <ele>15</ele>
        <time>2010-01-01T01:15:40Z</time>
      </trkpt>
      <trkpt lat="38.95761" lon="1.21788">
        <ele>15</ele>
        <time>2010-01-01T01:15:44Z</time>
      </trkpt>
      <trkpt lat="38.95751" lon="1.21787">
        <ele>16</ele>
        <time>2010-01-01T01:15:48Z</time>
      </trkpt>
      <trkpt lat="38.95743" lon="1.21782">
        <ele>17</ele>
        <time>2010-01-01T01:15:52Z</time>
      </trkpt>
      <trkpt lat="38.95733" lon="1.21778">
        <ele>18</ele>
        <time>2010-01-01T01:15:56Z</time>
      </trkpt>
      <trkpt lat="38.95725" lon="1.21771">
        <ele>18</ele>
        <time>2010-01-01T01:16:00Z</time>
      </trkpt>
      <trkpt lat="38.95717" lon="1.21763">
        <ele>19</ele>
        <time>2010-01-01T01:16:04Z</time>
      </trkpt>
      <trkpt lat="38.95708" lon="1.21765">
        <ele>19</ele>
        <time>2010-01-01T01:16:08Z</time>
      </trkpt>
      <trkpt lat="38.95696" lon="1.21769">
        <ele>19</ele>
        <time>2010-01-01T01:16:12Z</time>
      </trkpt>
      <trkpt lat="38.95685" lon="1.21772">
        <ele>18</ele>
        <time>2010-01-01T01:16:17Z</time>
      </trkpt>
      <trkpt lat="38.95675" lon="1.21772">
        <ele>18</ele>
        <time>2010-01-01T01:16:21Z</time>
      </trkpt>
      <trkpt lat="38.95666" lon="1.2177">
        <ele>18</ele>
        <time>2010-01-01T01:16:25Z</time>
      </trkpt>
      <trkpt lat="38.95656" lon="1.21769">
        <ele>17</ele>
        <time>2010-01-01T01:16:29Z</time>
      </trkpt>
      <trkpt lat="38.95647" lon="1.21767">
        <ele>16</ele>
        <time>2010-01-01T01:16:32Z</time>
      </trkpt>
      <trkpt lat="38.95637" lon="1.21767">
        <ele>16</ele>
        <time>2010-01-01T01:16:36Z</time>
      </trkpt>
      <trkpt lat="38.95628" lon="1.21765">
        <ele>15</ele>
        <time>2010-01-01T01:16:40Z</time>
      </trkpt>
      <trkpt lat="38.95619" lon="1.21765">
        <ele>14</ele>
        <time>2010-01-01T01:16:44Z</time>
      </trkpt>
      <trkpt lat="38.9561" lon="1.2177">
        <ele>14</ele>
        <time>2010-01-01T01:16:48Z</time>
      </trkpt>
      <trkpt lat="38.95602" lon="1.21776">
        <ele>14</ele>
        <time>2010-01-01T01:16:51Z</time>
      </trkpt>
      <trkpt lat="38.95592" lon="1.21783">
        <ele>13</ele>
        <time>2010-01-01T01:16:56Z</time>
      </trkpt>
      <trkpt lat="38.95583" lon="1.21791">
        <ele>12</ele>
        <time>2010-01-01T01:17:00Z</time>
      </trkpt>
      <trkpt lat="38.95577" lon="1.218">
        <ele>11</ele>
        <time>2010-01-01T01:17:04Z</time>
      </trkpt>
      <trkpt lat="38.95572" lon="1.21811">
        <ele>12</ele>
        <time>2010-01-01T01:17:08Z</time>
      </trkpt>
      <trkpt lat="38.95566" lon="1.21822">
        <ele>11</ele>
        <time>2010-01-01T01:17:12Z</time>
      </trkpt>
      <trkpt lat="38.9556" lon="1.21833">
        <ele>10</ele>
        <time>2010-01-01T01:17:16Z</time>
      </trkpt>
      <trkpt lat="38.95554" lon="1.21843">
        <ele>9</ele>
        <time>2010-01-01T01:17:20Z</time>
      </trkpt>
      <trkpt lat="38.9555" lon="1.21855">
        <ele>8</ele>
        <time>2010-01-01T01:17:24Z</time>
      </trkpt>
      <trkpt lat="38.95547" lon="1.21866">
        <ele>7</ele>
        <time>2010-01-01T01:17:28Z</time>
      </trkpt>
      <trkpt lat="38.95552" lon="1.21876">
        <ele>6</ele>
        <time>2010-01-01T01:17:32Z</time>
      </trkpt>
      <trkpt lat="38.95554" lon="1.21888">
        <ele>5</ele>
        <time>2010-01-01T01:17:35Z</time>
      </trkpt>
      <trkpt lat="38.95556" lon="1.21901">
        <ele>6</ele>
        <time>2010-01-01T01:17:39Z</time>
      </trkpt>
      <trkpt lat="38.95559" lon="1.21913">
        <ele>6</ele>
        <time>2010-01-01T01:17:43Z</time>
      </trkpt>
      <trkpt lat="38.95562" lon="1.21927">
        <ele>7</ele>
        <time>2010-01-01T01:17:48Z</time>
      </trkpt>
      <trkpt lat="38.95564" lon="1.2194">
        <ele>8</ele>
        <time>2010-01-01T01:17:52Z</time>
      </trkpt>
      <trkpt lat="38.95566" lon="1.21953">
        <ele>10</ele>
        <time>2010-01-01T01:17:56Z</time>
      </trkpt>
      <trkpt lat="38.95566" lon="1.21966">
        <ele>12</ele>
        <time>2010-01-01T01:18:00Z</time>
      </trkpt>
      <trkpt lat="38.95567" lon="1.21978">
        <ele>14</ele>
        <time>2010-01-01T01:18:04Z</time>
      </trkpt>
      <trkpt lat="38.95564" lon="1.21991">
        <ele>16</ele>
        <time>2010-01-01T01:18:08Z</time>
      </trkpt>
      <trkpt lat="38.9556" lon="1.22002">
        <ele>18</ele>
        <time>2010-01-01T01:18:12Z</time>
      </trkpt>
      <trkpt lat="38.95554" lon="1.22015">
        <ele>21</ele>
        <time>2010-01-01T01:18:17Z</time>
      </trkpt>
      <trkpt lat="38.95547" lon="1.22024">
        <ele>24</ele>
        <time>2010-01-01T01:18:21Z</time>
      </trkpt>
      <trkpt lat="38.95538" lon="1.2203">
        <ele>26</ele>
        <time>2010-01-01T01:18:25Z</time>
      </trkpt>
      <trkpt lat="38.9553" lon="1.22037">
        <ele>27</ele>
        <time>2010-01-01T01:18:29Z</time>
      </trkpt>
      <trkpt lat="38.9552" lon="1.22036">
        <ele>27</ele>
        <time>2010-01-01T01:18:33Z</time>
      </trkpt>
      <trkpt lat="38.95511" lon="1.22031">
        <ele>26</ele>
        <time>2010-01-01T01:18:36Z</time>
      </trkpt>
      <trkpt lat="38.95503" lon="1.22034">
        <ele>27</ele>
        <time>2010-01-01T01:18:40Z</time>
      </trkpt>
      <trkpt lat="38.95494" lon="1.22038">
        <ele>27</ele>
        <time>2010-01-01T01:18:44Z</time>
      </trkpt>
      <trkpt lat="38.95484" lon="1.22041">
        <ele>27</ele>
        <time>2010-01-01T01:18:48Z</time>
      </trkpt>
      <trkpt lat="38.95475" lon="1.22043">
        <ele>27</ele>
        <time>2010-01-01T01:18:52Z</time>
      </trkpt>
      <trkpt lat="38.95465" lon="1.22042">
        <ele>26</ele>
        <time>2010-01-01T01:18:56Z</time>
      </trkpt>
      <trkpt lat="38.95456" lon="1.22037">
        <ele>24</ele>
        <time>2010-01-01T01:18:59Z</time>
      </trkpt>
      <trkpt lat="38.95447" lon="1.22036">
        <ele>22</ele>
        <time>2010-01-01T01:19:03Z</time>
      </trkpt>
      <trkpt lat="38.95437" lon="1.22038">
        <ele>24</ele>
        <time>2010-01-01T01:19:07Z</time>
      </trkpt>
      <trkpt lat="38.95428" lon="1.2204">
        <ele>26</ele>
        <time>2010-01-01T01:19:11Z</time>
      </trkpt>
      <trkpt lat="38.95419" lon="1.22045">
        <ele>29</ele>
        <time>2010-01-01T01:19:15Z</time>
      </trkpt>
      <trkpt lat="38.9541" lon="1.22048">
        <ele>30</ele>
        <time>2010-01-01T01:19:18Z</time>
      </trkpt>
      <trkpt lat="38.954" lon="1.22049">
        <ele>31</ele>
        <time>2010-01-01T01:19:22Z</time>
      </trkpt>
      <trkpt lat="38.95391" lon="1.2205">
        <ele>31</ele>
        <time>2010-01-01T01:19:26Z</time>
      </trkpt>
      <trkpt lat="38.95381" lon="1.22052">
        <ele>32</ele>
        <time>2010-01-01T01:19:30Z</time>
      </trkpt>
      <trkpt lat="38.95372" lon="1.22056">
        <ele>33</ele>
        <time>2010-01-01T01:19:34Z</time>
      </trkpt>
      <trkpt lat="38.9536" lon="1.22058">
        <ele>33</ele>
        <time>2010-01-01T01:19:39Z</time>
      </trkpt>
      <trkpt lat="38.9535" lon="1.22059">
        <ele>32</ele>
        <time>2010-01-01T01:19:43Z</time>
      </trkpt>
      <trkpt lat="38.95339" lon="1.22061">
        <ele>32</ele>
        <time>2010-01-01T01:19:47Z</time>
      </trkpt>
      <trkpt lat="38.95329" lon="1.22064">
        <ele>31</ele>
        <time>2010-01-01T01:19:51Z</time>
      </trkpt>
      <trkpt lat="38.95321" lon="1.2207">
        <ele>32</ele>
        <time>2010-01-01T01:19:55Z</time>
      </trkpt>
      <trkpt lat="38.95312" lon="1.22079">
        <ele>32</ele>
        <time>2010-01-01T01:20:00Z</time>
      </trkpt>
      <trkpt lat="38.95307" lon="1.22092">
        <ele>32</ele>
        <time>2010-01-01T01:20:04Z</time>
      </trkpt>
      <trkpt lat="38.95301" lon="1.22101">
        <ele>32</ele>
        <time>2010-01-01T01:20:08Z</time>
      </trkpt>
      <trkpt lat="38.95296" lon="1.22113">
        <ele>32</ele>
        <time>2010-01-01T01:20:12Z</time>
      </trkpt>
      <trkpt lat="38.95294" lon="1.22126">
        <ele>32</ele>
        <time>2010-01-01T01:20:16Z</time>
      </trkpt>
      <trkpt lat="38.95295" lon="1.22138">
        <ele>32</ele>
        <time>2010-01-01T01:20:20Z</time>
      </trkpt>
      <trkpt lat="38.9529" lon="1.22148">
        <ele>32</ele>
        <time>2010-01-01T01:20:24Z</time>
      </trkpt>
      <trkpt lat="38.95283" lon="1.22156">
        <ele>32</ele>
        <time>2010-01-01T01:20:28Z</time>
      </trkpt>
      <trkpt lat="38.95276" lon="1.22167">
        <ele>31</ele>
        <time>2010-01-01T01:20:32Z</time>
      </trkpt>
      <trkpt lat="38.95271" lon="1.22179">
        <ele>32</ele>
        <time>2010-01-01T01:20:36Z</time>
      </trkpt>
      <trkpt lat="38.95266" lon="1.2219">
        <ele>32</ele>
        <time>2010-01-01T01:20:40Z</time>
      </trkpt>
      <trkpt lat="38.95263" lon="1.22204">
        <ele>33</ele>
        <time>2010-01-01T01:20:45Z</time>
      </trkpt>
      <trkpt lat="38.95262" lon="1.22215">
        <ele>33</ele>
        <time>2010-01-01T01:20:48Z</time>
      </trkpt>
      <trkpt lat="38.95261" lon="1.22229">
        <ele>34</ele>
        <time>2010-01-01T01:20:52Z</time>
      </trkpt>
      <trkpt lat="38.95259" lon="1.22241">
        <ele>34</ele>
        <time>2010-01-01T01:20:56Z</time>
      </trkpt>
      <trkpt lat="38.95264" lon="1.22251">
        <ele>34</ele>
        <time>2010-01-01T01:21:00Z</time>
      </trkpt>
      <trkpt lat="38.95267" lon="1.22263">
        <ele>34</ele>
        <time>2010-01-01T01:21:04Z</time>
      </trkpt>
      <trkpt lat="38.95272" lon="1.22274">
        <ele>34</ele>
        <time>2010-01-01T01:21:08Z</time>
      </trkpt>
      <trkpt lat="38.95272" lon="1.22287">
        <ele>34</ele>
        <time>2010-01-01T01:21:12Z</time>
      </trkpt>
      <trkpt lat="38.95265" lon="1.22295">
        <ele>34</ele>
        <time>2010-01-01T01:21:15Z</time>
      </trkpt>
      <trkpt lat="38.95261" lon="1.22305">
        <ele>34</ele>
        <time>2010-01-01T01:21:19Z</time>
      </trkpt>
      <trkpt lat="38.95256" lon="1.22315">
        <ele>33</ele>
        <time>2010-01-01T01:21:23Z</time>
      </trkpt>
      <trkpt lat="38.95251" lon="1.22325">
        <ele>33</ele>
        <time>2010-01-01T01:21:26Z</time>
      </trkpt>
      <trkpt lat="38.95246" lon="1.22335">
        <ele>32</ele>
        <time>2010-01-01T01:21:30Z</time>
      </trkpt>
      <trkpt lat="38.95242" lon="1.22349">
        <ele>32</ele>
        <time>2010-01-01T01:21:35Z</time>
      </trkpt>
      <trkpt lat="38.95243" lon="1.22362">
        <ele>32</ele>
        <time>2010-01-01T01:21:39Z</time>
      </trkpt>
      <trkpt lat="38.95245" lon="1.22375">
        <ele>32</ele>
        <time>2010-01-01T01:21:43Z</time>
      </trkpt>
      <trkpt lat="38.95247" lon="1.22389">
        <ele>32</ele>
        <time>2010-01-01T01:21:47Z</time>
      </trkpt>
      <trkpt lat="38.95249" lon="1.22401">
        <ele>33</ele>
        <time>2010-01-01T01:21:51Z</time>
      </trkpt>
      <trkpt lat="38.95251" lon="1.22413">
        <ele>34</ele>
        <time>2010-01-01T01:21:55Z</time>
      </trkpt>
      <trkpt lat="38.95253" lon="1.22426">
        <ele>36</ele>
        <time>2010-01-01T01:21:59Z</time>
      </trkpt>
      <trkpt lat="38.95253" lon="1.22438">
        <ele>37</ele>
        <time>2010-01-01T01:22:03Z</time>
      </trkpt>
      <trkpt lat="38.95245" lon="1.22447">
        <ele>37</ele>
        <time>2010-01-01T01:22:08Z</time>
      </trkpt>
      <trkpt lat="38.95236" lon="1.22453">
        <ele>37</ele>
        <time>2010-01-01T01:22:12Z</time>
      </trkpt>
      <trkpt lat="38.95226" lon="1.2246">
        <ele>36</ele>
        <time>2010-01-01T01:22:16Z</time>
      </trkpt>
      <trkpt lat="38.95216" lon="1.22467">
        <ele>36</ele>
        <time>2010-01-01T01:22:20Z</time>
      </trkpt>
      <trkpt lat="38.95207" lon="1.22474">
        <ele>36</ele>
        <time>2010-01-01T01:22:25Z</time>
      </trkpt>
      <trkpt lat="38.952" lon="1.22482">
        <ele>36</ele>
        <time>2010-01-01T01:22:28Z</time>
      </trkpt>
      <trkpt lat="38.95191" lon="1.22489">
        <ele>35</ele>
        <time>2010-01-01T01:22:33Z</time>
      </trkpt>
      <trkpt lat="38.95184" lon="1.22501">
        <ele>35</ele>
        <time>2010-01-01T01:22:37Z</time>
      </trkpt>
      <trkpt lat="38.95179" lon="1.22514">
        <ele>36</ele>
        <time>2010-01-01T01:22:42Z</time>
      </trkpt>
      <trkpt lat="38.95175" lon="1.22525">
        <ele>36</ele>
        <time>2010-01-01T01:22:46Z</time>
      </trkpt>
      <trkpt lat="38.95169" lon="1.22537">
        <ele>36</ele>
        <time>2010-01-01T01:22:50Z</time>
      </trkpt>
      <trkpt lat="38.95164" lon="1.22547">
        <ele>36</ele>
        <time>2010-01-01T01:22:54Z</time>
      </trkpt>
      <trkpt lat="38.95159" lon="1.2256">
        <ele>36</ele>
        <time>2010-01-01T01:22:58Z</time>
      </trkpt>
      <trkpt lat="38.95156" lon="1.22574">
        <ele>35</ele>
        <time>2010-01-01T01:23:03Z</time>
      </trkpt>
      <trkpt lat="38.95153" lon="1.22586">
        <ele>35</ele>
        <time>2010-01-01T01:23:07Z</time>
      </trkpt>
      <trkpt lat="38.95152" lon="1.22601">
        <ele>35</ele>
        <time>2010-01-01T01:23:11Z</time>
      </trkpt>
      <trkpt lat="38.95151" lon="1.22614">
        <ele>35</ele>
        <time>2010-01-01T01:23:15Z</time>
      </trkpt>
      <trkpt lat="38.95147" lon="1.22629">
        <ele>33</ele>
        <time>2010-01-01T01:23:20Z</time>
      </trkpt>
      <trkpt lat="38.95145" lon="1.22642">
        <ele>33</ele>
        <time>2010-01-01T01:23:24Z</time>
      </trkpt>
      <trkpt lat="38.95143" lon="1.22656">
        <ele>31</ele>
        <time>2010-01-01T01:23:29Z</time>
      </trkpt>
      <trkpt lat="38.95143" lon="1.22669">
        <ele>30</ele>
        <time>2010-01-01T01:23:33Z</time>
      </trkpt>
      <trkpt lat="38.95142" lon="1.22682">
        <ele>30</ele>
        <time>2010-01-01T01:23:37Z</time>
      </trkpt>
      <trkpt lat="38.95135" lon="1.2269">
        <ele>29</ele>
        <time>2010-01-01T01:23:41Z</time>
      </trkpt>
      <trkpt lat="38.95125" lon="1.22696">
        <ele>26</ele>
        <time>2010-01-01T01:23:45Z</time>
      </trkpt>
      <trkpt lat="38.95116" lon="1.22699">
        <ele>23</ele>
        <time>2010-01-01T01:23:49Z</time>
      </trkpt>
      <trkpt lat="38.95107" lon="1.22706">
        <ele>20</ele>
        <time>2010-01-01T01:23:53Z</time>
      </trkpt>
      <trkpt lat="38.951" lon="1.22715">
        <ele>17</ele>
        <time>2010-01-01T01:23:57Z</time>
      </trkpt>
      <trkpt lat="38.95091" lon="1.22714">
        <ele>15</ele>
        <time>2010-01-01T01:24:01Z</time>
      </trkpt>
      <trkpt lat="38.95082" lon="1.22717">
        <ele>11</ele>
        <time>2010-01-01T01:24:04Z</time>
      </trkpt>
      <trkpt lat="38.95073" lon="1.22723">
        <ele>9</ele>
        <time>2010-01-01T01:24:08Z</time>
      </trkpt>
      <trkpt lat="38.95064" lon="1.22729">
        <ele>7</ele>
        <time>2010-01-01T01:24:13Z</time>
      </trkpt>
      <trkpt lat="38.95054" lon="1.22731">
        <ele>5</ele>
        <time>2010-01-01T01:24:16Z</time>
      </trkpt>
      <trkpt lat="38.95045" lon="1.22735">
        <ele>5</ele>
        <time>2010-01-01T01:24:20Z</time>
      </trkpt>
      <trkpt lat="38.95037" lon="1.22743">
        <ele>4</ele>
        <time>2010-01-01T01:24:24Z</time>
      </trkpt>
      <trkpt lat="38.95036" lon="1.22755">
        <ele>3</ele>
        <time>2010-01-01T01:24:28Z</time>
      </trkpt>
      <trkpt lat="38.95034" lon="1.22769">
        <ele>3</ele>
        <time>2010-01-01T01:24:32Z</time>
      </trkpt>
      <trkpt lat="38.95028" lon="1.22778">
        <ele>3</ele>
        <time>2010-01-01T01:24:36Z</time>
      </trkpt>
      <trkpt lat="38.95019" lon="1.22787">
        <ele>3</ele>
        <time>2010-01-01T01:24:41Z</time>
      </trkpt>
      <trkpt lat="38.95009" lon="1.22788">
        <ele>3</ele>
        <time>2010-01-01T01:24:44Z</time>
      </trkpt>
      <trkpt lat="38.95" lon="1.22791">
        <ele>4</ele>
        <time>2010-01-01T01:24:48Z</time>
      </trkpt>
      <trkpt lat="38.94995" lon="1.228">
        <ele>7</ele>
        <time>2010-01-01T01:24:52Z</time>
      </trkpt>
      <trkpt lat="38.94988" lon="1.22809">
        <ele>11</ele>
        <time>2010-01-01T01:24:56Z</time>
      </trkpt>
      <trkpt lat="38.94979" lon="1.22809">
        <ele>13</ele>
        <time>2010-01-01T01:24:59Z</time>
      </trkpt>
      <trkpt lat="38.9497" lon="1.22808">
        <ele>16</ele>
        <time>2010-01-01T01:25:03Z</time>
      </trkpt>
      <trkpt lat="38.94962" lon="1.22801">
        <ele>16</ele>
        <time>2010-01-01T01:25:07Z</time>
      </trkpt>
      <trkpt lat="38.94952" lon="1.22799">
        <ele>18</ele>
        <time>2010-01-01T01:25:11Z</time>
      </trkpt>
      <trkpt lat="38.94943" lon="1.22802">
        <ele>21</ele>
        <time>2010-01-01T01:25:15Z</time>
      </trkpt>
      <trkpt lat="38.94936" lon="1.2281">
        <ele>22</ele>
        <time>2010-01-01T01:25:18Z</time>
      </trkpt>
      <trkpt lat="38.94927" lon="1.22805">
        <ele>21</ele>
        <time>2010-01-01T01:25:22Z</time>
      </trkpt>
      <trkpt lat="38.94916" lon="1.22801">
        <ele>21</ele>
        <time>2010-01-01T01:25:27Z</time>
      </trkpt>
      <trkpt lat="38.94906" lon="1.22799">
        <ele>20</ele>
        <time>2010-01-01T01:25:31Z</time>
      </trkpt>
      <trkpt lat="38.94898" lon="1.22804">
        <ele>20</ele>
        <time>2010-01-01T01:25:35Z</time>
      </trkpt>
      <trkpt lat="38.94889" lon="1.22814">
        <ele>20</ele>
        <time>2010-01-01T01:25:39Z</time>
      </trkpt>
      <trkpt lat="38.9488" lon="1.2282">
        <ele>20</ele>
        <time>2010-01-01T01:25:43Z</time>
      </trkpt>
      <trkpt lat="38.9487" lon="1.22825">
        <ele>19</ele>
        <time>2010-01-01T01:25:47Z</time>
      </trkpt>
      <trkpt lat="38.9486" lon="1.22828">
        <ele>18</ele>
        <time>2010-01-01T01:25:52Z</time>
      </trkpt>
      <trkpt lat="38.9485" lon="1.22834">
        <ele>17</ele>
        <time>2010-01-01T01:25:56Z</time>
      </trkpt>
      <trkpt lat="38.94842" lon="1.22839">
        <ele>17</ele>
        <time>2010-01-01T01:26:00Z</time>
      </trkpt>
      <trkpt lat="38.94832" lon="1.22844">
        <ele>17</ele>
        <time>2010-01-01T01:26:04Z</time>
      </trkpt>
      <trkpt lat="38.94822" lon="1.22849">
        <ele>18</ele>
        <time>2010-01-01T01:26:08Z</time>
      </trkpt>
      <trkpt lat="38.94813" lon="1.22852">
        <ele>19</ele>
        <time>2010-01-01T01:26:12Z</time>
      </trkpt>
      <trkpt lat="38.94804" lon="1.22856">
        <ele>20</ele>
        <time>2010-01-01T01:26:16Z</time>
      </trkpt>
      <trkpt lat="38.94796" lon="1.22862">
        <ele>20</ele>
        <time>2010-01-01T01:26:19Z</time>
      </trkpt>
      <trkpt lat="38.94787" lon="1.22868">
        <ele>21</ele>
        <time>2010-01-01T01:26:23Z</time>
      </trkpt>
      <trkpt lat="38.94779" lon="1.22873">
        <ele>21</ele>
        <time>2010-01-01T01:26:27Z</time>
      </trkpt>
      <trkpt lat="38.9477" lon="1.22877">
        <ele>21</ele>
        <time>2010-01-01T01:26:31Z</time>
      </trkpt>
      <trkpt lat="38.94761" lon="1.22885">
        <ele>21</ele>
        <time>2010-01-01T01:26:35Z</time>
      </trkpt>
      <trkpt lat="38.94751" lon="1.22886">
        <ele>21</ele>
        <time>2010-01-01T01:26:39Z</time>
      </trkpt>
      <trkpt lat="38.94739" lon="1.22888">
        <ele>22</ele>
        <time>2010-01-01T01:26:44Z</time>
      </trkpt>
      <trkpt lat="38.94729" lon="1.2289">
        <ele>22</ele>
        <time>2010-01-01T01:26:48Z</time>
      </trkpt>
      <trkpt lat="38.9472" lon="1.22889">
        <ele>22</ele>
        <time>2010-01-01T01:26:52Z</time>
      </trkpt>
      <trkpt lat="38.94712" lon="1.22883">
        <ele>22</ele>
        <time>2010-01-01T01:26:55Z</time>
      </trkpt>
      <trkpt lat="38.94702" lon="1.22879">
        <ele>21</ele>
        <time>2010-01-01T01:26:59Z</time>
      </trkpt>
      <trkpt lat="38.94694" lon="1.22871">
        <ele>21</ele>
        <time>2010-01-01T01:27:04Z</time>
      </trkpt>
      <trkpt lat="38.94686" lon="1.22861">
        <ele>21</ele>
        <time>2010-01-01T01:27:08Z</time>
      </trkpt>
      <trkpt lat="38.94681" lon="1.2285">
        <ele>19</ele>
        <time>2010-01-01T01:27:12Z</time>
      </trkpt>
      <trkpt lat="38.94676" lon="1.22839">
        <ele>19</ele>
        <time>2010-01-01T01:27:16Z</time>
      </trkpt>
      <trkpt lat="38.94669" lon="1.22828">
        <ele>18</ele>
        <time>2010-01-01T01:27:20Z</time>
      </trkpt>
      <trkpt lat="38.94663" lon="1.22816">
        <ele>16</ele>
        <time>2010-01-01T01:27:25Z</time>
      </trkpt>
      <trkpt lat="38.94657" lon="1.22805">
        <ele>14</ele>
        <time>2010-01-01T01:27:29Z</time>
      </trkpt>
      <trkpt lat="38.94648" lon="1.22797">
        <ele>13</ele>
        <time>2010-01-01T01:27:33Z</time>
      </trkpt>
      <trkpt lat="38.94638" lon="1.22795">
        <ele>13</ele>
        <time>2010-01-01T01:27:37Z</time>
      </trkpt>
      <trkpt lat="38.94628" lon="1.22795">
        <ele>12</ele>
        <time>2010-01-01T01:27:42Z</time>
      </trkpt>
      <trkpt lat="38.94618" lon="1.22795">
        <ele>12</ele>
        <time>2010-01-01T01:27:46Z</time>
      </trkpt>
      <trkpt lat="38.94608" lon="1.228">
        <ele>11</ele>
        <time>2010-01-01T01:27:50Z</time>
      </trkpt>
      <trkpt lat="38.946" lon="1.22804">
        <ele>10</ele>
        <time>2010-01-01T01:27:53Z</time>
      </trkpt>
      <trkpt lat="38.9459" lon="1.22801">
        <ele>8</ele>
        <time>2010-01-01T01:27:58Z</time>
      </trkpt>
      <trkpt lat="38.94583" lon="1.2281">
        <ele>8</ele>
        <time>2010-01-01T01:28:01Z</time>
      </trkpt>
      <trkpt lat="38.9458" lon="1.22822">
        <ele>8</ele>
        <time>2010-01-01T01:28:05Z</time>
      </trkpt>
      <trkpt lat="38.9458" lon="1.22836">
        <ele>9</ele>
        <time>2010-01-01T01:28:10Z</time>
      </trkpt>
      <trkpt lat="38.94582" lon="1.22849">
        <ele>10</ele>
        <time>2010-01-01T01:28:14Z</time>
      </trkpt>
      <trkpt lat="38.94586" lon="1.22862">
        <ele>12</ele>
        <time>2010-01-01T01:28:18Z</time>
      </trkpt>
      <trkpt lat="38.94586" lon="1.22875">
        <ele>12</ele>
        <time>2010-01-01T01:28:22Z</time>
      </trkpt>
      <trkpt lat="38.94578" lon="1.22881">
        <ele>10</ele>
        <time>2010-01-01T01:28:26Z</time>
      </trkpt>
      <trkpt lat="38.9457" lon="1.22887">
        <ele>9</ele>
        <time>2010-01-01T01:28:30Z</time>
      </trkpt>
      <trkpt lat="38.94561" lon="1.22893">
        <ele>7</ele>
        <time>2010-01-01T01:28:34Z</time>
      </trkpt>
      <trkpt lat="38.94563" lon="1.22905">
        <ele>7</ele>
        <time>2010-01-01T01:28:38Z</time>
      </trkpt>
      <trkpt lat="38.94569" lon="1.22914">
        <ele>8</ele>
        <time>2010-01-01T01:28:41Z</time>
      </trkpt>
      <trkpt lat="38.94576" lon="1.22922">
        <ele>9</ele>
        <time>2010-01-01T01:28:45Z</time>
      </trkpt>
      <trkpt lat="38.94584" lon="1.2293">
        <ele>10</ele>
        <time>2010-01-01T01:28:49Z</time>
      </trkpt>
      <trkpt lat="38.94591" lon="1.22939">
        <ele>10</ele>
        <time>2010-01-01T01:28:53Z</time>
      </trkpt>
      <trkpt lat="38.94596" lon="1.22949">
        <ele>11</ele>
        <time>2010-01-01T01:28:57Z</time>
      </trkpt>
      <trkpt lat="38.94602" lon="1.22958">
        <ele>11</ele>
        <time>2010-01-01T01:29:00Z</time>
      </trkpt>
      <trkpt lat="38.94599" lon="1.22972">
        <ele>10</ele>
        <time>2010-01-01T01:29:05Z</time>
      </trkpt>
      <trkpt lat="38.94603" lon="1.22982">
        <ele>12</ele>
        <time>2010-01-01T01:29:09Z</time>
      </trkpt>
      <trkpt lat="38.9461" lon="1.22994">
        <ele>14</ele>
        <time>2010-01-01T01:29:13Z</time>
      </trkpt>
      <trkpt lat="38.94603" lon="1.23004">
        <ele>13</ele>
        <time>2010-01-01T01:29:17Z</time>
      </trkpt>
      <trkpt lat="38.94594" lon="1.23009">
        <ele>12</ele>
        <time>2010-01-01T01:29:21Z</time>
      </trkpt>
      <trkpt lat="38.94584" lon="1.23014">
        <ele>11</ele>
        <time>2010-01-01T01:29:25Z</time>
      </trkpt>
      <trkpt lat="38.94576" lon="1.23018">
        <ele>10</ele>
        <time>2010-01-01T01:29:29Z</time>
      </trkpt>
      <trkpt lat="38.94579" lon="1.23031">
        <ele>12</ele>
        <time>2010-01-01T01:29:33Z</time>
      </trkpt>
      <trkpt lat="38.94586" lon="1.23042">
        <ele>14</ele>
        <time>2010-01-01T01:29:37Z</time>
      </trkpt>
      <trkpt lat="38.94592" lon="1.23051">
        <ele>15</ele>
        <time>2010-01-01T01:29:41Z</time>
      </trkpt>
      <trkpt lat="38.94593" lon="1.23063">
        <ele>16</ele>
        <time>2010-01-01T01:29:45Z</time>
      </trkpt>
      <trkpt lat="38.94591" lon="1.23077">
        <ele>16</ele>
        <time>2010-01-01T01:29:50Z</time>
      </trkpt>
      <trkpt lat="38.94586" lon="1.23091">
        <ele>16</ele>
        <time>2010-01-01T01:29:54Z</time>
      </trkpt>
      <trkpt lat="38.94579" lon="1.231">
        <ele>15</ele>
        <time>2010-01-01T01:29:58Z</time>
      </trkpt>
      <trkpt lat="38.94572" lon="1.23108">
        <ele>13</ele>
        <time>2010-01-01T01:30:02Z</time>
      </trkpt>
      <trkpt lat="38.94565" lon="1.23116">
        <ele>12</ele>
        <time>2010-01-01T01:30:06Z</time>
      </trkpt>
      <trkpt lat="38.9456" lon="1.23128">
        <ele>12</ele>
        <time>2010-01-01T01:30:10Z</time>
      </trkpt>
      <trkpt lat="38.94558" lon="1.2314">
        <ele>13</ele>
        <time>2010-01-01T01:30:14Z</time>
      </trkpt>
      <trkpt lat="38.94554" lon="1.23152">
        <ele>12</ele>
        <time>2010-01-01T01:30:18Z</time>
      </trkpt>
      <trkpt lat="38.9455" lon="1.23163">
        <ele>11</ele>
        <time>2010-01-01T01:30:22Z</time>
      </trkpt>
      <trkpt lat="38.94543" lon="1.23176">
        <ele>10</ele>
        <time>2010-01-01T01:30:26Z</time>
      </trkpt>
      <trkpt lat="38.94539" lon="1.23186">
        <ele>9</ele>
        <time>2010-01-01T01:30:30Z</time>
      </trkpt>
      <trkpt lat="38.94537" lon="1.23198">
        <ele>9</ele>
        <time>2010-01-01T01:30:34Z</time>
      </trkpt>
      <trkpt lat="38.94533" lon="1.23209">
        <ele>9</ele>
        <time>2010-01-01T01:30:38Z</time>
      </trkpt>
      <trkpt lat="38.94528" lon="1.23219">
        <ele>8</ele>
        <time>2010-01-01T01:30:41Z</time>
      </trkpt>
      <trkpt lat="38.94523" lon="1.23229">
        <ele>8</ele>
        <time>2010-01-01T01:30:45Z</time>
      </trkpt>
      <trkpt lat="38.94529" lon="1.23245">
        <ele>9</ele>
        <time>2010-01-01T01:30:50Z</time>
      </trkpt>
      <trkpt lat="38.94526" lon="1.23256">
        <ele>9</ele>
        <time>2010-01-01T01:30:54Z</time>
      </trkpt>
      <trkpt lat="38.94519" lon="1.23265">
        <ele>8</ele>
        <time>2010-01-01T01:30:58Z</time>
      </trkpt>
      <trkpt lat="38.94514" lon="1.23278">
        <ele>8</ele>
        <time>2010-01-01T01:31:03Z</time>
      </trkpt>
      <trkpt lat="38.94508" lon="1.23286">
        <ele>8</ele>
        <time>2010-01-01T01:31:06Z</time>
      </trkpt>
      <trkpt lat="38.94499" lon="1.2329">
        <ele>7</ele>
        <time>2010-01-01T01:31:10Z</time>
      </trkpt>
      <trkpt lat="38.9449" lon="1.23301">
        <ele>8</ele>
        <time>2010-01-01T01:31:15Z</time>
      </trkpt>
      <trkpt lat="38.94481" lon="1.23307">
        <ele>8</ele>
        <time>2010-01-01T01:31:19Z</time>
      </trkpt>
      <trkpt lat="38.94471" lon="1.23313">
        <ele>7</ele>
        <time>2010-01-01T01:31:23Z</time>
      </trkpt>
      <trkpt lat="38.94473" lon="1.23325">
        <ele>7</ele>
        <time>2010-01-01T01:31:27Z</time>
      </trkpt>
      <trkpt lat="38.94479" lon="1.23335">
        <ele>9</ele>
        <time>2010-01-01T01:31:31Z</time>
      </trkpt>
      <trkpt lat="38.9448" lon="1.23348">
        <ele>10</ele>
        <time>2010-01-01T01:31:35Z</time>
      </trkpt>
      <trkpt lat="38.9448" lon="1.2336">
        <ele>11</ele>
        <time>2010-01-01T01:31:39Z</time>
      </trkpt>
      <trkpt lat="38.94479" lon="1.23373">
        <ele>13</ele>
        <time>2010-01-01T01:31:43Z</time>
      </trkpt>
      <trkpt lat="38.94477" lon="1.23387">
        <ele>14</ele>
        <time>2010-01-01T01:31:47Z</time>
      </trkpt>
      <trkpt lat="38.94475" lon="1.234">
        <ele>15</ele>
        <time>2010-01-01T01:31:51Z</time>
      </trkpt>
      <trkpt lat="38.94474" lon="1.23413">
        <ele>16</ele>
        <time>2010-01-01T01:31:55Z</time>
      </trkpt>
      <trkpt lat="38.94473" lon="1.23426">
        <ele>16</ele>
        <time>2010-01-01T01:32:00Z</time>
      </trkpt>
      <trkpt lat="38.94469" lon="1.23438">
        <ele>16</ele>
        <time>2010-01-01T01:32:04Z</time>
      </trkpt>
      <trkpt lat="38.94465" lon="1.2345">
        <ele>16</ele>
        <time>2010-01-01T01:32:08Z</time>
      </trkpt>
      <trkpt lat="38.94458" lon="1.23458">
        <ele>14</ele>
        <time>2010-01-01T01:32:11Z</time>
      </trkpt>
      <trkpt lat="38.94448" lon="1.2346">
        <ele>11</ele>
        <time>2010-01-01T01:32:16Z</time>
      </trkpt>
      <trkpt lat="38.94439" lon="1.23465">
        <ele>11</ele>
        <time>2010-01-01T01:32:19Z</time>
      </trkpt>
      <trkpt lat="38.94428" lon="1.23469">
        <ele>12</ele>
        <time>2010-01-01T01:32:24Z</time>
      </trkpt>
      <trkpt lat="38.94419" lon="1.2347">
        <ele>12</ele>
        <time>2010-01-01T01:32:28Z</time>
      </trkpt>
      <trkpt lat="38.94409" lon="1.23474">
        <ele>14</ele>
        <time>2010-01-01T01:32:32Z</time>
      </trkpt>
      <trkpt lat="38.94401" lon="1.23483">
        <ele>16</ele>
        <time>2010-01-01T01:32:36Z</time>
      </trkpt>
      <trkpt lat="38.94395" lon="1.23493">
        <ele>17</ele>
        <time>2010-01-01T01:32:40Z</time>
      </trkpt>
      <trkpt lat="38.94391" lon="1.23503">
        <ele>18</ele>
        <time>2010-01-01T01:32:43Z</time>
      </trkpt>
      <trkpt lat="38.94389" lon="1.23516">
        <ele>18</ele>
        <time>2010-01-01T01:32:47Z</time>
      </trkpt>
      <trkpt lat="38.94386" lon="1.23529">
        <ele>18</ele>
        <time>2010-01-01T01:32:52Z</time>
      </trkpt>
      <trkpt lat="38.94385" lon="1.23541">
        <ele>18</ele>
        <time>2010-01-01T01:32:55Z</time>
      </trkpt>
      <trkpt lat="38.94382" lon="1.23553">
        <ele>19</ele>
        <time>2010-01-01T01:32:59Z</time>
      </trkpt>
      <trkpt lat="38.94376" lon="1.23562">
        <ele>19</ele>
        <time>2010-01-01T01:33:03Z</time>
      </trkpt>
      <trkpt lat="38.94371" lon="1.23574">
        <ele>20</ele>
        <time>2010-01-01T01:33:07Z</time>
      </trkpt>
      <trkpt lat="38.94367" lon="1.23585">
        <ele>21</ele>
        <time>2010-01-01T01:33:11Z</time>
      </trkpt>
      <trkpt lat="38.94358" lon="1.2359">
        <ele>22</ele>
        <time>2010-01-01T01:33:15Z</time>
      </trkpt>
      <trkpt lat="38.94348" lon="1.23591">
        <ele>22</ele>
        <time>2010-01-01T01:33:19Z</time>
      </trkpt>
      <trkpt lat="38.94337" lon="1.23594">
        <ele>23</ele>
        <time>2010-01-01T01:33:23Z</time>
      </trkpt>
      <trkpt lat="38.94327" lon="1.23596">
        <ele>24</ele>
        <time>2010-01-01T01:33:28Z</time>
      </trkpt>
      <trkpt lat="38.94319" lon="1.236">
        <ele>24</ele>
        <time>2010-01-01T01:33:31Z</time>
      </trkpt>
      <trkpt lat="38.94309" lon="1.23604">
        <ele>25</ele>
        <time>2010-01-01T01:33:35Z</time>
      </trkpt>
      <trkpt lat="38.94298" lon="1.23606">
        <ele>25</ele>
        <time>2010-01-01T01:33:40Z</time>
      </trkpt>
      <trkpt lat="38.94292" lon="1.23596">
        <ele>25</ele>
        <time>2010-01-01T01:33:44Z</time>
      </trkpt>
      <trkpt lat="38.94285" lon="1.23585">
        <ele>26</ele>
        <time>2010-01-01T01:33:48Z</time>
      </trkpt>
      <trkpt lat="38.94277" lon="1.23576">
        <ele>26</ele>
        <time>2010-01-01T01:33:52Z</time>
      </trkpt>
      <trkpt lat="38.94273" lon="1.23565">
        <ele>26</ele>
        <time>2010-01-01T01:33:56Z</time>
      </trkpt>
      <trkpt lat="38.94267" lon="1.23554">
        <ele>26</ele>
        <time>2010-01-01T01:34:00Z</time>
      </trkpt>
      <trkpt lat="38.94257" lon="1.23549">
        <ele>26</ele>
        <time>2010-01-01T01:34:04Z</time>
      </trkpt>
      <trkpt lat="38.94246" lon="1.23552">
        <ele>26</ele>
        <time>2010-01-01T01:34:09Z</time>
      </trkpt>
      <trkpt lat="38.94236" lon="1.23554">
        <ele>26</ele>
        <time>2010-01-01T01:34:13Z</time>
      </trkpt>
      <trkpt lat="38.94227" lon="1.23553">
        <ele>26</ele>
        <time>2010-01-01T01:34:17Z</time>
      </trkpt>
      <trkpt lat="38.94218" lon="1.2355">
        <ele>27</ele>
        <time>2010-01-01T01:34:20Z</time>
      </trkpt>
      <trkpt lat="38.94208" lon="1.23548">
        <ele>26</ele>
        <time>2010-01-01T01:34:24Z</time>
      </trkpt>
      <trkpt lat="38.94197" lon="1.23545">
        <ele>26</ele>
        <time>2010-01-01T01:34:29Z</time>
      </trkpt>
      <trkpt lat="38.94187" lon="1.23542">
        <ele>24</ele>
        <time>2010-01-01T01:34:33Z</time>
      </trkpt>
      <trkpt lat="38.94178" lon="1.23539">
        <ele>21</ele>
        <time>2010-01-01T01:34:36Z</time>
      </trkpt>
      <trkpt lat="38.94169" lon="1.23535">
        <ele>19</ele>
        <time>2010-01-01T01:34:41Z</time>
      </trkpt>
      <trkpt lat="38.9416" lon="1.23531">
        <ele>16</ele>
        <time>2010-01-01T01:34:44Z</time>
      </trkpt>
      <trkpt lat="38.9415" lon="1.23531">
        <ele>14</ele>
        <time>2010-01-01T01:34:48Z</time>
      </trkpt>
      <trkpt lat="38.94141" lon="1.23535">
        <ele>12</ele>
        <time>2010-01-01T01:34:52Z</time>
      </trkpt>
      <trkpt lat="38.94135" lon="1.23543">
        <ele>13</ele>
        <time>2010-01-01T01:34:56Z</time>
      </trkpt>
      <trkpt lat="38.94124" lon="1.2355">
        <ele>12</ele>
        <time>2010-01-01T01:35:00Z</time>
      </trkpt>
      <trkpt lat="38.94115" lon="1.23553">
        <ele>11</ele>
        <time>2010-01-01T01:35:04Z</time>
      </trkpt>
      <trkpt lat="38.94105" lon="1.23548">
        <ele>9</ele>
        <time>2010-01-01T01:35:09Z</time>
      </trkpt>
      <trkpt lat="38.94096" lon="1.23547">
        <ele>7</ele>
        <time>2010-01-01T01:35:12Z</time>
      </trkpt>
      <trkpt lat="38.94087" lon="1.23551">
        <ele>6</ele>
        <time>2010-01-01T01:35:16Z</time>
      </trkpt>
      <trkpt lat="38.94077" lon="1.23554">
        <ele>5</ele>
        <time>2010-01-01T01:35:20Z</time>
      </trkpt>
      <trkpt lat="38.94068" lon="1.23557">
        <ele>6</ele>
        <time>2010-01-01T01:35:24Z</time>
      </trkpt>
      <trkpt lat="38.94059" lon="1.23564">
        <ele>6</ele>
        <time>2010-01-01T01:35:28Z</time>
      </trkpt>
      <trkpt lat="38.9405" lon="1.23569">
        <ele>7</ele>
        <time>2010-01-01T01:35:32Z</time>
      </trkpt>
      <trkpt lat="38.94041" lon="1.23573">
        <ele>6</ele>
        <time>2010-01-01T01:35:36Z</time>
      </trkpt>
      <trkpt lat="38.94032" lon="1.23575">
        <ele>6</ele>
        <time>2010-01-01T01:35:40Z</time>
      </trkpt>
      <trkpt lat="38.94022" lon="1.23578">
        <ele>4</ele>
        <time>2010-01-01T01:35:44Z</time>
      </trkpt>
      <trkpt lat="38.94013" lon="1.23581">
        <ele>3</ele>
        <time>2010-01-01T01:35:47Z</time>
      </trkpt>
      <trkpt lat="38.94003" lon="1.23584">
        <ele>1</ele>
        <time>2010-01-01T01:35:51Z</time>
      </trkpt>
      <trkpt lat="38.93993" lon="1.23587">
        <ele>1</ele>
        <time>2010-01-01T01:35:56Z</time>
      </trkpt>
      <trkpt lat="38.93985" lon="1.23592">
        <ele>2</ele>
        <time>2010-01-01T01:35:59Z</time>
      </trkpt>
      <trkpt lat="38.93978" lon="1.23601">
        <ele>3</ele>
        <time>2010-01-01T01:36:03Z</time>
      </trkpt>
      <trkpt lat="38.93971" lon="1.2361">
        <ele>3</ele>
        <time>2010-01-01T01:36:07Z</time>
      </trkpt>
      <trkpt lat="38.93965" lon="1.23619">
        <ele>4</ele>
        <time>2010-01-01T01:36:11Z</time>
      </trkpt>
      <trkpt lat="38.93958" lon="1.23626">
        <ele>5</ele>
        <time>2010-01-01T01:36:14Z</time>
      </trkpt>
      <trkpt lat="38.93951" lon="1.23636">
        <ele>5</ele>
        <time>2010-01-01T01:36:18Z</time>
      </trkpt>
      <trkpt lat="38.93943" lon="1.23643">
        <ele>4</ele>
        <time>2010-01-01T01:36:23Z</time>
      </trkpt>
      <trkpt lat="38.93933" lon="1.2365">
        <ele>2</ele>
        <time>2010-01-01T01:36:27Z</time>
      </trkpt>
      <trkpt lat="38.93923" lon="1.23656">
        <ele>1</ele>
        <time>2010-01-01T01:36:31Z</time>
      </trkpt>
      <trkpt lat="38.93916" lon="1.23663">
        <ele>2</ele>
        <time>2010-01-01T01:36:35Z</time>
      </trkpt>
      <trkpt lat="38.9391" lon="1.23675">
        <ele>2</ele>
        <time>2010-01-01T01:36:39Z</time>
      </trkpt>
      <trkpt lat="38.93904" lon="1.23685">
        <ele>3</ele>
        <time>2010-01-01T01:36:43Z</time>
      </trkpt>
      <trkpt lat="38.939" lon="1.23695">
        <ele>4</ele>
        <time>2010-01-01T01:36:47Z</time>
      </trkpt>
      <trkpt lat="38.93891" lon="1.23692">
        <ele>5</ele>
        <time>2010-01-01T01:36:50Z</time>
      </trkpt>
      <trkpt lat="38.93883" lon="1.23686">
        <ele>6</ele>
        <time>2010-01-01T01:36:54Z</time>
      </trkpt>
      <trkpt lat="38.93875" lon="1.2368">
        <ele>6</ele>
        <time>2010-01-01T01:36:58Z</time>
      </trkpt>
      <trkpt lat="38.93867" lon="1.23673">
        <ele>7</ele>
        <time>2010-01-01T01:37:02Z</time>
      </trkpt>
      <trkpt lat="38.93861" lon="1.23664">
        <ele>7</ele>
        <time>2010-01-01T01:37:06Z</time>
      </trkpt>
      <trkpt lat="38.93853" lon="1.23655">
        <ele>7</ele>
        <time>2010-01-01T01:37:10Z</time>
      </trkpt>
      <trkpt lat="38.93846" lon="1.23647">
        <ele>7</ele>
        <time>2010-01-01T01:37:14Z</time>
      </trkpt>
      <trkpt lat="38.93837" lon="1.2364">
        <ele>7</ele>
        <time>2010-01-01T01:37:18Z</time>
      </trkpt>
      <trkpt lat="38.9383" lon="1.23631">
        <ele>7</ele>
        <time>2010-01-01T01:37:22Z</time>
      </trkpt>
      <trkpt lat="38.93823" lon="1.23621">
        <ele>6</ele>
        <time>2010-01-01T01:37:26Z</time>
      </trkpt>
      <trkpt lat="38.93815" lon="1.23614">
        <ele>5</ele>
        <time>2010-01-01T01:37:30Z</time>
      </trkpt>
      <trkpt lat="38.93806" lon="1.23612">
        <ele>5</ele>
        <time>2010-01-01T01:37:34Z</time>
      </trkpt>
      <trkpt lat="38.93796" lon="1.2361">
        <ele>5</ele>
        <time>2010-01-01T01:37:38Z</time>
      </trkpt>
      <trkpt lat="38.93787" lon="1.2361">
        <ele>6</ele>
        <time>2010-01-01T01:37:41Z</time>
      </trkpt>
      <trkpt lat="38.93779" lon="1.23616">
        <ele>7</ele>
        <time>2010-01-01T01:37:45Z</time>
      </trkpt>
      <trkpt lat="38.93768" lon="1.2362">
        <ele>8</ele>
        <time>2010-01-01T01:37:49Z</time>
      </trkpt>
      <trkpt lat="38.93759" lon="1.2362">
        <ele>9</ele>
        <time>2010-01-01T01:37:53Z</time>
      </trkpt>
      <trkpt lat="38.9375" lon="1.23616">
        <ele>9</ele>
        <time>2010-01-01T01:37:57Z</time>
      </trkpt>
      <trkpt lat="38.93744" lon="1.23607">
        <ele>8</ele>
        <time>2010-01-01T01:38:00Z</time>
      </trkpt>
      <trkpt lat="38.9374" lon="1.23596">
        <ele>7</ele>
        <time>2010-01-01T01:38:04Z</time>
      </trkpt>
      <trkpt lat="38.93731" lon="1.23592">
        <ele>6</ele>
        <time>2010-01-01T01:38:08Z</time>
      </trkpt>
      <trkpt lat="38.93723" lon="1.23586">
        <ele>5</ele>
        <time>2010-01-01T01:38:12Z</time>
      </trkpt>
      <trkpt lat="38.93713" lon="1.23584">
        <ele>5</ele>
        <time>2010-01-01T01:38:16Z</time>
      </trkpt>
      <trkpt lat="38.93704" lon="1.23582">
        <ele>5</ele>
        <time>2010-01-01T01:38:19Z</time>
      </trkpt>
      <trkpt lat="38.93695" lon="1.23585">
        <ele>6</ele>
        <time>2010-01-01T01:38:23Z</time>
      </trkpt>
      <trkpt lat="38.93686" lon="1.23588">
        <ele>7</ele>
        <time>2010-01-01T01:38:27Z</time>
      </trkpt>
      <trkpt lat="38.93679" lon="1.23598">
        <ele>11</ele>
        <time>2010-01-01T01:38:31Z</time>
      </trkpt>
      <trkpt lat="38.93677" lon="1.2361">
        <ele>15</ele>
        <time>2010-01-01T01:38:35Z</time>
      </trkpt>
      <trkpt lat="38.93675" lon="1.23623">
        <ele>18</ele>
        <time>2010-01-01T01:38:39Z</time>
      </trkpt>
      <trkpt lat="38.93671" lon="1.23636">
        <ele>22</ele>
        <time>2010-01-01T01:38:43Z</time>
      </trkpt>
      <trkpt lat="38.93667" lon="1.23647">
        <ele>23</ele>
        <time>2010-01-01T01:38:47Z</time>
      </trkpt>
      <trkpt lat="38.93664" lon="1.23658">
        <ele>25</ele>
        <time>2010-01-01T01:38:50Z</time>
      </trkpt>
      <trkpt lat="38.93654" lon="1.23661">
        <ele>25</ele>
        <time>2010-01-01T01:38:55Z</time>
      </trkpt>
      <trkpt lat="38.93644" lon="1.23667">
        <ele>26</ele>
        <time>2010-01-01T01:38:59Z</time>
      </trkpt>
      <trkpt lat="38.93639" lon="1.23677">
        <ele>27</ele>
        <time>2010-01-01T01:39:03Z</time>
      </trkpt>
      <trkpt lat="38.93638" lon="1.2369">
        <ele>27</ele>
        <time>2010-01-01T01:39:07Z</time>
      </trkpt>
      <trkpt lat="38.93636" lon="1.23706">
        <ele>28</ele>
        <time>2010-01-01T01:39:12Z</time>
      </trkpt>
      <trkpt lat="38.93626" lon="1.2371">
        <ele>29</ele>
        <time>2010-01-01T01:39:16Z</time>
      </trkpt>
      <trkpt lat="38.93616" lon="1.23707">
        <ele>29</ele>
        <time>2010-01-01T01:39:20Z</time>
      </trkpt>
      <trkpt lat="38.93605" lon="1.23704">
        <ele>30</ele>
        <time>2010-01-01T01:39:24Z</time>
      </trkpt>
      <trkpt lat="38.93595" lon="1.23704">
        <ele>32</ele>
        <time>2010-01-01T01:39:28Z</time>
      </trkpt>
      <trkpt lat="38.93586" lon="1.23704">
        <ele>33</ele>
        <time>2010-01-01T01:39:32Z</time>
      </trkpt>
      <trkpt lat="38.93575" lon="1.23704">
        <ele>34</ele>
        <time>2010-01-01T01:39:37Z</time>
      </trkpt>
      <trkpt lat="38.93565" lon="1.23703">
        <ele>34</ele>
        <time>2010-01-01T01:39:41Z</time>
      </trkpt>
      <trkpt lat="38.93554" lon="1.23706">
        <ele>35</ele>
        <time>2010-01-01T01:39:45Z</time>
      </trkpt>
      <trkpt lat="38.93546" lon="1.23711">
        <ele>36</ele>
        <time>2010-01-01T01:39:49Z</time>
      </trkpt>
      <trkpt lat="38.93536" lon="1.23713">
        <ele>37</ele>
        <time>2010-01-01T01:39:53Z</time>
      </trkpt>
      <trkpt lat="38.93527" lon="1.23715">
        <ele>37</ele>
        <time>2010-01-01T01:39:56Z</time>
      </trkpt>
      <trkpt lat="38.93515" lon="1.23716">
        <ele>39</ele>
        <time>2010-01-01T01:40:01Z</time>
      </trkpt>
      <trkpt lat="38.93504" lon="1.23715">
        <ele>40</ele>
        <time>2010-01-01T01:40:06Z</time>
      </trkpt>
      <trkpt lat="38.93494" lon="1.23719">
        <ele>41</ele>
        <time>2010-01-01T01:40:10Z</time>
      </trkpt>
      <trkpt lat="38.93485" lon="1.23719">
        <ele>41</ele>
        <time>2010-01-01T01:40:13Z</time>
      </trkpt>
      <trkpt lat="38.93476" lon="1.23722">
        <ele>42</ele>
        <time>2010-01-01T01:40:17Z</time>
      </trkpt>
      <trkpt lat="38.93466" lon="1.23723">
        <ele>43</ele>
        <time>2010-01-01T01:40:21Z</time>
      </trkpt>
      <trkpt lat="38.93456" lon="1.23724">
        <ele>43</ele>
        <time>2010-01-01T01:40:25Z</time>
      </trkpt>
      <trkpt lat="38.93447" lon="1.23727">
        <ele>44</ele>
        <time>2010-01-01T01:40:29Z</time>
      </trkpt>
      <trkpt lat="38.93437" lon="1.23732">
        <ele>45</ele>
        <time>2010-01-01T01:40:33Z</time>
      </trkpt>
      <trkpt lat="38.93428" lon="1.23734">
        <ele>47</ele>
        <time>2010-01-01T01:40:37Z</time>
      </trkpt>
      <trkpt lat="38.93418" lon="1.23735">
        <ele>49</ele>
        <time>2010-01-01T01:40:41Z</time>
      </trkpt>
      <trkpt lat="38.93409" lon="1.23738">
        <ele>50</ele>
        <time>2010-01-01T01:40:45Z</time>
      </trkpt>
      <trkpt lat="38.93399" lon="1.23738">
        <ele>51</ele>
        <time>2010-01-01T01:40:49Z</time>
      </trkpt>
      <trkpt lat="38.9339" lon="1.23739">
        <ele>51</ele>
        <time>2010-01-01T01:40:52Z</time>
      </trkpt>
      <trkpt lat="38.9338" lon="1.23733">
        <ele>51</ele>
        <time>2010-01-01T01:40:56Z</time>
      </trkpt>
      <trkpt lat="38.93372" lon="1.23727">
        <ele>51</ele>
        <time>2010-01-01T01:41:00Z</time>
      </trkpt>
      <trkpt lat="38.93365" lon="1.23715">
        <ele>50</ele>
        <time>2010-01-01T01:41:05Z</time>
      </trkpt>
      <trkpt lat="38.93357" lon="1.23705">
        <ele>50</ele>
        <time>2010-01-01T01:41:09Z</time>
      </trkpt>
      <trkpt lat="38.93351" lon="1.23695">
        <ele>50</ele>
        <time>2010-01-01T01:41:13Z</time>
      </trkpt>
      <trkpt lat="38.93344" lon="1.23684">
        <ele>49</ele>
        <time>2010-01-01T01:41:18Z</time>
      </trkpt>
      <trkpt lat="38.93337" lon="1.23673">
        <ele>49</ele>
        <time>2010-01-01T01:41:22Z</time>
      </trkpt>
      <trkpt lat="38.93329" lon="1.23663">
        <ele>49</ele>
        <time>2010-01-01T01:41:27Z</time>
      </trkpt>
      <trkpt lat="38.93321" lon="1.23652">
        <ele>49</ele>
        <time>2010-01-01T01:41:31Z</time>
      </trkpt>
      <trkpt lat="38.93315" lon="1.2364">
        <ele>50</ele>
        <time>2010-01-01T01:41:36Z</time>
      </trkpt>
      <trkpt lat="38.93309" lon="1.2363">
        <ele>50</ele>
        <time>2010-01-01T01:41:40Z</time>
      </trkpt>
      <trkpt lat="38.93304" lon="1.2362">
        <ele>50</ele>
        <time>2010-01-01T01:41:43Z</time>
      </trkpt>
      <trkpt lat="38.93299" lon="1.23611">
        <ele>50</ele>
        <time>2010-01-01T01:41:47Z</time>
      </trkpt>
      <trkpt lat="38.93293" lon="1.23599">
        <ele>50</ele>
        <time>2010-01-01T01:41:51Z</time>
      </trkpt>
      <trkpt lat="38.93286" lon="1.2359">
        <ele>50</ele>
        <time>2010-01-01T01:41:55Z</time>
      </trkpt>
      <trkpt lat="38.93279" lon="1.23581">
        <ele>50</ele>
        <time>2010-01-01T01:41:59Z</time>
      </trkpt>
      <trkpt lat="38.93272" lon="1.2357">
        <ele>50</ele>
        <time>2010-01-01T01:42:03Z</time>
      </trkpt>
      <trkpt lat="38.93266" lon="1.23562">
        <ele>50</ele>
        <time>2010-01-01T01:42:07Z</time>
      </trkpt>
      <trkpt lat="38.9326" lon="1.23552">
        <ele>50</ele>
        <time>2010-01-01T01:42:11Z</time>
      </trkpt>
      <trkpt lat="38.93252" lon="1.23545">
        <ele>50</ele>
        <time>2010-01-01T01:42:15Z</time>
      </trkpt>
      <trkpt lat="38.93243" lon="1.23539">
        <ele>50</ele>
        <time>2010-01-01T01:42:19Z</time>
      </trkpt>
      <trkpt lat="38.93235" lon="1.23532">
        <ele>50</ele>
        <time>2010-01-01T01:42:23Z</time>
      </trkpt>
      <trkpt lat="38.93225" lon="1.23528">
        <ele>50</ele>
        <time>2010-01-01T01:42:27Z</time>
      </trkpt>
      <trkpt lat="38.93214" lon="1.23526">
        <ele>51</ele>
        <time>2010-01-01T01:42:31Z</time>
      </trkpt>
      <trkpt lat="38.93205" lon="1.23526">
        <ele>51</ele>
        <time>2010-01-01T01:42:35Z</time>
      </trkpt>
      <trkpt lat="38.93194" lon="1.23525">
        <ele>51</ele>
        <time>2010-01-01T01:42:39Z</time>
      </trkpt>
      <trkpt lat="38.93185" lon="1.23524">
        <ele>51</ele>
        <time>2010-01-01T01:42:43Z</time>
      </trkpt>
      <trkpt lat="38.93176" lon="1.23519">
        <ele>51</ele>
        <time>2010-01-01T01:42:47Z</time>
      </trkpt>
      <trkpt lat="38.93166" lon="1.23515">
        <ele>51</ele>
        <time>2010-01-01T01:42:51Z</time>
      </trkpt>
      <trkpt lat="38.93156" lon="1.23512">
        <ele>50</ele>
        <time>2010-01-01T01:42:55Z</time>
      </trkpt>
      <trkpt lat="38.93146" lon="1.2351">
        <ele>49</ele>
        <time>2010-01-01T01:42:59Z</time>
      </trkpt>
      <trkpt lat="38.93136" lon="1.23509">
        <ele>48</ele>
        <time>2010-01-01T01:43:03Z</time>
      </trkpt>
      <trkpt lat="38.93126" lon="1.2351">
        <ele>47</ele>
        <time>2010-01-01T01:43:07Z</time>
      </trkpt>
      <trkpt lat="38.93117" lon="1.23517">
        <ele>46</ele>
        <time>2010-01-01T01:43:11Z</time>
      </trkpt>
      <trkpt lat="38.93107" lon="1.23524">
        <ele>45</ele>
        <time>2010-01-01T01:43:16Z</time>
      </trkpt>
      <trkpt lat="38.93098" lon="1.23531">
        <ele>44</ele>
        <time>2010-01-01T01:43:20Z</time>
      </trkpt>
      <trkpt lat="38.93089" lon="1.23536">
        <ele>44</ele>
        <time>2010-01-01T01:43:24Z</time>
      </trkpt>
      <trkpt lat="38.93081" lon="1.23542">
        <ele>44</ele>
        <time>2010-01-01T01:43:28Z</time>
      </trkpt>
      <trkpt lat="38.93068" lon="1.23548">
        <ele>45</ele>
        <time>2010-01-01T01:43:33Z</time>
      </trkpt>
      <trkpt lat="38.93058" lon="1.23551">
        <ele>44</ele>
        <time>2010-01-01T01:43:37Z</time>
      </trkpt>
      <trkpt lat="38.93047" lon="1.23553">
        <ele>42</ele>
        <time>2010-01-01T01:43:42Z</time>
      </trkpt>
      <trkpt lat="38.93037" lon="1.23557">
        <ele>40</ele>
        <time>2010-01-01T01:43:46Z</time>
      </trkpt>
      <trkpt lat="38.93027" lon="1.23565">
        <ele>38</ele>
        <time>2010-01-01T01:43:51Z</time>
      </trkpt>
      <trkpt lat="38.9302" lon="1.23574">
        <ele>36</ele>
        <time>2010-01-01T01:43:55Z</time>
      </trkpt>
      <trkpt lat="38.93015" lon="1.23585">
        <ele>36</ele>
        <time>2010-01-01T01:43:59Z</time>
      </trkpt>
      <trkpt lat="38.93009" lon="1.23597">
        <ele>36</ele>
        <time>2010-01-01T01:44:03Z</time>
      </trkpt>
      <trkpt lat="38.93004" lon="1.23608">
        <ele>37</ele>
        <time>2010-01-01T01:44:07Z</time>
      </trkpt>
      <trkpt lat="38.92998" lon="1.2362">
        <ele>39</ele>
        <time>2010-01-01T01:44:12Z</time>
      </trkpt>
      <trkpt lat="38.92992" lon="1.23631">
        <ele>42</ele>
        <time>2010-01-01T01:44:16Z</time>
      </trkpt>
      <trkpt lat="38.92982" lon="1.23635">
        <ele>44</ele>
        <time>2010-01-01T01:44:20Z</time>
      </trkpt>
      <trkpt lat="38.92973" lon="1.2363">
        <ele>42</ele>
        <time>2010-01-01T01:44:24Z</time>
      </trkpt>
      <trkpt lat="38.92962" lon="1.23623">
        <ele>36</ele>
        <time>2010-01-01T01:44:29Z</time>
      </trkpt>
      <trkpt lat="38.92954" lon="1.23614">
        <ele>31</ele>
        <time>2010-01-01T01:44:33Z</time>
      </trkpt>
      <trkpt lat="38.92944" lon="1.23607">
        <ele>27</ele>
        <time>2010-01-01T01:44:38Z</time>
      </trkpt>
      <trkpt lat="38.92933" lon="1.2361">
        <ele>26</ele>
        <time>2010-01-01T01:44:42Z</time>
      </trkpt>
      <trkpt lat="38.92922" lon="1.23613">
        <ele>25</ele>
        <time>2010-01-01T01:44:47Z</time>
      </trkpt>
      <trkpt lat="38.9291" lon="1.23619">
        <ele>24</ele>
        <time>2010-01-01T01:44:52Z</time>
      </trkpt>
      <trkpt lat="38.929" lon="1.23621">
        <ele>21</ele>
        <time>2010-01-01T01:44:56Z</time>
      </trkpt>
      <trkpt lat="38.92891" lon="1.23628">
        <ele>20</ele>
        <time>2010-01-01T01:45:00Z</time>
      </trkpt>
      <trkpt lat="38.92881" lon="1.23633">
        <ele>18</ele>
        <time>2010-01-01T01:45:04Z</time>
      </trkpt>
      <trkpt lat="38.92872" lon="1.2364">
        <ele>16</ele>
        <time>2010-01-01T01:45:09Z</time>
      </trkpt>
      <trkpt lat="38.92861" lon="1.23646">
        <ele>13</ele>
        <time>2010-01-01T01:45:13Z</time>
      </trkpt>
      <trkpt lat="38.92851" lon="1.23646">
        <ele>12</ele>
        <time>2010-01-01T01:45:18Z</time>
      </trkpt>
      <trkpt lat="38.92841" lon="1.23647">
        <ele>11</ele>
        <time>2010-01-01T01:45:21Z</time>
      </trkpt>
      <trkpt lat="38.92831" lon="1.23649">
        <ele>11</ele>
        <time>2010-01-01T01:45:26Z</time>
      </trkpt>
      <trkpt lat="38.92823" lon="1.23656">
        <ele>12</ele>
        <time>2010-01-01T01:45:29Z</time>
      </trkpt>
      <trkpt lat="38.92817" lon="1.23666">
        <ele>13</ele>
        <time>2010-01-01T01:45:33Z</time>
      </trkpt>
      <trkpt lat="38.92811" lon="1.23679">
        <ele>13</ele>
        <time>2010-01-01T01:45:38Z</time>
      </trkpt>
      <trkpt lat="38.92808" lon="1.2369">
        <ele>13</ele>
        <time>2010-01-01T01:45:42Z</time>
      </trkpt>
      <trkpt lat="38.92803" lon="1.23701">
        <ele>13</ele>
        <time>2010-01-01T01:45:46Z</time>
      </trkpt>
      <trkpt lat="38.92798" lon="1.2371">
        <ele>13</ele>
        <time>2010-01-01T01:45:49Z</time>
      </trkpt>
      <trkpt lat="38.92791" lon="1.23721">
        <ele>14</ele>
        <time>2010-01-01T01:45:53Z</time>
      </trkpt>
      <trkpt lat="38.92787" lon="1.23733">
        <ele>14</ele>
        <time>2010-01-01T01:45:58Z</time>
      </trkpt>
      <trkpt lat="38.92784" lon="1.23745">
        <ele>14</ele>
        <time>2010-01-01T01:46:01Z</time>
      </trkpt>
      <trkpt lat="38.92777" lon="1.23756">
        <ele>15</ele>
        <time>2010-01-01T01:46:06Z</time>
      </trkpt>
      <trkpt lat="38.92772" lon="1.23766">
        <ele>15</ele>
        <time>2010-01-01T01:46:10Z</time>
      </trkpt>
      <trkpt lat="38.92767" lon="1.23779">
        <ele>14</ele>
        <time>2010-01-01T01:46:14Z</time>
      </trkpt>
      <trkpt lat="38.92761" lon="1.23789">
        <ele>14</ele>
        <time>2010-01-01T01:46:18Z</time>
      </trkpt>
      <trkpt lat="38.92758" lon="1.23802">
        <ele>13</ele>
        <time>2010-01-01T01:46:22Z</time>
      </trkpt>
      <trkpt lat="38.92753" lon="1.23813">
        <ele>13</ele>
        <time>2010-01-01T01:46:26Z</time>
      </trkpt>
      <trkpt lat="38.92747" lon="1.23825">
        <ele>13</ele>
        <time>2010-01-01T01:46:31Z</time>
      </trkpt>
      <trkpt lat="38.92743" lon="1.23838">
        <ele>14</ele>
        <time>2010-01-01T01:46:35Z</time>
      </trkpt>
      <trkpt lat="38.92739" lon="1.2385">
        <ele>15</ele>
        <time>2010-01-01T01:46:39Z</time>
      </trkpt>
      <trkpt lat="38.92734" lon="1.2386">
        <ele>15</ele>
        <time>2010-01-01T01:46:43Z</time>
      </trkpt>
      <trkpt lat="38.92727" lon="1.23872">
        <ele>15</ele>
        <time>2010-01-01T01:46:47Z</time>
      </trkpt>
      <trkpt lat="38.92719" lon="1.23884">
        <ele>15</ele>
        <time>2010-01-01T01:46:52Z</time>
      </trkpt>
      <trkpt lat="38.92713" lon="1.23895">
        <ele>16</ele>
        <time>2010-01-01T01:46:56Z</time>
      </trkpt>
      <trkpt lat="38.92707" lon="1.23904">
        <ele>17</ele>
        <time>2010-01-01T01:47:00Z</time>
      </trkpt>
      <trkpt lat="38.92701" lon="1.23916">
        <ele>17</ele>
        <time>2010-01-01T01:47:05Z</time>
      </trkpt>
      <trkpt lat="38.92695" lon="1.23926">
        <ele>16</ele>
        <time>2010-01-01T01:47:08Z</time>
      </trkpt>
      <trkpt lat="38.92687" lon="1.23937">
        <ele>18</ele>
        <time>2010-01-01T01:47:13Z</time>
      </trkpt>
      <trkpt lat="38.92679" lon="1.23947">
        <ele>20</ele>
        <time>2010-01-01T01:47:18Z</time>
      </trkpt>
      <trkpt lat="38.92677" lon="1.23959">
        <ele>19</ele>
        <time>2010-01-01T01:47:21Z</time>
      </trkpt>
      <trkpt lat="38.92671" lon="1.23972">
        <ele>19</ele>
        <time>2010-01-01T01:47:26Z</time>
      </trkpt>
      <trkpt lat="38.92665" lon="1.23981">
        <ele>20</ele>
        <time>2010-01-01T01:47:30Z</time>
      </trkpt>
      <trkpt lat="38.92663" lon="1.23994">
        <ele>20</ele>
        <time>2010-01-01T01:47:34Z</time>
      </trkpt>
      <trkpt lat="38.92659" lon="1.24006">
        <ele>21</ele>
        <time>2010-01-01T01:47:38Z</time>
      </trkpt>
      <trkpt lat="38.92657" lon="1.24019">
        <ele>20</ele>
        <time>2010-01-01T01:47:42Z</time>
      </trkpt>
      <trkpt lat="38.92657" lon="1.24032">
        <ele>20</ele>
        <time>2010-01-01T01:47:46Z</time>
      </trkpt>
      <trkpt lat="38.92657" lon="1.24046">
        <ele>19</ele>
        <time>2010-01-01T01:47:51Z</time>
      </trkpt>
      <trkpt lat="38.92653" lon="1.24058">
        <ele>19</ele>
        <time>2010-01-01T01:47:55Z</time>
      </trkpt>
      <trkpt lat="38.92658" lon="1.24069">
        <ele>18</ele>
        <time>2010-01-01T01:47:59Z</time>
      </trkpt>
      <trkpt lat="38.92656" lon="1.24081">
        <ele>18</ele>
        <time>2010-01-01T01:48:02Z</time>
      </trkpt>
      <trkpt lat="38.92656" lon="1.24094">
        <ele>19</ele>
        <time>2010-01-01T01:48:07Z</time>
      </trkpt>
      <trkpt lat="38.92657" lon="1.24107">
        <ele>20</ele>
        <time>2010-01-01T01:48:10Z</time>
      </trkpt>
      <trkpt lat="38.9266" lon="1.24118">
        <ele>22</ele>
        <time>2010-01-01T01:48:14Z</time>
      </trkpt>
      <trkpt lat="38.92661" lon="1.24131">
        <ele>24</ele>
        <time>2010-01-01T01:48:18Z</time>
      </trkpt>
      <trkpt lat="38.92663" lon="1.24143">
        <ele>25</ele>
        <time>2010-01-01T01:48:22Z</time>
      </trkpt>
      <trkpt lat="38.92665" lon="1.24156">
        <ele>26</ele>
        <time>2010-01-01T01:48:26Z</time>
      </trkpt>
      <trkpt lat="38.92664" lon="1.24173">
        <ele>30</ele>
        <time>2010-01-01T01:48:31Z</time>
      </trkpt>
      <trkpt lat="38.92664" lon="1.24184">
        <ele>32</ele>
        <time>2010-01-01T01:48:35Z</time>
      </trkpt>
      <trkpt lat="38.92668" lon="1.24196">
        <ele>33</ele>
        <time>2010-01-01T01:48:39Z</time>
      </trkpt>
      <trkpt lat="38.92669" lon="1.24208">
        <ele>34</ele>
        <time>2010-01-01T01:48:43Z</time>
      </trkpt>
      <trkpt lat="38.92674" lon="1.2422">
        <ele>34</ele>
        <time>2010-01-01T01:48:47Z</time>
      </trkpt>
      <trkpt lat="38.92675" lon="1.24232">
        <ele>34</ele>
        <time>2010-01-01T01:48:51Z</time>
      </trkpt>
      <trkpt lat="38.92673" lon="1.24245">
        <ele>34</ele>
        <time>2010-01-01T01:48:55Z</time>
      </trkpt>
      <trkpt lat="38.92673" lon="1.24257">
        <ele>35</ele>
        <time>2010-01-01T01:48:59Z</time>
      </trkpt>
      <trkpt lat="38.92671" lon="1.24268">
        <ele>35</ele>
        <time>2010-01-01T01:49:02Z</time>
      </trkpt>
      <trkpt lat="38.92668" lon="1.2428">
        <ele>36</ele>
        <time>2010-01-01T01:49:06Z</time>
      </trkpt>
      <trkpt lat="38.92666" lon="1.24292">
        <ele>37</ele>
        <time>2010-01-01T01:49:10Z</time>
      </trkpt>
      <trkpt lat="38.92664" lon="1.24304">
        <ele>38</ele>
        <time>2010-01-01T01:49:14Z</time>
      </trkpt>
      <trkpt lat="38.92659" lon="1.24315">
        <ele>39</ele>
        <time>2010-01-01T01:49:18Z</time>
      </trkpt>
      <trkpt lat="38.92657" lon="1.24327">
        <ele>39</ele>
        <time>2010-01-01T01:49:22Z</time>
      </trkpt>
      <trkpt lat="38.92652" lon="1.24338">
        <ele>40</ele>
        <time>2010-01-01T01:49:26Z</time>
      </trkpt>
      <trkpt lat="38.92648" lon="1.24349">
        <ele>42</ele>
        <time>2010-01-01T01:49:29Z</time>
      </trkpt>
      <trkpt lat="38.92642" lon="1.2436">
        <ele>44</ele>
        <time>2010-01-01T01:49:33Z</time>
      </trkpt>
      <trkpt lat="38.92637" lon="1.24369">
        <ele>46</ele>
        <time>2010-01-01T01:49:37Z</time>
      </trkpt>
      <trkpt lat="38.92634" lon="1.24382">
        <ele>47</ele>
        <time>2010-01-01T01:49:41Z</time>
      </trkpt>
      <trkpt lat="38.9263" lon="1.24392">
        <ele>48</ele>
        <time>2010-01-01T01:49:45Z</time>
      </trkpt>
      <trkpt lat="38.92628" lon="1.24405">
        <ele>48</ele>
        <time>2010-01-01T01:49:49Z</time>
      </trkpt>
      <trkpt lat="38.92622" lon="1.24415">
        <ele>49</ele>
        <time>2010-01-01T01:49:53Z</time>
      </trkpt>
      <trkpt lat="38.92618" lon="1.24428">
        <ele>49</ele>
        <time>2010-01-01T01:49:57Z</time>
      </trkpt>
      <trkpt lat="38.92614" lon="1.2444">
        <ele>50</ele>
        <time>2010-01-01T01:50:01Z</time>
      </trkpt>
      <trkpt lat="38.92609" lon="1.2445">
        <ele>51</ele>
        <time>2010-01-01T01:50:05Z</time>
      </trkpt>
      <trkpt lat="38.92604" lon="1.2446">
        <ele>53</ele>
        <time>2010-01-01T01:50:08Z</time>
      </trkpt>
      <trkpt lat="38.926" lon="1.24471">
        <ele>55</ele>
        <time>2010-01-01T01:50:12Z</time>
      </trkpt>
      <trkpt lat="38.926" lon="1.24484">
        <ele>56</ele>
        <time>2010-01-01T01:50:16Z</time>
      </trkpt>
      <trkpt lat="38.92598" lon="1.24495">
        <ele>57</ele>
        <time>2010-01-01T01:50:20Z</time>
      </trkpt>
      <trkpt lat="38.92596" lon="1.24507">
        <ele>57</ele>
        <time>2010-01-01T01:50:24Z</time>
      </trkpt>
      <trkpt lat="38.92595" lon="1.2452">
        <ele>57</ele>
        <time>2010-01-01T01:50:28Z</time>
      </trkpt>
      <trkpt lat="38.92597" lon="1.24532">
        <ele>56</ele>
        <time>2010-01-01T01:50:32Z</time>
      </trkpt>
      <trkpt lat="38.92596" lon="1.24545">
        <ele>56</ele>
        <time>2010-01-01T01:50:35Z</time>
      </trkpt>
      <trkpt lat="38.92596" lon="1.24557">
        <ele>55</ele>
        <time>2010-01-01T01:50:39Z</time>
      </trkpt>
      <trkpt lat="38.92593" lon="1.24571">
        <ele>56</ele>
        <time>2010-01-01T01:50:44Z</time>
      </trkpt>
      <trkpt lat="38.9259" lon="1.24583">
        <ele>57</ele>
        <time>2010-01-01T01:50:48Z</time>
      </trkpt>
      <trkpt lat="38.92585" lon="1.24595">
        <ele>58</ele>
        <time>2010-01-01T01:50:52Z</time>
      </trkpt>
      <trkpt lat="38.92582" lon="1.24608">
        <ele>58</ele>
        <time>2010-01-01T01:50:56Z</time>
      </trkpt>
      <trkpt lat="38.92576" lon="1.24619">
        <ele>61</ele>
        <time>2010-01-01T01:51:00Z</time>
      </trkpt>
      <trkpt lat="38.92569" lon="1.24628">
        <ele>63</ele>
        <time>2010-01-01T01:51:04Z</time>
      </trkpt>
      <trkpt lat="38.92564" lon="1.24639">
        <ele>65</ele>
        <time>2010-01-01T01:51:08Z</time>
      </trkpt>
      <trkpt lat="38.92559" lon="1.2465">
        <ele>65</ele>
        <time>2010-01-01T01:51:12Z</time>
      </trkpt>
      <trkpt lat="38.92555" lon="1.24662">
        <ele>65</ele>
        <time>2010-01-01T01:51:16Z</time>
      </trkpt>
      <trkpt lat="38.9255" lon="1.24673">
        <ele>65</ele>
        <time>2010-01-01T01:51:20Z</time>
      </trkpt>
      <trkpt lat="38.92545" lon="1.24682">
        <ele>65</ele>
        <time>2010-01-01T01:51:24Z</time>
      </trkpt>
      <trkpt lat="38.92537" lon="1.24689">
        <ele>66</ele>
        <time>2010-01-01T01:51:28Z</time>
      </trkpt>
      <trkpt lat="38.92527" lon="1.24694">
        <ele>67</ele>
        <time>2010-01-01T01:51:32Z</time>
      </trkpt>
      <trkpt lat="38.92517" lon="1.24696">
        <ele>68</ele>
        <time>2010-01-01T01:51:36Z</time>
      </trkpt>
      <trkpt lat="38.92505" lon="1.24697">
        <ele>69</ele>
        <time>2010-01-01T01:51:41Z</time>
      </trkpt>
      <trkpt lat="38.92496" lon="1.247">
        <ele>70</ele>
        <time>2010-01-01T01:51:45Z</time>
      </trkpt>
      <trkpt lat="38.92486" lon="1.24706">
        <ele>71</ele>
        <time>2010-01-01T01:51:49Z</time>
      </trkpt>
      <trkpt lat="38.92479" lon="1.24717">
        <ele>72</ele>
        <time>2010-01-01T01:51:53Z</time>
      </trkpt>
      <trkpt lat="38.92486" lon="1.24724">
        <ele>71</ele>
        <time>2010-01-01T01:51:57Z</time>
      </trkpt>
      <trkpt lat="38.92495" lon="1.2473">
        <ele>71</ele>
        <time>2010-01-01T01:52:01Z</time>
      </trkpt>
      <trkpt lat="38.92502" lon="1.24741">
        <ele>71</ele>
        <time>2010-01-01T01:52:06Z</time>
      </trkpt>
      <trkpt lat="38.92508" lon="1.24752">
        <ele>71</ele>
        <time>2010-01-01T01:52:10Z</time>
      </trkpt>
      <trkpt lat="38.92516" lon="1.24759">
        <ele>70</ele>
        <time>2010-01-01T01:52:14Z</time>
      </trkpt>
      <trkpt lat="38.92523" lon="1.24769">
        <ele>70</ele>
        <time>2010-01-01T01:52:18Z</time>
      </trkpt>
      <trkpt lat="38.92528" lon="1.2478">
        <ele>70</ele>
        <time>2010-01-01T01:52:22Z</time>
      </trkpt>
      <trkpt lat="38.92526" lon="1.24792">
        <ele>70</ele>
        <time>2010-01-01T01:52:25Z</time>
      </trkpt>
      <trkpt lat="38.92521" lon="1.24803">
        <ele>70</ele>
        <time>2010-01-01T01:52:30Z</time>
      </trkpt>
      <trkpt lat="38.92512" lon="1.24808">
        <ele>71</ele>
        <time>2010-01-01T01:52:33Z</time>
      </trkpt>
      <trkpt lat="38.92503" lon="1.24806">
        <ele>72</ele>
        <time>2010-01-01T01:52:37Z</time>
      </trkpt>
      <trkpt lat="38.92493" lon="1.24806">
        <ele>74</ele>
        <time>2010-01-01T01:52:41Z</time>
      </trkpt>
      <trkpt lat="38.92483" lon="1.24805">
        <ele>75</ele>
        <time>2010-01-01T01:52:45Z</time>
      </trkpt>
      <trkpt lat="38.92474" lon="1.24805">
        <ele>76</ele>
        <time>2010-01-01T01:52:49Z</time>
      </trkpt>
      <trkpt lat="38.92461" lon="1.24803">
        <ele>79</ele>
        <time>2010-01-01T01:52:54Z</time>
      </trkpt>
      <trkpt lat="38.92452" lon="1.24803">
        <ele>81</ele>
        <time>2010-01-01T01:52:58Z</time>
      </trkpt>
      <trkpt lat="38.92441" lon="1.24802">
        <ele>83</ele>
        <time>2010-01-01T01:53:02Z</time>
      </trkpt>
      <trkpt lat="38.92432" lon="1.24799">
        <ele>84</ele>
        <time>2010-01-01T01:53:06Z</time>
      </trkpt>
      <trkpt lat="38.92423" lon="1.24795">
        <ele>86</ele>
        <time>2010-01-01T01:53:09Z</time>
      </trkpt>
      <trkpt lat="38.92414" lon="1.24802">
        <ele>87</ele>
        <time>2010-01-01T01:53:13Z</time>
      </trkpt>
      <trkpt lat="38.92405" lon="1.24804">
        <ele>87</ele>
        <time>2010-01-01T01:53:17Z</time>
      </trkpt>
      <trkpt lat="38.92396" lon="1.24804">
        <ele>88</ele>
        <time>2010-01-01T01:53:21Z</time>
      </trkpt>
      <trkpt lat="38.92386" lon="1.24799">
        <ele>89</ele>
        <time>2010-01-01T01:53:25Z</time>
      </trkpt>
      <trkpt lat="38.92378" lon="1.24794">
        <ele>91</ele>
        <time>2010-01-01T01:53:29Z</time>
      </trkpt>
      <trkpt lat="38.92367" lon="1.24793">
        <ele>92</ele>
        <time>2010-01-01T01:53:33Z</time>
      </trkpt>
      <trkpt lat="38.92358" lon="1.24789">
        <ele>93</ele>
        <time>2010-01-01T01:53:37Z</time>
      </trkpt>
      <trkpt lat="38.9235" lon="1.24782">
        <ele>95</ele>
        <time>2010-01-01T01:53:41Z</time>
      </trkpt>
      <trkpt lat="38.92341" lon="1.24778">
        <ele>96</ele>
        <time>2010-01-01T01:53:44Z</time>
      </trkpt>
      <trkpt lat="38.92332" lon="1.24779">
        <ele>97</ele>
        <time>2010-01-01T01:53:48Z</time>
      </trkpt>
      <trkpt lat="38.92323" lon="1.24777">
        <ele>98</ele>
        <time>2010-01-01T01:53:52Z</time>
      </trkpt>
      <trkpt lat="38.92313" lon="1.24778">
        <ele>99</ele>
        <time>2010-01-01T01:53:56Z</time>
      </trkpt>
      <trkpt lat="38.92305" lon="1.24783">
        <ele>100</ele>
        <time>2010-01-01T01:53:59Z</time>
      </trkpt>
      <trkpt lat="38.92296" lon="1.24793">
        <ele>101</ele>
        <time>2010-01-01T01:54:04Z</time>
      </trkpt>
      <trkpt lat="38.92289" lon="1.24802">
        <ele>102</ele>
        <time>2010-01-01T01:54:08Z</time>
      </trkpt>
      <trkpt lat="38.92283" lon="1.24812">
        <ele>104</ele>
        <time>2010-01-01T01:54:12Z</time>
      </trkpt>
      <trkpt lat="38.92275" lon="1.24819">
        <ele>106</ele>
        <time>2010-01-01T01:54:16Z</time>
      </trkpt>
      <trkpt lat="38.92268" lon="1.24811">
        <ele>108</ele>
        <time>2010-01-01T01:54:20Z</time>
      </trkpt>
      <trkpt lat="38.92265" lon="1.24799">
        <ele>108</ele>
        <time>2010-01-01T01:54:24Z</time>
      </trkpt>
      <trkpt lat="38.92262" lon="1.24788">
        <ele>108</ele>
        <time>2010-01-01T01:54:27Z</time>
      </trkpt>
      <trkpt lat="38.92255" lon="1.24777">
        <ele>110</ele>
        <time>2010-01-01T01:54:32Z</time>
      </trkpt>
      <trkpt lat="38.92246" lon="1.2477">
        <ele>112</ele>
        <time>2010-01-01T01:54:36Z</time>
      </trkpt>
      <trkpt lat="38.92238" lon="1.24762">
        <ele>114</ele>
        <time>2010-01-01T01:54:40Z</time>
      </trkpt>
      <trkpt lat="38.9223" lon="1.24757">
        <ele>115</ele>
        <time>2010-01-01T01:54:44Z</time>
      </trkpt>
      <trkpt lat="38.92224" lon="1.24748">
        <ele>116</ele>
        <time>2010-01-01T01:54:48Z</time>
      </trkpt>
      <trkpt lat="38.92215" lon="1.24741">
        <ele>119</ele>
        <time>2010-01-01T01:54:52Z</time>
      </trkpt>
      <trkpt lat="38.92208" lon="1.24732">
        <ele>121</ele>
        <time>2010-01-01T01:54:55Z</time>
      </trkpt>
      <trkpt lat="38.922" lon="1.24724">
        <ele>123</ele>
        <time>2010-01-01T01:54:59Z</time>
      </trkpt>
      <trkpt lat="38.92193" lon="1.24717">
        <ele>124</ele>
        <time>2010-01-01T01:55:03Z</time>
      </trkpt>
      <trkpt lat="38.92189" lon="1.24705">
        <ele>125</ele>
        <time>2010-01-01T01:55:07Z</time>
      </trkpt>
      <trkpt lat="38.92184" lon="1.24693">
        <ele>125</ele>
        <time>2010-01-01T01:55:11Z</time>
      </trkpt>
      <trkpt lat="38.92179" lon="1.24682">
        <ele>127</ele>
        <time>2010-01-01T01:55:16Z</time>
      </trkpt>
      <trkpt lat="38.92173" lon="1.24673">
        <ele>128</ele>
        <time>2010-01-01T01:55:19Z</time>
      </trkpt>
      <trkpt lat="38.92163" lon="1.24673">
        <ele>130</ele>
        <time>2010-01-01T01:55:23Z</time>
      </trkpt>
      <trkpt lat="38.92156" lon="1.24681">
        <ele>132</ele>
        <time>2010-01-01T01:55:27Z</time>
      </trkpt>
      <trkpt lat="38.9215" lon="1.24693">
        <ele>134</ele>
        <time>2010-01-01T01:55:31Z</time>
      </trkpt>
      <trkpt lat="38.9215" lon="1.24706">
        <ele>134</ele>
        <time>2010-01-01T01:55:35Z</time>
      </trkpt>
      <trkpt lat="38.9215" lon="1.24719">
        <ele>135</ele>
        <time>2010-01-01T01:55:39Z</time>
      </trkpt>
      <trkpt lat="38.92151" lon="1.24731">
        <ele>135</ele>
        <time>2010-01-01T01:55:43Z</time>
      </trkpt>
      <trkpt lat="38.92143" lon="1.24737">
        <ele>138</ele>
        <time>2010-01-01T01:55:47Z</time>
      </trkpt>
      <trkpt lat="38.92137" lon="1.24728">
        <ele>139</ele>
        <time>2010-01-01T01:55:51Z</time>
      </trkpt>
      <trkpt lat="38.92133" lon="1.24717">
        <ele>140</ele>
        <time>2010-01-01T01:55:55Z</time>
      </trkpt>
      <trkpt lat="38.92129" lon="1.24705">
        <ele>141</ele>
        <time>2010-01-01T01:55:58Z</time>
      </trkpt>
      <trkpt lat="38.92123" lon="1.24694">
        <ele>143</ele>
        <time>2010-01-01T01:56:03Z</time>
      </trkpt>
      <trkpt lat="38.92118" lon="1.24683">
        <ele>144</ele>
        <time>2010-01-01T01:56:07Z</time>
      </trkpt>
      <trkpt lat="38.92116" lon="1.24672">
        <ele>145</ele>
        <time>2010-01-01T01:56:10Z</time>
      </trkpt>
      <trkpt lat="38.92112" lon="1.24661">
        <ele>146</ele>
        <time>2010-01-01T01:56:14Z</time>
      </trkpt>
      <trkpt lat="38.92109" lon="1.24672">
        <ele>148</ele>
        <time>2010-01-01T01:56:18Z</time>
      </trkpt>
      <trkpt lat="38.92106" lon="1.24683">
        <ele>150</ele>
        <time>2010-01-01T01:56:21Z</time>
      </trkpt>
      <trkpt lat="38.92101" lon="1.24696">
        <ele>153</ele>
        <time>2010-01-01T01:56:26Z</time>
      </trkpt>
      <trkpt lat="38.92098" lon="1.24706">
        <ele>155</ele>
        <time>2010-01-01T01:56:29Z</time>
      </trkpt>
      <trkpt lat="38.92094" lon="1.24721">
        <ele>157</ele>
        <time>2010-01-01T01:56:34Z</time>
      </trkpt>
      <trkpt lat="38.92096" lon="1.24735">
        <ele>158</ele>
        <time>2010-01-01T01:56:38Z</time>
      </trkpt>
      <trkpt lat="38.92098" lon="1.24747">
        <ele>159</ele>
        <time>2010-01-01T01:56:42Z</time>
      </trkpt>
      <trkpt lat="38.92101" lon="1.24758">
        <ele>159</ele>
        <time>2010-01-01T01:56:46Z</time>
      </trkpt>
      <trkpt lat="38.92107" lon="1.24767">
        <ele>158</ele>
        <time>2010-01-01T01:56:50Z</time>
      </trkpt>
      <trkpt lat="38.92115" lon="1.24774">
        <ele>156</ele>
        <time>2010-01-01T01:56:53Z</time>
      </trkpt>
      <trkpt lat="38.92121" lon="1.24783">
        <ele>156</ele>
        <time>2010-01-01T01:56:57Z</time>
      </trkpt>
      <trkpt lat="38.92125" lon="1.24795">
        <ele>156</ele>
        <time>2010-01-01T01:57:01Z</time>
      </trkpt>
      <trkpt lat="38.92126" lon="1.24807">
        <ele>157</ele>
        <time>2010-01-01T01:57:05Z</time>
      </trkpt>
      <trkpt lat="38.92126" lon="1.2482">
        <ele>157</ele>
        <time>2010-01-01T01:57:09Z</time>
      </trkpt>
      <trkpt lat="38.92125" lon="1.24831">
        <ele>158</ele>
        <time>2010-01-01T01:57:13Z</time>
      </trkpt>
      <trkpt lat="38.92119" lon="1.24842">
        <ele>158</ele>
        <time>2010-01-01T01:57:17Z</time>
      </trkpt>
      <trkpt lat="38.92113" lon="1.24851">
        <ele>158</ele>
        <time>2010-01-01T01:57:20Z</time>
      </trkpt>
      <trkpt lat="38.92106" lon="1.24861">
        <ele>160</ele>
        <time>2010-01-01T01:57:25Z</time>
      </trkpt>
      <trkpt lat="38.92098" lon="1.24866">
        <ele>162</ele>
        <time>2010-01-01T01:57:28Z</time>
      </trkpt>
      <trkpt lat="38.92089" lon="1.24869">
        <ele>165</ele>
        <time>2010-01-01T01:57:32Z</time>
      </trkpt>
      <trkpt lat="38.9208" lon="1.24874">
        <ele>167</ele>
        <time>2010-01-01T01:57:36Z</time>
      </trkpt>
      <trkpt lat="38.92071" lon="1.24878">
        <ele>169</ele>
        <time>2010-01-01T01:57:40Z</time>
      </trkpt>
      <trkpt lat="38.9206" lon="1.24881">
        <ele>171</ele>
        <time>2010-01-01T01:57:44Z</time>
      </trkpt>
      <trkpt lat="38.92051" lon="1.24883">
        <ele>173</ele>
        <time>2010-01-01T01:57:48Z</time>
      </trkpt>
      <trkpt lat="38.92043" lon="1.24889">
        <ele>173</ele>
        <time>2010-01-01T01:57:52Z</time>
      </trkpt>
      <trkpt lat="38.92033" lon="1.24894">
        <ele>173</ele>
        <time>2010-01-01T01:57:56Z</time>
      </trkpt>
      <trkpt lat="38.92023" lon="1.24897">
        <ele>174</ele>
        <time>2010-01-01T01:58:00Z</time>
      </trkpt>
      <trkpt lat="38.92015" lon="1.24903">
        <ele>174</ele>
        <time>2010-01-01T01:58:04Z</time>
      </trkpt>
      <trkpt lat="38.92007" lon="1.24911">
        <ele>173</ele>
        <time>2010-01-01T01:58:08Z</time>
      </trkpt>
      <trkpt lat="38.91998" lon="1.24916">
        <ele>174</ele>
        <time>2010-01-01T01:58:12Z</time>
      </trkpt>
      <trkpt lat="38.91987" lon="1.24921">
        <ele>175</ele>
        <time>2010-01-01T01:58:16Z</time>
      </trkpt>
      <trkpt lat="38.91978" lon="1.24923">
        <ele>176</ele>
        <time>2010-01-01T01:58:20Z</time>
      </trkpt>
      <trkpt lat="38.91969" lon="1.24925">
        <ele>177</ele>
        <time>2010-01-01T01:58:24Z</time>
      </trkpt>
      <trkpt lat="38.9196" lon="1.24927">
        <ele>178</ele>
        <time>2010-01-01T01:58:27Z</time>
      </trkpt>
      <trkpt lat="38.91951" lon="1.24926">
        <ele>179</ele>
        <time>2010-01-01T01:58:31Z</time>
      </trkpt>
      <trkpt lat="38.91941" lon="1.24925">
        <ele>179</ele>
        <time>2010-01-01T01:58:35Z</time>
      </trkpt>
      <trkpt lat="38.9193" lon="1.24924">
        <ele>178</ele>
        <time>2010-01-01T01:58:39Z</time>
      </trkpt>
      <trkpt lat="38.9192" lon="1.24922">
        <ele>178</ele>
        <time>2010-01-01T01:58:43Z</time>
      </trkpt>
      <trkpt lat="38.91909" lon="1.24921">
        <ele>176</ele>
        <time>2010-01-01T01:58:48Z</time>
      </trkpt>
      <trkpt lat="38.91899" lon="1.24923">
        <ele>174</ele>
        <time>2010-01-01T01:58:52Z</time>
      </trkpt>
      <trkpt lat="38.9189" lon="1.24925">
        <ele>173</ele>
        <time>2010-01-01T01:58:56Z</time>
      </trkpt>
      <trkpt lat="38.9188" lon="1.24928">
        <ele>172</ele>
        <time>2010-01-01T01:59:00Z</time>
      </trkpt>
      <trkpt lat="38.91871" lon="1.24931">
        <ele>172</ele>
        <time>2010-01-01T01:59:03Z</time>
      </trkpt>
      <trkpt lat="38.9186" lon="1.24932">
        <ele>171</ele>
        <time>2010-01-01T01:59:08Z</time>
      </trkpt>
      <trkpt lat="38.91851" lon="1.24937">
        <ele>171</ele>
        <time>2010-01-01T01:59:12Z</time>
      </trkpt>
      <trkpt lat="38.91842" lon="1.24943">
        <ele>172</ele>
        <time>2010-01-01T01:59:16Z</time>
      </trkpt>
      <trkpt lat="38.91835" lon="1.2495">
        <ele>172</ele>
        <time>2010-01-01T01:59:19Z</time>
      </trkpt>
      <trkpt lat="38.91827" lon="1.24959">
        <ele>172</ele>
        <time>2010-01-01T01:59:24Z</time>
      </trkpt>
      <trkpt lat="38.91819" lon="1.24966">
        <ele>172</ele>
        <time>2010-01-01T01:59:27Z</time>
      </trkpt>
      <trkpt lat="38.9181" lon="1.24968">
        <ele>171</ele>
        <time>2010-01-01T01:59:31Z</time>
      </trkpt>
      <trkpt lat="38.918" lon="1.24971">
        <ele>170</ele>
        <time>2010-01-01T01:59:35Z</time>
      </trkpt>
      <trkpt lat="38.9179" lon="1.24973">
        <ele>169</ele>
        <time>2010-01-01T01:59:39Z</time>
      </trkpt>
      <trkpt lat="38.91781" lon="1.24976">
        <ele>169</ele>
        <time>2010-01-01T01:59:43Z</time>
      </trkpt>
      <trkpt lat="38.91772" lon="1.24978">
        <ele>169</ele>
        <time>2010-01-01T01:59:47Z</time>
      </trkpt>
      <trkpt lat="38.91761" lon="1.24977">
        <ele>169</ele>
        <time>2010-01-01T01:59:51Z</time>
      </trkpt>
      <trkpt lat="38.9175" lon="1.24977">
        <ele>169</ele>
        <time>2010-01-01T01:59:56Z</time>
      </trkpt>
      <trkpt lat="38.91739" lon="1.24973">
        <ele>169</ele>
        <time>2010-01-01T02:00:00Z</time>
      </trkpt>
      <trkpt lat="38.9173" lon="1.24969">
        <ele>170</ele>
        <time>2010-01-01T02:00:04Z</time>
      </trkpt>
      <trkpt lat="38.9172" lon="1.24966">
        <ele>170</ele>
        <time>2010-01-01T02:00:08Z</time>
      </trkpt>
      <trkpt lat="38.91712" lon="1.2496">
        <ele>169</ele>
        <time>2010-01-01T02:00:12Z</time>
      </trkpt>
      <trkpt lat="38.91703" lon="1.2495">
        <ele>168</ele>
        <time>2010-01-01T02:00:16Z</time>
      </trkpt>
      <trkpt lat="38.91695" lon="1.24942">
        <ele>167</ele>
        <time>2010-01-01T02:00:20Z</time>
      </trkpt>
      <trkpt lat="38.91685" lon="1.24944">
        <ele>166</ele>
        <time>2010-01-01T02:00:25Z</time>
      </trkpt>
      <trkpt lat="38.91677" lon="1.24949">
        <ele>166</ele>
        <time>2010-01-01T02:00:28Z</time>
      </trkpt>
      <trkpt lat="38.91669" lon="1.24956">
        <ele>166</ele>
        <time>2010-01-01T02:00:32Z</time>
      </trkpt>
      <trkpt lat="38.9166" lon="1.2496">
        <ele>166</ele>
        <time>2010-01-01T02:00:36Z</time>
      </trkpt>
      <trkpt lat="38.9165" lon="1.24965">
        <ele>167</ele>
        <time>2010-01-01T02:00:40Z</time>
      </trkpt>
      <trkpt lat="38.91642" lon="1.2497">
        <ele>168</ele>
        <time>2010-01-01T02:00:44Z</time>
      </trkpt>
      <trkpt lat="38.91632" lon="1.24976">
        <ele>168</ele>
        <time>2010-01-01T02:00:48Z</time>
      </trkpt>
      <trkpt lat="38.91624" lon="1.24982">
        <ele>168</ele>
        <time>2010-01-01T02:00:52Z</time>
      </trkpt>
      <trkpt lat="38.91614" lon="1.2499">
        <ele>168</ele>
        <time>2010-01-01T02:00:56Z</time>
      </trkpt>
      <trkpt lat="38.91606" lon="1.24999">
        <ele>168</ele>
        <time>2010-01-01T02:01:01Z</time>
      </trkpt>
      <trkpt lat="38.91598" lon="1.25007">
        <ele>168</ele>
        <time>2010-01-01T02:01:05Z</time>
      </trkpt>
      <trkpt lat="38.9159" lon="1.25014">
        <ele>169</ele>
        <time>2010-01-01T02:01:09Z</time>
      </trkpt>
      <trkpt lat="38.91583" lon="1.25024">
        <ele>169</ele>
        <time>2010-01-01T02:01:13Z</time>
      </trkpt>
      <trkpt lat="38.91578" lon="1.25036">
        <ele>170</ele>
        <time>2010-01-01T02:01:17Z</time>
      </trkpt>
      <trkpt lat="38.91572" lon="1.25046">
        <ele>170</ele>
        <time>2010-01-01T02:01:21Z</time>
      </trkpt>
      <trkpt lat="38.91569" lon="1.25058">
        <ele>170</ele>
        <time>2010-01-01T02:01:25Z</time>
      </trkpt>
      <trkpt lat="38.91563" lon="1.25069">
        <ele>170</ele>
        <time>2010-01-01T02:01:29Z</time>
      </trkpt>
      <trkpt lat="38.91559" lon="1.2508">
        <ele>170</ele>
        <time>2010-01-01T02:01:33Z</time>
      </trkpt>
      <trkpt lat="38.91557" lon="1.25093">
        <ele>171</ele>
        <time>2010-01-01T02:01:37Z</time>
      </trkpt>
      <trkpt lat="38.91556" lon="1.25106">
        <ele>172</ele>
        <time>2010-01-01T02:01:41Z</time>
      </trkpt>
      <trkpt lat="38.91552" lon="1.25117">
        <ele>173</ele>
        <time>2010-01-01T02:01:45Z</time>
      </trkpt>
      <trkpt lat="38.91549" lon="1.25129">
        <ele>174</ele>
        <time>2010-01-01T02:01:49Z</time>
      </trkpt>
      <trkpt lat="38.91551" lon="1.25141">
        <ele>175</ele>
        <time>2010-01-01T02:01:52Z</time>
      </trkpt>
      <trkpt lat="38.91557" lon="1.25151">
        <ele>177</ele>
        <time>2010-01-01T02:01:56Z</time>
      </trkpt>
      <trkpt lat="38.91562" lon="1.25161">
        <ele>179</ele>
        <time>2010-01-01T02:02:00Z</time>
      </trkpt>
      <trkpt lat="38.91564" lon="1.25173">
        <ele>180</ele>
        <time>2010-01-01T02:02:04Z</time>
      </trkpt>
      <trkpt lat="38.91563" lon="1.25185">
        <ele>181</ele>
        <time>2010-01-01T02:02:08Z</time>
      </trkpt>
      <trkpt lat="38.91559" lon="1.25196">
        <ele>182</ele>
        <time>2010-01-01T02:02:12Z</time>
      </trkpt>
      <trkpt lat="38.91551" lon="1.25206">
        <ele>183</ele>
        <time>2010-01-01T02:02:16Z</time>
      </trkpt>
      <trkpt lat="38.91542" lon="1.2521">
        <ele>183</ele>
        <time>2010-01-01T02:02:20Z</time>
      </trkpt>
      <trkpt lat="38.91531" lon="1.2521">
        <ele>183</ele>
        <time>2010-01-01T02:02:24Z</time>
      </trkpt>
      <trkpt lat="38.91521" lon="1.25206">
        <ele>182</ele>
        <time>2010-01-01T02:02:28Z</time>
      </trkpt>
      <trkpt lat="38.91506" lon="1.25204">
        <ele>182</ele>
        <time>2010-01-01T02:02:35Z</time>
      </trkpt>
      <trkpt lat="38.91495" lon="1.25201">
        <ele>182</ele>
        <time>2010-01-01T02:02:39Z</time>
      </trkpt>
      <trkpt lat="38.91487" lon="1.25196">
        <ele>182</ele>
        <time>2010-01-01T02:02:43Z</time>
      </trkpt>
      <trkpt lat="38.91477" lon="1.25192">
        <ele>182</ele>
        <time>2010-01-01T02:02:47Z</time>
      </trkpt>
      <trkpt lat="38.91467" lon="1.25188">
        <ele>180</ele>
        <time>2010-01-01T02:02:51Z</time>
      </trkpt>
      <trkpt lat="38.91457" lon="1.25184">
        <ele>179</ele>
        <time>2010-01-01T02:02:55Z</time>
      </trkpt>
      <trkpt lat="38.91446" lon="1.25183">
        <ele>178</ele>
        <time>2010-01-01T02:02:59Z</time>
      </trkpt>
      <trkpt lat="38.91437" lon="1.25182">
        <ele>177</ele>
        <time>2010-01-01T02:03:03Z</time>
      </trkpt>
      <trkpt lat="38.91426" lon="1.25182">
        <ele>177</ele>
        <time>2010-01-01T02:03:08Z</time>
      </trkpt>
      <trkpt lat="38.91417" lon="1.25178">
        <ele>176</ele>
        <time>2010-01-01T02:03:11Z</time>
      </trkpt>
      <trkpt lat="38.91408" lon="1.25173">
        <ele>175</ele>
        <time>2010-01-01T02:03:15Z</time>
      </trkpt>
      <trkpt lat="38.91398" lon="1.2517">
        <ele>174</ele>
        <time>2010-01-01T02:03:20Z</time>
      </trkpt>
      <trkpt lat="38.91388" lon="1.25166">
        <ele>172</ele>
        <time>2010-01-01T02:03:23Z</time>
      </trkpt>
      <trkpt lat="38.91379" lon="1.25159">
        <ele>171</ele>
        <time>2010-01-01T02:03:28Z</time>
      </trkpt>
      <trkpt lat="38.91369" lon="1.25152">
        <ele>169</ele>
        <time>2010-01-01T02:03:32Z</time>
      </trkpt>
      <trkpt lat="38.91359" lon="1.2515">
        <ele>168</ele>
        <time>2010-01-01T02:03:36Z</time>
      </trkpt>
      <trkpt lat="38.9135" lon="1.2515">
        <ele>168</ele>
        <time>2010-01-01T02:03:40Z</time>
      </trkpt>
      <trkpt lat="38.91341" lon="1.25146">
        <ele>167</ele>
        <time>2010-01-01T02:03:44Z</time>
      </trkpt>
      <trkpt lat="38.91332" lon="1.25139">
        <ele>165</ele>
        <time>2010-01-01T02:03:48Z</time>
      </trkpt>
      <trkpt lat="38.91324" lon="1.2513">
        <ele>164</ele>
        <time>2010-01-01T02:03:52Z</time>
      </trkpt>
      <trkpt lat="38.91319" lon="1.2512">
        <ele>162</ele>
        <time>2010-01-01T02:03:56Z</time>
      </trkpt>
      <trkpt lat="38.91319" lon="1.25106">
        <ele>160</ele>
        <time>2010-01-01T02:04:00Z</time>
      </trkpt>
      <trkpt lat="38.91319" lon="1.25095">
        <ele>159</ele>
        <time>2010-01-01T02:04:04Z</time>
      </trkpt>
      <trkpt lat="38.91317" lon="1.25083">
        <ele>157</ele>
        <time>2010-01-01T02:04:08Z</time>
      </trkpt>
      <trkpt lat="38.91316" lon="1.25072">
        <ele>156</ele>
        <time>2010-01-01T02:04:11Z</time>
      </trkpt>
      <trkpt lat="38.91316" lon="1.25059">
        <ele>154</ele>
        <time>2010-01-01T02:04:15Z</time>
      </trkpt>
      <trkpt lat="38.91322" lon="1.25047">
        <ele>152</ele>
        <time>2010-01-01T02:04:19Z</time>
      </trkpt>
      <trkpt lat="38.91327" lon="1.25034">
        <ele>151</ele>
        <time>2010-01-01T02:04:24Z</time>
      </trkpt>
      <trkpt lat="38.91328" lon="1.2502">
        <ele>149</ele>
        <time>2010-01-01T02:04:28Z</time>
      </trkpt>
      <trkpt lat="38.91327" lon="1.25006">
        <ele>148</ele>
        <time>2010-01-01T02:04:33Z</time>
      </trkpt>
      <trkpt lat="38.91323" lon="1.24992">
        <ele>146</ele>
        <time>2010-01-01T02:04:37Z</time>
      </trkpt>
      <trkpt lat="38.91318" lon="1.2498">
        <ele>144</ele>
        <time>2010-01-01T02:04:42Z</time>
      </trkpt>
      <trkpt lat="38.91315" lon="1.24969">
        <ele>142</ele>
        <time>2010-01-01T02:04:46Z</time>
      </trkpt>
      <trkpt lat="38.91313" lon="1.24957">
        <ele>141</ele>
        <time>2010-01-01T02:04:49Z</time>
      </trkpt>
      <trkpt lat="38.91313" lon="1.24943">
        <ele>139</ele>
        <time>2010-01-01T02:04:54Z</time>
      </trkpt>
      <trkpt lat="38.91309" lon="1.24933">
        <ele>138</ele>
        <time>2010-01-01T02:04:57Z</time>
      </trkpt>
      <trkpt lat="38.91305" lon="1.24921">
        <ele>137</ele>
        <time>2010-01-01T02:05:01Z</time>
      </trkpt>
      <trkpt lat="38.91303" lon="1.24908">
        <ele>136</ele>
        <time>2010-01-01T02:05:05Z</time>
      </trkpt>
      <trkpt lat="38.91304" lon="1.24894">
        <ele>135</ele>
        <time>2010-01-01T02:05:10Z</time>
      </trkpt>
      <trkpt lat="38.91308" lon="1.24881">
        <ele>134</ele>
        <time>2010-01-01T02:05:14Z</time>
      </trkpt>
      <trkpt lat="38.9131" lon="1.2487">
        <ele>133</ele>
        <time>2010-01-01T02:05:18Z</time>
      </trkpt>
      <trkpt lat="38.91313" lon="1.24856">
        <ele>132</ele>
        <time>2010-01-01T02:05:22Z</time>
      </trkpt>
      <trkpt lat="38.91313" lon="1.24844">
        <ele>131</ele>
        <time>2010-01-01T02:05:26Z</time>
      </trkpt>
      <trkpt lat="38.91311" lon="1.24833">
        <ele>130</ele>
        <time>2010-01-01T02:05:30Z</time>
      </trkpt>
      <trkpt lat="38.91307" lon="1.24822">
        <ele>129</ele>
        <time>2010-01-01T02:05:33Z</time>
      </trkpt>
      <trkpt lat="38.91303" lon="1.2481">
        <ele>129</ele>
        <time>2010-01-01T02:05:37Z</time>
      </trkpt>
      <trkpt lat="38.91295" lon="1.24801">
        <ele>128</ele>
        <time>2010-01-01T02:05:41Z</time>
      </trkpt>
      <trkpt lat="38.91287" lon="1.24791">
        <ele>127</ele>
        <time>2010-01-01T02:05:46Z</time>
      </trkpt>
      <trkpt lat="38.91279" lon="1.24782">
        <ele>125</ele>
        <time>2010-01-01T02:05:50Z</time>
      </trkpt>
      <trkpt lat="38.91273" lon="1.24772">
        <ele>124</ele>
        <time>2010-01-01T02:05:54Z</time>
      </trkpt>
      <trkpt lat="38.91266" lon="1.24762">
        <ele>123</ele>
        <time>2010-01-01T02:05:58Z</time>
      </trkpt>
      <trkpt lat="38.91261" lon="1.24752">
        <ele>122</ele>
        <time>2010-01-01T02:06:02Z</time>
      </trkpt>
      <trkpt lat="38.91256" lon="1.24742">
        <ele>121</ele>
        <time>2010-01-01T02:06:06Z</time>
      </trkpt>
      <trkpt lat="38.91247" lon="1.24737">
        <ele>120</ele>
        <time>2010-01-01T02:06:10Z</time>
      </trkpt>
      <trkpt lat="38.9124" lon="1.24729">
        <ele>119</ele>
        <time>2010-01-01T02:06:13Z</time>
      </trkpt>
      <trkpt lat="38.9123" lon="1.24723">
        <ele>119</ele>
        <time>2010-01-01T02:06:18Z</time>
      </trkpt>
      <trkpt lat="38.9122" lon="1.24719">
        <ele>119</ele>
        <time>2010-01-01T02:06:22Z</time>
      </trkpt>
      <trkpt lat="38.91209" lon="1.24717">
        <ele>120</ele>
        <time>2010-01-01T02:06:27Z</time>
      </trkpt>
      <trkpt lat="38.91199" lon="1.24719">
        <ele>121</ele>
        <time>2010-01-01T02:06:31Z</time>
      </trkpt>
      <trkpt lat="38.91188" lon="1.24714">
        <ele>122</ele>
        <time>2010-01-01T02:06:35Z</time>
      </trkpt>
      <trkpt lat="38.9118" lon="1.24707">
        <ele>123</ele>
        <time>2010-01-01T02:06:39Z</time>
      </trkpt>
      <trkpt lat="38.91172" lon="1.24702">
        <ele>124</ele>
        <time>2010-01-01T02:06:43Z</time>
      </trkpt>
      <trkpt lat="38.91163" lon="1.24695">
        <ele>125</ele>
        <time>2010-01-01T02:06:47Z</time>
      </trkpt>
      <trkpt lat="38.91155" lon="1.24689">
        <ele>125</ele>
        <time>2010-01-01T02:06:51Z</time>
      </trkpt>
      <trkpt lat="38.9115" lon="1.24678">
        <ele>125</ele>
        <time>2010-01-01T02:06:54Z</time>
      </trkpt>
      <trkpt lat="38.91147" lon="1.24666">
        <ele>123</ele>
        <time>2010-01-01T02:06:58Z</time>
      </trkpt>
      <trkpt lat="38.91145" lon="1.24653">
        <ele>123</ele>
        <time>2010-01-01T02:07:03Z</time>
      </trkpt>
      <trkpt lat="38.9114" lon="1.24641">
        <ele>122</ele>
        <time>2010-01-01T02:07:07Z</time>
      </trkpt>
      <trkpt lat="38.91138" lon="1.24628">
        <ele>121</ele>
        <time>2010-01-01T02:07:11Z</time>
      </trkpt>
      <trkpt lat="38.91133" lon="1.24616">
        <ele>120</ele>
        <time>2010-01-01T02:07:15Z</time>
      </trkpt>
      <trkpt lat="38.91127" lon="1.24607">
        <ele>120</ele>
        <time>2010-01-01T02:07:19Z</time>
      </trkpt>
      <trkpt lat="38.91121" lon="1.24596">
        <ele>119</ele>
        <time>2010-01-01T02:07:23Z</time>
      </trkpt>
      <trkpt lat="38.91116" lon="1.24586">
        <ele>118</ele>
        <time>2010-01-01T02:07:27Z</time>
      </trkpt>
      <trkpt lat="38.91112" lon="1.24576">
        <ele>117</ele>
        <time>2010-01-01T02:07:30Z</time>
      </trkpt>
      <trkpt lat="38.91105" lon="1.24566">
        <ele>115</ele>
        <time>2010-01-01T02:07:34Z</time>
      </trkpt>
      <trkpt lat="38.91099" lon="1.24555">
        <ele>113</ele>
        <time>2010-01-01T02:07:38Z</time>
      </trkpt>
      <trkpt lat="38.91097" lon="1.24542">
        <ele>112</ele>
        <time>2010-01-01T02:07:43Z</time>
      </trkpt>
      <trkpt lat="38.91094" lon="1.24529">
        <ele>110</ele>
        <time>2010-01-01T02:07:47Z</time>
      </trkpt>
      <trkpt lat="38.91087" lon="1.24518">
        <ele>109</ele>
        <time>2010-01-01T02:07:51Z</time>
      </trkpt>
      <trkpt lat="38.91082" lon="1.24508">
        <ele>107</ele>
        <time>2010-01-01T02:07:55Z</time>
      </trkpt>
      <trkpt lat="38.91076" lon="1.24496">
        <ele>106</ele>
        <time>2010-01-01T02:07:59Z</time>
      </trkpt>
      <trkpt lat="38.91073" lon="1.24484">
        <ele>105</ele>
        <time>2010-01-01T02:08:03Z</time>
      </trkpt>
      <trkpt lat="38.9107" lon="1.2447">
        <ele>104</ele>
        <time>2010-01-01T02:08:08Z</time>
      </trkpt>
      <trkpt lat="38.91069" lon="1.24456">
        <ele>102</ele>
        <time>2010-01-01T02:08:12Z</time>
      </trkpt>
      <trkpt lat="38.9107" lon="1.24443">
        <ele>101</ele>
        <time>2010-01-01T02:08:16Z</time>
      </trkpt>
      <trkpt lat="38.91066" lon="1.24432">
        <ele>100</ele>
        <time>2010-01-01T02:08:20Z</time>
      </trkpt>
      <trkpt lat="38.9106" lon="1.24423">
        <ele>100</ele>
        <time>2010-01-01T02:08:24Z</time>
      </trkpt>
      <trkpt lat="38.91051" lon="1.24413">
        <ele>100</ele>
        <time>2010-01-01T02:08:28Z</time>
      </trkpt>
      <trkpt lat="38.91042" lon="1.24405">
        <ele>100</ele>
        <time>2010-01-01T02:08:33Z</time>
      </trkpt>
      <trkpt lat="38.91034" lon="1.24397">
        <ele>101</ele>
        <time>2010-01-01T02:08:37Z</time>
      </trkpt>
      <trkpt lat="38.91026" lon="1.24389">
        <ele>101</ele>
        <time>2010-01-01T02:08:41Z</time>
      </trkpt>
      <trkpt lat="38.91017" lon="1.24384">
        <ele>102</ele>
        <time>2010-01-01T02:08:45Z</time>
      </trkpt>
      <trkpt lat="38.91011" lon="1.24372">
        <ele>102</ele>
        <time>2010-01-01T02:08:49Z</time>
      </trkpt>
      <trkpt lat="38.91006" lon="1.24359">
        <ele>101</ele>
        <time>2010-01-01T02:08:54Z</time>
      </trkpt>
      <trkpt lat="38.91" lon="1.24348">
        <ele>100</ele>
        <time>2010-01-01T02:08:58Z</time>
      </trkpt>
      <trkpt lat="38.90992" lon="1.24338">
        <ele>101</ele>
        <time>2010-01-01T02:09:02Z</time>
      </trkpt>
      <trkpt lat="38.90983" lon="1.24329">
        <ele>102</ele>
        <time>2010-01-01T02:09:07Z</time>
      </trkpt>
      <trkpt lat="38.90977" lon="1.24321">
        <ele>102</ele>
        <time>2010-01-01T02:09:10Z</time>
      </trkpt>
      <trkpt lat="38.90971" lon="1.24311">
        <ele>101</ele>
        <time>2010-01-01T02:09:14Z</time>
      </trkpt>
      <trkpt lat="38.90966" lon="1.243">
        <ele>100</ele>
        <time>2010-01-01T02:09:18Z</time>
      </trkpt>
      <trkpt lat="38.9096" lon="1.24291">
        <ele>100</ele>
        <time>2010-01-01T02:09:22Z</time>
      </trkpt>
      <trkpt lat="38.90953" lon="1.24281">
        <ele>100</ele>
        <time>2010-01-01T02:09:26Z</time>
      </trkpt>
      <trkpt lat="38.90946" lon="1.24273">
        <ele>101</ele>
        <time>2010-01-01T02:09:30Z</time>
      </trkpt>
      <trkpt lat="38.90938" lon="1.24263">
        <ele>100</ele>
        <time>2010-01-01T02:09:34Z</time>
      </trkpt>
      <trkpt lat="38.90928" lon="1.24255">
        <ele>100</ele>
        <time>2010-01-01T02:09:39Z</time>
      </trkpt>
      <trkpt lat="38.90918" lon="1.24248">
        <ele>101</ele>
        <time>2010-01-01T02:09:43Z</time>
      </trkpt>
      <trkpt lat="38.90908" lon="1.24239">
        <ele>99</ele>
        <time>2010-01-01T02:09:48Z</time>
      </trkpt>
      <trkpt lat="38.909" lon="1.24232">
        <ele>99</ele>
        <time>2010-01-01T02:09:52Z</time>
      </trkpt>
      <trkpt lat="38.90897" lon="1.24219">
        <ele>97</ele>
        <time>2010-01-01T02:09:57Z</time>
      </trkpt>
      <trkpt lat="38.90892" lon="1.24208">
        <ele>97</ele>
        <time>2010-01-01T02:10:01Z</time>
      </trkpt>
      <trkpt lat="38.90886" lon="1.24198">
        <ele>98</ele>
        <time>2010-01-01T02:10:05Z</time>
      </trkpt>
      <trkpt lat="38.90878" lon="1.24189">
        <ele>98</ele>
        <time>2010-01-01T02:10:09Z</time>
      </trkpt>
      <trkpt lat="38.90871" lon="1.24181">
        <ele>99</ele>
        <time>2010-01-01T02:10:12Z</time>
      </trkpt>
      <trkpt lat="38.90864" lon="1.24172">
        <ele>99</ele>
        <time>2010-01-01T02:10:16Z</time>
      </trkpt>
      <trkpt lat="38.90855" lon="1.24167">
        <ele>101</ele>
        <time>2010-01-01T02:10:20Z</time>
      </trkpt>
      <trkpt lat="38.90848" lon="1.2416">
        <ele>100</ele>
        <time>2010-01-01T02:10:24Z</time>
      </trkpt>
      <trkpt lat="38.90839" lon="1.24153">
        <ele>100</ele>
        <time>2010-01-01T02:10:28Z</time>
      </trkpt>
      <trkpt lat="38.90831" lon="1.24145">
        <ele>99</ele>
        <time>2010-01-01T02:10:32Z</time>
      </trkpt>
      <trkpt lat="38.90822" lon="1.24139">
        <ele>98</ele>
        <time>2010-01-01T02:10:36Z</time>
      </trkpt>
      <trkpt lat="38.90814" lon="1.24131">
        <ele>97</ele>
        <time>2010-01-01T02:10:40Z</time>
      </trkpt>
      <trkpt lat="38.90804" lon="1.24124">
        <ele>96</ele>
        <time>2010-01-01T02:10:45Z</time>
      </trkpt>
      <trkpt lat="38.90796" lon="1.24117">
        <ele>96</ele>
        <time>2010-01-01T02:10:49Z</time>
      </trkpt>
      <trkpt lat="38.90788" lon="1.24107">
        <ele>96</ele>
        <time>2010-01-01T02:10:53Z</time>
      </trkpt>
      <trkpt lat="38.9078" lon="1.24099">
        <ele>96</ele>
        <time>2010-01-01T02:10:57Z</time>
      </trkpt>
      <trkpt lat="38.90771" lon="1.24093">
        <ele>96</ele>
        <time>2010-01-01T02:11:01Z</time>
      </trkpt>
      <trkpt lat="38.9076" lon="1.2409">
        <ele>96</ele>
        <time>2010-01-01T02:11:06Z</time>
      </trkpt>
      <trkpt lat="38.90752" lon="1.24084">
        <ele>95</ele>
        <time>2010-01-01T02:11:10Z</time>
      </trkpt>
      <trkpt lat="38.90743" lon="1.24076">
        <ele>94</ele>
        <time>2010-01-01T02:11:14Z</time>
      </trkpt>
      <trkpt lat="38.90736" lon="1.24067">
        <ele>93</ele>
        <time>2010-01-01T02:11:18Z</time>
      </trkpt>
      <trkpt lat="38.90727" lon="1.24057">
        <ele>91</ele>
        <time>2010-01-01T02:11:22Z</time>
      </trkpt>
      <trkpt lat="38.90719" lon="1.24049">
        <ele>90</ele>
        <time>2010-01-01T02:11:27Z</time>
      </trkpt>
      <trkpt lat="38.90714" lon="1.24037">
        <ele>88</ele>
        <time>2010-01-01T02:11:31Z</time>
      </trkpt>
      <trkpt lat="38.9071" lon="1.24025">
        <ele>86</ele>
        <time>2010-01-01T02:11:35Z</time>
      </trkpt>
      <trkpt lat="38.90704" lon="1.24015">
        <ele>85</ele>
        <time>2010-01-01T02:11:39Z</time>
      </trkpt>
      <trkpt lat="38.90691" lon="1.24018">
        <ele>86</ele>
        <time>2010-01-01T02:11:44Z</time>
      </trkpt>
      <trkpt lat="38.9068" lon="1.24021">
        <ele>87</ele>
        <time>2010-01-01T02:11:49Z</time>
      </trkpt>
      <trkpt lat="38.9067" lon="1.24021">
        <ele>87</ele>
        <time>2010-01-01T02:11:53Z</time>
      </trkpt>
      <trkpt lat="38.9066" lon="1.24015">
        <ele>87</ele>
        <time>2010-01-01T02:11:57Z</time>
      </trkpt>
      <trkpt lat="38.90657" lon="1.24003">
        <ele>86</ele>
        <time>2010-01-01T02:12:01Z</time>
      </trkpt>
      <trkpt lat="38.90658" lon="1.23989">
        <ele>86</ele>
        <time>2010-01-01T02:12:05Z</time>
      </trkpt>
      <trkpt lat="38.90661" lon="1.23977">
        <ele>86</ele>
        <time>2010-01-01T02:12:09Z</time>
      </trkpt>
      <trkpt lat="38.90663" lon="1.23966">
        <ele>86</ele>
        <time>2010-01-01T02:12:13Z</time>
      </trkpt>
      <trkpt lat="38.90667" lon="1.23955">
        <ele>85</ele>
        <time>2010-01-01T02:12:16Z</time>
      </trkpt>
      <trkpt lat="38.90667" lon="1.23944">
        <ele>85</ele>
        <time>2010-01-01T02:12:20Z</time>
      </trkpt>
      <trkpt lat="38.9066" lon="1.23935">
        <ele>86</ele>
        <time>2010-01-01T02:12:24Z</time>
      </trkpt>
      <trkpt lat="38.90654" lon="1.23926">
        <ele>86</ele>
        <time>2010-01-01T02:12:28Z</time>
      </trkpt>
      <trkpt lat="38.90647" lon="1.23916">
        <ele>86</ele>
        <time>2010-01-01T02:12:32Z</time>
      </trkpt>
      <trkpt lat="38.90639" lon="1.23906">
        <ele>86</ele>
        <time>2010-01-01T02:12:36Z</time>
      </trkpt>
      <trkpt lat="38.90632" lon="1.23897">
        <ele>86</ele>
        <time>2010-01-01T02:12:41Z</time>
      </trkpt>
      <trkpt lat="38.90624" lon="1.23888">
        <ele>86</ele>
        <time>2010-01-01T02:12:45Z</time>
      </trkpt>
      <trkpt lat="38.90617" lon="1.2388">
        <ele>86</ele>
        <time>2010-01-01T02:12:48Z</time>
      </trkpt>
      <trkpt lat="38.9061" lon="1.23872">
        <ele>86</ele>
        <time>2010-01-01T02:12:52Z</time>
      </trkpt>
      <trkpt lat="38.90602" lon="1.23864">
        <ele>86</ele>
        <time>2010-01-01T02:12:56Z</time>
      </trkpt>
      <trkpt lat="38.90595" lon="1.23854">
        <ele>86</ele>
        <time>2010-01-01T02:13:00Z</time>
      </trkpt>
      <trkpt lat="38.90588" lon="1.23843">
        <ele>86</ele>
        <time>2010-01-01T02:13:05Z</time>
      </trkpt>
      <trkpt lat="38.90581" lon="1.23834">
        <ele>86</ele>
        <time>2010-01-01T02:13:09Z</time>
      </trkpt>
      <trkpt lat="38.90576" lon="1.23823">
        <ele>84</ele>
        <time>2010-01-01T02:13:13Z</time>
      </trkpt>
      <trkpt lat="38.90568" lon="1.23817">
        <ele>83</ele>
        <time>2010-01-01T02:13:16Z</time>
      </trkpt>
      <trkpt lat="38.90558" lon="1.23818">
        <ele>83</ele>
        <time>2010-01-01T02:13:20Z</time>
      </trkpt>
      <trkpt lat="38.90549" lon="1.23822">
        <ele>83</ele>
        <time>2010-01-01T02:13:24Z</time>
      </trkpt>
      <trkpt lat="38.90539" lon="1.23825">
        <ele>82</ele>
        <time>2010-01-01T02:13:28Z</time>
      </trkpt>
      <trkpt lat="38.90529" lon="1.23831">
        <ele>81</ele>
        <time>2010-01-01T02:13:33Z</time>
      </trkpt>
      <trkpt lat="38.90519" lon="1.23835">
        <ele>80</ele>
        <time>2010-01-01T02:13:37Z</time>
      </trkpt>
      <trkpt lat="38.9051" lon="1.23838">
        <ele>78</ele>
        <time>2010-01-01T02:13:41Z</time>
      </trkpt>
      <trkpt lat="38.90499" lon="1.23841">
        <ele>76</ele>
        <time>2010-01-01T02:13:45Z</time>
      </trkpt>
      <trkpt lat="38.90487" lon="1.23839">
        <ele>75</ele>
        <time>2010-01-01T02:13:50Z</time>
      </trkpt>
      <trkpt lat="38.90478" lon="1.2383">
        <ele>75</ele>
        <time>2010-01-01T02:13:55Z</time>
      </trkpt>
      <trkpt lat="38.90478" lon="1.23818">
        <ele>75</ele>
        <time>2010-01-01T02:13:58Z</time>
      </trkpt>
      <trkpt lat="38.90481" lon="1.23806">
        <ele>75</ele>
        <time>2010-01-01T02:14:02Z</time>
      </trkpt>
      <trkpt lat="38.90484" lon="1.23794">
        <ele>76</ele>
        <time>2010-01-01T02:14:06Z</time>
      </trkpt>
      <trkpt lat="38.90484" lon="1.23782">
        <ele>77</ele>
        <time>2010-01-01T02:14:10Z</time>
      </trkpt>
      <trkpt lat="38.90486" lon="1.2377">
        <ele>78</ele>
        <time>2010-01-01T02:14:14Z</time>
      </trkpt>
      <trkpt lat="38.90488" lon="1.23758">
        <ele>79</ele>
        <time>2010-01-01T02:14:18Z</time>
      </trkpt>
      <trkpt lat="38.90492" lon="1.23747">
        <ele>78</ele>
        <time>2010-01-01T02:14:21Z</time>
      </trkpt>
      <trkpt lat="38.90483" lon="1.23753">
        <ele>80</ele>
        <time>2010-01-01T02:14:26Z</time>
      </trkpt>
      <trkpt lat="38.90478" lon="1.23763">
        <ele>80</ele>
        <time>2010-01-01T02:14:29Z</time>
      </trkpt>
      <trkpt lat="38.90477" lon="1.23776">
        <ele>79</ele>
        <time>2010-01-01T02:14:34Z</time>
      </trkpt>
      <trkpt lat="38.90474" lon="1.23788">
        <ele>78</ele>
        <time>2010-01-01T02:14:37Z</time>
      </trkpt>
      <trkpt lat="38.90469" lon="1.23798">
        <ele>77</ele>
        <time>2010-01-01T02:14:41Z</time>
      </trkpt>
      <trkpt lat="38.90462" lon="1.23806">
        <ele>77</ele>
        <time>2010-01-01T02:14:45Z</time>
      </trkpt>
      <trkpt lat="38.90453" lon="1.23816">
        <ele>77</ele>
        <time>2010-01-01T02:14:49Z</time>
      </trkpt>
      <trkpt lat="38.90444" lon="1.2382">
        <ele>78</ele>
        <time>2010-01-01T02:14:53Z</time>
      </trkpt>
      <trkpt lat="38.90437" lon="1.23814">
        <ele>81</ele>
        <time>2010-01-01T02:14:57Z</time>
      </trkpt>
      <trkpt lat="38.90427" lon="1.23812">
        <ele>84</ele>
        <time>2010-01-01T02:15:01Z</time>
      </trkpt>
      <trkpt lat="38.90419" lon="1.23809">
        <ele>87</ele>
        <time>2010-01-01T02:15:04Z</time>
      </trkpt>
      <trkpt lat="38.90411" lon="1.23802">
        <ele>89</ele>
        <time>2010-01-01T02:15:08Z</time>
      </trkpt>
      <trkpt lat="38.90402" lon="1.23806">
        <ele>91</ele>
        <time>2010-01-01T02:15:12Z</time>
      </trkpt>
      <trkpt lat="38.90393" lon="1.23804">
        <ele>93</ele>
        <time>2010-01-01T02:15:16Z</time>
      </trkpt>
      <trkpt lat="38.90383" lon="1.23803">
        <ele>94</ele>
        <time>2010-01-01T02:15:19Z</time>
      </trkpt>
      <trkpt lat="38.90374" lon="1.23808">
        <ele>96</ele>
        <time>2010-01-01T02:15:23Z</time>
      </trkpt>
      <trkpt lat="38.90364" lon="1.23809">
        <ele>97</ele>
        <time>2010-01-01T02:15:27Z</time>
      </trkpt>
      <trkpt lat="38.90354" lon="1.23812">
        <ele>99</ele>
        <time>2010-01-01T02:15:32Z</time>
      </trkpt>
      <trkpt lat="38.90344" lon="1.23815">
        <ele>102</ele>
        <time>2010-01-01T02:15:36Z</time>
      </trkpt>
      <trkpt lat="38.90335" lon="1.23813">
        <ele>103</ele>
        <time>2010-01-01T02:15:39Z</time>
      </trkpt>
      <trkpt lat="38.90326" lon="1.23808">
        <ele>105</ele>
        <time>2010-01-01T02:15:43Z</time>
      </trkpt>
      <trkpt lat="38.90317" lon="1.23806">
        <ele>106</ele>
        <time>2010-01-01T02:15:47Z</time>
      </trkpt>
      <trkpt lat="38.90308" lon="1.23804">
        <ele>108</ele>
        <time>2010-01-01T02:15:51Z</time>
      </trkpt>
      <trkpt lat="38.90298" lon="1.23806">
        <ele>110</ele>
        <time>2010-01-01T02:15:54Z</time>
      </trkpt>
      <trkpt lat="38.90292" lon="1.23814">
        <ele>112</ele>
        <time>2010-01-01T02:15:58Z</time>
      </trkpt>
      <trkpt lat="38.9029" lon="1.23827">
        <ele>113</ele>
        <time>2010-01-01T02:16:02Z</time>
      </trkpt>
      <trkpt lat="38.90293" lon="1.2384">
        <ele>114</ele>
        <time>2010-01-01T02:16:06Z</time>
      </trkpt>
      <trkpt lat="38.90294" lon="1.23851">
        <ele>115</ele>
        <time>2010-01-01T02:16:10Z</time>
      </trkpt>
      <trkpt lat="38.90296" lon="1.23863">
        <ele>116</ele>
        <time>2010-01-01T02:16:14Z</time>
      </trkpt>
      <trkpt lat="38.90294" lon="1.23877">
        <ele>117</ele>
        <time>2010-01-01T02:16:18Z</time>
      </trkpt>
      <trkpt lat="38.90297" lon="1.2389">
        <ele>118</ele>
        <time>2010-01-01T02:16:22Z</time>
      </trkpt>
      <trkpt lat="38.90299" lon="1.23903">
        <ele>118</ele>
        <time>2010-01-01T02:16:26Z</time>
      </trkpt>
      <trkpt lat="38.90296" lon="1.23914">
        <ele>118</ele>
        <time>2010-01-01T02:16:30Z</time>
      </trkpt>
      <trkpt lat="38.90294" lon="1.23926">
        <ele>119</ele>
        <time>2010-01-01T02:16:34Z</time>
      </trkpt>
      <trkpt lat="38.90292" lon="1.23939">
        <ele>119</ele>
        <time>2010-01-01T02:16:38Z</time>
      </trkpt>
      <trkpt lat="38.90294" lon="1.23953">
        <ele>119</ele>
        <time>2010-01-01T02:16:42Z</time>
      </trkpt>
      <trkpt lat="38.90295" lon="1.23964">
        <ele>119</ele>
        <time>2010-01-01T02:16:46Z</time>
      </trkpt>
      <trkpt lat="38.90298" lon="1.23976">
        <ele>118</ele>
        <time>2010-01-01T02:16:50Z</time>
      </trkpt>
      <trkpt lat="38.90294" lon="1.23989">
        <ele>119</ele>
        <time>2010-01-01T02:16:54Z</time>
      </trkpt>
      <trkpt lat="38.90288" lon="1.24">
        <ele>120</ele>
        <time>2010-01-01T02:16:58Z</time>
      </trkpt>
      <trkpt lat="38.90283" lon="1.24011">
        <ele>119</ele>
        <time>2010-01-01T02:17:02Z</time>
      </trkpt>
      <trkpt lat="38.90274" lon="1.24017">
        <ele>120</ele>
        <time>2010-01-01T02:17:06Z</time>
      </trkpt>
      <trkpt lat="38.90268" lon="1.24026">
        <ele>121</ele>
        <time>2010-01-01T02:17:10Z</time>
      </trkpt>
      <trkpt lat="38.90271" lon="1.24038">
        <ele>119</ele>
        <time>2010-01-01T02:17:14Z</time>
      </trkpt>
      <trkpt lat="38.90272" lon="1.24053">
        <ele>117</ele>
        <time>2010-01-01T02:17:18Z</time>
      </trkpt>
      <trkpt lat="38.90269" lon="1.24065">
        <ele>118</ele>
        <time>2010-01-01T02:17:22Z</time>
      </trkpt>
      <trkpt lat="38.90263" lon="1.24074">
        <ele>119</ele>
        <time>2010-01-01T02:17:26Z</time>
      </trkpt>
      <trkpt lat="38.90253" lon="1.24075">
        <ele>122</ele>
        <time>2010-01-01T02:17:30Z</time>
      </trkpt>
      <trkpt lat="38.90243" lon="1.24079">
        <ele>125</ele>
        <time>2010-01-01T02:17:34Z</time>
      </trkpt>
      <trkpt lat="38.90236" lon="1.24086">
        <ele>128</ele>
        <time>2010-01-01T02:17:38Z</time>
      </trkpt>
      <trkpt lat="38.90228" lon="1.24091">
        <ele>131</ele>
        <time>2010-01-01T02:17:42Z</time>
      </trkpt>
      <trkpt lat="38.90218" lon="1.24096">
        <ele>134</ele>
        <time>2010-01-01T02:17:46Z</time>
      </trkpt>
      <trkpt lat="38.9021" lon="1.24103">
        <ele>137</ele>
        <time>2010-01-01T02:17:50Z</time>
      </trkpt>
      <trkpt lat="38.90203" lon="1.24114">
        <ele>139</ele>
        <time>2010-01-01T02:17:54Z</time>
      </trkpt>
      <trkpt lat="38.90197" lon="1.24123">
        <ele>141</ele>
        <time>2010-01-01T02:17:58Z</time>
      </trkpt>
      <trkpt lat="38.90198" lon="1.24136">
        <ele>141</ele>
        <time>2010-01-01T02:18:02Z</time>
      </trkpt>
      <trkpt lat="38.90196" lon="1.24148">
        <ele>142</ele>
        <time>2010-01-01T02:18:05Z</time>
      </trkpt>
      <trkpt lat="38.90199" lon="1.24161">
        <ele>140</ele>
        <time>2010-01-01T02:18:10Z</time>
      </trkpt>
      <trkpt lat="38.90198" lon="1.24173">
        <ele>140</ele>
        <time>2010-01-01T02:18:13Z</time>
      </trkpt>
      <trkpt lat="38.90192" lon="1.24183">
        <ele>142</ele>
        <time>2010-01-01T02:18:17Z</time>
      </trkpt>
      <trkpt lat="38.90192" lon="1.24195">
        <ele>142</ele>
        <time>2010-01-01T02:18:21Z</time>
      </trkpt>
      <trkpt lat="38.90187" lon="1.24206">
        <ele>143</ele>
        <time>2010-01-01T02:18:25Z</time>
      </trkpt>
      <trkpt lat="38.90188" lon="1.24219">
        <ele>143</ele>
        <time>2010-01-01T02:18:29Z</time>
      </trkpt>
      <trkpt lat="38.90189" lon="1.24231">
        <ele>143</ele>
        <time>2010-01-01T02:18:33Z</time>
      </trkpt>
      <trkpt lat="38.90192" lon="1.24244">
        <ele>143</ele>
        <time>2010-01-01T02:18:37Z</time>
      </trkpt>
      <trkpt lat="38.90193" lon="1.24256">
        <ele>143</ele>
        <time>2010-01-01T02:18:41Z</time>
      </trkpt>
      <trkpt lat="38.90188" lon="1.24266">
        <ele>145</ele>
        <time>2010-01-01T02:18:44Z</time>
      </trkpt>
      <trkpt lat="38.9018" lon="1.24273">
        <ele>147</ele>
        <time>2010-01-01T02:18:48Z</time>
      </trkpt>
      <trkpt lat="38.9017" lon="1.24275">
        <ele>150</ele>
        <time>2010-01-01T02:18:52Z</time>
      </trkpt>
      <trkpt lat="38.90161" lon="1.24277">
        <ele>152</ele>
        <time>2010-01-01T02:18:56Z</time>
      </trkpt>
      <trkpt lat="38.90157" lon="1.2429">
        <ele>153</ele>
        <time>2010-01-01T02:19:00Z</time>
      </trkpt>
      <trkpt lat="38.90154" lon="1.24301">
        <ele>155</ele>
        <time>2010-01-01T02:19:04Z</time>
      </trkpt>
      <trkpt lat="38.9015" lon="1.24313">
        <ele>156</ele>
        <time>2010-01-01T02:19:08Z</time>
      </trkpt>
      <trkpt lat="38.90146" lon="1.24326">
        <ele>158</ele>
        <time>2010-01-01T02:19:12Z</time>
      </trkpt>
      <trkpt lat="38.90149" lon="1.24338">
        <ele>158</ele>
        <time>2010-01-01T02:19:16Z</time>
      </trkpt>
      <trkpt lat="38.90151" lon="1.24351">
        <ele>159</ele>
        <time>2010-01-01T02:19:20Z</time>
      </trkpt>
      <trkpt lat="38.90152" lon="1.24364">
        <ele>159</ele>
        <time>2010-01-01T02:19:24Z</time>
      </trkpt>
      <trkpt lat="38.90151" lon="1.24376">
        <ele>161</ele>
        <time>2010-01-01T02:19:28Z</time>
      </trkpt>
      <trkpt lat="38.90152" lon="1.24388">
        <ele>162</ele>
        <time>2010-01-01T02:19:32Z</time>
      </trkpt>
      <trkpt lat="38.90147" lon="1.24398">
        <ele>164</ele>
        <time>2010-01-01T02:19:36Z</time>
      </trkpt>
      <trkpt lat="38.90141" lon="1.24408">
        <ele>166</ele>
        <time>2010-01-01T02:19:39Z</time>
      </trkpt>
      <trkpt lat="38.90136" lon="1.24418">
        <ele>167</ele>
        <time>2010-01-01T02:19:43Z</time>
      </trkpt>
      <trkpt lat="38.9013" lon="1.24428">
        <ele>170</ele>
        <time>2010-01-01T02:19:47Z</time>
      </trkpt>
      <trkpt lat="38.90121" lon="1.24435">
        <ele>174</ele>
        <time>2010-01-01T02:19:51Z</time>
      </trkpt>
      <trkpt lat="38.90112" lon="1.24441">
        <ele>177</ele>
        <time>2010-01-01T02:19:55Z</time>
      </trkpt>
      <trkpt lat="38.90105" lon="1.24447">
        <ele>179</ele>
        <time>2010-01-01T02:19:59Z</time>
      </trkpt>
      <trkpt lat="38.90098" lon="1.24455">
        <ele>182</ele>
        <time>2010-01-01T02:20:03Z</time>
      </trkpt>
      <trkpt lat="38.9009" lon="1.24463">
        <ele>184</ele>
        <time>2010-01-01T02:20:07Z</time>
      </trkpt>
      <trkpt lat="38.90081" lon="1.24459">
        <ele>185</ele>
        <time>2010-01-01T02:20:10Z</time>
      </trkpt>
      <trkpt lat="38.90076" lon="1.24447">
        <ele>184</ele>
        <time>2010-01-01T02:20:15Z</time>
      </trkpt>
      <trkpt lat="38.90072" lon="1.24436">
        <ele>184</ele>
        <time>2010-01-01T02:20:18Z</time>
      </trkpt>
      <trkpt lat="38.90068" lon="1.24424">
        <ele>184</ele>
        <time>2010-01-01T02:20:22Z</time>
      </trkpt>
      <trkpt lat="38.90064" lon="1.24414">
        <ele>185</ele>
        <time>2010-01-01T02:20:26Z</time>
      </trkpt>
      <trkpt lat="38.9006" lon="1.24402">
        <ele>185</ele>
        <time>2010-01-01T02:20:30Z</time>
      </trkpt>
      <trkpt lat="38.90054" lon="1.24393">
        <ele>187</ele>
        <time>2010-01-01T02:20:34Z</time>
      </trkpt>
      <trkpt lat="38.90047" lon="1.24385">
        <ele>189</ele>
        <time>2010-01-01T02:20:38Z</time>
      </trkpt>
      <trkpt lat="38.9004" lon="1.24374">
        <ele>191</ele>
        <time>2010-01-01T02:20:42Z</time>
      </trkpt>
      <trkpt lat="38.90035" lon="1.24363">
        <ele>193</ele>
        <time>2010-01-01T02:20:46Z</time>
      </trkpt>
      <trkpt lat="38.9003" lon="1.24352">
        <ele>193</ele>
        <time>2010-01-01T02:20:50Z</time>
      </trkpt>
      <trkpt lat="38.90027" lon="1.24341">
        <ele>194</ele>
        <time>2010-01-01T02:20:54Z</time>
      </trkpt>
      <trkpt lat="38.90021" lon="1.24329">
        <ele>195</ele>
        <time>2010-01-01T02:20:58Z</time>
      </trkpt>
      <trkpt lat="38.90018" lon="1.24318">
        <ele>196</ele>
        <time>2010-01-01T02:21:02Z</time>
      </trkpt>
      <trkpt lat="38.90015" lon="1.24305">
        <ele>195</ele>
        <time>2010-01-01T02:21:06Z</time>
      </trkpt>
      <trkpt lat="38.90013" lon="1.24293">
        <ele>197</ele>
        <time>2010-01-01T02:21:10Z</time>
      </trkpt>
      <trkpt lat="38.90015" lon="1.2428">
        <ele>197</ele>
        <time>2010-01-01T02:21:14Z</time>
      </trkpt>
      <trkpt lat="38.90017" lon="1.24268">
        <ele>198</ele>
        <time>2010-01-01T02:21:18Z</time>
      </trkpt>
      <trkpt lat="38.90014" lon="1.24256">
        <ele>200</ele>
        <time>2010-01-01T02:21:21Z</time>
      </trkpt>
      <trkpt lat="38.90006" lon="1.24251">
        <ele>203</ele>
        <time>2010-01-01T02:21:25Z</time>
      </trkpt>
      <trkpt lat="38.89997" lon="1.24255">
        <ele>205</ele>
        <time>2010-01-01T02:21:29Z</time>
      </trkpt>
      <trkpt lat="38.89988" lon="1.24253">
        <ele>207</ele>
        <time>2010-01-01T02:21:32Z</time>
      </trkpt>
      <trkpt lat="38.89979" lon="1.24258">
        <ele>209</ele>
        <time>2010-01-01T02:21:36Z</time>
      </trkpt>
      <trkpt lat="38.8997" lon="1.24264">
        <ele>212</ele>
        <time>2010-01-01T02:21:40Z</time>
      </trkpt>
      <trkpt lat="38.89962" lon="1.24271">
        <ele>213</ele>
        <time>2010-01-01T02:21:44Z</time>
      </trkpt>
      <trkpt lat="38.89958" lon="1.24283">
        <ele>214</ele>
        <time>2010-01-01T02:21:48Z</time>
      </trkpt>
      <trkpt lat="38.89957" lon="1.24295">
        <ele>215</ele>
        <time>2010-01-01T02:21:52Z</time>
      </trkpt>
      <trkpt lat="38.89956" lon="1.24307">
        <ele>216</ele>
        <time>2010-01-01T02:21:56Z</time>
      </trkpt>
      <trkpt lat="38.89955" lon="1.24319">
        <ele>217</ele>
        <time>2010-01-01T02:22:00Z</time>
      </trkpt>
      <trkpt lat="38.89955" lon="1.24331">
        <ele>218</ele>
        <time>2010-01-01T02:22:04Z</time>
      </trkpt>
      <trkpt lat="38.89953" lon="1.24344">
        <ele>218</ele>
        <time>2010-01-01T02:22:08Z</time>
      </trkpt>
      <trkpt lat="38.8995" lon="1.24356">
        <ele>219</ele>
        <time>2010-01-01T02:22:11Z</time>
      </trkpt>
      <trkpt lat="38.89942" lon="1.24363">
        <ele>220</ele>
        <time>2010-01-01T02:22:15Z</time>
      </trkpt>
      <trkpt lat="38.89933" lon="1.2437">
        <ele>220</ele>
        <time>2010-01-01T02:22:20Z</time>
      </trkpt>
      <trkpt lat="38.89926" lon="1.24379">
        <ele>220</ele>
        <time>2010-01-01T02:22:23Z</time>
      </trkpt>
      <trkpt lat="38.89922" lon="1.24391">
        <ele>221</ele>
        <time>2010-01-01T02:22:28Z</time>
      </trkpt>
      <trkpt lat="38.89919" lon="1.24406">
        <ele>222</ele>
        <time>2010-01-01T02:22:32Z</time>
      </trkpt>
      <trkpt lat="38.89921" lon="1.24418">
        <ele>222</ele>
        <time>2010-01-01T02:22:36Z</time>
      </trkpt>
      <trkpt lat="38.89924" lon="1.2443">
        <ele>222</ele>
        <time>2010-01-01T02:22:40Z</time>
      </trkpt>
      <trkpt lat="38.89924" lon="1.24443">
        <ele>223</ele>
        <time>2010-01-01T02:22:44Z</time>
      </trkpt>
      <trkpt lat="38.89922" lon="1.24455">
        <ele>224</ele>
        <time>2010-01-01T02:22:48Z</time>
      </trkpt>
      <trkpt lat="38.89926" lon="1.24467">
        <ele>224</ele>
        <time>2010-01-01T02:22:52Z</time>
      </trkpt>
      <trkpt lat="38.89925" lon="1.24479">
        <ele>225</ele>
        <time>2010-01-01T02:22:56Z</time>
      </trkpt>
      <trkpt lat="38.89921" lon="1.24491">
        <ele>226</ele>
        <time>2010-01-01T02:23:00Z</time>
      </trkpt>
      <trkpt lat="38.89917" lon="1.24503">
        <ele>228</ele>
        <time>2010-01-01T02:23:04Z</time>
      </trkpt>
      <trkpt lat="38.89921" lon="1.24514">
        <ele>230</ele>
        <time>2010-01-01T02:23:08Z</time>
      </trkpt>
      <trkpt lat="38.89928" lon="1.24522">
        <ele>230</ele>
        <time>2010-01-01T02:23:12Z</time>
      </trkpt>
      <trkpt lat="38.89934" lon="1.24532">
        <ele>231</ele>
        <time>2010-01-01T02:23:15Z</time>
      </trkpt>
      <trkpt lat="38.89934" lon="1.24545">
        <ele>234</ele>
        <time>2010-01-01T02:23:20Z</time>
      </trkpt>
      <trkpt lat="38.89931" lon="1.24559">
        <ele>237</ele>
        <time>2010-01-01T02:23:24Z</time>
      </trkpt>
      <trkpt lat="38.89928" lon="1.2457">
        <ele>241</ele>
        <time>2010-01-01T02:23:28Z</time>
      </trkpt>
      <trkpt lat="38.89926" lon="1.24583">
        <ele>244</ele>
        <time>2010-01-01T02:23:32Z</time>
      </trkpt>
      <trkpt lat="38.89923" lon="1.24596">
        <ele>249</ele>
        <time>2010-01-01T02:23:36Z</time>
      </trkpt>
      <trkpt lat="38.89923" lon="1.24608">
        <ele>253</ele>
        <time>2010-01-01T02:23:40Z</time>
      </trkpt>
      <trkpt lat="38.89924" lon="1.24619">
        <ele>257</ele>
        <time>2010-01-01T02:23:43Z</time>
      </trkpt>
      <trkpt lat="38.89927" lon="1.24631">
        <ele>259</ele>
        <time>2010-01-01T02:23:47Z</time>
      </trkpt>
      <trkpt lat="38.89928" lon="1.24642">
        <ele>262</ele>
        <time>2010-01-01T02:23:51Z</time>
      </trkpt>
      <trkpt lat="38.89925" lon="1.24654">
        <ele>267</ele>
        <time>2010-01-01T02:23:55Z</time>
      </trkpt>
      <trkpt lat="38.89924" lon="1.24666">
        <ele>271</ele>
        <time>2010-01-01T02:23:58Z</time>
      </trkpt>
      <trkpt lat="38.89925" lon="1.24679">
        <ele>274</ele>
        <time>2010-01-01T02:24:03Z</time>
      </trkpt>
      <trkpt lat="38.89921" lon="1.2469">
        <ele>278</ele>
        <time>2010-01-01T02:24:06Z</time>
      </trkpt>
      <trkpt lat="38.89927" lon="1.24698">
        <ele>279</ele>
        <time>2010-01-01T02:24:10Z</time>
      </trkpt>
      <trkpt lat="38.89937" lon="1.24702">
        <ele>277</ele>
        <time>2010-01-01T02:24:14Z</time>
      </trkpt>
      <trkpt lat="38.89946" lon="1.24709">
        <ele>278</ele>
        <time>2010-01-01T02:24:18Z</time>
      </trkpt>
      <trkpt lat="38.89955" lon="1.24707">
        <ele>277</ele>
        <time>2010-01-01T02:24:22Z</time>
      </trkpt>
      <trkpt lat="38.89964" lon="1.24703">
        <ele>275</ele>
        <time>2010-01-01T02:24:26Z</time>
      </trkpt>
      <trkpt lat="38.89971" lon="1.24713">
        <ele>279</ele>
        <time>2010-01-01T02:24:30Z</time>
      </trkpt>
      <trkpt lat="38.8998" lon="1.24714">
        <ele>279</ele>
        <time>2010-01-01T02:24:33Z</time>
      </trkpt>
      <trkpt lat="38.8999" lon="1.24717">
        <ele>280</ele>
        <time>2010-01-01T02:24:37Z</time>
      </trkpt>
      <trkpt lat="38.89998" lon="1.24721">
        <ele>282</ele>
        <time>2010-01-01T02:24:41Z</time>
      </trkpt>
      <trkpt lat="38.90007" lon="1.24725">
        <ele>285</ele>
        <time>2010-01-01T02:24:45Z</time>
      </trkpt>
      <trkpt lat="38.90016" lon="1.24726">
        <ele>288</ele>
        <time>2010-01-01T02:24:49Z</time>
      </trkpt>
      <trkpt lat="38.90025" lon="1.24727">
        <ele>290</ele>
        <time>2010-01-01T02:24:52Z</time>
      </trkpt>
      <trkpt lat="38.90033" lon="1.24734">
        <ele>295</ele>
        <time>2010-01-01T02:24:56Z</time>
      </trkpt>
      <trkpt lat="38.90042" lon="1.24737">
        <ele>298</ele>
        <time>2010-01-01T02:25:00Z</time>
      </trkpt>
      <trkpt lat="38.90052" lon="1.24742">
        <ele>303</ele>
        <time>2010-01-01T02:25:04Z</time>
      </trkpt>
      <trkpt lat="38.90061" lon="1.24745">
        <ele>305</ele>
        <time>2010-01-01T02:25:08Z</time>
      </trkpt>
      <trkpt lat="38.9007" lon="1.24743">
        <ele>303</ele>
        <time>2010-01-01T02:25:11Z</time>
      </trkpt>
      <trkpt lat="38.90079" lon="1.24745">
        <ele>304</ele>
        <time>2010-01-01T02:25:15Z</time>
      </trkpt>
      <trkpt lat="38.90088" lon="1.24742">
        <ele>302</ele>
        <time>2010-01-01T02:25:19Z</time>
      </trkpt>
      <trkpt lat="38.90097" lon="1.24747">
        <ele>304</ele>
        <time>2010-01-01T02:25:22Z</time>
      </trkpt>
      <trkpt lat="38.90107" lon="1.24747">
        <ele>304</ele>
        <time>2010-01-01T02:25:26Z</time>
      </trkpt>
      <trkpt lat="38.90113" lon="1.24756">
        <ele>307</ele>
        <time>2010-01-01T02:25:30Z</time>
      </trkpt>
      <trkpt lat="38.9012" lon="1.24764">
        <ele>309</ele>
        <time>2010-01-01T02:25:34Z</time>
      </trkpt>
      <trkpt lat="38.90128" lon="1.24773">
        <ele>311</ele>
        <time>2010-01-01T02:25:38Z</time>
      </trkpt>
      <trkpt lat="38.90133" lon="1.24783">
        <ele>313</ele>
        <time>2010-01-01T02:25:42Z</time>
      </trkpt>
      <trkpt lat="38.90137" lon="1.24794">
        <ele>316</ele>
        <time>2010-01-01T02:25:46Z</time>
      </trkpt>
      <trkpt lat="38.90146" lon="1.24797">
        <ele>316</ele>
        <time>2010-01-01T02:25:49Z</time>
      </trkpt>
      <trkpt lat="38.90156" lon="1.248">
        <ele>316</ele>
        <time>2010-01-01T02:25:53Z</time>
      </trkpt>
      <trkpt lat="38.90168" lon="1.24802">
        <ele>316</ele>
        <time>2010-01-01T02:25:58Z</time>
      </trkpt>
      <trkpt lat="38.90177" lon="1.24804">
        <ele>317</ele>
        <time>2010-01-01T02:26:02Z</time>
      </trkpt>
      <trkpt lat="38.90186" lon="1.24808">
        <ele>319</ele>
        <time>2010-01-01T02:26:06Z</time>
      </trkpt>
      <trkpt lat="38.90197" lon="1.24811">
        <ele>319</ele>
        <time>2010-01-01T02:26:10Z</time>
      </trkpt>
      <trkpt lat="38.90206" lon="1.24809">
        <ele>316</ele>
        <time>2010-01-01T02:26:14Z</time>
      </trkpt>
      <trkpt lat="38.90216" lon="1.24805">
        <ele>313</ele>
        <time>2010-01-01T02:26:18Z</time>
      </trkpt>
      <trkpt lat="38.90225" lon="1.24808">
        <ele>312</ele>
        <time>2010-01-01T02:26:22Z</time>
      </trkpt>
      <trkpt lat="38.90234" lon="1.24814">
        <ele>311</ele>
        <time>2010-01-01T02:26:26Z</time>
      </trkpt>
      <trkpt lat="38.90242" lon="1.24822">
        <ele>311</ele>
        <time>2010-01-01T02:26:30Z</time>
      </trkpt>
      <trkpt lat="38.9025" lon="1.24827">
        <ele>311</ele>
        <time>2010-01-01T02:26:33Z</time>
      </trkpt>
      <trkpt lat="38.90259" lon="1.24833">
        <ele>309</ele>
        <time>2010-01-01T02:26:37Z</time>
      </trkpt>
      <trkpt lat="38.90269" lon="1.24838">
        <ele>308</ele>
        <time>2010-01-01T02:26:42Z</time>
      </trkpt>
      <trkpt lat="38.90279" lon="1.24842">
        <ele>306</ele>
        <time>2010-01-01T02:26:46Z</time>
      </trkpt>
      <trkpt lat="38.90291" lon="1.24845">
        <ele>306</ele>
        <time>2010-01-01T02:26:51Z</time>
      </trkpt>
      <trkpt lat="38.90301" lon="1.24845">
        <ele>305</ele>
        <time>2010-01-01T02:26:55Z</time>
      </trkpt>
      <trkpt lat="38.90312" lon="1.24847">
        <ele>307</ele>
        <time>2010-01-01T02:26:59Z</time>
      </trkpt>
      <trkpt lat="38.90322" lon="1.24845">
        <ele>309</ele>
        <time>2010-01-01T02:27:03Z</time>
      </trkpt>
      <trkpt lat="38.9033" lon="1.24841">
        <ele>310</ele>
        <time>2010-01-01T02:27:07Z</time>
      </trkpt>
      <trkpt lat="38.9034" lon="1.24843">
        <ele>311</ele>
        <time>2010-01-01T02:27:11Z</time>
      </trkpt>
      <trkpt lat="38.90349" lon="1.24846">
        <ele>313</ele>
        <time>2010-01-01T02:27:15Z</time>
      </trkpt>
      <trkpt lat="38.90359" lon="1.24842">
        <ele>311</ele>
        <time>2010-01-01T02:27:19Z</time>
      </trkpt>
      <trkpt lat="38.9037" lon="1.24843">
        <ele>311</ele>
        <time>2010-01-01T02:27:23Z</time>
      </trkpt>
      <trkpt lat="38.90379" lon="1.24847">
        <ele>312</ele>
        <time>2010-01-01T02:27:27Z</time>
      </trkpt>
      <trkpt lat="38.90385" lon="1.24858">
        <ele>317</ele>
        <time>2010-01-01T02:27:31Z</time>
      </trkpt>
      <trkpt lat="38.9039" lon="1.2487">
        <ele>321</ele>
        <time>2010-01-01T02:27:35Z</time>
      </trkpt>
      <trkpt lat="38.90399" lon="1.24876">
        <ele>322</ele>
        <time>2010-01-01T02:27:39Z</time>
      </trkpt>
      <trkpt lat="38.90408" lon="1.24877">
        <ele>321</ele>
        <time>2010-01-01T02:27:43Z</time>
      </trkpt>
      <trkpt lat="38.90419" lon="1.24881">
        <ele>322</ele>
        <time>2010-01-01T02:27:47Z</time>
      </trkpt>
      <trkpt lat="38.90426" lon="1.24887">
        <ele>324</ele>
        <time>2010-01-01T02:27:51Z</time>
      </trkpt>
      <trkpt lat="38.90437" lon="1.24888">
        <ele>324</ele>
        <time>2010-01-01T02:27:55Z</time>
      </trkpt>
      <trkpt lat="38.90448" lon="1.24888">
        <ele>324</ele>
        <time>2010-01-01T02:27:59Z</time>
      </trkpt>
      <trkpt lat="38.90458" lon="1.24888">
        <ele>324</ele>
        <time>2010-01-01T02:28:04Z</time>
      </trkpt>
      <trkpt lat="38.90467" lon="1.24888">
        <ele>323</ele>
        <time>2010-01-01T02:28:07Z</time>
      </trkpt>
      <trkpt lat="38.90476" lon="1.24886">
        <ele>323</ele>
        <time>2010-01-01T02:28:11Z</time>
      </trkpt>
      <trkpt lat="38.90485" lon="1.24889">
        <ele>323</ele>
        <time>2010-01-01T02:28:15Z</time>
      </trkpt>
      <trkpt lat="38.90494" lon="1.24879">
        <ele>320</ele>
        <time>2010-01-01T02:28:19Z</time>
      </trkpt>
      <trkpt lat="38.90503" lon="1.24885">
        <ele>321</ele>
        <time>2010-01-01T02:28:23Z</time>
      </trkpt>
      <trkpt lat="38.90511" lon="1.24894">
        <ele>322</ele>
        <time>2010-01-01T02:28:28Z</time>
      </trkpt>
      <trkpt lat="38.90521" lon="1.24901">
        <ele>322</ele>
        <time>2010-01-01T02:28:32Z</time>
      </trkpt>
      <trkpt lat="38.90528" lon="1.2491">
        <ele>323</ele>
        <time>2010-01-01T02:28:36Z</time>
      </trkpt>
      <trkpt lat="38.90535" lon="1.24917">
        <ele>322</ele>
        <time>2010-01-01T02:28:40Z</time>
      </trkpt>
      <trkpt lat="38.90542" lon="1.24928">
        <ele>322</ele>
        <time>2010-01-01T02:28:44Z</time>
      </trkpt>
      <trkpt lat="38.90548" lon="1.24938">
        <ele>323</ele>
        <time>2010-01-01T02:28:48Z</time>
      </trkpt>
      <trkpt lat="38.90554" lon="1.24947">
        <ele>323</ele>
        <time>2010-01-01T02:28:52Z</time>
      </trkpt>
      <trkpt lat="38.90561" lon="1.24956">
        <ele>323</ele>
        <time>2010-01-01T02:28:56Z</time>
      </trkpt>
      <trkpt lat="38.90566" lon="1.24966">
        <ele>323</ele>
        <time>2010-01-01T02:28:59Z</time>
      </trkpt>
      <trkpt lat="38.90571" lon="1.24977">
        <ele>325</ele>
        <time>2010-01-01T02:29:03Z</time>
      </trkpt>
      <trkpt lat="38.90578" lon="1.24987">
        <ele>326</ele>
        <time>2010-01-01T02:29:07Z</time>
      </trkpt>
      <trkpt lat="38.90583" lon="1.24998">
        <ele>329</ele>
        <time>2010-01-01T02:29:11Z</time>
      </trkpt>
      <trkpt lat="38.90587" lon="1.25009">
        <ele>331</ele>
        <time>2010-01-01T02:29:15Z</time>
      </trkpt>
      <trkpt lat="38.90592" lon="1.25021">
        <ele>333</ele>
        <time>2010-01-01T02:29:19Z</time>
      </trkpt>
      <trkpt lat="38.90599" lon="1.25035">
        <ele>332</ele>
        <time>2010-01-01T02:29:25Z</time>
      </trkpt>
      <trkpt lat="38.90605" lon="1.25045">
        <ele>331</ele>
        <time>2010-01-01T02:29:29Z</time>
      </trkpt>
      <trkpt lat="38.90611" lon="1.25055">
        <ele>330</ele>
        <time>2010-01-01T02:29:33Z</time>
      </trkpt>
      <trkpt lat="38.90617" lon="1.25065">
        <ele>330</ele>
        <time>2010-01-01T02:29:36Z</time>
      </trkpt>
      <trkpt lat="38.90622" lon="1.25078">
        <ele>331</ele>
        <time>2010-01-01T02:29:41Z</time>
      </trkpt>
      <trkpt lat="38.90628" lon="1.25087">
        <ele>331</ele>
        <time>2010-01-01T02:29:45Z</time>
      </trkpt>
      <trkpt lat="38.90635" lon="1.25096">
        <ele>330</ele>
        <time>2010-01-01T02:29:49Z</time>
      </trkpt>
      <trkpt lat="38.90643" lon="1.25104">
        <ele>329</ele>
        <time>2010-01-01T02:29:53Z</time>
      </trkpt>
      <trkpt lat="38.90652" lon="1.2511">
        <ele>327</ele>
        <time>2010-01-01T02:29:57Z</time>
      </trkpt>
      <trkpt lat="38.90662" lon="1.25115">
        <ele>324</ele>
        <time>2010-01-01T02:30:01Z</time>
      </trkpt>
      <trkpt lat="38.90671" lon="1.25123">
        <ele>325</ele>
        <time>2010-01-01T02:30:06Z</time>
      </trkpt>
      <trkpt lat="38.90678" lon="1.25132">
        <ele>326</ele>
        <time>2010-01-01T02:30:09Z</time>
      </trkpt>
      <trkpt lat="38.90687" lon="1.2514">
        <ele>325</ele>
        <time>2010-01-01T02:30:14Z</time>
      </trkpt>
      <trkpt lat="38.90694" lon="1.2515">
        <ele>326</ele>
        <time>2010-01-01T02:30:18Z</time>
      </trkpt>
      <trkpt lat="38.907" lon="1.2516">
        <ele>328</ele>
        <time>2010-01-01T02:30:22Z</time>
      </trkpt>
      <trkpt lat="38.90708" lon="1.25169">
        <ele>328</ele>
        <time>2010-01-01T02:30:26Z</time>
      </trkpt>
      <trkpt lat="38.90714" lon="1.25179">
        <ele>328</ele>
        <time>2010-01-01T02:30:30Z</time>
      </trkpt>
      <trkpt lat="38.9072" lon="1.2519">
        <ele>328</ele>
        <time>2010-01-01T02:30:34Z</time>
      </trkpt>
      <trkpt lat="38.90726" lon="1.25201">
        <ele>328</ele>
        <time>2010-01-01T02:30:38Z</time>
      </trkpt>
      <trkpt lat="38.90732" lon="1.25211">
        <ele>329</ele>
        <time>2010-01-01T02:30:43Z</time>
      </trkpt>
      <trkpt lat="38.9074" lon="1.25221">
        <ele>328</ele>
        <time>2010-01-01T02:30:47Z</time>
      </trkpt>
      <trkpt lat="38.90748" lon="1.25229">
        <ele>328</ele>
        <time>2010-01-01T02:30:51Z</time>
      </trkpt>
      <trkpt lat="38.90756" lon="1.25237">
        <ele>326</ele>
        <time>2010-01-01T02:30:55Z</time>
      </trkpt>
      <trkpt lat="38.90764" lon="1.25247">
        <ele>326</ele>
        <time>2010-01-01T02:30:59Z</time>
      </trkpt>
      <trkpt lat="38.9077" lon="1.25255">
        <ele>327</ele>
        <time>2010-01-01T02:31:03Z</time>
      </trkpt>
      <trkpt lat="38.90776" lon="1.25266">
        <ele>328</ele>
        <time>2010-01-01T02:31:07Z</time>
      </trkpt>
      <trkpt lat="38.90783" lon="1.25275">
        <ele>329</ele>
        <time>2010-01-01T02:31:11Z</time>
      </trkpt>
      <trkpt lat="38.90791" lon="1.25282">
        <ele>328</ele>
        <time>2010-01-01T02:31:15Z</time>
      </trkpt>
      <trkpt lat="38.908" lon="1.25286">
        <ele>326</ele>
        <time>2010-01-01T02:31:19Z</time>
      </trkpt>
      <trkpt lat="38.90809" lon="1.2529">
        <ele>323</ele>
        <time>2010-01-01T02:31:23Z</time>
      </trkpt>
      <trkpt lat="38.9082" lon="1.25294">
        <ele>320</ele>
        <time>2010-01-01T02:31:27Z</time>
      </trkpt>
      <trkpt lat="38.90829" lon="1.25298">
        <ele>318</ele>
        <time>2010-01-01T02:31:31Z</time>
      </trkpt>
      <trkpt lat="38.90838" lon="1.25301">
        <ele>316</ele>
        <time>2010-01-01T02:31:35Z</time>
      </trkpt>
      <trkpt lat="38.90849" lon="1.25303">
        <ele>314</ele>
        <time>2010-01-01T02:31:39Z</time>
      </trkpt>
      <trkpt lat="38.90858" lon="1.25308">
        <ele>313</ele>
        <time>2010-01-01T02:31:43Z</time>
      </trkpt>
      <trkpt lat="38.90868" lon="1.25316">
        <ele>314</ele>
        <time>2010-01-01T02:31:48Z</time>
      </trkpt>
      <trkpt lat="38.90874" lon="1.25326">
        <ele>317</ele>
        <time>2010-01-01T02:31:52Z</time>
      </trkpt>
      <trkpt lat="38.90883" lon="1.25332">
        <ele>317</ele>
        <time>2010-01-01T02:31:56Z</time>
      </trkpt>
      <trkpt lat="38.9089" lon="1.25339">
        <ele>318</ele>
        <time>2010-01-01T02:31:59Z</time>
      </trkpt>
      <trkpt lat="38.90898" lon="1.25346">
        <ele>319</ele>
        <time>2010-01-01T02:32:03Z</time>
      </trkpt>
      <trkpt lat="38.90906" lon="1.25353">
        <ele>320</ele>
        <time>2010-01-01T02:32:07Z</time>
      </trkpt>
      <trkpt lat="38.90914" lon="1.25362">
        <ele>322</ele>
        <time>2010-01-01T02:32:11Z</time>
      </trkpt>
      <trkpt lat="38.90918" lon="1.25373">
        <ele>323</ele>
        <time>2010-01-01T02:32:15Z</time>
      </trkpt>
      <trkpt lat="38.90923" lon="1.25386">
        <ele>323</ele>
        <time>2010-01-01T02:32:20Z</time>
      </trkpt>
      <trkpt lat="38.90928" lon="1.25397">
        <ele>322</ele>
        <time>2010-01-01T02:32:24Z</time>
      </trkpt>
      <trkpt lat="38.90934" lon="1.25408">
        <ele>322</ele>
        <time>2010-01-01T02:32:28Z</time>
      </trkpt>
      <trkpt lat="38.9094" lon="1.25416">
        <ele>321</ele>
        <time>2010-01-01T02:32:31Z</time>
      </trkpt>
      <trkpt lat="38.90946" lon="1.25428">
        <ele>321</ele>
        <time>2010-01-01T02:32:36Z</time>
      </trkpt>
      <trkpt lat="38.90952" lon="1.25437">
        <ele>321</ele>
        <time>2010-01-01T02:32:39Z</time>
      </trkpt>
      <trkpt lat="38.90958" lon="1.25446">
        <ele>322</ele>
        <time>2010-01-01T02:32:43Z</time>
      </trkpt>
      <trkpt lat="38.90966" lon="1.25455">
        <ele>321</ele>
        <time>2010-01-01T02:32:48Z</time>
      </trkpt>
      <trkpt lat="38.90973" lon="1.25464">
        <ele>322</ele>
        <time>2010-01-01T02:32:51Z</time>
      </trkpt>
      <trkpt lat="38.9098" lon="1.25472">
        <ele>321</ele>
        <time>2010-01-01T02:32:55Z</time>
      </trkpt>
      <trkpt lat="38.90986" lon="1.2548">
        <ele>320</ele>
        <time>2010-01-01T02:32:59Z</time>
      </trkpt>
      <trkpt lat="38.90995" lon="1.25489">
        <ele>318</ele>
        <time>2010-01-01T02:33:03Z</time>
      </trkpt>
      <trkpt lat="38.91002" lon="1.255">
        <ele>319</ele>
        <time>2010-01-01T02:33:07Z</time>
      </trkpt>
      <trkpt lat="38.9101" lon="1.25508">
        <ele>317</ele>
        <time>2010-01-01T02:33:12Z</time>
      </trkpt>
      <trkpt lat="38.91016" lon="1.25518">
        <ele>316</ele>
        <time>2010-01-01T02:33:16Z</time>
      </trkpt>
      <trkpt lat="38.91014" lon="1.25531">
        <ele>317</ele>
        <time>2010-01-01T02:33:20Z</time>
      </trkpt>
      <trkpt lat="38.91009" lon="1.25543">
        <ele>317</ele>
        <time>2010-01-01T02:33:24Z</time>
      </trkpt>
      <trkpt lat="38.9101" lon="1.25555">
        <ele>316</ele>
        <time>2010-01-01T02:33:28Z</time>
      </trkpt>
      <trkpt lat="38.91006" lon="1.25568">
        <ele>313</ele>
        <time>2010-01-01T02:33:32Z</time>
      </trkpt>
      <trkpt lat="38.91001" lon="1.25578">
        <ele>311</ele>
        <time>2010-01-01T02:33:36Z</time>
      </trkpt>
      <trkpt lat="38.90993" lon="1.25583">
        <ele>310</ele>
        <time>2010-01-01T02:33:39Z</time>
      </trkpt>
      <trkpt lat="38.90982" lon="1.25589">
        <ele>308</ele>
        <time>2010-01-01T02:33:44Z</time>
      </trkpt>
      <trkpt lat="38.90974" lon="1.25593">
        <ele>307</ele>
        <time>2010-01-01T02:33:47Z</time>
      </trkpt>
      <trkpt lat="38.90964" lon="1.2559">
        <ele>308</ele>
        <time>2010-01-01T02:33:51Z</time>
      </trkpt>
      <trkpt lat="38.90955" lon="1.25585">
        <ele>309</ele>
        <time>2010-01-01T02:33:55Z</time>
      </trkpt>
      <trkpt lat="38.90944" lon="1.25587">
        <ele>309</ele>
        <time>2010-01-01T02:34:00Z</time>
      </trkpt>
      <trkpt lat="38.90936" lon="1.25593">
        <ele>307</ele>
        <time>2010-01-01T02:34:04Z</time>
      </trkpt>
      <trkpt lat="38.9093" lon="1.25604">
        <ele>305</ele>
        <time>2010-01-01T02:34:08Z</time>
      </trkpt>
      <trkpt lat="38.90921" lon="1.2561">
        <ele>304</ele>
        <time>2010-01-01T02:34:12Z</time>
      </trkpt>
      <trkpt lat="38.90912" lon="1.25617">
        <ele>303</ele>
        <time>2010-01-01T02:34:16Z</time>
      </trkpt>
      <trkpt lat="38.90904" lon="1.25623">
        <ele>301</ele>
        <time>2010-01-01T02:34:20Z</time>
      </trkpt>
      <trkpt lat="38.90894" lon="1.25628">
        <ele>300</ele>
        <time>2010-01-01T02:34:24Z</time>
      </trkpt>
      <trkpt lat="38.90885" lon="1.25627">
        <ele>300</ele>
        <time>2010-01-01T02:34:28Z</time>
      </trkpt>
      <trkpt lat="38.90879" lon="1.25637">
        <ele>298</ele>
        <time>2010-01-01T02:34:32Z</time>
      </trkpt>
      <trkpt lat="38.90878" lon="1.2565">
        <ele>296</ele>
        <time>2010-01-01T02:34:36Z</time>
      </trkpt>
      <trkpt lat="38.90875" lon="1.25662">
        <ele>294</ele>
        <time>2010-01-01T02:34:39Z</time>
      </trkpt>
      <trkpt lat="38.90871" lon="1.25672">
        <ele>293</ele>
        <time>2010-01-01T02:34:43Z</time>
      </trkpt>
      <trkpt lat="38.90864" lon="1.25682">
        <ele>292</ele>
        <time>2010-01-01T02:34:47Z</time>
      </trkpt>
      <trkpt lat="38.90858" lon="1.25694">
        <ele>291</ele>
        <time>2010-01-01T02:34:52Z</time>
      </trkpt>
      <trkpt lat="38.90857" lon="1.25707">
        <ele>290</ele>
        <time>2010-01-01T02:34:56Z</time>
      </trkpt>
      <trkpt lat="38.90856" lon="1.25719">
        <ele>290</ele>
        <time>2010-01-01T02:35:00Z</time>
      </trkpt>
      <trkpt lat="38.90855" lon="1.25731">
        <ele>291</ele>
        <time>2010-01-01T02:35:04Z</time>
      </trkpt>
      <trkpt lat="38.90855" lon="1.25743">
        <ele>292</ele>
        <time>2010-01-01T02:35:07Z</time>
      </trkpt>
      <trkpt lat="38.90854" lon="1.25755">
        <ele>293</ele>
        <time>2010-01-01T02:35:11Z</time>
      </trkpt>
      <trkpt lat="38.90848" lon="1.25764">
        <ele>295</ele>
        <time>2010-01-01T02:35:15Z</time>
      </trkpt>
      <trkpt lat="38.90838" lon="1.25762">
        <ele>295</ele>
        <time>2010-01-01T02:35:18Z</time>
      </trkpt>
      <trkpt lat="38.90829" lon="1.25757">
        <ele>295</ele>
        <time>2010-01-01T02:35:22Z</time>
      </trkpt>
      <trkpt lat="38.9082" lon="1.25753">
        <ele>296</ele>
        <time>2010-01-01T02:35:27Z</time>
      </trkpt>
      <trkpt lat="38.90809" lon="1.2575">
        <ele>297</ele>
        <time>2010-01-01T02:35:31Z</time>
      </trkpt>
      <trkpt lat="38.90798" lon="1.25745">
        <ele>298</ele>
        <time>2010-01-01T02:35:35Z</time>
      </trkpt>
      <trkpt lat="38.90788" lon="1.25741">
        <ele>298</ele>
        <time>2010-01-01T02:35:40Z</time>
      </trkpt>
      <trkpt lat="38.90779" lon="1.25736">
        <ele>298</ele>
        <time>2010-01-01T02:35:44Z</time>
      </trkpt>
      <trkpt lat="38.9077" lon="1.2573">
        <ele>299</ele>
        <time>2010-01-01T02:35:48Z</time>
      </trkpt>
      <trkpt lat="38.9076" lon="1.25728">
        <ele>299</ele>
        <time>2010-01-01T02:35:52Z</time>
      </trkpt>
      <trkpt lat="38.90751" lon="1.25729">
        <ele>299</ele>
        <time>2010-01-01T02:35:55Z</time>
      </trkpt>
      <trkpt lat="38.90741" lon="1.25727">
        <ele>299</ele>
        <time>2010-01-01T02:35:59Z</time>
      </trkpt>
      <trkpt lat="38.90731" lon="1.25724">
        <ele>299</ele>
        <time>2010-01-01T02:36:04Z</time>
      </trkpt>
      <trkpt lat="38.9072" lon="1.25721">
        <ele>298</ele>
        <time>2010-01-01T02:36:08Z</time>
      </trkpt>
      <trkpt lat="38.90711" lon="1.25717">
        <ele>297</ele>
        <time>2010-01-01T02:36:12Z</time>
      </trkpt>
      <trkpt lat="38.90702" lon="1.25713">
        <ele>296</ele>
        <time>2010-01-01T02:36:16Z</time>
      </trkpt>
      <trkpt lat="38.90693" lon="1.25717">
        <ele>296</ele>
        <time>2010-01-01T02:36:19Z</time>
      </trkpt>
      <trkpt lat="38.90684" lon="1.25716">
        <ele>295</ele>
        <time>2010-01-01T02:36:23Z</time>
      </trkpt>
      <trkpt lat="38.90676" lon="1.25708">
        <ele>295</ele>
        <time>2010-01-01T02:36:27Z</time>
      </trkpt>
      <trkpt lat="38.90667" lon="1.25702">
        <ele>295</ele>
        <time>2010-01-01T02:36:31Z</time>
      </trkpt>
      <trkpt lat="38.90659" lon="1.25697">
        <ele>296</ele>
        <time>2010-01-01T02:36:35Z</time>
      </trkpt>
      <trkpt lat="38.90649" lon="1.25694">
        <ele>297</ele>
        <time>2010-01-01T02:36:39Z</time>
      </trkpt>
      <trkpt lat="38.9064" lon="1.25695">
        <ele>298</ele>
        <time>2010-01-01T02:36:42Z</time>
      </trkpt>
      <trkpt lat="38.90631" lon="1.25692">
        <ele>299</ele>
        <time>2010-01-01T02:36:46Z</time>
      </trkpt>
      <trkpt lat="38.90621" lon="1.25691">
        <ele>300</ele>
        <time>2010-01-01T02:36:50Z</time>
      </trkpt>
      <trkpt lat="38.90611" lon="1.25696">
        <ele>299</ele>
        <time>2010-01-01T02:36:54Z</time>
      </trkpt>
      <trkpt lat="38.90602" lon="1.25693">
        <ele>299</ele>
        <time>2010-01-01T02:36:58Z</time>
      </trkpt>
      <trkpt lat="38.90591" lon="1.25692">
        <ele>299</ele>
        <time>2010-01-01T02:37:03Z</time>
      </trkpt>
      <trkpt lat="38.90581" lon="1.25692">
        <ele>299</ele>
        <time>2010-01-01T02:37:06Z</time>
      </trkpt>
      <trkpt lat="38.90572" lon="1.25689">
        <ele>300</ele>
        <time>2010-01-01T02:37:10Z</time>
      </trkpt>
      <trkpt lat="38.90563" lon="1.25684">
        <ele>301</ele>
        <time>2010-01-01T02:37:14Z</time>
      </trkpt>
      <trkpt lat="38.90554" lon="1.25679">
        <ele>303</ele>
        <time>2010-01-01T02:37:18Z</time>
      </trkpt>
      <trkpt lat="38.90544" lon="1.25675">
        <ele>306</ele>
        <time>2010-01-01T02:37:22Z</time>
      </trkpt>
      <trkpt lat="38.90534" lon="1.25674">
        <ele>307</ele>
        <time>2010-01-01T02:37:26Z</time>
      </trkpt>
      <trkpt lat="38.90525" lon="1.2567">
        <ele>310</ele>
        <time>2010-01-01T02:37:30Z</time>
      </trkpt>
      <trkpt lat="38.90514" lon="1.25667">
        <ele>311</ele>
        <time>2010-01-01T02:37:35Z</time>
      </trkpt>
      <trkpt lat="38.90504" lon="1.25663">
        <ele>313</ele>
        <time>2010-01-01T02:37:39Z</time>
      </trkpt>
      <trkpt lat="38.90495" lon="1.25662">
        <ele>314</ele>
        <time>2010-01-01T02:37:42Z</time>
      </trkpt>
      <trkpt lat="38.90485" lon="1.25663">
        <ele>314</ele>
        <time>2010-01-01T02:37:46Z</time>
      </trkpt>
      <trkpt lat="38.90475" lon="1.25661">
        <ele>314</ele>
        <time>2010-01-01T02:37:50Z</time>
      </trkpt>
      <trkpt lat="38.90466" lon="1.25664">
        <ele>314</ele>
        <time>2010-01-01T02:37:54Z</time>
      </trkpt>
      <trkpt lat="38.90454" lon="1.25664">
        <ele>316</ele>
        <time>2010-01-01T02:37:59Z</time>
      </trkpt>
      <trkpt lat="38.90445" lon="1.25661">
        <ele>317</ele>
        <time>2010-01-01T02:38:03Z</time>
      </trkpt>
      <trkpt lat="38.90435" lon="1.25662">
        <ele>318</ele>
        <time>2010-01-01T02:38:07Z</time>
      </trkpt>
      <trkpt lat="38.90426" lon="1.25662">
        <ele>318</ele>
        <time>2010-01-01T02:38:10Z</time>
      </trkpt>
      <trkpt lat="38.90416" lon="1.25661">
        <ele>318</ele>
        <time>2010-01-01T02:38:14Z</time>
      </trkpt>
      <trkpt lat="38.90407" lon="1.25654">
        <ele>319</ele>
        <time>2010-01-01T02:38:19Z</time>
      </trkpt>
      <trkpt lat="38.90399" lon="1.25648">
        <ele>319</ele>
        <time>2010-01-01T02:38:22Z</time>
      </trkpt>
      <trkpt lat="38.9039" lon="1.25642">
        <ele>318</ele>
        <time>2010-01-01T02:38:26Z</time>
      </trkpt>
      <trkpt lat="38.90381" lon="1.25638">
        <ele>317</ele>
        <time>2010-01-01T02:38:30Z</time>
      </trkpt>
      <trkpt lat="38.90372" lon="1.25635">
        <ele>315</ele>
        <time>2010-01-01T02:38:34Z</time>
      </trkpt>
      <trkpt lat="38.90361" lon="1.25634">
        <ele>313</ele>
        <time>2010-01-01T02:38:38Z</time>
      </trkpt>
      <trkpt lat="38.90353" lon="1.25628">
        <ele>312</ele>
        <time>2010-01-01T02:38:42Z</time>
      </trkpt>
      <trkpt lat="38.90351" lon="1.25616">
        <ele>311</ele>
        <time>2010-01-01T02:38:46Z</time>
      </trkpt>
      <trkpt lat="38.9034" lon="1.2562">
        <ele>309</ele>
        <time>2010-01-01T02:38:50Z</time>
      </trkpt>
      <trkpt lat="38.9033" lon="1.25625">
        <ele>307</ele>
        <time>2010-01-01T02:38:55Z</time>
      </trkpt>
      <trkpt lat="38.9032" lon="1.2562">
        <ele>306</ele>
        <time>2010-01-01T02:38:59Z</time>
      </trkpt>
      <trkpt lat="38.90313" lon="1.25607">
        <ele>304</ele>
        <time>2010-01-01T02:39:04Z</time>
      </trkpt>
      <trkpt lat="38.90304" lon="1.25598">
        <ele>302</ele>
        <time>2010-01-01T02:39:08Z</time>
      </trkpt>
      <trkpt lat="38.90295" lon="1.25589">
        <ele>300</ele>
        <time>2010-01-01T02:39:13Z</time>
      </trkpt>
      <trkpt lat="38.90288" lon="1.25579">
        <ele>298</ele>
        <time>2010-01-01T02:39:17Z</time>
      </trkpt>
      <trkpt lat="38.9028" lon="1.25569">
        <ele>297</ele>
        <time>2010-01-01T02:39:21Z</time>
      </trkpt>
      <trkpt lat="38.90273" lon="1.25562">
        <ele>297</ele>
        <time>2010-01-01T02:39:25Z</time>
      </trkpt>
      <trkpt lat="38.90265" lon="1.25556">
        <ele>296</ele>
        <time>2010-01-01T02:39:29Z</time>
      </trkpt>
      <trkpt lat="38.90255" lon="1.25553">
        <ele>295</ele>
        <time>2010-01-01T02:39:33Z</time>
      </trkpt>
      <trkpt lat="38.90245" lon="1.25552">
        <ele>295</ele>
        <time>2010-01-01T02:39:37Z</time>
      </trkpt>
      <trkpt lat="38.90235" lon="1.25553">
        <ele>294</ele>
        <time>2010-01-01T02:39:41Z</time>
      </trkpt>
      <trkpt lat="38.90228" lon="1.25566">
        <ele>293</ele>
        <time>2010-01-01T02:39:46Z</time>
      </trkpt>
      <trkpt lat="38.90223" lon="1.25579">
        <ele>293</ele>
        <time>2010-01-01T02:39:50Z</time>
      </trkpt>
      <trkpt lat="38.90222" lon="1.25591">
        <ele>293</ele>
        <time>2010-01-01T02:39:54Z</time>
      </trkpt>
      <trkpt lat="38.90217" lon="1.25603">
        <ele>294</ele>
        <time>2010-01-01T02:39:58Z</time>
      </trkpt>
      <trkpt lat="38.90208" lon="1.25609">
        <ele>293</ele>
        <time>2010-01-01T02:40:02Z</time>
      </trkpt>
      <trkpt lat="38.90199" lon="1.25613">
        <ele>293</ele>
        <time>2010-01-01T02:40:06Z</time>
      </trkpt>
      <trkpt lat="38.90189" lon="1.25618">
        <ele>292</ele>
        <time>2010-01-01T02:40:11Z</time>
      </trkpt>
      <trkpt lat="38.90181" lon="1.25625">
        <ele>291</ele>
        <time>2010-01-01T02:40:15Z</time>
      </trkpt>
      <trkpt lat="38.90171" lon="1.25634">
        <ele>289</ele>
        <time>2010-01-01T02:40:19Z</time>
      </trkpt>
      <trkpt lat="38.90165" lon="1.25643">
        <ele>288</ele>
        <time>2010-01-01T02:40:23Z</time>
      </trkpt>
      <trkpt lat="38.90155" lon="1.25647">
        <ele>287</ele>
        <time>2010-01-01T02:40:27Z</time>
      </trkpt>
      <trkpt lat="38.90146" lon="1.25648">
        <ele>286</ele>
        <time>2010-01-01T02:40:31Z</time>
      </trkpt>
      <trkpt lat="38.90136" lon="1.25654">
        <ele>286</ele>
        <time>2010-01-01T02:40:35Z</time>
      </trkpt>
      <trkpt lat="38.90128" lon="1.25661">
        <ele>285</ele>
        <time>2010-01-01T02:40:39Z</time>
      </trkpt>
      <trkpt lat="38.90121" lon="1.25667">
        <ele>284</ele>
        <time>2010-01-01T02:40:43Z</time>
      </trkpt>
      <trkpt lat="38.90114" lon="1.25677">
        <ele>284</ele>
        <time>2010-01-01T02:40:47Z</time>
      </trkpt>
      <trkpt lat="38.9011" lon="1.2569">
        <ele>285</ele>
        <time>2010-01-01T02:40:51Z</time>
      </trkpt>
      <trkpt lat="38.90105" lon="1.257">
        <ele>286</ele>
        <time>2010-01-01T02:40:55Z</time>
      </trkpt>
      <trkpt lat="38.90099" lon="1.25711">
        <ele>287</ele>
        <time>2010-01-01T02:40:59Z</time>
      </trkpt>
      <trkpt lat="38.90094" lon="1.25721">
        <ele>288</ele>
        <time>2010-01-01T02:41:03Z</time>
      </trkpt>
      <trkpt lat="38.90086" lon="1.25729">
        <ele>287</ele>
        <time>2010-01-01T02:41:07Z</time>
      </trkpt>
      <trkpt lat="38.90077" lon="1.25739">
        <ele>286</ele>
        <time>2010-01-01T02:41:11Z</time>
      </trkpt>
      <trkpt lat="38.90069" lon="1.25747">
        <ele>285</ele>
        <time>2010-01-01T02:41:16Z</time>
      </trkpt>
      <trkpt lat="38.90061" lon="1.25758">
        <ele>284</ele>
        <time>2010-01-01T02:41:20Z</time>
      </trkpt>
      <trkpt lat="38.90055" lon="1.25769">
        <ele>284</ele>
        <time>2010-01-01T02:41:24Z</time>
      </trkpt>
      <trkpt lat="38.9005" lon="1.2578">
        <ele>284</ele>
        <time>2010-01-01T02:41:28Z</time>
      </trkpt>
      <trkpt lat="38.90041" lon="1.25787">
        <ele>283</ele>
        <time>2010-01-01T02:41:32Z</time>
      </trkpt>
      <trkpt lat="38.90031" lon="1.25785">
        <ele>282</ele>
        <time>2010-01-01T02:41:37Z</time>
      </trkpt>
      <trkpt lat="38.90021" lon="1.25781">
        <ele>281</ele>
        <time>2010-01-01T02:41:41Z</time>
      </trkpt>
      <trkpt lat="38.90015" lon="1.25773">
        <ele>279</ele>
        <time>2010-01-01T02:41:44Z</time>
      </trkpt>
      <trkpt lat="38.90005" lon="1.25775">
        <ele>278</ele>
        <time>2010-01-01T02:41:48Z</time>
      </trkpt>
      <trkpt lat="38.89995" lon="1.25772">
        <ele>277</ele>
        <time>2010-01-01T02:41:52Z</time>
      </trkpt>
      <trkpt lat="38.89987" lon="1.25768">
        <ele>276</ele>
        <time>2010-01-01T02:41:56Z</time>
      </trkpt>
      <trkpt lat="38.89977" lon="1.25765">
        <ele>275</ele>
        <time>2010-01-01T02:42:00Z</time>
      </trkpt>
      <trkpt lat="38.89969" lon="1.25756">
        <ele>273</ele>
        <time>2010-01-01T02:42:04Z</time>
      </trkpt>
      <trkpt lat="38.89961" lon="1.25752">
        <ele>271</ele>
        <time>2010-01-01T02:42:08Z</time>
      </trkpt>
      <trkpt lat="38.89951" lon="1.25753">
        <ele>269</ele>
        <time>2010-01-01T02:42:12Z</time>
      </trkpt>
      <trkpt lat="38.89942" lon="1.25751">
        <ele>267</ele>
        <time>2010-01-01T02:42:16Z</time>
      </trkpt>
      <trkpt lat="38.89931" lon="1.25748">
        <ele>267</ele>
        <time>2010-01-01T02:42:20Z</time>
      </trkpt>
      <trkpt lat="38.89921" lon="1.25751">
        <ele>266</ele>
        <time>2010-01-01T02:42:24Z</time>
      </trkpt>
      <trkpt lat="38.89914" lon="1.2576">
        <ele>266</ele>
        <time>2010-01-01T02:42:28Z</time>
      </trkpt>
      <trkpt lat="38.89904" lon="1.25762">
        <ele>265</ele>
        <time>2010-01-01T02:42:32Z</time>
      </trkpt>
      <trkpt lat="38.89895" lon="1.25766">
        <ele>264</ele>
        <time>2010-01-01T02:42:36Z</time>
      </trkpt>
      <trkpt lat="38.89886" lon="1.2577">
        <ele>263</ele>
        <time>2010-01-01T02:42:40Z</time>
      </trkpt>
      <trkpt lat="38.89877" lon="1.25773">
        <ele>262</ele>
        <time>2010-01-01T02:42:44Z</time>
      </trkpt>
      <trkpt lat="38.89866" lon="1.25774">
        <ele>260</ele>
        <time>2010-01-01T02:42:48Z</time>
      </trkpt>
      <trkpt lat="38.89856" lon="1.25775">
        <ele>259</ele>
        <time>2010-01-01T02:42:52Z</time>
      </trkpt>
      <trkpt lat="38.89846" lon="1.2578">
        <ele>257</ele>
        <time>2010-01-01T02:42:56Z</time>
      </trkpt>
      <trkpt lat="38.89839" lon="1.2579">
        <ele>255</ele>
        <time>2010-01-01T02:43:00Z</time>
      </trkpt>
      <trkpt lat="38.89837" lon="1.25803">
        <ele>254</ele>
        <time>2010-01-01T02:43:04Z</time>
      </trkpt>
      <trkpt lat="38.89837" lon="1.25816">
        <ele>253</ele>
        <time>2010-01-01T02:43:08Z</time>
      </trkpt>
      <trkpt lat="38.8983" lon="1.25826">
        <ele>251</ele>
        <time>2010-01-01T02:43:13Z</time>
      </trkpt>
      <trkpt lat="38.89823" lon="1.25837">
        <ele>249</ele>
        <time>2010-01-01T02:43:17Z</time>
      </trkpt>
      <trkpt lat="38.89821" lon="1.25851">
        <ele>247</ele>
        <time>2010-01-01T02:43:21Z</time>
      </trkpt>
      <trkpt lat="38.89823" lon="1.25864">
        <ele>246</ele>
        <time>2010-01-01T02:43:26Z</time>
      </trkpt>
      <trkpt lat="38.89826" lon="1.25876">
        <ele>246</ele>
        <time>2010-01-01T02:43:30Z</time>
      </trkpt>
      <trkpt lat="38.89832" lon="1.25886">
        <ele>247</ele>
        <time>2010-01-01T02:43:34Z</time>
      </trkpt>
      <trkpt lat="38.89835" lon="1.25901">
        <ele>247</ele>
        <time>2010-01-01T02:43:38Z</time>
      </trkpt>
      <trkpt lat="38.8983" lon="1.25911">
        <ele>246</ele>
        <time>2010-01-01T02:43:42Z</time>
      </trkpt>
      <trkpt lat="38.89827" lon="1.25922">
        <ele>247</ele>
        <time>2010-01-01T02:43:46Z</time>
      </trkpt>
      <trkpt lat="38.8982" lon="1.25933">
        <ele>248</ele>
        <time>2010-01-01T02:43:50Z</time>
      </trkpt>
      <trkpt lat="38.89809" lon="1.25934">
        <ele>247</ele>
        <time>2010-01-01T02:43:55Z</time>
      </trkpt>
      <trkpt lat="38.89799" lon="1.25928">
        <ele>245</ele>
        <time>2010-01-01T02:43:59Z</time>
      </trkpt>
      <trkpt lat="38.89788" lon="1.25928">
        <ele>244</ele>
        <time>2010-01-01T02:44:03Z</time>
      </trkpt>
      <trkpt lat="38.89778" lon="1.2593">
        <ele>244</ele>
        <time>2010-01-01T02:44:07Z</time>
      </trkpt>
      <trkpt lat="38.89769" lon="1.25933">
        <ele>244</ele>
        <time>2010-01-01T02:44:11Z</time>
      </trkpt>
      <trkpt lat="38.89759" lon="1.25935">
        <ele>243</ele>
        <time>2010-01-01T02:44:15Z</time>
      </trkpt>
      <trkpt lat="38.8975" lon="1.25939">
        <ele>243</ele>
        <time>2010-01-01T02:44:19Z</time>
      </trkpt>
      <trkpt lat="38.89742" lon="1.25944">
        <ele>243</ele>
        <time>2010-01-01T02:44:23Z</time>
      </trkpt>
      <trkpt lat="38.89734" lon="1.25949">
        <ele>243</ele>
        <time>2010-01-01T02:44:26Z</time>
      </trkpt>
      <trkpt lat="38.89726" lon="1.25959">
        <ele>244</ele>
        <time>2010-01-01T02:44:31Z</time>
      </trkpt>
      <trkpt lat="38.89724" lon="1.2597">
        <ele>245</ele>
        <time>2010-01-01T02:44:34Z</time>
      </trkpt>
      <trkpt lat="38.89717" lon="1.2598">
        <ele>245</ele>
        <time>2010-01-01T02:44:39Z</time>
      </trkpt>
      <trkpt lat="38.89708" lon="1.25983">
        <ele>244</ele>
        <time>2010-01-01T02:44:42Z</time>
      </trkpt>
      <trkpt lat="38.897" lon="1.2599">
        <ele>243</ele>
        <time>2010-01-01T02:44:46Z</time>
      </trkpt>
      <trkpt lat="38.89693" lon="1.26001">
        <ele>242</ele>
        <time>2010-01-01T02:44:50Z</time>
      </trkpt>
      <trkpt lat="38.89689" lon="1.26012">
        <ele>242</ele>
        <time>2010-01-01T02:44:54Z</time>
      </trkpt>
      <trkpt lat="38.89685" lon="1.26024">
        <ele>241</ele>
        <time>2010-01-01T02:44:58Z</time>
      </trkpt>
      <trkpt lat="38.89679" lon="1.26034">
        <ele>239</ele>
        <time>2010-01-01T02:45:02Z</time>
      </trkpt>
      <trkpt lat="38.8967" lon="1.26042">
        <ele>236</ele>
        <time>2010-01-01T02:45:07Z</time>
      </trkpt>
      <trkpt lat="38.89661" lon="1.26051">
        <ele>234</ele>
        <time>2010-01-01T02:45:11Z</time>
      </trkpt>
      <trkpt lat="38.89657" lon="1.26062">
        <ele>232</ele>
        <time>2010-01-01T02:45:15Z</time>
      </trkpt>
      <trkpt lat="38.89652" lon="1.26073">
        <ele>231</ele>
        <time>2010-01-01T02:45:19Z</time>
      </trkpt>
      <trkpt lat="38.89647" lon="1.26084">
        <ele>230</ele>
        <time>2010-01-01T02:45:23Z</time>
      </trkpt>
      <trkpt lat="38.89644" lon="1.26098">
        <ele>229</ele>
        <time>2010-01-01T02:45:27Z</time>
      </trkpt>
      <trkpt lat="38.89644" lon="1.26111">
        <ele>228</ele>
        <time>2010-01-01T02:45:31Z</time>
      </trkpt>
      <trkpt lat="38.89646" lon="1.26123">
        <ele>228</ele>
        <time>2010-01-01T02:45:35Z</time>
      </trkpt>
      <trkpt lat="38.89646" lon="1.26135">
        <ele>227</ele>
        <time>2010-01-01T02:45:39Z</time>
      </trkpt>
      <trkpt lat="38.8964" lon="1.26146">
        <ele>226</ele>
        <time>2010-01-01T02:45:43Z</time>
      </trkpt>
      <trkpt lat="38.89633" lon="1.26155">
        <ele>224</ele>
        <time>2010-01-01T02:45:47Z</time>
      </trkpt>
      <trkpt lat="38.89626" lon="1.26164">
        <ele>222</ele>
        <time>2010-01-01T02:45:51Z</time>
      </trkpt>
      <trkpt lat="38.8962" lon="1.26173">
        <ele>221</ele>
        <time>2010-01-01T02:45:55Z</time>
      </trkpt>
      <trkpt lat="38.89613" lon="1.26181">
        <ele>221</ele>
        <time>2010-01-01T02:45:59Z</time>
      </trkpt>
      <trkpt lat="38.89606" lon="1.26189">
        <ele>221</ele>
        <time>2010-01-01T02:46:02Z</time>
      </trkpt>
      <trkpt lat="38.89598" lon="1.26198">
        <ele>220</ele>
        <time>2010-01-01T02:46:06Z</time>
      </trkpt>
      <trkpt lat="38.8959" lon="1.26208">
        <ele>219</ele>
        <time>2010-01-01T02:46:11Z</time>
      </trkpt>
      <trkpt lat="38.89585" lon="1.2622">
        <ele>218</ele>
        <time>2010-01-01T02:46:15Z</time>
      </trkpt>
      <trkpt lat="38.89585" lon="1.26233">
        <ele>218</ele>
        <time>2010-01-01T02:46:19Z</time>
      </trkpt>
      <trkpt lat="38.89586" lon="1.26247">
        <ele>219</ele>
        <time>2010-01-01T02:46:24Z</time>
      </trkpt>
      <trkpt lat="38.89587" lon="1.26261">
        <ele>220</ele>
        <time>2010-01-01T02:46:28Z</time>
      </trkpt>
      <trkpt lat="38.89587" lon="1.26273">
        <ele>221</ele>
        <time>2010-01-01T02:46:32Z</time>
      </trkpt>
      <trkpt lat="38.89587" lon="1.26285">
        <ele>221</ele>
        <time>2010-01-01T02:46:36Z</time>
      </trkpt>
      <trkpt lat="38.89589" lon="1.26296">
        <ele>221</ele>
        <time>2010-01-01T02:46:39Z</time>
      </trkpt>
      <trkpt lat="38.89588" lon="1.26309">
        <ele>220</ele>
        <time>2010-01-01T02:46:43Z</time>
      </trkpt>
      <trkpt lat="38.89588" lon="1.26322">
        <ele>219</ele>
        <time>2010-01-01T02:46:47Z</time>
      </trkpt>
      <trkpt lat="38.89587" lon="1.26334">
        <ele>218</ele>
        <time>2010-01-01T02:46:51Z</time>
      </trkpt>
      <trkpt lat="38.89589" lon="1.26347">
        <ele>218</ele>
        <time>2010-01-01T02:46:55Z</time>
      </trkpt>
      <trkpt lat="38.89593" lon="1.2636">
        <ele>218</ele>
        <time>2010-01-01T02:46:59Z</time>
      </trkpt>
      <trkpt lat="38.89596" lon="1.26371">
        <ele>217</ele>
        <time>2010-01-01T02:47:03Z</time>
      </trkpt>
      <trkpt lat="38.89601" lon="1.26382">
        <ele>216</ele>
        <time>2010-01-01T02:47:07Z</time>
      </trkpt>
      <trkpt lat="38.89605" lon="1.26394">
        <ele>216</ele>
        <time>2010-01-01T02:47:11Z</time>
      </trkpt>
      <trkpt lat="38.89611" lon="1.26404">
        <ele>216</ele>
        <time>2010-01-01T02:47:15Z</time>
      </trkpt>
      <trkpt lat="38.8962" lon="1.26411">
        <ele>217</ele>
        <time>2010-01-01T02:47:19Z</time>
      </trkpt>
      <trkpt lat="38.89627" lon="1.2642">
        <ele>217</ele>
        <time>2010-01-01T02:47:23Z</time>
      </trkpt>
      <trkpt lat="38.89628" lon="1.26432">
        <ele>216</ele>
        <time>2010-01-01T02:47:27Z</time>
      </trkpt>
      <trkpt lat="38.89628" lon="1.26444">
        <ele>214</ele>
        <time>2010-01-01T02:47:31Z</time>
      </trkpt>
      <trkpt lat="38.89631" lon="1.26457">
        <ele>213</ele>
        <time>2010-01-01T02:47:35Z</time>
      </trkpt>
      <trkpt lat="38.89634" lon="1.26471">
        <ele>212</ele>
        <time>2010-01-01T02:47:39Z</time>
      </trkpt>
      <trkpt lat="38.89639" lon="1.26482">
        <ele>212</ele>
        <time>2010-01-01T02:47:43Z</time>
      </trkpt>
      <trkpt lat="38.89644" lon="1.26494">
        <ele>211</ele>
        <time>2010-01-01T02:47:48Z</time>
      </trkpt>
      <trkpt lat="38.89649" lon="1.26505">
        <ele>210</ele>
        <time>2010-01-01T02:47:52Z</time>
      </trkpt>
      <trkpt lat="38.89658" lon="1.26512">
        <ele>210</ele>
        <time>2010-01-01T02:47:56Z</time>
      </trkpt>
      <trkpt lat="38.89668" lon="1.26512">
        <ele>210</ele>
        <time>2010-01-01T02:48:00Z</time>
      </trkpt>
      <trkpt lat="38.89676" lon="1.26507">
        <ele>211</ele>
        <time>2010-01-01T02:48:03Z</time>
      </trkpt>
      <trkpt lat="38.89684" lon="1.265">
        <ele>212</ele>
        <time>2010-01-01T02:48:07Z</time>
      </trkpt>
      <trkpt lat="38.89693" lon="1.26497">
        <ele>213</ele>
        <time>2010-01-01T02:48:11Z</time>
      </trkpt>
      <trkpt lat="38.89705" lon="1.26497">
        <ele>213</ele>
        <time>2010-01-01T02:48:16Z</time>
      </trkpt>
      <trkpt lat="38.89713" lon="1.26503">
        <ele>213</ele>
        <time>2010-01-01T02:48:19Z</time>
      </trkpt>
      <trkpt lat="38.8972" lon="1.26514">
        <ele>212</ele>
        <time>2010-01-01T02:48:24Z</time>
      </trkpt>
      <trkpt lat="38.89724" lon="1.26526">
        <ele>211</ele>
        <time>2010-01-01T02:48:28Z</time>
      </trkpt>
      <trkpt lat="38.89727" lon="1.26537">
        <ele>210</ele>
        <time>2010-01-01T02:48:31Z</time>
      </trkpt>
      <trkpt lat="38.89728" lon="1.2655">
        <ele>210</ele>
        <time>2010-01-01T02:48:35Z</time>
      </trkpt>
      <trkpt lat="38.89729" lon="1.26565">
        <ele>209</ele>
        <time>2010-01-01T02:48:40Z</time>
      </trkpt>
      <trkpt lat="38.89727" lon="1.2658">
        <ele>207</ele>
        <time>2010-01-01T02:48:45Z</time>
      </trkpt>
      <trkpt lat="38.89724" lon="1.26591">
        <ele>206</ele>
        <time>2010-01-01T02:48:49Z</time>
      </trkpt>
      <trkpt lat="38.89719" lon="1.26602">
        <ele>206</ele>
        <time>2010-01-01T02:48:52Z</time>
      </trkpt>
      <trkpt lat="38.89715" lon="1.26613">
        <ele>205</ele>
        <time>2010-01-01T02:48:56Z</time>
      </trkpt>
      <trkpt lat="38.89708" lon="1.26623">
        <ele>205</ele>
        <time>2010-01-01T02:49:00Z</time>
      </trkpt>
      <trkpt lat="38.89699" lon="1.26627">
        <ele>203</ele>
        <time>2010-01-01T02:49:04Z</time>
      </trkpt>
      <trkpt lat="38.8969" lon="1.26629">
        <ele>202</ele>
        <time>2010-01-01T02:49:08Z</time>
      </trkpt>
      <trkpt lat="38.8968" lon="1.26634">
        <ele>200</ele>
        <time>2010-01-01T02:49:12Z</time>
      </trkpt>
      <trkpt lat="38.89671" lon="1.2664">
        <ele>199</ele>
        <time>2010-01-01T02:49:16Z</time>
      </trkpt>
      <trkpt lat="38.89664" lon="1.26649">
        <ele>198</ele>
        <time>2010-01-01T02:49:20Z</time>
      </trkpt>
      <trkpt lat="38.89659" lon="1.26659">
        <ele>196</ele>
        <time>2010-01-01T02:49:24Z</time>
      </trkpt>
      <trkpt lat="38.89654" lon="1.2667">
        <ele>194</ele>
        <time>2010-01-01T02:49:28Z</time>
      </trkpt>
      <trkpt lat="38.8965" lon="1.26682">
        <ele>193</ele>
        <time>2010-01-01T02:49:32Z</time>
      </trkpt>
      <trkpt lat="38.89649" lon="1.26696">
        <ele>192</ele>
        <time>2010-01-01T02:49:36Z</time>
      </trkpt>
      <trkpt lat="38.89649" lon="1.2671">
        <ele>191</ele>
        <time>2010-01-01T02:49:41Z</time>
      </trkpt>
      <trkpt lat="38.89649" lon="1.26722">
        <ele>190</ele>
        <time>2010-01-01T02:49:45Z</time>
      </trkpt>
      <trkpt lat="38.89652" lon="1.26736">
        <ele>188</ele>
        <time>2010-01-01T02:49:49Z</time>
      </trkpt>
      <trkpt lat="38.89655" lon="1.26749">
        <ele>186</ele>
        <time>2010-01-01T02:49:53Z</time>
      </trkpt>
      <trkpt lat="38.89653" lon="1.26761">
        <ele>184</ele>
        <time>2010-01-01T02:49:57Z</time>
      </trkpt>
      <trkpt lat="38.89656" lon="1.26774">
        <ele>183</ele>
        <time>2010-01-01T02:50:01Z</time>
      </trkpt>
      <trkpt lat="38.89658" lon="1.26788">
        <ele>182</ele>
        <time>2010-01-01T02:50:06Z</time>
      </trkpt>
      <trkpt lat="38.89659" lon="1.268">
        <ele>181</ele>
        <time>2010-01-01T02:50:09Z</time>
      </trkpt>
      <trkpt lat="38.8966" lon="1.26813">
        <ele>181</ele>
        <time>2010-01-01T02:50:13Z</time>
      </trkpt>
      <trkpt lat="38.89661" lon="1.26826">
        <ele>180</ele>
        <time>2010-01-01T02:50:18Z</time>
      </trkpt>
      <trkpt lat="38.8966" lon="1.2684">
        <ele>180</ele>
        <time>2010-01-01T02:50:22Z</time>
      </trkpt>
      <trkpt lat="38.89661" lon="1.26852">
        <ele>179</ele>
        <time>2010-01-01T02:50:26Z</time>
      </trkpt>
      <trkpt lat="38.89662" lon="1.26865">
        <ele>179</ele>
        <time>2010-01-01T02:50:30Z</time>
      </trkpt>
      <trkpt lat="38.89664" lon="1.26877">
        <ele>178</ele>
        <time>2010-01-01T02:50:34Z</time>
      </trkpt>
      <trkpt lat="38.89673" lon="1.26884">
        <ele>178</ele>
        <time>2010-01-01T02:50:38Z</time>
      </trkpt>
      <trkpt lat="38.89677" lon="1.26897">
        <ele>178</ele>
        <time>2010-01-01T02:50:42Z</time>
      </trkpt>
      <trkpt lat="38.89677" lon="1.26912">
        <ele>176</ele>
        <time>2010-01-01T02:50:47Z</time>
      </trkpt>
      <trkpt lat="38.89679" lon="1.26924">
        <ele>175</ele>
        <time>2010-01-01T02:50:50Z</time>
      </trkpt>
      <trkpt lat="38.89679" lon="1.26938">
        <ele>174</ele>
        <time>2010-01-01T02:50:55Z</time>
      </trkpt>
      <trkpt lat="38.89681" lon="1.26952">
        <ele>172</ele>
        <time>2010-01-01T02:50:59Z</time>
      </trkpt>
      <trkpt lat="38.89682" lon="1.26965">
        <ele>171</ele>
        <time>2010-01-01T02:51:03Z</time>
      </trkpt>
      <trkpt lat="38.89684" lon="1.26977">
        <ele>170</ele>
        <time>2010-01-01T02:51:07Z</time>
      </trkpt>
      <trkpt lat="38.89688" lon="1.26988">
        <ele>169</ele>
        <time>2010-01-01T02:51:11Z</time>
      </trkpt>
      <trkpt lat="38.89693" lon="1.27001">
        <ele>168</ele>
        <time>2010-01-01T02:51:16Z</time>
      </trkpt>
      <trkpt lat="38.8969" lon="1.27012">
        <ele>168</ele>
        <time>2010-01-01T02:51:19Z</time>
      </trkpt>
      <trkpt lat="38.89685" lon="1.27025">
        <ele>167</ele>
        <time>2010-01-01T02:51:24Z</time>
      </trkpt>
      <trkpt lat="38.89684" lon="1.27037">
        <ele>166</ele>
        <time>2010-01-01T02:51:27Z</time>
      </trkpt>
      <trkpt lat="38.89687" lon="1.2705">
        <ele>165</ele>
        <time>2010-01-01T02:51:32Z</time>
      </trkpt>
      <trkpt lat="38.89691" lon="1.27062">
        <ele>165</ele>
        <time>2010-01-01T02:51:36Z</time>
      </trkpt>
      <trkpt lat="38.89697" lon="1.27073">
        <ele>166</ele>
        <time>2010-01-01T02:51:40Z</time>
      </trkpt>
      <trkpt lat="38.897" lon="1.27092">
        <ele>167</ele>
        <time>2010-01-01T02:51:46Z</time>
      </trkpt>
      <trkpt lat="38.89697" lon="1.27105">
        <ele>167</ele>
        <time>2010-01-01T02:51:50Z</time>
      </trkpt>
      <trkpt lat="38.89689" lon="1.27111">
        <ele>167</ele>
        <time>2010-01-01T02:51:54Z</time>
      </trkpt>
      <trkpt lat="38.89685" lon="1.27122">
        <ele>166</ele>
        <time>2010-01-01T02:51:58Z</time>
      </trkpt>
      <trkpt lat="38.89684" lon="1.27135">
        <ele>167</ele>
        <time>2010-01-01T02:52:02Z</time>
      </trkpt>
      <trkpt lat="38.89685" lon="1.27147">
        <ele>167</ele>
        <time>2010-01-01T02:52:06Z</time>
      </trkpt>
      <trkpt lat="38.89689" lon="1.27157">
        <ele>167</ele>
        <time>2010-01-01T02:52:09Z</time>
      </trkpt>
      <trkpt lat="38.89689" lon="1.2717">
        <ele>167</ele>
        <time>2010-01-01T02:52:13Z</time>
      </trkpt>
      <trkpt lat="38.89691" lon="1.27183">
        <ele>166</ele>
        <time>2010-01-01T02:52:17Z</time>
      </trkpt>
      <trkpt lat="38.89696" lon="1.27193">
        <ele>166</ele>
        <time>2010-01-01T02:52:21Z</time>
      </trkpt>
      <trkpt lat="38.89707" lon="1.27195">
        <ele>168</ele>
        <time>2010-01-01T02:52:25Z</time>
      </trkpt>
      <trkpt lat="38.89717" lon="1.27195">
        <ele>170</ele>
        <time>2010-01-01T02:52:29Z</time>
      </trkpt>
      <trkpt lat="38.89717" lon="1.27208">
        <ele>169</ele>
        <time>2010-01-01T02:52:33Z</time>
      </trkpt>
      <trkpt lat="38.89712" lon="1.27218">
        <ele>168</ele>
        <time>2010-01-01T02:52:37Z</time>
      </trkpt>
      <trkpt lat="38.89706" lon="1.27229">
        <ele>167</ele>
        <time>2010-01-01T02:52:41Z</time>
      </trkpt>
      <trkpt lat="38.89699" lon="1.27236">
        <ele>165</ele>
        <time>2010-01-01T02:52:45Z</time>
      </trkpt>
      <trkpt lat="38.8969" lon="1.27245">
        <ele>163</ele>
        <time>2010-01-01T02:52:50Z</time>
      </trkpt>
      <trkpt lat="38.89681" lon="1.27246">
        <ele>161</ele>
        <time>2010-01-01T02:52:53Z</time>
      </trkpt>
      <trkpt lat="38.89673" lon="1.27254">
        <ele>160</ele>
        <time>2010-01-01T02:52:57Z</time>
      </trkpt>
      <trkpt lat="38.89665" lon="1.27263">
        <ele>160</ele>
        <time>2010-01-01T02:53:01Z</time>
      </trkpt>
      <trkpt lat="38.89662" lon="1.27275">
        <ele>161</ele>
        <time>2010-01-01T02:53:05Z</time>
      </trkpt>
      <trkpt lat="38.89655" lon="1.27284">
        <ele>163</ele>
        <time>2010-01-01T02:53:09Z</time>
      </trkpt>
      <trkpt lat="38.89653" lon="1.27295">
        <ele>164</ele>
        <time>2010-01-01T02:53:13Z</time>
      </trkpt>
      <trkpt lat="38.89654" lon="1.27307">
        <ele>165</ele>
        <time>2010-01-01T02:53:17Z</time>
      </trkpt>
      <trkpt lat="38.89651" lon="1.27319">
        <ele>166</ele>
        <time>2010-01-01T02:53:21Z</time>
      </trkpt>
      <trkpt lat="38.89649" lon="1.27331">
        <ele>166</ele>
        <time>2010-01-01T02:53:24Z</time>
      </trkpt>
      <trkpt lat="38.89651" lon="1.27342">
        <ele>165</ele>
        <time>2010-01-01T02:53:28Z</time>
      </trkpt>
      <trkpt lat="38.89652" lon="1.27354">
        <ele>165</ele>
        <time>2010-01-01T02:53:32Z</time>
      </trkpt>
      <trkpt lat="38.89651" lon="1.27367">
        <ele>165</ele>
        <time>2010-01-01T02:53:36Z</time>
      </trkpt>
      <trkpt lat="38.89652" lon="1.2738">
        <ele>164</ele>
        <time>2010-01-01T02:53:40Z</time>
      </trkpt>
      <trkpt lat="38.89654" lon="1.27393">
        <ele>162</ele>
        <time>2010-01-01T02:53:44Z</time>
      </trkpt>
      <trkpt lat="38.89646" lon="1.274">
        <ele>164</ele>
        <time>2010-01-01T02:53:48Z</time>
      </trkpt>
      <trkpt lat="38.89643" lon="1.27411">
        <ele>165</ele>
        <time>2010-01-01T02:53:51Z</time>
      </trkpt>
      <trkpt lat="38.89638" lon="1.27421">
        <ele>166</ele>
        <time>2010-01-01T02:53:55Z</time>
      </trkpt>
      <trkpt lat="38.89633" lon="1.27431">
        <ele>167</ele>
        <time>2010-01-01T02:53:59Z</time>
      </trkpt>
      <trkpt lat="38.89629" lon="1.27443">
        <ele>167</ele>
        <time>2010-01-01T02:54:03Z</time>
      </trkpt>
      <trkpt lat="38.89626" lon="1.27455">
        <ele>167</ele>
        <time>2010-01-01T02:54:07Z</time>
      </trkpt>
      <trkpt lat="38.89621" lon="1.27465">
        <ele>168</ele>
        <time>2010-01-01T02:54:10Z</time>
      </trkpt>
      <trkpt lat="38.89614" lon="1.27473">
        <ele>170</ele>
        <time>2010-01-01T02:54:14Z</time>
      </trkpt>
      <trkpt lat="38.89606" lon="1.27481">
        <ele>171</ele>
        <time>2010-01-01T02:54:18Z</time>
      </trkpt>
      <trkpt lat="38.89596" lon="1.27485">
        <ele>173</ele>
        <time>2010-01-01T02:54:22Z</time>
      </trkpt>
      <trkpt lat="38.89589" lon="1.27493">
        <ele>174</ele>
        <time>2010-01-01T02:54:26Z</time>
      </trkpt>
      <trkpt lat="38.89583" lon="1.27503">
        <ele>175</ele>
        <time>2010-01-01T02:54:30Z</time>
      </trkpt>
      <trkpt lat="38.8958" lon="1.27515">
        <ele>176</ele>
        <time>2010-01-01T02:54:34Z</time>
      </trkpt>
      <trkpt lat="38.89575" lon="1.27526">
        <ele>176</ele>
        <time>2010-01-01T02:54:38Z</time>
      </trkpt>
      <trkpt lat="38.89569" lon="1.27535">
        <ele>177</ele>
        <time>2010-01-01T02:54:42Z</time>
      </trkpt>
      <trkpt lat="38.89562" lon="1.27544">
        <ele>178</ele>
        <time>2010-01-01T02:54:45Z</time>
      </trkpt>
      <trkpt lat="38.89554" lon="1.27539">
        <ele>180</ele>
        <time>2010-01-01T02:54:49Z</time>
      </trkpt>
      <trkpt lat="38.89546" lon="1.27529">
        <ele>181</ele>
        <time>2010-01-01T02:54:53Z</time>
      </trkpt>
      <trkpt lat="38.89537" lon="1.27528">
        <ele>183</ele>
        <time>2010-01-01T02:54:57Z</time>
      </trkpt>
      <trkpt lat="38.89533" lon="1.27539">
        <ele>184</ele>
        <time>2010-01-01T02:55:01Z</time>
      </trkpt>
      <trkpt lat="38.89529" lon="1.2755">
        <ele>184</ele>
        <time>2010-01-01T02:55:05Z</time>
      </trkpt>
      <trkpt lat="38.89527" lon="1.27563">
        <ele>184</ele>
        <time>2010-01-01T02:55:09Z</time>
      </trkpt>
      <trkpt lat="38.89526" lon="1.27574">
        <ele>183</ele>
        <time>2010-01-01T02:55:12Z</time>
      </trkpt>
      <trkpt lat="38.89528" lon="1.27587">
        <ele>181</ele>
        <time>2010-01-01T02:55:16Z</time>
      </trkpt>
      <trkpt lat="38.8953" lon="1.27599">
        <ele>180</ele>
        <time>2010-01-01T02:55:20Z</time>
      </trkpt>
      <trkpt lat="38.89521" lon="1.27607">
        <ele>180</ele>
        <time>2010-01-01T02:55:24Z</time>
      </trkpt>
      <trkpt lat="38.8951" lon="1.27604">
        <ele>181</ele>
        <time>2010-01-01T02:55:29Z</time>
      </trkpt>
      <trkpt lat="38.89499" lon="1.27606">
        <ele>182</ele>
        <time>2010-01-01T02:55:33Z</time>
      </trkpt>
      <trkpt lat="38.89495" lon="1.27617">
        <ele>181</ele>
        <time>2010-01-01T02:55:37Z</time>
      </trkpt>
      <trkpt lat="38.89496" lon="1.27629">
        <ele>180</ele>
        <time>2010-01-01T02:55:41Z</time>
      </trkpt>
      <trkpt lat="38.89497" lon="1.27641">
        <ele>179</ele>
        <time>2010-01-01T02:55:45Z</time>
      </trkpt>
      <trkpt lat="38.89498" lon="1.27656">
        <ele>179</ele>
        <time>2010-01-01T02:55:49Z</time>
      </trkpt>
      <trkpt lat="38.89499" lon="1.27669">
        <ele>178</ele>
        <time>2010-01-01T02:55:53Z</time>
      </trkpt>
      <trkpt lat="38.89499" lon="1.27681">
        <ele>178</ele>
        <time>2010-01-01T02:55:57Z</time>
      </trkpt>
      <trkpt lat="38.89501" lon="1.27692">
        <ele>178</ele>
        <time>2010-01-01T02:56:01Z</time>
      </trkpt>
      <trkpt lat="38.89503" lon="1.27704">
        <ele>179</ele>
        <time>2010-01-01T02:56:04Z</time>
      </trkpt>
      <trkpt lat="38.89506" lon="1.27717">
        <ele>179</ele>
        <time>2010-01-01T02:56:09Z</time>
      </trkpt>
      <trkpt lat="38.8951" lon="1.27731">
        <ele>179</ele>
        <time>2010-01-01T02:56:13Z</time>
      </trkpt>
      <trkpt lat="38.89501" lon="1.27729">
        <ele>181</ele>
        <time>2010-01-01T02:56:17Z</time>
      </trkpt>
      <trkpt lat="38.89496" lon="1.27717">
        <ele>181</ele>
        <time>2010-01-01T02:56:21Z</time>
      </trkpt>
      <trkpt lat="38.89493" lon="1.27706">
        <ele>181</ele>
        <time>2010-01-01T02:56:24Z</time>
      </trkpt>
      <trkpt lat="38.89486" lon="1.27695">
        <ele>183</ele>
        <time>2010-01-01T02:56:29Z</time>
      </trkpt>
      <trkpt lat="38.89481" lon="1.27685">
        <ele>184</ele>
        <time>2010-01-01T02:56:33Z</time>
      </trkpt>
      <trkpt lat="38.89476" lon="1.27673">
        <ele>186</ele>
        <time>2010-01-01T02:56:37Z</time>
      </trkpt>
      <trkpt lat="38.89472" lon="1.27661">
        <ele>186</ele>
        <time>2010-01-01T02:56:41Z</time>
      </trkpt>
      <trkpt lat="38.89467" lon="1.27651">
        <ele>187</ele>
        <time>2010-01-01T02:56:45Z</time>
      </trkpt>
      <trkpt lat="38.89462" lon="1.27639">
        <ele>188</ele>
        <time>2010-01-01T02:56:49Z</time>
      </trkpt>
      <trkpt lat="38.89459" lon="1.27625">
        <ele>188</ele>
        <time>2010-01-01T02:56:53Z</time>
      </trkpt>
      <trkpt lat="38.89454" lon="1.27614">
        <ele>188</ele>
        <time>2010-01-01T02:56:57Z</time>
      </trkpt>
      <trkpt lat="38.89448" lon="1.27601">
        <ele>188</ele>
        <time>2010-01-01T02:57:02Z</time>
      </trkpt>
      <trkpt lat="38.89443" lon="1.27589">
        <ele>187</ele>
        <time>2010-01-01T02:57:06Z</time>
      </trkpt>
      <trkpt lat="38.89438" lon="1.27578">
        <ele>188</ele>
        <time>2010-01-01T02:57:10Z</time>
      </trkpt>
      <trkpt lat="38.89434" lon="1.27568">
        <ele>189</ele>
        <time>2010-01-01T02:57:14Z</time>
      </trkpt>
      <trkpt lat="38.89429" lon="1.27556">
        <ele>190</ele>
        <time>2010-01-01T02:57:18Z</time>
      </trkpt>
      <trkpt lat="38.89425" lon="1.27544">
        <ele>191</ele>
        <time>2010-01-01T02:57:22Z</time>
      </trkpt>
      <trkpt lat="38.89421" lon="1.27534">
        <ele>193</ele>
        <time>2010-01-01T02:57:26Z</time>
      </trkpt>
      <trkpt lat="38.89415" lon="1.27524">
        <ele>194</ele>
        <time>2010-01-01T02:57:29Z</time>
      </trkpt>
      <trkpt lat="38.89409" lon="1.27515">
        <ele>196</ele>
        <time>2010-01-01T02:57:33Z</time>
      </trkpt>
      <trkpt lat="38.89404" lon="1.27503">
        <ele>198</ele>
        <time>2010-01-01T02:57:37Z</time>
      </trkpt>
      <trkpt lat="38.89399" lon="1.27493">
        <ele>200</ele>
        <time>2010-01-01T02:57:41Z</time>
      </trkpt>
      <trkpt lat="38.89395" lon="1.27481">
        <ele>201</ele>
        <time>2010-01-01T02:57:45Z</time>
      </trkpt>
      <trkpt lat="38.89392" lon="1.27468">
        <ele>202</ele>
        <time>2010-01-01T02:57:50Z</time>
      </trkpt>
      <trkpt lat="38.89391" lon="1.27456">
        <ele>204</ele>
        <time>2010-01-01T02:57:53Z</time>
      </trkpt>
      <trkpt lat="38.89387" lon="1.27444">
        <ele>206</ele>
        <time>2010-01-01T02:57:57Z</time>
      </trkpt>
      <trkpt lat="38.89385" lon="1.27432">
        <ele>208</ele>
        <time>2010-01-01T02:58:01Z</time>
      </trkpt>
      <trkpt lat="38.89387" lon="1.2742">
        <ele>210</ele>
        <time>2010-01-01T02:58:05Z</time>
      </trkpt>
      <trkpt lat="38.8939" lon="1.27409">
        <ele>212</ele>
        <time>2010-01-01T02:58:08Z</time>
      </trkpt>
      <trkpt lat="38.89398" lon="1.27402">
        <ele>213</ele>
        <time>2010-01-01T02:58:12Z</time>
      </trkpt>
      <trkpt lat="38.89406" lon="1.27394">
        <ele>214</ele>
        <time>2010-01-01T02:58:16Z</time>
      </trkpt>
      <trkpt lat="38.89413" lon="1.27386">
        <ele>215</ele>
        <time>2010-01-01T02:58:20Z</time>
      </trkpt>
      <trkpt lat="38.89418" lon="1.27375">
        <ele>216</ele>
        <time>2010-01-01T02:58:24Z</time>
      </trkpt>
      <trkpt lat="38.89421" lon="1.27363">
        <ele>217</ele>
        <time>2010-01-01T02:58:28Z</time>
      </trkpt>
      <trkpt lat="38.89427" lon="1.27351">
        <ele>217</ele>
        <time>2010-01-01T02:58:32Z</time>
      </trkpt>
      <trkpt lat="38.8943" lon="1.2734">
        <ele>218</ele>
        <time>2010-01-01T02:58:36Z</time>
      </trkpt>
      <trkpt lat="38.89429" lon="1.27327">
        <ele>219</ele>
        <time>2010-01-01T02:58:40Z</time>
      </trkpt>
      <trkpt lat="38.89426" lon="1.27315">
        <ele>220</ele>
        <time>2010-01-01T02:58:44Z</time>
      </trkpt>
      <trkpt lat="38.89423" lon="1.27303">
        <ele>222</ele>
        <time>2010-01-01T02:58:48Z</time>
      </trkpt>
      <trkpt lat="38.89421" lon="1.27291">
        <ele>224</ele>
        <time>2010-01-01T02:58:52Z</time>
      </trkpt>
      <trkpt lat="38.89413" lon="1.27283">
        <ele>225</ele>
        <time>2010-01-01T02:58:56Z</time>
      </trkpt>
      <trkpt lat="38.89405" lon="1.27276">
        <ele>226</ele>
        <time>2010-01-01T02:59:00Z</time>
      </trkpt>
      <trkpt lat="38.89398" lon="1.27268">
        <ele>228</ele>
        <time>2010-01-01T02:59:03Z</time>
      </trkpt>
      <trkpt lat="38.8939" lon="1.27262">
        <ele>229</ele>
        <time>2010-01-01T02:59:07Z</time>
      </trkpt>
      <trkpt lat="38.89383" lon="1.27254">
        <ele>230</ele>
        <time>2010-01-01T02:59:11Z</time>
      </trkpt>
      <trkpt lat="38.89374" lon="1.27248">
        <ele>232</ele>
        <time>2010-01-01T02:59:15Z</time>
      </trkpt>
      <trkpt lat="38.89365" lon="1.27243">
        <ele>233</ele>
        <time>2010-01-01T02:59:19Z</time>
      </trkpt>
      <trkpt lat="38.89356" lon="1.27235">
        <ele>234</ele>
        <time>2010-01-01T02:59:23Z</time>
      </trkpt>
      <trkpt lat="38.8935" lon="1.27225">
        <ele>234</ele>
        <time>2010-01-01T02:59:27Z</time>
      </trkpt>
      <trkpt lat="38.89345" lon="1.27214">
        <ele>233</ele>
        <time>2010-01-01T02:59:31Z</time>
      </trkpt>
      <trkpt lat="38.8934" lon="1.27204">
        <ele>232</ele>
        <time>2010-01-01T02:59:35Z</time>
      </trkpt>
      <trkpt lat="38.89336" lon="1.27192">
        <ele>232</ele>
        <time>2010-01-01T02:59:39Z</time>
      </trkpt>
      <trkpt lat="38.89332" lon="1.27179">
        <ele>232</ele>
        <time>2010-01-01T02:59:43Z</time>
      </trkpt>
      <trkpt lat="38.89328" lon="1.27169">
        <ele>232</ele>
        <time>2010-01-01T02:59:47Z</time>
      </trkpt>
      <trkpt lat="38.89324" lon="1.27156">
        <ele>233</ele>
        <time>2010-01-01T02:59:51Z</time>
      </trkpt>
      <trkpt lat="38.8932" lon="1.27146">
        <ele>235</ele>
        <time>2010-01-01T02:59:55Z</time>
      </trkpt>
      <trkpt lat="38.89317" lon="1.27135">
        <ele>236</ele>
        <time>2010-01-01T02:59:58Z</time>
      </trkpt>
      <trkpt lat="38.89313" lon="1.27122">
        <ele>238</ele>
        <time>2010-01-01T03:00:02Z</time>
      </trkpt>
      <trkpt lat="38.89315" lon="1.27111">
        <ele>239</ele>
        <time>2010-01-01T03:00:06Z</time>
      </trkpt>
      <trkpt lat="38.89315" lon="1.27099">
        <ele>240</ele>
        <time>2010-01-01T03:00:10Z</time>
      </trkpt>
      <trkpt lat="38.89311" lon="1.27087">
        <ele>241</ele>
        <time>2010-01-01T03:00:14Z</time>
      </trkpt>
      <trkpt lat="38.89309" lon="1.27074">
        <ele>244</ele>
        <time>2010-01-01T03:00:18Z</time>
      </trkpt>
      <trkpt lat="38.89305" lon="1.27063">
        <ele>247</ele>
        <time>2010-01-01T03:00:22Z</time>
      </trkpt>
      <trkpt lat="38.89303" lon="1.27052">
        <ele>249</ele>
        <time>2010-01-01T03:00:25Z</time>
      </trkpt>
      <trkpt lat="38.89304" lon="1.2704">
        <ele>252</ele>
        <time>2010-01-01T03:00:29Z</time>
      </trkpt>
      <trkpt lat="38.89308" lon="1.27029">
        <ele>253</ele>
        <time>2010-01-01T03:00:33Z</time>
      </trkpt>
      <trkpt lat="38.89311" lon="1.27018">
        <ele>254</ele>
        <time>2010-01-01T03:00:37Z</time>
      </trkpt>
      <trkpt lat="38.89316" lon="1.27007">
        <ele>255</ele>
        <time>2010-01-01T03:00:40Z</time>
      </trkpt>
      <trkpt lat="38.89322" lon="1.26997">
        <ele>255</ele>
        <time>2010-01-01T03:00:44Z</time>
      </trkpt>
      <trkpt lat="38.89327" lon="1.26985">
        <ele>255</ele>
        <time>2010-01-01T03:00:49Z</time>
      </trkpt>
      <trkpt lat="38.89333" lon="1.26976">
        <ele>255</ele>
        <time>2010-01-01T03:00:52Z</time>
      </trkpt>
      <trkpt lat="38.89341" lon="1.26967">
        <ele>254</ele>
        <time>2010-01-01T03:00:56Z</time>
      </trkpt>
      <trkpt lat="38.89346" lon="1.26956">
        <ele>253</ele>
        <time>2010-01-01T03:01:00Z</time>
      </trkpt>
      <trkpt lat="38.89349" lon="1.26945">
        <ele>254</ele>
        <time>2010-01-01T03:01:04Z</time>
      </trkpt>
      <trkpt lat="38.89348" lon="1.26932">
        <ele>256</ele>
        <time>2010-01-01T03:01:08Z</time>
      </trkpt>
      <trkpt lat="38.89345" lon="1.2692">
        <ele>258</ele>
        <time>2010-01-01T03:01:12Z</time>
      </trkpt>
      <trkpt lat="38.89339" lon="1.2691">
        <ele>260</ele>
        <time>2010-01-01T03:01:16Z</time>
      </trkpt>
      <trkpt lat="38.89332" lon="1.26901">
        <ele>263</ele>
        <time>2010-01-01T03:01:20Z</time>
      </trkpt>
      <trkpt lat="38.89326" lon="1.26892">
        <ele>264</ele>
        <time>2010-01-01T03:01:24Z</time>
      </trkpt>
      <trkpt lat="38.89318" lon="1.26886">
        <ele>265</ele>
        <time>2010-01-01T03:01:27Z</time>
      </trkpt>
      <trkpt lat="38.89309" lon="1.26882">
        <ele>267</ele>
        <time>2010-01-01T03:01:31Z</time>
      </trkpt>
      <trkpt lat="38.893" lon="1.26879">
        <ele>268</ele>
        <time>2010-01-01T03:01:35Z</time>
      </trkpt>
      <trkpt lat="38.89292" lon="1.26872">
        <ele>269</ele>
        <time>2010-01-01T03:01:39Z</time>
      </trkpt>
      <trkpt lat="38.89285" lon="1.26863">
        <ele>271</ele>
        <time>2010-01-01T03:01:43Z</time>
      </trkpt>
      <trkpt lat="38.8928" lon="1.26853">
        <ele>272</ele>
        <time>2010-01-01T03:01:46Z</time>
      </trkpt>
      <trkpt lat="38.89276" lon="1.26842">
        <ele>274</ele>
        <time>2010-01-01T03:01:50Z</time>
      </trkpt>
      <trkpt lat="38.89269" lon="1.26834">
        <ele>275</ele>
        <time>2010-01-01T03:01:54Z</time>
      </trkpt>
      <trkpt lat="38.89264" lon="1.26823">
        <ele>278</ele>
        <time>2010-01-01T03:01:58Z</time>
      </trkpt>
      <trkpt lat="38.8926" lon="1.26812">
        <ele>280</ele>
        <time>2010-01-01T03:02:02Z</time>
      </trkpt>
      <trkpt lat="38.8926" lon="1.26798">
        <ele>282</ele>
        <time>2010-01-01T03:02:06Z</time>
      </trkpt>
      <trkpt lat="38.89257" lon="1.26787">
        <ele>284</ele>
        <time>2010-01-01T03:02:09Z</time>
      </trkpt>
      <trkpt lat="38.89253" lon="1.26775">
        <ele>286</ele>
        <time>2010-01-01T03:02:14Z</time>
      </trkpt>
      <trkpt lat="38.89249" lon="1.26762">
        <ele>285</ele>
        <time>2010-01-01T03:02:18Z</time>
      </trkpt>
      <trkpt lat="38.89242" lon="1.26752">
        <ele>286</ele>
        <time>2010-01-01T03:02:22Z</time>
      </trkpt>
      <trkpt lat="38.89236" lon="1.26743">
        <ele>286</ele>
        <time>2010-01-01T03:02:26Z</time>
      </trkpt>
      <trkpt lat="38.8923" lon="1.26734">
        <ele>286</ele>
        <time>2010-01-01T03:02:29Z</time>
      </trkpt>
      <trkpt lat="38.89223" lon="1.26725">
        <ele>286</ele>
        <time>2010-01-01T03:02:33Z</time>
      </trkpt>
      <trkpt lat="38.8922" lon="1.26714">
        <ele>286</ele>
        <time>2010-01-01T03:02:37Z</time>
      </trkpt>
      <trkpt lat="38.8922" lon="1.26701">
        <ele>285</ele>
        <time>2010-01-01T03:02:41Z</time>
      </trkpt>
      <trkpt lat="38.89219" lon="1.26687">
        <ele>285</ele>
        <time>2010-01-01T03:02:45Z</time>
      </trkpt>
      <trkpt lat="38.89216" lon="1.26676">
        <ele>286</ele>
        <time>2010-01-01T03:02:49Z</time>
      </trkpt>
      <trkpt lat="38.89214" lon="1.26664">
        <ele>286</ele>
        <time>2010-01-01T03:02:53Z</time>
      </trkpt>
      <trkpt lat="38.89211" lon="1.26651">
        <ele>287</ele>
        <time>2010-01-01T03:02:57Z</time>
      </trkpt>
      <trkpt lat="38.8921" lon="1.26639">
        <ele>288</ele>
        <time>2010-01-01T03:03:01Z</time>
      </trkpt>
      <trkpt lat="38.89208" lon="1.26627">
        <ele>289</ele>
        <time>2010-01-01T03:03:05Z</time>
      </trkpt>
      <trkpt lat="38.89204" lon="1.26616">
        <ele>290</ele>
        <time>2010-01-01T03:03:08Z</time>
      </trkpt>
      <trkpt lat="38.89201" lon="1.26605">
        <ele>292</ele>
        <time>2010-01-01T03:03:12Z</time>
      </trkpt>
      <trkpt lat="38.89196" lon="1.26595">
        <ele>293</ele>
        <time>2010-01-01T03:03:16Z</time>
      </trkpt>
      <trkpt lat="38.89194" lon="1.26584">
        <ele>294</ele>
        <time>2010-01-01T03:03:19Z</time>
      </trkpt>
      <trkpt lat="38.89189" lon="1.26572">
        <ele>295</ele>
        <time>2010-01-01T03:03:24Z</time>
      </trkpt>
      <trkpt lat="38.89186" lon="1.26561">
        <ele>295</ele>
        <time>2010-01-01T03:03:27Z</time>
      </trkpt>
      <trkpt lat="38.89183" lon="1.26547">
        <ele>296</ele>
        <time>2010-01-01T03:03:32Z</time>
      </trkpt>
      <trkpt lat="38.8918" lon="1.26535">
        <ele>296</ele>
        <time>2010-01-01T03:03:35Z</time>
      </trkpt>
      <trkpt lat="38.89177" lon="1.26522">
        <ele>297</ele>
        <time>2010-01-01T03:03:40Z</time>
      </trkpt>
      <trkpt lat="38.89173" lon="1.26508">
        <ele>297</ele>
        <time>2010-01-01T03:03:45Z</time>
      </trkpt>
      <trkpt lat="38.89171" lon="1.26496">
        <ele>298</ele>
        <time>2010-01-01T03:03:48Z</time>
      </trkpt>
      <trkpt lat="38.89169" lon="1.26483">
        <ele>298</ele>
        <time>2010-01-01T03:03:52Z</time>
      </trkpt>
      <trkpt lat="38.89169" lon="1.26471">
        <ele>298</ele>
        <time>2010-01-01T03:03:56Z</time>
      </trkpt>
      <trkpt lat="38.8917" lon="1.26459">
        <ele>297</ele>
        <time>2010-01-01T03:04:00Z</time>
      </trkpt>
      <trkpt lat="38.89166" lon="1.26448">
        <ele>297</ele>
        <time>2010-01-01T03:04:04Z</time>
      </trkpt>
      <trkpt lat="38.8916" lon="1.26438">
        <ele>298</ele>
        <time>2010-01-01T03:04:08Z</time>
      </trkpt>
      <trkpt lat="38.89152" lon="1.2643">
        <ele>300</ele>
        <time>2010-01-01T03:04:12Z</time>
      </trkpt>
      <trkpt lat="38.89146" lon="1.26421">
        <ele>302</ele>
        <time>2010-01-01T03:04:15Z</time>
      </trkpt>
      <trkpt lat="38.89138" lon="1.26414">
        <ele>304</ele>
        <time>2010-01-01T03:04:19Z</time>
      </trkpt>
      <trkpt lat="38.89132" lon="1.26404">
        <ele>304</ele>
        <time>2010-01-01T03:04:23Z</time>
      </trkpt>
      <trkpt lat="38.89125" lon="1.26395">
        <ele>305</ele>
        <time>2010-01-01T03:04:27Z</time>
      </trkpt>
      <trkpt lat="38.8912" lon="1.26386">
        <ele>306</ele>
        <time>2010-01-01T03:04:31Z</time>
      </trkpt>
      <trkpt lat="38.89114" lon="1.26375">
        <ele>307</ele>
        <time>2010-01-01T03:04:35Z</time>
      </trkpt>
      <trkpt lat="38.89107" lon="1.26365">
        <ele>308</ele>
        <time>2010-01-01T03:04:39Z</time>
      </trkpt>
      <trkpt lat="38.89102" lon="1.26354">
        <ele>309</ele>
        <time>2010-01-01T03:04:43Z</time>
      </trkpt>
      <trkpt lat="38.89101" lon="1.26342">
        <ele>312</ele>
        <time>2010-01-01T03:04:47Z</time>
      </trkpt>
      <trkpt lat="38.89101" lon="1.26329">
        <ele>314</ele>
        <time>2010-01-01T03:04:51Z</time>
      </trkpt>
      <trkpt lat="38.89101" lon="1.26316">
        <ele>316</ele>
        <time>2010-01-01T03:04:55Z</time>
      </trkpt>
      <trkpt lat="38.89102" lon="1.26304">
        <ele>318</ele>
        <time>2010-01-01T03:04:58Z</time>
      </trkpt>
      <trkpt lat="38.89105" lon="1.26293">
        <ele>318</ele>
        <time>2010-01-01T03:05:02Z</time>
      </trkpt>
      <trkpt lat="38.89104" lon="1.26281">
        <ele>320</ele>
        <time>2010-01-01T03:05:06Z</time>
      </trkpt>
      <trkpt lat="38.89105" lon="1.26268">
        <ele>321</ele>
        <time>2010-01-01T03:05:10Z</time>
      </trkpt>
      <trkpt lat="38.89104" lon="1.26256">
        <ele>322</ele>
        <time>2010-01-01T03:05:14Z</time>
      </trkpt>
      <trkpt lat="38.89105" lon="1.26244">
        <ele>323</ele>
        <time>2010-01-01T03:05:17Z</time>
      </trkpt>
      <trkpt lat="38.89105" lon="1.26232">
        <ele>325</ele>
        <time>2010-01-01T03:05:21Z</time>
      </trkpt>
      <trkpt lat="38.89104" lon="1.2622">
        <ele>328</ele>
        <time>2010-01-01T03:05:25Z</time>
      </trkpt>
      <trkpt lat="38.89103" lon="1.26207">
        <ele>331</ele>
        <time>2010-01-01T03:05:29Z</time>
      </trkpt>
      <trkpt lat="38.89101" lon="1.26194">
        <ele>334</ele>
        <time>2010-01-01T03:05:33Z</time>
      </trkpt>
      <trkpt lat="38.89103" lon="1.26181">
        <ele>334</ele>
        <time>2010-01-01T03:05:37Z</time>
      </trkpt>
      <trkpt lat="38.89107" lon="1.2617">
        <ele>333</ele>
        <time>2010-01-01T03:05:41Z</time>
      </trkpt>
      <trkpt lat="38.89106" lon="1.26158">
        <ele>334</ele>
        <time>2010-01-01T03:05:45Z</time>
      </trkpt>
      <trkpt lat="38.89105" lon="1.26146">
        <ele>335</ele>
        <time>2010-01-01T03:05:49Z</time>
      </trkpt>
      <trkpt lat="38.89103" lon="1.26133">
        <ele>337</ele>
        <time>2010-01-01T03:05:53Z</time>
      </trkpt>
      <trkpt lat="38.891" lon="1.26122">
        <ele>339</ele>
        <time>2010-01-01T03:05:56Z</time>
      </trkpt>
      <trkpt lat="38.89098" lon="1.26109">
        <ele>340</ele>
        <time>2010-01-01T03:06:00Z</time>
      </trkpt>
      <trkpt lat="38.89096" lon="1.26097">
        <ele>341</ele>
        <time>2010-01-01T03:06:04Z</time>
      </trkpt>
      <trkpt lat="38.89095" lon="1.26085">
        <ele>342</ele>
        <time>2010-01-01T03:06:08Z</time>
      </trkpt>
      <trkpt lat="38.8909" lon="1.26074">
        <ele>343</ele>
        <time>2010-01-01T03:06:12Z</time>
      </trkpt>
      <trkpt lat="38.89084" lon="1.26065">
        <ele>345</ele>
        <time>2010-01-01T03:06:16Z</time>
      </trkpt>
      <trkpt lat="38.8908" lon="1.26054">
        <ele>346</ele>
        <time>2010-01-01T03:06:20Z</time>
      </trkpt>
      <trkpt lat="38.89075" lon="1.26042">
        <ele>346</ele>
        <time>2010-01-01T03:06:24Z</time>
      </trkpt>
      <trkpt lat="38.89069" lon="1.26033">
        <ele>348</ele>
        <time>2010-01-01T03:06:28Z</time>
      </trkpt>
      <trkpt lat="38.89061" lon="1.26025">
        <ele>350</ele>
        <time>2010-01-01T03:06:32Z</time>
      </trkpt>
      <trkpt lat="38.89054" lon="1.26016">
        <ele>352</ele>
        <time>2010-01-01T03:06:36Z</time>
      </trkpt>
      <trkpt lat="38.89046" lon="1.2601">
        <ele>354</ele>
        <time>2010-01-01T03:06:39Z</time>
      </trkpt>
      <trkpt lat="38.89039" lon="1.26001">
        <ele>355</ele>
        <time>2010-01-01T03:06:43Z</time>
      </trkpt>
      <trkpt lat="38.89031" lon="1.25994">
        <ele>357</ele>
        <time>2010-01-01T03:06:47Z</time>
      </trkpt>
      <trkpt lat="38.89022" lon="1.2599">
        <ele>358</ele>
        <time>2010-01-01T03:06:51Z</time>
      </trkpt>
      <trkpt lat="38.89013" lon="1.25985">
        <ele>359</ele>
        <time>2010-01-01T03:06:55Z</time>
      </trkpt>
      <trkpt lat="38.89004" lon="1.25981">
        <ele>360</ele>
        <time>2010-01-01T03:06:59Z</time>
      </trkpt>
      <trkpt lat="38.88996" lon="1.25974">
        <ele>361</ele>
        <time>2010-01-01T03:07:03Z</time>
      </trkpt>
      <trkpt lat="38.88987" lon="1.25968">
        <ele>361</ele>
        <time>2010-01-01T03:07:06Z</time>
      </trkpt>
      <trkpt lat="38.88979" lon="1.25963">
        <ele>361</ele>
        <time>2010-01-01T03:07:10Z</time>
      </trkpt>
      <trkpt lat="38.88971" lon="1.25958">
        <ele>361</ele>
        <time>2010-01-01T03:07:14Z</time>
      </trkpt>
      <trkpt lat="38.88964" lon="1.2595">
        <ele>361</ele>
        <time>2010-01-01T03:07:18Z</time>
      </trkpt>
      <trkpt lat="38.88956" lon="1.25944">
        <ele>362</ele>
        <time>2010-01-01T03:07:21Z</time>
      </trkpt>
      <trkpt lat="38.88953" lon="1.25933">
        <ele>364</ele>
        <time>2010-01-01T03:07:25Z</time>
      </trkpt>
      <trkpt lat="38.88946" lon="1.25923">
        <ele>365</ele>
        <time>2010-01-01T03:07:29Z</time>
      </trkpt>
      <trkpt lat="38.8894" lon="1.25912">
        <ele>367</ele>
        <time>2010-01-01T03:07:33Z</time>
      </trkpt>
      <trkpt lat="38.88933" lon="1.25904">
        <ele>369</ele>
        <time>2010-01-01T03:07:37Z</time>
      </trkpt>
      <trkpt lat="38.88926" lon="1.25895">
        <ele>371</ele>
        <time>2010-01-01T03:07:41Z</time>
      </trkpt>
      <trkpt lat="38.88916" lon="1.25892">
        <ele>372</ele>
        <time>2010-01-01T03:07:45Z</time>
      </trkpt>
      <trkpt lat="38.88907" lon="1.25889">
        <ele>373</ele>
        <time>2010-01-01T03:07:49Z</time>
      </trkpt>
      <trkpt lat="38.88897" lon="1.25884">
        <ele>375</ele>
        <time>2010-01-01T03:07:53Z</time>
      </trkpt>
      <trkpt lat="38.88888" lon="1.2588">
        <ele>376</ele>
        <time>2010-01-01T03:07:57Z</time>
      </trkpt>
      <trkpt lat="38.88879" lon="1.25877">
        <ele>375</ele>
        <time>2010-01-01T03:08:01Z</time>
      </trkpt>
      <trkpt lat="38.88869" lon="1.25873">
        <ele>375</ele>
        <time>2010-01-01T03:08:05Z</time>
      </trkpt>
      <trkpt lat="38.88863" lon="1.25865">
        <ele>376</ele>
        <time>2010-01-01T03:08:08Z</time>
      </trkpt>
      <trkpt lat="38.8886" lon="1.25854">
        <ele>379</ele>
        <time>2010-01-01T03:08:12Z</time>
      </trkpt>
      <trkpt lat="38.88856" lon="1.25843">
        <ele>380</ele>
        <time>2010-01-01T03:08:16Z</time>
      </trkpt>
      <trkpt lat="38.8886" lon="1.25832">
        <ele>384</ele>
        <time>2010-01-01T03:08:19Z</time>
      </trkpt>
      <trkpt lat="38.88863" lon="1.25821">
        <ele>388</ele>
        <time>2010-01-01T03:08:23Z</time>
      </trkpt>
      <trkpt lat="38.88866" lon="1.2581">
        <ele>391</ele>
        <time>2010-01-01T03:08:27Z</time>
      </trkpt>
      <trkpt lat="38.88874" lon="1.25803">
        <ele>394</ele>
        <time>2010-01-01T03:08:30Z</time>
      </trkpt>
      <trkpt lat="38.88879" lon="1.25793">
        <ele>398</ele>
        <time>2010-01-01T03:08:34Z</time>
      </trkpt>
      <trkpt lat="38.88877" lon="1.25781">
        <ele>402</ele>
        <time>2010-01-01T03:08:38Z</time>
      </trkpt>
      <trkpt lat="38.8887" lon="1.25775">
        <ele>403</ele>
        <time>2010-01-01T03:08:41Z</time>
      </trkpt>
      <trkpt lat="38.88872" lon="1.25763">
        <ele>406</ele>
        <time>2010-01-01T03:08:45Z</time>
      </trkpt>
      <trkpt lat="38.8888" lon="1.25757">
        <ele>408</ele>
        <time>2010-01-01T03:08:49Z</time>
      </trkpt>
      <trkpt lat="38.88885" lon="1.25745">
        <ele>411</ele>
        <time>2010-01-01T03:08:53Z</time>
      </trkpt>
      <trkpt lat="38.88893" lon="1.25739">
        <ele>412</ele>
        <time>2010-01-01T03:08:57Z</time>
      </trkpt>
      <trkpt lat="38.88901" lon="1.25733">
        <ele>413</ele>
        <time>2010-01-01T03:09:00Z</time>
      </trkpt>
      <trkpt lat="38.88906" lon="1.25722">
        <ele>414</ele>
        <time>2010-01-01T03:09:04Z</time>
      </trkpt>
      <trkpt lat="38.88905" lon="1.25711">
        <ele>414</ele>
        <time>2010-01-01T03:09:08Z</time>
      </trkpt>
      <trkpt lat="38.88897" lon="1.25704">
        <ele>414</ele>
        <time>2010-01-01T03:09:12Z</time>
      </trkpt>
      <trkpt lat="38.88888" lon="1.25702">
        <ele>414</ele>
        <time>2010-01-01T03:09:15Z</time>
      </trkpt>
      <trkpt lat="38.88879" lon="1.25698">
        <ele>416</ele>
        <time>2010-01-01T03:09:19Z</time>
      </trkpt>
      <trkpt lat="38.88869" lon="1.257">
        <ele>418</ele>
        <time>2010-01-01T03:09:23Z</time>
      </trkpt>
      <trkpt lat="38.88859" lon="1.257">
        <ele>420</ele>
        <time>2010-01-01T03:09:27Z</time>
      </trkpt>
      <trkpt lat="38.8885" lon="1.25697">
        <ele>420</ele>
        <time>2010-01-01T03:09:31Z</time>
      </trkpt>
      <trkpt lat="38.88843" lon="1.2569">
        <ele>420</ele>
        <time>2010-01-01T03:09:34Z</time>
      </trkpt>
      <trkpt lat="38.88836" lon="1.25682">
        <ele>420</ele>
        <time>2010-01-01T03:09:38Z</time>
      </trkpt>
      <trkpt lat="38.88828" lon="1.25675">
        <ele>419</ele>
        <time>2010-01-01T03:09:42Z</time>
      </trkpt>
      <trkpt lat="38.88819" lon="1.25673">
        <ele>419</ele>
        <time>2010-01-01T03:09:46Z</time>
      </trkpt>
      <trkpt lat="38.8881" lon="1.25671">
        <ele>418</ele>
        <time>2010-01-01T03:09:50Z</time>
      </trkpt>
      <trkpt lat="38.888" lon="1.25674">
        <ele>417</ele>
        <time>2010-01-01T03:09:54Z</time>
      </trkpt>
      <trkpt lat="38.88791" lon="1.25674">
        <ele>415</ele>
        <time>2010-01-01T03:09:57Z</time>
      </trkpt>
      <trkpt lat="38.8879" lon="1.25686">
        <ele>415</ele>
        <time>2010-01-01T03:10:01Z</time>
      </trkpt>
      <trkpt lat="38.88782" lon="1.25692">
        <ele>413</ele>
        <time>2010-01-01T03:10:05Z</time>
      </trkpt>
      <trkpt lat="38.88773" lon="1.25694">
        <ele>411</ele>
        <time>2010-01-01T03:10:08Z</time>
      </trkpt>
      <trkpt lat="38.88768" lon="1.25703">
        <ele>408</ele>
        <time>2010-01-01T03:10:12Z</time>
      </trkpt>
      <trkpt lat="38.88771" lon="1.25715">
        <ele>407</ele>
        <time>2010-01-01T03:10:16Z</time>
      </trkpt>
      <trkpt lat="38.88762" lon="1.25717">
        <ele>405</ele>
        <time>2010-01-01T03:10:20Z</time>
      </trkpt>
      <trkpt lat="38.88756" lon="1.25708">
        <ele>405</ele>
        <time>2010-01-01T03:10:24Z</time>
      </trkpt>
      <trkpt lat="38.8875" lon="1.25697">
        <ele>405</ele>
        <time>2010-01-01T03:10:28Z</time>
      </trkpt>
      <trkpt lat="38.88744" lon="1.25687">
        <ele>404</ele>
        <time>2010-01-01T03:10:32Z</time>
      </trkpt>
      <trkpt lat="38.8874" lon="1.25675">
        <ele>403</ele>
        <time>2010-01-01T03:10:36Z</time>
      </trkpt>
      <trkpt lat="38.88741" lon="1.25661">
        <ele>404</ele>
        <time>2010-01-01T03:10:40Z</time>
      </trkpt>
      <trkpt lat="38.88745" lon="1.2565">
        <ele>406</ele>
        <time>2010-01-01T03:10:44Z</time>
      </trkpt>
      <trkpt lat="38.88748" lon="1.25639">
        <ele>408</ele>
        <time>2010-01-01T03:10:48Z</time>
      </trkpt>
      <trkpt lat="38.88751" lon="1.25627">
        <ele>407</ele>
        <time>2010-01-01T03:10:51Z</time>
      </trkpt>
      <trkpt lat="38.88755" lon="1.25615">
        <ele>405</ele>
        <time>2010-01-01T03:10:56Z</time>
      </trkpt>
      <trkpt lat="38.88749" lon="1.25603">
        <ele>403</ele>
        <time>2010-01-01T03:11:00Z</time>
      </trkpt>
      <trkpt lat="38.88741" lon="1.25607">
        <ele>401</ele>
        <time>2010-01-01T03:11:03Z</time>
      </trkpt>
      <trkpt lat="38.8873" lon="1.25614">
        <ele>399</ele>
        <time>2010-01-01T03:11:08Z</time>
      </trkpt>
      <trkpt lat="38.88722" lon="1.25623">
        <ele>397</ele>
        <time>2010-01-01T03:11:12Z</time>
      </trkpt>
      <trkpt lat="38.88716" lon="1.25633">
        <ele>396</ele>
        <time>2010-01-01T03:11:16Z</time>
      </trkpt>
      <trkpt lat="38.8871" lon="1.25641">
        <ele>394</ele>
        <time>2010-01-01T03:11:20Z</time>
      </trkpt>
      <trkpt lat="38.88704" lon="1.25651">
        <ele>392</ele>
        <time>2010-01-01T03:11:24Z</time>
      </trkpt>
      <trkpt lat="38.88696" lon="1.25663">
        <ele>389</ele>
        <time>2010-01-01T03:11:29Z</time>
      </trkpt>
      <trkpt lat="38.88691" lon="1.25675">
        <ele>386</ele>
        <time>2010-01-01T03:11:33Z</time>
      </trkpt>
      <trkpt lat="38.88686" lon="1.25686">
        <ele>382</ele>
        <time>2010-01-01T03:11:37Z</time>
      </trkpt>
      <trkpt lat="38.88677" lon="1.25693">
        <ele>377</ele>
        <time>2010-01-01T03:11:41Z</time>
      </trkpt>
      <trkpt lat="38.88669" lon="1.25688">
        <ele>374</ele>
        <time>2010-01-01T03:11:45Z</time>
      </trkpt>
      <trkpt lat="38.88663" lon="1.25677">
        <ele>374</ele>
        <time>2010-01-01T03:11:49Z</time>
      </trkpt>
      <trkpt lat="38.88658" lon="1.25668">
        <ele>375</ele>
        <time>2010-01-01T03:11:52Z</time>
      </trkpt>
      <trkpt lat="38.88653" lon="1.25656">
        <ele>374</ele>
        <time>2010-01-01T03:11:57Z</time>
      </trkpt>
      <trkpt lat="38.88647" lon="1.25645">
        <ele>374</ele>
        <time>2010-01-01T03:12:01Z</time>
      </trkpt>
      <trkpt lat="38.88637" lon="1.25645">
        <ele>371</ele>
        <time>2010-01-01T03:12:04Z</time>
      </trkpt>
      <trkpt lat="38.88632" lon="1.25655">
        <ele>368</ele>
        <time>2010-01-01T03:12:08Z</time>
      </trkpt>
      <trkpt lat="38.88626" lon="1.25665">
        <ele>365</ele>
        <time>2010-01-01T03:12:12Z</time>
      </trkpt>
      <trkpt lat="38.88616" lon="1.25666">
        <ele>363</ele>
        <time>2010-01-01T03:12:16Z</time>
      </trkpt>
      <trkpt lat="38.88607" lon="1.25666">
        <ele>362</ele>
        <time>2010-01-01T03:12:20Z</time>
      </trkpt>
      <trkpt lat="38.88597" lon="1.25666">
        <ele>360</ele>
        <time>2010-01-01T03:12:24Z</time>
      </trkpt>
      <trkpt lat="38.88588" lon="1.25665">
        <ele>358</ele>
        <time>2010-01-01T03:12:27Z</time>
      </trkpt>
      <trkpt lat="38.88578" lon="1.25663">
        <ele>357</ele>
        <time>2010-01-01T03:12:32Z</time>
      </trkpt>
      <trkpt lat="38.88568" lon="1.25661">
        <ele>356</ele>
        <time>2010-01-01T03:12:36Z</time>
      </trkpt>
      <trkpt lat="38.88558" lon="1.25658">
        <ele>354</ele>
        <time>2010-01-01T03:12:40Z</time>
      </trkpt>
      <trkpt lat="38.88547" lon="1.25657">
        <ele>352</ele>
        <time>2010-01-01T03:12:44Z</time>
      </trkpt>
      <trkpt lat="38.88538" lon="1.25653">
        <ele>350</ele>
        <time>2010-01-01T03:12:48Z</time>
      </trkpt>
      <trkpt lat="38.88528" lon="1.25651">
        <ele>347</ele>
        <time>2010-01-01T03:12:52Z</time>
      </trkpt>
      <trkpt lat="38.88517" lon="1.25649">
        <ele>345</ele>
        <time>2010-01-01T03:12:57Z</time>
      </trkpt>
      <trkpt lat="38.88506" lon="1.25648">
        <ele>343</ele>
        <time>2010-01-01T03:13:01Z</time>
      </trkpt>
      <trkpt lat="38.88495" lon="1.25647">
        <ele>342</ele>
        <time>2010-01-01T03:13:05Z</time>
      </trkpt>
      <trkpt lat="38.88485" lon="1.25646">
        <ele>341</ele>
        <time>2010-01-01T03:13:09Z</time>
      </trkpt>
      <trkpt lat="38.88476" lon="1.25642">
        <ele>340</ele>
        <time>2010-01-01T03:13:13Z</time>
      </trkpt>
      <trkpt lat="38.88467" lon="1.25637">
        <ele>338</ele>
        <time>2010-01-01T03:13:17Z</time>
      </trkpt>
      <trkpt lat="38.88458" lon="1.25632">
        <ele>336</ele>
        <time>2010-01-01T03:13:21Z</time>
      </trkpt>
      <trkpt lat="38.88449" lon="1.25627">
        <ele>335</ele>
        <time>2010-01-01T03:13:25Z</time>
      </trkpt>
      <trkpt lat="38.88442" lon="1.25619">
        <ele>334</ele>
        <time>2010-01-01T03:13:29Z</time>
      </trkpt>
      <trkpt lat="38.88432" lon="1.25612">
        <ele>333</ele>
        <time>2010-01-01T03:13:33Z</time>
      </trkpt>
      <trkpt lat="38.88421" lon="1.25607">
        <ele>331</ele>
        <time>2010-01-01T03:13:38Z</time>
      </trkpt>
      <trkpt lat="38.88413" lon="1.25601">
        <ele>329</ele>
        <time>2010-01-01T03:13:42Z</time>
      </trkpt>
      <trkpt lat="38.88406" lon="1.25593">
        <ele>326</ele>
        <time>2010-01-01T03:13:45Z</time>
      </trkpt>
      <trkpt lat="38.88397" lon="1.25588">
        <ele>324</ele>
        <time>2010-01-01T03:13:49Z</time>
      </trkpt>
      <trkpt lat="38.88389" lon="1.25582">
        <ele>322</ele>
        <time>2010-01-01T03:13:53Z</time>
      </trkpt>
      <trkpt lat="38.8838" lon="1.25575">
        <ele>319</ele>
        <time>2010-01-01T03:13:57Z</time>
      </trkpt>
      <trkpt lat="38.88371" lon="1.25574">
        <ele>316</ele>
        <time>2010-01-01T03:14:01Z</time>
      </trkpt>
      <trkpt lat="38.88365" lon="1.25584">
        <ele>315</ele>
        <time>2010-01-01T03:14:05Z</time>
      </trkpt>
      <trkpt lat="38.8837" lon="1.25596">
        <ele>314</ele>
        <time>2010-01-01T03:14:09Z</time>
      </trkpt>
      <trkpt lat="38.88374" lon="1.25609">
        <ele>314</ele>
        <time>2010-01-01T03:14:13Z</time>
      </trkpt>
      <trkpt lat="38.88379" lon="1.25622">
        <ele>314</ele>
        <time>2010-01-01T03:14:18Z</time>
      </trkpt>
      <trkpt lat="38.88384" lon="1.25633">
        <ele>314</ele>
        <time>2010-01-01T03:14:22Z</time>
      </trkpt>
      <trkpt lat="38.88391" lon="1.25644">
        <ele>315</ele>
        <time>2010-01-01T03:14:26Z</time>
      </trkpt>
      <trkpt lat="38.88396" lon="1.25655">
        <ele>314</ele>
        <time>2010-01-01T03:14:30Z</time>
      </trkpt>
      <trkpt lat="38.884" lon="1.25666">
        <ele>312</ele>
        <time>2010-01-01T03:14:34Z</time>
      </trkpt>
      <trkpt lat="38.88403" lon="1.25677">
        <ele>308</ele>
        <time>2010-01-01T03:14:38Z</time>
      </trkpt>
      <trkpt lat="38.88408" lon="1.25688">
        <ele>307</ele>
        <time>2010-01-01T03:14:41Z</time>
      </trkpt>
      <trkpt lat="38.88414" lon="1.25698">
        <ele>305</ele>
        <time>2010-01-01T03:14:45Z</time>
      </trkpt>
      <trkpt lat="38.88421" lon="1.25706">
        <ele>304</ele>
        <time>2010-01-01T03:14:49Z</time>
      </trkpt>
      <trkpt lat="38.88429" lon="1.25715">
        <ele>302</ele>
        <time>2010-01-01T03:14:53Z</time>
      </trkpt>
      <trkpt lat="38.88426" lon="1.25727">
        <ele>295</ele>
        <time>2010-01-01T03:14:57Z</time>
      </trkpt>
      <trkpt lat="38.88414" lon="1.25724">
        <ele>291</ele>
        <time>2010-01-01T03:15:02Z</time>
      </trkpt>
      <trkpt lat="38.88404" lon="1.25719">
        <ele>291</ele>
        <time>2010-01-01T03:15:06Z</time>
      </trkpt>
      <trkpt lat="38.88393" lon="1.25715">
        <ele>290</ele>
        <time>2010-01-01T03:15:11Z</time>
      </trkpt>
      <trkpt lat="38.88384" lon="1.25709">
        <ele>288</ele>
        <time>2010-01-01T03:15:15Z</time>
      </trkpt>
      <trkpt lat="38.88376" lon="1.25701">
        <ele>287</ele>
        <time>2010-01-01T03:15:19Z</time>
      </trkpt>
      <trkpt lat="38.88368" lon="1.25695">
        <ele>286</ele>
        <time>2010-01-01T03:15:23Z</time>
      </trkpt>
      <trkpt lat="38.88359" lon="1.25688">
        <ele>285</ele>
        <time>2010-01-01T03:15:27Z</time>
      </trkpt>
      <trkpt lat="38.88352" lon="1.25679">
        <ele>286</ele>
        <time>2010-01-01T03:15:31Z</time>
      </trkpt>
      <trkpt lat="38.88344" lon="1.25672">
        <ele>286</ele>
        <time>2010-01-01T03:15:35Z</time>
      </trkpt>
      <trkpt lat="38.88334" lon="1.25667">
        <ele>286</ele>
        <time>2010-01-01T03:15:39Z</time>
      </trkpt>
      <trkpt lat="38.88324" lon="1.25665">
        <ele>285</ele>
        <time>2010-01-01T03:15:43Z</time>
      </trkpt>
      <trkpt lat="38.88313" lon="1.25667">
        <ele>282</ele>
        <time>2010-01-01T03:15:48Z</time>
      </trkpt>
      <trkpt lat="38.88303" lon="1.25671">
        <ele>278</ele>
        <time>2010-01-01T03:15:52Z</time>
      </trkpt>
      <trkpt lat="38.88295" lon="1.25677">
        <ele>274</ele>
        <time>2010-01-01T03:15:55Z</time>
      </trkpt>
      <trkpt lat="38.88287" lon="1.25684">
        <ele>269</ele>
        <time>2010-01-01T03:16:00Z</time>
      </trkpt>
      <trkpt lat="38.88279" lon="1.2569">
        <ele>266</ele>
        <time>2010-01-01T03:16:03Z</time>
      </trkpt>
      <trkpt lat="38.88269" lon="1.25697">
        <ele>264</ele>
        <time>2010-01-01T03:16:08Z</time>
      </trkpt>
      <trkpt lat="38.8826" lon="1.25701">
        <ele>261</ele>
        <time>2010-01-01T03:16:12Z</time>
      </trkpt>
      <trkpt lat="38.88249" lon="1.25699">
        <ele>260</ele>
        <time>2010-01-01T03:16:16Z</time>
      </trkpt>
      <trkpt lat="38.8824" lon="1.25699">
        <ele>258</ele>
        <time>2010-01-01T03:16:19Z</time>
      </trkpt>
      <trkpt lat="38.8823" lon="1.25695">
        <ele>258</ele>
        <time>2010-01-01T03:16:24Z</time>
      </trkpt>
      <trkpt lat="38.8822" lon="1.2569">
        <ele>256</ele>
        <time>2010-01-01T03:16:28Z</time>
      </trkpt>
      <trkpt lat="38.88211" lon="1.25685">
        <ele>254</ele>
        <time>2010-01-01T03:16:32Z</time>
      </trkpt>
      <trkpt lat="38.88201" lon="1.25681">
        <ele>253</ele>
        <time>2010-01-01T03:16:36Z</time>
      </trkpt>
      <trkpt lat="38.88193" lon="1.25675">
        <ele>252</ele>
        <time>2010-01-01T03:16:40Z</time>
      </trkpt>
      <trkpt lat="38.88184" lon="1.25671">
        <ele>250</ele>
        <time>2010-01-01T03:16:43Z</time>
      </trkpt>
      <trkpt lat="38.88177" lon="1.25665">
        <ele>249</ele>
        <time>2010-01-01T03:16:47Z</time>
      </trkpt>
      <trkpt lat="38.88168" lon="1.25659">
        <ele>246</ele>
        <time>2010-01-01T03:16:51Z</time>
      </trkpt>
      <trkpt lat="38.88159" lon="1.25653">
        <ele>244</ele>
        <time>2010-01-01T03:16:55Z</time>
      </trkpt>
      <trkpt lat="38.88151" lon="1.25647">
        <ele>242</ele>
        <time>2010-01-01T03:16:59Z</time>
      </trkpt>
      <trkpt lat="38.88141" lon="1.25643">
        <ele>239</ele>
        <time>2010-01-01T03:17:03Z</time>
      </trkpt>
      <trkpt lat="38.88131" lon="1.25639">
        <ele>237</ele>
        <time>2010-01-01T03:17:07Z</time>
      </trkpt>
      <trkpt lat="38.8812" lon="1.25636">
        <ele>234</ele>
        <time>2010-01-01T03:17:12Z</time>
      </trkpt>
      <trkpt lat="38.88127" lon="1.25625">
        <ele>234</ele>
        <time>2010-01-01T03:17:16Z</time>
      </trkpt>
      <trkpt lat="38.88137" lon="1.25621">
        <ele>236</ele>
        <time>2010-01-01T03:17:20Z</time>
      </trkpt>
      <trkpt lat="38.88145" lon="1.25613">
        <ele>236</ele>
        <time>2010-01-01T03:17:24Z</time>
      </trkpt>
      <trkpt lat="38.88138" lon="1.25604">
        <ele>234</ele>
        <time>2010-01-01T03:17:28Z</time>
      </trkpt>
      <trkpt lat="38.88128" lon="1.25595">
        <ele>231</ele>
        <time>2010-01-01T03:17:33Z</time>
      </trkpt>
      <trkpt lat="38.88118" lon="1.2559">
        <ele>229</ele>
        <time>2010-01-01T03:17:38Z</time>
      </trkpt>
      <trkpt lat="38.8811" lon="1.25584">
        <ele>226</ele>
        <time>2010-01-01T03:17:41Z</time>
      </trkpt>
      <trkpt lat="38.881" lon="1.25581">
        <ele>223</ele>
        <time>2010-01-01T03:17:45Z</time>
      </trkpt>
      <trkpt lat="38.8809" lon="1.25577">
        <ele>220</ele>
        <time>2010-01-01T03:17:49Z</time>
      </trkpt>
      <trkpt lat="38.88081" lon="1.25572">
        <ele>217</ele>
        <time>2010-01-01T03:17:53Z</time>
      </trkpt>
      <trkpt lat="38.88071" lon="1.25567">
        <ele>213</ele>
        <time>2010-01-01T03:17:58Z</time>
      </trkpt>
      <trkpt lat="38.88062" lon="1.25563">
        <ele>210</ele>
        <time>2010-01-01T03:18:02Z</time>
      </trkpt>
      <trkpt lat="38.88051" lon="1.2556">
        <ele>207</ele>
        <time>2010-01-01T03:18:06Z</time>
      </trkpt>
      <trkpt lat="38.88041" lon="1.25559">
        <ele>205</ele>
        <time>2010-01-01T03:18:10Z</time>
      </trkpt>
      <trkpt lat="38.8803" lon="1.25561">
        <ele>203</ele>
        <time>2010-01-01T03:18:14Z</time>
      </trkpt>
      <trkpt lat="38.88029" lon="1.25549">
        <ele>203</ele>
        <time>2010-01-01T03:18:18Z</time>
      </trkpt>
      <trkpt lat="38.88031" lon="1.25537">
        <ele>202</ele>
        <time>2010-01-01T03:18:22Z</time>
      </trkpt>
      <trkpt lat="38.88031" lon="1.25524">
        <ele>202</ele>
        <time>2010-01-01T03:18:26Z</time>
      </trkpt>
      <trkpt lat="38.88031" lon="1.25512">
        <ele>203</ele>
        <time>2010-01-01T03:18:30Z</time>
      </trkpt>
      <trkpt lat="38.88032" lon="1.25499">
        <ele>204</ele>
        <time>2010-01-01T03:18:34Z</time>
      </trkpt>
      <trkpt lat="38.88035" lon="1.25488">
        <ele>205</ele>
        <time>2010-01-01T03:18:37Z</time>
      </trkpt>
      <trkpt lat="38.88041" lon="1.25479">
        <ele>207</ele>
        <time>2010-01-01T03:18:41Z</time>
      </trkpt>
      <trkpt lat="38.88045" lon="1.25468">
        <ele>209</ele>
        <time>2010-01-01T03:18:45Z</time>
      </trkpt>
      <trkpt lat="38.88042" lon="1.25455">
        <ele>209</ele>
        <time>2010-01-01T03:18:49Z</time>
      </trkpt>
      <trkpt lat="38.88039" lon="1.25444">
        <ele>208</ele>
        <time>2010-01-01T03:18:53Z</time>
      </trkpt>
      <trkpt lat="38.88037" lon="1.25432">
        <ele>208</ele>
        <time>2010-01-01T03:18:56Z</time>
      </trkpt>
      <trkpt lat="38.88041" lon="1.2542">
        <ele>210</ele>
        <time>2010-01-01T03:19:01Z</time>
      </trkpt>
      <trkpt lat="38.88045" lon="1.25409">
        <ele>211</ele>
        <time>2010-01-01T03:19:04Z</time>
      </trkpt>
      <trkpt lat="38.88047" lon="1.25397">
        <ele>211</ele>
        <time>2010-01-01T03:19:08Z</time>
      </trkpt>
      <trkpt lat="38.88046" lon="1.25384">
        <ele>210</ele>
        <time>2010-01-01T03:19:12Z</time>
      </trkpt>
      <trkpt lat="38.88048" lon="1.25372">
        <ele>209</ele>
        <time>2010-01-01T03:19:16Z</time>
      </trkpt>
      <trkpt lat="38.88051" lon="1.25358">
        <ele>208</ele>
        <time>2010-01-01T03:19:21Z</time>
      </trkpt>
      <trkpt lat="38.88054" lon="1.25345">
        <ele>208</ele>
        <time>2010-01-01T03:19:25Z</time>
      </trkpt>
      <trkpt lat="38.88059" lon="1.25334">
        <ele>208</ele>
        <time>2010-01-01T03:19:29Z</time>
      </trkpt>
      <trkpt lat="38.88063" lon="1.25323">
        <ele>209</ele>
        <time>2010-01-01T03:19:33Z</time>
      </trkpt>
      <trkpt lat="38.88065" lon="1.25311">
        <ele>209</ele>
        <time>2010-01-01T03:19:36Z</time>
      </trkpt>
      <trkpt lat="38.88068" lon="1.25298">
        <ele>209</ele>
        <time>2010-01-01T03:19:40Z</time>
      </trkpt>
      <trkpt lat="38.88072" lon="1.25286">
        <ele>210</ele>
        <time>2010-01-01T03:19:45Z</time>
      </trkpt>
      <trkpt lat="38.88075" lon="1.25274">
        <ele>210</ele>
        <time>2010-01-01T03:19:48Z</time>
      </trkpt>
      <trkpt lat="38.88076" lon="1.25263">
        <ele>210</ele>
        <time>2010-01-01T03:19:52Z</time>
      </trkpt>
      <trkpt lat="38.88075" lon="1.2525">
        <ele>209</ele>
        <time>2010-01-01T03:19:56Z</time>
      </trkpt>
      <trkpt lat="38.88075" lon="1.25238">
        <ele>208</ele>
        <time>2010-01-01T03:20:00Z</time>
      </trkpt>
      <trkpt lat="38.88075" lon="1.25226">
        <ele>208</ele>
        <time>2010-01-01T03:20:04Z</time>
      </trkpt>
      <trkpt lat="38.88074" lon="1.25212">
        <ele>207</ele>
        <time>2010-01-01T03:20:08Z</time>
      </trkpt>
      <trkpt lat="38.88073" lon="1.25199">
        <ele>206</ele>
        <time>2010-01-01T03:20:12Z</time>
      </trkpt>
      <trkpt lat="38.88065" lon="1.25189">
        <ele>204</ele>
        <time>2010-01-01T03:20:16Z</time>
      </trkpt>
      <trkpt lat="38.88058" lon="1.2518">
        <ele>203</ele>
        <time>2010-01-01T03:20:20Z</time>
      </trkpt>
      <trkpt lat="38.88057" lon="1.25168">
        <ele>203</ele>
        <time>2010-01-01T03:20:24Z</time>
      </trkpt>
      <trkpt lat="38.88059" lon="1.25154">
        <ele>202</ele>
        <time>2010-01-01T03:20:28Z</time>
      </trkpt>
      <trkpt lat="38.88062" lon="1.25141">
        <ele>201</ele>
        <time>2010-01-01T03:20:33Z</time>
      </trkpt>
      <trkpt lat="38.88059" lon="1.2513">
        <ele>200</ele>
        <time>2010-01-01T03:20:36Z</time>
      </trkpt>
      <trkpt lat="38.88062" lon="1.25118">
        <ele>200</ele>
        <time>2010-01-01T03:20:40Z</time>
      </trkpt>
      <trkpt lat="38.88057" lon="1.25105">
        <ele>199</ele>
        <time>2010-01-01T03:20:45Z</time>
      </trkpt>
      <trkpt lat="38.88047" lon="1.25101">
        <ele>198</ele>
        <time>2010-01-01T03:20:49Z</time>
      </trkpt>
      <trkpt lat="38.88038" lon="1.251">
        <ele>197</ele>
        <time>2010-01-01T03:20:53Z</time>
      </trkpt>
      <trkpt lat="38.88029" lon="1.25102">
        <ele>196</ele>
        <time>2010-01-01T03:20:56Z</time>
      </trkpt>
      <trkpt lat="38.8802" lon="1.25099">
        <ele>195</ele>
        <time>2010-01-01T03:21:00Z</time>
      </trkpt>
      <trkpt lat="38.88011" lon="1.25089">
        <ele>193</ele>
        <time>2010-01-01T03:21:05Z</time>
      </trkpt>
      <trkpt lat="38.88002" lon="1.25086">
        <ele>192</ele>
        <time>2010-01-01T03:21:09Z</time>
      </trkpt>
      <trkpt lat="38.87994" lon="1.25091">
        <ele>190</ele>
        <time>2010-01-01T03:21:12Z</time>
      </trkpt>
      <trkpt lat="38.87985" lon="1.25093">
        <ele>188</ele>
        <time>2010-01-01T03:21:16Z</time>
      </trkpt>
      <trkpt lat="38.87976" lon="1.25089">
        <ele>186</ele>
        <time>2010-01-01T03:21:20Z</time>
      </trkpt>
      <trkpt lat="38.87967" lon="1.25088">
        <ele>185</ele>
        <time>2010-01-01T03:21:23Z</time>
      </trkpt>
      <trkpt lat="38.87956" lon="1.25091">
        <ele>184</ele>
        <time>2010-01-01T03:21:28Z</time>
      </trkpt>
      <trkpt lat="38.87947" lon="1.25095">
        <ele>182</ele>
        <time>2010-01-01T03:21:32Z</time>
      </trkpt>
      <trkpt lat="38.87939" lon="1.25087">
        <ele>183</ele>
        <time>2010-01-01T03:21:36Z</time>
      </trkpt>
      <trkpt lat="38.8793" lon="1.25083">
        <ele>184</ele>
        <time>2010-01-01T03:21:39Z</time>
      </trkpt>
      <trkpt lat="38.87923" lon="1.2509">
        <ele>184</ele>
        <time>2010-01-01T03:21:43Z</time>
      </trkpt>
      <trkpt lat="38.87915" lon="1.25098">
        <ele>184</ele>
        <time>2010-01-01T03:21:47Z</time>
      </trkpt>
      <trkpt lat="38.87909" lon="1.25107">
        <ele>184</ele>
        <time>2010-01-01T03:21:51Z</time>
      </trkpt>
      <trkpt lat="38.87903" lon="1.25117">
        <ele>184</ele>
        <time>2010-01-01T03:21:55Z</time>
      </trkpt>
      <trkpt lat="38.87898" lon="1.25128">
        <ele>184</ele>
        <time>2010-01-01T03:21:59Z</time>
      </trkpt>
      <trkpt lat="38.87889" lon="1.25126">
        <ele>186</ele>
        <time>2010-01-01T03:22:03Z</time>
      </trkpt>
      <trkpt lat="38.87893" lon="1.25115">
        <ele>186</ele>
        <time>2010-01-01T03:22:06Z</time>
      </trkpt>
      <trkpt lat="38.87896" lon="1.25103">
        <ele>187</ele>
        <time>2010-01-01T03:22:10Z</time>
      </trkpt>
      <trkpt lat="38.87898" lon="1.25092">
        <ele>189</ele>
        <time>2010-01-01T03:22:14Z</time>
      </trkpt>
      <trkpt lat="38.87899" lon="1.2508">
        <ele>190</ele>
        <time>2010-01-01T03:22:18Z</time>
      </trkpt>
      <trkpt lat="38.879" lon="1.25068">
        <ele>191</ele>
        <time>2010-01-01T03:22:21Z</time>
      </trkpt>
      <trkpt lat="38.87899" lon="1.25056">
        <ele>193</ele>
        <time>2010-01-01T03:22:25Z</time>
      </trkpt>
      <trkpt lat="38.87899" lon="1.25044">
        <ele>194</ele>
        <time>2010-01-01T03:22:29Z</time>
      </trkpt>
      <trkpt lat="38.87894" lon="1.25033">
        <ele>195</ele>
        <time>2010-01-01T03:22:33Z</time>
      </trkpt>
      <trkpt lat="38.87885" lon="1.25025">
        <ele>197</ele>
        <time>2010-01-01T03:22:37Z</time>
      </trkpt>
      <trkpt lat="38.87878" lon="1.25018">
        <ele>198</ele>
        <time>2010-01-01T03:22:41Z</time>
      </trkpt>
      <trkpt lat="38.87871" lon="1.25009">
        <ele>199</ele>
        <time>2010-01-01T03:22:45Z</time>
      </trkpt>
      <trkpt lat="38.87865" lon="1.25">
        <ele>200</ele>
        <time>2010-01-01T03:22:48Z</time>
      </trkpt>
      <trkpt lat="38.87857" lon="1.24993">
        <ele>202</ele>
        <time>2010-01-01T03:22:52Z</time>
      </trkpt>
      <trkpt lat="38.87849" lon="1.24986">
        <ele>203</ele>
        <time>2010-01-01T03:22:56Z</time>
      </trkpt>
      <trkpt lat="38.8784" lon="1.24981">
        <ele>204</ele>
        <time>2010-01-01T03:23:00Z</time>
      </trkpt>
      <trkpt lat="38.87832" lon="1.24976">
        <ele>205</ele>
        <time>2010-01-01T03:23:04Z</time>
      </trkpt>
      <trkpt lat="38.87823" lon="1.24983">
        <ele>206</ele>
        <time>2010-01-01T03:23:08Z</time>
      </trkpt>
      <trkpt lat="38.87814" lon="1.2499">
        <ele>206</ele>
        <time>2010-01-01T03:23:12Z</time>
      </trkpt>
      <trkpt lat="38.87808" lon="1.24999">
        <ele>206</ele>
        <time>2010-01-01T03:23:16Z</time>
      </trkpt>
      <trkpt lat="38.87801" lon="1.25007">
        <ele>206</ele>
        <time>2010-01-01T03:23:20Z</time>
      </trkpt>
      <trkpt lat="38.87794" lon="1.25016">
        <ele>207</ele>
        <time>2010-01-01T03:23:23Z</time>
      </trkpt>
      <trkpt lat="38.87787" lon="1.25026">
        <ele>207</ele>
        <time>2010-01-01T03:23:28Z</time>
      </trkpt>
      <trkpt lat="38.8778" lon="1.25034">
        <ele>206</ele>
        <time>2010-01-01T03:23:32Z</time>
      </trkpt>
      <trkpt lat="38.87771" lon="1.25042">
        <ele>206</ele>
        <time>2010-01-01T03:23:36Z</time>
      </trkpt>
      <trkpt lat="38.87764" lon="1.25051">
        <ele>206</ele>
        <time>2010-01-01T03:23:40Z</time>
      </trkpt>
      <trkpt lat="38.87756" lon="1.25059">
        <ele>206</ele>
        <time>2010-01-01T03:23:44Z</time>
      </trkpt>
      <trkpt lat="38.87748" lon="1.25069">
        <ele>206</ele>
        <time>2010-01-01T03:23:48Z</time>
      </trkpt>
      <trkpt lat="38.87739" lon="1.25076">
        <ele>207</ele>
        <time>2010-01-01T03:23:52Z</time>
      </trkpt>
      <trkpt lat="38.87732" lon="1.25084">
        <ele>208</ele>
        <time>2010-01-01T03:23:56Z</time>
      </trkpt>
      <trkpt lat="38.87725" lon="1.25094">
        <ele>210</ele>
        <time>2010-01-01T03:24:00Z</time>
      </trkpt>
      <trkpt lat="38.8772" lon="1.25104">
        <ele>210</ele>
        <time>2010-01-01T03:24:04Z</time>
      </trkpt>
      <trkpt lat="38.87713" lon="1.25113">
        <ele>211</ele>
        <time>2010-01-01T03:24:08Z</time>
      </trkpt>
      <trkpt lat="38.87706" lon="1.25123">
        <ele>211</ele>
        <time>2010-01-01T03:24:12Z</time>
      </trkpt>
      <trkpt lat="38.877" lon="1.25132">
        <ele>211</ele>
        <time>2010-01-01T03:24:16Z</time>
      </trkpt>
      <trkpt lat="38.87693" lon="1.2514">
        <ele>212</ele>
        <time>2010-01-01T03:24:20Z</time>
      </trkpt>
      <trkpt lat="38.87685" lon="1.25151">
        <ele>212</ele>
        <time>2010-01-01T03:24:24Z</time>
      </trkpt>
      <trkpt lat="38.87678" lon="1.25159">
        <ele>211</ele>
        <time>2010-01-01T03:24:28Z</time>
      </trkpt>
      <trkpt lat="38.87669" lon="1.25168">
        <ele>210</ele>
        <time>2010-01-01T03:24:33Z</time>
      </trkpt>
      <trkpt lat="38.87661" lon="1.25176">
        <ele>209</ele>
        <time>2010-01-01T03:24:37Z</time>
      </trkpt>
      <trkpt lat="38.87653" lon="1.25186">
        <ele>208</ele>
        <time>2010-01-01T03:24:41Z</time>
      </trkpt>
      <trkpt lat="38.87645" lon="1.25196">
        <ele>207</ele>
        <time>2010-01-01T03:24:46Z</time>
      </trkpt>
      <trkpt lat="38.87639" lon="1.25206">
        <ele>206</ele>
        <time>2010-01-01T03:24:50Z</time>
      </trkpt>
      <trkpt lat="38.87637" lon="1.2522">
        <ele>205</ele>
        <time>2010-01-01T03:24:54Z</time>
      </trkpt>
      <trkpt lat="38.87635" lon="1.25234">
        <ele>205</ele>
        <time>2010-01-01T03:24:59Z</time>
      </trkpt>
      <trkpt lat="38.87634" lon="1.25248">
        <ele>205</ele>
        <time>2010-01-01T03:25:03Z</time>
      </trkpt>
      <trkpt lat="38.87634" lon="1.25263">
        <ele>205</ele>
        <time>2010-01-01T03:25:08Z</time>
      </trkpt>
      <trkpt lat="38.87633" lon="1.25275">
        <ele>205</ele>
        <time>2010-01-01T03:25:11Z</time>
      </trkpt>
      <trkpt lat="38.87631" lon="1.25289">
        <ele>205</ele>
        <time>2010-01-01T03:25:16Z</time>
      </trkpt>
      <trkpt lat="38.8763" lon="1.25301">
        <ele>205</ele>
        <time>2010-01-01T03:25:20Z</time>
      </trkpt>
      <trkpt lat="38.87627" lon="1.25313">
        <ele>206</ele>
        <time>2010-01-01T03:25:23Z</time>
      </trkpt>
      <trkpt lat="38.87627" lon="1.25325">
        <ele>206</ele>
        <time>2010-01-01T03:25:27Z</time>
      </trkpt>
      <trkpt lat="38.87625" lon="1.25337">
        <ele>206</ele>
        <time>2010-01-01T03:25:31Z</time>
      </trkpt>
      <trkpt lat="38.87624" lon="1.2535">
        <ele>206</ele>
        <time>2010-01-01T03:25:35Z</time>
      </trkpt>
      <trkpt lat="38.87623" lon="1.25362">
        <ele>207</ele>
        <time>2010-01-01T03:25:39Z</time>
      </trkpt>
      <trkpt lat="38.8763" lon="1.25373">
        <ele>204</ele>
        <time>2010-01-01T03:25:43Z</time>
      </trkpt>
      <trkpt lat="38.87639" lon="1.25378">
        <ele>202</ele>
        <time>2010-01-01T03:25:47Z</time>
      </trkpt>
      <trkpt lat="38.8765" lon="1.25381">
        <ele>200</ele>
        <time>2010-01-01T03:25:52Z</time>
      </trkpt>
      <trkpt lat="38.87658" lon="1.2539">
        <ele>198</ele>
        <time>2010-01-01T03:25:56Z</time>
      </trkpt>
      <trkpt lat="38.87665" lon="1.254">
        <ele>197</ele>
        <time>2010-01-01T03:26:00Z</time>
      </trkpt>
      <trkpt lat="38.87673" lon="1.25408">
        <ele>196</ele>
        <time>2010-01-01T03:26:04Z</time>
      </trkpt>
      <trkpt lat="38.87682" lon="1.25415">
        <ele>195</ele>
        <time>2010-01-01T03:26:08Z</time>
      </trkpt>
      <trkpt lat="38.87688" lon="1.25423">
        <ele>194</ele>
        <time>2010-01-01T03:26:12Z</time>
      </trkpt>
      <trkpt lat="38.87693" lon="1.25435">
        <ele>193</ele>
        <time>2010-01-01T03:26:16Z</time>
      </trkpt>
      <trkpt lat="38.877" lon="1.25443">
        <ele>191</ele>
        <time>2010-01-01T03:26:20Z</time>
      </trkpt>
      <trkpt lat="38.877" lon="1.25457">
        <ele>190</ele>
        <time>2010-01-01T03:26:24Z</time>
      </trkpt>
      <trkpt lat="38.87702" lon="1.25469">
        <ele>189</ele>
        <time>2010-01-01T03:26:28Z</time>
      </trkpt>
      <trkpt lat="38.87704" lon="1.25483">
        <ele>188</ele>
        <time>2010-01-01T03:26:32Z</time>
      </trkpt>
      <trkpt lat="38.87701" lon="1.25494">
        <ele>187</ele>
        <time>2010-01-01T03:26:36Z</time>
      </trkpt>
      <trkpt lat="38.87701" lon="1.25505">
        <ele>186</ele>
        <time>2010-01-01T03:26:40Z</time>
      </trkpt>
      <trkpt lat="38.8771" lon="1.25514">
        <ele>184</ele>
        <time>2010-01-01T03:26:44Z</time>
      </trkpt>
      <trkpt lat="38.8772" lon="1.25513">
        <ele>182</ele>
        <time>2010-01-01T03:26:48Z</time>
      </trkpt>
      <trkpt lat="38.8773" lon="1.25514">
        <ele>181</ele>
        <time>2010-01-01T03:26:52Z</time>
      </trkpt>
      <trkpt lat="38.87741" lon="1.25513">
        <ele>179</ele>
        <time>2010-01-01T03:26:57Z</time>
      </trkpt>
      <trkpt lat="38.87752" lon="1.25515">
        <ele>177</ele>
        <time>2010-01-01T03:27:01Z</time>
      </trkpt>
      <trkpt lat="38.87759" lon="1.25524">
        <ele>175</ele>
        <time>2010-01-01T03:27:05Z</time>
      </trkpt>
      <trkpt lat="38.87756" lon="1.25538">
        <ele>174</ele>
        <time>2010-01-01T03:27:09Z</time>
      </trkpt>
      <trkpt lat="38.8775" lon="1.25551">
        <ele>175</ele>
        <time>2010-01-01T03:27:14Z</time>
      </trkpt>
      <trkpt lat="38.87745" lon="1.2556">
        <ele>174</ele>
        <time>2010-01-01T03:27:18Z</time>
      </trkpt>
      <trkpt lat="38.8774" lon="1.25571">
        <ele>173</ele>
        <time>2010-01-01T03:27:21Z</time>
      </trkpt>
      <trkpt lat="38.87734" lon="1.25582">
        <ele>173</ele>
        <time>2010-01-01T03:27:26Z</time>
      </trkpt>
      <trkpt lat="38.87744" lon="1.25579">
        <ele>171</ele>
        <time>2010-01-01T03:27:30Z</time>
      </trkpt>
      <trkpt lat="38.87753" lon="1.25574">
        <ele>170</ele>
        <time>2010-01-01T03:27:34Z</time>
      </trkpt>
      <trkpt lat="38.87763" lon="1.25569">
        <ele>169</ele>
        <time>2010-01-01T03:27:38Z</time>
      </trkpt>
      <trkpt lat="38.87773" lon="1.25562">
        <ele>168</ele>
        <time>2010-01-01T03:27:43Z</time>
      </trkpt>
      <trkpt lat="38.8778" lon="1.25551">
        <ele>168</ele>
        <time>2010-01-01T03:27:47Z</time>
      </trkpt>
      <trkpt lat="38.87785" lon="1.2554">
        <ele>168</ele>
        <time>2010-01-01T03:27:51Z</time>
      </trkpt>
      <trkpt lat="38.8779" lon="1.25529">
        <ele>167</ele>
        <time>2010-01-01T03:27:55Z</time>
      </trkpt>
      <trkpt lat="38.87791" lon="1.25517">
        <ele>167</ele>
        <time>2010-01-01T03:27:59Z</time>
      </trkpt>
      <trkpt lat="38.87791" lon="1.25505">
        <ele>168</ele>
        <time>2010-01-01T03:28:02Z</time>
      </trkpt>
      <trkpt lat="38.8779" lon="1.25492">
        <ele>168</ele>
        <time>2010-01-01T03:28:07Z</time>
      </trkpt>
      <trkpt lat="38.8779" lon="1.25477">
        <ele>168</ele>
        <time>2010-01-01T03:28:11Z</time>
      </trkpt>
      <trkpt lat="38.87792" lon="1.25465">
        <ele>168</ele>
        <time>2010-01-01T03:28:15Z</time>
      </trkpt>
      <trkpt lat="38.87798" lon="1.25455">
        <ele>167</ele>
        <time>2010-01-01T03:28:19Z</time>
      </trkpt>
      <trkpt lat="38.87807" lon="1.25458">
        <ele>166</ele>
        <time>2010-01-01T03:28:23Z</time>
      </trkpt>
      <trkpt lat="38.87808" lon="1.25471">
        <ele>166</ele>
        <time>2010-01-01T03:28:27Z</time>
      </trkpt>
      <trkpt lat="38.87813" lon="1.25482">
        <ele>166</ele>
        <time>2010-01-01T03:28:31Z</time>
      </trkpt>
      <trkpt lat="38.8782" lon="1.25492">
        <ele>165</ele>
        <time>2010-01-01T03:28:35Z</time>
      </trkpt>
      <trkpt lat="38.87828" lon="1.25496">
        <ele>165</ele>
        <time>2010-01-01T03:28:39Z</time>
      </trkpt>
      <trkpt lat="38.87837" lon="1.25502">
        <ele>165</ele>
        <time>2010-01-01T03:28:43Z</time>
      </trkpt>
      <trkpt lat="38.8784" lon="1.25514">
        <ele>166</ele>
        <time>2010-01-01T03:28:47Z</time>
      </trkpt>
      <trkpt lat="38.8784" lon="1.25526">
        <ele>167</ele>
        <time>2010-01-01T03:28:50Z</time>
      </trkpt>
      <trkpt lat="38.8784" lon="1.25538">
        <ele>167</ele>
        <time>2010-01-01T03:28:54Z</time>
      </trkpt>
      <trkpt lat="38.87837" lon="1.2555">
        <ele>166</ele>
        <time>2010-01-01T03:28:58Z</time>
      </trkpt>
      <trkpt lat="38.87833" lon="1.25562">
        <ele>165</ele>
        <time>2010-01-01T03:29:02Z</time>
      </trkpt>
      <trkpt lat="38.8783" lon="1.25574">
        <ele>164</ele>
        <time>2010-01-01T03:29:06Z</time>
      </trkpt>
      <trkpt lat="38.87827" lon="1.25585">
        <ele>163</ele>
        <time>2010-01-01T03:29:10Z</time>
      </trkpt>
      <trkpt lat="38.87823" lon="1.25597">
        <ele>161</ele>
        <time>2010-01-01T03:29:14Z</time>
      </trkpt>
      <trkpt lat="38.87821" lon="1.2561">
        <ele>158</ele>
        <time>2010-01-01T03:29:18Z</time>
      </trkpt>
      <trkpt lat="38.87824" lon="1.25624">
        <ele>158</ele>
        <time>2010-01-01T03:29:23Z</time>
      </trkpt>
      <trkpt lat="38.8783" lon="1.25635">
        <ele>158</ele>
        <time>2010-01-01T03:29:27Z</time>
      </trkpt>
      <trkpt lat="38.87839" lon="1.25644">
        <ele>160</ele>
        <time>2010-01-01T03:29:31Z</time>
      </trkpt>
      <trkpt lat="38.8785" lon="1.25649">
        <ele>163</ele>
        <time>2010-01-01T03:29:36Z</time>
      </trkpt>
      <trkpt lat="38.87857" lon="1.25656">
        <ele>165</ele>
        <time>2010-01-01T03:29:40Z</time>
      </trkpt>
      <trkpt lat="38.87861" lon="1.25669">
        <ele>165</ele>
        <time>2010-01-01T03:29:44Z</time>
      </trkpt>
      <trkpt lat="38.87859" lon="1.25681">
        <ele>164</ele>
        <time>2010-01-01T03:29:48Z</time>
      </trkpt>
      <trkpt lat="38.87857" lon="1.25693">
        <ele>163</ele>
        <time>2010-01-01T03:29:51Z</time>
      </trkpt>
      <trkpt lat="38.87854" lon="1.25704">
        <ele>163</ele>
        <time>2010-01-01T03:29:55Z</time>
      </trkpt>
      <trkpt lat="38.87852" lon="1.25718">
        <ele>163</ele>
        <time>2010-01-01T03:29:59Z</time>
      </trkpt>
      <trkpt lat="38.87848" lon="1.25728">
        <ele>163</ele>
        <time>2010-01-01T03:30:03Z</time>
      </trkpt>
      <trkpt lat="38.87843" lon="1.25742">
        <ele>162</ele>
        <time>2010-01-01T03:30:08Z</time>
      </trkpt>
      <trkpt lat="38.8784" lon="1.25753">
        <ele>162</ele>
        <time>2010-01-01T03:30:11Z</time>
      </trkpt>
      <trkpt lat="38.87837" lon="1.25766">
        <ele>162</ele>
        <time>2010-01-01T03:30:16Z</time>
      </trkpt>
      <trkpt lat="38.87834" lon="1.25779">
        <ele>162</ele>
        <time>2010-01-01T03:30:20Z</time>
      </trkpt>
      <trkpt lat="38.8783" lon="1.25792">
        <ele>160</ele>
        <time>2010-01-01T03:30:24Z</time>
      </trkpt>
      <trkpt lat="38.87828" lon="1.25803">
        <ele>158</ele>
        <time>2010-01-01T03:30:28Z</time>
      </trkpt>
      <trkpt lat="38.87827" lon="1.25816">
        <ele>157</ele>
        <time>2010-01-01T03:30:32Z</time>
      </trkpt>
      <trkpt lat="38.87828" lon="1.25828">
        <ele>157</ele>
        <time>2010-01-01T03:30:35Z</time>
      </trkpt>
      <trkpt lat="38.87828" lon="1.2584">
        <ele>157</ele>
        <time>2010-01-01T03:30:39Z</time>
      </trkpt>
      <trkpt lat="38.87826" lon="1.25851">
        <ele>156</ele>
        <time>2010-01-01T03:30:43Z</time>
      </trkpt>
      <trkpt lat="38.87822" lon="1.25864">
        <ele>155</ele>
        <time>2010-01-01T03:30:47Z</time>
      </trkpt>
      <trkpt lat="38.87821" lon="1.25877">
        <ele>154</ele>
        <time>2010-01-01T03:30:51Z</time>
      </trkpt>
      <trkpt lat="38.87822" lon="1.25889">
        <ele>154</ele>
        <time>2010-01-01T03:30:55Z</time>
      </trkpt>
      <trkpt lat="38.87825" lon="1.25901">
        <ele>154</ele>
        <time>2010-01-01T03:30:59Z</time>
      </trkpt>
      <trkpt lat="38.87826" lon="1.25913">
        <ele>154</ele>
        <time>2010-01-01T03:31:03Z</time>
      </trkpt>
      <trkpt lat="38.8783" lon="1.25926">
        <ele>155</ele>
        <time>2010-01-01T03:31:07Z</time>
      </trkpt>
      <trkpt lat="38.87834" lon="1.25937">
        <ele>156</ele>
        <time>2010-01-01T03:31:11Z</time>
      </trkpt>
      <trkpt lat="38.8784" lon="1.2595">
        <ele>157</ele>
        <time>2010-01-01T03:31:15Z</time>
      </trkpt>
      <trkpt lat="38.87845" lon="1.25962">
        <ele>158</ele>
        <time>2010-01-01T03:31:20Z</time>
      </trkpt>
      <trkpt lat="38.87851" lon="1.25974">
        <ele>160</ele>
        <time>2010-01-01T03:31:24Z</time>
      </trkpt>
      <trkpt lat="38.87857" lon="1.25984">
        <ele>160</ele>
        <time>2010-01-01T03:31:28Z</time>
      </trkpt>
      <trkpt lat="38.87864" lon="1.25992">
        <ele>161</ele>
        <time>2010-01-01T03:31:32Z</time>
      </trkpt>
      <trkpt lat="38.87868" lon="1.26003">
        <ele>161</ele>
        <time>2010-01-01T03:31:35Z</time>
      </trkpt>
      <trkpt lat="38.87875" lon="1.26013">
        <ele>161</ele>
        <time>2010-01-01T03:31:40Z</time>
      </trkpt>
      <trkpt lat="38.8788" lon="1.26023">
        <ele>161</ele>
        <time>2010-01-01T03:31:43Z</time>
      </trkpt>
      <trkpt lat="38.87883" lon="1.26034">
        <ele>161</ele>
        <time>2010-01-01T03:31:47Z</time>
      </trkpt>
      <trkpt lat="38.87891" lon="1.26042">
        <ele>162</ele>
        <time>2010-01-01T03:31:51Z</time>
      </trkpt>
      <trkpt lat="38.87898" lon="1.26053">
        <ele>162</ele>
        <time>2010-01-01T03:31:55Z</time>
      </trkpt>
      <trkpt lat="38.87905" lon="1.26063">
        <ele>162</ele>
        <time>2010-01-01T03:32:00Z</time>
      </trkpt>
      <trkpt lat="38.87913" lon="1.26072">
        <ele>163</ele>
        <time>2010-01-01T03:32:04Z</time>
      </trkpt>
      <trkpt lat="38.87922" lon="1.26077">
        <ele>163</ele>
        <time>2010-01-01T03:32:08Z</time>
      </trkpt>
      <trkpt lat="38.8793" lon="1.26085">
        <ele>163</ele>
        <time>2010-01-01T03:32:12Z</time>
      </trkpt>
      <trkpt lat="38.87936" lon="1.26094">
        <ele>163</ele>
        <time>2010-01-01T03:32:16Z</time>
      </trkpt>
      <trkpt lat="38.87941" lon="1.26105">
        <ele>163</ele>
        <time>2010-01-01T03:32:20Z</time>
      </trkpt>
      <trkpt lat="38.8795" lon="1.2611">
        <ele>163</ele>
        <time>2010-01-01T03:32:24Z</time>
      </trkpt>
      <trkpt lat="38.87958" lon="1.26117">
        <ele>164</ele>
        <time>2010-01-01T03:32:27Z</time>
      </trkpt>
      <trkpt lat="38.87966" lon="1.26124">
        <ele>164</ele>
        <time>2010-01-01T03:32:31Z</time>
      </trkpt>
      <trkpt lat="38.87974" lon="1.26133">
        <ele>165</ele>
        <time>2010-01-01T03:32:35Z</time>
      </trkpt>
      <trkpt lat="38.87984" lon="1.26138">
        <ele>167</ele>
        <time>2010-01-01T03:32:40Z</time>
      </trkpt>
      <trkpt lat="38.8799" lon="1.26147">
        <ele>167</ele>
        <time>2010-01-01T03:32:43Z</time>
      </trkpt>
      <trkpt lat="38.87996" lon="1.26157">
        <ele>166</ele>
        <time>2010-01-01T03:32:47Z</time>
      </trkpt>
      <trkpt lat="38.88003" lon="1.26165">
        <ele>166</ele>
        <time>2010-01-01T03:32:51Z</time>
      </trkpt>
      <trkpt lat="38.88011" lon="1.26175">
        <ele>167</ele>
        <time>2010-01-01T03:32:56Z</time>
      </trkpt>
      <trkpt lat="38.88019" lon="1.26184">
        <ele>167</ele>
        <time>2010-01-01T03:33:00Z</time>
      </trkpt>
      <trkpt lat="38.88028" lon="1.26192">
        <ele>168</ele>
        <time>2010-01-01T03:33:04Z</time>
      </trkpt>
      <trkpt lat="38.88037" lon="1.26198">
        <ele>169</ele>
        <time>2010-01-01T03:33:08Z</time>
      </trkpt>
      <trkpt lat="38.88047" lon="1.26202">
        <ele>170</ele>
        <time>2010-01-01T03:33:12Z</time>
      </trkpt>
      <trkpt lat="38.88057" lon="1.26207">
        <ele>172</ele>
        <time>2010-01-01T03:33:17Z</time>
      </trkpt>
      <trkpt lat="38.88066" lon="1.2621">
        <ele>172</ele>
        <time>2010-01-01T03:33:20Z</time>
      </trkpt>
      <trkpt lat="38.88076" lon="1.26215">
        <ele>172</ele>
        <time>2010-01-01T03:33:25Z</time>
      </trkpt>
      <trkpt lat="38.88086" lon="1.26218">
        <ele>171</ele>
        <time>2010-01-01T03:33:29Z</time>
      </trkpt>
      <trkpt lat="38.88094" lon="1.26225">
        <ele>171</ele>
        <time>2010-01-01T03:33:33Z</time>
      </trkpt>
      <trkpt lat="38.88103" lon="1.26233">
        <ele>170</ele>
        <time>2010-01-01T03:33:37Z</time>
      </trkpt>
      <trkpt lat="38.88111" lon="1.2624">
        <ele>170</ele>
        <time>2010-01-01T03:33:41Z</time>
      </trkpt>
      <trkpt lat="38.88117" lon="1.26251">
        <ele>168</ele>
        <time>2010-01-01T03:33:45Z</time>
      </trkpt>
      <trkpt lat="38.88119" lon="1.26263">
        <ele>167</ele>
        <time>2010-01-01T03:33:49Z</time>
      </trkpt>
      <trkpt lat="38.88117" lon="1.26276">
        <ele>167</ele>
        <time>2010-01-01T03:33:53Z</time>
      </trkpt>
      <trkpt lat="38.88116" lon="1.26289">
        <ele>166</ele>
        <time>2010-01-01T03:33:57Z</time>
      </trkpt>
      <trkpt lat="38.88116" lon="1.26305">
        <ele>165</ele>
        <time>2010-01-01T03:34:02Z</time>
      </trkpt>
      <trkpt lat="38.88115" lon="1.26318">
        <ele>164</ele>
        <time>2010-01-01T03:34:06Z</time>
      </trkpt>
      <trkpt lat="38.88117" lon="1.26329">
        <ele>163</ele>
        <time>2010-01-01T03:34:10Z</time>
      </trkpt>
      <trkpt lat="38.88117" lon="1.26343">
        <ele>161</ele>
        <time>2010-01-01T03:34:14Z</time>
      </trkpt>
      <trkpt lat="38.88118" lon="1.26355">
        <ele>160</ele>
        <time>2010-01-01T03:34:18Z</time>
      </trkpt>
      <trkpt lat="38.88118" lon="1.26367">
        <ele>158</ele>
        <time>2010-01-01T03:34:21Z</time>
      </trkpt>
      <trkpt lat="38.88115" lon="1.26382">
        <ele>158</ele>
        <time>2010-01-01T03:34:26Z</time>
      </trkpt>
      <trkpt lat="38.88113" lon="1.26394">
        <ele>157</ele>
        <time>2010-01-01T03:34:30Z</time>
      </trkpt>
      <trkpt lat="38.88111" lon="1.26407">
        <ele>156</ele>
        <time>2010-01-01T03:34:34Z</time>
      </trkpt>
      <trkpt lat="38.88108" lon="1.26418">
        <ele>156</ele>
        <time>2010-01-01T03:34:38Z</time>
      </trkpt>
      <trkpt lat="38.88107" lon="1.26431">
        <ele>155</ele>
        <time>2010-01-01T03:34:42Z</time>
      </trkpt>
      <trkpt lat="38.88105" lon="1.26443">
        <ele>154</ele>
        <time>2010-01-01T03:34:46Z</time>
      </trkpt>
      <trkpt lat="38.88104" lon="1.26457">
        <ele>152</ele>
        <time>2010-01-01T03:34:50Z</time>
      </trkpt>
      <trkpt lat="38.88102" lon="1.26469">
        <ele>150</ele>
        <time>2010-01-01T03:34:54Z</time>
      </trkpt>
      <trkpt lat="38.88101" lon="1.26482">
        <ele>148</ele>
        <time>2010-01-01T03:34:58Z</time>
      </trkpt>
      <trkpt lat="38.88101" lon="1.26496">
        <ele>146</ele>
        <time>2010-01-01T03:35:02Z</time>
      </trkpt>
      <trkpt lat="38.88098" lon="1.26509">
        <ele>145</ele>
        <time>2010-01-01T03:35:07Z</time>
      </trkpt>
      <trkpt lat="38.88095" lon="1.26522">
        <ele>143</ele>
        <time>2010-01-01T03:35:11Z</time>
      </trkpt>
      <trkpt lat="38.88092" lon="1.26535">
        <ele>142</ele>
        <time>2010-01-01T03:35:15Z</time>
      </trkpt>
      <trkpt lat="38.88087" lon="1.26545">
        <ele>141</ele>
        <time>2010-01-01T03:35:19Z</time>
      </trkpt>
      <trkpt lat="38.88085" lon="1.26557">
        <ele>139</ele>
        <time>2010-01-01T03:35:22Z</time>
      </trkpt>
      <trkpt lat="38.88086" lon="1.2657">
        <ele>138</ele>
        <time>2010-01-01T03:35:27Z</time>
      </trkpt>
      <trkpt lat="38.88083" lon="1.26583">
        <ele>137</ele>
        <time>2010-01-01T03:35:31Z</time>
      </trkpt>
      <trkpt lat="38.88084" lon="1.26596">
        <ele>136</ele>
        <time>2010-01-01T03:35:35Z</time>
      </trkpt>
      <trkpt lat="38.88087" lon="1.26607">
        <ele>136</ele>
        <time>2010-01-01T03:35:39Z</time>
      </trkpt>
      <trkpt lat="38.88088" lon="1.2662">
        <ele>136</ele>
        <time>2010-01-01T03:35:43Z</time>
      </trkpt>
      <trkpt lat="38.88089" lon="1.26635">
        <ele>134</ele>
        <time>2010-01-01T03:35:47Z</time>
      </trkpt>
      <trkpt lat="38.88093" lon="1.26648">
        <ele>133</ele>
        <time>2010-01-01T03:35:52Z</time>
      </trkpt>
      <trkpt lat="38.88099" lon="1.26659">
        <ele>131</ele>
        <time>2010-01-01T03:35:56Z</time>
      </trkpt>
      <trkpt lat="38.88104" lon="1.2667">
        <ele>130</ele>
        <time>2010-01-01T03:36:00Z</time>
      </trkpt>
      <trkpt lat="38.88108" lon="1.26681">
        <ele>130</ele>
        <time>2010-01-01T03:36:03Z</time>
      </trkpt>
      <trkpt lat="38.88119" lon="1.26685">
        <ele>130</ele>
        <time>2010-01-01T03:36:08Z</time>
      </trkpt>
      <trkpt lat="38.88124" lon="1.26695">
        <ele>129</ele>
        <time>2010-01-01T03:36:12Z</time>
      </trkpt>
      <trkpt lat="38.88132" lon="1.26702">
        <ele>129</ele>
        <time>2010-01-01T03:36:16Z</time>
      </trkpt>
      <trkpt lat="38.88141" lon="1.26707">
        <ele>129</ele>
        <time>2010-01-01T03:36:19Z</time>
      </trkpt>
      <trkpt lat="38.88151" lon="1.2671">
        <ele>129</ele>
        <time>2010-01-01T03:36:24Z</time>
      </trkpt>
      <trkpt lat="38.8816" lon="1.26713">
        <ele>129</ele>
        <time>2010-01-01T03:36:27Z</time>
      </trkpt>
      <trkpt lat="38.88169" lon="1.26718">
        <ele>129</ele>
        <time>2010-01-01T03:36:31Z</time>
      </trkpt>
      <trkpt lat="38.8818" lon="1.2672">
        <ele>129</ele>
        <time>2010-01-01T03:36:36Z</time>
      </trkpt>
      <trkpt lat="38.88192" lon="1.26723">
        <ele>129</ele>
        <time>2010-01-01T03:36:40Z</time>
      </trkpt>
      <trkpt lat="38.88201" lon="1.26727">
        <ele>130</ele>
        <time>2010-01-01T03:36:44Z</time>
      </trkpt>
      <trkpt lat="38.88209" lon="1.26736">
        <ele>130</ele>
        <time>2010-01-01T03:36:49Z</time>
      </trkpt>
      <trkpt lat="38.88213" lon="1.26748">
        <ele>130</ele>
        <time>2010-01-01T03:36:53Z</time>
      </trkpt>
      <trkpt lat="38.88219" lon="1.26759">
        <ele>130</ele>
        <time>2010-01-01T03:36:57Z</time>
      </trkpt>
      <trkpt lat="38.88226" lon="1.26771">
        <ele>130</ele>
        <time>2010-01-01T03:37:01Z</time>
      </trkpt>
      <trkpt lat="38.88232" lon="1.26784">
        <ele>130</ele>
        <time>2010-01-01T03:37:06Z</time>
      </trkpt>
      <trkpt lat="38.88238" lon="1.26795">
        <ele>129</ele>
        <time>2010-01-01T03:37:10Z</time>
      </trkpt>
      <trkpt lat="38.88244" lon="1.26804">
        <ele>128</ele>
        <time>2010-01-01T03:37:14Z</time>
      </trkpt>
      <trkpt lat="38.88245" lon="1.26817">
        <ele>127</ele>
        <time>2010-01-01T03:37:18Z</time>
      </trkpt>
      <trkpt lat="38.88242" lon="1.2683">
        <ele>126</ele>
        <time>2010-01-01T03:37:22Z</time>
      </trkpt>
      <trkpt lat="38.88236" lon="1.26842">
        <ele>125</ele>
        <time>2010-01-01T03:37:27Z</time>
      </trkpt>
      <trkpt lat="38.88229" lon="1.26852">
        <ele>123</ele>
        <time>2010-01-01T03:37:31Z</time>
      </trkpt>
      <trkpt lat="38.88222" lon="1.26861">
        <ele>122</ele>
        <time>2010-01-01T03:37:35Z</time>
      </trkpt>
      <trkpt lat="38.88215" lon="1.2687">
        <ele>122</ele>
        <time>2010-01-01T03:37:39Z</time>
      </trkpt>
      <trkpt lat="38.88209" lon="1.26881">
        <ele>122</ele>
        <time>2010-01-01T03:37:43Z</time>
      </trkpt>
      <trkpt lat="38.88203" lon="1.26893">
        <ele>122</ele>
        <time>2010-01-01T03:37:47Z</time>
      </trkpt>
      <trkpt lat="38.88196" lon="1.26906">
        <ele>122</ele>
        <time>2010-01-01T03:37:52Z</time>
      </trkpt>
      <trkpt lat="38.88194" lon="1.2692">
        <ele>122</ele>
        <time>2010-01-01T03:37:57Z</time>
      </trkpt>
      <trkpt lat="38.88195" lon="1.26932">
        <ele>122</ele>
        <time>2010-01-01T03:38:01Z</time>
      </trkpt>
      <trkpt lat="38.88198" lon="1.26944">
        <ele>122</ele>
        <time>2010-01-01T03:38:04Z</time>
      </trkpt>
      <trkpt lat="38.882" lon="1.26956">
        <ele>121</ele>
        <time>2010-01-01T03:38:08Z</time>
      </trkpt>
      <trkpt lat="38.8818" lon="1.26947">
        <ele>120</ele>
        <time>2010-01-01T03:38:17Z</time>
      </trkpt>
      <trkpt lat="38.88184" lon="1.26957">
        <ele>120</ele>
        <time>2010-01-01T03:38:20Z</time>
      </trkpt>
      <trkpt lat="38.88188" lon="1.26947">
        <ele>121</ele>
        <time>2010-01-01T03:38:24Z</time>
      </trkpt>
      <trkpt lat="38.88179" lon="1.26943">
        <ele>120</ele>
        <time>2010-01-01T03:38:28Z</time>
      </trkpt>
      <trkpt lat="38.88174" lon="1.26934">
        <ele>120</ele>
        <time>2010-01-01T03:38:31Z</time>
      </trkpt>
      <trkpt lat="38.88166" lon="1.26927">
        <ele>119</ele>
        <time>2010-01-01T03:38:35Z</time>
      </trkpt>
      <trkpt lat="38.88176" lon="1.26928">
        <ele>120</ele>
        <time>2010-01-01T03:38:39Z</time>
      </trkpt>
      <trkpt lat="38.8818" lon="1.2694">
        <ele>120</ele>
        <time>2010-01-01T03:38:43Z</time>
      </trkpt>
      <trkpt lat="38.88191" lon="1.26944">
        <ele>121</ele>
        <time>2010-01-01T03:38:47Z</time>
      </trkpt>
      <trkpt lat="38.88203" lon="1.26942">
        <ele>122</ele>
        <time>2010-01-01T03:38:53Z</time>
      </trkpt>
      <trkpt lat="38.882" lon="1.26929">
        <ele>122</ele>
        <time>2010-01-01T03:38:57Z</time>
      </trkpt>
      <trkpt lat="38.88191" lon="1.26928">
        <ele>122</ele>
        <time>2010-01-01T03:39:00Z</time>
      </trkpt>
      <trkpt lat="38.88189" lon="1.26941">
        <ele>121</ele>
        <time>2010-01-01T03:39:05Z</time>
      </trkpt>
      <trkpt lat="38.8818" lon="1.26944">
        <ele>120</ele>
        <time>2010-01-01T03:39:08Z</time>
      </trkpt>
      <trkpt lat="38.88188" lon="1.26951">
        <ele>121</ele>
        <time>2010-01-01T03:39:12Z</time>
      </trkpt>
      <trkpt lat="38.88182" lon="1.26942">
        <ele>120</ele>
        <time>2010-01-01T03:39:16Z</time>
      </trkpt>
      <trkpt lat="38.88193" lon="1.26954">
        <ele>121</ele>
        <time>2010-01-01T03:39:22Z</time>
      </trkpt>
      <trkpt lat="38.88202" lon="1.26957">
        <ele>121</ele>
        <time>2010-01-01T03:39:25Z</time>
      </trkpt>
      <trkpt lat="38.88199" lon="1.26968">
        <ele>121</ele>
        <time>2010-01-01T03:39:29Z</time>
      </trkpt>
      <trkpt lat="38.8819" lon="1.26974">
        <ele>120</ele>
        <time>2010-01-01T03:39:33Z</time>
      </trkpt>
      <trkpt lat="38.88182" lon="1.26979">
        <ele>119</ele>
        <time>2010-01-01T03:39:37Z</time>
      </trkpt>
      <trkpt lat="38.88171" lon="1.26979">
        <ele>119</ele>
        <time>2010-01-01T03:39:41Z</time>
      </trkpt>
      <trkpt lat="38.88166" lon="1.26991">
        <ele>118</ele>
        <time>2010-01-01T03:39:45Z</time>
      </trkpt>
      <trkpt lat="38.88162" lon="1.27005">
        <ele>117</ele>
        <time>2010-01-01T03:39:50Z</time>
      </trkpt>
      <trkpt lat="38.88159" lon="1.27017">
        <ele>116</ele>
        <time>2010-01-01T03:39:54Z</time>
      </trkpt>
      <trkpt lat="38.88154" lon="1.27029">
        <ele>115</ele>
        <time>2010-01-01T03:39:58Z</time>
      </trkpt>
      <trkpt lat="38.8815" lon="1.2704">
        <ele>114</ele>
        <time>2010-01-01T03:40:02Z</time>
      </trkpt>
      <trkpt lat="38.88145" lon="1.27052">
        <ele>113</ele>
        <time>2010-01-01T03:40:06Z</time>
      </trkpt>
      <trkpt lat="38.8814" lon="1.27065">
        <ele>112</ele>
        <time>2010-01-01T03:40:11Z</time>
      </trkpt>
      <trkpt lat="38.88137" lon="1.27076">
        <ele>111</ele>
        <time>2010-01-01T03:40:14Z</time>
      </trkpt>
      <trkpt lat="38.88133" lon="1.2709">
        <ele>110</ele>
        <time>2010-01-01T03:40:19Z</time>
      </trkpt>
      <trkpt lat="38.8813" lon="1.27102">
        <ele>109</ele>
        <time>2010-01-01T03:40:23Z</time>
      </trkpt>
      <trkpt lat="38.88127" lon="1.27116">
        <ele>107</ele>
        <time>2010-01-01T03:40:27Z</time>
      </trkpt>
      <trkpt lat="38.88124" lon="1.27128">
        <ele>106</ele>
        <time>2010-01-01T03:40:31Z</time>
      </trkpt>
      <trkpt lat="38.88121" lon="1.27142">
        <ele>105</ele>
        <time>2010-01-01T03:40:36Z</time>
      </trkpt>
      <trkpt lat="38.88119" lon="1.27155">
        <ele>104</ele>
        <time>2010-01-01T03:40:40Z</time>
      </trkpt>
      <trkpt lat="38.88116" lon="1.27167">
        <ele>104</ele>
        <time>2010-01-01T03:40:44Z</time>
      </trkpt>
      <trkpt lat="38.88117" lon="1.27179">
        <ele>103</ele>
        <time>2010-01-01T03:40:48Z</time>
      </trkpt>
      <trkpt lat="38.88114" lon="1.27191">
        <ele>102</ele>
        <time>2010-01-01T03:40:52Z</time>
      </trkpt>
      <trkpt lat="38.88114" lon="1.27203">
        <ele>101</ele>
        <time>2010-01-01T03:40:55Z</time>
      </trkpt>
      <trkpt lat="38.88109" lon="1.27215">
        <ele>99</ele>
        <time>2010-01-01T03:41:00Z</time>
      </trkpt>
      <trkpt lat="38.88103" lon="1.27225">
        <ele>96</ele>
        <time>2010-01-01T03:41:04Z</time>
      </trkpt>
      <trkpt lat="38.88105" lon="1.27238">
        <ele>97</ele>
        <time>2010-01-01T03:41:08Z</time>
      </trkpt>
      <trkpt lat="38.88097" lon="1.27246">
        <ele>94</ele>
        <time>2010-01-01T03:41:12Z</time>
      </trkpt>
      <trkpt lat="38.88088" lon="1.27251">
        <ele>90</ele>
        <time>2010-01-01T03:41:16Z</time>
      </trkpt>
      <trkpt lat="38.88081" lon="1.27261">
        <ele>87</ele>
        <time>2010-01-01T03:41:20Z</time>
      </trkpt>
      <trkpt lat="38.8808" lon="1.27249">
        <ele>86</ele>
        <time>2010-01-01T03:41:24Z</time>
      </trkpt>
      <trkpt lat="38.88076" lon="1.2726">
        <ele>84</ele>
        <time>2010-01-01T03:41:28Z</time>
      </trkpt>
      <trkpt lat="38.88072" lon="1.2725">
        <ele>81</ele>
        <time>2010-01-01T03:41:31Z</time>
      </trkpt>
      <trkpt lat="38.88067" lon="1.27239">
        <ele>78</ele>
        <time>2010-01-01T03:41:35Z</time>
      </trkpt>
      <trkpt lat="38.88058" lon="1.27231">
        <ele>72</ele>
        <time>2010-01-01T03:41:39Z</time>
      </trkpt>
      <trkpt lat="38.88058" lon="1.27219">
        <ele>72</ele>
        <time>2010-01-01T03:41:43Z</time>
      </trkpt>
      <trkpt lat="38.88058" lon="1.27205">
        <ele>74</ele>
        <time>2010-01-01T03:41:48Z</time>
      </trkpt>
      <trkpt lat="38.88058" lon="1.27193">
        <ele>75</ele>
        <time>2010-01-01T03:41:51Z</time>
      </trkpt>
      <trkpt lat="38.88051" lon="1.27185">
        <ele>71</ele>
        <time>2010-01-01T03:41:55Z</time>
      </trkpt>
      <trkpt lat="38.88048" lon="1.27172">
        <ele>71</ele>
        <time>2010-01-01T03:41:59Z</time>
      </trkpt>
      <trkpt lat="38.88045" lon="1.2716">
        <ele>70</ele>
        <time>2010-01-01T03:42:03Z</time>
      </trkpt>
      <trkpt lat="38.88039" lon="1.27148">
        <ele>67</ele>
        <time>2010-01-01T03:42:08Z</time>
      </trkpt>
      <trkpt lat="38.88032" lon="1.27138">
        <ele>63</ele>
        <time>2010-01-01T03:42:12Z</time>
      </trkpt>
      <trkpt lat="38.88024" lon="1.27127">
        <ele>60</ele>
        <time>2010-01-01T03:42:17Z</time>
      </trkpt>
      <trkpt lat="38.88019" lon="1.27115">
        <ele>59</ele>
        <time>2010-01-01T03:42:21Z</time>
      </trkpt>
      <trkpt lat="38.88016" lon="1.27102">
        <ele>58</ele>
        <time>2010-01-01T03:42:25Z</time>
      </trkpt>
      <trkpt lat="38.88011" lon="1.27092">
        <ele>55</ele>
        <time>2010-01-01T03:42:29Z</time>
      </trkpt>
      <trkpt lat="38.88003" lon="1.27083">
        <ele>51</ele>
        <time>2010-01-01T03:42:33Z</time>
      </trkpt>
      <trkpt lat="38.88" lon="1.27069">
        <ele>51</ele>
        <time>2010-01-01T03:42:38Z</time>
      </trkpt>
      <trkpt lat="38.88" lon="1.27057">
        <ele>53</ele>
        <time>2010-01-01T03:42:41Z</time>
      </trkpt>
      <trkpt lat="38.88004" lon="1.27045">
        <ele>57</ele>
        <time>2010-01-01T03:42:45Z</time>
      </trkpt>
      <trkpt lat="38.88008" lon="1.27031">
        <ele>62</ele>
        <time>2010-01-01T03:42:50Z</time>
      </trkpt>
      <trkpt lat="38.88011" lon="1.27019">
        <ele>65</ele>
        <time>2010-01-01T03:42:54Z</time>
      </trkpt>
      <trkpt lat="38.88008" lon="1.27007">
        <ele>66</ele>
        <time>2010-01-01T03:42:58Z</time>
      </trkpt>
      <trkpt lat="38.88" lon="1.26994">
        <ele>64</ele>
        <time>2010-01-01T03:43:03Z</time>
      </trkpt>
      <trkpt lat="38.87995" lon="1.26985">
        <ele>63</ele>
        <time>2010-01-01T03:43:06Z</time>
      </trkpt>
      <trkpt lat="38.87992" lon="1.26973">
        <ele>62</ele>
        <time>2010-01-01T03:43:10Z</time>
      </trkpt>
      <trkpt lat="38.87992" lon="1.26961">
        <ele>63</ele>
        <time>2010-01-01T03:43:14Z</time>
      </trkpt>
      <trkpt lat="38.87988" lon="1.26949">
        <ele>62</ele>
        <time>2010-01-01T03:43:18Z</time>
      </trkpt>
      <trkpt lat="38.87986" lon="1.26938">
        <ele>62</ele>
        <time>2010-01-01T03:43:21Z</time>
      </trkpt>
      <trkpt lat="38.87982" lon="1.26926">
        <ele>61</ele>
        <time>2010-01-01T03:43:25Z</time>
      </trkpt>
      <trkpt lat="38.87979" lon="1.26914">
        <ele>61</ele>
        <time>2010-01-01T03:43:29Z</time>
      </trkpt>
      <trkpt lat="38.87975" lon="1.26903">
        <ele>62</ele>
        <time>2010-01-01T03:43:33Z</time>
      </trkpt>
      <trkpt lat="38.87969" lon="1.26891">
        <ele>60</ele>
        <time>2010-01-01T03:43:37Z</time>
      </trkpt>
      <trkpt lat="38.87965" lon="1.26878">
        <ele>60</ele>
        <time>2010-01-01T03:43:42Z</time>
      </trkpt>
      <trkpt lat="38.87961" lon="1.26866">
        <ele>59</ele>
        <time>2010-01-01T03:43:46Z</time>
      </trkpt>
      <trkpt lat="38.87958" lon="1.26852">
        <ele>58</ele>
        <time>2010-01-01T03:43:50Z</time>
      </trkpt>
      <trkpt lat="38.87956" lon="1.2684">
        <ele>58</ele>
        <time>2010-01-01T03:43:54Z</time>
      </trkpt>
      <trkpt lat="38.87952" lon="1.26828">
        <ele>59</ele>
        <time>2010-01-01T03:43:58Z</time>
      </trkpt>
      <trkpt lat="38.87948" lon="1.26818">
        <ele>59</ele>
        <time>2010-01-01T03:44:02Z</time>
      </trkpt>
      <trkpt lat="38.87945" lon="1.26805">
        <ele>61</ele>
        <time>2010-01-01T03:44:06Z</time>
      </trkpt>
      <trkpt lat="38.87941" lon="1.26793">
        <ele>63</ele>
        <time>2010-01-01T03:44:10Z</time>
      </trkpt>
      <trkpt lat="38.87936" lon="1.26782">
        <ele>63</ele>
        <time>2010-01-01T03:44:14Z</time>
      </trkpt>
      <trkpt lat="38.87932" lon="1.2677">
        <ele>64</ele>
        <time>2010-01-01T03:44:18Z</time>
      </trkpt>
      <trkpt lat="38.87928" lon="1.26758">
        <ele>65</ele>
        <time>2010-01-01T03:44:22Z</time>
      </trkpt>
      <trkpt lat="38.87923" lon="1.26747">
        <ele>65</ele>
        <time>2010-01-01T03:44:26Z</time>
      </trkpt>
      <trkpt lat="38.87918" lon="1.26735">
        <ele>65</ele>
        <time>2010-01-01T03:44:30Z</time>
      </trkpt>
      <trkpt lat="38.87915" lon="1.26724">
        <ele>65</ele>
        <time>2010-01-01T03:44:34Z</time>
      </trkpt>
      <trkpt lat="38.87911" lon="1.26711">
        <ele>65</ele>
        <time>2010-01-01T03:44:38Z</time>
      </trkpt>
      <trkpt lat="38.87909" lon="1.267">
        <ele>66</ele>
        <time>2010-01-01T03:44:42Z</time>
      </trkpt>
      <trkpt lat="38.87905" lon="1.26686">
        <ele>67</ele>
        <time>2010-01-01T03:44:47Z</time>
      </trkpt>
      <trkpt lat="38.879" lon="1.26674">
        <ele>68</ele>
        <time>2010-01-01T03:44:51Z</time>
      </trkpt>
      <trkpt lat="38.87895" lon="1.26664">
        <ele>68</ele>
        <time>2010-01-01T03:44:55Z</time>
      </trkpt>
      <trkpt lat="38.87887" lon="1.26655">
        <ele>69</ele>
        <time>2010-01-01T03:44:59Z</time>
      </trkpt>
      <trkpt lat="38.87877" lon="1.26653">
        <ele>65</ele>
        <time>2010-01-01T03:45:03Z</time>
      </trkpt>
      <trkpt lat="38.87867" lon="1.26649">
        <ele>62</ele>
        <time>2010-01-01T03:45:07Z</time>
      </trkpt>
      <trkpt lat="38.87858" lon="1.26645">
        <ele>60</ele>
        <time>2010-01-01T03:45:11Z</time>
      </trkpt>
      <trkpt lat="38.87849" lon="1.2664">
        <ele>58</ele>
        <time>2010-01-01T03:45:15Z</time>
      </trkpt>
      <trkpt lat="38.87841" lon="1.26632">
        <ele>58</ele>
        <time>2010-01-01T03:45:19Z</time>
      </trkpt>
      <trkpt lat="38.87834" lon="1.26624">
        <ele>61</ele>
        <time>2010-01-01T03:45:23Z</time>
      </trkpt>
      <trkpt lat="38.87829" lon="1.26614">
        <ele>63</ele>
        <time>2010-01-01T03:45:26Z</time>
      </trkpt>
      <trkpt lat="38.87822" lon="1.26604">
        <ele>64</ele>
        <time>2010-01-01T03:45:30Z</time>
      </trkpt>
      <trkpt lat="38.87813" lon="1.266">
        <ele>60</ele>
        <time>2010-01-01T03:45:34Z</time>
      </trkpt>
      <trkpt lat="38.87804" lon="1.26594">
        <ele>57</ele>
        <time>2010-01-01T03:45:38Z</time>
      </trkpt>
      <trkpt lat="38.878" lon="1.26583">
        <ele>60</ele>
        <time>2010-01-01T03:45:42Z</time>
      </trkpt>
      <trkpt lat="38.87794" lon="1.26573">
        <ele>57</ele>
        <time>2010-01-01T03:45:46Z</time>
      </trkpt>
      <trkpt lat="38.87788" lon="1.26563">
        <ele>55</ele>
        <time>2010-01-01T03:45:50Z</time>
      </trkpt>
      <trkpt lat="38.87781" lon="1.26553">
        <ele>53</ele>
        <time>2010-01-01T03:45:54Z</time>
      </trkpt>
      <trkpt lat="38.87776" lon="1.2654">
        <ele>53</ele>
        <time>2010-01-01T03:45:59Z</time>
      </trkpt>
      <trkpt lat="38.87769" lon="1.2653">
        <ele>53</ele>
        <time>2010-01-01T03:46:03Z</time>
      </trkpt>
      <trkpt lat="38.87765" lon="1.26517">
        <ele>54</ele>
        <time>2010-01-01T03:46:07Z</time>
      </trkpt>
      <trkpt lat="38.8776" lon="1.26504">
        <ele>53</ele>
        <time>2010-01-01T03:46:12Z</time>
      </trkpt>
      <trkpt lat="38.87755" lon="1.26493">
        <ele>52</ele>
        <time>2010-01-01T03:46:16Z</time>
      </trkpt>
      <trkpt lat="38.87749" lon="1.2648">
        <ele>51</ele>
        <time>2010-01-01T03:46:20Z</time>
      </trkpt>
      <trkpt lat="38.87746" lon="1.26468">
        <ele>50</ele>
        <time>2010-01-01T03:46:24Z</time>
      </trkpt>
      <trkpt lat="38.87744" lon="1.26456">
        <ele>51</ele>
        <time>2010-01-01T03:46:28Z</time>
      </trkpt>
      <trkpt lat="38.87744" lon="1.26442">
        <ele>53</ele>
        <time>2010-01-01T03:46:32Z</time>
      </trkpt>
      <trkpt lat="38.87744" lon="1.2643">
        <ele>55</ele>
        <time>2010-01-01T03:46:36Z</time>
      </trkpt>
      <trkpt lat="38.87742" lon="1.26418">
        <ele>57</ele>
        <time>2010-01-01T03:46:40Z</time>
      </trkpt>
      <trkpt lat="38.8774" lon="1.26405">
        <ele>57</ele>
        <time>2010-01-01T03:46:44Z</time>
      </trkpt>
      <trkpt lat="38.87739" lon="1.26393">
        <ele>58</ele>
        <time>2010-01-01T03:46:48Z</time>
      </trkpt>
      <trkpt lat="38.87735" lon="1.2638">
        <ele>59</ele>
        <time>2010-01-01T03:46:52Z</time>
      </trkpt>
      <trkpt lat="38.87729" lon="1.2637">
        <ele>58</ele>
        <time>2010-01-01T03:46:56Z</time>
      </trkpt>
      <trkpt lat="38.87718" lon="1.26369">
        <ele>57</ele>
        <time>2010-01-01T03:47:00Z</time>
      </trkpt>
      <trkpt lat="38.8771" lon="1.26376">
        <ele>55</ele>
        <time>2010-01-01T03:47:04Z</time>
      </trkpt>
      <trkpt lat="38.87702" lon="1.26387">
        <ele>52</ele>
        <time>2010-01-01T03:47:09Z</time>
      </trkpt>
      <trkpt lat="38.87697" lon="1.26397">
        <ele>49</ele>
        <time>2010-01-01T03:47:13Z</time>
      </trkpt>
      <trkpt lat="38.87694" lon="1.26411">
        <ele>45</ele>
        <time>2010-01-01T03:47:17Z</time>
      </trkpt>
      <trkpt lat="38.87689" lon="1.26423">
        <ele>41</ele>
        <time>2010-01-01T03:47:21Z</time>
      </trkpt>
      <trkpt lat="38.87681" lon="1.26434">
        <ele>37</ele>
        <time>2010-01-01T03:47:26Z</time>
      </trkpt>
      <trkpt lat="38.87673" lon="1.26441">
        <ele>33</ele>
        <time>2010-01-01T03:47:30Z</time>
      </trkpt>
      <trkpt lat="38.87663" lon="1.26446">
        <ele>30</ele>
        <time>2010-01-01T03:47:34Z</time>
      </trkpt>
      <trkpt lat="38.87654" lon="1.26447">
        <ele>30</ele>
        <time>2010-01-01T03:47:38Z</time>
      </trkpt>
      <trkpt lat="38.87644" lon="1.26451">
        <ele>29</ele>
        <time>2010-01-01T03:47:42Z</time>
      </trkpt>
      <trkpt lat="38.87634" lon="1.26451">
        <ele>28</ele>
        <time>2010-01-01T03:47:46Z</time>
      </trkpt>
      <trkpt lat="38.87625" lon="1.26451">
        <ele>28</ele>
        <time>2010-01-01T03:47:49Z</time>
      </trkpt>
      <trkpt lat="38.87616" lon="1.26451">
        <ele>28</ele>
        <time>2010-01-01T03:47:53Z</time>
      </trkpt>
      <trkpt lat="38.87605" lon="1.2645">
        <ele>27</ele>
        <time>2010-01-01T03:47:58Z</time>
      </trkpt>
      <trkpt lat="38.87596" lon="1.26446">
        <ele>26</ele>
        <time>2010-01-01T03:48:01Z</time>
      </trkpt>
      <trkpt lat="38.87587" lon="1.2644">
        <ele>28</ele>
        <time>2010-01-01T03:48:05Z</time>
      </trkpt>
      <trkpt lat="38.8758" lon="1.26433">
        <ele>30</ele>
        <time>2010-01-01T03:48:09Z</time>
      </trkpt>
      <trkpt lat="38.87573" lon="1.26424">
        <ele>33</ele>
        <time>2010-01-01T03:48:13Z</time>
      </trkpt>
      <trkpt lat="38.87567" lon="1.26414">
        <ele>37</ele>
        <time>2010-01-01T03:48:17Z</time>
      </trkpt>
      <trkpt lat="38.87557" lon="1.26409">
        <ele>37</ele>
        <time>2010-01-01T03:48:21Z</time>
      </trkpt>
      <trkpt lat="38.87549" lon="1.26404">
        <ele>39</ele>
        <time>2010-01-01T03:48:25Z</time>
      </trkpt>
      <trkpt lat="38.87539" lon="1.26399">
        <ele>41</ele>
        <time>2010-01-01T03:48:29Z</time>
      </trkpt>
      <trkpt lat="38.87532" lon="1.26392">
        <ele>44</ele>
        <time>2010-01-01T03:48:33Z</time>
      </trkpt>
      <trkpt lat="38.87523" lon="1.26385">
        <ele>46</ele>
        <time>2010-01-01T03:48:37Z</time>
      </trkpt>
      <trkpt lat="38.87513" lon="1.26379">
        <ele>47</ele>
        <time>2010-01-01T03:48:41Z</time>
      </trkpt>
      <trkpt lat="38.87504" lon="1.26375">
        <ele>47</ele>
        <time>2010-01-01T03:48:45Z</time>
      </trkpt>
      <trkpt lat="38.87493" lon="1.26371">
        <ele>47</ele>
        <time>2010-01-01T03:48:49Z</time>
      </trkpt>
      <trkpt lat="38.87484" lon="1.26367">
        <ele>48</ele>
        <time>2010-01-01T03:48:53Z</time>
      </trkpt>
      <trkpt lat="38.87474" lon="1.26363">
        <ele>49</ele>
        <time>2010-01-01T03:48:57Z</time>
      </trkpt>
      <trkpt lat="38.87466" lon="1.26356">
        <ele>49</ele>
        <time>2010-01-01T03:49:01Z</time>
      </trkpt>
      <trkpt lat="38.87457" lon="1.2635">
        <ele>48</ele>
        <time>2010-01-01T03:49:06Z</time>
      </trkpt>
      <trkpt lat="38.87449" lon="1.26342">
        <ele>47</ele>
        <time>2010-01-01T03:49:10Z</time>
      </trkpt>
      <trkpt lat="38.87441" lon="1.26334">
        <ele>48</ele>
        <time>2010-01-01T03:49:13Z</time>
      </trkpt>
      <trkpt lat="38.87433" lon="1.26326">
        <ele>48</ele>
        <time>2010-01-01T03:49:17Z</time>
      </trkpt>
      <trkpt lat="38.87426" lon="1.26319">
        <ele>47</ele>
        <time>2010-01-01T03:49:21Z</time>
      </trkpt>
      <trkpt lat="38.87419" lon="1.26311">
        <ele>45</ele>
        <time>2010-01-01T03:49:25Z</time>
      </trkpt>
      <trkpt lat="38.87413" lon="1.263">
        <ele>44</ele>
        <time>2010-01-01T03:49:29Z</time>
      </trkpt>
      <trkpt lat="38.87408" lon="1.26286">
        <ele>44</ele>
        <time>2010-01-01T03:49:34Z</time>
      </trkpt>
      <trkpt lat="38.87403" lon="1.26273">
        <ele>44</ele>
        <time>2010-01-01T03:49:38Z</time>
      </trkpt>
      <trkpt lat="38.87396" lon="1.2626">
        <ele>45</ele>
        <time>2010-01-01T03:49:43Z</time>
      </trkpt>
      <trkpt lat="38.87392" lon="1.26249">
        <ele>46</ele>
        <time>2010-01-01T03:49:47Z</time>
      </trkpt>
      <trkpt lat="38.87387" lon="1.26238">
        <ele>49</ele>
        <time>2010-01-01T03:49:51Z</time>
      </trkpt>
      <trkpt lat="38.8738" lon="1.26228">
        <ele>49</ele>
        <time>2010-01-01T03:49:55Z</time>
      </trkpt>
      <trkpt lat="38.87375" lon="1.26218">
        <ele>50</ele>
        <time>2010-01-01T03:49:59Z</time>
      </trkpt>
      <trkpt lat="38.87368" lon="1.2621">
        <ele>50</ele>
        <time>2010-01-01T03:50:03Z</time>
      </trkpt>
      <trkpt lat="38.87362" lon="1.262">
        <ele>51</ele>
        <time>2010-01-01T03:50:07Z</time>
      </trkpt>
      <trkpt lat="38.87354" lon="1.26194">
        <ele>50</ele>
        <time>2010-01-01T03:50:10Z</time>
      </trkpt>
      <trkpt lat="38.87346" lon="1.26184">
        <ele>50</ele>
        <time>2010-01-01T03:50:15Z</time>
      </trkpt>
      <trkpt lat="38.8734" lon="1.26175">
        <ele>51</ele>
        <time>2010-01-01T03:50:18Z</time>
      </trkpt>
      <trkpt lat="38.87335" lon="1.26165">
        <ele>53</ele>
        <time>2010-01-01T03:50:22Z</time>
      </trkpt>
      <trkpt lat="38.8733" lon="1.26155">
        <ele>57</ele>
        <time>2010-01-01T03:50:26Z</time>
      </trkpt>
      <trkpt lat="38.87326" lon="1.26145">
        <ele>60</ele>
        <time>2010-01-01T03:50:30Z</time>
      </trkpt>
      <trkpt lat="38.87319" lon="1.26135">
        <ele>61</ele>
        <time>2010-01-01T03:50:34Z</time>
      </trkpt>
      <trkpt lat="38.87312" lon="1.26124">
        <ele>62</ele>
        <time>2010-01-01T03:50:38Z</time>
      </trkpt>
      <trkpt lat="38.87304" lon="1.26117">
        <ele>60</ele>
        <time>2010-01-01T03:50:42Z</time>
      </trkpt>
      <trkpt lat="38.87296" lon="1.26109">
        <ele>59</ele>
        <time>2010-01-01T03:50:46Z</time>
      </trkpt>
      <trkpt lat="38.87289" lon="1.261">
        <ele>58</ele>
        <time>2010-01-01T03:50:50Z</time>
      </trkpt>
      <trkpt lat="38.87281" lon="1.26093">
        <ele>58</ele>
        <time>2010-01-01T03:50:54Z</time>
      </trkpt>
      <trkpt lat="38.87275" lon="1.26084">
        <ele>59</ele>
        <time>2010-01-01T03:50:57Z</time>
      </trkpt>
      <trkpt lat="38.87269" lon="1.26075">
        <ele>61</ele>
        <time>2010-01-01T03:51:01Z</time>
      </trkpt>
      <trkpt lat="38.87261" lon="1.26067">
        <ele>62</ele>
        <time>2010-01-01T03:51:05Z</time>
      </trkpt>
      <trkpt lat="38.87253" lon="1.2606">
        <ele>62</ele>
        <time>2010-01-01T03:51:09Z</time>
      </trkpt>
      <trkpt lat="38.87245" lon="1.26054">
        <ele>62</ele>
        <time>2010-01-01T03:51:13Z</time>
      </trkpt>
      <trkpt lat="38.87237" lon="1.26048">
        <ele>61</ele>
        <time>2010-01-01T03:51:17Z</time>
      </trkpt>
      <trkpt lat="38.87228" lon="1.26043">
        <ele>58</ele>
        <time>2010-01-01T03:51:20Z</time>
      </trkpt>
      <trkpt lat="38.87219" lon="1.26035">
        <ele>59</ele>
        <time>2010-01-01T03:51:25Z</time>
      </trkpt>
      <trkpt lat="38.87212" lon="1.26028">
        <ele>60</ele>
        <time>2010-01-01T03:51:28Z</time>
      </trkpt>
      <trkpt lat="38.87205" lon="1.26017">
        <ele>64</ele>
        <time>2010-01-01T03:51:33Z</time>
      </trkpt>
      <trkpt lat="38.87198" lon="1.26006">
        <ele>68</ele>
        <time>2010-01-01T03:51:37Z</time>
      </trkpt>
      <trkpt lat="38.87193" lon="1.25996">
        <ele>71</ele>
        <time>2010-01-01T03:51:41Z</time>
      </trkpt>
      <trkpt lat="38.87186" lon="1.25989">
        <ele>71</ele>
        <time>2010-01-01T03:51:44Z</time>
      </trkpt>
      <trkpt lat="38.8718" lon="1.25978">
        <ele>74</ele>
        <time>2010-01-01T03:51:49Z</time>
      </trkpt>
      <trkpt lat="38.87176" lon="1.25968">
        <ele>75</ele>
        <time>2010-01-01T03:51:52Z</time>
      </trkpt>
      <trkpt lat="38.87172" lon="1.25957">
        <ele>76</ele>
        <time>2010-01-01T03:51:56Z</time>
      </trkpt>
      <trkpt lat="38.87167" lon="1.25947">
        <ele>75</ele>
        <time>2010-01-01T03:52:00Z</time>
      </trkpt>
      <trkpt lat="38.87161" lon="1.25936">
        <ele>74</ele>
        <time>2010-01-01T03:52:04Z</time>
      </trkpt>
      <trkpt lat="38.87156" lon="1.25925">
        <ele>74</ele>
        <time>2010-01-01T03:52:08Z</time>
      </trkpt>
      <trkpt lat="38.87153" lon="1.25913">
        <ele>76</ele>
        <time>2010-01-01T03:52:12Z</time>
      </trkpt>
      <trkpt lat="38.87152" lon="1.25901">
        <ele>79</ele>
        <time>2010-01-01T03:52:15Z</time>
      </trkpt>
      <trkpt lat="38.87154" lon="1.2589">
        <ele>85</ele>
        <time>2010-01-01T03:52:19Z</time>
      </trkpt>
      <trkpt lat="38.87148" lon="1.25879">
        <ele>85</ele>
        <time>2010-01-01T03:52:23Z</time>
      </trkpt>
      <trkpt lat="38.87143" lon="1.2587">
        <ele>86</ele>
        <time>2010-01-01T03:52:27Z</time>
      </trkpt>
      <trkpt lat="38.87138" lon="1.2586">
        <ele>86</ele>
        <time>2010-01-01T03:52:30Z</time>
      </trkpt>
      <trkpt lat="38.87132" lon="1.2585">
        <ele>87</ele>
        <time>2010-01-01T03:52:34Z</time>
      </trkpt>
      <trkpt lat="38.87124" lon="1.2584">
        <ele>88</ele>
        <time>2010-01-01T03:52:39Z</time>
      </trkpt>
      <trkpt lat="38.87116" lon="1.25832">
        <ele>88</ele>
        <time>2010-01-01T03:52:43Z</time>
      </trkpt>
      <trkpt lat="38.87109" lon="1.25825">
        <ele>89</ele>
        <time>2010-01-01T03:52:46Z</time>
      </trkpt>
      <trkpt lat="38.871" lon="1.25822">
        <ele>86</ele>
        <time>2010-01-01T03:52:50Z</time>
      </trkpt>
      <trkpt lat="38.87092" lon="1.25817">
        <ele>85</ele>
        <time>2010-01-01T03:52:54Z</time>
      </trkpt>
      <trkpt lat="38.87084" lon="1.2581">
        <ele>84</ele>
        <time>2010-01-01T03:52:57Z</time>
      </trkpt>
      <trkpt lat="38.87075" lon="1.25805">
        <ele>83</ele>
        <time>2010-01-01T03:53:01Z</time>
      </trkpt>
      <trkpt lat="38.87068" lon="1.25797">
        <ele>85</ele>
        <time>2010-01-01T03:53:05Z</time>
      </trkpt>
      <trkpt lat="38.8706" lon="1.25791">
        <ele>83</ele>
        <time>2010-01-01T03:53:09Z</time>
      </trkpt>
      <trkpt lat="38.87056" lon="1.25779">
        <ele>86</ele>
        <time>2010-01-01T03:53:13Z</time>
      </trkpt>
      <trkpt lat="38.8705" lon="1.2577">
        <ele>88</ele>
        <time>2010-01-01T03:53:17Z</time>
      </trkpt>
      <trkpt lat="38.87043" lon="1.25762">
        <ele>90</ele>
        <time>2010-01-01T03:53:20Z</time>
      </trkpt>
      <trkpt lat="38.87034" lon="1.25753">
        <ele>90</ele>
        <time>2010-01-01T03:53:25Z</time>
      </trkpt>
      <trkpt lat="38.87027" lon="1.25746">
        <ele>92</ele>
        <time>2010-01-01T03:53:29Z</time>
      </trkpt>
      <trkpt lat="38.87018" lon="1.25739">
        <ele>91</ele>
        <time>2010-01-01T03:53:33Z</time>
      </trkpt>
      <trkpt lat="38.87008" lon="1.25738">
        <ele>87</ele>
        <time>2010-01-01T03:53:37Z</time>
      </trkpt>
      <trkpt lat="38.87001" lon="1.25745">
        <ele>81</ele>
        <time>2010-01-01T03:53:40Z</time>
      </trkpt>
      <trkpt lat="38.86995" lon="1.25753">
        <ele>76</ele>
        <time>2010-01-01T03:53:44Z</time>
      </trkpt>
      <trkpt lat="38.86992" lon="1.25764">
        <ele>73</ele>
        <time>2010-01-01T03:53:48Z</time>
      </trkpt>
      <trkpt lat="38.86983" lon="1.25771">
        <ele>68</ele>
        <time>2010-01-01T03:53:52Z</time>
      </trkpt>
      <trkpt lat="38.86974" lon="1.25775">
        <ele>64</ele>
        <time>2010-01-01T03:53:55Z</time>
      </trkpt>
      <trkpt lat="38.86966" lon="1.25779">
        <ele>59</ele>
        <time>2010-01-01T03:53:59Z</time>
      </trkpt>
      <trkpt lat="38.86955" lon="1.25778">
        <ele>55</ele>
        <time>2010-01-01T03:54:03Z</time>
      </trkpt>
      <trkpt lat="38.86953" lon="1.25766">
        <ele>58</ele>
        <time>2010-01-01T03:54:07Z</time>
      </trkpt>
      <trkpt lat="38.86952" lon="1.25754">
        <ele>62</ele>
        <time>2010-01-01T03:54:11Z</time>
      </trkpt>
      <trkpt lat="38.86949" lon="1.25743">
        <ele>64</ele>
        <time>2010-01-01T03:54:14Z</time>
      </trkpt>
      <trkpt lat="38.86943" lon="1.25734">
        <ele>65</ele>
        <time>2010-01-01T03:54:18Z</time>
      </trkpt>
      <trkpt lat="38.86934" lon="1.2573">
        <ele>62</ele>
        <time>2010-01-01T03:54:22Z</time>
      </trkpt>
      <trkpt lat="38.86925" lon="1.25727">
        <ele>60</ele>
        <time>2010-01-01T03:54:26Z</time>
      </trkpt>
      <trkpt lat="38.86917" lon="1.25721">
        <ele>60</ele>
        <time>2010-01-01T03:54:29Z</time>
      </trkpt>
      <trkpt lat="38.86909" lon="1.25713">
        <ele>59</ele>
        <time>2010-01-01T03:54:34Z</time>
      </trkpt>
      <trkpt lat="38.869" lon="1.25704">
        <ele>58</ele>
        <time>2010-01-01T03:54:38Z</time>
      </trkpt>
      <trkpt lat="38.86893" lon="1.25694">
        <ele>58</ele>
        <time>2010-01-01T03:54:42Z</time>
      </trkpt>
      <trkpt lat="38.86884" lon="1.25684">
        <ele>59</ele>
        <time>2010-01-01T03:54:47Z</time>
      </trkpt>
      <trkpt lat="38.86879" lon="1.25673">
        <ele>60</ele>
        <time>2010-01-01T03:54:51Z</time>
      </trkpt>
      <trkpt lat="38.86873" lon="1.25663">
        <ele>61</ele>
        <time>2010-01-01T03:54:55Z</time>
      </trkpt>
      <trkpt lat="38.86865" lon="1.25656">
        <ele>62</ele>
        <time>2010-01-01T03:54:59Z</time>
      </trkpt>
      <trkpt lat="38.86859" lon="1.25646">
        <ele>63</ele>
        <time>2010-01-01T03:55:03Z</time>
      </trkpt>
      <trkpt lat="38.86852" lon="1.25637">
        <ele>64</ele>
        <time>2010-01-01T03:55:07Z</time>
      </trkpt>
      <trkpt lat="38.86846" lon="1.25627">
        <ele>64</ele>
        <time>2010-01-01T03:55:10Z</time>
      </trkpt>
      <trkpt lat="38.86841" lon="1.25616">
        <ele>65</ele>
        <time>2010-01-01T03:55:15Z</time>
      </trkpt>
      <trkpt lat="38.86835" lon="1.25605">
        <ele>66</ele>
        <time>2010-01-01T03:55:19Z</time>
      </trkpt>
      <trkpt lat="38.86829" lon="1.25596">
        <ele>68</ele>
        <time>2010-01-01T03:55:22Z</time>
      </trkpt>
      <trkpt lat="38.86822" lon="1.25589">
        <ele>69</ele>
        <time>2010-01-01T03:55:26Z</time>
      </trkpt>
      <trkpt lat="38.86813" lon="1.25584">
        <ele>69</ele>
        <time>2010-01-01T03:55:30Z</time>
      </trkpt>
      <trkpt lat="38.86807" lon="1.25593">
        <ele>65</ele>
        <time>2010-01-01T03:55:34Z</time>
      </trkpt>
      <trkpt lat="38.868" lon="1.25602">
        <ele>61</ele>
        <time>2010-01-01T03:55:38Z</time>
      </trkpt>
      <trkpt lat="38.86791" lon="1.25604">
        <ele>59</ele>
        <time>2010-01-01T03:55:41Z</time>
      </trkpt>
      <trkpt lat="38.86782" lon="1.25609">
        <ele>56</ele>
        <time>2010-01-01T03:55:45Z</time>
      </trkpt>
      <trkpt lat="38.86777" lon="1.2562">
        <ele>53</ele>
        <time>2010-01-01T03:55:49Z</time>
      </trkpt>
      <trkpt lat="38.86769" lon="1.25629">
        <ele>51</ele>
        <time>2010-01-01T03:55:54Z</time>
      </trkpt>
      <trkpt lat="38.86759" lon="1.25628">
        <ele>50</ele>
        <time>2010-01-01T03:55:58Z</time>
      </trkpt>
      <trkpt lat="38.8675" lon="1.25625">
        <ele>49</ele>
        <time>2010-01-01T03:56:01Z</time>
      </trkpt>
      <trkpt lat="38.86743" lon="1.25617">
        <ele>49</ele>
        <time>2010-01-01T03:56:05Z</time>
      </trkpt>
      <trkpt lat="38.86737" lon="1.25606">
        <ele>50</ele>
        <time>2010-01-01T03:56:09Z</time>
      </trkpt>
      <trkpt lat="38.86732" lon="1.25597">
        <ele>51</ele>
        <time>2010-01-01T03:56:13Z</time>
      </trkpt>
      <trkpt lat="38.86726" lon="1.25588">
        <ele>51</ele>
        <time>2010-01-01T03:56:17Z</time>
      </trkpt>
      <trkpt lat="38.8672" lon="1.25577">
        <ele>53</ele>
        <time>2010-01-01T03:56:21Z</time>
      </trkpt>
      <trkpt lat="38.86715" lon="1.25565">
        <ele>56</ele>
        <time>2010-01-01T03:56:25Z</time>
      </trkpt>
      <trkpt lat="38.8671" lon="1.25555">
        <ele>59</ele>
        <time>2010-01-01T03:56:29Z</time>
      </trkpt>
      <trkpt lat="38.86705" lon="1.25543">
        <ele>62</ele>
        <time>2010-01-01T03:56:33Z</time>
      </trkpt>
      <trkpt lat="38.86699" lon="1.25535">
        <ele>64</ele>
        <time>2010-01-01T03:56:36Z</time>
      </trkpt>
      <trkpt lat="38.86692" lon="1.25525">
        <ele>65</ele>
        <time>2010-01-01T03:56:40Z</time>
      </trkpt>
      <trkpt lat="38.86683" lon="1.25517">
        <ele>64</ele>
        <time>2010-01-01T03:56:45Z</time>
      </trkpt>
      <trkpt lat="38.86675" lon="1.25508">
        <ele>64</ele>
        <time>2010-01-01T03:56:49Z</time>
      </trkpt>
      <trkpt lat="38.86667" lon="1.25502">
        <ele>64</ele>
        <time>2010-01-01T03:56:53Z</time>
      </trkpt>
      <trkpt lat="38.86662" lon="1.25492">
        <ele>64</ele>
        <time>2010-01-01T03:56:57Z</time>
      </trkpt>
      <trkpt lat="38.86656" lon="1.25481">
        <ele>65</ele>
        <time>2010-01-01T03:57:01Z</time>
      </trkpt>
      <trkpt lat="38.86652" lon="1.2547">
        <ele>66</ele>
        <time>2010-01-01T03:57:04Z</time>
      </trkpt>
      <trkpt lat="38.86646" lon="1.2546">
        <ele>67</ele>
        <time>2010-01-01T03:57:08Z</time>
      </trkpt>
      <trkpt lat="38.86639" lon="1.25452">
        <ele>66</ele>
        <time>2010-01-01T03:57:12Z</time>
      </trkpt>
      <trkpt lat="38.8663" lon="1.25447">
        <ele>67</ele>
        <time>2010-01-01T03:57:16Z</time>
      </trkpt>
      <trkpt lat="38.86622" lon="1.25442">
        <ele>68</ele>
        <time>2010-01-01T03:57:20Z</time>
      </trkpt>
      <trkpt lat="38.86612" lon="1.25437">
        <ele>68</ele>
        <time>2010-01-01T03:57:24Z</time>
      </trkpt>
      <trkpt lat="38.86604" lon="1.25433">
        <ele>70</ele>
        <time>2010-01-01T03:57:28Z</time>
      </trkpt>
      <trkpt lat="38.86595" lon="1.25438">
        <ele>69</ele>
        <time>2010-01-01T03:57:31Z</time>
      </trkpt>
      <trkpt lat="38.86594" lon="1.25449">
        <ele>65</ele>
        <time>2010-01-01T03:57:35Z</time>
      </trkpt>
      <trkpt lat="38.86591" lon="1.25462">
        <ele>61</ele>
        <time>2010-01-01T03:57:39Z</time>
      </trkpt>
      <trkpt lat="38.86582" lon="1.25466">
        <ele>58</ele>
        <time>2010-01-01T03:57:43Z</time>
      </trkpt>
      <trkpt lat="38.86572" lon="1.25466">
        <ele>58</ele>
        <time>2010-01-01T03:57:47Z</time>
      </trkpt>
      <trkpt lat="38.86563" lon="1.25462">
        <ele>59</ele>
        <time>2010-01-01T03:57:50Z</time>
      </trkpt>
      <trkpt lat="38.86553" lon="1.25462">
        <ele>59</ele>
        <time>2010-01-01T03:57:54Z</time>
      </trkpt>
      <trkpt lat="38.86544" lon="1.25464">
        <ele>57</ele>
        <time>2010-01-01T03:57:58Z</time>
      </trkpt>
      <trkpt lat="38.86535" lon="1.25465">
        <ele>57</ele>
        <time>2010-01-01T03:58:02Z</time>
      </trkpt>
      <trkpt lat="38.86527" lon="1.2547">
        <ele>54</ele>
        <time>2010-01-01T03:58:05Z</time>
      </trkpt>
      <trkpt lat="38.86517" lon="1.25469">
        <ele>52</ele>
        <time>2010-01-01T03:58:09Z</time>
      </trkpt>
      <trkpt lat="38.86506" lon="1.2547">
        <ele>49</ele>
        <time>2010-01-01T03:58:14Z</time>
      </trkpt>
      <trkpt lat="38.86496" lon="1.25471">
        <ele>46</ele>
        <time>2010-01-01T03:58:18Z</time>
      </trkpt>
      <trkpt lat="38.86487" lon="1.25472">
        <ele>43</ele>
        <time>2010-01-01T03:58:22Z</time>
      </trkpt>
      <trkpt lat="38.86476" lon="1.25469">
        <ele>41</ele>
        <time>2010-01-01T03:58:26Z</time>
      </trkpt>
      <trkpt lat="38.86464" lon="1.25468">
        <ele>40</ele>
        <time>2010-01-01T03:58:31Z</time>
      </trkpt>
      <trkpt lat="38.86454" lon="1.2547">
        <ele>37</ele>
        <time>2010-01-01T03:58:35Z</time>
      </trkpt>
      <trkpt lat="38.86447" lon="1.25477">
        <ele>33</ele>
        <time>2010-01-01T03:58:38Z</time>
      </trkpt>
      <trkpt lat="38.86437" lon="1.25475">
        <ele>32</ele>
        <time>2010-01-01T03:58:42Z</time>
      </trkpt>
      <trkpt lat="38.86428" lon="1.25475">
        <ele>30</ele>
        <time>2010-01-01T03:58:46Z</time>
      </trkpt>
      <trkpt lat="38.86417" lon="1.25476">
        <ele>27</ele>
        <time>2010-01-01T03:58:51Z</time>
      </trkpt>
      <trkpt lat="38.86408" lon="1.25473">
        <ele>26</ele>
        <time>2010-01-01T03:58:54Z</time>
      </trkpt>
      <trkpt lat="38.86402" lon="1.25464">
        <ele>28</ele>
        <time>2010-01-01T03:58:58Z</time>
      </trkpt>
      <trkpt lat="38.86398" lon="1.25452">
        <ele>30</ele>
        <time>2010-01-01T03:59:02Z</time>
      </trkpt>
      <trkpt lat="38.8639" lon="1.25446">
        <ele>29</ele>
        <time>2010-01-01T03:59:06Z</time>
      </trkpt>
      <trkpt lat="38.86381" lon="1.25442">
        <ele>27</ele>
        <time>2010-01-01T03:59:09Z</time>
      </trkpt>
      <trkpt lat="38.86372" lon="1.2544">
        <ele>24</ele>
        <time>2010-01-01T03:59:13Z</time>
      </trkpt>
      <trkpt lat="38.86363" lon="1.25435">
        <ele>22</ele>
        <time>2010-01-01T03:59:17Z</time>
      </trkpt>
      <trkpt lat="38.86354" lon="1.2543">
        <ele>20</ele>
        <time>2010-01-01T03:59:21Z</time>
      </trkpt>
      <trkpt lat="38.86345" lon="1.25425">
        <ele>17</ele>
        <time>2010-01-01T03:59:25Z</time>
      </trkpt>
      <trkpt lat="38.86337" lon="1.25419">
        <ele>16</ele>
        <time>2010-01-01T03:59:29Z</time>
      </trkpt>
      <trkpt lat="38.86328" lon="1.25411">
        <ele>13</ele>
        <time>2010-01-01T03:59:33Z</time>
      </trkpt>
      <trkpt lat="38.86324" lon="1.254">
        <ele>13</ele>
        <time>2010-01-01T03:59:37Z</time>
      </trkpt>
      <trkpt lat="38.86323" lon="1.25388">
        <ele>14</ele>
        <time>2010-01-01T03:59:41Z</time>
      </trkpt>
      <trkpt lat="38.86322" lon="1.25375">
        <ele>16</ele>
        <time>2010-01-01T03:59:44Z</time>
      </trkpt>
      <trkpt lat="38.86319" lon="1.25363">
        <ele>17</ele>
        <time>2010-01-01T03:59:48Z</time>
      </trkpt>
      <trkpt lat="38.86315" lon="1.25353">
        <ele>17</ele>
        <time>2010-01-01T03:59:52Z</time>
      </trkpt>
      <trkpt lat="38.86304" lon="1.2535">
        <ele>13</ele>
        <time>2010-01-01T03:59:57Z</time>
      </trkpt>
      <trkpt lat="38.86294" lon="1.25348">
        <ele>10</ele>
        <time>2010-01-01T04:00:01Z</time>
      </trkpt>
      <trkpt lat="38.86291" lon="1.25337">
        <ele>10</ele>
        <time>2010-01-01T04:00:04Z</time>
      </trkpt>
      <trkpt lat="38.86295" lon="1.25326">
        <ele>14</ele>
        <time>2010-01-01T04:00:08Z</time>
      </trkpt>
      <trkpt lat="38.86301" lon="1.25317">
        <ele>17</ele>
        <time>2010-01-01T04:00:12Z</time>
      </trkpt>
      <trkpt lat="38.86296" lon="1.25308">
        <ele>17</ele>
        <time>2010-01-01T04:00:15Z</time>
      </trkpt>
      <trkpt lat="38.86292" lon="1.25297">
        <ele>19</ele>
        <time>2010-01-01T04:00:19Z</time>
      </trkpt>
      <trkpt lat="38.86284" lon="1.25291">
        <ele>18</ele>
        <time>2010-01-01T04:00:23Z</time>
      </trkpt>
      <trkpt lat="38.86277" lon="1.25283">
        <ele>18</ele>
        <time>2010-01-01T04:00:27Z</time>
      </trkpt>
      <trkpt lat="38.86282" lon="1.25273">
        <ele>22</ele>
        <time>2010-01-01T04:00:30Z</time>
      </trkpt>
      <trkpt lat="38.8628" lon="1.2526">
        <ele>24</ele>
        <time>2010-01-01T04:00:34Z</time>
      </trkpt>
      <trkpt lat="38.86274" lon="1.25252">
        <ele>24</ele>
        <time>2010-01-01T04:00:38Z</time>
      </trkpt>
      <trkpt lat="38.86267" lon="1.25244">
        <ele>25</ele>
        <time>2010-01-01T04:00:42Z</time>
      </trkpt>
      <trkpt lat="38.86263" lon="1.25233">
        <ele>26</ele>
        <time>2010-01-01T04:00:45Z</time>
      </trkpt>
      <trkpt lat="38.86268" lon="1.25223">
        <ele>28</ele>
        <time>2010-01-01T04:00:49Z</time>
      </trkpt>
      <trkpt lat="38.86277" lon="1.25216">
        <ele>31</ele>
        <time>2010-01-01T04:00:53Z</time>
      </trkpt>
      <trkpt lat="38.86283" lon="1.25207">
        <ele>37</ele>
        <time>2010-01-01T04:00:57Z</time>
      </trkpt>
      <trkpt lat="38.86273" lon="1.25207">
        <ele>34</ele>
        <time>2010-01-01T04:01:01Z</time>
      </trkpt>
      <trkpt lat="38.86265" lon="1.25199">
        <ele>36</ele>
        <time>2010-01-01T04:01:05Z</time>
      </trkpt>
      <trkpt lat="38.86261" lon="1.25189">
        <ele>39</ele>
        <time>2010-01-01T04:01:08Z</time>
      </trkpt>
      <trkpt lat="38.86254" lon="1.2518">
        <ele>42</ele>
        <time>2010-01-01T04:01:12Z</time>
      </trkpt>
      <trkpt lat="38.86243" lon="1.25176">
        <ele>43</ele>
        <time>2010-01-01T04:01:17Z</time>
      </trkpt>
      <trkpt lat="38.86235" lon="1.25173">
        <ele>45</ele>
        <time>2010-01-01T04:01:20Z</time>
      </trkpt>
      <trkpt lat="38.86225" lon="1.25168">
        <ele>47</ele>
        <time>2010-01-01T04:01:24Z</time>
      </trkpt>
      <trkpt lat="38.86216" lon="1.2516">
        <ele>50</ele>
        <time>2010-01-01T04:01:29Z</time>
      </trkpt>
      <trkpt lat="38.86208" lon="1.25155">
        <ele>52</ele>
        <time>2010-01-01T04:01:32Z</time>
      </trkpt>
      <trkpt lat="38.86199" lon="1.25149">
        <ele>54</ele>
        <time>2010-01-01T04:01:36Z</time>
      </trkpt>
      <trkpt lat="38.86205" lon="1.2514">
        <ele>57</ele>
        <time>2010-01-01T04:01:40Z</time>
      </trkpt>
      <trkpt lat="38.86212" lon="1.25131">
        <ele>60</ele>
        <time>2010-01-01T04:01:44Z</time>
      </trkpt>
      <trkpt lat="38.86204" lon="1.25125">
        <ele>62</ele>
        <time>2010-01-01T04:01:48Z</time>
      </trkpt>
      <trkpt lat="38.86198" lon="1.25115">
        <ele>65</ele>
        <time>2010-01-01T04:01:51Z</time>
      </trkpt>
      <trkpt lat="38.86207" lon="1.2511">
        <ele>67</ele>
        <time>2010-01-01T04:01:55Z</time>
      </trkpt>
      <trkpt lat="38.86216" lon="1.25106">
        <ele>69</ele>
        <time>2010-01-01T04:01:59Z</time>
      </trkpt>
      <trkpt lat="38.86225" lon="1.25106">
        <ele>70</ele>
        <time>2010-01-01T04:02:03Z</time>
      </trkpt>
      <trkpt lat="38.86234" lon="1.25108">
        <ele>71</ele>
        <time>2010-01-01T04:02:06Z</time>
      </trkpt>
      <trkpt lat="38.86243" lon="1.25104">
        <ele>74</ele>
        <time>2010-01-01T04:02:10Z</time>
      </trkpt>
      <trkpt lat="38.86252" lon="1.25105">
        <ele>75</ele>
        <time>2010-01-01T04:02:14Z</time>
      </trkpt>
      <trkpt lat="38.86261" lon="1.251">
        <ele>79</ele>
        <time>2010-01-01T04:02:18Z</time>
      </trkpt>
      <trkpt lat="38.86254" lon="1.25092">
        <ele>81</ele>
        <time>2010-01-01T04:02:22Z</time>
      </trkpt>
      <trkpt lat="38.86247" lon="1.25086">
        <ele>83</ele>
        <time>2010-01-01T04:02:25Z</time>
      </trkpt>
      <trkpt lat="38.86256" lon="1.25081">
        <ele>86</ele>
        <time>2010-01-01T04:02:29Z</time>
      </trkpt>
      <trkpt lat="38.86266" lon="1.2508">
        <ele>88</ele>
        <time>2010-01-01T04:02:33Z</time>
      </trkpt>
      <trkpt lat="38.86274" lon="1.25075">
        <ele>91</ele>
        <time>2010-01-01T04:02:37Z</time>
      </trkpt>
      <trkpt lat="38.86266" lon="1.25069">
        <ele>92</ele>
        <time>2010-01-01T04:02:40Z</time>
      </trkpt>
      <trkpt lat="38.86257" lon="1.25069">
        <ele>91</ele>
        <time>2010-01-01T04:02:44Z</time>
      </trkpt>
      <trkpt lat="38.86247" lon="1.25069">
        <ele>90</ele>
        <time>2010-01-01T04:02:48Z</time>
      </trkpt>
      <trkpt lat="38.86238" lon="1.25066">
        <ele>89</ele>
        <time>2010-01-01T04:02:52Z</time>
      </trkpt>
      <trkpt lat="38.86233" lon="1.25055">
        <ele>92</ele>
        <time>2010-01-01T04:02:56Z</time>
      </trkpt>
      <trkpt lat="38.86226" lon="1.25046">
        <ele>94</ele>
        <time>2010-01-01T04:03:00Z</time>
      </trkpt>
      <trkpt lat="38.86221" lon="1.25035">
        <ele>96</ele>
        <time>2010-01-01T04:03:04Z</time>
      </trkpt>
      <trkpt lat="38.86217" lon="1.25025">
        <ele>98</ele>
        <time>2010-01-01T04:03:07Z</time>
      </trkpt>
      <trkpt lat="38.86215" lon="1.25011">
        <ele>103</ele>
        <time>2010-01-01T04:03:12Z</time>
      </trkpt>
      <trkpt lat="38.86213" lon="1.25">
        <ele>107</ele>
        <time>2010-01-01T04:03:15Z</time>
      </trkpt>
      <trkpt lat="38.86209" lon="1.24989">
        <ele>108</ele>
        <time>2010-01-01T04:03:19Z</time>
      </trkpt>
      <trkpt lat="38.8621" lon="1.24977">
        <ele>113</ele>
        <time>2010-01-01T04:03:23Z</time>
      </trkpt>
      <trkpt lat="38.86209" lon="1.24965">
        <ele>115</ele>
        <time>2010-01-01T04:03:27Z</time>
      </trkpt>
      <trkpt lat="38.86211" lon="1.24951">
        <ele>117</ele>
        <time>2010-01-01T04:03:31Z</time>
      </trkpt>
      <trkpt lat="38.86211" lon="1.24939">
        <ele>118</ele>
        <time>2010-01-01T04:03:35Z</time>
      </trkpt>
      <trkpt lat="38.86208" lon="1.24926">
        <ele>117</ele>
        <time>2010-01-01T04:03:39Z</time>
      </trkpt>
      <trkpt lat="38.86208" lon="1.24913">
        <ele>119</ele>
        <time>2010-01-01T04:03:43Z</time>
      </trkpt>
      <trkpt lat="38.86205" lon="1.24902">
        <ele>120</ele>
        <time>2010-01-01T04:03:47Z</time>
      </trkpt>
      <trkpt lat="38.86197" lon="1.24898">
        <ele>117</ele>
        <time>2010-01-01T04:03:51Z</time>
      </trkpt>
      <trkpt lat="38.86187" lon="1.24895">
        <ele>117</ele>
        <time>2010-01-01T04:03:54Z</time>
      </trkpt>
      <trkpt lat="38.86178" lon="1.24897">
        <ele>118</ele>
        <time>2010-01-01T04:03:58Z</time>
      </trkpt>
      <trkpt lat="38.8617" lon="1.24903">
        <ele>116</ele>
        <time>2010-01-01T04:04:02Z</time>
      </trkpt>
      <trkpt lat="38.8616" lon="1.24907">
        <ele>119</ele>
        <time>2010-01-01T04:04:06Z</time>
      </trkpt>
      <trkpt lat="38.86155" lon="1.24918">
        <ele>119</ele>
        <time>2010-01-01T04:04:10Z</time>
      </trkpt>
      <trkpt lat="38.86149" lon="1.24928">
        <ele>120</ele>
        <time>2010-01-01T04:04:14Z</time>
      </trkpt>
      <trkpt lat="38.86142" lon="1.24939">
        <ele>120</ele>
        <time>2010-01-01T04:04:18Z</time>
      </trkpt>
      <trkpt lat="38.86136" lon="1.24947">
        <ele>119</ele>
        <time>2010-01-01T04:04:22Z</time>
      </trkpt>
      <trkpt lat="38.86126" lon="1.24951">
        <ele>119</ele>
        <time>2010-01-01T04:04:26Z</time>
      </trkpt>
      <trkpt lat="38.86119" lon="1.24957">
        <ele>118</ele>
        <time>2010-01-01T04:04:30Z</time>
      </trkpt>
      <trkpt lat="38.8611" lon="1.24951">
        <ele>121</ele>
        <time>2010-01-01T04:04:34Z</time>
      </trkpt>
      <trkpt lat="38.86109" lon="1.24939">
        <ele>126</ele>
        <time>2010-01-01T04:04:37Z</time>
      </trkpt>
      <trkpt lat="38.8611" lon="1.24927">
        <ele>131</ele>
        <time>2010-01-01T04:04:41Z</time>
      </trkpt>
      <trkpt lat="38.86111" lon="1.24915">
        <ele>135</ele>
        <time>2010-01-01T04:04:45Z</time>
      </trkpt>
      <trkpt lat="38.861" lon="1.24915">
        <ele>137</ele>
        <time>2010-01-01T04:04:50Z</time>
      </trkpt>
      <trkpt lat="38.86089" lon="1.24919">
        <ele>137</ele>
        <time>2010-01-01T04:04:54Z</time>
      </trkpt>
      <trkpt lat="38.8608" lon="1.24926">
        <ele>136</ele>
        <time>2010-01-01T04:04:58Z</time>
      </trkpt>
      <trkpt lat="38.86072" lon="1.24932">
        <ele>136</ele>
        <time>2010-01-01T04:05:02Z</time>
      </trkpt>
      <trkpt lat="38.86063" lon="1.24936">
        <ele>138</ele>
        <time>2010-01-01T04:05:06Z</time>
      </trkpt>
      <trkpt lat="38.86054" lon="1.24941">
        <ele>140</ele>
        <time>2010-01-01T04:05:10Z</time>
      </trkpt>
      <trkpt lat="38.86045" lon="1.24946">
        <ele>142</ele>
        <time>2010-01-01T04:05:14Z</time>
      </trkpt>
      <trkpt lat="38.86036" lon="1.24955">
        <ele>143</ele>
        <time>2010-01-01T04:05:18Z</time>
      </trkpt>
      <trkpt lat="38.86029" lon="1.24962">
        <ele>144</ele>
        <time>2010-01-01T04:05:22Z</time>
      </trkpt>
      <trkpt lat="38.8602" lon="1.24967">
        <ele>145</ele>
        <time>2010-01-01T04:05:26Z</time>
      </trkpt>
      <trkpt lat="38.86011" lon="1.24972">
        <ele>145</ele>
        <time>2010-01-01T04:05:30Z</time>
      </trkpt>
      <trkpt lat="38.86002" lon="1.24974">
        <ele>146</ele>
        <time>2010-01-01T04:05:34Z</time>
      </trkpt>
      <trkpt lat="38.8599" lon="1.24975">
        <ele>145</ele>
        <time>2010-01-01T04:05:38Z</time>
      </trkpt>
      <trkpt lat="38.8598" lon="1.24974">
        <ele>144</ele>
        <time>2010-01-01T04:05:42Z</time>
      </trkpt>
      <trkpt lat="38.8597" lon="1.24975">
        <ele>143</ele>
        <time>2010-01-01T04:05:46Z</time>
      </trkpt>
      <trkpt lat="38.85961" lon="1.24975">
        <ele>143</ele>
        <time>2010-01-01T04:05:50Z</time>
      </trkpt>
      <trkpt lat="38.85951" lon="1.24974">
        <ele>142</ele>
        <time>2010-01-01T04:05:54Z</time>
      </trkpt>
      <trkpt lat="38.85942" lon="1.24968">
        <ele>142</ele>
        <time>2010-01-01T04:05:58Z</time>
      </trkpt>
      <trkpt lat="38.85933" lon="1.24958">
        <ele>142</ele>
        <time>2010-01-01T04:06:03Z</time>
      </trkpt>
      <trkpt lat="38.85926" lon="1.24951">
        <ele>143</ele>
        <time>2010-01-01T04:06:06Z</time>
      </trkpt>
      <trkpt lat="38.85915" lon="1.24947">
        <ele>144</ele>
        <time>2010-01-01T04:06:11Z</time>
      </trkpt>
      <trkpt lat="38.85906" lon="1.2495">
        <ele>143</ele>
        <time>2010-01-01T04:06:15Z</time>
      </trkpt>
      <trkpt lat="38.85897" lon="1.24956">
        <ele>142</ele>
        <time>2010-01-01T04:06:19Z</time>
      </trkpt>
      <trkpt lat="38.85889" lon="1.24963">
        <ele>141</ele>
        <time>2010-01-01T04:06:23Z</time>
      </trkpt>
      <trkpt lat="38.85879" lon="1.24968">
        <ele>141</ele>
        <time>2010-01-01T04:06:27Z</time>
      </trkpt>
      <trkpt lat="38.85869" lon="1.24971">
        <ele>141</ele>
        <time>2010-01-01T04:06:31Z</time>
      </trkpt>
      <trkpt lat="38.8586" lon="1.24973">
        <ele>142</ele>
        <time>2010-01-01T04:06:35Z</time>
      </trkpt>
      <trkpt lat="38.85849" lon="1.24976">
        <ele>145</ele>
        <time>2010-01-01T04:06:39Z</time>
      </trkpt>
      <trkpt lat="38.8584" lon="1.2498">
        <ele>145</ele>
        <time>2010-01-01T04:06:43Z</time>
      </trkpt>
      <trkpt lat="38.8583" lon="1.24982">
        <ele>145</ele>
        <time>2010-01-01T04:06:47Z</time>
      </trkpt>
      <trkpt lat="38.8582" lon="1.24983">
        <ele>145</ele>
        <time>2010-01-01T04:06:51Z</time>
      </trkpt>
      <trkpt lat="38.85811" lon="1.24981">
        <ele>146</ele>
        <time>2010-01-01T04:06:55Z</time>
      </trkpt>
      <trkpt lat="38.85805" lon="1.24973">
        <ele>149</ele>
        <time>2010-01-01T04:06:58Z</time>
      </trkpt>
      <trkpt lat="38.85803" lon="1.2496">
        <ele>145</ele>
        <time>2010-01-01T04:07:02Z</time>
      </trkpt>
      <trkpt lat="38.85801" lon="1.24947">
        <ele>143</ele>
        <time>2010-01-01T04:07:06Z</time>
      </trkpt>
      <trkpt lat="38.85799" lon="1.24935">
        <ele>142</ele>
        <time>2010-01-01T04:07:11Z</time>
      </trkpt>
      <trkpt lat="38.85799" lon="1.24923">
        <ele>143</ele>
        <time>2010-01-01T04:07:14Z</time>
      </trkpt>
      <trkpt lat="38.85798" lon="1.2491">
        <ele>143</ele>
        <time>2010-01-01T04:07:18Z</time>
      </trkpt>
      <trkpt lat="38.85798" lon="1.24898">
        <ele>144</ele>
        <time>2010-01-01T04:07:22Z</time>
      </trkpt>
      <trkpt lat="38.85804" lon="1.24887">
        <ele>145</ele>
        <time>2010-01-01T04:07:26Z</time>
      </trkpt>
      <trkpt lat="38.85811" lon="1.24877">
        <ele>145</ele>
        <time>2010-01-01T04:07:30Z</time>
      </trkpt>
      <trkpt lat="38.85815" lon="1.24867">
        <ele>146</ele>
        <time>2010-01-01T04:07:34Z</time>
      </trkpt>
      <trkpt lat="38.85821" lon="1.24858">
        <ele>148</ele>
        <time>2010-01-01T04:07:37Z</time>
      </trkpt>
      <trkpt lat="38.85828" lon="1.24848">
        <ele>149</ele>
        <time>2010-01-01T04:07:41Z</time>
      </trkpt>
      <trkpt lat="38.8583" lon="1.24834">
        <ele>149</ele>
        <time>2010-01-01T04:07:46Z</time>
      </trkpt>
      <trkpt lat="38.85832" lon="1.24821">
        <ele>149</ele>
        <time>2010-01-01T04:07:50Z</time>
      </trkpt>
      <trkpt lat="38.85832" lon="1.24807">
        <ele>148</ele>
        <time>2010-01-01T04:07:55Z</time>
      </trkpt>
      <trkpt lat="38.85837" lon="1.24795">
        <ele>151</ele>
        <time>2010-01-01T04:07:59Z</time>
      </trkpt>
      <trkpt lat="38.85845" lon="1.24786">
        <ele>153</ele>
        <time>2010-01-01T04:08:03Z</time>
      </trkpt>
      <trkpt lat="38.85854" lon="1.2478">
        <ele>154</ele>
        <time>2010-01-01T04:08:07Z</time>
      </trkpt>
      <trkpt lat="38.85863" lon="1.24776">
        <ele>153</ele>
        <time>2010-01-01T04:08:11Z</time>
      </trkpt>
      <trkpt lat="38.85872" lon="1.24771">
        <ele>153</ele>
        <time>2010-01-01T04:08:15Z</time>
      </trkpt>
      <trkpt lat="38.85881" lon="1.24768">
        <ele>154</ele>
        <time>2010-01-01T04:08:18Z</time>
      </trkpt>
      <trkpt lat="38.85891" lon="1.24765">
        <ele>155</ele>
        <time>2010-01-01T04:08:23Z</time>
      </trkpt>
      <trkpt lat="38.85901" lon="1.24762">
        <ele>155</ele>
        <time>2010-01-01T04:08:27Z</time>
      </trkpt>
      <trkpt lat="38.85912" lon="1.2476">
        <ele>156</ele>
        <time>2010-01-01T04:08:31Z</time>
      </trkpt>
      <trkpt lat="38.85922" lon="1.24759">
        <ele>155</ele>
        <time>2010-01-01T04:08:35Z</time>
      </trkpt>
      <trkpt lat="38.85932" lon="1.2476">
        <ele>155</ele>
        <time>2010-01-01T04:08:39Z</time>
      </trkpt>
      <trkpt lat="38.85942" lon="1.24759">
        <ele>154</ele>
        <time>2010-01-01T04:08:43Z</time>
      </trkpt>
      <trkpt lat="38.85952" lon="1.2476">
        <ele>155</ele>
        <time>2010-01-01T04:08:47Z</time>
      </trkpt>
      <trkpt lat="38.85961" lon="1.24759">
        <ele>157</ele>
        <time>2010-01-01T04:08:51Z</time>
      </trkpt>
      <trkpt lat="38.8597" lon="1.24757">
        <ele>158</ele>
        <time>2010-01-01T04:08:54Z</time>
      </trkpt>
      <trkpt lat="38.85979" lon="1.24753">
        <ele>160</ele>
        <time>2010-01-01T04:08:58Z</time>
      </trkpt>
      <trkpt lat="38.85988" lon="1.24752">
        <ele>163</ele>
        <time>2010-01-01T04:09:02Z</time>
      </trkpt>
      <trkpt lat="38.85998" lon="1.24756">
        <ele>167</ele>
        <time>2010-01-01T04:09:06Z</time>
      </trkpt>
      <trkpt lat="38.86007" lon="1.24753">
        <ele>167</ele>
        <time>2010-01-01T04:09:10Z</time>
      </trkpt>
      <trkpt lat="38.86017" lon="1.2475">
        <ele>166</ele>
        <time>2010-01-01T04:09:14Z</time>
      </trkpt>
      <trkpt lat="38.86027" lon="1.24745">
        <ele>166</ele>
        <time>2010-01-01T04:09:18Z</time>
      </trkpt>
      <trkpt lat="38.86037" lon="1.24743">
        <ele>167</ele>
        <time>2010-01-01T04:09:22Z</time>
      </trkpt>
      <trkpt lat="38.86045" lon="1.24737">
        <ele>167</ele>
        <time>2010-01-01T04:09:26Z</time>
      </trkpt>
      <trkpt lat="38.86055" lon="1.24736">
        <ele>168</ele>
        <time>2010-01-01T04:09:30Z</time>
      </trkpt>
      <trkpt lat="38.86066" lon="1.24736">
        <ele>168</ele>
        <time>2010-01-01T04:09:34Z</time>
      </trkpt>
      <trkpt lat="38.86076" lon="1.24731">
        <ele>167</ele>
        <time>2010-01-01T04:09:38Z</time>
      </trkpt>
      <trkpt lat="38.86086" lon="1.24728">
        <ele>166</ele>
        <time>2010-01-01T04:09:43Z</time>
      </trkpt>
      <trkpt lat="38.86094" lon="1.2472">
        <ele>165</ele>
        <time>2010-01-01T04:09:47Z</time>
      </trkpt>
      <trkpt lat="38.86099" lon="1.24709">
        <ele>164</ele>
        <time>2010-01-01T04:09:51Z</time>
      </trkpt>
      <trkpt lat="38.86104" lon="1.24698">
        <ele>164</ele>
        <time>2010-01-01T04:09:54Z</time>
      </trkpt>
      <trkpt lat="38.86108" lon="1.24688">
        <ele>164</ele>
        <time>2010-01-01T04:09:58Z</time>
      </trkpt>
      <trkpt lat="38.86111" lon="1.24677">
        <ele>164</ele>
        <time>2010-01-01T04:10:02Z</time>
      </trkpt>
      <trkpt lat="38.86114" lon="1.24665">
        <ele>164</ele>
        <time>2010-01-01T04:10:06Z</time>
      </trkpt>
      <trkpt lat="38.8612" lon="1.24655">
        <ele>166</ele>
        <time>2010-01-01T04:10:09Z</time>
      </trkpt>
      <trkpt lat="38.86129" lon="1.24649">
        <ele>168</ele>
        <time>2010-01-01T04:10:13Z</time>
      </trkpt>
      <trkpt lat="38.86138" lon="1.24642">
        <ele>170</ele>
        <time>2010-01-01T04:10:18Z</time>
      </trkpt>
      <trkpt lat="38.86146" lon="1.24636">
        <ele>171</ele>
        <time>2010-01-01T04:10:21Z</time>
      </trkpt>
      <trkpt lat="38.86152" lon="1.24627">
        <ele>171</ele>
        <time>2010-01-01T04:10:25Z</time>
      </trkpt>
      <trkpt lat="38.8616" lon="1.2462">
        <ele>173</ele>
        <time>2010-01-01T04:10:29Z</time>
      </trkpt>
      <trkpt lat="38.86169" lon="1.24614">
        <ele>176</ele>
        <time>2010-01-01T04:10:33Z</time>
      </trkpt>
      <trkpt lat="38.86177" lon="1.24607">
        <ele>175</ele>
        <time>2010-01-01T04:10:37Z</time>
      </trkpt>
      <trkpt lat="38.86185" lon="1.24601">
        <ele>175</ele>
        <time>2010-01-01T04:10:41Z</time>
      </trkpt>
      <trkpt lat="38.86194" lon="1.24597">
        <ele>176</ele>
        <time>2010-01-01T04:10:45Z</time>
      </trkpt>
      <trkpt lat="38.86205" lon="1.246">
        <ele>178</ele>
        <time>2010-01-01T04:10:49Z</time>
      </trkpt>
      <trkpt lat="38.86214" lon="1.24605">
        <ele>180</ele>
        <time>2010-01-01T04:10:53Z</time>
      </trkpt>
      <trkpt lat="38.86222" lon="1.24613">
        <ele>180</ele>
        <time>2010-01-01T04:10:57Z</time>
      </trkpt>
      <trkpt lat="38.86222" lon="1.24625">
        <ele>179</ele>
        <time>2010-01-01T04:11:01Z</time>
      </trkpt>
      <trkpt lat="38.86221" lon="1.24638">
        <ele>178</ele>
        <time>2010-01-01T04:11:05Z</time>
      </trkpt>
      <trkpt lat="38.8622" lon="1.2465">
        <ele>176</ele>
        <time>2010-01-01T04:11:09Z</time>
      </trkpt>
      <trkpt lat="38.86217" lon="1.24662">
        <ele>174</ele>
        <time>2010-01-01T04:11:13Z</time>
      </trkpt>
      <trkpt lat="38.86217" lon="1.24675">
        <ele>172</ele>
        <time>2010-01-01T04:11:17Z</time>
      </trkpt>
      <trkpt lat="38.86222" lon="1.24688">
        <ele>170</ele>
        <time>2010-01-01T04:11:21Z</time>
      </trkpt>
      <trkpt lat="38.8623" lon="1.24696">
        <ele>169</ele>
        <time>2010-01-01T04:11:25Z</time>
      </trkpt>
      <trkpt lat="38.86239" lon="1.24705">
        <ele>168</ele>
        <time>2010-01-01T04:11:30Z</time>
      </trkpt>
      <trkpt lat="38.86249" lon="1.24711">
        <ele>167</ele>
        <time>2010-01-01T04:11:34Z</time>
      </trkpt>
      <trkpt lat="38.86259" lon="1.24714">
        <ele>166</ele>
        <time>2010-01-01T04:11:38Z</time>
      </trkpt>
      <trkpt lat="38.86268" lon="1.24713">
        <ele>166</ele>
        <time>2010-01-01T04:11:42Z</time>
      </trkpt>
      <trkpt lat="38.86277" lon="1.24715">
        <ele>166</ele>
        <time>2010-01-01T04:11:46Z</time>
      </trkpt>
      <trkpt lat="38.86285" lon="1.24721">
        <ele>165</ele>
        <time>2010-01-01T04:11:49Z</time>
      </trkpt>
      <trkpt lat="38.86297" lon="1.24721">
        <ele>165</ele>
        <time>2010-01-01T04:11:54Z</time>
      </trkpt>
      <trkpt lat="38.86306" lon="1.24725">
        <ele>165</ele>
        <time>2010-01-01T04:11:58Z</time>
      </trkpt>
      <trkpt lat="38.86316" lon="1.24726">
        <ele>168</ele>
        <time>2010-01-01T04:12:02Z</time>
      </trkpt>
      <trkpt lat="38.86325" lon="1.24723">
        <ele>170</ele>
        <time>2010-01-01T04:12:06Z</time>
      </trkpt>
      <trkpt lat="38.86335" lon="1.24719">
        <ele>173</ele>
        <time>2010-01-01T04:12:10Z</time>
      </trkpt>
      <trkpt lat="38.86343" lon="1.24712">
        <ele>175</ele>
        <time>2010-01-01T04:12:13Z</time>
      </trkpt>
      <trkpt lat="38.8635" lon="1.24704">
        <ele>178</ele>
        <time>2010-01-01T04:12:17Z</time>
      </trkpt>
      <trkpt lat="38.86357" lon="1.24696">
        <ele>179</ele>
        <time>2010-01-01T04:12:21Z</time>
      </trkpt>
      <trkpt lat="38.86363" lon="1.24686">
        <ele>180</ele>
        <time>2010-01-01T04:12:25Z</time>
      </trkpt>
      <trkpt lat="38.86371" lon="1.24679">
        <ele>181</ele>
        <time>2010-01-01T04:12:29Z</time>
      </trkpt>
      <trkpt lat="38.86378" lon="1.2467">
        <ele>182</ele>
        <time>2010-01-01T04:12:33Z</time>
      </trkpt>
      <trkpt lat="38.86384" lon="1.24661">
        <ele>182</ele>
        <time>2010-01-01T04:12:37Z</time>
      </trkpt>
      <trkpt lat="38.8639" lon="1.2465">
        <ele>182</ele>
        <time>2010-01-01T04:12:41Z</time>
      </trkpt>
      <trkpt lat="38.86395" lon="1.24641">
        <ele>183</ele>
        <time>2010-01-01T04:12:44Z</time>
      </trkpt>
      <trkpt lat="38.86403" lon="1.24634">
        <ele>184</ele>
        <time>2010-01-01T04:12:48Z</time>
      </trkpt>
      <trkpt lat="38.86411" lon="1.24637">
        <ele>187</ele>
        <time>2010-01-01T04:12:52Z</time>
      </trkpt>
      <trkpt lat="38.8642" lon="1.24639">
        <ele>189</ele>
        <time>2010-01-01T04:12:55Z</time>
      </trkpt>
      <trkpt lat="38.8643" lon="1.24641">
        <ele>192</ele>
        <time>2010-01-01T04:12:59Z</time>
      </trkpt>
      <trkpt lat="38.86439" lon="1.24638">
        <ele>194</ele>
        <time>2010-01-01T04:13:03Z</time>
      </trkpt>
      <trkpt lat="38.86448" lon="1.24636">
        <ele>196</ele>
        <time>2010-01-01T04:13:07Z</time>
      </trkpt>
      <trkpt lat="38.86457" lon="1.24631">
        <ele>197</ele>
        <time>2010-01-01T04:13:11Z</time>
      </trkpt>
      <trkpt lat="38.86465" lon="1.24626">
        <ele>199</ele>
        <time>2010-01-01T04:13:14Z</time>
      </trkpt>
      <trkpt lat="38.86474" lon="1.24624">
        <ele>201</ele>
        <time>2010-01-01T04:13:18Z</time>
      </trkpt>
      <trkpt lat="38.86484" lon="1.24623">
        <ele>203</ele>
        <time>2010-01-01T04:13:22Z</time>
      </trkpt>
      <trkpt lat="38.86493" lon="1.24627">
        <ele>206</ele>
        <time>2010-01-01T04:13:25Z</time>
      </trkpt>
      <trkpt lat="38.86496" lon="1.24638">
        <ele>209</ele>
        <time>2010-01-01T04:13:29Z</time>
      </trkpt>
      <trkpt lat="38.86495" lon="1.24649">
        <ele>209</ele>
        <time>2010-01-01T04:13:33Z</time>
      </trkpt>
      <trkpt lat="38.8649" lon="1.2466">
        <ele>209</ele>
        <time>2010-01-01T04:13:37Z</time>
      </trkpt>
      <trkpt lat="38.8649" lon="1.24672">
        <ele>210</ele>
        <time>2010-01-01T04:13:41Z</time>
      </trkpt>
      <trkpt lat="38.86494" lon="1.24683">
        <ele>212</ele>
        <time>2010-01-01T04:13:44Z</time>
      </trkpt>
      <trkpt lat="38.86501" lon="1.2469">
        <ele>214</ele>
        <time>2010-01-01T04:13:48Z</time>
      </trkpt>
      <trkpt lat="38.8651" lon="1.24691">
        <ele>218</ele>
        <time>2010-01-01T04:13:52Z</time>
      </trkpt>
      <trkpt lat="38.8652" lon="1.2469">
        <ele>220</ele>
        <time>2010-01-01T04:13:55Z</time>
      </trkpt>
      <trkpt lat="38.86529" lon="1.24686">
        <ele>222</ele>
        <time>2010-01-01T04:13:59Z</time>
      </trkpt>
      <trkpt lat="38.86537" lon="1.24682">
        <ele>223</ele>
        <time>2010-01-01T04:14:03Z</time>
      </trkpt>
      <trkpt lat="38.86546" lon="1.24679">
        <ele>223</ele>
        <time>2010-01-01T04:14:07Z</time>
      </trkpt>
      <trkpt lat="38.86553" lon="1.24686">
        <ele>225</ele>
        <time>2010-01-01T04:14:10Z</time>
      </trkpt>
      <trkpt lat="38.86555" lon="1.24697">
        <ele>228</ele>
        <time>2010-01-01T04:14:14Z</time>
      </trkpt>
      <trkpt lat="38.8656" lon="1.24707">
        <ele>232</ele>
        <time>2010-01-01T04:14:18Z</time>
      </trkpt>
      <trkpt lat="38.86567" lon="1.24716">
        <ele>236</ele>
        <time>2010-01-01T04:14:21Z</time>
      </trkpt>
      <trkpt lat="38.86576" lon="1.24718">
        <ele>240</ele>
        <time>2010-01-01T04:14:25Z</time>
      </trkpt>
      <trkpt lat="38.86582" lon="1.24726">
        <ele>244</ele>
        <time>2010-01-01T04:14:29Z</time>
      </trkpt>
      <trkpt lat="38.86588" lon="1.24735">
        <ele>247</ele>
        <time>2010-01-01T04:14:32Z</time>
      </trkpt>
      <trkpt lat="38.86594" lon="1.24747">
        <ele>250</ele>
        <time>2010-01-01T04:14:36Z</time>
      </trkpt>
      <trkpt lat="38.86592" lon="1.2476">
        <ele>250</ele>
        <time>2010-01-01T04:14:41Z</time>
      </trkpt>
      <trkpt lat="38.86591" lon="1.24771">
        <ele>250</ele>
        <time>2010-01-01T04:14:44Z</time>
      </trkpt>
      <trkpt lat="38.86591" lon="1.24784">
        <ele>250</ele>
        <time>2010-01-01T04:14:48Z</time>
      </trkpt>
      <trkpt lat="38.8659" lon="1.24797">
        <ele>250</ele>
        <time>2010-01-01T04:14:52Z</time>
      </trkpt>
      <trkpt lat="38.86587" lon="1.24808">
        <ele>249</ele>
        <time>2010-01-01T04:14:56Z</time>
      </trkpt>
      <trkpt lat="38.86587" lon="1.24822">
        <ele>251</ele>
        <time>2010-01-01T04:15:00Z</time>
      </trkpt>
      <trkpt lat="38.86583" lon="1.24835">
        <ele>251</ele>
        <time>2010-01-01T04:15:04Z</time>
      </trkpt>
      <trkpt lat="38.86581" lon="1.24847">
        <ele>251</ele>
        <time>2010-01-01T04:15:08Z</time>
      </trkpt>
      <trkpt lat="38.86584" lon="1.24859">
        <ele>252</ele>
        <time>2010-01-01T04:15:12Z</time>
      </trkpt>
      <trkpt lat="38.86592" lon="1.24853">
        <ele>256</ele>
        <time>2010-01-01T04:15:16Z</time>
      </trkpt>
      <trkpt lat="38.86597" lon="1.24843">
        <ele>257</ele>
        <time>2010-01-01T04:15:20Z</time>
      </trkpt>
      <trkpt lat="38.86605" lon="1.24834">
        <ele>261</ele>
        <time>2010-01-01T04:15:24Z</time>
      </trkpt>
      <trkpt lat="38.86611" lon="1.24825">
        <ele>263</ele>
        <time>2010-01-01T04:15:28Z</time>
      </trkpt>
      <trkpt lat="38.86615" lon="1.24815">
        <ele>263</ele>
        <time>2010-01-01T04:15:31Z</time>
      </trkpt>
      <trkpt lat="38.86619" lon="1.24803">
        <ele>263</ele>
        <time>2010-01-01T04:15:35Z</time>
      </trkpt>
      <trkpt lat="38.86624" lon="1.24793">
        <ele>264</ele>
        <time>2010-01-01T04:15:39Z</time>
      </trkpt>
      <trkpt lat="38.8663" lon="1.24784">
        <ele>265</ele>
        <time>2010-01-01T04:15:43Z</time>
      </trkpt>
      <trkpt lat="38.86635" lon="1.24774">
        <ele>267</ele>
        <time>2010-01-01T04:15:46Z</time>
      </trkpt>
      <trkpt lat="38.86641" lon="1.24765">
        <ele>269</ele>
        <time>2010-01-01T04:15:50Z</time>
      </trkpt>
      <trkpt lat="38.86644" lon="1.24752">
        <ele>269</ele>
        <time>2010-01-01T04:15:54Z</time>
      </trkpt>
      <trkpt lat="38.86651" lon="1.24744">
        <ele>270</ele>
        <time>2010-01-01T04:15:58Z</time>
      </trkpt>
      <trkpt lat="38.86656" lon="1.24732">
        <ele>271</ele>
        <time>2010-01-01T04:16:02Z</time>
      </trkpt>
      <trkpt lat="38.86661" lon="1.24722">
        <ele>272</ele>
        <time>2010-01-01T04:16:06Z</time>
      </trkpt>
      <trkpt lat="38.86666" lon="1.24732">
        <ele>275</ele>
        <time>2010-01-01T04:16:10Z</time>
      </trkpt>
      <trkpt lat="38.86665" lon="1.24745">
        <ele>276</ele>
        <time>2010-01-01T04:16:14Z</time>
      </trkpt>
      <trkpt lat="38.86666" lon="1.24756">
        <ele>278</ele>
        <time>2010-01-01T04:16:17Z</time>
      </trkpt>
      <trkpt lat="38.86667" lon="1.24769">
        <ele>280</ele>
        <time>2010-01-01T04:16:21Z</time>
      </trkpt>
      <trkpt lat="38.86668" lon="1.24781">
        <ele>281</ele>
        <time>2010-01-01T04:16:25Z</time>
      </trkpt>
      <trkpt lat="38.86678" lon="1.24777">
        <ele>286</ele>
        <time>2010-01-01T04:16:29Z</time>
      </trkpt>
      <trkpt lat="38.86683" lon="1.24767">
        <ele>286</ele>
        <time>2010-01-01T04:16:32Z</time>
      </trkpt>
      <trkpt lat="38.8669" lon="1.24761">
        <ele>288</ele>
        <time>2010-01-01T04:16:36Z</time>
      </trkpt>
      <trkpt lat="38.86697" lon="1.24753">
        <ele>288</ele>
        <time>2010-01-01T04:16:40Z</time>
      </trkpt>
      <trkpt lat="38.86707" lon="1.2475">
        <ele>290</ele>
        <time>2010-01-01T04:16:44Z</time>
      </trkpt>
      <trkpt lat="38.86715" lon="1.24741">
        <ele>291</ele>
        <time>2010-01-01T04:16:48Z</time>
      </trkpt>
      <trkpt lat="38.86723" lon="1.24734">
        <ele>292</ele>
        <time>2010-01-01T04:16:52Z</time>
      </trkpt>
      <trkpt lat="38.86732" lon="1.24729">
        <ele>293</ele>
        <time>2010-01-01T04:16:56Z</time>
      </trkpt>
      <trkpt lat="38.8674" lon="1.24722">
        <ele>294</ele>
        <time>2010-01-01T04:17:00Z</time>
      </trkpt>
      <trkpt lat="38.86748" lon="1.24717">
        <ele>296</ele>
        <time>2010-01-01T04:17:03Z</time>
      </trkpt>
      <trkpt lat="38.86758" lon="1.24718">
        <ele>297</ele>
        <time>2010-01-01T04:17:07Z</time>
      </trkpt>
      <trkpt lat="38.86764" lon="1.2473">
        <ele>296</ele>
        <time>2010-01-01T04:17:12Z</time>
      </trkpt>
      <trkpt lat="38.86771" lon="1.24737">
        <ele>295</ele>
        <time>2010-01-01T04:17:15Z</time>
      </trkpt>
      <trkpt lat="38.8678" lon="1.24729">
        <ele>295</ele>
        <time>2010-01-01T04:17:20Z</time>
      </trkpt>
      <trkpt lat="38.86789" lon="1.24721">
        <ele>296</ele>
        <time>2010-01-01T04:17:24Z</time>
      </trkpt>
      <trkpt lat="38.86797" lon="1.2471">
        <ele>298</ele>
        <time>2010-01-01T04:17:29Z</time>
      </trkpt>
      <trkpt lat="38.86806" lon="1.24701">
        <ele>299</ele>
        <time>2010-01-01T04:17:33Z</time>
      </trkpt>
      <trkpt lat="38.86813" lon="1.24693">
        <ele>300</ele>
        <time>2010-01-01T04:17:37Z</time>
      </trkpt>
      <trkpt lat="38.8682" lon="1.24685">
        <ele>302</ele>
        <time>2010-01-01T04:17:41Z</time>
      </trkpt>
      <trkpt lat="38.86828" lon="1.24678">
        <ele>304</ele>
        <time>2010-01-01T04:17:45Z</time>
      </trkpt>
      <trkpt lat="38.86838" lon="1.24669">
        <ele>306</ele>
        <time>2010-01-01T04:17:49Z</time>
      </trkpt>
      <trkpt lat="38.86848" lon="1.24662">
        <ele>304</ele>
        <time>2010-01-01T04:17:54Z</time>
      </trkpt>
      <trkpt lat="38.86856" lon="1.24655">
        <ele>302</ele>
        <time>2010-01-01T04:17:58Z</time>
      </trkpt>
      <trkpt lat="38.86863" lon="1.24645">
        <ele>301</ele>
        <time>2010-01-01T04:18:02Z</time>
      </trkpt>
      <trkpt lat="38.86871" lon="1.24638">
        <ele>299</ele>
        <time>2010-01-01T04:18:06Z</time>
      </trkpt>
      <trkpt lat="38.86879" lon="1.24632">
        <ele>297</ele>
        <time>2010-01-01T04:18:10Z</time>
      </trkpt>
      <trkpt lat="38.86887" lon="1.24624">
        <ele>295</ele>
        <time>2010-01-01T04:18:14Z</time>
      </trkpt>
      <trkpt lat="38.86895" lon="1.24617">
        <ele>294</ele>
        <time>2010-01-01T04:18:18Z</time>
      </trkpt>
      <trkpt lat="38.86901" lon="1.24608">
        <ele>293</ele>
        <time>2010-01-01T04:18:22Z</time>
      </trkpt>
      <trkpt lat="38.8691" lon="1.24601">
        <ele>292</ele>
        <time>2010-01-01T04:18:26Z</time>
      </trkpt>
      <trkpt lat="38.8692" lon="1.24593">
        <ele>290</ele>
        <time>2010-01-01T04:18:30Z</time>
      </trkpt>
      <trkpt lat="38.86928" lon="1.24586">
        <ele>289</ele>
        <time>2010-01-01T04:18:34Z</time>
      </trkpt>
      <trkpt lat="38.86937" lon="1.24577">
        <ele>288</ele>
        <time>2010-01-01T04:18:39Z</time>
      </trkpt>
      <trkpt lat="38.86945" lon="1.24571">
        <ele>288</ele>
        <time>2010-01-01T04:18:43Z</time>
      </trkpt>
      <trkpt lat="38.86956" lon="1.24567">
        <ele>289</ele>
        <time>2010-01-01T04:18:47Z</time>
      </trkpt>
      <trkpt lat="38.86967" lon="1.24564">
        <ele>289</ele>
        <time>2010-01-01T04:18:52Z</time>
      </trkpt>
      <trkpt lat="38.86977" lon="1.24558">
        <ele>290</ele>
        <time>2010-01-01T04:18:56Z</time>
      </trkpt>
      <trkpt lat="38.86985" lon="1.24552">
        <ele>291</ele>
        <time>2010-01-01T04:19:00Z</time>
      </trkpt>
      <trkpt lat="38.86994" lon="1.24549">
        <ele>292</ele>
        <time>2010-01-01T04:19:04Z</time>
      </trkpt>
      <trkpt lat="38.86997" lon="1.24537">
        <ele>294</ele>
        <time>2010-01-01T04:19:07Z</time>
      </trkpt>
      <trkpt lat="38.87003" lon="1.24527">
        <ele>296</ele>
        <time>2010-01-01T04:19:11Z</time>
      </trkpt>
      <trkpt lat="38.87008" lon="1.24516">
        <ele>298</ele>
        <time>2010-01-01T04:19:15Z</time>
      </trkpt>
      <trkpt lat="38.87011" lon="1.24503">
        <ele>300</ele>
        <time>2010-01-01T04:19:20Z</time>
      </trkpt>
      <trkpt lat="38.87009" lon="1.24491">
        <ele>299</ele>
        <time>2010-01-01T04:19:23Z</time>
      </trkpt>
      <trkpt lat="38.87003" lon="1.24483">
        <ele>298</ele>
        <time>2010-01-01T04:19:27Z</time>
      </trkpt>
      <trkpt lat="38.87004" lon="1.24471">
        <ele>298</ele>
        <time>2010-01-01T04:19:31Z</time>
      </trkpt>
      <trkpt lat="38.87008" lon="1.2446">
        <ele>298</ele>
        <time>2010-01-01T04:19:35Z</time>
      </trkpt>
      <trkpt lat="38.87012" lon="1.24448">
        <ele>298</ele>
        <time>2010-01-01T04:19:39Z</time>
      </trkpt>
      <trkpt lat="38.87018" lon="1.24438">
        <ele>298</ele>
        <time>2010-01-01T04:19:43Z</time>
      </trkpt>
      <trkpt lat="38.87025" lon="1.24429">
        <ele>299</ele>
        <time>2010-01-01T04:19:46Z</time>
      </trkpt>
      <trkpt lat="38.87034" lon="1.24429">
        <ele>301</ele>
        <time>2010-01-01T04:19:50Z</time>
      </trkpt>
      <trkpt lat="38.87041" lon="1.24421">
        <ele>304</ele>
        <time>2010-01-01T04:19:54Z</time>
      </trkpt>
      <trkpt lat="38.87047" lon="1.24412">
        <ele>306</ele>
        <time>2010-01-01T04:19:57Z</time>
      </trkpt>
      <trkpt lat="38.87051" lon="1.24402">
        <ele>307</ele>
        <time>2010-01-01T04:20:01Z</time>
      </trkpt>
      <trkpt lat="38.87053" lon="1.24389">
        <ele>308</ele>
        <time>2010-01-01T04:20:05Z</time>
      </trkpt>
      <trkpt lat="38.87061" lon="1.24381">
        <ele>311</ele>
        <time>2010-01-01T04:20:09Z</time>
      </trkpt>
      <trkpt lat="38.87068" lon="1.24374">
        <ele>314</ele>
        <time>2010-01-01T04:20:13Z</time>
      </trkpt>
      <trkpt lat="38.87078" lon="1.24369">
        <ele>317</ele>
        <time>2010-01-01T04:20:17Z</time>
      </trkpt>
      <trkpt lat="38.87083" lon="1.24359">
        <ele>320</ele>
        <time>2010-01-01T04:20:21Z</time>
      </trkpt>
      <trkpt lat="38.87092" lon="1.24352">
        <ele>323</ele>
        <time>2010-01-01T04:20:25Z</time>
      </trkpt>
      <trkpt lat="38.871" lon="1.24345">
        <ele>325</ele>
        <time>2010-01-01T04:20:29Z</time>
      </trkpt>
      <trkpt lat="38.87094" lon="1.24335">
        <ele>325</ele>
        <time>2010-01-01T04:20:33Z</time>
      </trkpt>
      <trkpt lat="38.87091" lon="1.24323">
        <ele>325</ele>
        <time>2010-01-01T04:20:37Z</time>
      </trkpt>
      <trkpt lat="38.87089" lon="1.24312">
        <ele>325</ele>
        <time>2010-01-01T04:20:40Z</time>
      </trkpt>
      <trkpt lat="38.87088" lon="1.243">
        <ele>326</ele>
        <time>2010-01-01T04:20:44Z</time>
      </trkpt>
      <trkpt lat="38.87089" lon="1.24288">
        <ele>327</ele>
        <time>2010-01-01T04:20:48Z</time>
      </trkpt>
      <trkpt lat="38.87088" lon="1.24277">
        <ele>327</ele>
        <time>2010-01-01T04:20:51Z</time>
      </trkpt>
      <trkpt lat="38.87081" lon="1.24266">
        <ele>326</ele>
        <time>2010-01-01T04:20:56Z</time>
      </trkpt>
      <trkpt lat="38.87084" lon="1.24254">
        <ele>327</ele>
        <time>2010-01-01T04:21:00Z</time>
      </trkpt>
      <trkpt lat="38.87091" lon="1.24247">
        <ele>329</ele>
        <time>2010-01-01T04:21:03Z</time>
      </trkpt>
      <trkpt lat="38.87096" lon="1.24236">
        <ele>330</ele>
        <time>2010-01-01T04:21:07Z</time>
      </trkpt>
      <trkpt lat="38.871" lon="1.24225">
        <ele>332</ele>
        <time>2010-01-01T04:21:11Z</time>
      </trkpt>
      <trkpt lat="38.87105" lon="1.24215">
        <ele>332</ele>
        <time>2010-01-01T04:21:14Z</time>
      </trkpt>
      <trkpt lat="38.87108" lon="1.24203">
        <ele>333</ele>
        <time>2010-01-01T04:21:19Z</time>
      </trkpt>
      <trkpt lat="38.87116" lon="1.24193">
        <ele>335</ele>
        <time>2010-01-01T04:21:23Z</time>
      </trkpt>
      <trkpt lat="38.87119" lon="1.24182">
        <ele>334</ele>
        <time>2010-01-01T04:21:27Z</time>
      </trkpt>
      <trkpt lat="38.87117" lon="1.2417">
        <ele>331</ele>
        <time>2010-01-01T04:21:30Z</time>
      </trkpt>
      <trkpt lat="38.8712" lon="1.24159">
        <ele>328</ele>
        <time>2010-01-01T04:21:34Z</time>
      </trkpt>
      <trkpt lat="38.87126" lon="1.2415">
        <ele>329</ele>
        <time>2010-01-01T04:21:38Z</time>
      </trkpt>
      <trkpt lat="38.87134" lon="1.24142">
        <ele>333</ele>
        <time>2010-01-01T04:21:42Z</time>
      </trkpt>
      <trkpt lat="38.8714" lon="1.24133">
        <ele>334</ele>
        <time>2010-01-01T04:21:46Z</time>
      </trkpt>
      <trkpt lat="38.87148" lon="1.24128">
        <ele>335</ele>
        <time>2010-01-01T04:21:49Z</time>
      </trkpt>
      <trkpt lat="38.87157" lon="1.24127">
        <ele>339</ele>
        <time>2010-01-01T04:21:53Z</time>
      </trkpt>
      <trkpt lat="38.87167" lon="1.24126">
        <ele>342</ele>
        <time>2010-01-01T04:21:57Z</time>
      </trkpt>
      <trkpt lat="38.87175" lon="1.2412">
        <ele>344</ele>
        <time>2010-01-01T04:22:00Z</time>
      </trkpt>
      <trkpt lat="38.87185" lon="1.24123">
        <ele>350</ele>
        <time>2010-01-01T04:22:04Z</time>
      </trkpt>
      <trkpt lat="38.87193" lon="1.24119">
        <ele>353</ele>
        <time>2010-01-01T04:22:08Z</time>
      </trkpt>
      <trkpt lat="38.87203" lon="1.24121">
        <ele>359</ele>
        <time>2010-01-01T04:22:12Z</time>
      </trkpt>
      <trkpt lat="38.87212" lon="1.24125">
        <ele>364</ele>
        <time>2010-01-01T04:22:16Z</time>
      </trkpt>
      <trkpt lat="38.87218" lon="1.24135">
        <ele>368</ele>
        <time>2010-01-01T04:22:20Z</time>
      </trkpt>
      <trkpt lat="38.87227" lon="1.24134">
        <ele>372</ele>
        <time>2010-01-01T04:22:23Z</time>
      </trkpt>
      <trkpt lat="38.87237" lon="1.24133">
        <ele>375</ele>
        <time>2010-01-01T04:22:27Z</time>
      </trkpt>
      <trkpt lat="38.87246" lon="1.24135">
        <ele>378</ele>
        <time>2010-01-01T04:22:31Z</time>
      </trkpt>
      <trkpt lat="38.87256" lon="1.24136">
        <ele>381</ele>
        <time>2010-01-01T04:22:35Z</time>
      </trkpt>
      <trkpt lat="38.87265" lon="1.24132">
        <ele>382</ele>
        <time>2010-01-01T04:22:39Z</time>
      </trkpt>
      <trkpt lat="38.87274" lon="1.24134">
        <ele>385</ele>
        <time>2010-01-01T04:22:43Z</time>
      </trkpt>
      <trkpt lat="38.87284" lon="1.24133">
        <ele>388</ele>
        <time>2010-01-01T04:22:46Z</time>
      </trkpt>
      <trkpt lat="38.87295" lon="1.24133">
        <ele>392</ele>
        <time>2010-01-01T04:22:51Z</time>
      </trkpt>
      <trkpt lat="38.87304" lon="1.24132">
        <ele>395</ele>
        <time>2010-01-01T04:22:54Z</time>
      </trkpt>
      <trkpt lat="38.87313" lon="1.24133">
        <ele>398</ele>
        <time>2010-01-01T04:22:58Z</time>
      </trkpt>
      <trkpt lat="38.87321" lon="1.2414">
        <ele>400</ele>
        <time>2010-01-01T04:23:02Z</time>
      </trkpt>
      <trkpt lat="38.87329" lon="1.24147">
        <ele>402</ele>
        <time>2010-01-01T04:23:06Z</time>
      </trkpt>
      <trkpt lat="38.87338" lon="1.24145">
        <ele>403</ele>
        <time>2010-01-01T04:23:10Z</time>
      </trkpt>
      <trkpt lat="38.87347" lon="1.24148">
        <ele>404</ele>
        <time>2010-01-01T04:23:13Z</time>
      </trkpt>
      <trkpt lat="38.87355" lon="1.24141">
        <ele>405</ele>
        <time>2010-01-01T04:23:17Z</time>
      </trkpt>
      <trkpt lat="38.87361" lon="1.24132">
        <ele>405</ele>
        <time>2010-01-01T04:23:21Z</time>
      </trkpt>
      <trkpt lat="38.87372" lon="1.24126">
        <ele>405</ele>
        <time>2010-01-01T04:23:25Z</time>
      </trkpt>
      <trkpt lat="38.87378" lon="1.24118">
        <ele>404</ele>
        <time>2010-01-01T04:23:29Z</time>
      </trkpt>
      <trkpt lat="38.87384" lon="1.24108">
        <ele>403</ele>
        <time>2010-01-01T04:23:33Z</time>
      </trkpt>
      <trkpt lat="38.87391" lon="1.24098">
        <ele>398</ele>
        <time>2010-01-01T04:23:37Z</time>
      </trkpt>
      <trkpt lat="38.87392" lon="1.24086">
        <ele>393</ele>
        <time>2010-01-01T04:23:41Z</time>
      </trkpt>
      <trkpt lat="38.87393" lon="1.24074">
        <ele>386</ele>
        <time>2010-01-01T04:23:45Z</time>
      </trkpt>
      <trkpt lat="38.87395" lon="1.24062">
        <ele>379</ele>
        <time>2010-01-01T04:23:48Z</time>
      </trkpt>
      <trkpt lat="38.87403" lon="1.24057">
        <ele>378</ele>
        <time>2010-01-01T04:23:52Z</time>
      </trkpt>
      <trkpt lat="38.87412" lon="1.24053">
        <ele>380</ele>
        <time>2010-01-01T04:23:56Z</time>
      </trkpt>
      <trkpt lat="38.87422" lon="1.24051">
        <ele>381</ele>
        <time>2010-01-01T04:24:00Z</time>
      </trkpt>
      <trkpt lat="38.8743" lon="1.24047">
        <ele>380</ele>
        <time>2010-01-01T04:24:03Z</time>
      </trkpt>
      <trkpt lat="38.87439" lon="1.24049">
        <ele>381</ele>
        <time>2010-01-01T04:24:07Z</time>
      </trkpt>
      <trkpt lat="38.87448" lon="1.24047">
        <ele>379</ele>
        <time>2010-01-01T04:24:11Z</time>
      </trkpt>
      <trkpt lat="38.87457" lon="1.24051">
        <ele>377</ele>
        <time>2010-01-01T04:24:14Z</time>
      </trkpt>
      <trkpt lat="38.87467" lon="1.2405">
        <ele>373</ele>
        <time>2010-01-01T04:24:18Z</time>
      </trkpt>
      <trkpt lat="38.87476" lon="1.2405">
        <ele>369</ele>
        <time>2010-01-01T04:24:22Z</time>
      </trkpt>
      <trkpt lat="38.8748" lon="1.24039">
        <ele>362</ele>
        <time>2010-01-01T04:24:26Z</time>
      </trkpt>
      <trkpt lat="38.8748" lon="1.24027">
        <ele>357</ele>
        <time>2010-01-01T04:24:29Z</time>
      </trkpt>
      <trkpt lat="38.8749" lon="1.24021">
        <ele>349</ele>
        <time>2010-01-01T04:24:34Z</time>
      </trkpt>
      <trkpt lat="38.87499" lon="1.24022">
        <ele>345</ele>
        <time>2010-01-01T04:24:37Z</time>
      </trkpt>
      <trkpt lat="38.87505" lon="1.24014">
        <ele>340</ele>
        <time>2010-01-01T04:24:41Z</time>
      </trkpt>
      <trkpt lat="38.87512" lon="1.24004">
        <ele>335</ele>
        <time>2010-01-01T04:24:45Z</time>
      </trkpt>
      <trkpt lat="38.87516" lon="1.23992">
        <ele>330</ele>
        <time>2010-01-01T04:24:49Z</time>
      </trkpt>
      <trkpt lat="38.87525" lon="1.23986">
        <ele>326</ele>
        <time>2010-01-01T04:24:53Z</time>
      </trkpt>
      <trkpt lat="38.87528" lon="1.23975">
        <ele>323</ele>
        <time>2010-01-01T04:24:57Z</time>
      </trkpt>
      <trkpt lat="38.87532" lon="1.23964">
        <ele>319</ele>
        <time>2010-01-01T04:25:01Z</time>
      </trkpt>
      <trkpt lat="38.87537" lon="1.23953">
        <ele>316</ele>
        <time>2010-01-01T04:25:05Z</time>
      </trkpt>
      <trkpt lat="38.8754" lon="1.2394">
        <ele>313</ele>
        <time>2010-01-01T04:25:09Z</time>
      </trkpt>
      <trkpt lat="38.87543" lon="1.23927">
        <ele>312</ele>
        <time>2010-01-01T04:25:13Z</time>
      </trkpt>
      <trkpt lat="38.87546" lon="1.23915">
        <ele>311</ele>
        <time>2010-01-01T04:25:17Z</time>
      </trkpt>
      <trkpt lat="38.87551" lon="1.23906">
        <ele>309</ele>
        <time>2010-01-01T04:25:21Z</time>
      </trkpt>
      <trkpt lat="38.87557" lon="1.23894">
        <ele>308</ele>
        <time>2010-01-01T04:25:25Z</time>
      </trkpt>
      <trkpt lat="38.87566" lon="1.2389">
        <ele>306</ele>
        <time>2010-01-01T04:25:29Z</time>
      </trkpt>
      <trkpt lat="38.87575" lon="1.23885">
        <ele>304</ele>
        <time>2010-01-01T04:25:33Z</time>
      </trkpt>
      <trkpt lat="38.87583" lon="1.23891">
        <ele>302</ele>
        <time>2010-01-01T04:25:36Z</time>
      </trkpt>
      <trkpt lat="38.87593" lon="1.23889">
        <ele>297</ele>
        <time>2010-01-01T04:25:40Z</time>
      </trkpt>
      <trkpt lat="38.87603" lon="1.23891">
        <ele>292</ele>
        <time>2010-01-01T04:25:44Z</time>
      </trkpt>
      <trkpt lat="38.87613" lon="1.23894">
        <ele>286</ele>
        <time>2010-01-01T04:25:49Z</time>
      </trkpt>
      <trkpt lat="38.8762" lon="1.23903">
        <ele>283</ele>
        <time>2010-01-01T04:25:52Z</time>
      </trkpt>
      <trkpt lat="38.8763" lon="1.23907">
        <ele>278</ele>
        <time>2010-01-01T04:25:57Z</time>
      </trkpt>
      <trkpt lat="38.8764" lon="1.23903">
        <ele>275</ele>
        <time>2010-01-01T04:26:01Z</time>
      </trkpt>
      <trkpt lat="38.87649" lon="1.23909">
        <ele>270</ele>
        <time>2010-01-01T04:26:05Z</time>
      </trkpt>
      <trkpt lat="38.87658" lon="1.23915">
        <ele>265</ele>
        <time>2010-01-01T04:26:09Z</time>
      </trkpt>
      <trkpt lat="38.87667" lon="1.23913">
        <ele>260</ele>
        <time>2010-01-01T04:26:12Z</time>
      </trkpt>
      <trkpt lat="38.87676" lon="1.23908">
        <ele>255</ele>
        <time>2010-01-01T04:26:16Z</time>
      </trkpt>
      <trkpt lat="38.87684" lon="1.2391">
        <ele>250</ele>
        <time>2010-01-01T04:26:20Z</time>
      </trkpt>
      <trkpt lat="38.87693" lon="1.23916">
        <ele>245</ele>
        <time>2010-01-01T04:26:24Z</time>
      </trkpt>
      <trkpt lat="38.87699" lon="1.23925">
        <ele>243</ele>
        <time>2010-01-01T04:26:27Z</time>
      </trkpt>
      <trkpt lat="38.87705" lon="1.23934">
        <ele>240</ele>
        <time>2010-01-01T04:26:31Z</time>
      </trkpt>
      <trkpt lat="38.87713" lon="1.23929">
        <ele>236</ele>
        <time>2010-01-01T04:26:35Z</time>
      </trkpt>
      <trkpt lat="38.87724" lon="1.23925">
        <ele>231</ele>
        <time>2010-01-01T04:26:40Z</time>
      </trkpt>
      <trkpt lat="38.87733" lon="1.23932">
        <ele>228</ele>
        <time>2010-01-01T04:26:44Z</time>
      </trkpt>
      <trkpt lat="38.87737" lon="1.23944">
        <ele>227</ele>
        <time>2010-01-01T04:26:48Z</time>
      </trkpt>
      <trkpt lat="38.8774" lon="1.23956">
        <ele>227</ele>
        <time>2010-01-01T04:26:52Z</time>
      </trkpt>
      <trkpt lat="38.87744" lon="1.23969">
        <ele>226</ele>
        <time>2010-01-01T04:26:56Z</time>
      </trkpt>
      <trkpt lat="38.87747" lon="1.23981">
        <ele>226</ele>
        <time>2010-01-01T04:27:00Z</time>
      </trkpt>
      <trkpt lat="38.8775" lon="1.23993">
        <ele>225</ele>
        <time>2010-01-01T04:27:04Z</time>
      </trkpt>
      <trkpt lat="38.87756" lon="1.24002">
        <ele>225</ele>
        <time>2010-01-01T04:27:08Z</time>
      </trkpt>
      <trkpt lat="38.87765" lon="1.24">
        <ele>223</ele>
        <time>2010-01-01T04:27:11Z</time>
      </trkpt>
      <trkpt lat="38.87771" lon="1.23988">
        <ele>222</ele>
        <time>2010-01-01T04:27:15Z</time>
      </trkpt>
      <trkpt lat="38.87776" lon="1.23979">
        <ele>220</ele>
        <time>2010-01-01T04:27:19Z</time>
      </trkpt>
      <trkpt lat="38.87785" lon="1.23974">
        <ele>218</ele>
        <time>2010-01-01T04:27:23Z</time>
      </trkpt>
      <trkpt lat="38.87795" lon="1.23968">
        <ele>216</ele>
        <time>2010-01-01T04:27:27Z</time>
      </trkpt>
      <trkpt lat="38.87803" lon="1.23964">
        <ele>214</ele>
        <time>2010-01-01T04:27:31Z</time>
      </trkpt>
      <trkpt lat="38.8781" lon="1.23956">
        <ele>213</ele>
        <time>2010-01-01T04:27:35Z</time>
      </trkpt>
      <trkpt lat="38.8782" lon="1.23961">
        <ele>211</ele>
        <time>2010-01-01T04:27:39Z</time>
      </trkpt>
      <trkpt lat="38.87828" lon="1.23956">
        <ele>210</ele>
        <time>2010-01-01T04:27:43Z</time>
      </trkpt>
      <trkpt lat="38.87837" lon="1.2395">
        <ele>207</ele>
        <time>2010-01-01T04:27:47Z</time>
      </trkpt>
      <trkpt lat="38.87847" lon="1.23948">
        <ele>204</ele>
        <time>2010-01-01T04:27:51Z</time>
      </trkpt>
      <trkpt lat="38.87855" lon="1.23942">
        <ele>201</ele>
        <time>2010-01-01T04:27:54Z</time>
      </trkpt>
      <trkpt lat="38.87865" lon="1.23938">
        <ele>197</ele>
        <time>2010-01-01T04:27:59Z</time>
      </trkpt>
      <trkpt lat="38.87877" lon="1.23935">
        <ele>194</ele>
        <time>2010-01-01T04:28:03Z</time>
      </trkpt>
      <trkpt lat="38.87887" lon="1.23941">
        <ele>192</ele>
        <time>2010-01-01T04:28:08Z</time>
      </trkpt>
      <trkpt lat="38.87892" lon="1.23952">
        <ele>191</ele>
        <time>2010-01-01T04:28:12Z</time>
      </trkpt>
      <trkpt lat="38.87897" lon="1.23963">
        <ele>191</ele>
        <time>2010-01-01T04:28:16Z</time>
      </trkpt>
      <trkpt lat="38.87902" lon="1.23976">
        <ele>190</ele>
        <time>2010-01-01T04:28:20Z</time>
      </trkpt>
      <trkpt lat="38.87906" lon="1.23987">
        <ele>189</ele>
        <time>2010-01-01T04:28:24Z</time>
      </trkpt>
      <trkpt lat="38.87911" lon="1.23998">
        <ele>188</ele>
        <time>2010-01-01T04:28:28Z</time>
      </trkpt>
      <trkpt lat="38.87914" lon="1.24013">
        <ele>188</ele>
        <time>2010-01-01T04:28:33Z</time>
      </trkpt>
      <trkpt lat="38.87919" lon="1.24025">
        <ele>187</ele>
        <time>2010-01-01T04:28:37Z</time>
      </trkpt>
      <trkpt lat="38.87922" lon="1.24037">
        <ele>187</ele>
        <time>2010-01-01T04:28:41Z</time>
      </trkpt>
      <trkpt lat="38.87924" lon="1.24048">
        <ele>187</ele>
        <time>2010-01-01T04:28:45Z</time>
      </trkpt>
      <trkpt lat="38.87926" lon="1.24061">
        <ele>187</ele>
        <time>2010-01-01T04:28:49Z</time>
      </trkpt>
      <trkpt lat="38.87923" lon="1.24074">
        <ele>189</ele>
        <time>2010-01-01T04:28:53Z</time>
      </trkpt>
      <trkpt lat="38.87922" lon="1.24088">
        <ele>191</ele>
        <time>2010-01-01T04:28:57Z</time>
      </trkpt>
      <trkpt lat="38.87923" lon="1.241">
        <ele>192</ele>
        <time>2010-01-01T04:29:01Z</time>
      </trkpt>
      <trkpt lat="38.87922" lon="1.24114">
        <ele>193</ele>
        <time>2010-01-01T04:29:05Z</time>
      </trkpt>
      <trkpt lat="38.87925" lon="1.24125">
        <ele>194</ele>
        <time>2010-01-01T04:29:09Z</time>
      </trkpt>
      <trkpt lat="38.87924" lon="1.24138">
        <ele>196</ele>
        <time>2010-01-01T04:29:13Z</time>
      </trkpt>
      <trkpt lat="38.87926" lon="1.24151">
        <ele>197</ele>
        <time>2010-01-01T04:29:17Z</time>
      </trkpt>
      <trkpt lat="38.87928" lon="1.24163">
        <ele>198</ele>
        <time>2010-01-01T04:29:21Z</time>
      </trkpt>
      <trkpt lat="38.87926" lon="1.24176">
        <ele>200</ele>
        <time>2010-01-01T04:29:25Z</time>
      </trkpt>
      <trkpt lat="38.87927" lon="1.24191">
        <ele>202</ele>
        <time>2010-01-01T04:29:30Z</time>
      </trkpt>
      <trkpt lat="38.87927" lon="1.24203">
        <ele>202</ele>
        <time>2010-01-01T04:29:33Z</time>
      </trkpt>
      <trkpt lat="38.87929" lon="1.24215">
        <ele>203</ele>
        <time>2010-01-01T04:29:37Z</time>
      </trkpt>
      <trkpt lat="38.87933" lon="1.24228">
        <ele>203</ele>
        <time>2010-01-01T04:29:42Z</time>
      </trkpt>
      <trkpt lat="38.87934" lon="1.24239">
        <ele>202</ele>
        <time>2010-01-01T04:29:45Z</time>
      </trkpt>
      <trkpt lat="38.87933" lon="1.24252">
        <ele>203</ele>
        <time>2010-01-01T04:29:49Z</time>
      </trkpt>
      <trkpt lat="38.87932" lon="1.24264">
        <ele>203</ele>
        <time>2010-01-01T04:29:53Z</time>
      </trkpt>
      <trkpt lat="38.87933" lon="1.24279">
        <ele>204</ele>
        <time>2010-01-01T04:29:58Z</time>
      </trkpt>
      <trkpt lat="38.87938" lon="1.24292">
        <ele>203</ele>
        <time>2010-01-01T04:30:02Z</time>
      </trkpt>
      <trkpt lat="38.87942" lon="1.24305">
        <ele>202</ele>
        <time>2010-01-01T04:30:07Z</time>
      </trkpt>
      <trkpt lat="38.87948" lon="1.24318">
        <ele>202</ele>
        <time>2010-01-01T04:30:11Z</time>
      </trkpt>
      <trkpt lat="38.87952" lon="1.2433">
        <ele>203</ele>
        <time>2010-01-01T04:30:15Z</time>
      </trkpt>
      <trkpt lat="38.87955" lon="1.24342">
        <ele>203</ele>
        <time>2010-01-01T04:30:19Z</time>
      </trkpt>
      <trkpt lat="38.87959" lon="1.24352">
        <ele>204</ele>
        <time>2010-01-01T04:30:23Z</time>
      </trkpt>
      <trkpt lat="38.87966" lon="1.24363">
        <ele>204</ele>
        <time>2010-01-01T04:30:27Z</time>
      </trkpt>
      <trkpt lat="38.87972" lon="1.24373">
        <ele>204</ele>
        <time>2010-01-01T04:30:31Z</time>
      </trkpt>
      <trkpt lat="38.87976" lon="1.24385">
        <ele>205</ele>
        <time>2010-01-01T04:30:35Z</time>
      </trkpt>
      <trkpt lat="38.8798" lon="1.24397">
        <ele>206</ele>
        <time>2010-01-01T04:30:39Z</time>
      </trkpt>
      <trkpt lat="38.87987" lon="1.24406">
        <ele>206</ele>
        <time>2010-01-01T04:30:43Z</time>
      </trkpt>
      <trkpt lat="38.87996" lon="1.244">
        <ele>205</ele>
        <time>2010-01-01T04:30:47Z</time>
      </trkpt>
      <trkpt lat="38.88006" lon="1.24397">
        <ele>204</ele>
        <time>2010-01-01T04:30:51Z</time>
      </trkpt>
      <trkpt lat="38.88015" lon="1.24393">
        <ele>203</ele>
        <time>2010-01-01T04:30:55Z</time>
      </trkpt>
      <trkpt lat="38.88024" lon="1.2439">
        <ele>202</ele>
        <time>2010-01-01T04:30:59Z</time>
      </trkpt>
      <trkpt lat="38.88033" lon="1.24384">
        <ele>200</ele>
        <time>2010-01-01T04:31:03Z</time>
      </trkpt>
      <trkpt lat="38.88042" lon="1.24389">
        <ele>200</ele>
        <time>2010-01-01T04:31:07Z</time>
      </trkpt>
      <trkpt lat="38.88051" lon="1.24393">
        <ele>200</ele>
        <time>2010-01-01T04:31:10Z</time>
      </trkpt>
      <trkpt lat="38.88058" lon="1.244">
        <ele>200</ele>
        <time>2010-01-01T04:31:14Z</time>
      </trkpt>
      <trkpt lat="38.88064" lon="1.24411">
        <ele>200</ele>
        <time>2010-01-01T04:31:18Z</time>
      </trkpt>
      <trkpt lat="38.88066" lon="1.24423">
        <ele>201</ele>
        <time>2010-01-01T04:31:22Z</time>
      </trkpt>
      <trkpt lat="38.88076" lon="1.24425">
        <ele>200</ele>
        <time>2010-01-01T04:31:26Z</time>
      </trkpt>
      <trkpt lat="38.88076" lon="1.24438">
        <ele>201</ele>
        <time>2010-01-01T04:31:30Z</time>
      </trkpt>
      <trkpt lat="38.88079" lon="1.24424">
        <ele>200</ele>
        <time>2010-01-01T04:31:34Z</time>
      </trkpt>
      <trkpt lat="38.88081" lon="1.2441">
        <ele>199</ele>
        <time>2010-01-01T04:31:39Z</time>
      </trkpt>
      <trkpt lat="38.88082" lon="1.24397">
        <ele>199</ele>
        <time>2010-01-01T04:31:43Z</time>
      </trkpt>
      <trkpt lat="38.88091" lon="1.24393">
        <ele>200</ele>
        <time>2010-01-01T04:31:46Z</time>
      </trkpt>
      <trkpt lat="38.881" lon="1.24395">
        <ele>201</ele>
        <time>2010-01-01T04:31:50Z</time>
      </trkpt>
      <trkpt lat="38.88105" lon="1.24406">
        <ele>202</ele>
        <time>2010-01-01T04:31:54Z</time>
      </trkpt>
      <trkpt lat="38.88113" lon="1.24412">
        <ele>203</ele>
        <time>2010-01-01T04:31:58Z</time>
      </trkpt>
      <trkpt lat="38.88119" lon="1.24422">
        <ele>204</ele>
        <time>2010-01-01T04:32:02Z</time>
      </trkpt>
      <trkpt lat="38.88121" lon="1.24434">
        <ele>204</ele>
        <time>2010-01-01T04:32:06Z</time>
      </trkpt>
      <trkpt lat="38.8813" lon="1.24432">
        <ele>206</ele>
        <time>2010-01-01T04:32:09Z</time>
      </trkpt>
      <trkpt lat="38.8814" lon="1.24428">
        <ele>208</ele>
        <time>2010-01-01T04:32:14Z</time>
      </trkpt>
      <trkpt lat="38.88149" lon="1.24431">
        <ele>210</ele>
        <time>2010-01-01T04:32:17Z</time>
      </trkpt>
      <trkpt lat="38.88158" lon="1.24435">
        <ele>211</ele>
        <time>2010-01-01T04:32:21Z</time>
      </trkpt>
      <trkpt lat="38.88167" lon="1.24438">
        <ele>212</ele>
        <time>2010-01-01T04:32:25Z</time>
      </trkpt>
      <trkpt lat="38.88175" lon="1.24445">
        <ele>212</ele>
        <time>2010-01-01T04:32:29Z</time>
      </trkpt>
      <trkpt lat="38.8818" lon="1.24458">
        <ele>212</ele>
        <time>2010-01-01T04:32:33Z</time>
      </trkpt>
      <trkpt lat="38.88181" lon="1.2447">
        <ele>211</ele>
        <time>2010-01-01T04:32:37Z</time>
      </trkpt>
      <trkpt lat="38.88185" lon="1.24482">
        <ele>211</ele>
        <time>2010-01-01T04:32:41Z</time>
      </trkpt>
      <trkpt lat="38.88189" lon="1.24496">
        <ele>211</ele>
        <time>2010-01-01T04:32:46Z</time>
      </trkpt>
      <trkpt lat="38.88192" lon="1.24509">
        <ele>211</ele>
        <time>2010-01-01T04:32:50Z</time>
      </trkpt>
      <trkpt lat="38.88194" lon="1.2452">
        <ele>211</ele>
        <time>2010-01-01T04:32:53Z</time>
      </trkpt>
      <trkpt lat="38.88195" lon="1.24532">
        <ele>211</ele>
        <time>2010-01-01T04:32:57Z</time>
      </trkpt>
      <trkpt lat="38.88196" lon="1.24546">
        <ele>211</ele>
        <time>2010-01-01T04:33:01Z</time>
      </trkpt>
      <trkpt lat="38.88198" lon="1.24557">
        <ele>212</ele>
        <time>2010-01-01T04:33:05Z</time>
      </trkpt>
      <trkpt lat="38.88197" lon="1.2457">
        <ele>213</ele>
        <time>2010-01-01T04:33:09Z</time>
      </trkpt>
      <trkpt lat="38.88193" lon="1.24581">
        <ele>212</ele>
        <time>2010-01-01T04:33:13Z</time>
      </trkpt>
      <trkpt lat="38.88188" lon="1.24593">
        <ele>213</ele>
        <time>2010-01-01T04:33:17Z</time>
      </trkpt>
      <trkpt lat="38.88184" lon="1.24604">
        <ele>213</ele>
        <time>2010-01-01T04:33:21Z</time>
      </trkpt>
      <trkpt lat="38.8818" lon="1.24616">
        <ele>212</ele>
        <time>2010-01-01T04:33:25Z</time>
      </trkpt>
      <trkpt lat="38.88178" lon="1.24628">
        <ele>212</ele>
        <time>2010-01-01T04:33:29Z</time>
      </trkpt>
      <trkpt lat="38.88174" lon="1.2464">
        <ele>212</ele>
        <time>2010-01-01T04:33:33Z</time>
      </trkpt>
      <trkpt lat="38.8817" lon="1.24653">
        <ele>211</ele>
        <time>2010-01-01T04:33:37Z</time>
      </trkpt>
      <trkpt lat="38.88168" lon="1.24666">
        <ele>211</ele>
        <time>2010-01-01T04:33:41Z</time>
      </trkpt>
      <trkpt lat="38.88164" lon="1.24677">
        <ele>211</ele>
        <time>2010-01-01T04:33:45Z</time>
      </trkpt>
      <trkpt lat="38.8816" lon="1.24689">
        <ele>211</ele>
        <time>2010-01-01T04:33:49Z</time>
      </trkpt>
      <trkpt lat="38.88155" lon="1.24702">
        <ele>212</ele>
        <time>2010-01-01T04:33:54Z</time>
      </trkpt>
      <trkpt lat="38.88151" lon="1.24713">
        <ele>212</ele>
        <time>2010-01-01T04:33:58Z</time>
      </trkpt>
      <trkpt lat="38.88146" lon="1.24725">
        <ele>212</ele>
        <time>2010-01-01T04:34:02Z</time>
      </trkpt>
      <trkpt lat="38.88141" lon="1.24737">
        <ele>212</ele>
        <time>2010-01-01T04:34:06Z</time>
      </trkpt>
      <trkpt lat="38.88134" lon="1.24747">
        <ele>212</ele>
        <time>2010-01-01T04:34:10Z</time>
      </trkpt>
      <trkpt lat="38.88128" lon="1.24757">
        <ele>212</ele>
        <time>2010-01-01T04:34:14Z</time>
      </trkpt>
      <trkpt lat="38.88133" lon="1.24768">
        <ele>212</ele>
        <time>2010-01-01T04:34:18Z</time>
      </trkpt>
      <trkpt lat="38.88138" lon="1.24778">
        <ele>213</ele>
        <time>2010-01-01T04:34:22Z</time>
      </trkpt>
      <trkpt lat="38.88146" lon="1.24786">
        <ele>214</ele>
        <time>2010-01-01T04:34:26Z</time>
      </trkpt>
      <trkpt lat="38.88155" lon="1.24793">
        <ele>215</ele>
        <time>2010-01-01T04:34:30Z</time>
      </trkpt>
      <trkpt lat="38.88162" lon="1.24799">
        <ele>215</ele>
        <time>2010-01-01T04:34:33Z</time>
      </trkpt>
      <trkpt lat="38.88169" lon="1.24807">
        <ele>216</ele>
        <time>2010-01-01T04:34:37Z</time>
      </trkpt>
      <trkpt lat="38.88178" lon="1.24816">
        <ele>217</ele>
        <time>2010-01-01T04:34:41Z</time>
      </trkpt>
      <trkpt lat="38.88185" lon="1.24823">
        <ele>218</ele>
        <time>2010-01-01T04:34:45Z</time>
      </trkpt>
      <trkpt lat="38.88193" lon="1.2483">
        <ele>219</ele>
        <time>2010-01-01T04:34:49Z</time>
      </trkpt>
      <trkpt lat="38.88201" lon="1.24838">
        <ele>221</ele>
        <time>2010-01-01T04:34:53Z</time>
      </trkpt>
      <trkpt lat="38.88207" lon="1.24846">
        <ele>223</ele>
        <time>2010-01-01T04:34:57Z</time>
      </trkpt>
      <trkpt lat="38.88215" lon="1.24852">
        <ele>225</ele>
        <time>2010-01-01T04:35:00Z</time>
      </trkpt>
      <trkpt lat="38.88222" lon="1.2486">
        <ele>226</ele>
        <time>2010-01-01T04:35:04Z</time>
      </trkpt>
      <trkpt lat="38.88227" lon="1.24871">
        <ele>228</ele>
        <time>2010-01-01T04:35:08Z</time>
      </trkpt>
      <trkpt lat="38.88234" lon="1.2488">
        <ele>229</ele>
        <time>2010-01-01T04:35:12Z</time>
      </trkpt>
      <trkpt lat="38.88243" lon="1.24881">
        <ele>231</ele>
        <time>2010-01-01T04:35:16Z</time>
      </trkpt>
      <trkpt lat="38.8825" lon="1.24873">
        <ele>232</ele>
        <time>2010-01-01T04:35:19Z</time>
      </trkpt>
      <trkpt lat="38.88256" lon="1.24861">
        <ele>232</ele>
        <time>2010-01-01T04:35:24Z</time>
      </trkpt>
      <trkpt lat="38.8826" lon="1.24848">
        <ele>233</ele>
        <time>2010-01-01T04:35:28Z</time>
      </trkpt>
      <trkpt lat="38.88263" lon="1.24835">
        <ele>232</ele>
        <time>2010-01-01T04:35:32Z</time>
      </trkpt>
      <trkpt lat="38.88268" lon="1.24825">
        <ele>233</ele>
        <time>2010-01-01T04:35:36Z</time>
      </trkpt>
      <trkpt lat="38.88273" lon="1.24815">
        <ele>234</ele>
        <time>2010-01-01T04:35:40Z</time>
      </trkpt>
      <trkpt lat="38.88276" lon="1.24803">
        <ele>234</ele>
        <time>2010-01-01T04:35:44Z</time>
      </trkpt>
      <trkpt lat="38.88278" lon="1.2479">
        <ele>234</ele>
        <time>2010-01-01T04:35:48Z</time>
      </trkpt>
      <trkpt lat="38.88283" lon="1.2478">
        <ele>235</ele>
        <time>2010-01-01T04:35:52Z</time>
      </trkpt>
      <trkpt lat="38.88289" lon="1.2477">
        <ele>236</ele>
        <time>2010-01-01T04:35:55Z</time>
      </trkpt>
      <trkpt lat="38.88291" lon="1.24757">
        <ele>237</ele>
        <time>2010-01-01T04:36:00Z</time>
      </trkpt>
      <trkpt lat="38.88296" lon="1.24745">
        <ele>239</ele>
        <time>2010-01-01T04:36:04Z</time>
      </trkpt>
      <trkpt lat="38.88297" lon="1.24732">
        <ele>240</ele>
        <time>2010-01-01T04:36:08Z</time>
      </trkpt>
      <trkpt lat="38.88304" lon="1.24722">
        <ele>243</ele>
        <time>2010-01-01T04:36:12Z</time>
      </trkpt>
      <trkpt lat="38.88311" lon="1.24712">
        <ele>245</ele>
        <time>2010-01-01T04:36:16Z</time>
      </trkpt>
      <trkpt lat="38.88316" lon="1.24703">
        <ele>246</ele>
        <time>2010-01-01T04:36:19Z</time>
      </trkpt>
      <trkpt lat="38.88323" lon="1.24693">
        <ele>248</ele>
        <time>2010-01-01T04:36:24Z</time>
      </trkpt>
      <trkpt lat="38.88329" lon="1.24683">
        <ele>249</ele>
        <time>2010-01-01T04:36:27Z</time>
      </trkpt>
      <trkpt lat="38.88336" lon="1.24676">
        <ele>250</ele>
        <time>2010-01-01T04:36:31Z</time>
      </trkpt>
      <trkpt lat="38.88344" lon="1.24671">
        <ele>252</ele>
        <time>2010-01-01T04:36:35Z</time>
      </trkpt>
      <trkpt lat="38.88349" lon="1.24661">
        <ele>252</ele>
        <time>2010-01-01T04:36:38Z</time>
      </trkpt>
      <trkpt lat="38.88357" lon="1.24655">
        <ele>253</ele>
        <time>2010-01-01T04:36:42Z</time>
      </trkpt>
      <trkpt lat="38.88365" lon="1.24648">
        <ele>253</ele>
        <time>2010-01-01T04:36:46Z</time>
      </trkpt>
      <trkpt lat="38.88374" lon="1.24642">
        <ele>254</ele>
        <time>2010-01-01T04:36:50Z</time>
      </trkpt>
      <trkpt lat="38.88383" lon="1.24637">
        <ele>254</ele>
        <time>2010-01-01T04:36:54Z</time>
      </trkpt>
      <trkpt lat="38.88391" lon="1.24632">
        <ele>255</ele>
        <time>2010-01-01T04:36:57Z</time>
      </trkpt>
      <trkpt lat="38.88399" lon="1.24627">
        <ele>255</ele>
        <time>2010-01-01T04:37:01Z</time>
      </trkpt>
      <trkpt lat="38.88409" lon="1.24623">
        <ele>255</ele>
        <time>2010-01-01T04:37:05Z</time>
      </trkpt>
      <trkpt lat="38.88419" lon="1.24622">
        <ele>256</ele>
        <time>2010-01-01T04:37:09Z</time>
      </trkpt>
      <trkpt lat="38.88431" lon="1.24625">
        <ele>257</ele>
        <time>2010-01-01T04:37:14Z</time>
      </trkpt>
      <trkpt lat="38.88441" lon="1.24626">
        <ele>257</ele>
        <time>2010-01-01T04:37:18Z</time>
      </trkpt>
      <trkpt lat="38.8845" lon="1.24625">
        <ele>257</ele>
        <time>2010-01-01T04:37:22Z</time>
      </trkpt>
      <trkpt lat="38.88461" lon="1.24628">
        <ele>257</ele>
        <time>2010-01-01T04:37:26Z</time>
      </trkpt>
      <trkpt lat="38.88472" lon="1.2463">
        <ele>258</ele>
        <time>2010-01-01T04:37:30Z</time>
      </trkpt>
      <trkpt lat="38.88482" lon="1.24633">
        <ele>258</ele>
        <time>2010-01-01T04:37:35Z</time>
      </trkpt>
      <trkpt lat="38.88492" lon="1.24634">
        <ele>256</ele>
        <time>2010-01-01T04:37:39Z</time>
      </trkpt>
      <trkpt lat="38.88501" lon="1.24637">
        <ele>256</ele>
        <time>2010-01-01T04:37:43Z</time>
      </trkpt>
      <trkpt lat="38.88509" lon="1.24645">
        <ele>258</ele>
        <time>2010-01-01T04:37:46Z</time>
      </trkpt>
      <trkpt lat="38.88517" lon="1.24653">
        <ele>260</ele>
        <time>2010-01-01T04:37:51Z</time>
      </trkpt>
      <trkpt lat="38.88524" lon="1.24662">
        <ele>263</ele>
        <time>2010-01-01T04:37:54Z</time>
      </trkpt>
      <trkpt lat="38.88534" lon="1.24668">
        <ele>264</ele>
        <time>2010-01-01T04:37:59Z</time>
      </trkpt>
      <trkpt lat="38.88542" lon="1.24675">
        <ele>264</ele>
        <time>2010-01-01T04:38:03Z</time>
      </trkpt>
      <trkpt lat="38.8855" lon="1.24681">
        <ele>265</ele>
        <time>2010-01-01T04:38:07Z</time>
      </trkpt>
      <trkpt lat="38.88557" lon="1.24688">
        <ele>266</ele>
        <time>2010-01-01T04:38:10Z</time>
      </trkpt>
      <trkpt lat="38.88565" lon="1.24695">
        <ele>267</ele>
        <time>2010-01-01T04:38:14Z</time>
      </trkpt>
      <trkpt lat="38.88572" lon="1.24703">
        <ele>268</ele>
        <time>2010-01-01T04:38:18Z</time>
      </trkpt>
      <trkpt lat="38.88581" lon="1.2471">
        <ele>268</ele>
        <time>2010-01-01T04:38:22Z</time>
      </trkpt>
      <trkpt lat="38.88588" lon="1.24719">
        <ele>269</ele>
        <time>2010-01-01T04:38:26Z</time>
      </trkpt>
      <trkpt lat="38.88597" lon="1.24727">
        <ele>267</ele>
        <time>2010-01-01T04:38:30Z</time>
      </trkpt>
      <trkpt lat="38.88604" lon="1.24736">
        <ele>266</ele>
        <time>2010-01-01T04:38:34Z</time>
      </trkpt>
      <trkpt lat="38.88615" lon="1.24738">
        <ele>263</ele>
        <time>2010-01-01T04:38:38Z</time>
      </trkpt>
      <trkpt lat="38.88622" lon="1.24745">
        <ele>262</ele>
        <time>2010-01-01T04:38:42Z</time>
      </trkpt>
      <trkpt lat="38.88629" lon="1.24755">
        <ele>263</ele>
        <time>2010-01-01T04:38:46Z</time>
      </trkpt>
      <trkpt lat="38.88637" lon="1.24763">
        <ele>262</ele>
        <time>2010-01-01T04:38:51Z</time>
      </trkpt>
      <trkpt lat="38.88643" lon="1.24772">
        <ele>262</ele>
        <time>2010-01-01T04:38:54Z</time>
      </trkpt>
      <trkpt lat="38.88652" lon="1.2478">
        <ele>262</ele>
        <time>2010-01-01T04:38:59Z</time>
      </trkpt>
      <trkpt lat="38.88661" lon="1.24782">
        <ele>260</ele>
        <time>2010-01-01T04:39:02Z</time>
      </trkpt>
      <trkpt lat="38.88669" lon="1.24791">
        <ele>260</ele>
        <time>2010-01-01T04:39:06Z</time>
      </trkpt>
      <trkpt lat="38.8868" lon="1.24803">
        <ele>260</ele>
        <time>2010-01-01T04:39:12Z</time>
      </trkpt>
      <trkpt lat="38.88688" lon="1.24808">
        <ele>259</ele>
        <time>2010-01-01T04:39:16Z</time>
      </trkpt>
      <trkpt lat="38.88696" lon="1.24818">
        <ele>260</ele>
        <time>2010-01-01T04:39:20Z</time>
      </trkpt>
      <trkpt lat="38.88704" lon="1.24828">
        <ele>261</ele>
        <time>2010-01-01T04:39:25Z</time>
      </trkpt>
      <trkpt lat="38.88713" lon="1.24835">
        <ele>260</ele>
        <time>2010-01-01T04:39:29Z</time>
      </trkpt>
      <trkpt lat="38.88724" lon="1.2484">
        <ele>258</ele>
        <time>2010-01-01T04:39:34Z</time>
      </trkpt>
      <trkpt lat="38.88733" lon="1.24848">
        <ele>260</ele>
        <time>2010-01-01T04:39:38Z</time>
      </trkpt>
      <trkpt lat="38.88739" lon="1.24857">
        <ele>262</ele>
        <time>2010-01-01T04:39:42Z</time>
      </trkpt>
      <trkpt lat="38.88746" lon="1.24867">
        <ele>265</ele>
        <time>2010-01-01T04:39:46Z</time>
      </trkpt>
      <trkpt lat="38.88753" lon="1.24875">
        <ele>266</ele>
        <time>2010-01-01T04:39:50Z</time>
      </trkpt>
      <trkpt lat="38.88762" lon="1.24877">
        <ele>266</ele>
        <time>2010-01-01T04:39:53Z</time>
      </trkpt>
      <trkpt lat="38.8877" lon="1.24885">
        <ele>268</ele>
        <time>2010-01-01T04:39:57Z</time>
      </trkpt>
      <trkpt lat="38.88779" lon="1.24892">
        <ele>269</ele>
        <time>2010-01-01T04:40:02Z</time>
      </trkpt>
      <trkpt lat="38.88789" lon="1.24897">
        <ele>269</ele>
        <time>2010-01-01T04:40:06Z</time>
      </trkpt>
      <trkpt lat="38.88798" lon="1.24897">
        <ele>267</ele>
        <time>2010-01-01T04:40:10Z</time>
      </trkpt>
      <trkpt lat="38.88806" lon="1.24904">
        <ele>268</ele>
        <time>2010-01-01T04:40:13Z</time>
      </trkpt>
      <trkpt lat="38.88815" lon="1.24913">
        <ele>269</ele>
        <time>2010-01-01T04:40:18Z</time>
      </trkpt>
      <trkpt lat="38.88824" lon="1.24917">
        <ele>269</ele>
        <time>2010-01-01T04:40:22Z</time>
      </trkpt>
      <trkpt lat="38.8883" lon="1.24926">
        <ele>269</ele>
        <time>2010-01-01T04:40:26Z</time>
      </trkpt>
      <trkpt lat="38.88836" lon="1.24935">
        <ele>269</ele>
        <time>2010-01-01T04:40:29Z</time>
      </trkpt>
      <trkpt lat="38.88843" lon="1.24946">
        <ele>269</ele>
        <time>2010-01-01T04:40:33Z</time>
      </trkpt>
      <trkpt lat="38.88848" lon="1.24957">
        <ele>270</ele>
        <time>2010-01-01T04:40:37Z</time>
      </trkpt>
      <trkpt lat="38.88854" lon="1.24968">
        <ele>271</ele>
        <time>2010-01-01T04:40:41Z</time>
      </trkpt>
      <trkpt lat="38.8886" lon="1.24978">
        <ele>271</ele>
        <time>2010-01-01T04:40:46Z</time>
      </trkpt>
      <trkpt lat="38.88866" lon="1.2499">
        <ele>271</ele>
        <time>2010-01-01T04:40:50Z</time>
      </trkpt>
      <trkpt lat="38.88873" lon="1.25002">
        <ele>271</ele>
        <time>2010-01-01T04:40:54Z</time>
      </trkpt>
      <trkpt lat="38.88879" lon="1.25011">
        <ele>270</ele>
        <time>2010-01-01T04:40:58Z</time>
      </trkpt>
      <trkpt lat="38.88884" lon="1.25022">
        <ele>270</ele>
        <time>2010-01-01T04:41:02Z</time>
      </trkpt>
      <trkpt lat="38.88889" lon="1.25036">
        <ele>271</ele>
        <time>2010-01-01T04:41:07Z</time>
      </trkpt>
      <trkpt lat="38.88898" lon="1.25045">
        <ele>270</ele>
        <time>2010-01-01T04:41:12Z</time>
      </trkpt>
      <trkpt lat="38.88906" lon="1.25053">
        <ele>269</ele>
        <time>2010-01-01T04:41:16Z</time>
      </trkpt>
      <trkpt lat="38.88913" lon="1.25061">
        <ele>269</ele>
        <time>2010-01-01T04:41:20Z</time>
      </trkpt>
      <trkpt lat="38.88921" lon="1.25069">
        <ele>269</ele>
        <time>2010-01-01T04:41:23Z</time>
      </trkpt>
      <trkpt lat="38.8892" lon="1.2508">
        <ele>271</ele>
        <time>2010-01-01T04:41:27Z</time>
      </trkpt>
      <trkpt lat="38.88926" lon="1.2509">
        <ele>272</ele>
        <time>2010-01-01T04:41:31Z</time>
      </trkpt>
      <trkpt lat="38.88931" lon="1.25101">
        <ele>273</ele>
        <time>2010-01-01T04:41:35Z</time>
      </trkpt>
      <trkpt lat="38.88937" lon="1.2511">
        <ele>273</ele>
        <time>2010-01-01T04:41:39Z</time>
      </trkpt>
      <trkpt lat="38.88945" lon="1.25121">
        <ele>273</ele>
        <time>2010-01-01T04:41:43Z</time>
      </trkpt>
      <trkpt lat="38.88951" lon="1.25131">
        <ele>273</ele>
        <time>2010-01-01T04:41:47Z</time>
      </trkpt>
      <trkpt lat="38.88955" lon="1.25145">
        <ele>273</ele>
        <time>2010-01-01T04:41:52Z</time>
      </trkpt>
      <trkpt lat="38.88959" lon="1.25157">
        <ele>273</ele>
        <time>2010-01-01T04:41:56Z</time>
      </trkpt>
      <trkpt lat="38.88963" lon="1.25168">
        <ele>272</ele>
        <time>2010-01-01T04:42:00Z</time>
      </trkpt>
      <trkpt lat="38.88966" lon="1.25179">
        <ele>273</ele>
        <time>2010-01-01T04:42:04Z</time>
      </trkpt>
      <trkpt lat="38.88967" lon="1.25193">
        <ele>275</ele>
        <time>2010-01-01T04:42:08Z</time>
      </trkpt>
      <trkpt lat="38.88973" lon="1.25203">
        <ele>274</ele>
        <time>2010-01-01T04:42:12Z</time>
      </trkpt>
      <trkpt lat="38.88974" lon="1.25218">
        <ele>276</ele>
        <time>2010-01-01T04:42:17Z</time>
      </trkpt>
      <trkpt lat="38.88977" lon="1.25229">
        <ele>277</ele>
        <time>2010-01-01T04:42:20Z</time>
      </trkpt>
      <trkpt lat="38.8898" lon="1.25242">
        <ele>278</ele>
        <time>2010-01-01T04:42:24Z</time>
      </trkpt>
      <trkpt lat="38.88983" lon="1.25253">
        <ele>280</ele>
        <time>2010-01-01T04:42:28Z</time>
      </trkpt>
      <trkpt lat="38.88981" lon="1.25265">
        <ele>284</ele>
        <time>2010-01-01T04:42:32Z</time>
      </trkpt>
      <trkpt lat="38.88991" lon="1.25271">
        <ele>282</ele>
        <time>2010-01-01T04:42:36Z</time>
      </trkpt>
      <trkpt lat="38.89" lon="1.25279">
        <ele>281</ele>
        <time>2010-01-01T04:42:40Z</time>
      </trkpt>
      <trkpt lat="38.89009" lon="1.2528">
        <ele>279</ele>
        <time>2010-01-01T04:42:44Z</time>
      </trkpt>
      <trkpt lat="38.89015" lon="1.25289">
        <ele>284</ele>
        <time>2010-01-01T04:42:48Z</time>
      </trkpt>
      <trkpt lat="38.89025" lon="1.25293">
        <ele>284</ele>
        <time>2010-01-01T04:42:52Z</time>
      </trkpt>
      <trkpt lat="38.89035" lon="1.25294">
        <ele>281</ele>
        <time>2010-01-01T04:42:56Z</time>
      </trkpt>
      <trkpt lat="38.89044" lon="1.25296">
        <ele>279</ele>
        <time>2010-01-01T04:43:00Z</time>
      </trkpt>
      <trkpt lat="38.89048" lon="1.25307">
        <ele>283</ele>
        <time>2010-01-01T04:43:03Z</time>
      </trkpt>
      <trkpt lat="38.89056" lon="1.25313">
        <ele>283</ele>
        <time>2010-01-01T04:43:07Z</time>
      </trkpt>
      <trkpt lat="38.89064" lon="1.25321">
        <ele>285</ele>
        <time>2010-01-01T04:43:11Z</time>
      </trkpt>
      <trkpt lat="38.89072" lon="1.25327">
        <ele>284</ele>
        <time>2010-01-01T04:43:15Z</time>
      </trkpt>
      <trkpt lat="38.8908" lon="1.25334">
        <ele>284</ele>
        <time>2010-01-01T04:43:19Z</time>
      </trkpt>
      <trkpt lat="38.89087" lon="1.25344">
        <ele>287</ele>
        <time>2010-01-01T04:43:23Z</time>
      </trkpt>
      <trkpt lat="38.8909" lon="1.25354">
        <ele>291</ele>
        <time>2010-01-01T04:43:26Z</time>
      </trkpt>
      <trkpt lat="38.89098" lon="1.25362">
        <ele>292</ele>
        <time>2010-01-01T04:43:30Z</time>
      </trkpt>
      <trkpt lat="38.89104" lon="1.25372">
        <ele>295</ele>
        <time>2010-01-01T04:43:34Z</time>
      </trkpt>
      <trkpt lat="38.89113" lon="1.25378">
        <ele>295</ele>
        <time>2010-01-01T04:43:38Z</time>
      </trkpt>
      <trkpt lat="38.89123" lon="1.25375">
        <ele>293</ele>
        <time>2010-01-01T04:43:42Z</time>
      </trkpt>
      <trkpt lat="38.89129" lon="1.25384">
        <ele>297</ele>
        <time>2010-01-01T04:43:46Z</time>
      </trkpt>
      <trkpt lat="38.89137" lon="1.25393">
        <ele>300</ele>
        <time>2010-01-01T04:43:50Z</time>
      </trkpt>
      <trkpt lat="38.89146" lon="1.25389">
        <ele>298</ele>
        <time>2010-01-01T04:43:54Z</time>
      </trkpt>
      <trkpt lat="38.89153" lon="1.25395">
        <ele>301</ele>
        <time>2010-01-01T04:43:58Z</time>
      </trkpt>
      <trkpt lat="38.8916" lon="1.25404">
        <ele>304</ele>
        <time>2010-01-01T04:44:01Z</time>
      </trkpt>
      <trkpt lat="38.89161" lon="1.25416">
        <ele>308</ele>
        <time>2010-01-01T04:44:05Z</time>
      </trkpt>
      <trkpt lat="38.8917" lon="1.25422">
        <ele>309</ele>
        <time>2010-01-01T04:44:09Z</time>
      </trkpt>
      <trkpt lat="38.89177" lon="1.25429">
        <ele>311</ele>
        <time>2010-01-01T04:44:13Z</time>
      </trkpt>
      <trkpt lat="38.89185" lon="1.25437">
        <ele>312</ele>
        <time>2010-01-01T04:44:17Z</time>
      </trkpt>
      <trkpt lat="38.89193" lon="1.25445">
        <ele>314</ele>
        <time>2010-01-01T04:44:21Z</time>
      </trkpt>
      <trkpt lat="38.892" lon="1.25454">
        <ele>315</ele>
        <time>2010-01-01T04:44:25Z</time>
      </trkpt>
      <trkpt lat="38.89205" lon="1.25463">
        <ele>317</ele>
        <time>2010-01-01T04:44:28Z</time>
      </trkpt>
      <trkpt lat="38.8921" lon="1.25473">
        <ele>319</ele>
        <time>2010-01-01T04:44:32Z</time>
      </trkpt>
      <trkpt lat="38.89215" lon="1.25484">
        <ele>319</ele>
        <time>2010-01-01T04:44:36Z</time>
      </trkpt>
      <trkpt lat="38.89221" lon="1.25496">
        <ele>319</ele>
        <time>2010-01-01T04:44:40Z</time>
      </trkpt>
      <trkpt lat="38.89223" lon="1.25508">
        <ele>321</ele>
        <time>2010-01-01T04:44:44Z</time>
      </trkpt>
      <trkpt lat="38.8923" lon="1.25517">
        <ele>321</ele>
        <time>2010-01-01T04:44:48Z</time>
      </trkpt>
      <trkpt lat="38.89235" lon="1.25528">
        <ele>322</ele>
        <time>2010-01-01T04:44:52Z</time>
      </trkpt>
      <trkpt lat="38.89239" lon="1.25539">
        <ele>323</ele>
        <time>2010-01-01T04:44:56Z</time>
      </trkpt>
      <trkpt lat="38.8924" lon="1.25551">
        <ele>324</ele>
        <time>2010-01-01T04:45:00Z</time>
      </trkpt>
      <trkpt lat="38.89241" lon="1.25564">
        <ele>326</ele>
        <time>2010-01-01T04:45:04Z</time>
      </trkpt>
      <trkpt lat="38.89243" lon="1.25578">
        <ele>327</ele>
        <time>2010-01-01T04:45:08Z</time>
      </trkpt>
      <trkpt lat="38.89242" lon="1.25592">
        <ele>329</ele>
        <time>2010-01-01T04:45:12Z</time>
      </trkpt>
      <trkpt lat="38.89243" lon="1.25604">
        <ele>329</ele>
        <time>2010-01-01T04:45:16Z</time>
      </trkpt>
      <trkpt lat="38.89245" lon="1.25616">
        <ele>328</ele>
        <time>2010-01-01T04:45:20Z</time>
      </trkpt>
      <trkpt lat="38.89244" lon="1.25628">
        <ele>328</ele>
        <time>2010-01-01T04:45:24Z</time>
      </trkpt>
      <trkpt lat="38.89241" lon="1.2564">
        <ele>328</ele>
        <time>2010-01-01T04:45:28Z</time>
      </trkpt>
      <trkpt lat="38.89237" lon="1.2565">
        <ele>328</ele>
        <time>2010-01-01T04:45:32Z</time>
      </trkpt>
      <trkpt lat="38.8923" lon="1.25658">
        <ele>329</ele>
        <time>2010-01-01T04:45:35Z</time>
      </trkpt>
      <trkpt lat="38.89222" lon="1.25664">
        <ele>329</ele>
        <time>2010-01-01T04:45:39Z</time>
      </trkpt>
      <trkpt lat="38.89217" lon="1.25675">
        <ele>329</ele>
        <time>2010-01-01T04:45:43Z</time>
      </trkpt>
      <trkpt lat="38.8921" lon="1.25685">
        <ele>330</ele>
        <time>2010-01-01T04:45:47Z</time>
      </trkpt>
      <trkpt lat="38.89205" lon="1.25694">
        <ele>330</ele>
        <time>2010-01-01T04:45:50Z</time>
      </trkpt>
      <trkpt lat="38.89202" lon="1.25706">
        <ele>330</ele>
        <time>2010-01-01T04:45:54Z</time>
      </trkpt>
      <trkpt lat="38.89198" lon="1.25718">
        <ele>330</ele>
        <time>2010-01-01T04:45:58Z</time>
      </trkpt>
      <trkpt lat="38.89196" lon="1.25731">
        <ele>329</ele>
        <time>2010-01-01T04:46:03Z</time>
      </trkpt>
      <trkpt lat="38.89194" lon="1.25744">
        <ele>328</ele>
        <time>2010-01-01T04:46:07Z</time>
      </trkpt>
      <trkpt lat="38.89191" lon="1.25756">
        <ele>328</ele>
        <time>2010-01-01T04:46:11Z</time>
      </trkpt>
      <trkpt lat="38.89186" lon="1.25766">
        <ele>327</ele>
        <time>2010-01-01T04:46:14Z</time>
      </trkpt>
      <trkpt lat="38.89181" lon="1.25777">
        <ele>326</ele>
        <time>2010-01-01T04:46:18Z</time>
      </trkpt>
      <trkpt lat="38.89176" lon="1.25787">
        <ele>325</ele>
        <time>2010-01-01T04:46:22Z</time>
      </trkpt>
      <trkpt lat="38.8917" lon="1.258">
        <ele>324</ele>
        <time>2010-01-01T04:46:27Z</time>
      </trkpt>
      <trkpt lat="38.89163" lon="1.25811">
        <ele>324</ele>
        <time>2010-01-01T04:46:31Z</time>
      </trkpt>
      <trkpt lat="38.89154" lon="1.25814">
        <ele>328</ele>
        <time>2010-01-01T04:46:35Z</time>
      </trkpt>
      <trkpt lat="38.89145" lon="1.25817">
        <ele>331</ele>
        <time>2010-01-01T04:46:38Z</time>
      </trkpt>
      <trkpt lat="38.89138" lon="1.25825">
        <ele>333</ele>
        <time>2010-01-01T04:46:42Z</time>
      </trkpt>
      <trkpt lat="38.89137" lon="1.25837">
        <ele>331</ele>
        <time>2010-01-01T04:46:46Z</time>
      </trkpt>
      <trkpt lat="38.89139" lon="1.25851">
        <ele>328</ele>
        <time>2010-01-01T04:46:50Z</time>
      </trkpt>
      <trkpt lat="38.89139" lon="1.25865">
        <ele>326</ele>
        <time>2010-01-01T04:46:55Z</time>
      </trkpt>
      <trkpt lat="38.89137" lon="1.25877">
        <ele>326</ele>
        <time>2010-01-01T04:46:58Z</time>
      </trkpt>
      <trkpt lat="38.89136" lon="1.2589">
        <ele>326</ele>
        <time>2010-01-01T04:47:03Z</time>
      </trkpt>
      <trkpt lat="38.89133" lon="1.25903">
        <ele>326</ele>
        <time>2010-01-01T04:47:07Z</time>
      </trkpt>
      <trkpt lat="38.8913" lon="1.25913">
        <ele>327</ele>
        <time>2010-01-01T04:47:10Z</time>
      </trkpt>
      <trkpt lat="38.89129" lon="1.25927">
        <ele>326</ele>
        <time>2010-01-01T04:47:15Z</time>
      </trkpt>
      <trkpt lat="38.89127" lon="1.2594">
        <ele>325</ele>
        <time>2010-01-01T04:47:19Z</time>
      </trkpt>
      <trkpt lat="38.89122" lon="1.25952">
        <ele>326</ele>
        <time>2010-01-01T04:47:23Z</time>
      </trkpt>
      <trkpt lat="38.89122" lon="1.25965">
        <ele>323</ele>
        <time>2010-01-01T04:47:27Z</time>
      </trkpt>
      <trkpt lat="38.89117" lon="1.2598">
        <ele>324</ele>
        <time>2010-01-01T04:47:32Z</time>
      </trkpt>
      <trkpt lat="38.89112" lon="1.25991">
        <ele>326</ele>
        <time>2010-01-01T04:47:36Z</time>
      </trkpt>
      <trkpt lat="38.89109" lon="1.26002">
        <ele>327</ele>
        <time>2010-01-01T04:47:40Z</time>
      </trkpt>
      <trkpt lat="38.89113" lon="1.26014">
        <ele>325</ele>
        <time>2010-01-01T04:47:44Z</time>
      </trkpt>
      <trkpt lat="38.8912" lon="1.26021">
        <ele>322</ele>
        <time>2010-01-01T04:47:48Z</time>
      </trkpt>
      <trkpt lat="38.89122" lon="1.26035">
        <ele>323</ele>
        <time>2010-01-01T04:47:52Z</time>
      </trkpt>
      <trkpt lat="38.89124" lon="1.26048">
        <ele>325</ele>
        <time>2010-01-01T04:47:56Z</time>
      </trkpt>
      <trkpt lat="38.89126" lon="1.26061">
        <ele>327</ele>
        <time>2010-01-01T04:48:00Z</time>
      </trkpt>
      <trkpt lat="38.89127" lon="1.26075">
        <ele>328</ele>
        <time>2010-01-01T04:48:04Z</time>
      </trkpt>
      <trkpt lat="38.89127" lon="1.26086">
        <ele>329</ele>
        <time>2010-01-01T04:48:08Z</time>
      </trkpt>
      <trkpt lat="38.89126" lon="1.26098">
        <ele>328</ele>
        <time>2010-01-01T04:48:12Z</time>
      </trkpt>
      <trkpt lat="38.89129" lon="1.26111">
        <ele>327</ele>
        <time>2010-01-01T04:48:16Z</time>
      </trkpt>
      <trkpt lat="38.89131" lon="1.26123">
        <ele>325</ele>
        <time>2010-01-01T04:48:20Z</time>
      </trkpt>
      <trkpt lat="38.89131" lon="1.26137">
        <ele>324</ele>
        <time>2010-01-01T04:48:24Z</time>
      </trkpt>
      <trkpt lat="38.89128" lon="1.2615">
        <ele>323</ele>
        <time>2010-01-01T04:48:28Z</time>
      </trkpt>
      <trkpt lat="38.89127" lon="1.26165">
        <ele>322</ele>
        <time>2010-01-01T04:48:33Z</time>
      </trkpt>
      <trkpt lat="38.89124" lon="1.26176">
        <ele>323</ele>
        <time>2010-01-01T04:48:37Z</time>
      </trkpt>
      <trkpt lat="38.89118" lon="1.26188">
        <ele>326</ele>
        <time>2010-01-01T04:48:41Z</time>
      </trkpt>
      <trkpt lat="38.89115" lon="1.26198">
        <ele>327</ele>
        <time>2010-01-01T04:48:44Z</time>
      </trkpt>
      <trkpt lat="38.89114" lon="1.26211">
        <ele>325</ele>
        <time>2010-01-01T04:48:48Z</time>
      </trkpt>
      <trkpt lat="38.8911" lon="1.26222">
        <ele>325</ele>
        <time>2010-01-01T04:48:52Z</time>
      </trkpt>
      <trkpt lat="38.89106" lon="1.26233">
        <ele>325</ele>
        <time>2010-01-01T04:48:56Z</time>
      </trkpt>
      <trkpt lat="38.89104" lon="1.26245">
        <ele>323</ele>
        <time>2010-01-01T04:49:00Z</time>
      </trkpt>
      <trkpt lat="38.89104" lon="1.26257">
        <ele>322</ele>
        <time>2010-01-01T04:49:03Z</time>
      </trkpt>
      <trkpt lat="38.89102" lon="1.26269">
        <ele>321</ele>
        <time>2010-01-01T04:49:07Z</time>
      </trkpt>
      <trkpt lat="38.89101" lon="1.26282">
        <ele>321</ele>
        <time>2010-01-01T04:49:11Z</time>
      </trkpt>
      <trkpt lat="38.891" lon="1.26295">
        <ele>319</ele>
        <time>2010-01-01T04:49:15Z</time>
      </trkpt>
      <trkpt lat="38.891" lon="1.26307">
        <ele>318</ele>
        <time>2010-01-01T04:49:19Z</time>
      </trkpt>
      <trkpt lat="38.89098" lon="1.26319">
        <ele>316</ele>
        <time>2010-01-01T04:49:23Z</time>
      </trkpt>
      <trkpt lat="38.89097" lon="1.26331">
        <ele>315</ele>
        <time>2010-01-01T04:49:27Z</time>
      </trkpt>
      <trkpt lat="38.89097" lon="1.26343">
        <ele>313</ele>
        <time>2010-01-01T04:49:30Z</time>
      </trkpt>
      <trkpt lat="38.89099" lon="1.26355">
        <ele>310</ele>
        <time>2010-01-01T04:49:34Z</time>
      </trkpt>
      <trkpt lat="38.89104" lon="1.26365">
        <ele>308</ele>
        <time>2010-01-01T04:49:38Z</time>
      </trkpt>
      <trkpt lat="38.8911" lon="1.26377">
        <ele>307</ele>
        <time>2010-01-01T04:49:42Z</time>
      </trkpt>
      <trkpt lat="38.89117" lon="1.26387">
        <ele>306</ele>
        <time>2010-01-01T04:49:47Z</time>
      </trkpt>
      <trkpt lat="38.89124" lon="1.26397">
        <ele>305</ele>
        <time>2010-01-01T04:49:51Z</time>
      </trkpt>
      <trkpt lat="38.89131" lon="1.26409">
        <ele>304</ele>
        <time>2010-01-01T04:49:55Z</time>
      </trkpt>
      <trkpt lat="38.89138" lon="1.26418">
        <ele>303</ele>
        <time>2010-01-01T04:49:59Z</time>
      </trkpt>
      <trkpt lat="38.89147" lon="1.26426">
        <ele>301</ele>
        <time>2010-01-01T04:50:04Z</time>
      </trkpt>
      <trkpt lat="38.89155" lon="1.26434">
        <ele>299</ele>
        <time>2010-01-01T04:50:08Z</time>
      </trkpt>
      <trkpt lat="38.89162" lon="1.26445">
        <ele>297</ele>
        <time>2010-01-01T04:50:12Z</time>
      </trkpt>
      <trkpt lat="38.89168" lon="1.26454">
        <ele>297</ele>
        <time>2010-01-01T04:50:16Z</time>
      </trkpt>
      <trkpt lat="38.89169" lon="1.26467">
        <ele>297</ele>
        <time>2010-01-01T04:50:20Z</time>
      </trkpt>
      <trkpt lat="38.89169" lon="1.2648">
        <ele>298</ele>
        <time>2010-01-01T04:50:24Z</time>
      </trkpt>
      <trkpt lat="38.8917" lon="1.26494">
        <ele>298</ele>
        <time>2010-01-01T04:50:29Z</time>
      </trkpt>
      <trkpt lat="38.89171" lon="1.26508">
        <ele>298</ele>
        <time>2010-01-01T04:50:33Z</time>
      </trkpt>
      <trkpt lat="38.89173" lon="1.26521">
        <ele>297</ele>
        <time>2010-01-01T04:50:37Z</time>
      </trkpt>
      <trkpt lat="38.89177" lon="1.26534">
        <ele>296</ele>
        <time>2010-01-01T04:50:41Z</time>
      </trkpt>
      <trkpt lat="38.89181" lon="1.26549">
        <ele>296</ele>
        <time>2010-01-01T04:50:46Z</time>
      </trkpt>
      <trkpt lat="38.89187" lon="1.2656">
        <ele>295</ele>
        <time>2010-01-01T04:50:51Z</time>
      </trkpt>
      <trkpt lat="38.8919" lon="1.26572">
        <ele>295</ele>
        <time>2010-01-01T04:50:54Z</time>
      </trkpt>
      <trkpt lat="38.89194" lon="1.26587">
        <ele>294</ele>
        <time>2010-01-01T04:51:00Z</time>
      </trkpt>
      <trkpt lat="38.89202" lon="1.26598">
        <ele>292</ele>
        <time>2010-01-01T04:51:04Z</time>
      </trkpt>
      <trkpt lat="38.89206" lon="1.26608">
        <ele>291</ele>
        <time>2010-01-01T04:51:08Z</time>
      </trkpt>
      <trkpt lat="38.89211" lon="1.2662">
        <ele>290</ele>
        <time>2010-01-01T04:51:12Z</time>
      </trkpt>
      <trkpt lat="38.89213" lon="1.26632">
        <ele>289</ele>
        <time>2010-01-01T04:51:16Z</time>
      </trkpt>
      <trkpt lat="38.89216" lon="1.26644">
        <ele>288</ele>
        <time>2010-01-01T04:51:19Z</time>
      </trkpt>
      <trkpt lat="38.89217" lon="1.26658">
        <ele>287</ele>
        <time>2010-01-01T04:51:24Z</time>
      </trkpt>
      <trkpt lat="38.89219" lon="1.26671">
        <ele>286</ele>
        <time>2010-01-01T04:51:28Z</time>
      </trkpt>
      <trkpt lat="38.89222" lon="1.26682">
        <ele>285</ele>
        <time>2010-01-01T04:51:32Z</time>
      </trkpt>
      <trkpt lat="38.89226" lon="1.26693">
        <ele>284</ele>
        <time>2010-01-01T04:51:36Z</time>
      </trkpt>
      <trkpt lat="38.8923" lon="1.26704">
        <ele>284</ele>
        <time>2010-01-01T04:51:39Z</time>
      </trkpt>
      <trkpt lat="38.89236" lon="1.26714">
        <ele>283</ele>
        <time>2010-01-01T04:51:43Z</time>
      </trkpt>
      <trkpt lat="38.89242" lon="1.26723">
        <ele>282</ele>
        <time>2010-01-01T04:51:47Z</time>
      </trkpt>
      <trkpt lat="38.89247" lon="1.26733">
        <ele>283</ele>
        <time>2010-01-01T04:51:51Z</time>
      </trkpt>
      <trkpt lat="38.89253" lon="1.26743">
        <ele>283</ele>
        <time>2010-01-01T04:51:55Z</time>
      </trkpt>
      <trkpt lat="38.89259" lon="1.26754">
        <ele>283</ele>
        <time>2010-01-01T04:51:59Z</time>
      </trkpt>
      <trkpt lat="38.89262" lon="1.26767">
        <ele>283</ele>
        <time>2010-01-01T04:52:03Z</time>
      </trkpt>
      <trkpt lat="38.8926" lon="1.26782">
        <ele>284</ele>
        <time>2010-01-01T04:52:08Z</time>
      </trkpt>
      <trkpt lat="38.89261" lon="1.26795">
        <ele>283</ele>
        <time>2010-01-01T04:52:12Z</time>
      </trkpt>
      <trkpt lat="38.89263" lon="1.26807">
        <ele>281</ele>
        <time>2010-01-01T04:52:15Z</time>
      </trkpt>
      <trkpt lat="38.89266" lon="1.26818">
        <ele>278</ele>
        <time>2010-01-01T04:52:19Z</time>
      </trkpt>
      <trkpt lat="38.89272" lon="1.26829">
        <ele>276</ele>
        <time>2010-01-01T04:52:23Z</time>
      </trkpt>
      <trkpt lat="38.89276" lon="1.26842">
        <ele>274</ele>
        <time>2010-01-01T04:52:28Z</time>
      </trkpt>
      <trkpt lat="38.89279" lon="1.26852">
        <ele>272</ele>
        <time>2010-01-01T04:52:31Z</time>
      </trkpt>
      <trkpt lat="38.89284" lon="1.26865">
        <ele>271</ele>
        <time>2010-01-01T04:52:36Z</time>
      </trkpt>
      <trkpt lat="38.89292" lon="1.26876">
        <ele>269</ele>
        <time>2010-01-01T04:52:40Z</time>
      </trkpt>
      <trkpt lat="38.893" lon="1.26881">
        <ele>268</ele>
        <time>2010-01-01T04:52:44Z</time>
      </trkpt>
      <trkpt lat="38.89311" lon="1.26885">
        <ele>266</ele>
        <time>2010-01-01T04:52:48Z</time>
      </trkpt>
      <trkpt lat="38.89321" lon="1.2689">
        <ele>264</ele>
        <time>2010-01-01T04:52:53Z</time>
      </trkpt>
      <trkpt lat="38.89331" lon="1.26897">
        <ele>263</ele>
        <time>2010-01-01T04:52:58Z</time>
      </trkpt>
      <trkpt lat="38.8934" lon="1.26905">
        <ele>260</ele>
        <time>2010-01-01T04:53:02Z</time>
      </trkpt>
      <trkpt lat="38.89344" lon="1.26916">
        <ele>259</ele>
        <time>2010-01-01T04:53:06Z</time>
      </trkpt>
      <trkpt lat="38.89345" lon="1.26929">
        <ele>257</ele>
        <time>2010-01-01T04:53:10Z</time>
      </trkpt>
      <trkpt lat="38.89342" lon="1.26942">
        <ele>257</ele>
        <time>2010-01-01T04:53:14Z</time>
      </trkpt>
      <trkpt lat="38.89338" lon="1.26955">
        <ele>256</ele>
        <time>2010-01-01T04:53:18Z</time>
      </trkpt>
      <trkpt lat="38.89334" lon="1.26968">
        <ele>256</ele>
        <time>2010-01-01T04:53:23Z</time>
      </trkpt>
      <trkpt lat="38.89329" lon="1.26978">
        <ele>256</ele>
        <time>2010-01-01T04:53:26Z</time>
      </trkpt>
      <trkpt lat="38.89323" lon="1.26989">
        <ele>256</ele>
        <time>2010-01-01T04:53:30Z</time>
      </trkpt>
      <trkpt lat="38.89317" lon="1.27002">
        <ele>256</ele>
        <time>2010-01-01T04:53:35Z</time>
      </trkpt>
      <trkpt lat="38.89312" lon="1.27013">
        <ele>255</ele>
        <time>2010-01-01T04:53:39Z</time>
      </trkpt>
      <trkpt lat="38.89309" lon="1.27024">
        <ele>253</ele>
        <time>2010-01-01T04:53:43Z</time>
      </trkpt>
      <trkpt lat="38.89306" lon="1.27035">
        <ele>252</ele>
        <time>2010-01-01T04:53:47Z</time>
      </trkpt>
      <trkpt lat="38.89303" lon="1.27048">
        <ele>250</ele>
        <time>2010-01-01T04:53:51Z</time>
      </trkpt>
      <trkpt lat="38.893" lon="1.27061">
        <ele>248</ele>
        <time>2010-01-01T04:53:55Z</time>
      </trkpt>
      <trkpt lat="38.89304" lon="1.27073">
        <ele>245</ele>
        <time>2010-01-01T04:53:59Z</time>
      </trkpt>
      <trkpt lat="38.89307" lon="1.27086">
        <ele>243</ele>
        <time>2010-01-01T04:54:03Z</time>
      </trkpt>
      <trkpt lat="38.89311" lon="1.27098">
        <ele>241</ele>
        <time>2010-01-01T04:54:07Z</time>
      </trkpt>
      <trkpt lat="38.89311" lon="1.2711">
        <ele>240</ele>
        <time>2010-01-01T04:54:11Z</time>
      </trkpt>
      <trkpt lat="38.89311" lon="1.27124">
        <ele>238</ele>
        <time>2010-01-01T04:54:15Z</time>
      </trkpt>
      <trkpt lat="38.89317" lon="1.27136">
        <ele>236</ele>
        <time>2010-01-01T04:54:20Z</time>
      </trkpt>
      <trkpt lat="38.89323" lon="1.27148">
        <ele>234</ele>
        <time>2010-01-01T04:54:24Z</time>
      </trkpt>
      <trkpt lat="38.89328" lon="1.27158">
        <ele>233</ele>
        <time>2010-01-01T04:54:28Z</time>
      </trkpt>
      <trkpt lat="38.8933" lon="1.2717">
        <ele>232</ele>
        <time>2010-01-01T04:54:32Z</time>
      </trkpt>
      <trkpt lat="38.89331" lon="1.27183">
        <ele>232</ele>
        <time>2010-01-01T04:54:36Z</time>
      </trkpt>
      <trkpt lat="38.89333" lon="1.27195">
        <ele>231</ele>
        <time>2010-01-01T04:54:39Z</time>
      </trkpt>
      <trkpt lat="38.89339" lon="1.27207">
        <ele>233</ele>
        <time>2010-01-01T04:54:44Z</time>
      </trkpt>
      <trkpt lat="38.89342" lon="1.27218">
        <ele>233</ele>
        <time>2010-01-01T04:54:48Z</time>
      </trkpt>
      <trkpt lat="38.89349" lon="1.27229">
        <ele>234</ele>
        <time>2010-01-01T04:54:52Z</time>
      </trkpt>
      <trkpt lat="38.89357" lon="1.27237">
        <ele>234</ele>
        <time>2010-01-01T04:54:56Z</time>
      </trkpt>
      <trkpt lat="38.89366" lon="1.27243">
        <ele>233</ele>
        <time>2010-01-01T04:55:00Z</time>
      </trkpt>
      <trkpt lat="38.89375" lon="1.27249">
        <ele>232</ele>
        <time>2010-01-01T04:55:04Z</time>
      </trkpt>
      <trkpt lat="38.89383" lon="1.27257">
        <ele>230</ele>
        <time>2010-01-01T04:55:08Z</time>
      </trkpt>
      <trkpt lat="38.8939" lon="1.27266">
        <ele>228</ele>
        <time>2010-01-01T04:55:12Z</time>
      </trkpt>
      <trkpt lat="38.89398" lon="1.27273">
        <ele>227</ele>
        <time>2010-01-01T04:55:16Z</time>
      </trkpt>
      <trkpt lat="38.89408" lon="1.27279">
        <ele>226</ele>
        <time>2010-01-01T04:55:21Z</time>
      </trkpt>
      <trkpt lat="38.89416" lon="1.27288">
        <ele>224</ele>
        <time>2010-01-01T04:55:25Z</time>
      </trkpt>
      <trkpt lat="38.8942" lon="1.27301">
        <ele>223</ele>
        <time>2010-01-01T04:55:29Z</time>
      </trkpt>
      <trkpt lat="38.89422" lon="1.27312">
        <ele>221</ele>
        <time>2010-01-01T04:55:33Z</time>
      </trkpt>
      <trkpt lat="38.89421" lon="1.27324">
        <ele>221</ele>
        <time>2010-01-01T04:55:36Z</time>
      </trkpt>
      <trkpt lat="38.8942" lon="1.27337">
        <ele>220</ele>
        <time>2010-01-01T04:55:41Z</time>
      </trkpt>
      <trkpt lat="38.8942" lon="1.27349">
        <ele>218</ele>
        <time>2010-01-01T04:55:44Z</time>
      </trkpt>
      <trkpt lat="38.89416" lon="1.2736">
        <ele>218</ele>
        <time>2010-01-01T04:55:48Z</time>
      </trkpt>
      <trkpt lat="38.89409" lon="1.27371">
        <ele>217</ele>
        <time>2010-01-01T04:55:52Z</time>
      </trkpt>
      <trkpt lat="38.89404" lon="1.27381">
        <ele>216</ele>
        <time>2010-01-01T04:55:56Z</time>
      </trkpt>
      <trkpt lat="38.89397" lon="1.2739">
        <ele>215</ele>
        <time>2010-01-01T04:56:00Z</time>
      </trkpt>
      <trkpt lat="38.89391" lon="1.274">
        <ele>213</ele>
        <time>2010-01-01T04:56:04Z</time>
      </trkpt>
      <trkpt lat="38.89385" lon="1.27409">
        <ele>212</ele>
        <time>2010-01-01T04:56:08Z</time>
      </trkpt>
      <trkpt lat="38.8938" lon="1.2742">
        <ele>211</ele>
        <time>2010-01-01T04:56:12Z</time>
      </trkpt>
      <trkpt lat="38.89379" lon="1.27433">
        <ele>209</ele>
        <time>2010-01-01T04:56:16Z</time>
      </trkpt>
      <trkpt lat="38.89378" lon="1.27446">
        <ele>206</ele>
        <time>2010-01-01T04:56:20Z</time>
      </trkpt>
      <trkpt lat="38.89379" lon="1.27459">
        <ele>205</ele>
        <time>2010-01-01T04:56:24Z</time>
      </trkpt>
      <trkpt lat="38.89382" lon="1.27471">
        <ele>202</ele>
        <time>2010-01-01T04:56:28Z</time>
      </trkpt>
      <trkpt lat="38.89384" lon="1.27484">
        <ele>201</ele>
        <time>2010-01-01T04:56:32Z</time>
      </trkpt>
      <trkpt lat="38.89386" lon="1.27495">
        <ele>200</ele>
        <time>2010-01-01T04:56:36Z</time>
      </trkpt>
      <trkpt lat="38.8939" lon="1.27507">
        <ele>199</ele>
        <time>2010-01-01T04:56:39Z</time>
      </trkpt>
      <trkpt lat="38.89399" lon="1.27516">
        <ele>197</ele>
        <time>2010-01-01T04:56:44Z</time>
      </trkpt>
      <trkpt lat="38.89406" lon="1.27524">
        <ele>195</ele>
        <time>2010-01-01T04:56:48Z</time>
      </trkpt>
      <trkpt lat="38.89412" lon="1.27534">
        <ele>194</ele>
        <time>2010-01-01T04:56:52Z</time>
      </trkpt>
      <trkpt lat="38.89417" lon="1.27544">
        <ele>192</ele>
        <time>2010-01-01T04:56:55Z</time>
      </trkpt>
      <trkpt lat="38.89422" lon="1.27554">
        <ele>191</ele>
        <time>2010-01-01T04:56:59Z</time>
      </trkpt>
      <trkpt lat="38.89428" lon="1.27566">
        <ele>190</ele>
        <time>2010-01-01T04:57:03Z</time>
      </trkpt>
      <trkpt lat="38.89433" lon="1.27578">
        <ele>189</ele>
        <time>2010-01-01T04:57:08Z</time>
      </trkpt>
      <trkpt lat="38.89437" lon="1.2759">
        <ele>189</ele>
        <time>2010-01-01T04:57:12Z</time>
      </trkpt>
      <trkpt lat="38.89444" lon="1.27598">
        <ele>188</ele>
        <time>2010-01-01T04:57:16Z</time>
      </trkpt>
      <trkpt lat="38.89449" lon="1.27608">
        <ele>188</ele>
        <time>2010-01-01T04:57:19Z</time>
      </trkpt>
      <trkpt lat="38.89453" lon="1.2762">
        <ele>189</ele>
        <time>2010-01-01T04:57:23Z</time>
      </trkpt>
      <trkpt lat="38.89457" lon="1.27631">
        <ele>189</ele>
        <time>2010-01-01T04:57:27Z</time>
      </trkpt>
      <trkpt lat="38.89464" lon="1.2764">
        <ele>188</ele>
        <time>2010-01-01T04:57:31Z</time>
      </trkpt>
      <trkpt lat="38.89469" lon="1.27652">
        <ele>187</ele>
        <time>2010-01-01T04:57:35Z</time>
      </trkpt>
      <trkpt lat="38.89475" lon="1.27663">
        <ele>186</ele>
        <time>2010-01-01T04:57:40Z</time>
      </trkpt>
      <trkpt lat="38.89481" lon="1.27674">
        <ele>184</ele>
        <time>2010-01-01T04:57:44Z</time>
      </trkpt>
      <trkpt lat="38.89485" lon="1.27687">
        <ele>183</ele>
        <time>2010-01-01T04:57:48Z</time>
      </trkpt>
      <trkpt lat="38.8949" lon="1.27697">
        <ele>182</ele>
        <time>2010-01-01T04:57:52Z</time>
      </trkpt>
      <trkpt lat="38.89494" lon="1.27708">
        <ele>181</ele>
        <time>2010-01-01T04:57:56Z</time>
      </trkpt>
      <trkpt lat="38.89498" lon="1.27719">
        <ele>181</ele>
        <time>2010-01-01T04:57:59Z</time>
      </trkpt>
      <trkpt lat="38.89502" lon="1.27731">
        <ele>180</ele>
        <time>2010-01-01T04:58:03Z</time>
      </trkpt>
      <trkpt lat="38.89503" lon="1.27718">
        <ele>180</ele>
        <time>2010-01-01T04:58:07Z</time>
      </trkpt>
      <trkpt lat="38.89499" lon="1.27704">
        <ele>180</ele>
        <time>2010-01-01T04:58:12Z</time>
      </trkpt>
      <trkpt lat="38.89496" lon="1.27692">
        <ele>180</ele>
        <time>2010-01-01T04:58:16Z</time>
      </trkpt>
      <trkpt lat="38.89495" lon="1.2768">
        <ele>180</ele>
        <time>2010-01-01T04:58:20Z</time>
      </trkpt>
      <trkpt lat="38.89494" lon="1.27668">
        <ele>179</ele>
        <time>2010-01-01T04:58:23Z</time>
      </trkpt>
      <trkpt lat="38.89495" lon="1.27654">
        <ele>179</ele>
        <time>2010-01-01T04:58:28Z</time>
      </trkpt>
      <trkpt lat="38.89496" lon="1.27642">
        <ele>179</ele>
        <time>2010-01-01T04:58:31Z</time>
      </trkpt>
      <trkpt lat="38.89496" lon="1.2763">
        <ele>180</ele>
        <time>2010-01-01T04:58:35Z</time>
      </trkpt>
      <trkpt lat="38.89494" lon="1.27618">
        <ele>181</ele>
        <time>2010-01-01T04:58:39Z</time>
      </trkpt>
      <trkpt lat="38.89499" lon="1.27609">
        <ele>182</ele>
        <time>2010-01-01T04:58:42Z</time>
      </trkpt>
      <trkpt lat="38.89508" lon="1.27609">
        <ele>181</ele>
        <time>2010-01-01T04:58:46Z</time>
      </trkpt>
      <trkpt lat="38.89518" lon="1.27611">
        <ele>180</ele>
        <time>2010-01-01T04:58:50Z</time>
      </trkpt>
      <trkpt lat="38.89524" lon="1.27603">
        <ele>180</ele>
        <time>2010-01-01T04:58:53Z</time>
      </trkpt>
      <trkpt lat="38.89522" lon="1.27592">
        <ele>181</ele>
        <time>2010-01-01T04:58:57Z</time>
      </trkpt>
      <trkpt lat="38.89521" lon="1.27579">
        <ele>182</ele>
        <time>2010-01-01T04:59:01Z</time>
      </trkpt>
      <trkpt lat="38.89522" lon="1.27566">
        <ele>184</ele>
        <time>2010-01-01T04:59:05Z</time>
      </trkpt>
      <trkpt lat="38.89525" lon="1.27554">
        <ele>185</ele>
        <time>2010-01-01T04:59:09Z</time>
      </trkpt>
      <trkpt lat="38.89529" lon="1.27543">
        <ele>185</ele>
        <time>2010-01-01T04:59:13Z</time>
      </trkpt>
      <trkpt lat="38.89536" lon="1.27534">
        <ele>184</ele>
        <time>2010-01-01T04:59:17Z</time>
      </trkpt>
      <trkpt lat="38.89547" lon="1.27537">
        <ele>181</ele>
        <time>2010-01-01T04:59:21Z</time>
      </trkpt>
      <trkpt lat="38.89555" lon="1.27546">
        <ele>180</ele>
        <time>2010-01-01T04:59:26Z</time>
      </trkpt>
      <trkpt lat="38.89564" lon="1.27543">
        <ele>178</ele>
        <time>2010-01-01T04:59:29Z</time>
      </trkpt>
      <trkpt lat="38.8957" lon="1.27532">
        <ele>177</ele>
        <time>2010-01-01T04:59:34Z</time>
      </trkpt>
      <trkpt lat="38.89574" lon="1.27519">
        <ele>176</ele>
        <time>2010-01-01T04:59:38Z</time>
      </trkpt>
      <trkpt lat="38.89579" lon="1.27507">
        <ele>176</ele>
        <time>2010-01-01T04:59:42Z</time>
      </trkpt>
      <trkpt lat="38.89586" lon="1.27496">
        <ele>175</ele>
        <time>2010-01-01T04:59:47Z</time>
      </trkpt>
      <trkpt lat="38.89596" lon="1.27491">
        <ele>173</ele>
        <time>2010-01-01T04:59:51Z</time>
      </trkpt>
      <trkpt lat="38.89604" lon="1.27484">
        <ele>171</ele>
        <time>2010-01-01T04:59:55Z</time>
      </trkpt>
      <trkpt lat="38.89611" lon="1.27475">
        <ele>170</ele>
        <time>2010-01-01T04:59:59Z</time>
      </trkpt>
      <trkpt lat="38.89616" lon="1.27464">
        <ele>169</ele>
        <time>2010-01-01T05:00:03Z</time>
      </trkpt>
      <trkpt lat="38.8962" lon="1.27452">
        <ele>168</ele>
        <time>2010-01-01T05:00:07Z</time>
      </trkpt>
      <trkpt lat="38.89626" lon="1.27441">
        <ele>167</ele>
        <time>2010-01-01T05:00:11Z</time>
      </trkpt>
      <trkpt lat="38.89633" lon="1.2743">
        <ele>166</ele>
        <time>2010-01-01T05:00:15Z</time>
      </trkpt>
      <trkpt lat="38.89638" lon="1.27419">
        <ele>166</ele>
        <time>2010-01-01T05:00:19Z</time>
      </trkpt>
      <trkpt lat="38.89641" lon="1.27406">
        <ele>165</ele>
        <time>2010-01-01T05:00:24Z</time>
      </trkpt>
      <trkpt lat="38.89645" lon="1.27394">
        <ele>165</ele>
        <time>2010-01-01T05:00:28Z</time>
      </trkpt>
      <trkpt lat="38.89647" lon="1.27383">
        <ele>165</ele>
        <time>2010-01-01T05:00:31Z</time>
      </trkpt>
      <trkpt lat="38.89646" lon="1.27369">
        <ele>166</ele>
        <time>2010-01-01T05:00:36Z</time>
      </trkpt>
      <trkpt lat="38.89646" lon="1.27357">
        <ele>166</ele>
        <time>2010-01-01T05:00:39Z</time>
      </trkpt>
      <trkpt lat="38.89648" lon="1.27344">
        <ele>166</ele>
        <time>2010-01-01T05:00:44Z</time>
      </trkpt>
      <trkpt lat="38.89653" lon="1.27326">
        <ele>165</ele>
        <time>2010-01-01T05:00:49Z</time>
      </trkpt>
      <trkpt lat="38.89653" lon="1.27314">
        <ele>165</ele>
        <time>2010-01-01T05:00:53Z</time>
      </trkpt>
      <trkpt lat="38.89656" lon="1.273">
        <ele>164</ele>
        <time>2010-01-01T05:00:58Z</time>
      </trkpt>
      <trkpt lat="38.89657" lon="1.27288">
        <ele>163</ele>
        <time>2010-01-01T05:01:01Z</time>
      </trkpt>
      <trkpt lat="38.89659" lon="1.27272">
        <ele>162</ele>
        <time>2010-01-01T05:01:06Z</time>
      </trkpt>
      <trkpt lat="38.89666" lon="1.27264">
        <ele>160</ele>
        <time>2010-01-01T05:01:10Z</time>
      </trkpt>
      <trkpt lat="38.89673" lon="1.27257">
        <ele>160</ele>
        <time>2010-01-01T05:01:14Z</time>
      </trkpt>
      <trkpt lat="38.89682" lon="1.27252">
        <ele>161</ele>
        <time>2010-01-01T05:01:18Z</time>
      </trkpt>
      <trkpt lat="38.89691" lon="1.27247">
        <ele>163</ele>
        <time>2010-01-01T05:01:22Z</time>
      </trkpt>
      <trkpt lat="38.89697" lon="1.27237">
        <ele>165</ele>
        <time>2010-01-01T05:01:26Z</time>
      </trkpt>
      <trkpt lat="38.89702" lon="1.27227">
        <ele>166</ele>
        <time>2010-01-01T05:01:29Z</time>
      </trkpt>
      <trkpt lat="38.89709" lon="1.2722">
        <ele>168</ele>
        <time>2010-01-01T05:01:33Z</time>
      </trkpt>
      <trkpt lat="38.89717" lon="1.27212">
        <ele>169</ele>
        <time>2010-01-01T05:01:37Z</time>
      </trkpt>
      <trkpt lat="38.89713" lon="1.27201">
        <ele>169</ele>
        <time>2010-01-01T05:01:41Z</time>
      </trkpt>
      <trkpt lat="38.89704" lon="1.27203">
        <ele>167</ele>
        <time>2010-01-01T05:01:44Z</time>
      </trkpt>
      <trkpt lat="38.89694" lon="1.272">
        <ele>165</ele>
        <time>2010-01-01T05:01:49Z</time>
      </trkpt>
      <trkpt lat="38.89688" lon="1.2719">
        <ele>165</ele>
        <time>2010-01-01T05:01:52Z</time>
      </trkpt>
      <trkpt lat="38.89691" lon="1.27178">
        <ele>167</ele>
        <time>2010-01-01T05:01:56Z</time>
      </trkpt>
      <trkpt lat="38.89688" lon="1.27163">
        <ele>167</ele>
        <time>2010-01-01T05:02:01Z</time>
      </trkpt>
      <trkpt lat="38.89682" lon="1.27151">
        <ele>167</ele>
        <time>2010-01-01T05:02:06Z</time>
      </trkpt>
      <trkpt lat="38.89683" lon="1.27138">
        <ele>167</ele>
        <time>2010-01-01T05:02:10Z</time>
      </trkpt>
      <trkpt lat="38.89688" lon="1.27127">
        <ele>167</ele>
        <time>2010-01-01T05:02:14Z</time>
      </trkpt>
      <trkpt lat="38.89694" lon="1.27116">
        <ele>167</ele>
        <time>2010-01-01T05:02:18Z</time>
      </trkpt>
      <trkpt lat="38.89695" lon="1.27103">
        <ele>167</ele>
        <time>2010-01-01T05:02:22Z</time>
      </trkpt>
      <trkpt lat="38.89693" lon="1.27089">
        <ele>166</ele>
        <time>2010-01-01T05:02:26Z</time>
      </trkpt>
      <trkpt lat="38.89691" lon="1.27078">
        <ele>165</ele>
        <time>2010-01-01T05:02:30Z</time>
      </trkpt>
      <trkpt lat="38.89688" lon="1.27066">
        <ele>165</ele>
        <time>2010-01-01T05:02:34Z</time>
      </trkpt>
      <trkpt lat="38.89685" lon="1.27052">
        <ele>165</ele>
        <time>2010-01-01T05:02:38Z</time>
      </trkpt>
      <trkpt lat="38.89685" lon="1.27038">
        <ele>166</ele>
        <time>2010-01-01T05:02:43Z</time>
      </trkpt>
      <trkpt lat="38.89686" lon="1.27023">
        <ele>167</ele>
        <time>2010-01-01T05:02:47Z</time>
      </trkpt>
      <trkpt lat="38.89688" lon="1.2701">
        <ele>168</ele>
        <time>2010-01-01T05:02:51Z</time>
      </trkpt>
      <trkpt lat="38.89692" lon="1.26999">
        <ele>169</ele>
        <time>2010-01-01T05:02:55Z</time>
      </trkpt>
      <trkpt lat="38.89686" lon="1.26987">
        <ele>169</ele>
        <time>2010-01-01T05:02:59Z</time>
      </trkpt>
      <trkpt lat="38.89682" lon="1.26977">
        <ele>170</ele>
        <time>2010-01-01T05:03:03Z</time>
      </trkpt>
      <trkpt lat="38.89679" lon="1.26965">
        <ele>171</ele>
        <time>2010-01-01T05:03:07Z</time>
      </trkpt>
      <trkpt lat="38.89676" lon="1.26953">
        <ele>172</ele>
        <time>2010-01-01T05:03:11Z</time>
      </trkpt>
      <trkpt lat="38.89677" lon="1.2694">
        <ele>173</ele>
        <time>2010-01-01T05:03:15Z</time>
      </trkpt>
      <trkpt lat="38.89676" lon="1.26926">
        <ele>174</ele>
        <time>2010-01-01T05:03:20Z</time>
      </trkpt>
      <trkpt lat="38.89671" lon="1.26913">
        <ele>175</ele>
        <time>2010-01-01T05:03:24Z</time>
      </trkpt>
      <trkpt lat="38.89667" lon="1.26902">
        <ele>176</ele>
        <time>2010-01-01T05:03:28Z</time>
      </trkpt>
      <trkpt lat="38.89665" lon="1.2689">
        <ele>176</ele>
        <time>2010-01-01T05:03:31Z</time>
      </trkpt>
      <trkpt lat="38.89655" lon="1.26887">
        <ele>176</ele>
        <time>2010-01-01T05:03:35Z</time>
      </trkpt>
      <trkpt lat="38.89651" lon="1.26874">
        <ele>177</ele>
        <time>2010-01-01T05:03:40Z</time>
      </trkpt>
      <trkpt lat="38.89651" lon="1.26862">
        <ele>178</ele>
        <time>2010-01-01T05:03:43Z</time>
      </trkpt>
      <trkpt lat="38.8965" lon="1.26851">
        <ele>178</ele>
        <time>2010-01-01T05:03:47Z</time>
      </trkpt>
      <trkpt lat="38.8965" lon="1.26838">
        <ele>179</ele>
        <time>2010-01-01T05:03:51Z</time>
      </trkpt>
      <trkpt lat="38.8965" lon="1.26826">
        <ele>179</ele>
        <time>2010-01-01T05:03:55Z</time>
      </trkpt>
      <trkpt lat="38.89651" lon="1.26815">
        <ele>179</ele>
        <time>2010-01-01T05:03:58Z</time>
      </trkpt>
      <trkpt lat="38.89649" lon="1.26803">
        <ele>179</ele>
        <time>2010-01-01T05:04:02Z</time>
      </trkpt>
      <trkpt lat="38.89647" lon="1.26788">
        <ele>180</ele>
        <time>2010-01-01T05:04:07Z</time>
      </trkpt>
      <trkpt lat="38.89647" lon="1.26776">
        <ele>181</ele>
        <time>2010-01-01T05:04:10Z</time>
      </trkpt>
      <trkpt lat="38.89645" lon="1.26763">
        <ele>182</ele>
        <time>2010-01-01T05:04:15Z</time>
      </trkpt>
      <trkpt lat="38.89645" lon="1.26751">
        <ele>183</ele>
        <time>2010-01-01T05:04:18Z</time>
      </trkpt>
      <trkpt lat="38.89656" lon="1.26749">
        <ele>187</ele>
        <time>2010-01-01T05:04:23Z</time>
      </trkpt>
      <trkpt lat="38.89666" lon="1.26752">
        <ele>189</ele>
        <time>2010-01-01T05:04:27Z</time>
      </trkpt>
      <trkpt lat="38.89676" lon="1.26756">
        <ele>191</ele>
        <time>2010-01-01T05:04:31Z</time>
      </trkpt>
      <trkpt lat="38.89682" lon="1.26766">
        <ele>192</ele>
        <time>2010-01-01T05:04:35Z</time>
      </trkpt>
      <trkpt lat="38.89686" lon="1.26776">
        <ele>191</ele>
        <time>2010-01-01T05:04:39Z</time>
      </trkpt>
      <trkpt lat="38.89694" lon="1.2677">
        <ele>195</ele>
        <time>2010-01-01T05:04:42Z</time>
      </trkpt>
      <trkpt lat="38.89695" lon="1.26757">
        <ele>197</ele>
        <time>2010-01-01T05:04:46Z</time>
      </trkpt>
      <trkpt lat="38.89702" lon="1.26749">
        <ele>199</ele>
        <time>2010-01-01T05:04:50Z</time>
      </trkpt>
      <trkpt lat="38.89711" lon="1.26755">
        <ele>200</ele>
        <time>2010-01-01T05:04:54Z</time>
      </trkpt>
      <trkpt lat="38.89714" lon="1.26744">
        <ele>202</ele>
        <time>2010-01-01T05:04:57Z</time>
      </trkpt>
      <trkpt lat="38.89723" lon="1.26746">
        <ele>204</ele>
        <time>2010-01-01T05:05:01Z</time>
      </trkpt>
      <trkpt lat="38.89733" lon="1.26741">
        <ele>206</ele>
        <time>2010-01-01T05:05:05Z</time>
      </trkpt>
      <trkpt lat="38.89743" lon="1.26743">
        <ele>207</ele>
        <time>2010-01-01T05:05:09Z</time>
      </trkpt>
      <trkpt lat="38.8975" lon="1.26751">
        <ele>207</ele>
        <time>2010-01-01T05:05:13Z</time>
      </trkpt>
      <trkpt lat="38.89759" lon="1.26754">
        <ele>207</ele>
        <time>2010-01-01T05:05:17Z</time>
      </trkpt>
      <trkpt lat="38.89769" lon="1.26753">
        <ele>208</ele>
        <time>2010-01-01T05:05:21Z</time>
      </trkpt>
      <trkpt lat="38.89778" lon="1.26747">
        <ele>209</ele>
        <time>2010-01-01T05:05:25Z</time>
      </trkpt>
      <trkpt lat="38.89787" lon="1.26745">
        <ele>209</ele>
        <time>2010-01-01T05:05:29Z</time>
      </trkpt>
      <trkpt lat="38.89796" lon="1.26741">
        <ele>208</ele>
        <time>2010-01-01T05:05:33Z</time>
      </trkpt>
      <trkpt lat="38.89804" lon="1.26737">
        <ele>208</ele>
        <time>2010-01-01T05:05:36Z</time>
      </trkpt>
      <trkpt lat="38.89811" lon="1.26727">
        <ele>210</ele>
        <time>2010-01-01T05:05:40Z</time>
      </trkpt>
      <trkpt lat="38.89818" lon="1.26716">
        <ele>212</ele>
        <time>2010-01-01T05:05:45Z</time>
      </trkpt>
      <trkpt lat="38.89826" lon="1.26709">
        <ele>213</ele>
        <time>2010-01-01T05:05:48Z</time>
      </trkpt>
      <trkpt lat="38.89828" lon="1.26696">
        <ele>214</ele>
        <time>2010-01-01T05:05:52Z</time>
      </trkpt>
      <trkpt lat="38.89826" lon="1.26685">
        <ele>216</ele>
        <time>2010-01-01T05:05:56Z</time>
      </trkpt>
      <trkpt lat="38.89823" lon="1.26673">
        <ele>218</ele>
        <time>2010-01-01T05:06:00Z</time>
      </trkpt>
      <trkpt lat="38.8982" lon="1.26662">
        <ele>220</ele>
        <time>2010-01-01T05:06:04Z</time>
      </trkpt>
      <trkpt lat="38.89814" lon="1.26652">
        <ele>222</ele>
        <time>2010-01-01T05:06:07Z</time>
      </trkpt>
      <trkpt lat="38.89812" lon="1.2664">
        <ele>225</ele>
        <time>2010-01-01T05:06:11Z</time>
      </trkpt>
      <trkpt lat="38.89808" lon="1.26629">
        <ele>226</ele>
        <time>2010-01-01T05:06:15Z</time>
      </trkpt>
      <trkpt lat="38.89816" lon="1.26623">
        <ele>226</ele>
        <time>2010-01-01T05:06:19Z</time>
      </trkpt>
      <trkpt lat="38.89825" lon="1.26618">
        <ele>227</ele>
        <time>2010-01-01T05:06:23Z</time>
      </trkpt>
      <trkpt lat="38.89834" lon="1.2661">
        <ele>229</ele>
        <time>2010-01-01T05:06:27Z</time>
      </trkpt>
      <trkpt lat="38.89841" lon="1.26603">
        <ele>229</ele>
        <time>2010-01-01T05:06:31Z</time>
      </trkpt>
      <trkpt lat="38.89848" lon="1.26594">
        <ele>230</ele>
        <time>2010-01-01T05:06:35Z</time>
      </trkpt>
      <trkpt lat="38.89852" lon="1.26584">
        <ele>231</ele>
        <time>2010-01-01T05:06:38Z</time>
      </trkpt>
      <trkpt lat="38.89856" lon="1.26574">
        <ele>231</ele>
        <time>2010-01-01T05:06:42Z</time>
      </trkpt>
      <trkpt lat="38.89861" lon="1.26561">
        <ele>232</ele>
        <time>2010-01-01T05:06:46Z</time>
      </trkpt>
      <trkpt lat="38.89865" lon="1.2655">
        <ele>232</ele>
        <time>2010-01-01T05:06:50Z</time>
      </trkpt>
      <trkpt lat="38.89869" lon="1.26538">
        <ele>233</ele>
        <time>2010-01-01T05:06:54Z</time>
      </trkpt>
      <trkpt lat="38.89873" lon="1.26524">
        <ele>233</ele>
        <time>2010-01-01T05:06:59Z</time>
      </trkpt>
      <trkpt lat="38.89878" lon="1.26514">
        <ele>234</ele>
        <time>2010-01-01T05:07:02Z</time>
      </trkpt>
      <trkpt lat="38.89884" lon="1.26504">
        <ele>235</ele>
        <time>2010-01-01T05:07:06Z</time>
      </trkpt>
      <trkpt lat="38.89886" lon="1.26492">
        <ele>236</ele>
        <time>2010-01-01T05:07:10Z</time>
      </trkpt>
      <trkpt lat="38.89885" lon="1.2648">
        <ele>237</ele>
        <time>2010-01-01T05:07:14Z</time>
      </trkpt>
      <trkpt lat="38.89883" lon="1.26468">
        <ele>238</ele>
        <time>2010-01-01T05:07:18Z</time>
      </trkpt>
      <trkpt lat="38.89882" lon="1.26456">
        <ele>240</ele>
        <time>2010-01-01T05:07:22Z</time>
      </trkpt>
      <trkpt lat="38.89881" lon="1.26443">
        <ele>240</ele>
        <time>2010-01-01T05:07:26Z</time>
      </trkpt>
      <trkpt lat="38.89884" lon="1.26431">
        <ele>241</ele>
        <time>2010-01-01T05:07:29Z</time>
      </trkpt>
      <trkpt lat="38.89885" lon="1.26419">
        <ele>242</ele>
        <time>2010-01-01T05:07:33Z</time>
      </trkpt>
      <trkpt lat="38.89885" lon="1.26407">
        <ele>243</ele>
        <time>2010-01-01T05:07:37Z</time>
      </trkpt>
      <trkpt lat="38.89889" lon="1.26393">
        <ele>245</ele>
        <time>2010-01-01T05:07:42Z</time>
      </trkpt>
      <trkpt lat="38.8989" lon="1.26382">
        <ele>246</ele>
        <time>2010-01-01T05:07:45Z</time>
      </trkpt>
      <trkpt lat="38.89891" lon="1.2637">
        <ele>248</ele>
        <time>2010-01-01T05:07:49Z</time>
      </trkpt>
      <trkpt lat="38.89897" lon="1.2636">
        <ele>250</ele>
        <time>2010-01-01T05:07:53Z</time>
      </trkpt>
      <trkpt lat="38.89901" lon="1.26348">
        <ele>252</ele>
        <time>2010-01-01T05:07:57Z</time>
      </trkpt>
      <trkpt lat="38.89907" lon="1.26338">
        <ele>254</ele>
        <time>2010-01-01T05:08:01Z</time>
      </trkpt>
      <trkpt lat="38.89913" lon="1.26329">
        <ele>257</ele>
        <time>2010-01-01T05:08:04Z</time>
      </trkpt>
      <trkpt lat="38.89918" lon="1.26319">
        <ele>260</ele>
        <time>2010-01-01T05:08:08Z</time>
      </trkpt>
      <trkpt lat="38.89923" lon="1.26309">
        <ele>262</ele>
        <time>2010-01-01T05:08:12Z</time>
      </trkpt>
      <trkpt lat="38.8993" lon="1.263">
        <ele>265</ele>
        <time>2010-01-01T05:08:16Z</time>
      </trkpt>
      <trkpt lat="38.89936" lon="1.2629">
        <ele>267</ele>
        <time>2010-01-01T05:08:20Z</time>
      </trkpt>
      <trkpt lat="38.89945" lon="1.26285">
        <ele>269</ele>
        <time>2010-01-01T05:08:24Z</time>
      </trkpt>
      <trkpt lat="38.8995" lon="1.26276">
        <ele>271</ele>
        <time>2010-01-01T05:08:27Z</time>
      </trkpt>
      <trkpt lat="38.89959" lon="1.26268">
        <ele>272</ele>
        <time>2010-01-01T05:08:31Z</time>
      </trkpt>
      <trkpt lat="38.89966" lon="1.26258">
        <ele>274</ele>
        <time>2010-01-01T05:08:36Z</time>
      </trkpt>
      <trkpt lat="38.89972" lon="1.26249">
        <ele>276</ele>
        <time>2010-01-01T05:08:39Z</time>
      </trkpt>
      <trkpt lat="38.89979" lon="1.26239">
        <ele>277</ele>
        <time>2010-01-01T05:08:44Z</time>
      </trkpt>
      <trkpt lat="38.89985" lon="1.26228">
        <ele>279</ele>
        <time>2010-01-01T05:08:48Z</time>
      </trkpt>
      <trkpt lat="38.89989" lon="1.26217">
        <ele>281</ele>
        <time>2010-01-01T05:08:51Z</time>
      </trkpt>
      <trkpt lat="38.89993" lon="1.26205">
        <ele>283</ele>
        <time>2010-01-01T05:08:56Z</time>
      </trkpt>
      <trkpt lat="38.89996" lon="1.26194">
        <ele>285</ele>
        <time>2010-01-01T05:08:59Z</time>
      </trkpt>
      <trkpt lat="38.90001" lon="1.26182">
        <ele>287</ele>
        <time>2010-01-01T05:09:03Z</time>
      </trkpt>
      <trkpt lat="38.90003" lon="1.26169">
        <ele>290</ele>
        <time>2010-01-01T05:09:08Z</time>
      </trkpt>
      <trkpt lat="38.90006" lon="1.26155">
        <ele>294</ele>
        <time>2010-01-01T05:09:12Z</time>
      </trkpt>
      <trkpt lat="38.9001" lon="1.26143">
        <ele>296</ele>
        <time>2010-01-01T05:09:16Z</time>
      </trkpt>
      <trkpt lat="38.90018" lon="1.26136">
        <ele>296</ele>
        <time>2010-01-01T05:09:20Z</time>
      </trkpt>
      <trkpt lat="38.90024" lon="1.26128">
        <ele>296</ele>
        <time>2010-01-01T05:09:23Z</time>
      </trkpt>
      <trkpt lat="38.90032" lon="1.26122">
        <ele>297</ele>
        <time>2010-01-01T05:09:27Z</time>
      </trkpt>
      <trkpt lat="38.9004" lon="1.26116">
        <ele>297</ele>
        <time>2010-01-01T05:09:31Z</time>
      </trkpt>
      <trkpt lat="38.90045" lon="1.26106">
        <ele>299</ele>
        <time>2010-01-01T05:09:34Z</time>
      </trkpt>
      <trkpt lat="38.90052" lon="1.261">
        <ele>300</ele>
        <time>2010-01-01T05:09:38Z</time>
      </trkpt>
      <trkpt lat="38.90059" lon="1.26091">
        <ele>302</ele>
        <time>2010-01-01T05:09:42Z</time>
      </trkpt>
      <trkpt lat="38.90066" lon="1.26084">
        <ele>304</ele>
        <time>2010-01-01T05:09:45Z</time>
      </trkpt>
      <trkpt lat="38.90075" lon="1.26084">
        <ele>303</ele>
        <time>2010-01-01T05:09:49Z</time>
      </trkpt>
      <trkpt lat="38.90085" lon="1.26081">
        <ele>304</ele>
        <time>2010-01-01T05:09:53Z</time>
      </trkpt>
      <trkpt lat="38.90094" lon="1.26078">
        <ele>305</ele>
        <time>2010-01-01T05:09:57Z</time>
      </trkpt>
      <trkpt lat="38.90103" lon="1.26076">
        <ele>305</ele>
        <time>2010-01-01T05:10:01Z</time>
      </trkpt>
      <trkpt lat="38.90112" lon="1.26071">
        <ele>307</ele>
        <time>2010-01-01T05:10:05Z</time>
      </trkpt>
      <trkpt lat="38.90121" lon="1.26065">
        <ele>308</ele>
        <time>2010-01-01T05:10:09Z</time>
      </trkpt>
      <trkpt lat="38.9013" lon="1.2606">
        <ele>310</ele>
        <time>2010-01-01T05:10:13Z</time>
      </trkpt>
      <trkpt lat="38.9014" lon="1.26057">
        <ele>311</ele>
        <time>2010-01-01T05:10:17Z</time>
      </trkpt>
      <trkpt lat="38.9015" lon="1.2606">
        <ele>312</ele>
        <time>2010-01-01T05:10:21Z</time>
      </trkpt>
      <trkpt lat="38.90159" lon="1.26061">
        <ele>313</ele>
        <time>2010-01-01T05:10:25Z</time>
      </trkpt>
      <trkpt lat="38.90168" lon="1.26058">
        <ele>315</ele>
        <time>2010-01-01T05:10:28Z</time>
      </trkpt>
      <trkpt lat="38.90177" lon="1.26053">
        <ele>316</ele>
        <time>2010-01-01T05:10:32Z</time>
      </trkpt>
      <trkpt lat="38.9018" lon="1.26041">
        <ele>317</ele>
        <time>2010-01-01T05:10:36Z</time>
      </trkpt>
      <trkpt lat="38.90184" lon="1.26029">
        <ele>319</ele>
        <time>2010-01-01T05:10:40Z</time>
      </trkpt>
      <trkpt lat="38.90186" lon="1.26018">
        <ele>320</ele>
        <time>2010-01-01T05:10:44Z</time>
      </trkpt>
      <trkpt lat="38.9019" lon="1.26006">
        <ele>320</ele>
        <time>2010-01-01T05:10:48Z</time>
      </trkpt>
      <trkpt lat="38.90192" lon="1.25994">
        <ele>321</ele>
        <time>2010-01-01T05:10:51Z</time>
      </trkpt>
      <trkpt lat="38.90197" lon="1.25984">
        <ele>320</ele>
        <time>2010-01-01T05:10:55Z</time>
      </trkpt>
      <trkpt lat="38.90202" lon="1.25972">
        <ele>319</ele>
        <time>2010-01-01T05:10:59Z</time>
      </trkpt>
      <trkpt lat="38.90206" lon="1.25959">
        <ele>318</ele>
        <time>2010-01-01T05:11:04Z</time>
      </trkpt>
      <trkpt lat="38.90209" lon="1.25947">
        <ele>318</ele>
        <time>2010-01-01T05:11:08Z</time>
      </trkpt>
      <trkpt lat="38.90214" lon="1.25937">
        <ele>318</ele>
        <time>2010-01-01T05:11:11Z</time>
      </trkpt>
      <trkpt lat="38.90221" lon="1.2593">
        <ele>317</ele>
        <time>2010-01-01T05:11:15Z</time>
      </trkpt>
      <trkpt lat="38.90228" lon="1.25923">
        <ele>316</ele>
        <time>2010-01-01T05:11:19Z</time>
      </trkpt>
      <trkpt lat="38.90236" lon="1.25915">
        <ele>316</ele>
        <time>2010-01-01T05:11:23Z</time>
      </trkpt>
      <trkpt lat="38.90244" lon="1.25906">
        <ele>315</ele>
        <time>2010-01-01T05:11:27Z</time>
      </trkpt>
      <trkpt lat="38.90252" lon="1.25898">
        <ele>314</ele>
        <time>2010-01-01T05:11:31Z</time>
      </trkpt>
      <trkpt lat="38.90258" lon="1.25889">
        <ele>314</ele>
        <time>2010-01-01T05:11:35Z</time>
      </trkpt>
      <trkpt lat="38.90265" lon="1.25878">
        <ele>313</ele>
        <time>2010-01-01T05:11:39Z</time>
      </trkpt>
      <trkpt lat="38.90273" lon="1.2587">
        <ele>313</ele>
        <time>2010-01-01T05:11:43Z</time>
      </trkpt>
      <trkpt lat="38.90281" lon="1.2586">
        <ele>313</ele>
        <time>2010-01-01T05:11:48Z</time>
      </trkpt>
      <trkpt lat="38.90288" lon="1.25853">
        <ele>311</ele>
        <time>2010-01-01T05:11:51Z</time>
      </trkpt>
      <trkpt lat="38.90298" lon="1.25845">
        <ele>310</ele>
        <time>2010-01-01T05:11:56Z</time>
      </trkpt>
      <trkpt lat="38.90305" lon="1.25836">
        <ele>310</ele>
        <time>2010-01-01T05:12:00Z</time>
      </trkpt>
      <trkpt lat="38.90313" lon="1.25827">
        <ele>310</ele>
        <time>2010-01-01T05:12:04Z</time>
      </trkpt>
      <trkpt lat="38.90318" lon="1.25815">
        <ele>310</ele>
        <time>2010-01-01T05:12:08Z</time>
      </trkpt>
      <trkpt lat="38.9032" lon="1.25804">
        <ele>311</ele>
        <time>2010-01-01T05:12:12Z</time>
      </trkpt>
      <trkpt lat="38.90324" lon="1.25791">
        <ele>311</ele>
        <time>2010-01-01T05:12:16Z</time>
      </trkpt>
      <trkpt lat="38.90329" lon="1.2578">
        <ele>311</ele>
        <time>2010-01-01T05:12:20Z</time>
      </trkpt>
      <trkpt lat="38.90336" lon="1.25773">
        <ele>310</ele>
        <time>2010-01-01T05:12:24Z</time>
      </trkpt>
      <trkpt lat="38.90342" lon="1.25764">
        <ele>310</ele>
        <time>2010-01-01T05:12:27Z</time>
      </trkpt>
      <trkpt lat="38.90351" lon="1.25756">
        <ele>309</ele>
        <time>2010-01-01T05:12:32Z</time>
      </trkpt>
      <trkpt lat="38.90356" lon="1.25745">
        <ele>310</ele>
        <time>2010-01-01T05:12:36Z</time>
      </trkpt>
      <trkpt lat="38.90368" lon="1.25744">
        <ele>309</ele>
        <time>2010-01-01T05:12:40Z</time>
      </trkpt>
      <trkpt lat="38.90375" lon="1.25736">
        <ele>309</ele>
        <time>2010-01-01T05:12:44Z</time>
      </trkpt>
      <trkpt lat="38.90385" lon="1.25733">
        <ele>309</ele>
        <time>2010-01-01T05:12:48Z</time>
      </trkpt>
      <trkpt lat="38.90386" lon="1.25722">
        <ele>312</ele>
        <time>2010-01-01T05:12:52Z</time>
      </trkpt>
      <trkpt lat="38.90389" lon="1.2571">
        <ele>313</ele>
        <time>2010-01-01T05:12:56Z</time>
      </trkpt>
      <trkpt lat="38.90392" lon="1.25696">
        <ele>315</ele>
        <time>2010-01-01T05:13:00Z</time>
      </trkpt>
      <trkpt lat="38.90394" lon="1.25685">
        <ele>316</ele>
        <time>2010-01-01T05:13:04Z</time>
      </trkpt>
      <trkpt lat="38.90398" lon="1.25674">
        <ele>317</ele>
        <time>2010-01-01T05:13:07Z</time>
      </trkpt>
      <trkpt lat="38.90407" lon="1.2567">
        <ele>317</ele>
        <time>2010-01-01T05:13:12Z</time>
      </trkpt>
      <trkpt lat="38.90416" lon="1.25668">
        <ele>317</ele>
        <time>2010-01-01T05:13:15Z</time>
      </trkpt>
      <trkpt lat="38.90427" lon="1.25667">
        <ele>317</ele>
        <time>2010-01-01T05:13:20Z</time>
      </trkpt>
      <trkpt lat="38.90439" lon="1.2567">
        <ele>316</ele>
        <time>2010-01-01T05:13:24Z</time>
      </trkpt>
      <trkpt lat="38.90449" lon="1.25672">
        <ele>314</ele>
        <time>2010-01-01T05:13:28Z</time>
      </trkpt>
      <trkpt lat="38.90459" lon="1.25674">
        <ele>313</ele>
        <time>2010-01-01T05:13:33Z</time>
      </trkpt>
      <trkpt lat="38.90469" lon="1.25674">
        <ele>311</ele>
        <time>2010-01-01T05:13:36Z</time>
      </trkpt>
      <trkpt lat="38.9048" lon="1.25673">
        <ele>311</ele>
        <time>2010-01-01T05:13:41Z</time>
      </trkpt>
      <trkpt lat="38.90491" lon="1.25673">
        <ele>310</ele>
        <time>2010-01-01T05:13:45Z</time>
      </trkpt>
      <trkpt lat="38.90502" lon="1.25673">
        <ele>310</ele>
        <time>2010-01-01T05:13:50Z</time>
      </trkpt>
      <trkpt lat="38.90513" lon="1.25674">
        <ele>309</ele>
        <time>2010-01-01T05:13:54Z</time>
      </trkpt>
      <trkpt lat="38.90524" lon="1.25674">
        <ele>308</ele>
        <time>2010-01-01T05:13:58Z</time>
      </trkpt>
      <trkpt lat="38.90533" lon="1.25675">
        <ele>307</ele>
        <time>2010-01-01T05:14:02Z</time>
      </trkpt>
      <trkpt lat="38.90545" lon="1.25678">
        <ele>305</ele>
        <time>2010-01-01T05:14:07Z</time>
      </trkpt>
      <trkpt lat="38.90554" lon="1.25685">
        <ele>301</ele>
        <time>2010-01-01T05:14:11Z</time>
      </trkpt>
      <trkpt lat="38.90565" lon="1.25688">
        <ele>300</ele>
        <time>2010-01-01T05:14:16Z</time>
      </trkpt>
      <trkpt lat="38.90578" lon="1.25689">
        <ele>300</ele>
        <time>2010-01-01T05:14:21Z</time>
      </trkpt>
      <trkpt lat="38.90587" lon="1.2569">
        <ele>299</ele>
        <time>2010-01-01T05:14:25Z</time>
      </trkpt>
      <trkpt lat="38.90599" lon="1.25691">
        <ele>300</ele>
        <time>2010-01-01T05:14:29Z</time>
      </trkpt>
      <trkpt lat="38.90611" lon="1.25695">
        <ele>299</ele>
        <time>2010-01-01T05:14:34Z</time>
      </trkpt>
      <trkpt lat="38.90622" lon="1.25695">
        <ele>299</ele>
        <time>2010-01-01T05:14:39Z</time>
      </trkpt>
      <trkpt lat="38.90631" lon="1.25694">
        <ele>299</ele>
        <time>2010-01-01T05:14:42Z</time>
      </trkpt>
      <trkpt lat="38.9064" lon="1.25693">
        <ele>299</ele>
        <time>2010-01-01T05:14:46Z</time>
      </trkpt>
      <trkpt lat="38.90651" lon="1.25696">
        <ele>297</ele>
        <time>2010-01-01T05:14:50Z</time>
      </trkpt>
      <trkpt lat="38.90662" lon="1.25697">
        <ele>296</ele>
        <time>2010-01-01T05:14:55Z</time>
      </trkpt>
      <trkpt lat="38.90672" lon="1.25701">
        <ele>295</ele>
        <time>2010-01-01T05:14:59Z</time>
      </trkpt>
      <trkpt lat="38.90681" lon="1.25708">
        <ele>295</ele>
        <time>2010-01-01T05:15:03Z</time>
      </trkpt>
      <trkpt lat="38.90688" lon="1.25716">
        <ele>295</ele>
        <time>2010-01-01T05:15:07Z</time>
      </trkpt>
      <trkpt lat="38.90695" lon="1.25725">
        <ele>296</ele>
        <time>2010-01-01T05:15:11Z</time>
      </trkpt>
      <trkpt lat="38.907" lon="1.25737">
        <ele>297</ele>
        <time>2010-01-01T05:15:15Z</time>
      </trkpt>
      <trkpt lat="38.90705" lon="1.25749">
        <ele>298</ele>
        <time>2010-01-01T05:15:19Z</time>
      </trkpt>
      <trkpt lat="38.90711" lon="1.25758">
        <ele>300</ele>
        <time>2010-01-01T05:15:23Z</time>
      </trkpt>
      <trkpt lat="38.90716" lon="1.25768">
        <ele>302</ele>
        <time>2010-01-01T05:15:27Z</time>
      </trkpt>
      <trkpt lat="38.9072" lon="1.2578">
        <ele>304</ele>
        <time>2010-01-01T05:15:31Z</time>
      </trkpt>
      <trkpt lat="38.90723" lon="1.25792">
        <ele>306</ele>
        <time>2010-01-01T05:15:35Z</time>
      </trkpt>
      <trkpt lat="38.90723" lon="1.25804">
        <ele>308</ele>
        <time>2010-01-01T05:15:39Z</time>
      </trkpt>
      <trkpt lat="38.90721" lon="1.25816">
        <ele>310</ele>
        <time>2010-01-01T05:15:42Z</time>
      </trkpt>
      <trkpt lat="38.90716" lon="1.25826">
        <ele>310</ele>
        <time>2010-01-01T05:15:46Z</time>
      </trkpt>
      <trkpt lat="38.90711" lon="1.25836">
        <ele>311</ele>
        <time>2010-01-01T05:15:50Z</time>
      </trkpt>
      <trkpt lat="38.90707" lon="1.25847">
        <ele>312</ele>
        <time>2010-01-01T05:15:54Z</time>
      </trkpt>
      <trkpt lat="38.90704" lon="1.25859">
        <ele>314</ele>
        <time>2010-01-01T05:15:57Z</time>
      </trkpt>
      <trkpt lat="38.90704" lon="1.25871">
        <ele>316</ele>
        <time>2010-01-01T05:16:01Z</time>
      </trkpt>
      <trkpt lat="38.90702" lon="1.25884">
        <ele>319</ele>
        <time>2010-01-01T05:16:05Z</time>
      </trkpt>
      <trkpt lat="38.90701" lon="1.25896">
        <ele>321</ele>
        <time>2010-01-01T05:16:09Z</time>
      </trkpt>
      <trkpt lat="38.90699" lon="1.25908">
        <ele>324</ele>
        <time>2010-01-01T05:16:13Z</time>
      </trkpt>
      <trkpt lat="38.90698" lon="1.2592">
        <ele>327</ele>
        <time>2010-01-01T05:16:17Z</time>
      </trkpt>
      <trkpt lat="38.90697" lon="1.25932">
        <ele>331</ele>
        <time>2010-01-01T05:16:20Z</time>
      </trkpt>
      <trkpt lat="38.90696" lon="1.25944">
        <ele>334</ele>
        <time>2010-01-01T05:16:24Z</time>
      </trkpt>
      <trkpt lat="38.9069" lon="1.25953">
        <ele>337</ele>
        <time>2010-01-01T05:16:28Z</time>
      </trkpt>
      <trkpt lat="38.9068" lon="1.25955">
        <ele>337</ele>
        <time>2010-01-01T05:16:32Z</time>
      </trkpt>
      <trkpt lat="38.90672" lon="1.2596">
        <ele>337</ele>
        <time>2010-01-01T05:16:35Z</time>
      </trkpt>
      <trkpt lat="38.90663" lon="1.25966">
        <ele>338</ele>
        <time>2010-01-01T05:16:39Z</time>
      </trkpt>
      <trkpt lat="38.90655" lon="1.2597">
        <ele>338</ele>
        <time>2010-01-01T05:16:43Z</time>
      </trkpt>
      <trkpt lat="38.90645" lon="1.25976">
        <ele>340</ele>
        <time>2010-01-01T05:16:47Z</time>
      </trkpt>
      <trkpt lat="38.90635" lon="1.25983">
        <ele>340</ele>
        <time>2010-01-01T05:16:52Z</time>
      </trkpt>
      <trkpt lat="38.90629" lon="1.25992">
        <ele>340</ele>
        <time>2010-01-01T05:16:55Z</time>
      </trkpt>
      <trkpt lat="38.90626" lon="1.26005">
        <ele>342</ele>
        <time>2010-01-01T05:17:00Z</time>
      </trkpt>
      <trkpt lat="38.90625" lon="1.26019">
        <ele>344</ele>
        <time>2010-01-01T05:17:04Z</time>
      </trkpt>
      <trkpt lat="38.90623" lon="1.26034">
        <ele>344</ele>
        <time>2010-01-01T05:17:09Z</time>
      </trkpt>
      <trkpt lat="38.90622" lon="1.26048">
        <ele>346</ele>
        <time>2010-01-01T05:17:13Z</time>
      </trkpt>
      <trkpt lat="38.90621" lon="1.2606">
        <ele>348</ele>
        <time>2010-01-01T05:17:17Z</time>
      </trkpt>
      <trkpt lat="38.9062" lon="1.26074">
        <ele>348</ele>
        <time>2010-01-01T05:17:21Z</time>
      </trkpt>
      <trkpt lat="38.90619" lon="1.26087">
        <ele>348</ele>
        <time>2010-01-01T05:17:25Z</time>
      </trkpt>
      <trkpt lat="38.9062" lon="1.26099">
        <ele>348</ele>
        <time>2010-01-01T05:17:29Z</time>
      </trkpt>
      <trkpt lat="38.90627" lon="1.26108">
        <ele>351</ele>
        <time>2010-01-01T05:17:33Z</time>
      </trkpt>
      <trkpt lat="38.90626" lon="1.2612">
        <ele>350</ele>
        <time>2010-01-01T05:17:37Z</time>
      </trkpt>
      <trkpt lat="38.90629" lon="1.26131">
        <ele>352</ele>
        <time>2010-01-01T05:17:40Z</time>
      </trkpt>
      <trkpt lat="38.90633" lon="1.26143">
        <ele>355</ele>
        <time>2010-01-01T05:17:44Z</time>
      </trkpt>
      <trkpt lat="38.90637" lon="1.26154">
        <ele>359</ele>
        <time>2010-01-01T05:17:48Z</time>
      </trkpt>
      <trkpt lat="38.90641" lon="1.26164">
        <ele>363</ele>
        <time>2010-01-01T05:17:52Z</time>
      </trkpt>
      <trkpt lat="38.90646" lon="1.26175">
        <ele>367</ele>
        <time>2010-01-01T05:17:55Z</time>
      </trkpt>
      <trkpt lat="38.90644" lon="1.26188">
        <ele>369</ele>
        <time>2010-01-01T05:18:00Z</time>
      </trkpt>
      <trkpt lat="38.90645" lon="1.26199">
        <ele>371</ele>
        <time>2010-01-01T05:18:03Z</time>
      </trkpt>
      <trkpt lat="38.90652" lon="1.26209">
        <ele>374</ele>
        <time>2010-01-01T05:18:07Z</time>
      </trkpt>
      <trkpt lat="38.90657" lon="1.26219">
        <ele>376</ele>
        <time>2010-01-01T05:18:11Z</time>
      </trkpt>
      <trkpt lat="38.90664" lon="1.26227">
        <ele>378</ele>
        <time>2010-01-01T05:18:15Z</time>
      </trkpt>
      <trkpt lat="38.90672" lon="1.26237">
        <ele>379</ele>
        <time>2010-01-01T05:18:19Z</time>
      </trkpt>
      <trkpt lat="38.90679" lon="1.26245">
        <ele>380</ele>
        <time>2010-01-01T05:18:23Z</time>
      </trkpt>
      <trkpt lat="38.90686" lon="1.26255">
        <ele>380</ele>
        <time>2010-01-01T05:18:27Z</time>
      </trkpt>
      <trkpt lat="38.90691" lon="1.26264">
        <ele>381</ele>
        <time>2010-01-01T05:18:31Z</time>
      </trkpt>
      <trkpt lat="38.90698" lon="1.26273">
        <ele>382</ele>
        <time>2010-01-01T05:18:35Z</time>
      </trkpt>
      <trkpt lat="38.90703" lon="1.26286">
        <ele>383</ele>
        <time>2010-01-01T05:18:39Z</time>
      </trkpt>
      <trkpt lat="38.90703" lon="1.26299">
        <ele>385</ele>
        <time>2010-01-01T05:18:43Z</time>
      </trkpt>
      <trkpt lat="38.90703" lon="1.26311">
        <ele>386</ele>
        <time>2010-01-01T05:18:47Z</time>
      </trkpt>
      <trkpt lat="38.90702" lon="1.26323">
        <ele>387</ele>
        <time>2010-01-01T05:18:51Z</time>
      </trkpt>
      <trkpt lat="38.90699" lon="1.26335">
        <ele>389</ele>
        <time>2010-01-01T05:18:55Z</time>
      </trkpt>
      <trkpt lat="38.90698" lon="1.26348">
        <ele>390</ele>
        <time>2010-01-01T05:18:59Z</time>
      </trkpt>
      <trkpt lat="38.90695" lon="1.26359">
        <ele>391</ele>
        <time>2010-01-01T05:19:02Z</time>
      </trkpt>
      <trkpt lat="38.90694" lon="1.26371">
        <ele>392</ele>
        <time>2010-01-01T05:19:06Z</time>
      </trkpt>
      <trkpt lat="38.9069" lon="1.26383">
        <ele>392</ele>
        <time>2010-01-01T05:19:10Z</time>
      </trkpt>
      <trkpt lat="38.90686" lon="1.26395">
        <ele>393</ele>
        <time>2010-01-01T05:19:14Z</time>
      </trkpt>
      <trkpt lat="38.90683" lon="1.26406">
        <ele>394</ele>
        <time>2010-01-01T05:19:18Z</time>
      </trkpt>
      <trkpt lat="38.90677" lon="1.26418">
        <ele>395</ele>
        <time>2010-01-01T05:19:22Z</time>
      </trkpt>
      <trkpt lat="38.90677" lon="1.2643">
        <ele>396</ele>
        <time>2010-01-01T05:19:26Z</time>
      </trkpt>
      <trkpt lat="38.90674" lon="1.26442">
        <ele>397</ele>
        <time>2010-01-01T05:19:30Z</time>
      </trkpt>
      <trkpt lat="38.90672" lon="1.26455">
        <ele>398</ele>
        <time>2010-01-01T05:19:34Z</time>
      </trkpt>
      <trkpt lat="38.90668" lon="1.26468">
        <ele>399</ele>
        <time>2010-01-01T05:19:39Z</time>
      </trkpt>
      <trkpt lat="38.90669" lon="1.2648">
        <ele>401</ele>
        <time>2010-01-01T05:19:42Z</time>
      </trkpt>
      <trkpt lat="38.90665" lon="1.26494">
        <ele>404</ele>
        <time>2010-01-01T05:19:47Z</time>
      </trkpt>
      <trkpt lat="38.90662" lon="1.26507">
        <ele>406</ele>
        <time>2010-01-01T05:19:51Z</time>
      </trkpt>
      <trkpt lat="38.90661" lon="1.2652">
        <ele>407</ele>
        <time>2010-01-01T05:19:55Z</time>
      </trkpt>
      <trkpt lat="38.9066" lon="1.26531">
        <ele>408</ele>
        <time>2010-01-01T05:19:59Z</time>
      </trkpt>
      <trkpt lat="38.90659" lon="1.26543">
        <ele>409</ele>
        <time>2010-01-01T05:20:03Z</time>
      </trkpt>
      <trkpt lat="38.90658" lon="1.26556">
        <ele>410</ele>
        <time>2010-01-01T05:20:07Z</time>
      </trkpt>
      <trkpt lat="38.90656" lon="1.26567">
        <ele>411</ele>
        <time>2010-01-01T05:20:10Z</time>
      </trkpt>
      <trkpt lat="38.90654" lon="1.2658">
        <ele>411</ele>
        <time>2010-01-01T05:20:14Z</time>
      </trkpt>
      <trkpt lat="38.90652" lon="1.26591">
        <ele>412</ele>
        <time>2010-01-01T05:20:18Z</time>
      </trkpt>
      <trkpt lat="38.90655" lon="1.26603">
        <ele>412</ele>
        <time>2010-01-01T05:20:22Z</time>
      </trkpt>
      <trkpt lat="38.90654" lon="1.26615">
        <ele>413</ele>
        <time>2010-01-01T05:20:26Z</time>
      </trkpt>
      <trkpt lat="38.90655" lon="1.26628">
        <ele>413</ele>
        <time>2010-01-01T05:20:29Z</time>
      </trkpt>
      <trkpt lat="38.90655" lon="1.26641">
        <ele>413</ele>
        <time>2010-01-01T05:20:33Z</time>
      </trkpt>
      <trkpt lat="38.90656" lon="1.26653">
        <ele>414</ele>
        <time>2010-01-01T05:20:37Z</time>
      </trkpt>
      <trkpt lat="38.90657" lon="1.26666">
        <ele>414</ele>
        <time>2010-01-01T05:20:41Z</time>
      </trkpt>
      <trkpt lat="38.90656" lon="1.26678">
        <ele>415</ele>
        <time>2010-01-01T05:20:45Z</time>
      </trkpt>
      <trkpt lat="38.90658" lon="1.2669">
        <ele>415</ele>
        <time>2010-01-01T05:20:49Z</time>
      </trkpt>
      <trkpt lat="38.90664" lon="1.26701">
        <ele>416</ele>
        <time>2010-01-01T05:20:53Z</time>
      </trkpt>
      <trkpt lat="38.9067" lon="1.26711">
        <ele>417</ele>
        <time>2010-01-01T05:20:57Z</time>
      </trkpt>
      <trkpt lat="38.90675" lon="1.2672">
        <ele>419</ele>
        <time>2010-01-01T05:21:01Z</time>
      </trkpt>
      <trkpt lat="38.90681" lon="1.26729">
        <ele>420</ele>
        <time>2010-01-01T05:21:04Z</time>
      </trkpt>
      <trkpt lat="38.90687" lon="1.26739">
        <ele>421</ele>
        <time>2010-01-01T05:21:08Z</time>
      </trkpt>
      <trkpt lat="38.90693" lon="1.2675">
        <ele>422</ele>
        <time>2010-01-01T05:21:12Z</time>
      </trkpt>
      <trkpt lat="38.90699" lon="1.26759">
        <ele>423</ele>
        <time>2010-01-01T05:21:16Z</time>
      </trkpt>
      <trkpt lat="38.90708" lon="1.26761">
        <ele>424</ele>
        <time>2010-01-01T05:21:20Z</time>
      </trkpt>
      <trkpt lat="38.90718" lon="1.26762">
        <ele>425</ele>
        <time>2010-01-01T05:21:24Z</time>
      </trkpt>
      <trkpt lat="38.90727" lon="1.26768">
        <ele>425</ele>
        <time>2010-01-01T05:21:28Z</time>
      </trkpt>
      <trkpt lat="38.90735" lon="1.26775">
        <ele>425</ele>
        <time>2010-01-01T05:21:32Z</time>
      </trkpt>
      <trkpt lat="38.90745" lon="1.2678">
        <ele>425</ele>
        <time>2010-01-01T05:21:36Z</time>
      </trkpt>
      <trkpt lat="38.90753" lon="1.26785">
        <ele>426</ele>
        <time>2010-01-01T05:21:40Z</time>
      </trkpt>
      <trkpt lat="38.90762" lon="1.2679">
        <ele>427</ele>
        <time>2010-01-01T05:21:44Z</time>
      </trkpt>
      <trkpt lat="38.9077" lon="1.26795">
        <ele>427</ele>
        <time>2010-01-01T05:21:47Z</time>
      </trkpt>
      <trkpt lat="38.9078" lon="1.26802">
        <ele>428</ele>
        <time>2010-01-01T05:21:52Z</time>
      </trkpt>
      <trkpt lat="38.90788" lon="1.26806">
        <ele>430</ele>
        <time>2010-01-01T05:21:55Z</time>
      </trkpt>
      <trkpt lat="38.90796" lon="1.26813">
        <ele>432</ele>
        <time>2010-01-01T05:21:59Z</time>
      </trkpt>
      <trkpt lat="38.90802" lon="1.26823">
        <ele>433</ele>
        <time>2010-01-01T05:22:03Z</time>
      </trkpt>
      <trkpt lat="38.90807" lon="1.26833">
        <ele>434</ele>
        <time>2010-01-01T05:22:07Z</time>
      </trkpt>
      <trkpt lat="38.90815" lon="1.26842">
        <ele>435</ele>
        <time>2010-01-01T05:22:11Z</time>
      </trkpt>
      <trkpt lat="38.90822" lon="1.26849">
        <ele>436</ele>
        <time>2010-01-01T05:22:15Z</time>
      </trkpt>
      <trkpt lat="38.90829" lon="1.26858">
        <ele>436</ele>
        <time>2010-01-01T05:22:18Z</time>
      </trkpt>
      <trkpt lat="38.90834" lon="1.26868">
        <ele>436</ele>
        <time>2010-01-01T05:22:22Z</time>
      </trkpt>
      <trkpt lat="38.90841" lon="1.26878">
        <ele>437</ele>
        <time>2010-01-01T05:22:26Z</time>
      </trkpt>
      <trkpt lat="38.90846" lon="1.26887">
        <ele>438</ele>
        <time>2010-01-01T05:22:30Z</time>
      </trkpt>
      <trkpt lat="38.9085" lon="1.26899">
        <ele>439</ele>
        <time>2010-01-01T05:22:34Z</time>
      </trkpt>
      <trkpt lat="38.90853" lon="1.26911">
        <ele>440</ele>
        <time>2010-01-01T05:22:38Z</time>
      </trkpt>
      <trkpt lat="38.90854" lon="1.26925">
        <ele>442</ele>
        <time>2010-01-01T05:22:42Z</time>
      </trkpt>
      <trkpt lat="38.90859" lon="1.26935">
        <ele>443</ele>
        <time>2010-01-01T05:22:46Z</time>
      </trkpt>
      <trkpt lat="38.90862" lon="1.26948">
        <ele>445</ele>
        <time>2010-01-01T05:22:50Z</time>
      </trkpt>
      <trkpt lat="38.90863" lon="1.26961">
        <ele>446</ele>
        <time>2010-01-01T05:22:54Z</time>
      </trkpt>
      <trkpt lat="38.90866" lon="1.26973">
        <ele>447</ele>
        <time>2010-01-01T05:22:58Z</time>
      </trkpt>
      <trkpt lat="38.90865" lon="1.26985">
        <ele>447</ele>
        <time>2010-01-01T05:23:02Z</time>
      </trkpt>
      <trkpt lat="38.90866" lon="1.26998">
        <ele>448</ele>
        <time>2010-01-01T05:23:06Z</time>
      </trkpt>
      <trkpt lat="38.90867" lon="1.27009">
        <ele>448</ele>
        <time>2010-01-01T05:23:09Z</time>
      </trkpt>
      <trkpt lat="38.90868" lon="1.27021">
        <ele>448</ele>
        <time>2010-01-01T05:23:13Z</time>
      </trkpt>
      <trkpt lat="38.90876" lon="1.27027">
        <ele>449</ele>
        <time>2010-01-01T05:23:17Z</time>
      </trkpt>
      <trkpt lat="38.90885" lon="1.2703">
        <ele>450</ele>
        <time>2010-01-01T05:23:20Z</time>
      </trkpt>
      <trkpt lat="38.90895" lon="1.27029">
        <ele>451</ele>
        <time>2010-01-01T05:23:24Z</time>
      </trkpt>
      <trkpt lat="38.90903" lon="1.27034">
        <ele>453</ele>
        <time>2010-01-01T05:23:28Z</time>
      </trkpt>
      <trkpt lat="38.90913" lon="1.27029">
        <ele>454</ele>
        <time>2010-01-01T05:23:32Z</time>
      </trkpt>
      <trkpt lat="38.90922" lon="1.27032">
        <ele>455</ele>
        <time>2010-01-01T05:23:36Z</time>
      </trkpt>
      <trkpt lat="38.90932" lon="1.27037">
        <ele>456</ele>
        <time>2010-01-01T05:23:40Z</time>
      </trkpt>
      <trkpt lat="38.9094" lon="1.2704">
        <ele>457</ele>
        <time>2010-01-01T05:23:44Z</time>
      </trkpt>
      <trkpt lat="38.90949" lon="1.27048">
        <ele>459</ele>
        <time>2010-01-01T05:23:48Z</time>
      </trkpt>
      <trkpt lat="38.90958" lon="1.27054">
        <ele>460</ele>
        <time>2010-01-01T05:23:52Z</time>
      </trkpt>
      <trkpt lat="38.90963" lon="1.27064">
        <ele>461</ele>
        <time>2010-01-01T05:23:56Z</time>
      </trkpt>
      <trkpt lat="38.9097" lon="1.27074">
        <ele>462</ele>
        <time>2010-01-01T05:24:00Z</time>
      </trkpt>
      <trkpt lat="38.90976" lon="1.27085">
        <ele>463</ele>
        <time>2010-01-01T05:24:04Z</time>
      </trkpt>
      <trkpt lat="38.9098" lon="1.27095">
        <ele>463</ele>
        <time>2010-01-01T05:24:08Z</time>
      </trkpt>
      <trkpt lat="38.90985" lon="1.27105">
        <ele>464</ele>
        <time>2010-01-01T05:24:11Z</time>
      </trkpt>
      <trkpt lat="38.90989" lon="1.27117">
        <ele>465</ele>
        <time>2010-01-01T05:24:15Z</time>
      </trkpt>
      <trkpt lat="38.90994" lon="1.27128">
        <ele>466</ele>
        <time>2010-01-01T05:24:19Z</time>
      </trkpt>
      <trkpt lat="38.91" lon="1.27139">
        <ele>467</ele>
        <time>2010-01-01T05:24:23Z</time>
      </trkpt>
      <trkpt lat="38.91004" lon="1.27151">
        <ele>468</ele>
        <time>2010-01-01T05:24:28Z</time>
      </trkpt>
      <trkpt lat="38.91007" lon="1.27163">
        <ele>468</ele>
        <time>2010-01-01T05:24:31Z</time>
      </trkpt>
      <trkpt lat="38.91013" lon="1.27172">
        <ele>469</ele>
        <time>2010-01-01T05:24:35Z</time>
      </trkpt>
      <trkpt lat="38.9102" lon="1.27183">
        <ele>470</ele>
        <time>2010-01-01T05:24:39Z</time>
      </trkpt>
      <trkpt lat="38.91026" lon="1.27192">
        <ele>471</ele>
        <time>2010-01-01T05:24:43Z</time>
      </trkpt>
      <trkpt lat="38.91032" lon="1.27202">
        <ele>471</ele>
        <time>2010-01-01T05:24:47Z</time>
      </trkpt>
      <trkpt lat="38.91036" lon="1.27213">
        <ele>472</ele>
        <time>2010-01-01T05:24:51Z</time>
      </trkpt>
      <trkpt lat="38.91038" lon="1.27226">
        <ele>472</ele>
        <time>2010-01-01T05:24:55Z</time>
      </trkpt>
      <trkpt lat="38.91044" lon="1.2724">
        <ele>472</ele>
        <time>2010-01-01T05:25:00Z</time>
      </trkpt>
      <trkpt lat="38.91049" lon="1.27252">
        <ele>473</ele>
        <time>2010-01-01T05:25:04Z</time>
      </trkpt>
      <trkpt lat="38.91051" lon="1.27263">
        <ele>474</ele>
        <time>2010-01-01T05:25:08Z</time>
      </trkpt>
      <trkpt lat="38.91056" lon="1.27274">
        <ele>475</ele>
        <time>2010-01-01T05:25:12Z</time>
      </trkpt>
      <trkpt lat="38.9106" lon="1.27286">
        <ele>476</ele>
        <time>2010-01-01T05:25:16Z</time>
      </trkpt>
      <trkpt lat="38.91061" lon="1.27298">
        <ele>477</ele>
        <time>2010-01-01T05:25:19Z</time>
      </trkpt>
      <trkpt lat="38.91064" lon="1.2731">
        <ele>477</ele>
        <time>2010-01-01T05:25:23Z</time>
      </trkpt>
      <trkpt lat="38.91068" lon="1.27321">
        <ele>476</ele>
        <time>2010-01-01T05:25:27Z</time>
      </trkpt>
      <trkpt lat="38.91072" lon="1.27334">
        <ele>476</ele>
        <time>2010-01-01T05:25:31Z</time>
      </trkpt>
      <trkpt lat="38.91077" lon="1.27343">
        <ele>476</ele>
        <time>2010-01-01T05:25:35Z</time>
      </trkpt>
      <trkpt lat="38.91082" lon="1.27353">
        <ele>476</ele>
        <time>2010-01-01T05:25:39Z</time>
      </trkpt>
      <trkpt lat="38.91087" lon="1.27365">
        <ele>475</ele>
        <time>2010-01-01T05:25:43Z</time>
      </trkpt>
      <trkpt lat="38.91093" lon="1.27376">
        <ele>475</ele>
        <time>2010-01-01T05:25:47Z</time>
      </trkpt>
      <trkpt lat="38.91097" lon="1.27389">
        <ele>474</ele>
        <time>2010-01-01T05:25:51Z</time>
      </trkpt>
      <trkpt lat="38.91099" lon="1.274">
        <ele>472</ele>
        <time>2010-01-01T05:25:55Z</time>
      </trkpt>
      <trkpt lat="38.91104" lon="1.27412">
        <ele>470</ele>
        <time>2010-01-01T05:25:59Z</time>
      </trkpt>
      <trkpt lat="38.91107" lon="1.27423">
        <ele>468</ele>
        <time>2010-01-01T05:26:03Z</time>
      </trkpt>
      <trkpt lat="38.91111" lon="1.27436">
        <ele>467</ele>
        <time>2010-01-01T05:26:07Z</time>
      </trkpt>
      <trkpt lat="38.91115" lon="1.27448">
        <ele>465</ele>
        <time>2010-01-01T05:26:11Z</time>
      </trkpt>
      <trkpt lat="38.91118" lon="1.27459">
        <ele>462</ele>
        <time>2010-01-01T05:26:15Z</time>
      </trkpt>
      <trkpt lat="38.91121" lon="1.27472">
        <ele>460</ele>
        <time>2010-01-01T05:26:19Z</time>
      </trkpt>
      <trkpt lat="38.91125" lon="1.27485">
        <ele>457</ele>
        <time>2010-01-01T05:26:23Z</time>
      </trkpt>
      <trkpt lat="38.9113" lon="1.27494">
        <ele>455</ele>
        <time>2010-01-01T05:26:27Z</time>
      </trkpt>
      <trkpt lat="38.91138" lon="1.27503">
        <ele>454</ele>
        <time>2010-01-01T05:26:31Z</time>
      </trkpt>
      <trkpt lat="38.91146" lon="1.27511">
        <ele>453</ele>
        <time>2010-01-01T05:26:35Z</time>
      </trkpt>
      <trkpt lat="38.91155" lon="1.27517">
        <ele>453</ele>
        <time>2010-01-01T05:26:40Z</time>
      </trkpt>
      <trkpt lat="38.91164" lon="1.27522">
        <ele>454</ele>
        <time>2010-01-01T05:26:43Z</time>
      </trkpt>
      <trkpt lat="38.91172" lon="1.27529">
        <ele>453</ele>
        <time>2010-01-01T05:26:47Z</time>
      </trkpt>
      <trkpt lat="38.91182" lon="1.27535">
        <ele>452</ele>
        <time>2010-01-01T05:26:51Z</time>
      </trkpt>
      <trkpt lat="38.91192" lon="1.27537">
        <ele>452</ele>
        <time>2010-01-01T05:26:56Z</time>
      </trkpt>
      <trkpt lat="38.912" lon="1.27544">
        <ele>450</ele>
        <time>2010-01-01T05:26:59Z</time>
      </trkpt>
      <trkpt lat="38.91205" lon="1.27554">
        <ele>448</ele>
        <time>2010-01-01T05:27:03Z</time>
      </trkpt>
      <trkpt lat="38.91214" lon="1.27561">
        <ele>447</ele>
        <time>2010-01-01T05:27:07Z</time>
      </trkpt>
      <trkpt lat="38.91222" lon="1.27571">
        <ele>446</ele>
        <time>2010-01-01T05:27:12Z</time>
      </trkpt>
      <trkpt lat="38.9123" lon="1.27576">
        <ele>445</ele>
        <time>2010-01-01T05:27:15Z</time>
      </trkpt>
      <trkpt lat="38.91234" lon="1.27587">
        <ele>443</ele>
        <time>2010-01-01T05:27:19Z</time>
      </trkpt>
      <trkpt lat="38.91238" lon="1.27598">
        <ele>441</ele>
        <time>2010-01-01T05:27:23Z</time>
      </trkpt>
      <trkpt lat="38.91245" lon="1.27607">
        <ele>440</ele>
        <time>2010-01-01T05:27:27Z</time>
      </trkpt>
      <trkpt lat="38.91252" lon="1.27614">
        <ele>438</ele>
        <time>2010-01-01T05:27:30Z</time>
      </trkpt>
      <trkpt lat="38.91255" lon="1.27626">
        <ele>433</ele>
        <time>2010-01-01T05:27:34Z</time>
      </trkpt>
      <trkpt lat="38.91261" lon="1.27636">
        <ele>431</ele>
        <time>2010-01-01T05:27:38Z</time>
      </trkpt>
      <trkpt lat="38.91267" lon="1.27644">
        <ele>429</ele>
        <time>2010-01-01T05:27:42Z</time>
      </trkpt>
      <trkpt lat="38.91272" lon="1.27655">
        <ele>426</ele>
        <time>2010-01-01T05:27:46Z</time>
      </trkpt>
      <trkpt lat="38.91279" lon="1.27665">
        <ele>424</ele>
        <time>2010-01-01T05:27:50Z</time>
      </trkpt>
      <trkpt lat="38.91287" lon="1.27676">
        <ele>424</ele>
        <time>2010-01-01T05:27:55Z</time>
      </trkpt>
      <trkpt lat="38.91294" lon="1.27685">
        <ele>423</ele>
        <time>2010-01-01T05:27:59Z</time>
      </trkpt>
      <trkpt lat="38.91296" lon="1.27697">
        <ele>418</ele>
        <time>2010-01-01T05:28:02Z</time>
      </trkpt>
      <trkpt lat="38.91303" lon="1.27704">
        <ele>418</ele>
        <time>2010-01-01T05:28:06Z</time>
      </trkpt>
      <trkpt lat="38.91309" lon="1.27714">
        <ele>416</ele>
        <time>2010-01-01T05:28:10Z</time>
      </trkpt>
      <trkpt lat="38.91316" lon="1.27725">
        <ele>415</ele>
        <time>2010-01-01T05:28:14Z</time>
      </trkpt>
      <trkpt lat="38.91319" lon="1.27737">
        <ele>411</ele>
        <time>2010-01-01T05:28:18Z</time>
      </trkpt>
      <trkpt lat="38.91323" lon="1.27748">
        <ele>407</ele>
        <time>2010-01-01T05:28:22Z</time>
      </trkpt>
      <trkpt lat="38.91329" lon="1.27758">
        <ele>404</ele>
        <time>2010-01-01T05:28:26Z</time>
      </trkpt>
      <trkpt lat="38.91333" lon="1.27773">
        <ele>400</ele>
        <time>2010-01-01T05:28:31Z</time>
      </trkpt>
      <trkpt lat="38.91339" lon="1.27783">
        <ele>398</ele>
        <time>2010-01-01T05:28:35Z</time>
      </trkpt>
      <trkpt lat="38.91341" lon="1.27794">
        <ele>395</ele>
        <time>2010-01-01T05:28:38Z</time>
      </trkpt>
      <trkpt lat="38.91347" lon="1.27803">
        <ele>393</ele>
        <time>2010-01-01T05:28:42Z</time>
      </trkpt>
      <trkpt lat="38.9135" lon="1.27815">
        <ele>391</ele>
        <time>2010-01-01T05:28:46Z</time>
      </trkpt>
      <trkpt lat="38.91353" lon="1.27827">
        <ele>388</ele>
        <time>2010-01-01T05:28:50Z</time>
      </trkpt>
      <trkpt lat="38.91352" lon="1.27839">
        <ele>385</ele>
        <time>2010-01-01T05:28:54Z</time>
      </trkpt>
      <trkpt lat="38.91356" lon="1.27851">
        <ele>382</ele>
        <time>2010-01-01T05:28:58Z</time>
      </trkpt>
      <trkpt lat="38.91358" lon="1.27863">
        <ele>379</ele>
        <time>2010-01-01T05:29:01Z</time>
      </trkpt>
      <trkpt lat="38.91364" lon="1.27872">
        <ele>378</ele>
        <time>2010-01-01T05:29:05Z</time>
      </trkpt>
      <trkpt lat="38.9137" lon="1.27883">
        <ele>377</ele>
        <time>2010-01-01T05:29:09Z</time>
      </trkpt>
      <trkpt lat="38.91375" lon="1.27893">
        <ele>375</ele>
        <time>2010-01-01T05:29:13Z</time>
      </trkpt>
      <trkpt lat="38.91381" lon="1.27903">
        <ele>373</ele>
        <time>2010-01-01T05:29:17Z</time>
      </trkpt>
      <trkpt lat="38.91389" lon="1.27912">
        <ele>373</ele>
        <time>2010-01-01T05:29:21Z</time>
      </trkpt>
      <trkpt lat="38.91396" lon="1.2792">
        <ele>372</ele>
        <time>2010-01-01T05:29:25Z</time>
      </trkpt>
      <trkpt lat="38.91402" lon="1.27929">
        <ele>369</ele>
        <time>2010-01-01T05:29:29Z</time>
      </trkpt>
      <trkpt lat="38.91407" lon="1.27939">
        <ele>367</ele>
        <time>2010-01-01T05:29:32Z</time>
      </trkpt>
      <trkpt lat="38.91415" lon="1.27945">
        <ele>366</ele>
        <time>2010-01-01T05:29:36Z</time>
      </trkpt>
      <trkpt lat="38.91426" lon="1.27948">
        <ele>366</ele>
        <time>2010-01-01T05:29:40Z</time>
      </trkpt>
      <trkpt lat="38.91436" lon="1.27953">
        <ele>365</ele>
        <time>2010-01-01T05:29:45Z</time>
      </trkpt>
      <trkpt lat="38.91445" lon="1.27957">
        <ele>364</ele>
        <time>2010-01-01T05:29:48Z</time>
      </trkpt>
      <trkpt lat="38.91451" lon="1.27966">
        <ele>361</ele>
        <time>2010-01-01T05:29:52Z</time>
      </trkpt>
      <trkpt lat="38.91459" lon="1.27972">
        <ele>361</ele>
        <time>2010-01-01T05:29:56Z</time>
      </trkpt>
      <trkpt lat="38.91469" lon="1.27976">
        <ele>362</ele>
        <time>2010-01-01T05:30:00Z</time>
      </trkpt>
      <trkpt lat="38.91479" lon="1.27982">
        <ele>361</ele>
        <time>2010-01-01T05:30:04Z</time>
      </trkpt>
      <trkpt lat="38.91486" lon="1.27992">
        <ele>358</ele>
        <time>2010-01-01T05:30:09Z</time>
      </trkpt>
      <trkpt lat="38.9149" lon="1.28003">
        <ele>354</ele>
        <time>2010-01-01T05:30:12Z</time>
      </trkpt>
      <trkpt lat="38.91495" lon="1.2802">
        <ele>348</ele>
        <time>2010-01-01T05:30:18Z</time>
      </trkpt>
      <trkpt lat="38.91501" lon="1.28031">
        <ele>345</ele>
        <time>2010-01-01T05:30:22Z</time>
      </trkpt>
      <trkpt lat="38.91505" lon="1.28043">
        <ele>341</ele>
        <time>2010-01-01T05:30:26Z</time>
      </trkpt>
      <trkpt lat="38.91501" lon="1.28053">
        <ele>337</ele>
        <time>2010-01-01T05:30:30Z</time>
      </trkpt>
      <trkpt lat="38.91507" lon="1.28063">
        <ele>336</ele>
        <time>2010-01-01T05:30:34Z</time>
      </trkpt>
      <trkpt lat="38.9151" lon="1.28076">
        <ele>333</ele>
        <time>2010-01-01T05:30:38Z</time>
      </trkpt>
      <trkpt lat="38.9151" lon="1.28088">
        <ele>331</ele>
        <time>2010-01-01T05:30:42Z</time>
      </trkpt>
      <trkpt lat="38.91512" lon="1.281">
        <ele>330</ele>
        <time>2010-01-01T05:30:45Z</time>
      </trkpt>
      <trkpt lat="38.91515" lon="1.28111">
        <ele>329</ele>
        <time>2010-01-01T05:30:49Z</time>
      </trkpt>
      <trkpt lat="38.91519" lon="1.28121">
        <ele>329</ele>
        <time>2010-01-01T05:30:53Z</time>
      </trkpt>
      <trkpt lat="38.91528" lon="1.28126">
        <ele>331</ele>
        <time>2010-01-01T05:30:57Z</time>
      </trkpt>
      <trkpt lat="38.91538" lon="1.28131">
        <ele>332</ele>
        <time>2010-01-01T05:31:01Z</time>
      </trkpt>
      <trkpt lat="38.91547" lon="1.28135">
        <ele>334</ele>
        <time>2010-01-01T05:31:05Z</time>
      </trkpt>
      <trkpt lat="38.91556" lon="1.28139">
        <ele>335</ele>
        <time>2010-01-01T05:31:09Z</time>
      </trkpt>
      <trkpt lat="38.91566" lon="1.28144">
        <ele>335</ele>
        <time>2010-01-01T05:31:13Z</time>
      </trkpt>
      <trkpt lat="38.91574" lon="1.2815">
        <ele>335</ele>
        <time>2010-01-01T05:31:16Z</time>
      </trkpt>
      <trkpt lat="38.91576" lon="1.28162">
        <ele>338</ele>
        <time>2010-01-01T05:31:20Z</time>
      </trkpt>
      <trkpt lat="38.91583" lon="1.28173">
        <ele>340</ele>
        <time>2010-01-01T05:31:25Z</time>
      </trkpt>
      <trkpt lat="38.91592" lon="1.2818">
        <ele>339</ele>
        <time>2010-01-01T05:31:29Z</time>
      </trkpt>
      <trkpt lat="38.91598" lon="1.28189">
        <ele>339</ele>
        <time>2010-01-01T05:31:33Z</time>
      </trkpt>
      <trkpt lat="38.91605" lon="1.28198">
        <ele>339</ele>
        <time>2010-01-01T05:31:37Z</time>
      </trkpt>
      <trkpt lat="38.91613" lon="1.28205">
        <ele>338</ele>
        <time>2010-01-01T05:31:40Z</time>
      </trkpt>
      <trkpt lat="38.91621" lon="1.28216">
        <ele>337</ele>
        <time>2010-01-01T05:31:45Z</time>
      </trkpt>
      <trkpt lat="38.91628" lon="1.28224">
        <ele>335</ele>
        <time>2010-01-01T05:31:49Z</time>
      </trkpt>
      <trkpt lat="38.91634" lon="1.28234">
        <ele>333</ele>
        <time>2010-01-01T05:31:53Z</time>
      </trkpt>
      <trkpt lat="38.91643" lon="1.28236">
        <ele>331</ele>
        <time>2010-01-01T05:31:56Z</time>
      </trkpt>
      <trkpt lat="38.91652" lon="1.28241">
        <ele>330</ele>
        <time>2010-01-01T05:32:00Z</time>
      </trkpt>
      <trkpt lat="38.91658" lon="1.28251">
        <ele>330</ele>
        <time>2010-01-01T05:32:04Z</time>
      </trkpt>
      <trkpt lat="38.91665" lon="1.28261">
        <ele>328</ele>
        <time>2010-01-01T05:32:08Z</time>
      </trkpt>
      <trkpt lat="38.91671" lon="1.28272">
        <ele>326</ele>
        <time>2010-01-01T05:32:13Z</time>
      </trkpt>
      <trkpt lat="38.91675" lon="1.28284">
        <ele>325</ele>
        <time>2010-01-01T05:32:17Z</time>
      </trkpt>
      <trkpt lat="38.91681" lon="1.28293">
        <ele>324</ele>
        <time>2010-01-01T05:32:20Z</time>
      </trkpt>
      <trkpt lat="38.91686" lon="1.28304">
        <ele>324</ele>
        <time>2010-01-01T05:32:24Z</time>
      </trkpt>
      <trkpt lat="38.9169" lon="1.28316">
        <ele>323</ele>
        <time>2010-01-01T05:32:28Z</time>
      </trkpt>
      <trkpt lat="38.91698" lon="1.28328">
        <ele>323</ele>
        <time>2010-01-01T05:32:33Z</time>
      </trkpt>
      <trkpt lat="38.91703" lon="1.28338">
        <ele>322</ele>
        <time>2010-01-01T05:32:37Z</time>
      </trkpt>
      <trkpt lat="38.91706" lon="1.28349">
        <ele>322</ele>
        <time>2010-01-01T05:32:41Z</time>
      </trkpt>
      <trkpt lat="38.91709" lon="1.2836">
        <ele>322</ele>
        <time>2010-01-01T05:32:44Z</time>
      </trkpt>
      <trkpt lat="38.9171" lon="1.28374">
        <ele>320</ele>
        <time>2010-01-01T05:32:48Z</time>
      </trkpt>
      <trkpt lat="38.9171" lon="1.28387">
        <ele>317</ele>
        <time>2010-01-01T05:32:53Z</time>
      </trkpt>
      <trkpt lat="38.91707" lon="1.28398">
        <ele>313</ele>
        <time>2010-01-01T05:32:56Z</time>
      </trkpt>
      <trkpt lat="38.91714" lon="1.28405">
        <ele>315</ele>
        <time>2010-01-01T05:33:00Z</time>
      </trkpt>
      <trkpt lat="38.91716" lon="1.28418">
        <ele>313</ele>
        <time>2010-01-01T05:33:04Z</time>
      </trkpt>
      <trkpt lat="38.9172" lon="1.28431">
        <ele>314</ele>
        <time>2010-01-01T05:33:08Z</time>
      </trkpt>
      <trkpt lat="38.91722" lon="1.28443">
        <ele>315</ele>
        <time>2010-01-01T05:33:12Z</time>
      </trkpt>
      <trkpt lat="38.91726" lon="1.28458">
        <ele>314</ele>
        <time>2010-01-01T05:33:17Z</time>
      </trkpt>
      <trkpt lat="38.91733" lon="1.28473">
        <ele>316</ele>
        <time>2010-01-01T05:33:23Z</time>
      </trkpt>
      <trkpt lat="38.91735" lon="1.28486">
        <ele>315</ele>
        <time>2010-01-01T05:33:27Z</time>
      </trkpt>
      <trkpt lat="38.91738" lon="1.28498">
        <ele>315</ele>
        <time>2010-01-01T05:33:31Z</time>
      </trkpt>
      <trkpt lat="38.91742" lon="1.28509">
        <ele>316</ele>
        <time>2010-01-01T05:33:35Z</time>
      </trkpt>
      <trkpt lat="38.91746" lon="1.28523">
        <ele>316</ele>
        <time>2010-01-01T05:33:39Z</time>
      </trkpt>
      <trkpt lat="38.9175" lon="1.28534">
        <ele>317</ele>
        <time>2010-01-01T05:33:43Z</time>
      </trkpt>
      <trkpt lat="38.91754" lon="1.28545">
        <ele>318</ele>
        <time>2010-01-01T05:33:47Z</time>
      </trkpt>
      <trkpt lat="38.91755" lon="1.28558">
        <ele>317</ele>
        <time>2010-01-01T05:33:51Z</time>
      </trkpt>
      <trkpt lat="38.91756" lon="1.2857">
        <ele>314</ele>
        <time>2010-01-01T05:33:54Z</time>
      </trkpt>
      <trkpt lat="38.91759" lon="1.28583">
        <ele>311</ele>
        <time>2010-01-01T05:33:59Z</time>
      </trkpt>
      <trkpt lat="38.91764" lon="1.28592">
        <ele>311</ele>
        <time>2010-01-01T05:34:02Z</time>
      </trkpt>
      <trkpt lat="38.9177" lon="1.28603">
        <ele>310</ele>
        <time>2010-01-01T05:34:06Z</time>
      </trkpt>
      <trkpt lat="38.91776" lon="1.28614">
        <ele>309</ele>
        <time>2010-01-01T05:34:10Z</time>
      </trkpt>
      <trkpt lat="38.91782" lon="1.28624">
        <ele>307</ele>
        <time>2010-01-01T05:34:14Z</time>
      </trkpt>
      <trkpt lat="38.91789" lon="1.28632">
        <ele>306</ele>
        <time>2010-01-01T05:34:18Z</time>
      </trkpt>
      <trkpt lat="38.91796" lon="1.28641">
        <ele>305</ele>
        <time>2010-01-01T05:34:22Z</time>
      </trkpt>
      <trkpt lat="38.91802" lon="1.28651">
        <ele>303</ele>
        <time>2010-01-01T05:34:26Z</time>
      </trkpt>
      <trkpt lat="38.91808" lon="1.28661">
        <ele>301</ele>
        <time>2010-01-01T05:34:30Z</time>
      </trkpt>
      <trkpt lat="38.91814" lon="1.2867">
        <ele>298</ele>
        <time>2010-01-01T05:34:34Z</time>
      </trkpt>
      <trkpt lat="38.91822" lon="1.28676">
        <ele>296</ele>
        <time>2010-01-01T05:34:37Z</time>
      </trkpt>
      <trkpt lat="38.91831" lon="1.28683">
        <ele>294</ele>
        <time>2010-01-01T05:34:42Z</time>
      </trkpt>
      <trkpt lat="38.91834" lon="1.28695">
        <ele>289</ele>
        <time>2010-01-01T05:34:45Z</time>
      </trkpt>
      <trkpt lat="38.91843" lon="1.28701">
        <ele>286</ele>
        <time>2010-01-01T05:34:50Z</time>
      </trkpt>
      <trkpt lat="38.91852" lon="1.28706">
        <ele>284</ele>
        <time>2010-01-01T05:34:54Z</time>
      </trkpt>
      <trkpt lat="38.91862" lon="1.28712">
        <ele>281</ele>
        <time>2010-01-01T05:34:58Z</time>
      </trkpt>
      <trkpt lat="38.9187" lon="1.28717">
        <ele>278</ele>
        <time>2010-01-01T05:35:02Z</time>
      </trkpt>
      <trkpt lat="38.9188" lon="1.28722">
        <ele>275</ele>
        <time>2010-01-01T05:35:06Z</time>
      </trkpt>
      <trkpt lat="38.9189" lon="1.28724">
        <ele>273</ele>
        <time>2010-01-01T05:35:10Z</time>
      </trkpt>
      <trkpt lat="38.91899" lon="1.28725">
        <ele>270</ele>
        <time>2010-01-01T05:35:13Z</time>
      </trkpt>
      <trkpt lat="38.91903" lon="1.28736">
        <ele>265</ele>
        <time>2010-01-01T05:35:17Z</time>
      </trkpt>
      <trkpt lat="38.91909" lon="1.28744">
        <ele>261</ele>
        <time>2010-01-01T05:35:21Z</time>
      </trkpt>
      <trkpt lat="38.91917" lon="1.28751">
        <ele>258</ele>
        <time>2010-01-01T05:35:25Z</time>
      </trkpt>
      <trkpt lat="38.91924" lon="1.28759">
        <ele>255</ele>
        <time>2010-01-01T05:35:28Z</time>
      </trkpt>
      <trkpt lat="38.91927" lon="1.28771">
        <ele>251</ele>
        <time>2010-01-01T05:35:32Z</time>
      </trkpt>
      <trkpt lat="38.91926" lon="1.28782">
        <ele>249</ele>
        <time>2010-01-01T05:35:36Z</time>
      </trkpt>
      <trkpt lat="38.91924" lon="1.28796">
        <ele>248</ele>
        <time>2010-01-01T05:35:40Z</time>
      </trkpt>
      <trkpt lat="38.91924" lon="1.28808">
        <ele>247</ele>
        <time>2010-01-01T05:35:44Z</time>
      </trkpt>
      <trkpt lat="38.91932" lon="1.28819">
        <ele>246</ele>
        <time>2010-01-01T05:35:48Z</time>
      </trkpt>
      <trkpt lat="38.91943" lon="1.28823">
        <ele>245</ele>
        <time>2010-01-01T05:35:53Z</time>
      </trkpt>
      <trkpt lat="38.91952" lon="1.28825">
        <ele>244</ele>
        <time>2010-01-01T05:35:57Z</time>
      </trkpt>
      <trkpt lat="38.9196" lon="1.28831">
        <ele>242</ele>
        <time>2010-01-01T05:36:00Z</time>
      </trkpt>
      <trkpt lat="38.91969" lon="1.28839">
        <ele>242</ele>
        <time>2010-01-01T05:36:05Z</time>
      </trkpt>
      <trkpt lat="38.91976" lon="1.28845">
        <ele>242</ele>
        <time>2010-01-01T05:36:08Z</time>
      </trkpt>
      <trkpt lat="38.91985" lon="1.28852">
        <ele>243</ele>
        <time>2010-01-01T05:36:12Z</time>
      </trkpt>
      <trkpt lat="38.91994" lon="1.28853">
        <ele>243</ele>
        <time>2010-01-01T05:36:16Z</time>
      </trkpt>
      <trkpt lat="38.92004" lon="1.28857">
        <ele>244</ele>
        <time>2010-01-01T05:36:20Z</time>
      </trkpt>
      <trkpt lat="38.92014" lon="1.2886">
        <ele>244</ele>
        <time>2010-01-01T05:36:24Z</time>
      </trkpt>
      <trkpt lat="38.92025" lon="1.28864">
        <ele>244</ele>
        <time>2010-01-01T05:36:29Z</time>
      </trkpt>
      <trkpt lat="38.92034" lon="1.28866">
        <ele>243</ele>
        <time>2010-01-01T05:36:32Z</time>
      </trkpt>
      <trkpt lat="38.92044" lon="1.28867">
        <ele>241</ele>
        <time>2010-01-01T05:36:36Z</time>
      </trkpt>
      <trkpt lat="38.92055" lon="1.28869">
        <ele>239</ele>
        <time>2010-01-01T05:36:41Z</time>
      </trkpt>
      <trkpt lat="38.92065" lon="1.28874">
        <ele>240</ele>
        <time>2010-01-01T05:36:45Z</time>
      </trkpt>
      <trkpt lat="38.92075" lon="1.28877">
        <ele>240</ele>
        <time>2010-01-01T05:36:49Z</time>
      </trkpt>
      <trkpt lat="38.92084" lon="1.28881">
        <ele>240</ele>
        <time>2010-01-01T05:36:53Z</time>
      </trkpt>
      <trkpt lat="38.92093" lon="1.28886">
        <ele>240</ele>
        <time>2010-01-01T05:36:57Z</time>
      </trkpt>
      <trkpt lat="38.92101" lon="1.28893">
        <ele>240</ele>
        <time>2010-01-01T05:37:01Z</time>
      </trkpt>
      <trkpt lat="38.9211" lon="1.28894">
        <ele>238</ele>
        <time>2010-01-01T05:37:04Z</time>
      </trkpt>
      <trkpt lat="38.92119" lon="1.28899">
        <ele>236</ele>
        <time>2010-01-01T05:37:08Z</time>
      </trkpt>
      <trkpt lat="38.92128" lon="1.28904">
        <ele>234</ele>
        <time>2010-01-01T05:37:12Z</time>
      </trkpt>
      <trkpt lat="38.92135" lon="1.28912">
        <ele>235</ele>
        <time>2010-01-01T05:37:16Z</time>
      </trkpt>
      <trkpt lat="38.92138" lon="1.28925">
        <ele>236</ele>
        <time>2010-01-01T05:37:20Z</time>
      </trkpt>
      <trkpt lat="38.9214" lon="1.28936">
        <ele>237</ele>
        <time>2010-01-01T05:37:24Z</time>
      </trkpt>
      <trkpt lat="38.92141" lon="1.28949">
        <ele>240</ele>
        <time>2010-01-01T05:37:28Z</time>
      </trkpt>
      <trkpt lat="38.92143" lon="1.28962">
        <ele>240</ele>
        <time>2010-01-01T05:37:32Z</time>
      </trkpt>
      <trkpt lat="38.92147" lon="1.28973">
        <ele>239</ele>
        <time>2010-01-01T05:37:36Z</time>
      </trkpt>
      <trkpt lat="38.92149" lon="1.28986">
        <ele>236</ele>
        <time>2010-01-01T05:37:40Z</time>
      </trkpt>
      <trkpt lat="38.9215" lon="1.29">
        <ele>233</ele>
        <time>2010-01-01T05:37:44Z</time>
      </trkpt>
      <trkpt lat="38.9215" lon="1.29014">
        <ele>231</ele>
        <time>2010-01-01T05:37:49Z</time>
      </trkpt>
      <trkpt lat="38.92151" lon="1.29026">
        <ele>229</ele>
        <time>2010-01-01T05:37:52Z</time>
      </trkpt>
      <trkpt lat="38.92148" lon="1.29037">
        <ele>227</ele>
        <time>2010-01-01T05:37:56Z</time>
      </trkpt>
      <trkpt lat="38.92147" lon="1.2905">
        <ele>225</ele>
        <time>2010-01-01T05:38:00Z</time>
      </trkpt>
      <trkpt lat="38.92144" lon="1.29062">
        <ele>223</ele>
        <time>2010-01-01T05:38:04Z</time>
      </trkpt>
      <trkpt lat="38.92141" lon="1.29073">
        <ele>223</ele>
        <time>2010-01-01T05:38:08Z</time>
      </trkpt>
      <trkpt lat="38.92144" lon="1.29084">
        <ele>220</ele>
        <time>2010-01-01T05:38:11Z</time>
      </trkpt>
      <trkpt lat="38.92139" lon="1.29097">
        <ele>220</ele>
        <time>2010-01-01T05:38:16Z</time>
      </trkpt>
      <trkpt lat="38.92134" lon="1.29107">
        <ele>220</ele>
        <time>2010-01-01T05:38:20Z</time>
      </trkpt>
      <trkpt lat="38.92128" lon="1.29117">
        <ele>221</ele>
        <time>2010-01-01T05:38:24Z</time>
      </trkpt>
      <trkpt lat="38.92123" lon="1.29127">
        <ele>220</ele>
        <time>2010-01-01T05:38:27Z</time>
      </trkpt>
      <trkpt lat="38.92116" lon="1.29139">
        <ele>220</ele>
        <time>2010-01-01T05:38:32Z</time>
      </trkpt>
      <trkpt lat="38.92126" lon="1.2913">
        <ele>219</ele>
        <time>2010-01-01T05:38:36Z</time>
      </trkpt>
      <trkpt lat="38.92134" lon="1.29123">
        <ele>218</ele>
        <time>2010-01-01T05:38:40Z</time>
      </trkpt>
      <trkpt lat="38.92144" lon="1.29117">
        <ele>217</ele>
        <time>2010-01-01T05:38:44Z</time>
      </trkpt>
      <trkpt lat="38.92151" lon="1.2911">
        <ele>216</ele>
        <time>2010-01-01T05:38:48Z</time>
      </trkpt>
      <trkpt lat="38.92157" lon="1.291">
        <ele>216</ele>
        <time>2010-01-01T05:38:52Z</time>
      </trkpt>
      <trkpt lat="38.92172" lon="1.29103">
        <ele>213</ele>
        <time>2010-01-01T05:38:58Z</time>
      </trkpt>
      <trkpt lat="38.92168" lon="1.29116">
        <ele>213</ele>
        <time>2010-01-01T05:39:02Z</time>
      </trkpt>
      <trkpt lat="38.92164" lon="1.29127">
        <ele>213</ele>
        <time>2010-01-01T05:39:06Z</time>
      </trkpt>
      <trkpt lat="38.92157" lon="1.29139">
        <ele>213</ele>
        <time>2010-01-01T05:39:11Z</time>
      </trkpt>
      <trkpt lat="38.92151" lon="1.29149">
        <ele>213</ele>
        <time>2010-01-01T05:39:15Z</time>
      </trkpt>
      <trkpt lat="38.92146" lon="1.29159">
        <ele>212</ele>
        <time>2010-01-01T05:39:19Z</time>
      </trkpt>
      <trkpt lat="38.92143" lon="1.29172">
        <ele>211</ele>
        <time>2010-01-01T05:39:23Z</time>
      </trkpt>
      <trkpt lat="38.92134" lon="1.29184">
        <ele>210</ele>
        <time>2010-01-01T05:39:28Z</time>
      </trkpt>
      <trkpt lat="38.92133" lon="1.29197">
        <ele>209</ele>
        <time>2010-01-01T05:39:32Z</time>
      </trkpt>
      <trkpt lat="38.92136" lon="1.2921">
        <ele>207</ele>
        <time>2010-01-01T05:39:36Z</time>
      </trkpt>
      <trkpt lat="38.92139" lon="1.29222">
        <ele>206</ele>
        <time>2010-01-01T05:39:40Z</time>
      </trkpt>
      <trkpt lat="38.92143" lon="1.29235">
        <ele>204</ele>
        <time>2010-01-01T05:39:44Z</time>
      </trkpt>
      <trkpt lat="38.92147" lon="1.29247">
        <ele>203</ele>
        <time>2010-01-01T05:39:48Z</time>
      </trkpt>
      <trkpt lat="38.92151" lon="1.29258">
        <ele>202</ele>
        <time>2010-01-01T05:39:52Z</time>
      </trkpt>
      <trkpt lat="38.92158" lon="1.29269">
        <ele>202</ele>
        <time>2010-01-01T05:39:57Z</time>
      </trkpt>
      <trkpt lat="38.92158" lon="1.29281">
        <ele>202</ele>
        <time>2010-01-01T05:40:01Z</time>
      </trkpt>
      <trkpt lat="38.92154" lon="1.29294">
        <ele>202</ele>
        <time>2010-01-01T05:40:05Z</time>
      </trkpt>
      <trkpt lat="38.92163" lon="1.29297">
        <ele>202</ele>
        <time>2010-01-01T05:40:08Z</time>
      </trkpt>
      <trkpt lat="38.92173" lon="1.29302">
        <ele>202</ele>
        <time>2010-01-01T05:40:13Z</time>
      </trkpt>
      <trkpt lat="38.9218" lon="1.29311">
        <ele>202</ele>
        <time>2010-01-01T05:40:17Z</time>
      </trkpt>
      <trkpt lat="38.92185" lon="1.29321">
        <ele>202</ele>
        <time>2010-01-01T05:40:20Z</time>
      </trkpt>
      <trkpt lat="38.92194" lon="1.29326">
        <ele>202</ele>
        <time>2010-01-01T05:40:24Z</time>
      </trkpt>
      <trkpt lat="38.92185" lon="1.29324">
        <ele>202</ele>
        <time>2010-01-01T05:40:28Z</time>
      </trkpt>
      <trkpt lat="38.92181" lon="1.29336">
        <ele>202</ele>
        <time>2010-01-01T05:40:32Z</time>
      </trkpt>
      <trkpt lat="38.92179" lon="1.29347">
        <ele>201</ele>
        <time>2010-01-01T05:40:35Z</time>
      </trkpt>
      <trkpt lat="38.92181" lon="1.29361">
        <ele>200</ele>
        <time>2010-01-01T05:40:40Z</time>
      </trkpt>
      <trkpt lat="38.92178" lon="1.29375">
        <ele>200</ele>
        <time>2010-01-01T05:40:44Z</time>
      </trkpt>
      <trkpt lat="38.92176" lon="1.29386">
        <ele>199</ele>
        <time>2010-01-01T05:40:48Z</time>
      </trkpt>
      <trkpt lat="38.92176" lon="1.29399">
        <ele>198</ele>
        <time>2010-01-01T05:40:52Z</time>
      </trkpt>
      <trkpt lat="38.92174" lon="1.29412">
        <ele>198</ele>
        <time>2010-01-01T05:40:56Z</time>
      </trkpt>
      <trkpt lat="38.92172" lon="1.29424">
        <ele>197</ele>
        <time>2010-01-01T05:41:00Z</time>
      </trkpt>
      <trkpt lat="38.92181" lon="1.29431">
        <ele>198</ele>
        <time>2010-01-01T05:41:04Z</time>
      </trkpt>
      <trkpt lat="38.92191" lon="1.29433">
        <ele>199</ele>
        <time>2010-01-01T05:41:08Z</time>
      </trkpt>
      <trkpt lat="38.92197" lon="1.29443">
        <ele>199</ele>
        <time>2010-01-01T05:41:11Z</time>
      </trkpt>
      <trkpt lat="38.92199" lon="1.29455">
        <ele>199</ele>
        <time>2010-01-01T05:41:15Z</time>
      </trkpt>
      <trkpt lat="38.92202" lon="1.29465">
        <ele>198</ele>
        <time>2010-01-01T05:41:19Z</time>
      </trkpt>
      <trkpt lat="38.92206" lon="1.29477">
        <ele>198</ele>
        <time>2010-01-01T05:41:23Z</time>
      </trkpt>
      <trkpt lat="38.92212" lon="1.29488">
        <ele>198</ele>
        <time>2010-01-01T05:41:27Z</time>
      </trkpt>
      <trkpt lat="38.92216" lon="1.29499">
        <ele>197</ele>
        <time>2010-01-01T05:41:31Z</time>
      </trkpt>
      <trkpt lat="38.92218" lon="1.29511">
        <ele>196</ele>
        <time>2010-01-01T05:41:35Z</time>
      </trkpt>
      <trkpt lat="38.92225" lon="1.29522">
        <ele>195</ele>
        <time>2010-01-01T05:41:39Z</time>
      </trkpt>
      <trkpt lat="38.92233" lon="1.29529">
        <ele>196</ele>
        <time>2010-01-01T05:41:43Z</time>
      </trkpt>
      <trkpt lat="38.92244" lon="1.29534">
        <ele>197</ele>
        <time>2010-01-01T05:41:47Z</time>
      </trkpt>
      <trkpt lat="38.92253" lon="1.2954">
        <ele>197</ele>
        <time>2010-01-01T05:41:51Z</time>
      </trkpt>
      <trkpt lat="38.92263" lon="1.29543">
        <ele>197</ele>
        <time>2010-01-01T05:41:55Z</time>
      </trkpt>
      <trkpt lat="38.92272" lon="1.29547">
        <ele>197</ele>
        <time>2010-01-01T05:42:00Z</time>
      </trkpt>
      <trkpt lat="38.9228" lon="1.29552">
        <ele>196</ele>
        <time>2010-01-01T05:42:03Z</time>
      </trkpt>
      <trkpt lat="38.92289" lon="1.29558">
        <ele>195</ele>
        <time>2010-01-01T05:42:07Z</time>
      </trkpt>
      <trkpt lat="38.92293" lon="1.29572">
        <ele>193</ele>
        <time>2010-01-01T05:42:12Z</time>
      </trkpt>
      <trkpt lat="38.92302" lon="1.29577">
        <ele>193</ele>
        <time>2010-01-01T05:42:16Z</time>
      </trkpt>
      <trkpt lat="38.92314" lon="1.2958">
        <ele>193</ele>
        <time>2010-01-01T05:42:20Z</time>
      </trkpt>
      <trkpt lat="38.92323" lon="1.29584">
        <ele>192</ele>
        <time>2010-01-01T05:42:24Z</time>
      </trkpt>
      <trkpt lat="38.92331" lon="1.2959">
        <ele>191</ele>
        <time>2010-01-01T05:42:28Z</time>
      </trkpt>
      <trkpt lat="38.9234" lon="1.29595">
        <ele>191</ele>
        <time>2010-01-01T05:42:32Z</time>
      </trkpt>
      <trkpt lat="38.9235" lon="1.296">
        <ele>191</ele>
        <time>2010-01-01T05:42:36Z</time>
      </trkpt>
      <trkpt lat="38.92358" lon="1.29607">
        <ele>191</ele>
        <time>2010-01-01T05:42:40Z</time>
      </trkpt>
      <trkpt lat="38.92361" lon="1.29619">
        <ele>190</ele>
        <time>2010-01-01T05:42:44Z</time>
      </trkpt>
      <trkpt lat="38.92361" lon="1.29633">
        <ele>190</ele>
        <time>2010-01-01T05:42:48Z</time>
      </trkpt>
      <trkpt lat="38.92365" lon="1.29647">
        <ele>189</ele>
        <time>2010-01-01T05:42:53Z</time>
      </trkpt>
      <trkpt lat="38.92369" lon="1.29658">
        <ele>188</ele>
        <time>2010-01-01T05:42:57Z</time>
      </trkpt>
      <trkpt lat="38.92373" lon="1.29668">
        <ele>188</ele>
        <time>2010-01-01T05:43:00Z</time>
      </trkpt>
      <trkpt lat="38.92376" lon="1.29682">
        <ele>186</ele>
        <time>2010-01-01T05:43:05Z</time>
      </trkpt>
      <trkpt lat="38.92376" lon="1.29695">
        <ele>185</ele>
        <time>2010-01-01T05:43:09Z</time>
      </trkpt>
      <trkpt lat="38.92383" lon="1.29707">
        <ele>185</ele>
        <time>2010-01-01T05:43:13Z</time>
      </trkpt>
      <trkpt lat="38.92387" lon="1.29718">
        <ele>185</ele>
        <time>2010-01-01T05:43:17Z</time>
      </trkpt>
      <trkpt lat="38.92385" lon="1.29731">
        <ele>184</ele>
        <time>2010-01-01T05:43:21Z</time>
      </trkpt>
      <trkpt lat="38.92379" lon="1.29741">
        <ele>184</ele>
        <time>2010-01-01T05:43:25Z</time>
      </trkpt>
      <trkpt lat="38.92376" lon="1.29753">
        <ele>184</ele>
        <time>2010-01-01T05:43:29Z</time>
      </trkpt>
      <trkpt lat="38.92377" lon="1.29765">
        <ele>184</ele>
        <time>2010-01-01T05:43:33Z</time>
      </trkpt>
      <trkpt lat="38.92378" lon="1.29777">
        <ele>184</ele>
        <time>2010-01-01T05:43:37Z</time>
      </trkpt>
      <trkpt lat="38.92378" lon="1.29789">
        <ele>184</ele>
        <time>2010-01-01T05:43:40Z</time>
      </trkpt>
      <trkpt lat="38.92384" lon="1.298">
        <ele>184</ele>
        <time>2010-01-01T05:43:45Z</time>
      </trkpt>
      <trkpt lat="38.92384" lon="1.29812">
        <ele>184</ele>
        <time>2010-01-01T05:43:48Z</time>
      </trkpt>
      <trkpt lat="38.92382" lon="1.29824">
        <ele>183</ele>
        <time>2010-01-01T05:43:52Z</time>
      </trkpt>
      <trkpt lat="38.92382" lon="1.29838">
        <ele>183</ele>
        <time>2010-01-01T05:43:56Z</time>
      </trkpt>
      <trkpt lat="38.92382" lon="1.2985">
        <ele>183</ele>
        <time>2010-01-01T05:44:00Z</time>
      </trkpt>
      <trkpt lat="38.9238" lon="1.29862">
        <ele>183</ele>
        <time>2010-01-01T05:44:04Z</time>
      </trkpt>
      <trkpt lat="38.9238" lon="1.29875">
        <ele>183</ele>
        <time>2010-01-01T05:44:08Z</time>
      </trkpt>
      <trkpt lat="38.92379" lon="1.29888">
        <ele>183</ele>
        <time>2010-01-01T05:44:12Z</time>
      </trkpt>
      <trkpt lat="38.92378" lon="1.29901">
        <ele>182</ele>
        <time>2010-01-01T05:44:16Z</time>
      </trkpt>
      <trkpt lat="38.92372" lon="1.29913">
        <ele>181</ele>
        <time>2010-01-01T05:44:21Z</time>
      </trkpt>
      <trkpt lat="38.92369" lon="1.29925">
        <ele>180</ele>
        <time>2010-01-01T05:44:24Z</time>
      </trkpt>
      <trkpt lat="38.92364" lon="1.29937">
        <ele>180</ele>
        <time>2010-01-01T05:44:28Z</time>
      </trkpt>
      <trkpt lat="38.92359" lon="1.29948">
        <ele>179</ele>
        <time>2010-01-01T05:44:33Z</time>
      </trkpt>
      <trkpt lat="38.92355" lon="1.29961">
        <ele>179</ele>
        <time>2010-01-01T05:44:37Z</time>
      </trkpt>
      <trkpt lat="38.92347" lon="1.29969">
        <ele>179</ele>
        <time>2010-01-01T05:44:41Z</time>
      </trkpt>
      <trkpt lat="38.9234" lon="1.29977">
        <ele>179</ele>
        <time>2010-01-01T05:44:45Z</time>
      </trkpt>
      <trkpt lat="38.92334" lon="1.29989">
        <ele>180</ele>
        <time>2010-01-01T05:44:49Z</time>
      </trkpt>
      <trkpt lat="38.9233" lon="1.30003">
        <ele>180</ele>
        <time>2010-01-01T05:44:54Z</time>
      </trkpt>
      <trkpt lat="38.92323" lon="1.30013">
        <ele>180</ele>
        <time>2010-01-01T05:44:58Z</time>
      </trkpt>
      <trkpt lat="38.92322" lon="1.30025">
        <ele>180</ele>
        <time>2010-01-01T05:45:02Z</time>
      </trkpt>
      <trkpt lat="38.9232" lon="1.30039">
        <ele>180</ele>
        <time>2010-01-01T05:45:06Z</time>
      </trkpt>
      <trkpt lat="38.92319" lon="1.30052">
        <ele>181</ele>
        <time>2010-01-01T05:45:10Z</time>
      </trkpt>
      <trkpt lat="38.92313" lon="1.30061">
        <ele>180</ele>
        <time>2010-01-01T05:45:14Z</time>
      </trkpt>
      <trkpt lat="38.92303" lon="1.30063">
        <ele>179</ele>
        <time>2010-01-01T05:45:18Z</time>
      </trkpt>
      <trkpt lat="38.92297" lon="1.30073">
        <ele>178</ele>
        <time>2010-01-01T05:45:22Z</time>
      </trkpt>
      <trkpt lat="38.92293" lon="1.30084">
        <ele>178</ele>
        <time>2010-01-01T05:45:26Z</time>
      </trkpt>
      <trkpt lat="38.92287" lon="1.30094">
        <ele>177</ele>
        <time>2010-01-01T05:45:30Z</time>
      </trkpt>
      <trkpt lat="38.92285" lon="1.30107">
        <ele>176</ele>
        <time>2010-01-01T05:45:34Z</time>
      </trkpt>
      <trkpt lat="38.92282" lon="1.30118">
        <ele>175</ele>
        <time>2010-01-01T05:45:37Z</time>
      </trkpt>
      <trkpt lat="38.92276" lon="1.30131">
        <ele>174</ele>
        <time>2010-01-01T05:45:42Z</time>
      </trkpt>
      <trkpt lat="38.92269" lon="1.30138">
        <ele>174</ele>
        <time>2010-01-01T05:45:46Z</time>
      </trkpt>
      <trkpt lat="38.92259" lon="1.30145">
        <ele>172</ele>
        <time>2010-01-01T05:45:50Z</time>
      </trkpt>
      <trkpt lat="38.9225" lon="1.30154">
        <ele>171</ele>
        <time>2010-01-01T05:45:55Z</time>
      </trkpt>
      <trkpt lat="38.92241" lon="1.30161">
        <ele>171</ele>
        <time>2010-01-01T05:45:59Z</time>
      </trkpt>
      <trkpt lat="38.92234" lon="1.30168">
        <ele>170</ele>
        <time>2010-01-01T05:46:03Z</time>
      </trkpt>
      <trkpt lat="38.92227" lon="1.30178">
        <ele>170</ele>
        <time>2010-01-01T05:46:07Z</time>
      </trkpt>
      <trkpt lat="38.92222" lon="1.30189">
        <ele>169</ele>
        <time>2010-01-01T05:46:11Z</time>
      </trkpt>
      <trkpt lat="38.92216" lon="1.30198">
        <ele>169</ele>
        <time>2010-01-01T05:46:14Z</time>
      </trkpt>
      <trkpt lat="38.92209" lon="1.30206">
        <ele>169</ele>
        <time>2010-01-01T05:46:18Z</time>
      </trkpt>
      <trkpt lat="38.92209" lon="1.30218">
        <ele>169</ele>
        <time>2010-01-01T05:46:22Z</time>
      </trkpt>
      <trkpt lat="38.9221" lon="1.30231">
        <ele>169</ele>
        <time>2010-01-01T05:46:26Z</time>
      </trkpt>
      <trkpt lat="38.92211" lon="1.30244">
        <ele>170</ele>
        <time>2010-01-01T05:46:30Z</time>
      </trkpt>
      <trkpt lat="38.92211" lon="1.30259">
        <ele>170</ele>
        <time>2010-01-01T05:46:34Z</time>
      </trkpt>
      <trkpt lat="38.92213" lon="1.3027">
        <ele>170</ele>
        <time>2010-01-01T05:46:38Z</time>
      </trkpt>
      <trkpt lat="38.92214" lon="1.30284">
        <ele>170</ele>
        <time>2010-01-01T05:46:42Z</time>
      </trkpt>
      <trkpt lat="38.92215" lon="1.30297">
        <ele>170</ele>
        <time>2010-01-01T05:46:47Z</time>
      </trkpt>
      <trkpt lat="38.92215" lon="1.30309">
        <ele>170</ele>
        <time>2010-01-01T05:46:50Z</time>
      </trkpt>
      <trkpt lat="38.92215" lon="1.30322">
        <ele>170</ele>
        <time>2010-01-01T05:46:54Z</time>
      </trkpt>
      <trkpt lat="38.92216" lon="1.30335">
        <ele>169</ele>
        <time>2010-01-01T05:46:59Z</time>
      </trkpt>
      <trkpt lat="38.92216" lon="1.3035">
        <ele>169</ele>
        <time>2010-01-01T05:47:03Z</time>
      </trkpt>
      <trkpt lat="38.92215" lon="1.30364">
        <ele>169</ele>
        <time>2010-01-01T05:47:07Z</time>
      </trkpt>
      <trkpt lat="38.92212" lon="1.30376">
        <ele>168</ele>
        <time>2010-01-01T05:47:11Z</time>
      </trkpt>
      <trkpt lat="38.92205" lon="1.30385">
        <ele>167</ele>
        <time>2010-01-01T05:47:15Z</time>
      </trkpt>
      <trkpt lat="38.92199" lon="1.30395">
        <ele>167</ele>
        <time>2010-01-01T05:47:19Z</time>
      </trkpt>
      <trkpt lat="38.92195" lon="1.30407">
        <ele>167</ele>
        <time>2010-01-01T05:47:23Z</time>
      </trkpt>
      <trkpt lat="38.92195" lon="1.30419">
        <ele>166</ele>
        <time>2010-01-01T05:47:27Z</time>
      </trkpt>
      <trkpt lat="38.92196" lon="1.30433">
        <ele>165</ele>
        <time>2010-01-01T05:47:31Z</time>
      </trkpt>
      <trkpt lat="38.92198" lon="1.30445">
        <ele>165</ele>
        <time>2010-01-01T05:47:35Z</time>
      </trkpt>
      <trkpt lat="38.92196" lon="1.30458">
        <ele>164</ele>
        <time>2010-01-01T05:47:39Z</time>
      </trkpt>
      <trkpt lat="38.92192" lon="1.30468">
        <ele>164</ele>
        <time>2010-01-01T05:47:43Z</time>
      </trkpt>
      <trkpt lat="38.92194" lon="1.30481">
        <ele>163</ele>
        <time>2010-01-01T05:47:47Z</time>
      </trkpt>
      <trkpt lat="38.92197" lon="1.30492">
        <ele>163</ele>
        <time>2010-01-01T05:47:51Z</time>
      </trkpt>
      <trkpt lat="38.922" lon="1.30503">
        <ele>163</ele>
        <time>2010-01-01T05:47:54Z</time>
      </trkpt>
      <trkpt lat="38.92205" lon="1.30514">
        <ele>164</ele>
        <time>2010-01-01T05:47:59Z</time>
      </trkpt>
      <trkpt lat="38.922" lon="1.30526">
        <ele>163</ele>
        <time>2010-01-01T05:48:03Z</time>
      </trkpt>
      <trkpt lat="38.9219" lon="1.3053">
        <ele>162</ele>
        <time>2010-01-01T05:48:07Z</time>
      </trkpt>
      <trkpt lat="38.92186" lon="1.30541">
        <ele>162</ele>
        <time>2010-01-01T05:48:11Z</time>
      </trkpt>
      <trkpt lat="38.92186" lon="1.30554">
        <ele>162</ele>
        <time>2010-01-01T05:48:15Z</time>
      </trkpt>
      <trkpt lat="38.92186" lon="1.30567">
        <ele>163</ele>
        <time>2010-01-01T05:48:19Z</time>
      </trkpt>
      <trkpt lat="38.92186" lon="1.30581">
        <ele>163</ele>
        <time>2010-01-01T05:48:23Z</time>
      </trkpt>
      <trkpt lat="38.9219" lon="1.30593">
        <ele>162</ele>
        <time>2010-01-01T05:48:27Z</time>
      </trkpt>
      <trkpt lat="38.92186" lon="1.30604">
        <ele>162</ele>
        <time>2010-01-01T05:48:31Z</time>
      </trkpt>
      <trkpt lat="38.92186" lon="1.30617">
        <ele>161</ele>
        <time>2010-01-01T05:48:35Z</time>
      </trkpt>
      <trkpt lat="38.92187" lon="1.3063">
        <ele>161</ele>
        <time>2010-01-01T05:48:39Z</time>
      </trkpt>
      <trkpt lat="38.92188" lon="1.30643">
        <ele>160</ele>
        <time>2010-01-01T05:48:43Z</time>
      </trkpt>
      <trkpt lat="38.92187" lon="1.30655">
        <ele>160</ele>
        <time>2010-01-01T05:48:47Z</time>
      </trkpt>
      <trkpt lat="38.92186" lon="1.30667">
        <ele>160</ele>
        <time>2010-01-01T05:48:51Z</time>
      </trkpt>
      <trkpt lat="38.9218" lon="1.30678">
        <ele>160</ele>
        <time>2010-01-01T05:48:55Z</time>
      </trkpt>
      <trkpt lat="38.92174" lon="1.30688">
        <ele>159</ele>
        <time>2010-01-01T05:48:59Z</time>
      </trkpt>
      <trkpt lat="38.92173" lon="1.307">
        <ele>159</ele>
        <time>2010-01-01T05:49:03Z</time>
      </trkpt>
      <trkpt lat="38.92172" lon="1.30714">
        <ele>159</ele>
        <time>2010-01-01T05:49:07Z</time>
      </trkpt>
      <trkpt lat="38.92171" lon="1.30727">
        <ele>159</ele>
        <time>2010-01-01T05:49:11Z</time>
      </trkpt>
      <trkpt lat="38.9217" lon="1.30741">
        <ele>159</ele>
        <time>2010-01-01T05:49:15Z</time>
      </trkpt>
      <trkpt lat="38.92168" lon="1.30755">
        <ele>159</ele>
        <time>2010-01-01T05:49:20Z</time>
      </trkpt>
      <trkpt lat="38.92165" lon="1.30769">
        <ele>158</ele>
        <time>2010-01-01T05:49:24Z</time>
      </trkpt>
      <trkpt lat="38.92164" lon="1.30781">
        <ele>158</ele>
        <time>2010-01-01T05:49:28Z</time>
      </trkpt>
      <trkpt lat="38.92165" lon="1.30792">
        <ele>159</ele>
        <time>2010-01-01T05:49:32Z</time>
      </trkpt>
      <trkpt lat="38.92165" lon="1.30805">
        <ele>159</ele>
        <time>2010-01-01T05:49:36Z</time>
      </trkpt>
      <trkpt lat="38.92164" lon="1.30818">
        <ele>159</ele>
        <time>2010-01-01T05:49:40Z</time>
      </trkpt>
      <trkpt lat="38.92163" lon="1.3083">
        <ele>159</ele>
        <time>2010-01-01T05:49:43Z</time>
      </trkpt>
      <trkpt lat="38.92161" lon="1.30842">
        <ele>160</ele>
        <time>2010-01-01T05:49:47Z</time>
      </trkpt>
      <trkpt lat="38.92161" lon="1.30855">
        <ele>161</ele>
        <time>2010-01-01T05:49:51Z</time>
      </trkpt>
      <trkpt lat="38.92157" lon="1.30868">
        <ele>161</ele>
        <time>2010-01-01T05:49:55Z</time>
      </trkpt>
      <trkpt lat="38.92152" lon="1.30878">
        <ele>162</ele>
        <time>2010-01-01T05:49:59Z</time>
      </trkpt>
      <trkpt lat="38.92145" lon="1.30887">
        <ele>162</ele>
        <time>2010-01-01T05:50:03Z</time>
      </trkpt>
      <trkpt lat="38.92138" lon="1.30896">
        <ele>162</ele>
        <time>2010-01-01T05:50:07Z</time>
      </trkpt>
      <trkpt lat="38.92133" lon="1.30906">
        <ele>163</ele>
        <time>2010-01-01T05:50:11Z</time>
      </trkpt>
      <trkpt lat="38.92133" lon="1.3092">
        <ele>164</ele>
        <time>2010-01-01T05:50:15Z</time>
      </trkpt>
      <trkpt lat="38.92132" lon="1.30932">
        <ele>164</ele>
        <time>2010-01-01T05:50:19Z</time>
      </trkpt>
      <trkpt lat="38.92133" lon="1.30944">
        <ele>165</ele>
        <time>2010-01-01T05:50:23Z</time>
      </trkpt>
      <trkpt lat="38.92132" lon="1.30957">
        <ele>165</ele>
        <time>2010-01-01T05:50:27Z</time>
      </trkpt>
      <trkpt lat="38.92133" lon="1.30969">
        <ele>165</ele>
        <time>2010-01-01T05:50:31Z</time>
      </trkpt>
      <trkpt lat="38.92134" lon="1.30981">
        <ele>166</ele>
        <time>2010-01-01T05:50:34Z</time>
      </trkpt>
      <trkpt lat="38.92134" lon="1.30993">
        <ele>166</ele>
        <time>2010-01-01T05:50:38Z</time>
      </trkpt>
      <trkpt lat="38.92136" lon="1.31006">
        <ele>167</ele>
        <time>2010-01-01T05:50:42Z</time>
      </trkpt>
      <trkpt lat="38.92137" lon="1.3102">
        <ele>167</ele>
        <time>2010-01-01T05:50:46Z</time>
      </trkpt>
      <trkpt lat="38.92137" lon="1.31033">
        <ele>168</ele>
        <time>2010-01-01T05:50:50Z</time>
      </trkpt>
      <trkpt lat="38.92137" lon="1.31045">
        <ele>169</ele>
        <time>2010-01-01T05:50:54Z</time>
      </trkpt>
      <trkpt lat="38.92142" lon="1.31056">
        <ele>171</ele>
        <time>2010-01-01T05:50:58Z</time>
      </trkpt>
      <trkpt lat="38.92144" lon="1.31068">
        <ele>172</ele>
        <time>2010-01-01T05:51:02Z</time>
      </trkpt>
      <trkpt lat="38.92144" lon="1.3108">
        <ele>172</ele>
        <time>2010-01-01T05:51:06Z</time>
      </trkpt>
      <trkpt lat="38.92144" lon="1.31092">
        <ele>173</ele>
        <time>2010-01-01T05:51:10Z</time>
      </trkpt>
      <trkpt lat="38.92144" lon="1.31104">
        <ele>173</ele>
        <time>2010-01-01T05:51:13Z</time>
      </trkpt>
      <trkpt lat="38.92143" lon="1.31117">
        <ele>174</ele>
        <time>2010-01-01T05:51:17Z</time>
      </trkpt>
      <trkpt lat="38.92142" lon="1.31129">
        <ele>175</ele>
        <time>2010-01-01T05:51:21Z</time>
      </trkpt>
      <trkpt lat="38.92139" lon="1.31142">
        <ele>177</ele>
        <time>2010-01-01T05:51:25Z</time>
      </trkpt>
      <trkpt lat="38.92138" lon="1.31153">
        <ele>178</ele>
        <time>2010-01-01T05:51:29Z</time>
      </trkpt>
      <trkpt lat="38.9214" lon="1.31165">
        <ele>179</ele>
        <time>2010-01-01T05:51:33Z</time>
      </trkpt>
      <trkpt lat="38.92143" lon="1.31177">
        <ele>181</ele>
        <time>2010-01-01T05:51:37Z</time>
      </trkpt>
      <trkpt lat="38.92145" lon="1.31189">
        <ele>182</ele>
        <time>2010-01-01T05:51:40Z</time>
      </trkpt>
      <trkpt lat="38.92146" lon="1.31201">
        <ele>183</ele>
        <time>2010-01-01T05:51:44Z</time>
      </trkpt>
      <trkpt lat="38.92146" lon="1.31214">
        <ele>184</ele>
        <time>2010-01-01T05:51:48Z</time>
      </trkpt>
      <trkpt lat="38.92147" lon="1.31227">
        <ele>185</ele>
        <time>2010-01-01T05:51:52Z</time>
      </trkpt>
      <trkpt lat="38.9215" lon="1.31239">
        <ele>187</ele>
        <time>2010-01-01T05:51:56Z</time>
      </trkpt>
      <trkpt lat="38.92159" lon="1.31243">
        <ele>189</ele>
        <time>2010-01-01T05:52:00Z</time>
      </trkpt>
      <trkpt lat="38.92168" lon="1.31243">
        <ele>190</ele>
        <time>2010-01-01T05:52:03Z</time>
      </trkpt>
      <trkpt lat="38.92177" lon="1.31246">
        <ele>192</ele>
        <time>2010-01-01T05:52:07Z</time>
      </trkpt>
      <trkpt lat="38.92186" lon="1.31249">
        <ele>193</ele>
        <time>2010-01-01T05:52:11Z</time>
      </trkpt>
      <trkpt lat="38.92195" lon="1.31252">
        <ele>195</ele>
        <time>2010-01-01T05:52:15Z</time>
      </trkpt>
      <trkpt lat="38.92205" lon="1.31255">
        <ele>196</ele>
        <time>2010-01-01T05:52:19Z</time>
      </trkpt>
      <trkpt lat="38.92213" lon="1.31262">
        <ele>198</ele>
        <time>2010-01-01T05:52:23Z</time>
      </trkpt>
      <trkpt lat="38.92223" lon="1.31265">
        <ele>200</ele>
        <time>2010-01-01T05:52:27Z</time>
      </trkpt>
      <trkpt lat="38.92228" lon="1.31275">
        <ele>201</ele>
        <time>2010-01-01T05:52:31Z</time>
      </trkpt>
      <trkpt lat="38.92227" lon="1.31288">
        <ele>202</ele>
        <time>2010-01-01T05:52:35Z</time>
      </trkpt>
      <trkpt lat="38.92232" lon="1.31298">
        <ele>203</ele>
        <time>2010-01-01T05:52:38Z</time>
      </trkpt>
      <trkpt lat="38.92238" lon="1.31308">
        <ele>205</ele>
        <time>2010-01-01T05:52:42Z</time>
      </trkpt>
      <trkpt lat="38.92245" lon="1.31316">
        <ele>207</ele>
        <time>2010-01-01T05:52:46Z</time>
      </trkpt>
      <trkpt lat="38.92254" lon="1.31321">
        <ele>208</ele>
        <time>2010-01-01T05:52:50Z</time>
      </trkpt>
      <trkpt lat="38.92259" lon="1.31331">
        <ele>210</ele>
        <time>2010-01-01T05:52:54Z</time>
      </trkpt>
      <trkpt lat="38.92264" lon="1.31341">
        <ele>212</ele>
        <time>2010-01-01T05:52:57Z</time>
      </trkpt>
      <trkpt lat="38.92269" lon="1.31352">
        <ele>214</ele>
        <time>2010-01-01T05:53:01Z</time>
      </trkpt>
      <trkpt lat="38.92276" lon="1.3136">
        <ele>216</ele>
        <time>2010-01-01T05:53:05Z</time>
      </trkpt>
      <trkpt lat="38.92284" lon="1.31366">
        <ele>218</ele>
        <time>2010-01-01T05:53:09Z</time>
      </trkpt>
      <trkpt lat="38.92293" lon="1.31375">
        <ele>219</ele>
        <time>2010-01-01T05:53:13Z</time>
      </trkpt>
      <trkpt lat="38.92291" lon="1.31387">
        <ele>220</ele>
        <time>2010-01-01T05:53:17Z</time>
      </trkpt>
      <trkpt lat="38.92286" lon="1.31398">
        <ele>220</ele>
        <time>2010-01-01T05:53:21Z</time>
      </trkpt>
      <trkpt lat="38.92284" lon="1.3141">
        <ele>221</ele>
        <time>2010-01-01T05:53:25Z</time>
      </trkpt>
      <trkpt lat="38.92281" lon="1.31421">
        <ele>221</ele>
        <time>2010-01-01T05:53:28Z</time>
      </trkpt>
      <trkpt lat="38.92277" lon="1.31433">
        <ele>222</ele>
        <time>2010-01-01T05:53:32Z</time>
      </trkpt>
      <trkpt lat="38.92277" lon="1.31445">
        <ele>224</ele>
        <time>2010-01-01T05:53:36Z</time>
      </trkpt>
      <trkpt lat="38.92279" lon="1.31459">
        <ele>225</ele>
        <time>2010-01-01T05:53:40Z</time>
      </trkpt>
      <trkpt lat="38.92273" lon="1.3147">
        <ele>225</ele>
        <time>2010-01-01T05:53:45Z</time>
      </trkpt>
      <trkpt lat="38.92263" lon="1.31472">
        <ele>224</ele>
        <time>2010-01-01T05:53:48Z</time>
      </trkpt>
      <trkpt lat="38.92254" lon="1.3148">
        <ele>223</ele>
        <time>2010-01-01T05:53:53Z</time>
      </trkpt>
      <trkpt lat="38.92245" lon="1.31486">
        <ele>224</ele>
        <time>2010-01-01T05:53:57Z</time>
      </trkpt>
      <trkpt lat="38.92236" lon="1.31492">
        <ele>225</ele>
        <time>2010-01-01T05:54:01Z</time>
      </trkpt>
      <trkpt lat="38.92227" lon="1.31496">
        <ele>227</ele>
        <time>2010-01-01T05:54:05Z</time>
      </trkpt>
      <trkpt lat="38.92219" lon="1.31503">
        <ele>228</ele>
        <time>2010-01-01T05:54:09Z</time>
      </trkpt>
      <trkpt lat="38.92217" lon="1.31515">
        <ele>228</ele>
        <time>2010-01-01T05:54:13Z</time>
      </trkpt>
      <trkpt lat="38.9222" lon="1.31527">
        <ele>227</ele>
        <time>2010-01-01T05:54:16Z</time>
      </trkpt>
      <trkpt lat="38.92222" lon="1.31539">
        <ele>225</ele>
        <time>2010-01-01T05:54:20Z</time>
      </trkpt>
      <trkpt lat="38.92222" lon="1.31552">
        <ele>224</ele>
        <time>2010-01-01T05:54:24Z</time>
      </trkpt>
      <trkpt lat="38.92219" lon="1.31564">
        <ele>223</ele>
        <time>2010-01-01T05:54:28Z</time>
      </trkpt>
      <trkpt lat="38.92215" lon="1.31576">
        <ele>222</ele>
        <time>2010-01-01T05:54:32Z</time>
      </trkpt>
      <trkpt lat="38.92207" lon="1.31588">
        <ele>223</ele>
        <time>2010-01-01T05:54:37Z</time>
      </trkpt>
      <trkpt lat="38.92201" lon="1.316">
        <ele>224</ele>
        <time>2010-01-01T05:54:42Z</time>
      </trkpt>
      <trkpt lat="38.92195" lon="1.31611">
        <ele>224</ele>
        <time>2010-01-01T05:54:46Z</time>
      </trkpt>
      <trkpt lat="38.92192" lon="1.31623">
        <ele>225</ele>
        <time>2010-01-01T05:54:50Z</time>
      </trkpt>
      <trkpt lat="38.92187" lon="1.31637">
        <ele>225</ele>
        <time>2010-01-01T05:54:54Z</time>
      </trkpt>
      <trkpt lat="38.92184" lon="1.31652">
        <ele>226</ele>
        <time>2010-01-01T05:54:59Z</time>
      </trkpt>
      <trkpt lat="38.92185" lon="1.31665">
        <ele>226</ele>
        <time>2010-01-01T05:55:03Z</time>
      </trkpt>
      <trkpt lat="38.92185" lon="1.31677">
        <ele>227</ele>
        <time>2010-01-01T05:55:07Z</time>
      </trkpt>
      <trkpt lat="38.92194" lon="1.31685">
        <ele>227</ele>
        <time>2010-01-01T05:55:11Z</time>
      </trkpt>
      <trkpt lat="38.92196" lon="1.31697">
        <ele>228</ele>
        <time>2010-01-01T05:55:15Z</time>
      </trkpt>
      <trkpt lat="38.92203" lon="1.31709">
        <ele>228</ele>
        <time>2010-01-01T05:55:20Z</time>
      </trkpt>
      <trkpt lat="38.92211" lon="1.31713">
        <ele>228</ele>
        <time>2010-01-01T05:55:24Z</time>
      </trkpt>
      <trkpt lat="38.92222" lon="1.31712">
        <ele>226</ele>
        <time>2010-01-01T05:55:28Z</time>
      </trkpt>
      <trkpt lat="38.92232" lon="1.31705">
        <ele>225</ele>
        <time>2010-01-01T05:55:32Z</time>
      </trkpt>
      <trkpt lat="38.9224" lon="1.31696">
        <ele>224</ele>
        <time>2010-01-01T05:55:37Z</time>
      </trkpt>
      <trkpt lat="38.92247" lon="1.31688">
        <ele>222</ele>
        <time>2010-01-01T05:55:40Z</time>
      </trkpt>
      <trkpt lat="38.92254" lon="1.31679">
        <ele>221</ele>
        <time>2010-01-01T05:55:44Z</time>
      </trkpt>
      <trkpt lat="38.92262" lon="1.31675">
        <ele>220</ele>
        <time>2010-01-01T05:55:48Z</time>
      </trkpt>
      <trkpt lat="38.92271" lon="1.31666">
        <ele>219</ele>
        <time>2010-01-01T05:55:52Z</time>
      </trkpt>
      <trkpt lat="38.9228" lon="1.31663">
        <ele>218</ele>
        <time>2010-01-01T05:55:56Z</time>
      </trkpt>
      <trkpt lat="38.92289" lon="1.3166">
        <ele>218</ele>
        <time>2010-01-01T05:56:00Z</time>
      </trkpt>
      <trkpt lat="38.92299" lon="1.31659">
        <ele>217</ele>
        <time>2010-01-01T05:56:04Z</time>
      </trkpt>
      <trkpt lat="38.92309" lon="1.31658">
        <ele>217</ele>
        <time>2010-01-01T05:56:08Z</time>
      </trkpt>
      <trkpt lat="38.92319" lon="1.31656">
        <ele>216</ele>
        <time>2010-01-01T05:56:12Z</time>
      </trkpt>
      <trkpt lat="38.9233" lon="1.31657">
        <ele>215</ele>
        <time>2010-01-01T05:56:16Z</time>
      </trkpt>
      <trkpt lat="38.92341" lon="1.31655">
        <ele>214</ele>
        <time>2010-01-01T05:56:21Z</time>
      </trkpt>
      <trkpt lat="38.92351" lon="1.31653">
        <ele>213</ele>
        <time>2010-01-01T05:56:25Z</time>
      </trkpt>
      <trkpt lat="38.92363" lon="1.31652">
        <ele>211</ele>
        <time>2010-01-01T05:56:29Z</time>
      </trkpt>
      <trkpt lat="38.92371" lon="1.31649">
        <ele>209</ele>
        <time>2010-01-01T05:56:33Z</time>
      </trkpt>
      <trkpt lat="38.92381" lon="1.3165">
        <ele>208</ele>
        <time>2010-01-01T05:56:37Z</time>
      </trkpt>
      <trkpt lat="38.92391" lon="1.3165">
        <ele>207</ele>
        <time>2010-01-01T05:56:41Z</time>
      </trkpt>
      <trkpt lat="38.92401" lon="1.31649">
        <ele>206</ele>
        <time>2010-01-01T05:56:45Z</time>
      </trkpt>
      <trkpt lat="38.9241" lon="1.31649">
        <ele>205</ele>
        <time>2010-01-01T05:56:49Z</time>
      </trkpt>
      <trkpt lat="38.9242" lon="1.31646">
        <ele>203</ele>
        <time>2010-01-01T05:56:53Z</time>
      </trkpt>
      <trkpt lat="38.92428" lon="1.31655">
        <ele>203</ele>
        <time>2010-01-01T05:56:57Z</time>
      </trkpt>
      <trkpt lat="38.92435" lon="1.31663">
        <ele>204</ele>
        <time>2010-01-01T05:57:01Z</time>
      </trkpt>
      <trkpt lat="38.9244" lon="1.31675">
        <ele>205</ele>
        <time>2010-01-01T05:57:05Z</time>
      </trkpt>
      <trkpt lat="38.92448" lon="1.31681">
        <ele>204</ele>
        <time>2010-01-01T05:57:09Z</time>
      </trkpt>
      <trkpt lat="38.92458" lon="1.31685">
        <ele>201</ele>
        <time>2010-01-01T05:57:13Z</time>
      </trkpt>
      <trkpt lat="38.92462" lon="1.31697">
        <ele>202</ele>
        <time>2010-01-01T05:57:17Z</time>
      </trkpt>
      <trkpt lat="38.92465" lon="1.31709">
        <ele>202</ele>
        <time>2010-01-01T05:57:21Z</time>
      </trkpt>
      <trkpt lat="38.92469" lon="1.31722">
        <ele>203</ele>
        <time>2010-01-01T05:57:25Z</time>
      </trkpt>
      <trkpt lat="38.92475" lon="1.31733">
        <ele>202</ele>
        <time>2010-01-01T05:57:29Z</time>
      </trkpt>
      <trkpt lat="38.92482" lon="1.31745">
        <ele>201</ele>
        <time>2010-01-01T05:57:34Z</time>
      </trkpt>
      <trkpt lat="38.92486" lon="1.31757">
        <ele>201</ele>
        <time>2010-01-01T05:57:38Z</time>
      </trkpt>
      <trkpt lat="38.92485" lon="1.31772">
        <ele>201</ele>
        <time>2010-01-01T05:57:43Z</time>
      </trkpt>
      <trkpt lat="38.92485" lon="1.31786">
        <ele>201</ele>
        <time>2010-01-01T05:57:47Z</time>
      </trkpt>
      <trkpt lat="38.92485" lon="1.31799">
        <ele>201</ele>
        <time>2010-01-01T05:57:51Z</time>
      </trkpt>
      <trkpt lat="38.92489" lon="1.31811">
        <ele>200</ele>
        <time>2010-01-01T05:57:55Z</time>
      </trkpt>
      <trkpt lat="38.92492" lon="1.31823">
        <ele>198</ele>
        <time>2010-01-01T05:57:59Z</time>
      </trkpt>
      <trkpt lat="38.92496" lon="1.31834">
        <ele>197</ele>
        <time>2010-01-01T05:58:03Z</time>
      </trkpt>
      <trkpt lat="38.92499" lon="1.31845">
        <ele>196</ele>
        <time>2010-01-01T05:58:07Z</time>
      </trkpt>
      <trkpt lat="38.92502" lon="1.31858">
        <ele>196</ele>
        <time>2010-01-01T05:58:11Z</time>
      </trkpt>
      <trkpt lat="38.92498" lon="1.31869">
        <ele>197</ele>
        <time>2010-01-01T05:58:15Z</time>
      </trkpt>
      <trkpt lat="38.92492" lon="1.31878">
        <ele>199</ele>
        <time>2010-01-01T05:58:18Z</time>
      </trkpt>
      <trkpt lat="38.92488" lon="1.31891">
        <ele>199</ele>
        <time>2010-01-01T05:58:23Z</time>
      </trkpt>
      <trkpt lat="38.9249" lon="1.31904">
        <ele>199</ele>
        <time>2010-01-01T05:58:27Z</time>
      </trkpt>
      <trkpt lat="38.92489" lon="1.31916">
        <ele>198</ele>
        <time>2010-01-01T05:58:30Z</time>
      </trkpt>
      <trkpt lat="38.92486" lon="1.31927">
        <ele>199</ele>
        <time>2010-01-01T05:58:34Z</time>
      </trkpt>
      <trkpt lat="38.92486" lon="1.31939">
        <ele>200</ele>
        <time>2010-01-01T05:58:38Z</time>
      </trkpt>
      <trkpt lat="38.92485" lon="1.31952">
        <ele>201</ele>
        <time>2010-01-01T05:58:42Z</time>
      </trkpt>
      <trkpt lat="38.92483" lon="1.31964">
        <ele>203</ele>
        <time>2010-01-01T05:58:46Z</time>
      </trkpt>
      <trkpt lat="38.92483" lon="1.31977">
        <ele>204</ele>
        <time>2010-01-01T05:58:50Z</time>
      </trkpt>
      <trkpt lat="38.92485" lon="1.31989">
        <ele>206</ele>
        <time>2010-01-01T05:58:54Z</time>
      </trkpt>
      <trkpt lat="38.92486" lon="1.32002">
        <ele>207</ele>
        <time>2010-01-01T05:58:58Z</time>
      </trkpt>
      <trkpt lat="38.92488" lon="1.32014">
        <ele>208</ele>
        <time>2010-01-01T05:59:02Z</time>
      </trkpt>
      <trkpt lat="38.92486" lon="1.32027">
        <ele>209</ele>
        <time>2010-01-01T05:59:06Z</time>
      </trkpt>
      <trkpt lat="38.92488" lon="1.32039">
        <ele>209</ele>
        <time>2010-01-01T05:59:10Z</time>
      </trkpt>
      <trkpt lat="38.92489" lon="1.32051">
        <ele>210</ele>
        <time>2010-01-01T05:59:13Z</time>
      </trkpt>
      <trkpt lat="38.92493" lon="1.32062">
        <ele>209</ele>
        <time>2010-01-01T05:59:17Z</time>
      </trkpt>
      <trkpt lat="38.92498" lon="1.32074">
        <ele>208</ele>
        <time>2010-01-01T05:59:21Z</time>
      </trkpt>
      <trkpt lat="38.92503" lon="1.32088">
        <ele>208</ele>
        <time>2010-01-01T05:59:26Z</time>
      </trkpt>
      <trkpt lat="38.92508" lon="1.32097">
        <ele>208</ele>
        <time>2010-01-01T05:59:30Z</time>
      </trkpt>
      <trkpt lat="38.92515" lon="1.32107">
        <ele>207</ele>
        <time>2010-01-01T05:59:34Z</time>
      </trkpt>
      <trkpt lat="38.92521" lon="1.32118">
        <ele>207</ele>
        <time>2010-01-01T05:59:38Z</time>
      </trkpt>
      <trkpt lat="38.92527" lon="1.32127">
        <ele>207</ele>
        <time>2010-01-01T05:59:42Z</time>
      </trkpt>
      <trkpt lat="38.92527" lon="1.32139">
        <ele>208</ele>
        <time>2010-01-01T05:59:45Z</time>
      </trkpt>
      <trkpt lat="38.92532" lon="1.32151">
        <ele>209</ele>
        <time>2010-01-01T05:59:50Z</time>
      </trkpt>
      <trkpt lat="38.92533" lon="1.32164">
        <ele>210</ele>
        <time>2010-01-01T05:59:54Z</time>
      </trkpt>
      <trkpt lat="38.92531" lon="1.32175">
        <ele>211</ele>
        <time>2010-01-01T05:59:57Z</time>
      </trkpt>
      <trkpt lat="38.9253" lon="1.32187">
        <ele>212</ele>
        <time>2010-01-01T06:00:01Z</time>
      </trkpt>
      <trkpt lat="38.92527" lon="1.32199">
        <ele>213</ele>
        <time>2010-01-01T06:00:05Z</time>
      </trkpt>
      <trkpt lat="38.92528" lon="1.32218">
        <ele>215</ele>
        <time>2010-01-01T06:00:11Z</time>
      </trkpt>
      <trkpt lat="38.92534" lon="1.32232">
        <ele>216</ele>
        <time>2010-01-01T06:00:15Z</time>
      </trkpt>
      <trkpt lat="38.92535" lon="1.32244">
        <ele>217</ele>
        <time>2010-01-01T06:00:19Z</time>
      </trkpt>
      <trkpt lat="38.92538" lon="1.32256">
        <ele>217</ele>
        <time>2010-01-01T06:00:23Z</time>
      </trkpt>
      <trkpt lat="38.92539" lon="1.32267">
        <ele>218</ele>
        <time>2010-01-01T06:00:27Z</time>
      </trkpt>
      <trkpt lat="38.92538" lon="1.3228">
        <ele>220</ele>
        <time>2010-01-01T06:00:31Z</time>
      </trkpt>
      <trkpt lat="38.92538" lon="1.32292">
        <ele>221</ele>
        <time>2010-01-01T06:00:35Z</time>
      </trkpt>
      <trkpt lat="38.92538" lon="1.32305">
        <ele>222</ele>
        <time>2010-01-01T06:00:39Z</time>
      </trkpt>
      <trkpt lat="38.92538" lon="1.3232">
        <ele>223</ele>
        <time>2010-01-01T06:00:43Z</time>
      </trkpt>
      <trkpt lat="38.92541" lon="1.32332">
        <ele>223</ele>
        <time>2010-01-01T06:00:47Z</time>
      </trkpt>
      <trkpt lat="38.92535" lon="1.32343">
        <ele>225</ele>
        <time>2010-01-01T06:00:52Z</time>
      </trkpt>
      <trkpt lat="38.9253" lon="1.32354">
        <ele>227</ele>
        <time>2010-01-01T06:00:56Z</time>
      </trkpt>
      <trkpt lat="38.92528" lon="1.32367">
        <ele>227</ele>
        <time>2010-01-01T06:01:00Z</time>
      </trkpt>
      <trkpt lat="38.92528" lon="1.32381">
        <ele>227</ele>
        <time>2010-01-01T06:01:04Z</time>
      </trkpt>
      <trkpt lat="38.92525" lon="1.32393">
        <ele>228</ele>
        <time>2010-01-01T06:01:08Z</time>
      </trkpt>
      <trkpt lat="38.92515" lon="1.32399">
        <ele>231</ele>
        <time>2010-01-01T06:01:12Z</time>
      </trkpt>
      <trkpt lat="38.92506" lon="1.32396">
        <ele>234</ele>
        <time>2010-01-01T06:01:16Z</time>
      </trkpt>
      <trkpt lat="38.92495" lon="1.32391">
        <ele>238</ele>
        <time>2010-01-01T06:01:21Z</time>
      </trkpt>
      <trkpt lat="38.92486" lon="1.32395">
        <ele>241</ele>
        <time>2010-01-01T06:01:24Z</time>
      </trkpt>
      <trkpt lat="38.92477" lon="1.32391">
        <ele>244</ele>
        <time>2010-01-01T06:01:28Z</time>
      </trkpt>
      <trkpt lat="38.92469" lon="1.32387">
        <ele>247</ele>
        <time>2010-01-01T06:01:32Z</time>
      </trkpt>
      <trkpt lat="38.92461" lon="1.32395">
        <ele>249</ele>
        <time>2010-01-01T06:01:36Z</time>
      </trkpt>
      <trkpt lat="38.92454" lon="1.32403">
        <ele>250</ele>
        <time>2010-01-01T06:01:39Z</time>
      </trkpt>
      <trkpt lat="38.92449" lon="1.32412">
        <ele>251</ele>
        <time>2010-01-01T06:01:43Z</time>
      </trkpt>
      <trkpt lat="38.92449" lon="1.32424">
        <ele>249</ele>
        <time>2010-01-01T06:01:47Z</time>
      </trkpt>
      <trkpt lat="38.92444" lon="1.32436">
        <ele>248</ele>
        <time>2010-01-01T06:01:51Z</time>
      </trkpt>
      <trkpt lat="38.92438" lon="1.32447">
        <ele>248</ele>
        <time>2010-01-01T06:01:55Z</time>
      </trkpt>
      <trkpt lat="38.9243" lon="1.32456">
        <ele>250</ele>
        <time>2010-01-01T06:01:59Z</time>
      </trkpt>
      <trkpt lat="38.92423" lon="1.32466">
        <ele>252</ele>
        <time>2010-01-01T06:02:03Z</time>
      </trkpt>
      <trkpt lat="38.92416" lon="1.32473">
        <ele>254</ele>
        <time>2010-01-01T06:02:07Z</time>
      </trkpt>
      <trkpt lat="38.9241" lon="1.32482">
        <ele>256</ele>
        <time>2010-01-01T06:02:11Z</time>
      </trkpt>
      <trkpt lat="38.92406" lon="1.32494">
        <ele>258</ele>
        <time>2010-01-01T06:02:15Z</time>
      </trkpt>
      <trkpt lat="38.92404" lon="1.32508">
        <ele>258</ele>
        <time>2010-01-01T06:02:19Z</time>
      </trkpt>
      <trkpt lat="38.924" lon="1.32519">
        <ele>259</ele>
        <time>2010-01-01T06:02:23Z</time>
      </trkpt>
      <trkpt lat="38.924" lon="1.32533">
        <ele>260</ele>
        <time>2010-01-01T06:02:27Z</time>
      </trkpt>
      <trkpt lat="38.92395" lon="1.32545">
        <ele>261</ele>
        <time>2010-01-01T06:02:31Z</time>
      </trkpt>
      <trkpt lat="38.92392" lon="1.32557">
        <ele>262</ele>
        <time>2010-01-01T06:02:35Z</time>
      </trkpt>
      <trkpt lat="38.92387" lon="1.32569">
        <ele>262</ele>
        <time>2010-01-01T06:02:40Z</time>
      </trkpt>
      <trkpt lat="38.92382" lon="1.32579">
        <ele>263</ele>
        <time>2010-01-01T06:02:43Z</time>
      </trkpt>
      <trkpt lat="38.92376" lon="1.3259">
        <ele>264</ele>
        <time>2010-01-01T06:02:47Z</time>
      </trkpt>
      <trkpt lat="38.92372" lon="1.326">
        <ele>265</ele>
        <time>2010-01-01T06:02:51Z</time>
      </trkpt>
      <trkpt lat="38.92368" lon="1.3261">
        <ele>265</ele>
        <time>2010-01-01T06:02:55Z</time>
      </trkpt>
      <trkpt lat="38.92366" lon="1.32623">
        <ele>265</ele>
        <time>2010-01-01T06:02:59Z</time>
      </trkpt>
      <trkpt lat="38.9236" lon="1.32631">
        <ele>266</ele>
        <time>2010-01-01T06:03:02Z</time>
      </trkpt>
      <trkpt lat="38.92351" lon="1.32638">
        <ele>266</ele>
        <time>2010-01-01T06:03:06Z</time>
      </trkpt>
      <trkpt lat="38.92343" lon="1.32645">
        <ele>266</ele>
        <time>2010-01-01T06:03:10Z</time>
      </trkpt>
      <trkpt lat="38.92338" lon="1.32657">
        <ele>266</ele>
        <time>2010-01-01T06:03:15Z</time>
      </trkpt>
      <trkpt lat="38.92341" lon="1.32671">
        <ele>267</ele>
        <time>2010-01-01T06:03:19Z</time>
      </trkpt>
      <trkpt lat="38.92343" lon="1.32683">
        <ele>267</ele>
        <time>2010-01-01T06:03:23Z</time>
      </trkpt>
      <trkpt lat="38.92348" lon="1.32693">
        <ele>268</ele>
        <time>2010-01-01T06:03:27Z</time>
      </trkpt>
      <trkpt lat="38.92348" lon="1.32705">
        <ele>268</ele>
        <time>2010-01-01T06:03:30Z</time>
      </trkpt>
      <trkpt lat="38.92348" lon="1.32717">
        <ele>269</ele>
        <time>2010-01-01T06:03:34Z</time>
      </trkpt>
      <trkpt lat="38.92348" lon="1.3273">
        <ele>269</ele>
        <time>2010-01-01T06:03:38Z</time>
      </trkpt>
      <trkpt lat="38.92348" lon="1.32744">
        <ele>269</ele>
        <time>2010-01-01T06:03:42Z</time>
      </trkpt>
      <trkpt lat="38.92351" lon="1.32758">
        <ele>269</ele>
        <time>2010-01-01T06:03:47Z</time>
      </trkpt>
      <trkpt lat="38.92354" lon="1.32769">
        <ele>270</ele>
        <time>2010-01-01T06:03:50Z</time>
      </trkpt>
      <trkpt lat="38.92355" lon="1.32782">
        <ele>270</ele>
        <time>2010-01-01T06:03:55Z</time>
      </trkpt>
      <trkpt lat="38.92353" lon="1.32795">
        <ele>271</ele>
        <time>2010-01-01T06:03:59Z</time>
      </trkpt>
      <trkpt lat="38.9235" lon="1.32807">
        <ele>272</ele>
        <time>2010-01-01T06:04:03Z</time>
      </trkpt>
      <trkpt lat="38.92348" lon="1.32819">
        <ele>273</ele>
        <time>2010-01-01T06:04:06Z</time>
      </trkpt>
      <trkpt lat="38.92343" lon="1.3283">
        <ele>274</ele>
        <time>2010-01-01T06:04:10Z</time>
      </trkpt>
      <trkpt lat="38.92337" lon="1.32839">
        <ele>275</ele>
        <time>2010-01-01T06:04:14Z</time>
      </trkpt>
      <trkpt lat="38.92328" lon="1.32843">
        <ele>275</ele>
        <time>2010-01-01T06:04:18Z</time>
      </trkpt>
      <trkpt lat="38.92319" lon="1.32847">
        <ele>274</ele>
        <time>2010-01-01T06:04:22Z</time>
      </trkpt>
      <trkpt lat="38.92309" lon="1.32853">
        <ele>274</ele>
        <time>2010-01-01T06:04:26Z</time>
      </trkpt>
      <trkpt lat="38.92302" lon="1.3286">
        <ele>275</ele>
        <time>2010-01-01T06:04:30Z</time>
      </trkpt>
      <trkpt lat="38.92293" lon="1.32863">
        <ele>274</ele>
        <time>2010-01-01T06:04:34Z</time>
      </trkpt>
      <trkpt lat="38.92283" lon="1.32861">
        <ele>273</ele>
        <time>2010-01-01T06:04:38Z</time>
      </trkpt>
      <trkpt lat="38.92271" lon="1.3286">
        <ele>271</ele>
        <time>2010-01-01T06:04:42Z</time>
      </trkpt>
      <trkpt lat="38.9226" lon="1.32864">
        <ele>270</ele>
        <time>2010-01-01T06:04:47Z</time>
      </trkpt>
      <trkpt lat="38.9225" lon="1.32866">
        <ele>269</ele>
        <time>2010-01-01T06:04:51Z</time>
      </trkpt>
      <trkpt lat="38.92241" lon="1.32868">
        <ele>268</ele>
        <time>2010-01-01T06:04:55Z</time>
      </trkpt>
      <trkpt lat="38.92231" lon="1.32873">
        <ele>267</ele>
        <time>2010-01-01T06:04:59Z</time>
      </trkpt>
      <trkpt lat="38.92222" lon="1.32878">
        <ele>266</ele>
        <time>2010-01-01T06:05:03Z</time>
      </trkpt>
      <trkpt lat="38.92215" lon="1.32886">
        <ele>265</ele>
        <time>2010-01-01T06:05:07Z</time>
      </trkpt>
      <trkpt lat="38.9221" lon="1.32897">
        <ele>263</ele>
        <time>2010-01-01T06:05:11Z</time>
      </trkpt>
      <trkpt lat="38.92207" lon="1.32909">
        <ele>261</ele>
        <time>2010-01-01T06:05:14Z</time>
      </trkpt>
      <trkpt lat="38.92208" lon="1.32923">
        <ele>261</ele>
        <time>2010-01-01T06:05:19Z</time>
      </trkpt>
      <trkpt lat="38.92209" lon="1.32934">
        <ele>261</ele>
        <time>2010-01-01T06:05:22Z</time>
      </trkpt>
      <trkpt lat="38.9221" lon="1.32947">
        <ele>261</ele>
        <time>2010-01-01T06:05:26Z</time>
      </trkpt>
      <trkpt lat="38.92213" lon="1.32962">
        <ele>262</ele>
        <time>2010-01-01T06:05:31Z</time>
      </trkpt>
      <trkpt lat="38.92216" lon="1.32974">
        <ele>263</ele>
        <time>2010-01-01T06:05:35Z</time>
      </trkpt>
      <trkpt lat="38.92218" lon="1.32986">
        <ele>264</ele>
        <time>2010-01-01T06:05:39Z</time>
      </trkpt>
      <trkpt lat="38.92217" lon="1.32998">
        <ele>265</ele>
        <time>2010-01-01T06:05:42Z</time>
      </trkpt>
      <trkpt lat="38.92215" lon="1.33009">
        <ele>265</ele>
        <time>2010-01-01T06:05:46Z</time>
      </trkpt>
      <trkpt lat="38.9221" lon="1.33023">
        <ele>265</ele>
        <time>2010-01-01T06:05:51Z</time>
      </trkpt>
      <trkpt lat="38.92206" lon="1.33037">
        <ele>266</ele>
        <time>2010-01-01T06:05:56Z</time>
      </trkpt>
      <trkpt lat="38.92197" lon="1.33036">
        <ele>264</ele>
        <time>2010-01-01T06:05:59Z</time>
      </trkpt>
      <trkpt lat="38.92189" lon="1.33033">
        <ele>263</ele>
        <time>2010-01-01T06:06:03Z</time>
      </trkpt>
      <trkpt lat="38.92179" lon="1.33029">
        <ele>262</ele>
        <time>2010-01-01T06:06:07Z</time>
      </trkpt>
      <trkpt lat="38.92172" lon="1.33021">
        <ele>260</ele>
        <time>2010-01-01T06:06:11Z</time>
      </trkpt>
      <trkpt lat="38.92162" lon="1.33016">
        <ele>260</ele>
        <time>2010-01-01T06:06:15Z</time>
      </trkpt>
      <trkpt lat="38.92158" lon="1.33005">
        <ele>256</ele>
        <time>2010-01-01T06:06:19Z</time>
      </trkpt>
      <trkpt lat="38.92151" lon="1.32997">
        <ele>254</ele>
        <time>2010-01-01T06:06:23Z</time>
      </trkpt>
      <trkpt lat="38.92144" lon="1.32987">
        <ele>252</ele>
        <time>2010-01-01T06:06:26Z</time>
      </trkpt>
      <trkpt lat="38.92139" lon="1.32977">
        <ele>248</ele>
        <time>2010-01-01T06:06:30Z</time>
      </trkpt>
      <trkpt lat="38.92132" lon="1.32969">
        <ele>246</ele>
        <time>2010-01-01T06:06:34Z</time>
      </trkpt>
      <trkpt lat="38.92124" lon="1.32964">
        <ele>244</ele>
        <time>2010-01-01T06:06:38Z</time>
      </trkpt>
      <trkpt lat="38.92114" lon="1.32959">
        <ele>243</ele>
        <time>2010-01-01T06:06:42Z</time>
      </trkpt>
      <trkpt lat="38.92104" lon="1.32954">
        <ele>241</ele>
        <time>2010-01-01T06:06:46Z</time>
      </trkpt>
      <trkpt lat="38.92094" lon="1.32953">
        <ele>240</ele>
        <time>2010-01-01T06:06:50Z</time>
      </trkpt>
      <trkpt lat="38.92083" lon="1.32957">
        <ele>241</ele>
        <time>2010-01-01T06:06:55Z</time>
      </trkpt>
      <trkpt lat="38.92074" lon="1.32961">
        <ele>240</ele>
        <time>2010-01-01T06:06:59Z</time>
      </trkpt>
      <trkpt lat="38.92065" lon="1.32964">
        <ele>239</ele>
        <time>2010-01-01T06:07:02Z</time>
      </trkpt>
      <trkpt lat="38.92056" lon="1.32969">
        <ele>238</ele>
        <time>2010-01-01T06:07:06Z</time>
      </trkpt>
      <trkpt lat="38.92048" lon="1.32977">
        <ele>238</ele>
        <time>2010-01-01T06:07:10Z</time>
      </trkpt>
      <trkpt lat="38.92038" lon="1.32976">
        <ele>236</ele>
        <time>2010-01-01T06:07:14Z</time>
      </trkpt>
      <trkpt lat="38.9203" lon="1.32985">
        <ele>236</ele>
        <time>2010-01-01T06:07:18Z</time>
      </trkpt>
      <trkpt lat="38.92022" lon="1.32994">
        <ele>236</ele>
        <time>2010-01-01T06:07:23Z</time>
      </trkpt>
      <trkpt lat="38.92012" lon="1.33003">
        <ele>234</ele>
        <time>2010-01-01T06:07:28Z</time>
      </trkpt>
      <trkpt lat="38.92003" lon="1.33002">
        <ele>232</ele>
        <time>2010-01-01T06:07:31Z</time>
      </trkpt>
      <trkpt lat="38.91997" lon="1.32993">
        <ele>230</ele>
        <time>2010-01-01T06:07:35Z</time>
      </trkpt>
      <trkpt lat="38.91993" lon="1.32981">
        <ele>228</ele>
        <time>2010-01-01T06:07:39Z</time>
      </trkpt>
      <trkpt lat="38.91995" lon="1.32968">
        <ele>227</ele>
        <time>2010-01-01T06:07:43Z</time>
      </trkpt>
      <trkpt lat="38.91985" lon="1.32962">
        <ele>225</ele>
        <time>2010-01-01T06:07:48Z</time>
      </trkpt>
      <trkpt lat="38.91976" lon="1.32967">
        <ele>224</ele>
        <time>2010-01-01T06:07:52Z</time>
      </trkpt>
      <trkpt lat="38.91966" lon="1.32968">
        <ele>222</ele>
        <time>2010-01-01T06:07:56Z</time>
      </trkpt>
      <trkpt lat="38.91963" lon="1.32957">
        <ele>221</ele>
        <time>2010-01-01T06:07:59Z</time>
      </trkpt>
      <trkpt lat="38.91966" lon="1.32945">
        <ele>220</ele>
        <time>2010-01-01T06:08:03Z</time>
      </trkpt>
      <trkpt lat="38.91968" lon="1.32932">
        <ele>220</ele>
        <time>2010-01-01T06:08:07Z</time>
      </trkpt>
      <trkpt lat="38.91966" lon="1.32921">
        <ele>220</ele>
        <time>2010-01-01T06:08:11Z</time>
      </trkpt>
      <trkpt lat="38.91956" lon="1.3292">
        <ele>218</ele>
        <time>2010-01-01T06:08:15Z</time>
      </trkpt>
      <trkpt lat="38.91948" lon="1.32926">
        <ele>217</ele>
        <time>2010-01-01T06:08:19Z</time>
      </trkpt>
      <trkpt lat="38.91943" lon="1.32916">
        <ele>217</ele>
        <time>2010-01-01T06:08:22Z</time>
      </trkpt>
      <trkpt lat="38.9194" lon="1.32904">
        <ele>218</ele>
        <time>2010-01-01T06:08:26Z</time>
      </trkpt>
      <trkpt lat="38.91935" lon="1.32893">
        <ele>219</ele>
        <time>2010-01-01T06:08:30Z</time>
      </trkpt>
      <trkpt lat="38.91932" lon="1.32882">
        <ele>219</ele>
        <time>2010-01-01T06:08:34Z</time>
      </trkpt>
      <trkpt lat="38.91924" lon="1.32877">
        <ele>219</ele>
        <time>2010-01-01T06:08:37Z</time>
      </trkpt>
      <trkpt lat="38.91914" lon="1.3288">
        <ele>219</ele>
        <time>2010-01-01T06:08:42Z</time>
      </trkpt>
      <trkpt lat="38.91905" lon="1.32878">
        <ele>219</ele>
        <time>2010-01-01T06:08:46Z</time>
      </trkpt>
      <trkpt lat="38.91893" lon="1.32875">
        <ele>219</ele>
        <time>2010-01-01T06:08:50Z</time>
      </trkpt>
      <trkpt lat="38.91884" lon="1.3287">
        <ele>219</ele>
        <time>2010-01-01T06:08:54Z</time>
      </trkpt>
      <trkpt lat="38.91874" lon="1.32868">
        <ele>219</ele>
        <time>2010-01-01T06:08:58Z</time>
      </trkpt>
      <trkpt lat="38.91865" lon="1.3287">
        <ele>219</ele>
        <time>2010-01-01T06:09:02Z</time>
      </trkpt>
      <trkpt lat="38.91855" lon="1.32869">
        <ele>219</ele>
        <time>2010-01-01T06:09:06Z</time>
      </trkpt>
      <trkpt lat="38.91845" lon="1.32871">
        <ele>219</ele>
        <time>2010-01-01T06:09:10Z</time>
      </trkpt>
      <trkpt lat="38.91836" lon="1.32875">
        <ele>218</ele>
        <time>2010-01-01T06:09:14Z</time>
      </trkpt>
      <trkpt lat="38.91825" lon="1.32878">
        <ele>217</ele>
        <time>2010-01-01T06:09:18Z</time>
      </trkpt>
      <trkpt lat="38.91812" lon="1.32874">
        <ele>216</ele>
        <time>2010-01-01T06:09:23Z</time>
      </trkpt>
      <trkpt lat="38.91802" lon="1.32873">
        <ele>215</ele>
        <time>2010-01-01T06:09:27Z</time>
      </trkpt>
      <trkpt lat="38.91793" lon="1.32872">
        <ele>213</ele>
        <time>2010-01-01T06:09:31Z</time>
      </trkpt>
      <trkpt lat="38.91784" lon="1.32874">
        <ele>211</ele>
        <time>2010-01-01T06:09:35Z</time>
      </trkpt>
      <trkpt lat="38.91778" lon="1.32862">
        <ele>211</ele>
        <time>2010-01-01T06:09:39Z</time>
      </trkpt>
      <trkpt lat="38.91772" lon="1.32853">
        <ele>208</ele>
        <time>2010-01-01T06:09:43Z</time>
      </trkpt>
      <trkpt lat="38.91761" lon="1.32853">
        <ele>205</ele>
        <time>2010-01-01T06:09:47Z</time>
      </trkpt>
      <trkpt lat="38.91752" lon="1.32858">
        <ele>204</ele>
        <time>2010-01-01T06:09:51Z</time>
      </trkpt>
      <trkpt lat="38.91743" lon="1.32865">
        <ele>202</ele>
        <time>2010-01-01T06:09:55Z</time>
      </trkpt>
      <trkpt lat="38.91737" lon="1.32873">
        <ele>201</ele>
        <time>2010-01-01T06:09:59Z</time>
      </trkpt>
      <trkpt lat="38.91737" lon="1.32885">
        <ele>201</ele>
        <time>2010-01-01T06:10:03Z</time>
      </trkpt>
      <trkpt lat="38.91739" lon="1.32896">
        <ele>201</ele>
        <time>2010-01-01T06:10:06Z</time>
      </trkpt>
      <trkpt lat="38.91744" lon="1.32907">
        <ele>201</ele>
        <time>2010-01-01T06:10:10Z</time>
      </trkpt>
      <trkpt lat="38.91738" lon="1.32917">
        <ele>199</ele>
        <time>2010-01-01T06:10:14Z</time>
      </trkpt>
      <trkpt lat="38.91727" lon="1.32915">
        <ele>197</ele>
        <time>2010-01-01T06:10:18Z</time>
      </trkpt>
      <trkpt lat="38.91718" lon="1.32912">
        <ele>195</ele>
        <time>2010-01-01T06:10:22Z</time>
      </trkpt>
      <trkpt lat="38.91706" lon="1.32912">
        <ele>193</ele>
        <time>2010-01-01T06:10:27Z</time>
      </trkpt>
      <trkpt lat="38.91697" lon="1.32908">
        <ele>191</ele>
        <time>2010-01-01T06:10:31Z</time>
      </trkpt>
      <trkpt lat="38.91688" lon="1.32901">
        <ele>190</ele>
        <time>2010-01-01T06:10:35Z</time>
      </trkpt>
      <trkpt lat="38.91681" lon="1.32891">
        <ele>190</ele>
        <time>2010-01-01T06:10:39Z</time>
      </trkpt>
      <trkpt lat="38.91676" lon="1.3288">
        <ele>190</ele>
        <time>2010-01-01T06:10:43Z</time>
      </trkpt>
      <trkpt lat="38.91676" lon="1.32868">
        <ele>190</ele>
        <time>2010-01-01T06:10:47Z</time>
      </trkpt>
      <trkpt lat="38.91678" lon="1.32855">
        <ele>190</ele>
        <time>2010-01-01T06:10:51Z</time>
      </trkpt>
      <trkpt lat="38.91678" lon="1.32843">
        <ele>189</ele>
        <time>2010-01-01T06:10:55Z</time>
      </trkpt>
      <trkpt lat="38.9168" lon="1.3283">
        <ele>189</ele>
        <time>2010-01-01T06:10:59Z</time>
      </trkpt>
      <trkpt lat="38.91681" lon="1.32818">
        <ele>188</ele>
        <time>2010-01-01T06:11:03Z</time>
      </trkpt>
      <trkpt lat="38.91682" lon="1.32806">
        <ele>187</ele>
        <time>2010-01-01T06:11:06Z</time>
      </trkpt>
      <trkpt lat="38.91681" lon="1.32794">
        <ele>186</ele>
        <time>2010-01-01T06:11:10Z</time>
      </trkpt>
      <trkpt lat="38.91677" lon="1.32782">
        <ele>186</ele>
        <time>2010-01-01T06:11:14Z</time>
      </trkpt>
      <trkpt lat="38.9167" lon="1.32774">
        <ele>187</ele>
        <time>2010-01-01T06:11:18Z</time>
      </trkpt>
      <trkpt lat="38.91662" lon="1.32768">
        <ele>187</ele>
        <time>2010-01-01T06:11:21Z</time>
      </trkpt>
      <trkpt lat="38.91653" lon="1.32766">
        <ele>188</ele>
        <time>2010-01-01T06:11:25Z</time>
      </trkpt>
      <trkpt lat="38.91645" lon="1.32773">
        <ele>189</ele>
        <time>2010-01-01T06:11:29Z</time>
      </trkpt>
      <trkpt lat="38.91636" lon="1.32782">
        <ele>188</ele>
        <time>2010-01-01T06:11:33Z</time>
      </trkpt>
      <trkpt lat="38.91629" lon="1.3279">
        <ele>188</ele>
        <time>2010-01-01T06:11:37Z</time>
      </trkpt>
      <trkpt lat="38.91621" lon="1.32795">
        <ele>188</ele>
        <time>2010-01-01T06:11:41Z</time>
      </trkpt>
      <trkpt lat="38.91615" lon="1.32805">
        <ele>187</ele>
        <time>2010-01-01T06:11:45Z</time>
      </trkpt>
      <trkpt lat="38.91608" lon="1.32814">
        <ele>186</ele>
        <time>2010-01-01T06:11:49Z</time>
      </trkpt>
      <trkpt lat="38.91603" lon="1.32826">
        <ele>185</ele>
        <time>2010-01-01T06:11:53Z</time>
      </trkpt>
      <trkpt lat="38.91596" lon="1.32838">
        <ele>185</ele>
        <time>2010-01-01T06:11:58Z</time>
      </trkpt>
      <trkpt lat="38.91589" lon="1.32844">
        <ele>184</ele>
        <time>2010-01-01T06:12:01Z</time>
      </trkpt>
      <trkpt lat="38.9158" lon="1.32848">
        <ele>184</ele>
        <time>2010-01-01T06:12:05Z</time>
      </trkpt>
      <trkpt lat="38.91571" lon="1.32854">
        <ele>184</ele>
        <time>2010-01-01T06:12:09Z</time>
      </trkpt>
      <trkpt lat="38.91562" lon="1.32858">
        <ele>184</ele>
        <time>2010-01-01T06:12:13Z</time>
      </trkpt>
      <trkpt lat="38.91554" lon="1.32863">
        <ele>183</ele>
        <time>2010-01-01T06:12:16Z</time>
      </trkpt>
      <trkpt lat="38.91543" lon="1.32869">
        <ele>183</ele>
        <time>2010-01-01T06:12:21Z</time>
      </trkpt>
      <trkpt lat="38.91533" lon="1.32871">
        <ele>184</ele>
        <time>2010-01-01T06:12:25Z</time>
      </trkpt>
      <trkpt lat="38.91524" lon="1.32876">
        <ele>184</ele>
        <time>2010-01-01T06:12:29Z</time>
      </trkpt>
      <trkpt lat="38.91516" lon="1.32884">
        <ele>183</ele>
        <time>2010-01-01T06:12:33Z</time>
      </trkpt>
      <trkpt lat="38.91507" lon="1.3289">
        <ele>183</ele>
        <time>2010-01-01T06:12:37Z</time>
      </trkpt>
      <trkpt lat="38.91498" lon="1.32897">
        <ele>183</ele>
        <time>2010-01-01T06:12:41Z</time>
      </trkpt>
      <trkpt lat="38.91491" lon="1.32904">
        <ele>183</ele>
        <time>2010-01-01T06:12:45Z</time>
      </trkpt>
      <trkpt lat="38.91482" lon="1.32912">
        <ele>182</ele>
        <time>2010-01-01T06:12:49Z</time>
      </trkpt>
      <trkpt lat="38.91475" lon="1.32921">
        <ele>182</ele>
        <time>2010-01-01T06:12:53Z</time>
      </trkpt>
      <trkpt lat="38.91467" lon="1.3293">
        <ele>181</ele>
        <time>2010-01-01T06:12:57Z</time>
      </trkpt>
      <trkpt lat="38.9146" lon="1.32939">
        <ele>181</ele>
        <time>2010-01-01T06:13:01Z</time>
      </trkpt>
      <trkpt lat="38.91454" lon="1.32948">
        <ele>181</ele>
        <time>2010-01-01T06:13:05Z</time>
      </trkpt>
      <trkpt lat="38.91446" lon="1.32956">
        <ele>181</ele>
        <time>2010-01-01T06:13:09Z</time>
      </trkpt>
      <trkpt lat="38.91439" lon="1.32966">
        <ele>182</ele>
        <time>2010-01-01T06:13:13Z</time>
      </trkpt>
      <trkpt lat="38.91432" lon="1.32973">
        <ele>183</ele>
        <time>2010-01-01T06:13:17Z</time>
      </trkpt>
      <trkpt lat="38.91427" lon="1.32984">
        <ele>183</ele>
        <time>2010-01-01T06:13:21Z</time>
      </trkpt>
      <trkpt lat="38.91424" lon="1.32996">
        <ele>183</ele>
        <time>2010-01-01T06:13:25Z</time>
      </trkpt>
      <trkpt lat="38.91424" lon="1.33008">
        <ele>182</ele>
        <time>2010-01-01T06:13:29Z</time>
      </trkpt>
      <trkpt lat="38.91417" lon="1.33018">
        <ele>182</ele>
        <time>2010-01-01T06:13:33Z</time>
      </trkpt>
      <trkpt lat="38.9141" lon="1.33026">
        <ele>182</ele>
        <time>2010-01-01T06:13:37Z</time>
      </trkpt>
      <trkpt lat="38.914" lon="1.33034">
        <ele>182</ele>
        <time>2010-01-01T06:13:41Z</time>
      </trkpt>
      <trkpt lat="38.91392" lon="1.33039">
        <ele>183</ele>
        <time>2010-01-01T06:13:45Z</time>
      </trkpt>
      <trkpt lat="38.91383" lon="1.33046">
        <ele>183</ele>
        <time>2010-01-01T06:13:49Z</time>
      </trkpt>
      <trkpt lat="38.91376" lon="1.33054">
        <ele>183</ele>
        <time>2010-01-01T06:13:53Z</time>
      </trkpt>
      <trkpt lat="38.91368" lon="1.33062">
        <ele>183</ele>
        <time>2010-01-01T06:13:57Z</time>
      </trkpt>
      <trkpt lat="38.91362" lon="1.33073">
        <ele>182</ele>
        <time>2010-01-01T06:14:01Z</time>
      </trkpt>
      <trkpt lat="38.91356" lon="1.33083">
        <ele>181</ele>
        <time>2010-01-01T06:14:05Z</time>
      </trkpt>
      <trkpt lat="38.91349" lon="1.33091">
        <ele>181</ele>
        <time>2010-01-01T06:14:08Z</time>
      </trkpt>
      <trkpt lat="38.91341" lon="1.33097">
        <ele>181</ele>
        <time>2010-01-01T06:14:12Z</time>
      </trkpt>
      <trkpt lat="38.91333" lon="1.33103">
        <ele>181</ele>
        <time>2010-01-01T06:14:16Z</time>
      </trkpt>
      <trkpt lat="38.91324" lon="1.33105">
        <ele>182</ele>
        <time>2010-01-01T06:14:20Z</time>
      </trkpt>
      <trkpt lat="38.91315" lon="1.33109">
        <ele>183</ele>
        <time>2010-01-01T06:14:24Z</time>
      </trkpt>
      <trkpt lat="38.91305" lon="1.33113">
        <ele>184</ele>
        <time>2010-01-01T06:14:28Z</time>
      </trkpt>
      <trkpt lat="38.91296" lon="1.33114">
        <ele>185</ele>
        <time>2010-01-01T06:14:31Z</time>
      </trkpt>
      <trkpt lat="38.91287" lon="1.33109">
        <ele>187</ele>
        <time>2010-01-01T06:14:35Z</time>
      </trkpt>
      <trkpt lat="38.91277" lon="1.33104">
        <ele>189</ele>
        <time>2010-01-01T06:14:39Z</time>
      </trkpt>
      <trkpt lat="38.91268" lon="1.33101">
        <ele>189</ele>
        <time>2010-01-01T06:14:43Z</time>
      </trkpt>
      <trkpt lat="38.91259" lon="1.33099">
        <ele>190</ele>
        <time>2010-01-01T06:14:47Z</time>
      </trkpt>
      <trkpt lat="38.91248" lon="1.33098">
        <ele>190</ele>
        <time>2010-01-01T06:14:51Z</time>
      </trkpt>
      <trkpt lat="38.91239" lon="1.33098">
        <ele>190</ele>
        <time>2010-01-01T06:14:55Z</time>
      </trkpt>
      <trkpt lat="38.9123" lon="1.33103">
        <ele>190</ele>
        <time>2010-01-01T06:14:59Z</time>
      </trkpt>
      <trkpt lat="38.91221" lon="1.33106">
        <ele>190</ele>
        <time>2010-01-01T06:15:02Z</time>
      </trkpt>
      <trkpt lat="38.91212" lon="1.33104">
        <ele>191</ele>
        <time>2010-01-01T06:15:06Z</time>
      </trkpt>
      <trkpt lat="38.91202" lon="1.33103">
        <ele>191</ele>
        <time>2010-01-01T06:15:10Z</time>
      </trkpt>
      <trkpt lat="38.91191" lon="1.33101">
        <ele>191</ele>
        <time>2010-01-01T06:15:15Z</time>
      </trkpt>
      <trkpt lat="38.91181" lon="1.33099">
        <ele>191</ele>
        <time>2010-01-01T06:15:19Z</time>
      </trkpt>
      <trkpt lat="38.91172" lon="1.33096">
        <ele>191</ele>
        <time>2010-01-01T06:15:22Z</time>
      </trkpt>
      <trkpt lat="38.91161" lon="1.33093">
        <ele>191</ele>
        <time>2010-01-01T06:15:27Z</time>
      </trkpt>
      <trkpt lat="38.91151" lon="1.33092">
        <ele>191</ele>
        <time>2010-01-01T06:15:31Z</time>
      </trkpt>
      <trkpt lat="38.91142" lon="1.33095">
        <ele>190</ele>
        <time>2010-01-01T06:15:35Z</time>
      </trkpt>
      <trkpt lat="38.91133" lon="1.33099">
        <ele>189</ele>
        <time>2010-01-01T06:15:38Z</time>
      </trkpt>
      <trkpt lat="38.91126" lon="1.33106">
        <ele>188</ele>
        <time>2010-01-01T06:15:42Z</time>
      </trkpt>
      <trkpt lat="38.91119" lon="1.33114">
        <ele>187</ele>
        <time>2010-01-01T06:15:46Z</time>
      </trkpt>
      <trkpt lat="38.91111" lon="1.3312">
        <ele>187</ele>
        <time>2010-01-01T06:15:49Z</time>
      </trkpt>
      <trkpt lat="38.91102" lon="1.33127">
        <ele>186</ele>
        <time>2010-01-01T06:15:54Z</time>
      </trkpt>
      <trkpt lat="38.91092" lon="1.33131">
        <ele>185</ele>
        <time>2010-01-01T06:15:58Z</time>
      </trkpt>
      <trkpt lat="38.91083" lon="1.33135">
        <ele>185</ele>
        <time>2010-01-01T06:16:02Z</time>
      </trkpt>
      <trkpt lat="38.91074" lon="1.33142">
        <ele>183</ele>
        <time>2010-01-01T06:16:06Z</time>
      </trkpt>
      <trkpt lat="38.91066" lon="1.33148">
        <ele>181</ele>
        <time>2010-01-01T06:16:10Z</time>
      </trkpt>
      <trkpt lat="38.91056" lon="1.33157">
        <ele>180</ele>
        <time>2010-01-01T06:16:14Z</time>
      </trkpt>
      <trkpt lat="38.91047" lon="1.33162">
        <ele>178</ele>
        <time>2010-01-01T06:16:18Z</time>
      </trkpt>
      <trkpt lat="38.91037" lon="1.33169">
        <ele>177</ele>
        <time>2010-01-01T06:16:23Z</time>
      </trkpt>
      <trkpt lat="38.91032" lon="1.3318">
        <ele>177</ele>
        <time>2010-01-01T06:16:27Z</time>
      </trkpt>
      <trkpt lat="38.91029" lon="1.33193">
        <ele>177</ele>
        <time>2010-01-01T06:16:31Z</time>
      </trkpt>
      <trkpt lat="38.91027" lon="1.33206">
        <ele>177</ele>
        <time>2010-01-01T06:16:35Z</time>
      </trkpt>
      <trkpt lat="38.91023" lon="1.33217">
        <ele>177</ele>
        <time>2010-01-01T06:16:39Z</time>
      </trkpt>
      <trkpt lat="38.91017" lon="1.33226">
        <ele>177</ele>
        <time>2010-01-01T06:16:43Z</time>
      </trkpt>
      <trkpt lat="38.9101" lon="1.33234">
        <ele>176</ele>
        <time>2010-01-01T06:16:46Z</time>
      </trkpt>
      <trkpt lat="38.91003" lon="1.33243">
        <ele>176</ele>
        <time>2010-01-01T06:16:50Z</time>
      </trkpt>
      <trkpt lat="38.90995" lon="1.33249">
        <ele>176</ele>
        <time>2010-01-01T06:16:54Z</time>
      </trkpt>
      <trkpt lat="38.90989" lon="1.33257">
        <ele>175</ele>
        <time>2010-01-01T06:16:58Z</time>
      </trkpt>
      <trkpt lat="38.90982" lon="1.33268">
        <ele>175</ele>
        <time>2010-01-01T06:17:02Z</time>
      </trkpt>
      <trkpt lat="38.90977" lon="1.3328">
        <ele>175</ele>
        <time>2010-01-01T06:17:06Z</time>
      </trkpt>
      <trkpt lat="38.90972" lon="1.33293">
        <ele>176</ele>
        <time>2010-01-01T06:17:11Z</time>
      </trkpt>
      <trkpt lat="38.90967" lon="1.33306">
        <ele>177</ele>
        <time>2010-01-01T06:17:15Z</time>
      </trkpt>
      <trkpt lat="38.90965" lon="1.33319">
        <ele>177</ele>
        <time>2010-01-01T06:17:19Z</time>
      </trkpt>
      <trkpt lat="38.90967" lon="1.33332">
        <ele>177</ele>
        <time>2010-01-01T06:17:24Z</time>
      </trkpt>
      <trkpt lat="38.90972" lon="1.33344">
        <ele>177</ele>
        <time>2010-01-01T06:17:28Z</time>
      </trkpt>
      <trkpt lat="38.90978" lon="1.33356">
        <ele>177</ele>
        <time>2010-01-01T06:17:32Z</time>
      </trkpt>
      <trkpt lat="38.90983" lon="1.33365">
        <ele>177</ele>
        <time>2010-01-01T06:17:36Z</time>
      </trkpt>
      <trkpt lat="38.90988" lon="1.33376">
        <ele>177</ele>
        <time>2010-01-01T06:17:39Z</time>
      </trkpt>
      <trkpt lat="38.90992" lon="1.33388">
        <ele>177</ele>
        <time>2010-01-01T06:17:43Z</time>
      </trkpt>
      <trkpt lat="38.90994" lon="1.33401">
        <ele>176</ele>
        <time>2010-01-01T06:17:48Z</time>
      </trkpt>
      <trkpt lat="38.90995" lon="1.33414">
        <ele>176</ele>
        <time>2010-01-01T06:17:52Z</time>
      </trkpt>
      <trkpt lat="38.90996" lon="1.33426">
        <ele>176</ele>
        <time>2010-01-01T06:17:56Z</time>
      </trkpt>
      <trkpt lat="38.90997" lon="1.33439">
        <ele>177</ele>
        <time>2010-01-01T06:18:00Z</time>
      </trkpt>
      <trkpt lat="38.90999" lon="1.33452">
        <ele>177</ele>
        <time>2010-01-01T06:18:04Z</time>
      </trkpt>
      <trkpt lat="38.91" lon="1.33464">
        <ele>177</ele>
        <time>2010-01-01T06:18:08Z</time>
      </trkpt>
      <trkpt lat="38.90999" lon="1.33477">
        <ele>177</ele>
        <time>2010-01-01T06:18:12Z</time>
      </trkpt>
      <trkpt lat="38.90996" lon="1.33488">
        <ele>176</ele>
        <time>2010-01-01T06:18:15Z</time>
      </trkpt>
      <trkpt lat="38.90995" lon="1.335">
        <ele>176</ele>
        <time>2010-01-01T06:18:19Z</time>
      </trkpt>
      <trkpt lat="38.90996" lon="1.33512">
        <ele>176</ele>
        <time>2010-01-01T06:18:23Z</time>
      </trkpt>
      <trkpt lat="38.90999" lon="1.33524">
        <ele>177</ele>
        <time>2010-01-01T06:18:27Z</time>
      </trkpt>
      <trkpt lat="38.91003" lon="1.33536">
        <ele>177</ele>
        <time>2010-01-01T06:18:31Z</time>
      </trkpt>
      <trkpt lat="38.91007" lon="1.33551">
        <ele>177</ele>
        <time>2010-01-01T06:18:35Z</time>
      </trkpt>
      <trkpt lat="38.91013" lon="1.3356">
        <ele>177</ele>
        <time>2010-01-01T06:18:39Z</time>
      </trkpt>
      <trkpt lat="38.91014" lon="1.33573">
        <ele>178</ele>
        <time>2010-01-01T06:18:43Z</time>
      </trkpt>
      <trkpt lat="38.91016" lon="1.33587">
        <ele>180</ele>
        <time>2010-01-01T06:18:48Z</time>
      </trkpt>
      <trkpt lat="38.91023" lon="1.33597">
        <ele>180</ele>
        <time>2010-01-01T06:18:52Z</time>
      </trkpt>
      <trkpt lat="38.91029" lon="1.33607">
        <ele>180</ele>
        <time>2010-01-01T06:18:56Z</time>
      </trkpt>
      <trkpt lat="38.91033" lon="1.33617">
        <ele>180</ele>
        <time>2010-01-01T06:18:59Z</time>
      </trkpt>
      <trkpt lat="38.91034" lon="1.3363">
        <ele>181</ele>
        <time>2010-01-01T06:19:03Z</time>
      </trkpt>
      <trkpt lat="38.91035" lon="1.33643">
        <ele>182</ele>
        <time>2010-01-01T06:19:07Z</time>
      </trkpt>
      <trkpt lat="38.91039" lon="1.33655">
        <ele>182</ele>
        <time>2010-01-01T06:19:11Z</time>
      </trkpt>
      <trkpt lat="38.91044" lon="1.33665">
        <ele>181</ele>
        <time>2010-01-01T06:19:15Z</time>
      </trkpt>
      <trkpt lat="38.91044" lon="1.33678">
        <ele>181</ele>
        <time>2010-01-01T06:19:19Z</time>
      </trkpt>
      <trkpt lat="38.91039" lon="1.33688">
        <ele>181</ele>
        <time>2010-01-01T06:19:23Z</time>
      </trkpt>
      <trkpt lat="38.91033" lon="1.33698">
        <ele>181</ele>
        <time>2010-01-01T06:19:27Z</time>
      </trkpt>
      <trkpt lat="38.91024" lon="1.33699">
        <ele>181</ele>
        <time>2010-01-01T06:19:30Z</time>
      </trkpt>
      <trkpt lat="38.91014" lon="1.33701">
        <ele>181</ele>
        <time>2010-01-01T06:19:34Z</time>
      </trkpt>
      <trkpt lat="38.91004" lon="1.33702">
        <ele>182</ele>
        <time>2010-01-01T06:19:38Z</time>
      </trkpt>
      <trkpt lat="38.90996" lon="1.33699">
        <ele>182</ele>
        <time>2010-01-01T06:19:42Z</time>
      </trkpt>
      <trkpt lat="38.90985" lon="1.337">
        <ele>181</ele>
        <time>2010-01-01T06:19:46Z</time>
      </trkpt>
      <trkpt lat="38.90975" lon="1.33702">
        <ele>181</ele>
        <time>2010-01-01T06:19:50Z</time>
      </trkpt>
      <trkpt lat="38.90966" lon="1.337">
        <ele>181</ele>
        <time>2010-01-01T06:19:54Z</time>
      </trkpt>
      <trkpt lat="38.90958" lon="1.33704">
        <ele>179</ele>
        <time>2010-01-01T06:19:58Z</time>
      </trkpt>
      <trkpt lat="38.9095" lon="1.33713">
        <ele>178</ele>
        <time>2010-01-01T06:20:02Z</time>
      </trkpt>
      <trkpt lat="38.90944" lon="1.33722">
        <ele>177</ele>
        <time>2010-01-01T06:20:05Z</time>
      </trkpt>
      <trkpt lat="38.90939" lon="1.33734">
        <ele>176</ele>
        <time>2010-01-01T06:20:10Z</time>
      </trkpt>
      <trkpt lat="38.90934" lon="1.33745">
        <ele>174</ele>
        <time>2010-01-01T06:20:14Z</time>
      </trkpt>
      <trkpt lat="38.90928" lon="1.33755">
        <ele>173</ele>
        <time>2010-01-01T06:20:18Z</time>
      </trkpt>
      <trkpt lat="38.90921" lon="1.33766">
        <ele>172</ele>
        <time>2010-01-01T06:20:22Z</time>
      </trkpt>
      <trkpt lat="38.90913" lon="1.33777">
        <ele>171</ele>
        <time>2010-01-01T06:20:26Z</time>
      </trkpt>
      <trkpt lat="38.90907" lon="1.33788">
        <ele>170</ele>
        <time>2010-01-01T06:20:31Z</time>
      </trkpt>
      <trkpt lat="38.90896" lon="1.33793">
        <ele>170</ele>
        <time>2010-01-01T06:20:35Z</time>
      </trkpt>
      <trkpt lat="38.90886" lon="1.33795">
        <ele>170</ele>
        <time>2010-01-01T06:20:39Z</time>
      </trkpt>
      <trkpt lat="38.90877" lon="1.33795">
        <ele>170</ele>
        <time>2010-01-01T06:20:43Z</time>
      </trkpt>
      <trkpt lat="38.90868" lon="1.3379">
        <ele>170</ele>
        <time>2010-01-01T06:20:47Z</time>
      </trkpt>
      <trkpt lat="38.90859" lon="1.33786">
        <ele>170</ele>
        <time>2010-01-01T06:20:51Z</time>
      </trkpt>
      <trkpt lat="38.90849" lon="1.33783">
        <ele>171</ele>
        <time>2010-01-01T06:20:55Z</time>
      </trkpt>
      <trkpt lat="38.9084" lon="1.33778">
        <ele>171</ele>
        <time>2010-01-01T06:20:59Z</time>
      </trkpt>
      <trkpt lat="38.90828" lon="1.33782">
        <ele>171</ele>
        <time>2010-01-01T06:21:04Z</time>
      </trkpt>
      <trkpt lat="38.90822" lon="1.3379">
        <ele>171</ele>
        <time>2010-01-01T06:21:07Z</time>
      </trkpt>
      <trkpt lat="38.90819" lon="1.33802">
        <ele>172</ele>
        <time>2010-01-01T06:21:11Z</time>
      </trkpt>
      <trkpt lat="38.90809" lon="1.33804">
        <ele>173</ele>
        <time>2010-01-01T06:21:15Z</time>
      </trkpt>
      <trkpt lat="38.90798" lon="1.33804">
        <ele>173</ele>
        <time>2010-01-01T06:21:19Z</time>
      </trkpt>
      <trkpt lat="38.90788" lon="1.33803">
        <ele>174</ele>
        <time>2010-01-01T06:21:23Z</time>
      </trkpt>
      <trkpt lat="38.90779" lon="1.33802">
        <ele>174</ele>
        <time>2010-01-01T06:21:27Z</time>
      </trkpt>
      <trkpt lat="38.90769" lon="1.33805">
        <ele>174</ele>
        <time>2010-01-01T06:21:31Z</time>
      </trkpt>
      <trkpt lat="38.9076" lon="1.33809">
        <ele>175</ele>
        <time>2010-01-01T06:21:35Z</time>
      </trkpt>
      <trkpt lat="38.90752" lon="1.33815">
        <ele>177</ele>
        <time>2010-01-01T06:21:39Z</time>
      </trkpt>
      <trkpt lat="38.90746" lon="1.33824">
        <ele>179</ele>
        <time>2010-01-01T06:21:43Z</time>
      </trkpt>
      <trkpt lat="38.90738" lon="1.33831">
        <ele>180</ele>
        <time>2010-01-01T06:21:46Z</time>
      </trkpt>
      <trkpt lat="38.90732" lon="1.33839">
        <ele>180</ele>
        <time>2010-01-01T06:21:50Z</time>
      </trkpt>
      <trkpt lat="38.90727" lon="1.33848">
        <ele>181</ele>
        <time>2010-01-01T06:21:53Z</time>
      </trkpt>
      <trkpt lat="38.90717" lon="1.33855">
        <ele>180</ele>
        <time>2010-01-01T06:21:58Z</time>
      </trkpt>
      <trkpt lat="38.90709" lon="1.33861">
        <ele>180</ele>
        <time>2010-01-01T06:22:01Z</time>
      </trkpt>
      <trkpt lat="38.90702" lon="1.33868">
        <ele>179</ele>
        <time>2010-01-01T06:22:05Z</time>
      </trkpt>
      <trkpt lat="38.90694" lon="1.33874">
        <ele>178</ele>
        <time>2010-01-01T06:22:09Z</time>
      </trkpt>
      <trkpt lat="38.90686" lon="1.33882">
        <ele>177</ele>
        <time>2010-01-01T06:22:13Z</time>
      </trkpt>
      <trkpt lat="38.90679" lon="1.33891">
        <ele>177</ele>
        <time>2010-01-01T06:22:17Z</time>
      </trkpt>
      <trkpt lat="38.90671" lon="1.33897">
        <ele>176</ele>
        <time>2010-01-01T06:22:20Z</time>
      </trkpt>
      <trkpt lat="38.90663" lon="1.33906">
        <ele>175</ele>
        <time>2010-01-01T06:22:25Z</time>
      </trkpt>
      <trkpt lat="38.90657" lon="1.33916">
        <ele>174</ele>
        <time>2010-01-01T06:22:29Z</time>
      </trkpt>
      <trkpt lat="38.90653" lon="1.33929">
        <ele>174</ele>
        <time>2010-01-01T06:22:33Z</time>
      </trkpt>
      <trkpt lat="38.90654" lon="1.33943">
        <ele>176</ele>
        <time>2010-01-01T06:22:37Z</time>
      </trkpt>
      <trkpt lat="38.90654" lon="1.33955">
        <ele>177</ele>
        <time>2010-01-01T06:22:41Z</time>
      </trkpt>
      <trkpt lat="38.90653" lon="1.33968">
        <ele>178</ele>
        <time>2010-01-01T06:22:45Z</time>
      </trkpt>
      <trkpt lat="38.90653" lon="1.3398">
        <ele>180</ele>
        <time>2010-01-01T06:22:49Z</time>
      </trkpt>
      <trkpt lat="38.90653" lon="1.33992">
        <ele>181</ele>
        <time>2010-01-01T06:22:53Z</time>
      </trkpt>
      <trkpt lat="38.90652" lon="1.34004">
        <ele>182</ele>
        <time>2010-01-01T06:22:56Z</time>
      </trkpt>
      <trkpt lat="38.90648" lon="1.34015">
        <ele>181</ele>
        <time>2010-01-01T06:23:00Z</time>
      </trkpt>
      <trkpt lat="38.90648" lon="1.34027">
        <ele>182</ele>
        <time>2010-01-01T06:23:04Z</time>
      </trkpt>
      <trkpt lat="38.90649" lon="1.34039">
        <ele>183</ele>
        <time>2010-01-01T06:23:08Z</time>
      </trkpt>
      <trkpt lat="38.90647" lon="1.34052">
        <ele>183</ele>
        <time>2010-01-01T06:23:12Z</time>
      </trkpt>
      <trkpt lat="38.90649" lon="1.34063">
        <ele>185</ele>
        <time>2010-01-01T06:23:16Z</time>
      </trkpt>
      <trkpt lat="38.90649" lon="1.34075">
        <ele>186</ele>
        <time>2010-01-01T06:23:19Z</time>
      </trkpt>
      <trkpt lat="38.90648" lon="1.34087">
        <ele>187</ele>
        <time>2010-01-01T06:23:23Z</time>
      </trkpt>
      <trkpt lat="38.90652" lon="1.34098">
        <ele>189</ele>
        <time>2010-01-01T06:23:27Z</time>
      </trkpt>
      <trkpt lat="38.9065" lon="1.34112">
        <ele>190</ele>
        <time>2010-01-01T06:23:31Z</time>
      </trkpt>
      <trkpt lat="38.90649" lon="1.34125">
        <ele>191</ele>
        <time>2010-01-01T06:23:35Z</time>
      </trkpt>
      <trkpt lat="38.90651" lon="1.34136">
        <ele>192</ele>
        <time>2010-01-01T06:23:39Z</time>
      </trkpt>
      <trkpt lat="38.90658" lon="1.34147">
        <ele>195</ele>
        <time>2010-01-01T06:23:43Z</time>
      </trkpt>
      <trkpt lat="38.90652" lon="1.34158">
        <ele>193</ele>
        <time>2010-01-01T06:23:47Z</time>
      </trkpt>
      <trkpt lat="38.90645" lon="1.34167">
        <ele>192</ele>
        <time>2010-01-01T06:23:51Z</time>
      </trkpt>
      <trkpt lat="38.90636" lon="1.34166">
        <ele>190</ele>
        <time>2010-01-01T06:23:55Z</time>
      </trkpt>
      <trkpt lat="38.90626" lon="1.34165">
        <ele>190</ele>
        <time>2010-01-01T06:23:59Z</time>
      </trkpt>
      <trkpt lat="38.90615" lon="1.34165">
        <ele>190</ele>
        <time>2010-01-01T06:24:03Z</time>
      </trkpt>
      <trkpt lat="38.90606" lon="1.34162">
        <ele>190</ele>
        <time>2010-01-01T06:24:07Z</time>
      </trkpt>
      <trkpt lat="38.90602" lon="1.3415">
        <ele>189</ele>
        <time>2010-01-01T06:24:11Z</time>
      </trkpt>
      <trkpt lat="38.90595" lon="1.34142">
        <ele>189</ele>
        <time>2010-01-01T06:24:15Z</time>
      </trkpt>
      <trkpt lat="38.90584" lon="1.34145">
        <ele>191</ele>
        <time>2010-01-01T06:24:19Z</time>
      </trkpt>
      <trkpt lat="38.9058" lon="1.34156">
        <ele>192</ele>
        <time>2010-01-01T06:24:23Z</time>
      </trkpt>
      <trkpt lat="38.90581" lon="1.34168">
        <ele>193</ele>
        <time>2010-01-01T06:24:27Z</time>
      </trkpt>
      <trkpt lat="38.90585" lon="1.34179">
        <ele>194</ele>
        <time>2010-01-01T06:24:31Z</time>
      </trkpt>
      <trkpt lat="38.90585" lon="1.34192">
        <ele>195</ele>
        <time>2010-01-01T06:24:35Z</time>
      </trkpt>
      <trkpt lat="38.90592" lon="1.34202">
        <ele>196</ele>
        <time>2010-01-01T06:24:39Z</time>
      </trkpt>
      <trkpt lat="38.90602" lon="1.34208">
        <ele>196</ele>
        <time>2010-01-01T06:24:43Z</time>
      </trkpt>
      <trkpt lat="38.90609" lon="1.34215">
        <ele>197</ele>
        <time>2010-01-01T06:24:47Z</time>
      </trkpt>
      <trkpt lat="38.90618" lon="1.34217">
        <ele>196</ele>
        <time>2010-01-01T06:24:50Z</time>
      </trkpt>
      <trkpt lat="38.90626" lon="1.34225">
        <ele>197</ele>
        <time>2010-01-01T06:24:54Z</time>
      </trkpt>
      <trkpt lat="38.90632" lon="1.34236">
        <ele>199</ele>
        <time>2010-01-01T06:24:59Z</time>
      </trkpt>
      <trkpt lat="38.90635" lon="1.34249">
        <ele>202</ele>
        <time>2010-01-01T06:25:03Z</time>
      </trkpt>
      <trkpt lat="38.90637" lon="1.34261">
        <ele>205</ele>
        <time>2010-01-01T06:25:07Z</time>
      </trkpt>
      <trkpt lat="38.90641" lon="1.34273">
        <ele>208</ele>
        <time>2010-01-01T06:25:11Z</time>
      </trkpt>
      <trkpt lat="38.90648" lon="1.34282">
        <ele>209</ele>
        <time>2010-01-01T06:25:15Z</time>
      </trkpt>
      <trkpt lat="38.90656" lon="1.34286">
        <ele>208</ele>
        <time>2010-01-01T06:25:18Z</time>
      </trkpt>
      <trkpt lat="38.90665" lon="1.34294">
        <ele>208</ele>
        <time>2010-01-01T06:25:22Z</time>
      </trkpt>
      <trkpt lat="38.90674" lon="1.34301">
        <ele>209</ele>
        <time>2010-01-01T06:25:27Z</time>
      </trkpt>
      <trkpt lat="38.90684" lon="1.34305">
        <ele>209</ele>
        <time>2010-01-01T06:25:31Z</time>
      </trkpt>
      <trkpt lat="38.90692" lon="1.34312">
        <ele>210</ele>
        <time>2010-01-01T06:25:35Z</time>
      </trkpt>
      <trkpt lat="38.90699" lon="1.34321">
        <ele>211</ele>
        <time>2010-01-01T06:25:39Z</time>
      </trkpt>
      <trkpt lat="38.90708" lon="1.34328">
        <ele>211</ele>
        <time>2010-01-01T06:25:43Z</time>
      </trkpt>
      <trkpt lat="38.90715" lon="1.34338">
        <ele>211</ele>
        <time>2010-01-01T06:25:47Z</time>
      </trkpt>
      <trkpt lat="38.90723" lon="1.34347">
        <ele>210</ele>
        <time>2010-01-01T06:25:51Z</time>
      </trkpt>
      <trkpt lat="38.90729" lon="1.34355">
        <ele>210</ele>
        <time>2010-01-01T06:25:55Z</time>
      </trkpt>
      <trkpt lat="38.90726" lon="1.34366">
        <ele>211</ele>
        <time>2010-01-01T06:25:59Z</time>
      </trkpt>
      <trkpt lat="38.90726" lon="1.34379">
        <ele>211</ele>
        <time>2010-01-01T06:26:02Z</time>
      </trkpt>
      <trkpt lat="38.90728" lon="1.34391">
        <ele>212</ele>
        <time>2010-01-01T06:26:06Z</time>
      </trkpt>
      <trkpt lat="38.90726" lon="1.34403">
        <ele>213</ele>
        <time>2010-01-01T06:26:10Z</time>
      </trkpt>
      <trkpt lat="38.90736" lon="1.34403">
        <ele>210</ele>
        <time>2010-01-01T06:26:14Z</time>
      </trkpt>
      <trkpt lat="38.90746" lon="1.34406">
        <ele>208</ele>
        <time>2010-01-01T06:26:18Z</time>
      </trkpt>
      <trkpt lat="38.90747" lon="1.34419">
        <ele>208</ele>
        <time>2010-01-01T06:26:22Z</time>
      </trkpt>
      <trkpt lat="38.90749" lon="1.34431">
        <ele>208</ele>
        <time>2010-01-01T06:26:26Z</time>
      </trkpt>
      <trkpt lat="38.90753" lon="1.34443">
        <ele>208</ele>
        <time>2010-01-01T06:26:30Z</time>
      </trkpt>
      <trkpt lat="38.90755" lon="1.34455">
        <ele>208</ele>
        <time>2010-01-01T06:26:34Z</time>
      </trkpt>
      <trkpt lat="38.90755" lon="1.34468">
        <ele>208</ele>
        <time>2010-01-01T06:26:38Z</time>
      </trkpt>
      <trkpt lat="38.90755" lon="1.34483">
        <ele>207</ele>
        <time>2010-01-01T06:26:43Z</time>
      </trkpt>
      <trkpt lat="38.90753" lon="1.34495">
        <ele>206</ele>
        <time>2010-01-01T06:26:47Z</time>
      </trkpt>
      <trkpt lat="38.9075" lon="1.34509">
        <ele>204</ele>
        <time>2010-01-01T06:26:51Z</time>
      </trkpt>
      <trkpt lat="38.90749" lon="1.34521">
        <ele>202</ele>
        <time>2010-01-01T06:26:55Z</time>
      </trkpt>
      <trkpt lat="38.90744" lon="1.34535">
        <ele>201</ele>
        <time>2010-01-01T06:27:00Z</time>
      </trkpt>
      <trkpt lat="38.90739" lon="1.34544">
        <ele>201</ele>
        <time>2010-01-01T06:27:03Z</time>
      </trkpt>
      <trkpt lat="38.90732" lon="1.34553">
        <ele>202</ele>
        <time>2010-01-01T06:27:07Z</time>
      </trkpt>
      <trkpt lat="38.90727" lon="1.34563">
        <ele>202</ele>
        <time>2010-01-01T06:27:11Z</time>
      </trkpt>
      <trkpt lat="38.90722" lon="1.34575">
        <ele>202</ele>
        <time>2010-01-01T06:27:15Z</time>
      </trkpt>
      <trkpt lat="38.90719" lon="1.34587">
        <ele>201</ele>
        <time>2010-01-01T06:27:19Z</time>
      </trkpt>
      <trkpt lat="38.90718" lon="1.34601">
        <ele>198</ele>
        <time>2010-01-01T06:27:23Z</time>
      </trkpt>
      <trkpt lat="38.90713" lon="1.34615">
        <ele>198</ele>
        <time>2010-01-01T06:27:28Z</time>
      </trkpt>
      <trkpt lat="38.90712" lon="1.34629">
        <ele>197</ele>
        <time>2010-01-01T06:27:33Z</time>
      </trkpt>
      <trkpt lat="38.9071" lon="1.34644">
        <ele>196</ele>
        <time>2010-01-01T06:27:37Z</time>
      </trkpt>
      <trkpt lat="38.90709" lon="1.34657">
        <ele>195</ele>
        <time>2010-01-01T06:27:41Z</time>
      </trkpt>
      <trkpt lat="38.90717" lon="1.34667">
        <ele>192</ele>
        <time>2010-01-01T06:27:45Z</time>
      </trkpt>
      <trkpt lat="38.90723" lon="1.34677">
        <ele>192</ele>
        <time>2010-01-01T06:27:50Z</time>
      </trkpt>
      <trkpt lat="38.90731" lon="1.34685">
        <ele>191</ele>
        <time>2010-01-01T06:27:53Z</time>
      </trkpt>
      <trkpt lat="38.90735" lon="1.34696">
        <ele>191</ele>
        <time>2010-01-01T06:27:57Z</time>
      </trkpt>
      <trkpt lat="38.90741" lon="1.34709">
        <ele>191</ele>
        <time>2010-01-01T06:28:02Z</time>
      </trkpt>
      <trkpt lat="38.90744" lon="1.34722">
        <ele>191</ele>
        <time>2010-01-01T06:28:06Z</time>
      </trkpt>
      <trkpt lat="38.90745" lon="1.34734">
        <ele>190</ele>
        <time>2010-01-01T06:28:10Z</time>
      </trkpt>
      <trkpt lat="38.90746" lon="1.34746">
        <ele>190</ele>
        <time>2010-01-01T06:28:14Z</time>
      </trkpt>
      <trkpt lat="38.90744" lon="1.34759">
        <ele>189</ele>
        <time>2010-01-01T06:28:18Z</time>
      </trkpt>
      <trkpt lat="38.90745" lon="1.34774">
        <ele>188</ele>
        <time>2010-01-01T06:28:23Z</time>
      </trkpt>
      <trkpt lat="38.90747" lon="1.34787">
        <ele>186</ele>
        <time>2010-01-01T06:28:27Z</time>
      </trkpt>
      <trkpt lat="38.90751" lon="1.348">
        <ele>183</ele>
        <time>2010-01-01T06:28:31Z</time>
      </trkpt>
      <trkpt lat="38.90759" lon="1.3481">
        <ele>180</ele>
        <time>2010-01-01T06:28:36Z</time>
      </trkpt>
      <trkpt lat="38.90765" lon="1.34819">
        <ele>177</ele>
        <time>2010-01-01T06:28:39Z</time>
      </trkpt>
      <trkpt lat="38.90773" lon="1.3483">
        <ele>174</ele>
        <time>2010-01-01T06:28:44Z</time>
      </trkpt>
      <trkpt lat="38.90773" lon="1.34842">
        <ele>172</ele>
        <time>2010-01-01T06:28:48Z</time>
      </trkpt>
      <trkpt lat="38.9077" lon="1.34854">
        <ele>172</ele>
        <time>2010-01-01T06:28:52Z</time>
      </trkpt>
      <trkpt lat="38.90763" lon="1.34864">
        <ele>172</ele>
        <time>2010-01-01T06:28:56Z</time>
      </trkpt>
      <trkpt lat="38.90762" lon="1.3488">
        <ele>170</ele>
        <time>2010-01-01T06:29:01Z</time>
      </trkpt>
      <trkpt lat="38.90771" lon="1.34873">
        <ele>169</ele>
        <time>2010-01-01T06:29:05Z</time>
      </trkpt>
      <trkpt lat="38.9078" lon="1.34867">
        <ele>168</ele>
        <time>2010-01-01T06:29:09Z</time>
      </trkpt>
      <trkpt lat="38.90789" lon="1.34871">
        <ele>166</ele>
        <time>2010-01-01T06:29:13Z</time>
      </trkpt>
      <trkpt lat="38.90797" lon="1.34875">
        <ele>164</ele>
        <time>2010-01-01T06:29:16Z</time>
      </trkpt>
      <trkpt lat="38.90807" lon="1.34878">
        <ele>161</ele>
        <time>2010-01-01T06:29:20Z</time>
      </trkpt>
      <trkpt lat="38.90811" lon="1.34889">
        <ele>159</ele>
        <time>2010-01-01T06:29:24Z</time>
      </trkpt>
      <trkpt lat="38.90817" lon="1.34898">
        <ele>157</ele>
        <time>2010-01-01T06:29:28Z</time>
      </trkpt>
      <trkpt lat="38.90826" lon="1.34906">
        <ele>154</ele>
        <time>2010-01-01T06:29:32Z</time>
      </trkpt>
      <trkpt lat="38.90833" lon="1.34912">
        <ele>152</ele>
        <time>2010-01-01T06:29:36Z</time>
      </trkpt>
      <trkpt lat="38.90841" lon="1.3492">
        <ele>149</ele>
        <time>2010-01-01T06:29:40Z</time>
      </trkpt>
      <trkpt lat="38.9085" lon="1.34924">
        <ele>147</ele>
        <time>2010-01-01T06:29:43Z</time>
      </trkpt>
      <trkpt lat="38.90858" lon="1.34932">
        <ele>145</ele>
        <time>2010-01-01T06:29:47Z</time>
      </trkpt>
      <trkpt lat="38.90865" lon="1.34938">
        <ele>142</ele>
        <time>2010-01-01T06:29:51Z</time>
      </trkpt>
      <trkpt lat="38.90874" lon="1.34945">
        <ele>140</ele>
        <time>2010-01-01T06:29:55Z</time>
      </trkpt>
      <trkpt lat="38.90881" lon="1.34955">
        <ele>138</ele>
        <time>2010-01-01T06:29:59Z</time>
      </trkpt>
      <trkpt lat="38.90888" lon="1.34961">
        <ele>135</ele>
        <time>2010-01-01T06:30:03Z</time>
      </trkpt>
      <trkpt lat="38.90897" lon="1.34968">
        <ele>132</ele>
        <time>2010-01-01T06:30:07Z</time>
      </trkpt>
      <trkpt lat="38.90905" lon="1.34976">
        <ele>129</ele>
        <time>2010-01-01T06:30:11Z</time>
      </trkpt>
      <trkpt lat="38.90916" lon="1.34984">
        <ele>125</ele>
        <time>2010-01-01T06:30:16Z</time>
      </trkpt>
      <trkpt lat="38.90928" lon="1.34985">
        <ele>122</ele>
        <time>2010-01-01T06:30:21Z</time>
      </trkpt>
      <trkpt lat="38.90935" lon="1.34976">
        <ele>122</ele>
        <time>2010-01-01T06:30:25Z</time>
      </trkpt>
      <trkpt lat="38.90942" lon="1.34966">
        <ele>121</ele>
        <time>2010-01-01T06:30:29Z</time>
      </trkpt>
      <trkpt lat="38.90947" lon="1.34955">
        <ele>122</ele>
        <time>2010-01-01T06:30:33Z</time>
      </trkpt>
      <trkpt lat="38.90953" lon="1.34945">
        <ele>121</ele>
        <time>2010-01-01T06:30:37Z</time>
      </trkpt>
      <trkpt lat="38.90961" lon="1.34939">
        <ele>120</ele>
        <time>2010-01-01T06:30:41Z</time>
      </trkpt>
      <trkpt lat="38.90972" lon="1.34942">
        <ele>117</ele>
        <time>2010-01-01T06:30:45Z</time>
      </trkpt>
      <trkpt lat="38.90985" lon="1.34953">
        <ele>114</ele>
        <time>2010-01-01T06:30:51Z</time>
      </trkpt>
      <trkpt lat="38.90992" lon="1.34961">
        <ele>111</ele>
        <time>2010-01-01T06:30:55Z</time>
      </trkpt>
      <trkpt lat="38.91" lon="1.3497">
        <ele>109</ele>
        <time>2010-01-01T06:30:59Z</time>
      </trkpt>
      <trkpt lat="38.91007" lon="1.3498">
        <ele>107</ele>
        <time>2010-01-01T06:31:03Z</time>
      </trkpt>
      <trkpt lat="38.91015" lon="1.34988">
        <ele>105</ele>
        <time>2010-01-01T06:31:07Z</time>
      </trkpt>
      <trkpt lat="38.91022" lon="1.34996">
        <ele>104</ele>
        <time>2010-01-01T06:31:11Z</time>
      </trkpt>
      <trkpt lat="38.91029" lon="1.35005">
        <ele>103</ele>
        <time>2010-01-01T06:31:15Z</time>
      </trkpt>
      <trkpt lat="38.91036" lon="1.35014">
        <ele>104</ele>
        <time>2010-01-01T06:31:19Z</time>
      </trkpt>
      <trkpt lat="38.91027" lon="1.3502">
        <ele>104</ele>
        <time>2010-01-01T06:31:23Z</time>
      </trkpt>
      <trkpt lat="38.91024" lon="1.35032">
        <ele>106</ele>
        <time>2010-01-01T06:31:27Z</time>
      </trkpt>
      <trkpt lat="38.91021" lon="1.35044">
        <ele>107</ele>
        <time>2010-01-01T06:31:31Z</time>
      </trkpt>
      <trkpt lat="38.9102" lon="1.35057">
        <ele>109</ele>
        <time>2010-01-01T06:31:35Z</time>
      </trkpt>
      <trkpt lat="38.91011" lon="1.35062">
        <ele>110</ele>
        <time>2010-01-01T06:31:39Z</time>
      </trkpt>
      <trkpt lat="38.91005" lon="1.35073">
        <ele>112</ele>
        <time>2010-01-01T06:31:43Z</time>
      </trkpt>
      <trkpt lat="38.90996" lon="1.35079">
        <ele>113</ele>
        <time>2010-01-01T06:31:47Z</time>
      </trkpt>
      <trkpt lat="38.90988" lon="1.35086">
        <ele>114</ele>
        <time>2010-01-01T06:31:51Z</time>
      </trkpt>
      <trkpt lat="38.90981" lon="1.35094">
        <ele>114</ele>
        <time>2010-01-01T06:31:54Z</time>
      </trkpt>
      <trkpt lat="38.90978" lon="1.35106">
        <ele>114</ele>
        <time>2010-01-01T06:31:58Z</time>
      </trkpt>
      <trkpt lat="38.90971" lon="1.35113">
        <ele>115</ele>
        <time>2010-01-01T06:32:02Z</time>
      </trkpt>
      <trkpt lat="38.90963" lon="1.3512">
        <ele>117</ele>
        <time>2010-01-01T06:32:06Z</time>
      </trkpt>
      <trkpt lat="38.90957" lon="1.35129">
        <ele>119</ele>
        <time>2010-01-01T06:32:10Z</time>
      </trkpt>
      <trkpt lat="38.90947" lon="1.35135">
        <ele>120</ele>
        <time>2010-01-01T06:32:14Z</time>
      </trkpt>
      <trkpt lat="38.90938" lon="1.35144">
        <ele>122</ele>
        <time>2010-01-01T06:32:18Z</time>
      </trkpt>
      <trkpt lat="38.90932" lon="1.35153">
        <ele>123</ele>
        <time>2010-01-01T06:32:22Z</time>
      </trkpt>
      <trkpt lat="38.90924" lon="1.35159">
        <ele>125</ele>
        <time>2010-01-01T06:32:26Z</time>
      </trkpt>
      <trkpt lat="38.90918" lon="1.35169">
        <ele>125</ele>
        <time>2010-01-01T06:32:30Z</time>
      </trkpt>
      <trkpt lat="38.9091" lon="1.35175">
        <ele>126</ele>
        <time>2010-01-01T06:32:33Z</time>
      </trkpt>
      <trkpt lat="38.90902" lon="1.35184">
        <ele>128</ele>
        <time>2010-01-01T06:32:38Z</time>
      </trkpt>
      <trkpt lat="38.90893" lon="1.35187">
        <ele>129</ele>
        <time>2010-01-01T06:32:41Z</time>
      </trkpt>
      <trkpt lat="38.90888" lon="1.35199">
        <ele>130</ele>
        <time>2010-01-01T06:32:46Z</time>
      </trkpt>
      <trkpt lat="38.90887" lon="1.35212">
        <ele>130</ele>
        <time>2010-01-01T06:32:49Z</time>
      </trkpt>
      <trkpt lat="38.90883" lon="1.35223">
        <ele>131</ele>
        <time>2010-01-01T06:32:53Z</time>
      </trkpt>
      <trkpt lat="38.90878" lon="1.35233">
        <ele>131</ele>
        <time>2010-01-01T06:32:57Z</time>
      </trkpt>
      <trkpt lat="38.90873" lon="1.35245">
        <ele>130</ele>
        <time>2010-01-01T06:33:01Z</time>
      </trkpt>
      <trkpt lat="38.90871" lon="1.35257">
        <ele>129</ele>
        <time>2010-01-01T06:33:05Z</time>
      </trkpt>
      <trkpt lat="38.90862" lon="1.35262">
        <ele>129</ele>
        <time>2010-01-01T06:33:09Z</time>
      </trkpt>
      <trkpt lat="38.90852" lon="1.35264">
        <ele>129</ele>
        <time>2010-01-01T06:33:13Z</time>
      </trkpt>
      <trkpt lat="38.90841" lon="1.35269">
        <ele>129</ele>
        <time>2010-01-01T06:33:18Z</time>
      </trkpt>
      <trkpt lat="38.90831" lon="1.35271">
        <ele>129</ele>
        <time>2010-01-01T06:33:22Z</time>
      </trkpt>
      <trkpt lat="38.90822" lon="1.35269">
        <ele>129</ele>
        <time>2010-01-01T06:33:26Z</time>
      </trkpt>
      <trkpt lat="38.90812" lon="1.35267">
        <ele>129</ele>
        <time>2010-01-01T06:33:30Z</time>
      </trkpt>
      <trkpt lat="38.90803" lon="1.35269">
        <ele>128</ele>
        <time>2010-01-01T06:33:34Z</time>
      </trkpt>
      <trkpt lat="38.90793" lon="1.35271">
        <ele>127</ele>
        <time>2010-01-01T06:33:37Z</time>
      </trkpt>
      <trkpt lat="38.90783" lon="1.35271">
        <ele>127</ele>
        <time>2010-01-01T06:33:41Z</time>
      </trkpt>
      <trkpt lat="38.90773" lon="1.35269">
        <ele>126</ele>
        <time>2010-01-01T06:33:45Z</time>
      </trkpt>
      <trkpt lat="38.90763" lon="1.3527">
        <ele>125</ele>
        <time>2010-01-01T06:33:50Z</time>
      </trkpt>
      <trkpt lat="38.90755" lon="1.35278">
        <ele>123</ele>
        <time>2010-01-01T06:33:54Z</time>
      </trkpt>
      <trkpt lat="38.90747" lon="1.35287">
        <ele>122</ele>
        <time>2010-01-01T06:33:58Z</time>
      </trkpt>
      <trkpt lat="38.90739" lon="1.35293">
        <ele>121</ele>
        <time>2010-01-01T06:34:01Z</time>
      </trkpt>
      <trkpt lat="38.9073" lon="1.353">
        <ele>120</ele>
        <time>2010-01-01T06:34:06Z</time>
      </trkpt>
      <trkpt lat="38.9072" lon="1.35304">
        <ele>119</ele>
        <time>2010-01-01T06:34:10Z</time>
      </trkpt>
      <trkpt lat="38.90715" lon="1.35293">
        <ele>119</ele>
        <time>2010-01-01T06:34:14Z</time>
      </trkpt>
      <trkpt lat="38.90711" lon="1.35282">
        <ele>120</ele>
        <time>2010-01-01T06:34:17Z</time>
      </trkpt>
      <trkpt lat="38.90703" lon="1.35288">
        <ele>119</ele>
        <time>2010-01-01T06:34:21Z</time>
      </trkpt>
      <trkpt lat="38.90695" lon="1.35294">
        <ele>118</ele>
        <time>2010-01-01T06:34:25Z</time>
      </trkpt>
      <trkpt lat="38.90688" lon="1.35306">
        <ele>116</ele>
        <time>2010-01-01T06:34:29Z</time>
      </trkpt>
      <trkpt lat="38.90681" lon="1.35316">
        <ele>114</ele>
        <time>2010-01-01T06:34:34Z</time>
      </trkpt>
      <trkpt lat="38.90673" lon="1.35327">
        <ele>112</ele>
        <time>2010-01-01T06:34:38Z</time>
      </trkpt>
      <trkpt lat="38.90667" lon="1.35336">
        <ele>110</ele>
        <time>2010-01-01T06:34:42Z</time>
      </trkpt>
      <trkpt lat="38.9066" lon="1.35344">
        <ele>110</ele>
        <time>2010-01-01T06:34:46Z</time>
      </trkpt>
      <trkpt lat="38.90652" lon="1.35352">
        <ele>109</ele>
        <time>2010-01-01T06:34:50Z</time>
      </trkpt>
      <trkpt lat="38.90645" lon="1.35361">
        <ele>108</ele>
        <time>2010-01-01T06:34:54Z</time>
      </trkpt>
      <trkpt lat="38.90638" lon="1.3537">
        <ele>108</ele>
        <time>2010-01-01T06:34:58Z</time>
      </trkpt>
      <trkpt lat="38.90631" lon="1.35379">
        <ele>107</ele>
        <time>2010-01-01T06:35:02Z</time>
      </trkpt>
      <trkpt lat="38.90624" lon="1.35389">
        <ele>106</ele>
        <time>2010-01-01T06:35:06Z</time>
      </trkpt>
      <trkpt lat="38.90616" lon="1.35397">
        <ele>106</ele>
        <time>2010-01-01T06:35:10Z</time>
      </trkpt>
      <trkpt lat="38.90608" lon="1.35402">
        <ele>105</ele>
        <time>2010-01-01T06:35:14Z</time>
      </trkpt>
      <trkpt lat="38.90599" lon="1.35408">
        <ele>106</ele>
        <time>2010-01-01T06:35:18Z</time>
      </trkpt>
      <trkpt lat="38.90591" lon="1.35415">
        <ele>105</ele>
        <time>2010-01-01T06:35:22Z</time>
      </trkpt>
      <trkpt lat="38.90582" lon="1.35421">
        <ele>105</ele>
        <time>2010-01-01T06:35:26Z</time>
      </trkpt>
      <trkpt lat="38.90574" lon="1.35427">
        <ele>105</ele>
        <time>2010-01-01T06:35:29Z</time>
      </trkpt>
      <trkpt lat="38.90565" lon="1.35433">
        <ele>105</ele>
        <time>2010-01-01T06:35:33Z</time>
      </trkpt>
      <trkpt lat="38.90558" lon="1.3544">
        <ele>105</ele>
        <time>2010-01-01T06:35:37Z</time>
      </trkpt>
      <trkpt lat="38.9055" lon="1.35448">
        <ele>104</ele>
        <time>2010-01-01T06:35:41Z</time>
      </trkpt>
      <trkpt lat="38.9054" lon="1.35454">
        <ele>103</ele>
        <time>2010-01-01T06:35:45Z</time>
      </trkpt>
      <trkpt lat="38.90531" lon="1.3546">
        <ele>102</ele>
        <time>2010-01-01T06:35:49Z</time>
      </trkpt>
      <trkpt lat="38.90524" lon="1.35468">
        <ele>101</ele>
        <time>2010-01-01T06:35:53Z</time>
      </trkpt>
      <trkpt lat="38.90517" lon="1.35478">
        <ele>100</ele>
        <time>2010-01-01T06:35:57Z</time>
      </trkpt>
      <trkpt lat="38.90511" lon="1.35489">
        <ele>99</ele>
        <time>2010-01-01T06:36:01Z</time>
      </trkpt>
      <trkpt lat="38.90505" lon="1.35499">
        <ele>98</ele>
        <time>2010-01-01T06:36:06Z</time>
      </trkpt>
      <trkpt lat="38.90499" lon="1.35513">
        <ele>97</ele>
        <time>2010-01-01T06:36:10Z</time>
      </trkpt>
      <trkpt lat="38.90497" lon="1.35526">
        <ele>97</ele>
        <time>2010-01-01T06:36:14Z</time>
      </trkpt>
      <trkpt lat="38.90499" lon="1.35538">
        <ele>96</ele>
        <time>2010-01-01T06:36:18Z</time>
      </trkpt>
      <trkpt lat="38.905" lon="1.3555">
        <ele>96</ele>
        <time>2010-01-01T06:36:22Z</time>
      </trkpt>
      <trkpt lat="38.90502" lon="1.35564">
        <ele>96</ele>
        <time>2010-01-01T06:36:27Z</time>
      </trkpt>
      <trkpt lat="38.90505" lon="1.35576">
        <ele>96</ele>
        <time>2010-01-01T06:36:30Z</time>
      </trkpt>
      <trkpt lat="38.90507" lon="1.35589">
        <ele>95</ele>
        <time>2010-01-01T06:36:35Z</time>
      </trkpt>
      <trkpt lat="38.90507" lon="1.35603">
        <ele>95</ele>
        <time>2010-01-01T06:36:39Z</time>
      </trkpt>
      <trkpt lat="38.905" lon="1.35611">
        <ele>94</ele>
        <time>2010-01-01T06:36:43Z</time>
      </trkpt>
      <trkpt lat="38.90491" lon="1.35616">
        <ele>94</ele>
        <time>2010-01-01T06:36:47Z</time>
      </trkpt>
      <trkpt lat="38.90483" lon="1.35623">
        <ele>93</ele>
        <time>2010-01-01T06:36:51Z</time>
      </trkpt>
      <trkpt lat="38.90474" lon="1.35629">
        <ele>93</ele>
        <time>2010-01-01T06:36:54Z</time>
      </trkpt>
      <trkpt lat="38.90466" lon="1.35637">
        <ele>92</ele>
        <time>2010-01-01T06:36:59Z</time>
      </trkpt>
      <trkpt lat="38.90457" lon="1.35641">
        <ele>92</ele>
        <time>2010-01-01T06:37:02Z</time>
      </trkpt>
      <trkpt lat="38.90447" lon="1.35641">
        <ele>91</ele>
        <time>2010-01-01T06:37:07Z</time>
      </trkpt>
      <trkpt lat="38.90435" lon="1.35641">
        <ele>91</ele>
        <time>2010-01-01T06:37:11Z</time>
      </trkpt>
      <trkpt lat="38.90426" lon="1.35644">
        <ele>91</ele>
        <time>2010-01-01T06:37:15Z</time>
      </trkpt>
      <trkpt lat="38.90417" lon="1.35644">
        <ele>90</ele>
        <time>2010-01-01T06:37:19Z</time>
      </trkpt>
      <trkpt lat="38.90407" lon="1.35641">
        <ele>90</ele>
        <time>2010-01-01T06:37:23Z</time>
      </trkpt>
      <trkpt lat="38.90397" lon="1.3564">
        <ele>90</ele>
        <time>2010-01-01T06:37:27Z</time>
      </trkpt>
      <trkpt lat="38.90388" lon="1.35638">
        <ele>90</ele>
        <time>2010-01-01T06:37:30Z</time>
      </trkpt>
      <trkpt lat="38.90379" lon="1.3564">
        <ele>89</ele>
        <time>2010-01-01T06:37:34Z</time>
      </trkpt>
      <trkpt lat="38.90365" lon="1.35638">
        <ele>90</ele>
        <time>2010-01-01T06:37:40Z</time>
      </trkpt>
      <trkpt lat="38.90356" lon="1.35637">
        <ele>89</ele>
        <time>2010-01-01T06:37:43Z</time>
      </trkpt>
      <trkpt lat="38.90346" lon="1.35636">
        <ele>89</ele>
        <time>2010-01-01T06:37:47Z</time>
      </trkpt>
      <trkpt lat="38.90336" lon="1.35632">
        <ele>89</ele>
        <time>2010-01-01T06:37:51Z</time>
      </trkpt>
      <trkpt lat="38.90327" lon="1.35627">
        <ele>89</ele>
        <time>2010-01-01T06:37:56Z</time>
      </trkpt>
      <trkpt lat="38.90316" lon="1.35625">
        <ele>89</ele>
        <time>2010-01-01T06:38:00Z</time>
      </trkpt>
      <trkpt lat="38.90306" lon="1.35624">
        <ele>88</ele>
        <time>2010-01-01T06:38:04Z</time>
      </trkpt>
      <trkpt lat="38.90297" lon="1.35622">
        <ele>88</ele>
        <time>2010-01-01T06:38:08Z</time>
      </trkpt>
      <trkpt lat="38.90287" lon="1.35623">
        <ele>88</ele>
        <time>2010-01-01T06:38:12Z</time>
      </trkpt>
      <trkpt lat="38.90276" lon="1.35625">
        <ele>88</ele>
        <time>2010-01-01T06:38:16Z</time>
      </trkpt>
      <trkpt lat="38.90271" lon="1.35635">
        <ele>87</ele>
        <time>2010-01-01T06:38:19Z</time>
      </trkpt>
      <trkpt lat="38.90264" lon="1.35643">
        <ele>87</ele>
        <time>2010-01-01T06:38:23Z</time>
      </trkpt>
      <trkpt lat="38.90255" lon="1.3565">
        <ele>86</ele>
        <time>2010-01-01T06:38:27Z</time>
      </trkpt>
      <trkpt lat="38.90251" lon="1.35663">
        <ele>85</ele>
        <time>2010-01-01T06:38:32Z</time>
      </trkpt>
      <trkpt lat="38.90252" lon="1.35675">
        <ele>84</ele>
        <time>2010-01-01T06:38:36Z</time>
      </trkpt>
      <trkpt lat="38.90257" lon="1.35687">
        <ele>83</ele>
        <time>2010-01-01T06:38:40Z</time>
      </trkpt>
      <trkpt lat="38.9026" lon="1.35699">
        <ele>83</ele>
        <time>2010-01-01T06:38:44Z</time>
      </trkpt>
      <trkpt lat="38.90264" lon="1.35711">
        <ele>83</ele>
        <time>2010-01-01T06:38:48Z</time>
      </trkpt>
      <trkpt lat="38.90265" lon="1.35724">
        <ele>83</ele>
        <time>2010-01-01T06:38:52Z</time>
      </trkpt>
      <trkpt lat="38.90265" lon="1.35738">
        <ele>83</ele>
        <time>2010-01-01T06:38:56Z</time>
      </trkpt>
      <trkpt lat="38.90265" lon="1.3575">
        <ele>83</ele>
        <time>2010-01-01T06:39:00Z</time>
      </trkpt>
      <trkpt lat="38.90267" lon="1.35762">
        <ele>83</ele>
        <time>2010-01-01T06:39:04Z</time>
      </trkpt>
      <trkpt lat="38.90268" lon="1.35773">
        <ele>83</ele>
        <time>2010-01-01T06:39:07Z</time>
      </trkpt>
      <trkpt lat="38.90271" lon="1.35787">
        <ele>83</ele>
        <time>2010-01-01T06:39:12Z</time>
      </trkpt>
      <trkpt lat="38.90274" lon="1.35801">
        <ele>82</ele>
        <time>2010-01-01T06:39:16Z</time>
      </trkpt>
      <trkpt lat="38.90276" lon="1.35812">
        <ele>81</ele>
        <time>2010-01-01T06:39:20Z</time>
      </trkpt>
      <trkpt lat="38.90276" lon="1.35826">
        <ele>81</ele>
        <time>2010-01-01T06:39:24Z</time>
      </trkpt>
      <trkpt lat="38.90276" lon="1.35841">
        <ele>80</ele>
        <time>2010-01-01T06:39:29Z</time>
      </trkpt>
      <trkpt lat="38.90279" lon="1.35852">
        <ele>80</ele>
        <time>2010-01-01T06:39:33Z</time>
      </trkpt>
      <trkpt lat="38.90277" lon="1.35864">
        <ele>79</ele>
        <time>2010-01-01T06:39:36Z</time>
      </trkpt>
      <trkpt lat="38.90272" lon="1.35874">
        <ele>79</ele>
        <time>2010-01-01T06:39:40Z</time>
      </trkpt>
      <trkpt lat="38.90266" lon="1.35883">
        <ele>79</ele>
        <time>2010-01-01T06:39:44Z</time>
      </trkpt>
      <trkpt lat="38.9026" lon="1.35892">
        <ele>78</ele>
        <time>2010-01-01T06:39:47Z</time>
      </trkpt>
      <trkpt lat="38.90253" lon="1.35902">
        <ele>78</ele>
        <time>2010-01-01T06:39:52Z</time>
      </trkpt>
      <trkpt lat="38.90245" lon="1.3591">
        <ele>78</ele>
        <time>2010-01-01T06:39:56Z</time>
      </trkpt>
      <trkpt lat="38.9024" lon="1.3592">
        <ele>77</ele>
        <time>2010-01-01T06:40:00Z</time>
      </trkpt>
      <trkpt lat="38.90232" lon="1.35929">
        <ele>77</ele>
        <time>2010-01-01T06:40:04Z</time>
      </trkpt>
      <trkpt lat="38.90224" lon="1.35938">
        <ele>76</ele>
        <time>2010-01-01T06:40:08Z</time>
      </trkpt>
      <trkpt lat="38.90216" lon="1.35948">
        <ele>75</ele>
        <time>2010-01-01T06:40:12Z</time>
      </trkpt>
      <trkpt lat="38.90208" lon="1.35958">
        <ele>74</ele>
        <time>2010-01-01T06:40:17Z</time>
      </trkpt>
      <trkpt lat="38.90202" lon="1.35969">
        <ele>74</ele>
        <time>2010-01-01T06:40:21Z</time>
      </trkpt>
      <trkpt lat="38.90194" lon="1.35977">
        <ele>73</ele>
        <time>2010-01-01T06:40:25Z</time>
      </trkpt>
      <trkpt lat="38.90187" lon="1.35985">
        <ele>73</ele>
        <time>2010-01-01T06:40:29Z</time>
      </trkpt>
      <trkpt lat="38.9018" lon="1.35996">
        <ele>73</ele>
        <time>2010-01-01T06:40:33Z</time>
      </trkpt>
      <trkpt lat="38.90173" lon="1.36007">
        <ele>74</ele>
        <time>2010-01-01T06:40:38Z</time>
      </trkpt>
      <trkpt lat="38.90168" lon="1.36019">
        <ele>74</ele>
        <time>2010-01-01T06:40:42Z</time>
      </trkpt>
      <trkpt lat="38.90162" lon="1.36028">
        <ele>74</ele>
        <time>2010-01-01T06:40:46Z</time>
      </trkpt>
      <trkpt lat="38.90154" lon="1.36038">
        <ele>74</ele>
        <time>2010-01-01T06:40:50Z</time>
      </trkpt>
      <trkpt lat="38.90145" lon="1.36047">
        <ele>74</ele>
        <time>2010-01-01T06:40:55Z</time>
      </trkpt>
      <trkpt lat="38.90138" lon="1.36057">
        <ele>74</ele>
        <time>2010-01-01T06:40:59Z</time>
      </trkpt>
      <trkpt lat="38.90132" lon="1.36065">
        <ele>74</ele>
        <time>2010-01-01T06:41:02Z</time>
      </trkpt>
      <trkpt lat="38.90124" lon="1.36071">
        <ele>74</ele>
        <time>2010-01-01T06:41:06Z</time>
      </trkpt>
      <trkpt lat="38.90118" lon="1.36079">
        <ele>74</ele>
        <time>2010-01-01T06:41:10Z</time>
      </trkpt>
      <trkpt lat="38.9011" lon="1.36086">
        <ele>75</ele>
        <time>2010-01-01T06:41:14Z</time>
      </trkpt>
      <trkpt lat="38.901" lon="1.36091">
        <ele>75</ele>
        <time>2010-01-01T06:41:18Z</time>
      </trkpt>
      <trkpt lat="38.90094" lon="1.361">
        <ele>75</ele>
        <time>2010-01-01T06:41:21Z</time>
      </trkpt>
      <trkpt lat="38.90102" lon="1.36105">
        <ele>77</ele>
        <time>2010-01-01T06:41:25Z</time>
      </trkpt>
      <trkpt lat="38.90111" lon="1.3611">
        <ele>78</ele>
        <time>2010-01-01T06:41:29Z</time>
      </trkpt>
      <trkpt lat="38.90119" lon="1.36116">
        <ele>80</ele>
        <time>2010-01-01T06:41:33Z</time>
      </trkpt>
      <trkpt lat="38.90119" lon="1.36129">
        <ele>82</ele>
        <time>2010-01-01T06:41:37Z</time>
      </trkpt>
      <trkpt lat="38.90116" lon="1.3614">
        <ele>84</ele>
        <time>2010-01-01T06:41:41Z</time>
      </trkpt>
      <trkpt lat="38.90112" lon="1.36152">
        <ele>84</ele>
        <time>2010-01-01T06:41:45Z</time>
      </trkpt>
      <trkpt lat="38.90107" lon="1.36163">
        <ele>84</ele>
        <time>2010-01-01T06:41:48Z</time>
      </trkpt>
      <trkpt lat="38.90102" lon="1.36175">
        <ele>84</ele>
        <time>2010-01-01T06:41:53Z</time>
      </trkpt>
      <trkpt lat="38.90096" lon="1.36186">
        <ele>84</ele>
        <time>2010-01-01T06:41:57Z</time>
      </trkpt>
      <trkpt lat="38.90093" lon="1.36198">
        <ele>84</ele>
        <time>2010-01-01T06:42:01Z</time>
      </trkpt>
      <trkpt lat="38.9009" lon="1.3621">
        <ele>84</ele>
        <time>2010-01-01T06:42:05Z</time>
      </trkpt>
      <trkpt lat="38.90087" lon="1.36221">
        <ele>84</ele>
        <time>2010-01-01T06:42:08Z</time>
      </trkpt>
      <trkpt lat="38.90087" lon="1.36233">
        <ele>85</ele>
        <time>2010-01-01T06:42:12Z</time>
      </trkpt>
      <trkpt lat="38.90083" lon="1.36244">
        <ele>86</ele>
        <time>2010-01-01T06:42:16Z</time>
      </trkpt>
      <trkpt lat="38.90079" lon="1.36254">
        <ele>86</ele>
        <time>2010-01-01T06:42:20Z</time>
      </trkpt>
      <trkpt lat="38.90075" lon="1.3627">
        <ele>86</ele>
        <time>2010-01-01T06:42:25Z</time>
      </trkpt>
      <trkpt lat="38.90076" lon="1.36283">
        <ele>88</ele>
        <time>2010-01-01T06:42:29Z</time>
      </trkpt>
      <trkpt lat="38.90076" lon="1.36296">
        <ele>88</ele>
        <time>2010-01-01T06:42:33Z</time>
      </trkpt>
      <trkpt lat="38.90073" lon="1.36308">
        <ele>88</ele>
        <time>2010-01-01T06:42:37Z</time>
      </trkpt>
      <trkpt lat="38.90072" lon="1.3632">
        <ele>88</ele>
        <time>2010-01-01T06:42:40Z</time>
      </trkpt>
      <trkpt lat="38.90069" lon="1.36331">
        <ele>88</ele>
        <time>2010-01-01T06:42:44Z</time>
      </trkpt>
      <trkpt lat="38.90066" lon="1.36343">
        <ele>88</ele>
        <time>2010-01-01T06:42:48Z</time>
      </trkpt>
      <trkpt lat="38.90063" lon="1.36355">
        <ele>88</ele>
        <time>2010-01-01T06:42:52Z</time>
      </trkpt>
      <trkpt lat="38.90061" lon="1.36367">
        <ele>88</ele>
        <time>2010-01-01T06:42:56Z</time>
      </trkpt>
      <trkpt lat="38.90057" lon="1.36379">
        <ele>88</ele>
        <time>2010-01-01T06:43:00Z</time>
      </trkpt>
      <trkpt lat="38.90058" lon="1.36393">
        <ele>89</ele>
        <time>2010-01-01T06:43:04Z</time>
      </trkpt>
      <trkpt lat="38.90057" lon="1.36405">
        <ele>89</ele>
        <time>2010-01-01T06:43:08Z</time>
      </trkpt>
      <trkpt lat="38.9005" lon="1.36412">
        <ele>87</ele>
        <time>2010-01-01T06:43:12Z</time>
      </trkpt>
      <trkpt lat="38.90039" lon="1.36411">
        <ele>85</ele>
        <time>2010-01-01T06:43:16Z</time>
      </trkpt>
      <trkpt lat="38.9003" lon="1.36408">
        <ele>83</ele>
        <time>2010-01-01T06:43:20Z</time>
      </trkpt>
      <trkpt lat="38.90019" lon="1.36406">
        <ele>80</ele>
        <time>2010-01-01T06:43:24Z</time>
      </trkpt>
      <trkpt lat="38.90009" lon="1.36407">
        <ele>78</ele>
        <time>2010-01-01T06:43:28Z</time>
      </trkpt>
      <trkpt lat="38.89999" lon="1.36403">
        <ele>76</ele>
        <time>2010-01-01T06:43:32Z</time>
      </trkpt>
      <trkpt lat="38.89992" lon="1.36411">
        <ele>76</ele>
        <time>2010-01-01T06:43:36Z</time>
      </trkpt>
      <trkpt lat="38.89986" lon="1.36422">
        <ele>75</ele>
        <time>2010-01-01T06:43:40Z</time>
      </trkpt>
      <trkpt lat="38.89982" lon="1.36432">
        <ele>75</ele>
        <time>2010-01-01T06:43:44Z</time>
      </trkpt>
      <trkpt lat="38.89978" lon="1.36444">
        <ele>75</ele>
        <time>2010-01-01T06:43:48Z</time>
      </trkpt>
      <trkpt lat="38.89974" lon="1.36456">
        <ele>76</ele>
        <time>2010-01-01T06:43:52Z</time>
      </trkpt>
      <trkpt lat="38.89969" lon="1.36466">
        <ele>76</ele>
        <time>2010-01-01T06:43:56Z</time>
      </trkpt>
      <trkpt lat="38.89964" lon="1.36479">
        <ele>76</ele>
        <time>2010-01-01T06:44:00Z</time>
      </trkpt>
      <trkpt lat="38.89959" lon="1.36491">
        <ele>76</ele>
        <time>2010-01-01T06:44:04Z</time>
      </trkpt>
      <trkpt lat="38.89951" lon="1.36498">
        <ele>75</ele>
        <time>2010-01-01T06:44:08Z</time>
      </trkpt>
      <trkpt lat="38.89945" lon="1.36508">
        <ele>75</ele>
        <time>2010-01-01T06:44:12Z</time>
      </trkpt>
      <trkpt lat="38.89941" lon="1.36521">
        <ele>75</ele>
        <time>2010-01-01T06:44:17Z</time>
      </trkpt>
      <trkpt lat="38.89936" lon="1.36532">
        <ele>74</ele>
        <time>2010-01-01T06:44:21Z</time>
      </trkpt>
      <trkpt lat="38.89933" lon="1.36544">
        <ele>74</ele>
        <time>2010-01-01T06:44:24Z</time>
      </trkpt>
      <trkpt lat="38.89934" lon="1.36556">
        <ele>75</ele>
        <time>2010-01-01T06:44:28Z</time>
      </trkpt>
      <trkpt lat="38.89935" lon="1.36568">
        <ele>75</ele>
        <time>2010-01-01T06:44:32Z</time>
      </trkpt>
      <trkpt lat="38.89933" lon="1.3658">
        <ele>74</ele>
        <time>2010-01-01T06:44:36Z</time>
      </trkpt>
      <trkpt lat="38.89924" lon="1.36584">
        <ele>73</ele>
        <time>2010-01-01T06:44:40Z</time>
      </trkpt>
      <trkpt lat="38.89915" lon="1.36589">
        <ele>71</ele>
        <time>2010-01-01T06:44:44Z</time>
      </trkpt>
      <trkpt lat="38.89905" lon="1.36591">
        <ele>70</ele>
        <time>2010-01-01T06:44:47Z</time>
      </trkpt>
      <trkpt lat="38.89898" lon="1.36599">
        <ele>69</ele>
        <time>2010-01-01T06:44:51Z</time>
      </trkpt>
      <trkpt lat="38.89898" lon="1.36612">
        <ele>69</ele>
        <time>2010-01-01T06:44:56Z</time>
      </trkpt>
      <trkpt lat="38.899" lon="1.36624">
        <ele>69</ele>
        <time>2010-01-01T06:44:59Z</time>
      </trkpt>
      <trkpt lat="38.89899" lon="1.36636">
        <ele>68</ele>
        <time>2010-01-01T06:45:03Z</time>
      </trkpt>
      <trkpt lat="38.89897" lon="1.36649">
        <ele>68</ele>
        <time>2010-01-01T06:45:07Z</time>
      </trkpt>
      <trkpt lat="38.89895" lon="1.36661">
        <ele>67</ele>
        <time>2010-01-01T06:45:11Z</time>
      </trkpt>
      <trkpt lat="38.89894" lon="1.36673">
        <ele>67</ele>
        <time>2010-01-01T06:45:15Z</time>
      </trkpt>
      <trkpt lat="38.89894" lon="1.36685">
        <ele>66</ele>
        <time>2010-01-01T06:45:18Z</time>
      </trkpt>
      <trkpt lat="38.89893" lon="1.36697">
        <ele>66</ele>
        <time>2010-01-01T06:45:22Z</time>
      </trkpt>
      <trkpt lat="38.89892" lon="1.3671">
        <ele>66</ele>
        <time>2010-01-01T06:45:26Z</time>
      </trkpt>
      <trkpt lat="38.8989" lon="1.36723">
        <ele>66</ele>
        <time>2010-01-01T06:45:31Z</time>
      </trkpt>
      <trkpt lat="38.8989" lon="1.36736">
        <ele>66</ele>
        <time>2010-01-01T06:45:35Z</time>
      </trkpt>
      <trkpt lat="38.89891" lon="1.36749">
        <ele>66</ele>
        <time>2010-01-01T06:45:39Z</time>
      </trkpt>
      <trkpt lat="38.89892" lon="1.36762">
        <ele>65</ele>
        <time>2010-01-01T06:45:43Z</time>
      </trkpt>
      <trkpt lat="38.89892" lon="1.36774">
        <ele>65</ele>
        <time>2010-01-01T06:45:47Z</time>
      </trkpt>
      <trkpt lat="38.89892" lon="1.36786">
        <ele>65</ele>
        <time>2010-01-01T06:45:50Z</time>
      </trkpt>
      <trkpt lat="38.89891" lon="1.36798">
        <ele>65</ele>
        <time>2010-01-01T06:45:54Z</time>
      </trkpt>
      <trkpt lat="38.89887" lon="1.3681">
        <ele>64</ele>
        <time>2010-01-01T06:45:58Z</time>
      </trkpt>
      <trkpt lat="38.89882" lon="1.3682">
        <ele>64</ele>
        <time>2010-01-01T06:46:02Z</time>
      </trkpt>
      <trkpt lat="38.89876" lon="1.3683">
        <ele>63</ele>
        <time>2010-01-01T06:46:06Z</time>
      </trkpt>
      <trkpt lat="38.8988" lon="1.36842">
        <ele>63</ele>
        <time>2010-01-01T06:46:10Z</time>
      </trkpt>
      <trkpt lat="38.89888" lon="1.3685">
        <ele>63</ele>
        <time>2010-01-01T06:46:14Z</time>
      </trkpt>
      <trkpt lat="38.89896" lon="1.36857">
        <ele>64</ele>
        <time>2010-01-01T06:46:18Z</time>
      </trkpt>
      <trkpt lat="38.89903" lon="1.36864">
        <ele>64</ele>
        <time>2010-01-01T06:46:21Z</time>
      </trkpt>
      <trkpt lat="38.89911" lon="1.3687">
        <ele>64</ele>
        <time>2010-01-01T06:46:25Z</time>
      </trkpt>
      <trkpt lat="38.89919" lon="1.36878">
        <ele>64</ele>
        <time>2010-01-01T06:46:29Z</time>
      </trkpt>
      <trkpt lat="38.89928" lon="1.36885">
        <ele>65</ele>
        <time>2010-01-01T06:46:33Z</time>
      </trkpt>
      <trkpt lat="38.89935" lon="1.36891">
        <ele>66</ele>
        <time>2010-01-01T06:46:37Z</time>
      </trkpt>
      <trkpt lat="38.89943" lon="1.36899">
        <ele>67</ele>
        <time>2010-01-01T06:46:41Z</time>
      </trkpt>
      <trkpt lat="38.8995" lon="1.36907">
        <ele>69</ele>
        <time>2010-01-01T06:46:45Z</time>
      </trkpt>
      <trkpt lat="38.89955" lon="1.36917">
        <ele>70</ele>
        <time>2010-01-01T06:46:48Z</time>
      </trkpt>
      <trkpt lat="38.89958" lon="1.36929">
        <ele>72</ele>
        <time>2010-01-01T06:46:52Z</time>
      </trkpt>
      <trkpt lat="38.89958" lon="1.36941">
        <ele>73</ele>
        <time>2010-01-01T06:46:56Z</time>
      </trkpt>
      <trkpt lat="38.89959" lon="1.36954">
        <ele>74</ele>
        <time>2010-01-01T06:47:00Z</time>
      </trkpt>
      <trkpt lat="38.89962" lon="1.36965">
        <ele>75</ele>
        <time>2010-01-01T06:47:04Z</time>
      </trkpt>
      <trkpt lat="38.89966" lon="1.36976">
        <ele>77</ele>
        <time>2010-01-01T06:47:07Z</time>
      </trkpt>
      <trkpt lat="38.89969" lon="1.36988">
        <ele>78</ele>
        <time>2010-01-01T06:47:11Z</time>
      </trkpt>
      <trkpt lat="38.89975" lon="1.36997">
        <ele>81</ele>
        <time>2010-01-01T06:47:15Z</time>
      </trkpt>
      <trkpt lat="38.89979" lon="1.37008">
        <ele>83</ele>
        <time>2010-01-01T06:47:19Z</time>
      </trkpt>
      <trkpt lat="38.89981" lon="1.37021">
        <ele>84</ele>
        <time>2010-01-01T06:47:23Z</time>
      </trkpt>
      <trkpt lat="38.89983" lon="1.37033">
        <ele>85</ele>
        <time>2010-01-01T06:47:27Z</time>
      </trkpt>
      <trkpt lat="38.89986" lon="1.37044">
        <ele>85</ele>
        <time>2010-01-01T06:47:30Z</time>
      </trkpt>
      <trkpt lat="38.89993" lon="1.37052">
        <ele>86</ele>
        <time>2010-01-01T06:47:34Z</time>
      </trkpt>
      <trkpt lat="38.89998" lon="1.37063">
        <ele>85</ele>
        <time>2010-01-01T06:47:38Z</time>
      </trkpt>
      <trkpt lat="38.9" lon="1.37075">
        <ele>84</ele>
        <time>2010-01-01T06:47:42Z</time>
      </trkpt>
      <trkpt lat="38.90002" lon="1.37087">
        <ele>83</ele>
        <time>2010-01-01T06:47:46Z</time>
      </trkpt>
      <trkpt lat="38.90006" lon="1.37099">
        <ele>83</ele>
        <time>2010-01-01T06:47:50Z</time>
      </trkpt>
      <trkpt lat="38.90002" lon="1.37112">
        <ele>81</ele>
        <time>2010-01-01T06:47:54Z</time>
      </trkpt>
      <trkpt lat="38.90006" lon="1.37123">
        <ele>81</ele>
        <time>2010-01-01T06:47:58Z</time>
      </trkpt>
      <trkpt lat="38.90012" lon="1.37132">
        <ele>81</ele>
        <time>2010-01-01T06:48:02Z</time>
      </trkpt>
      <trkpt lat="38.90013" lon="1.37145">
        <ele>80</ele>
        <time>2010-01-01T06:48:06Z</time>
      </trkpt>
      <trkpt lat="38.90016" lon="1.37158">
        <ele>79</ele>
        <time>2010-01-01T06:48:10Z</time>
      </trkpt>
      <trkpt lat="38.90019" lon="1.37169">
        <ele>78</ele>
        <time>2010-01-01T06:48:13Z</time>
      </trkpt>
      <trkpt lat="38.90016" lon="1.3718">
        <ele>76</ele>
        <time>2010-01-01T06:48:17Z</time>
      </trkpt>
      <trkpt lat="38.90018" lon="1.37192">
        <ele>75</ele>
        <time>2010-01-01T06:48:21Z</time>
      </trkpt>
      <trkpt lat="38.90023" lon="1.37202">
        <ele>73</ele>
        <time>2010-01-01T06:48:25Z</time>
      </trkpt>
      <trkpt lat="38.90024" lon="1.37215">
        <ele>70</ele>
        <time>2010-01-01T06:48:29Z</time>
      </trkpt>
      <trkpt lat="38.90029" lon="1.37225">
        <ele>68</ele>
        <time>2010-01-01T06:48:32Z</time>
      </trkpt>
      <trkpt lat="38.90031" lon="1.37238">
        <ele>65</ele>
        <time>2010-01-01T06:48:36Z</time>
      </trkpt>
      <trkpt lat="38.90031" lon="1.37251">
        <ele>62</ele>
        <time>2010-01-01T06:48:40Z</time>
      </trkpt>
      <trkpt lat="38.90029" lon="1.37263">
        <ele>58</ele>
        <time>2010-01-01T06:48:44Z</time>
      </trkpt>
      <trkpt lat="38.9002" lon="1.37272">
        <ele>55</ele>
        <time>2010-01-01T06:48:49Z</time>
      </trkpt>
      <trkpt lat="38.90013" lon="1.3728">
        <ele>53</ele>
        <time>2010-01-01T06:48:53Z</time>
      </trkpt>
      <trkpt lat="38.90008" lon="1.37291">
        <ele>50</ele>
        <time>2010-01-01T06:48:57Z</time>
      </trkpt>
      <trkpt lat="38.90001" lon="1.37301">
        <ele>48</ele>
        <time>2010-01-01T06:49:00Z</time>
      </trkpt>
      <trkpt lat="38.90003" lon="1.37313">
        <ele>46</ele>
        <time>2010-01-01T06:49:04Z</time>
      </trkpt>
      <trkpt lat="38.9" lon="1.37327">
        <ele>44</ele>
        <time>2010-01-01T06:49:09Z</time>
      </trkpt>
      <trkpt lat="38.90005" lon="1.37337">
        <ele>44</ele>
        <time>2010-01-01T06:49:13Z</time>
      </trkpt>
      <trkpt lat="38.90012" lon="1.37346">
        <ele>44</ele>
        <time>2010-01-01T06:49:17Z</time>
      </trkpt>
      <trkpt lat="38.90016" lon="1.37358">
        <ele>44</ele>
        <time>2010-01-01T06:49:21Z</time>
      </trkpt>
      <trkpt lat="38.90019" lon="1.3737">
        <ele>43</ele>
        <time>2010-01-01T06:49:24Z</time>
      </trkpt>
      <trkpt lat="38.90029" lon="1.3737">
        <ele>43</ele>
        <time>2010-01-01T06:49:28Z</time>
      </trkpt>
      <trkpt lat="38.90038" lon="1.37365">
        <ele>44</ele>
        <time>2010-01-01T06:49:32Z</time>
      </trkpt>
      <trkpt lat="38.90046" lon="1.37358">
        <ele>46</ele>
        <time>2010-01-01T06:49:36Z</time>
      </trkpt>
      <trkpt lat="38.90058" lon="1.37353">
        <ele>47</ele>
        <time>2010-01-01T06:49:41Z</time>
      </trkpt>
      <trkpt lat="38.90067" lon="1.37348">
        <ele>47</ele>
        <time>2010-01-01T06:49:45Z</time>
      </trkpt>
      <trkpt lat="38.90078" lon="1.37349">
        <ele>48</ele>
        <time>2010-01-01T06:49:49Z</time>
      </trkpt>
      <trkpt lat="38.90086" lon="1.37357">
        <ele>48</ele>
        <time>2010-01-01T06:49:53Z</time>
      </trkpt>
      <trkpt lat="38.90093" lon="1.37365">
        <ele>47</ele>
        <time>2010-01-01T06:49:57Z</time>
      </trkpt>
      <trkpt lat="38.90101" lon="1.37374">
        <ele>47</ele>
        <time>2010-01-01T06:50:01Z</time>
      </trkpt>
      <trkpt lat="38.90107" lon="1.37383">
        <ele>46</ele>
        <time>2010-01-01T06:50:05Z</time>
      </trkpt>
      <trkpt lat="38.90115" lon="1.37389">
        <ele>45</ele>
        <time>2010-01-01T06:50:09Z</time>
      </trkpt>
      <trkpt lat="38.90125" lon="1.37394">
        <ele>45</ele>
        <time>2010-01-01T06:50:13Z</time>
      </trkpt>
      <trkpt lat="38.90134" lon="1.37395">
        <ele>45</ele>
        <time>2010-01-01T06:50:17Z</time>
      </trkpt>
      <trkpt lat="38.90144" lon="1.37391">
        <ele>45</ele>
        <time>2010-01-01T06:50:21Z</time>
      </trkpt>
      <trkpt lat="38.90154" lon="1.37388">
        <ele>46</ele>
        <time>2010-01-01T06:50:25Z</time>
      </trkpt>
      <trkpt lat="38.90167" lon="1.37384">
        <ele>46</ele>
        <time>2010-01-01T06:50:31Z</time>
      </trkpt>
      <trkpt lat="38.90176" lon="1.3738">
        <ele>46</ele>
        <time>2010-01-01T06:50:34Z</time>
      </trkpt>
      <trkpt lat="38.90185" lon="1.37377">
        <ele>47</ele>
        <time>2010-01-01T06:50:38Z</time>
      </trkpt>
      <trkpt lat="38.90193" lon="1.37372">
        <ele>48</ele>
        <time>2010-01-01T06:50:42Z</time>
      </trkpt>
      <trkpt lat="38.90202" lon="1.37369">
        <ele>48</ele>
        <time>2010-01-01T06:50:45Z</time>
      </trkpt>
      <trkpt lat="38.90212" lon="1.37363">
        <ele>48</ele>
        <time>2010-01-01T06:50:50Z</time>
      </trkpt>
      <trkpt lat="38.9022" lon="1.37358">
        <ele>49</ele>
        <time>2010-01-01T06:50:53Z</time>
      </trkpt>
      <trkpt lat="38.90228" lon="1.37352">
        <ele>49</ele>
        <time>2010-01-01T06:50:57Z</time>
      </trkpt>
      <trkpt lat="38.90237" lon="1.37349">
        <ele>49</ele>
        <time>2010-01-01T06:51:01Z</time>
      </trkpt>
      <trkpt lat="38.90247" lon="1.37346">
        <ele>49</ele>
        <time>2010-01-01T06:51:05Z</time>
      </trkpt>
      <trkpt lat="38.90255" lon="1.3734">
        <ele>49</ele>
        <time>2010-01-01T06:51:09Z</time>
      </trkpt>
      <trkpt lat="38.90263" lon="1.37337">
        <ele>49</ele>
        <time>2010-01-01T06:51:12Z</time>
      </trkpt>
      <trkpt lat="38.90277" lon="1.3733">
        <ele>50</ele>
        <time>2010-01-01T06:51:18Z</time>
      </trkpt>
      <trkpt lat="38.90286" lon="1.37327">
        <ele>50</ele>
        <time>2010-01-01T06:51:22Z</time>
      </trkpt>
      <trkpt lat="38.90295" lon="1.37321">
        <ele>50</ele>
        <time>2010-01-01T06:51:26Z</time>
      </trkpt>
      <trkpt lat="38.90305" lon="1.37314">
        <ele>50</ele>
        <time>2010-01-01T06:51:30Z</time>
      </trkpt>
      <trkpt lat="38.90315" lon="1.37313">
        <ele>50</ele>
        <time>2010-01-01T06:51:34Z</time>
      </trkpt>
      <trkpt lat="38.90328" lon="1.37311">
        <ele>50</ele>
        <time>2010-01-01T06:51:40Z</time>
      </trkpt>
      <trkpt lat="38.90338" lon="1.37311">
        <ele>50</ele>
        <time>2010-01-01T06:51:43Z</time>
      </trkpt>
      <trkpt lat="38.90347" lon="1.37311">
        <ele>50</ele>
        <time>2010-01-01T06:51:47Z</time>
      </trkpt>
      <trkpt lat="38.90356" lon="1.37308">
        <ele>50</ele>
        <time>2010-01-01T06:51:51Z</time>
      </trkpt>
      <trkpt lat="38.90365" lon="1.37301">
        <ele>51</ele>
        <time>2010-01-01T06:51:55Z</time>
      </trkpt>
      <trkpt lat="38.90374" lon="1.37292">
        <ele>51</ele>
        <time>2010-01-01T06:52:00Z</time>
      </trkpt>
      <trkpt lat="38.90384" lon="1.37285">
        <ele>52</ele>
        <time>2010-01-01T06:52:04Z</time>
      </trkpt>
      <trkpt lat="38.90393" lon="1.37278">
        <ele>52</ele>
        <time>2010-01-01T06:52:08Z</time>
      </trkpt>
      <trkpt lat="38.90399" lon="1.37269">
        <ele>53</ele>
        <time>2010-01-01T06:52:12Z</time>
      </trkpt>
      <trkpt lat="38.90407" lon="1.37263">
        <ele>53</ele>
        <time>2010-01-01T06:52:16Z</time>
      </trkpt>
      <trkpt lat="38.90416" lon="1.37258">
        <ele>53</ele>
        <time>2010-01-01T06:52:20Z</time>
      </trkpt>
      <trkpt lat="38.90424" lon="1.37254">
        <ele>54</ele>
        <time>2010-01-01T06:52:23Z</time>
      </trkpt>
      <trkpt lat="38.90434" lon="1.37252">
        <ele>54</ele>
        <time>2010-01-01T06:52:27Z</time>
      </trkpt>
      <trkpt lat="38.9043" lon="1.3724">
        <ele>55</ele>
        <time>2010-01-01T06:52:31Z</time>
      </trkpt>
      <trkpt lat="38.90426" lon="1.3723">
        <ele>56</ele>
        <time>2010-01-01T06:52:35Z</time>
      </trkpt>
      <trkpt lat="38.9043" lon="1.37219">
        <ele>57</ele>
        <time>2010-01-01T06:52:39Z</time>
      </trkpt>
      <trkpt lat="38.90434" lon="1.37208">
        <ele>58</ele>
        <time>2010-01-01T06:52:42Z</time>
      </trkpt>
      <trkpt lat="38.90441" lon="1.37198">
        <ele>58</ele>
        <time>2010-01-01T06:52:47Z</time>
      </trkpt>
      <trkpt lat="38.90448" lon="1.37188">
        <ele>58</ele>
        <time>2010-01-01T06:52:51Z</time>
      </trkpt>
      <trkpt lat="38.90455" lon="1.37179">
        <ele>58</ele>
        <time>2010-01-01T06:52:55Z</time>
      </trkpt>
      <trkpt lat="38.90465" lon="1.37171">
        <ele>58</ele>
        <time>2010-01-01T06:53:00Z</time>
      </trkpt>
      <trkpt lat="38.90474" lon="1.37167">
        <ele>59</ele>
        <time>2010-01-01T06:53:04Z</time>
      </trkpt>
      <trkpt lat="38.90477" lon="1.37155">
        <ele>59</ele>
        <time>2010-01-01T06:53:07Z</time>
      </trkpt>
      <trkpt lat="38.90471" lon="1.37144">
        <ele>59</ele>
        <time>2010-01-01T06:53:11Z</time>
      </trkpt>
      <trkpt lat="38.9047" lon="1.37133">
        <ele>59</ele>
        <time>2010-01-01T06:53:15Z</time>
      </trkpt>
      <trkpt lat="38.90462" lon="1.37124">
        <ele>60</ele>
        <time>2010-01-01T06:53:19Z</time>
      </trkpt>
      <trkpt lat="38.90457" lon="1.37114">
        <ele>62</ele>
        <time>2010-01-01T06:53:23Z</time>
      </trkpt>
      <trkpt lat="38.90454" lon="1.37103">
        <ele>64</ele>
        <time>2010-01-01T06:53:27Z</time>
      </trkpt>
      <trkpt lat="38.90459" lon="1.37092">
        <ele>65</ele>
        <time>2010-01-01T06:53:30Z</time>
      </trkpt>
      <trkpt lat="38.90468" lon="1.37089">
        <ele>64</ele>
        <time>2010-01-01T06:53:34Z</time>
      </trkpt>
      <trkpt lat="38.90477" lon="1.37082">
        <ele>65</ele>
        <time>2010-01-01T06:53:38Z</time>
      </trkpt>
      <trkpt lat="38.90486" lon="1.37075">
        <ele>65</ele>
        <time>2010-01-01T06:53:43Z</time>
      </trkpt>
      <trkpt lat="38.90494" lon="1.37067">
        <ele>66</ele>
        <time>2010-01-01T06:53:46Z</time>
      </trkpt>
      <trkpt lat="38.90504" lon="1.37066">
        <ele>66</ele>
        <time>2010-01-01T06:53:51Z</time>
      </trkpt>
      <trkpt lat="38.90513" lon="1.37064">
        <ele>68</ele>
        <time>2010-01-01T06:53:54Z</time>
      </trkpt>
      <trkpt lat="38.90523" lon="1.3706">
        <ele>69</ele>
        <time>2010-01-01T06:53:58Z</time>
      </trkpt>
      <trkpt lat="38.90531" lon="1.37054">
        <ele>71</ele>
        <time>2010-01-01T06:54:02Z</time>
      </trkpt>
      <trkpt lat="38.90541" lon="1.37051">
        <ele>71</ele>
        <time>2010-01-01T06:54:06Z</time>
      </trkpt>
      <trkpt lat="38.90551" lon="1.37049">
        <ele>71</ele>
        <time>2010-01-01T06:54:10Z</time>
      </trkpt>
      <trkpt lat="38.90561" lon="1.37048">
        <ele>71</ele>
        <time>2010-01-01T06:54:14Z</time>
      </trkpt>
      <trkpt lat="38.9057" lon="1.37043">
        <ele>71</ele>
        <time>2010-01-01T06:54:18Z</time>
      </trkpt>
      <trkpt lat="38.90579" lon="1.3704">
        <ele>71</ele>
        <time>2010-01-01T06:54:22Z</time>
      </trkpt>
      <trkpt lat="38.90586" lon="1.37031">
        <ele>72</ele>
        <time>2010-01-01T06:54:26Z</time>
      </trkpt>
      <trkpt lat="38.90589" lon="1.37018">
        <ele>74</ele>
        <time>2010-01-01T06:54:30Z</time>
      </trkpt>
      <trkpt lat="38.90598" lon="1.37013">
        <ele>75</ele>
        <time>2010-01-01T06:54:34Z</time>
      </trkpt>
      <trkpt lat="38.90608" lon="1.37009">
        <ele>75</ele>
        <time>2010-01-01T06:54:38Z</time>
      </trkpt>
      <trkpt lat="38.90617" lon="1.37003">
        <ele>76</ele>
        <time>2010-01-01T06:54:42Z</time>
      </trkpt>
      <trkpt lat="38.90624" lon="1.36997">
        <ele>76</ele>
        <time>2010-01-01T06:54:46Z</time>
      </trkpt>
      <trkpt lat="38.90632" lon="1.36991">
        <ele>77</ele>
        <time>2010-01-01T06:54:49Z</time>
      </trkpt>
      <trkpt lat="38.90641" lon="1.36984">
        <ele>78</ele>
        <time>2010-01-01T06:54:54Z</time>
      </trkpt>
      <trkpt lat="38.9065" lon="1.3698">
        <ele>78</ele>
        <time>2010-01-01T06:54:57Z</time>
      </trkpt>
      <trkpt lat="38.90659" lon="1.36976">
        <ele>78</ele>
        <time>2010-01-01T06:55:01Z</time>
      </trkpt>
      <trkpt lat="38.90667" lon="1.36968">
        <ele>79</ele>
        <time>2010-01-01T06:55:05Z</time>
      </trkpt>
      <trkpt lat="38.90677" lon="1.36964">
        <ele>80</ele>
        <time>2010-01-01T06:55:09Z</time>
      </trkpt>
      <trkpt lat="38.90684" lon="1.36958">
        <ele>81</ele>
        <time>2010-01-01T06:55:13Z</time>
      </trkpt>
      <trkpt lat="38.90684" lon="1.36946">
        <ele>83</ele>
        <time>2010-01-01T06:55:17Z</time>
      </trkpt>
      <trkpt lat="38.90692" lon="1.3694">
        <ele>83</ele>
        <time>2010-01-01T06:55:20Z</time>
      </trkpt>
      <trkpt lat="38.90691" lon="1.36927">
        <ele>85</ele>
        <time>2010-01-01T06:55:24Z</time>
      </trkpt>
      <trkpt lat="38.90695" lon="1.36917">
        <ele>86</ele>
        <time>2010-01-01T06:55:28Z</time>
      </trkpt>
      <trkpt lat="38.90695" lon="1.36905">
        <ele>89</ele>
        <time>2010-01-01T06:55:32Z</time>
      </trkpt>
      <trkpt lat="38.90698" lon="1.36892">
        <ele>90</ele>
        <time>2010-01-01T06:55:36Z</time>
      </trkpt>
      <trkpt lat="38.90702" lon="1.3688">
        <ele>92</ele>
        <time>2010-01-01T06:55:40Z</time>
      </trkpt>
      <trkpt lat="38.90708" lon="1.36871">
        <ele>93</ele>
        <time>2010-01-01T06:55:44Z</time>
      </trkpt>
      <trkpt lat="38.90715" lon="1.36862">
        <ele>94</ele>
        <time>2010-01-01T06:55:47Z</time>
      </trkpt>
      <trkpt lat="38.90721" lon="1.36853">
        <ele>94</ele>
        <time>2010-01-01T06:55:51Z</time>
      </trkpt>
      <trkpt lat="38.90721" lon="1.36841">
        <ele>97</ele>
        <time>2010-01-01T06:55:55Z</time>
      </trkpt>
      <trkpt lat="38.90723" lon="1.36829">
        <ele>99</ele>
        <time>2010-01-01T06:55:59Z</time>
      </trkpt>
      <trkpt lat="38.90728" lon="1.36818">
        <ele>100</ele>
        <time>2010-01-01T06:56:03Z</time>
      </trkpt>
      <trkpt lat="38.90735" lon="1.36809">
        <ele>102</ele>
        <time>2010-01-01T06:56:07Z</time>
      </trkpt>
      <trkpt lat="38.90742" lon="1.36802">
        <ele>102</ele>
        <time>2010-01-01T06:56:10Z</time>
      </trkpt>
      <trkpt lat="38.90749" lon="1.36795">
        <ele>103</ele>
        <time>2010-01-01T06:56:14Z</time>
      </trkpt>
      <trkpt lat="38.90757" lon="1.36786">
        <ele>104</ele>
        <time>2010-01-01T06:56:18Z</time>
      </trkpt>
      <trkpt lat="38.90762" lon="1.36776">
        <ele>105</ele>
        <time>2010-01-01T06:56:22Z</time>
      </trkpt>
      <trkpt lat="38.90769" lon="1.36768">
        <ele>106</ele>
        <time>2010-01-01T06:56:25Z</time>
      </trkpt>
      <trkpt lat="38.90771" lon="1.36757">
        <ele>108</ele>
        <time>2010-01-01T06:56:29Z</time>
      </trkpt>
      <trkpt lat="38.90773" lon="1.36745">
        <ele>110</ele>
        <time>2010-01-01T06:56:33Z</time>
      </trkpt>
      <trkpt lat="38.90779" lon="1.36735">
        <ele>111</ele>
        <time>2010-01-01T06:56:37Z</time>
      </trkpt>
      <trkpt lat="38.9079" lon="1.36736">
        <ele>111</ele>
        <time>2010-01-01T06:56:41Z</time>
      </trkpt>
      <trkpt lat="38.90798" lon="1.36741">
        <ele>111</ele>
        <time>2010-01-01T06:56:45Z</time>
      </trkpt>
      <trkpt lat="38.90806" lon="1.36749">
        <ele>111</ele>
        <time>2010-01-01T06:56:49Z</time>
      </trkpt>
      <trkpt lat="38.90813" lon="1.36756">
        <ele>111</ele>
        <time>2010-01-01T06:56:52Z</time>
      </trkpt>
      <trkpt lat="38.90822" lon="1.36756">
        <ele>112</ele>
        <time>2010-01-01T06:56:56Z</time>
      </trkpt>
      <trkpt lat="38.90831" lon="1.36755">
        <ele>113</ele>
        <time>2010-01-01T06:57:00Z</time>
      </trkpt>
      <trkpt lat="38.9084" lon="1.36749">
        <ele>114</ele>
        <time>2010-01-01T06:57:04Z</time>
      </trkpt>
      <trkpt lat="38.90848" lon="1.36741">
        <ele>115</ele>
        <time>2010-01-01T06:57:07Z</time>
      </trkpt>
      <trkpt lat="38.90853" lon="1.36732">
        <ele>116</ele>
        <time>2010-01-01T06:57:11Z</time>
      </trkpt>
      <trkpt lat="38.9086" lon="1.36725">
        <ele>117</ele>
        <time>2010-01-01T06:57:15Z</time>
      </trkpt>
      <trkpt lat="38.90866" lon="1.36714">
        <ele>119</ele>
        <time>2010-01-01T06:57:19Z</time>
      </trkpt>
      <trkpt lat="38.90872" lon="1.36705">
        <ele>121</ele>
        <time>2010-01-01T06:57:23Z</time>
      </trkpt>
      <trkpt lat="38.90878" lon="1.36695">
        <ele>123</ele>
        <time>2010-01-01T06:57:26Z</time>
      </trkpt>
      <trkpt lat="38.90884" lon="1.36686">
        <ele>125</ele>
        <time>2010-01-01T06:57:30Z</time>
      </trkpt>
      <trkpt lat="38.90892" lon="1.36679">
        <ele>126</ele>
        <time>2010-01-01T06:57:34Z</time>
      </trkpt>
      <trkpt lat="38.90899" lon="1.36673">
        <ele>126</ele>
        <time>2010-01-01T06:57:38Z</time>
      </trkpt>
      <trkpt lat="38.90907" lon="1.36665">
        <ele>127</ele>
        <time>2010-01-01T06:57:42Z</time>
      </trkpt>
      <trkpt lat="38.90916" lon="1.36658">
        <ele>127</ele>
        <time>2010-01-01T06:57:46Z</time>
      </trkpt>
      <trkpt lat="38.90926" lon="1.36654">
        <ele>128</ele>
        <time>2010-01-01T06:57:50Z</time>
      </trkpt>
      <trkpt lat="38.90936" lon="1.36654">
        <ele>127</ele>
        <time>2010-01-01T06:57:54Z</time>
      </trkpt>
      <trkpt lat="38.90944" lon="1.3665">
        <ele>128</ele>
        <time>2010-01-01T06:57:57Z</time>
      </trkpt>
      <trkpt lat="38.90954" lon="1.36647">
        <ele>130</ele>
        <time>2010-01-01T06:58:01Z</time>
      </trkpt>
      <trkpt lat="38.90963" lon="1.36644">
        <ele>132</ele>
        <time>2010-01-01T06:58:05Z</time>
      </trkpt>
      <trkpt lat="38.90972" lon="1.36647">
        <ele>132</ele>
        <time>2010-01-01T06:58:09Z</time>
      </trkpt>
      <trkpt lat="38.9098" lon="1.36655">
        <ele>132</ele>
        <time>2010-01-01T06:58:13Z</time>
      </trkpt>
      <trkpt lat="38.90989" lon="1.36659">
        <ele>132</ele>
        <time>2010-01-01T06:58:17Z</time>
      </trkpt>
      <trkpt lat="38.91001" lon="1.3666">
        <ele>133</ele>
        <time>2010-01-01T06:58:22Z</time>
      </trkpt>
      <trkpt lat="38.91011" lon="1.36659">
        <ele>133</ele>
        <time>2010-01-01T06:58:26Z</time>
      </trkpt>
      <trkpt lat="38.91021" lon="1.36656">
        <ele>133</ele>
        <time>2010-01-01T06:58:30Z</time>
      </trkpt>
      <trkpt lat="38.91026" lon="1.36646">
        <ele>135</ele>
        <time>2010-01-01T06:58:33Z</time>
      </trkpt>
      <trkpt lat="38.91027" lon="1.36634">
        <ele>136</ele>
        <time>2010-01-01T06:58:37Z</time>
      </trkpt>
      <trkpt lat="38.91034" lon="1.36626">
        <ele>137</ele>
        <time>2010-01-01T06:58:41Z</time>
      </trkpt>
      <trkpt lat="38.91045" lon="1.36626">
        <ele>138</ele>
        <time>2010-01-01T06:58:45Z</time>
      </trkpt>
      <trkpt lat="38.91053" lon="1.36635">
        <ele>137</ele>
        <time>2010-01-01T06:58:50Z</time>
      </trkpt>
      <trkpt lat="38.9106" lon="1.36643">
        <ele>136</ele>
        <time>2010-01-01T06:58:53Z</time>
      </trkpt>
      <trkpt lat="38.91067" lon="1.36652">
        <ele>135</ele>
        <time>2010-01-01T06:58:57Z</time>
      </trkpt>
      <trkpt lat="38.91075" lon="1.36659">
        <ele>134</ele>
        <time>2010-01-01T06:59:01Z</time>
      </trkpt>
      <trkpt lat="38.91082" lon="1.36667">
        <ele>132</ele>
        <time>2010-01-01T06:59:05Z</time>
      </trkpt>
      <trkpt lat="38.9109" lon="1.36675">
        <ele>130</ele>
        <time>2010-01-01T06:59:09Z</time>
      </trkpt>
      <trkpt lat="38.911" lon="1.36679">
        <ele>129</ele>
        <time>2010-01-01T06:59:13Z</time>
      </trkpt>
      <trkpt lat="38.9111" lon="1.3668">
        <ele>128</ele>
        <time>2010-01-01T06:59:17Z</time>
      </trkpt>
      <trkpt lat="38.9112" lon="1.36677">
        <ele>128</ele>
        <time>2010-01-01T06:59:21Z</time>
      </trkpt>
      <trkpt lat="38.91129" lon="1.36673">
        <ele>128</ele>
        <time>2010-01-01T06:59:25Z</time>
      </trkpt>
      <trkpt lat="38.91138" lon="1.36666">
        <ele>128</ele>
        <time>2010-01-01T06:59:29Z</time>
      </trkpt>
      <trkpt lat="38.91148" lon="1.36665">
        <ele>127</ele>
        <time>2010-01-01T06:59:33Z</time>
      </trkpt>
      <trkpt lat="38.91159" lon="1.36667">
        <ele>126</ele>
        <time>2010-01-01T06:59:37Z</time>
      </trkpt>
      <trkpt lat="38.91168" lon="1.36668">
        <ele>125</ele>
        <time>2010-01-01T06:59:41Z</time>
      </trkpt>
      <trkpt lat="38.91178" lon="1.36668">
        <ele>122</ele>
        <time>2010-01-01T06:59:45Z</time>
      </trkpt>
      <trkpt lat="38.91185" lon="1.36661">
        <ele>122</ele>
        <time>2010-01-01T06:59:49Z</time>
      </trkpt>
      <trkpt lat="38.91191" lon="1.36651">
        <ele>122</ele>
        <time>2010-01-01T06:59:53Z</time>
      </trkpt>
      <trkpt lat="38.91196" lon="1.36639">
        <ele>123</ele>
        <time>2010-01-01T06:59:57Z</time>
      </trkpt>
      <trkpt lat="38.91203" lon="1.36631">
        <ele>123</ele>
        <time>2010-01-01T07:00:01Z</time>
      </trkpt>
      <trkpt lat="38.91208" lon="1.36619">
        <ele>124</ele>
        <time>2010-01-01T07:00:05Z</time>
      </trkpt>
      <trkpt lat="38.91211" lon="1.36608">
        <ele>124</ele>
        <time>2010-01-01T07:00:08Z</time>
      </trkpt>
      <trkpt lat="38.91217" lon="1.36597">
        <ele>125</ele>
        <time>2010-01-01T07:00:13Z</time>
      </trkpt>
      <trkpt lat="38.91223" lon="1.36585">
        <ele>127</ele>
        <time>2010-01-01T07:00:17Z</time>
      </trkpt>
      <trkpt lat="38.91229" lon="1.36574">
        <ele>128</ele>
        <time>2010-01-01T07:00:21Z</time>
      </trkpt>
      <trkpt lat="38.91234" lon="1.36561">
        <ele>129</ele>
        <time>2010-01-01T07:00:26Z</time>
      </trkpt>
      <trkpt lat="38.9124" lon="1.36551">
        <ele>129</ele>
        <time>2010-01-01T07:00:30Z</time>
      </trkpt>
      <trkpt lat="38.91246" lon="1.36542">
        <ele>129</ele>
        <time>2010-01-01T07:00:34Z</time>
      </trkpt>
      <trkpt lat="38.91255" lon="1.36535">
        <ele>128</ele>
        <time>2010-01-01T07:00:38Z</time>
      </trkpt>
      <trkpt lat="38.91265" lon="1.36526">
        <ele>127</ele>
        <time>2010-01-01T07:00:43Z</time>
      </trkpt>
      <trkpt lat="38.91272" lon="1.36517">
        <ele>126</ele>
        <time>2010-01-01T07:00:47Z</time>
      </trkpt>
      <trkpt lat="38.91281" lon="1.36505">
        <ele>126</ele>
        <time>2010-01-01T07:00:52Z</time>
      </trkpt>
      <trkpt lat="38.91289" lon="1.36498">
        <ele>126</ele>
        <time>2010-01-01T07:00:56Z</time>
      </trkpt>
      <trkpt lat="38.91302" lon="1.3649">
        <ele>125</ele>
        <time>2010-01-01T07:01:01Z</time>
      </trkpt>
      <trkpt lat="38.9131" lon="1.36485">
        <ele>125</ele>
        <time>2010-01-01T07:01:05Z</time>
      </trkpt>
      <trkpt lat="38.91319" lon="1.36479">
        <ele>125</ele>
        <time>2010-01-01T07:01:09Z</time>
      </trkpt>
      <trkpt lat="38.91324" lon="1.3647">
        <ele>125</ele>
        <time>2010-01-01T07:01:13Z</time>
      </trkpt>
      <trkpt lat="38.91334" lon="1.36465">
        <ele>125</ele>
        <time>2010-01-01T07:01:17Z</time>
      </trkpt>
      <trkpt lat="38.91343" lon="1.36459">
        <ele>125</ele>
        <time>2010-01-01T07:01:21Z</time>
      </trkpt>
      <trkpt lat="38.91352" lon="1.36454">
        <ele>126</ele>
        <time>2010-01-01T07:01:25Z</time>
      </trkpt>
      <trkpt lat="38.91363" lon="1.36456">
        <ele>126</ele>
        <time>2010-01-01T07:01:29Z</time>
      </trkpt>
      <trkpt lat="38.91372" lon="1.36462">
        <ele>125</ele>
        <time>2010-01-01T07:01:33Z</time>
      </trkpt>
      <trkpt lat="38.91381" lon="1.36472">
        <ele>124</ele>
        <time>2010-01-01T07:01:38Z</time>
      </trkpt>
      <trkpt lat="38.91384" lon="1.36483">
        <ele>124</ele>
        <time>2010-01-01T07:01:42Z</time>
      </trkpt>
      <trkpt lat="38.91381" lon="1.36494">
        <ele>125</ele>
        <time>2010-01-01T07:01:45Z</time>
      </trkpt>
      <trkpt lat="38.91379" lon="1.36482">
        <ele>124</ele>
        <time>2010-01-01T07:01:49Z</time>
      </trkpt>
      <trkpt lat="38.91379" lon="1.3647">
        <ele>124</ele>
        <time>2010-01-01T07:01:53Z</time>
      </trkpt>
      <trkpt lat="38.91383" lon="1.36459">
        <ele>124</ele>
        <time>2010-01-01T07:01:57Z</time>
      </trkpt>
      <trkpt lat="38.91388" lon="1.36446">
        <ele>125</ele>
        <time>2010-01-01T07:02:01Z</time>
      </trkpt>
      <trkpt lat="38.91392" lon="1.36435">
        <ele>125</ele>
        <time>2010-01-01T07:02:05Z</time>
      </trkpt>
      <trkpt lat="38.914" lon="1.36428">
        <ele>126</ele>
        <time>2010-01-01T07:02:09Z</time>
      </trkpt>
      <trkpt lat="38.91407" lon="1.36418">
        <ele>126</ele>
        <time>2010-01-01T07:02:13Z</time>
      </trkpt>
      <trkpt lat="38.91413" lon="1.36408">
        <ele>127</ele>
        <time>2010-01-01T07:02:17Z</time>
      </trkpt>
      <trkpt lat="38.91418" lon="1.36396">
        <ele>127</ele>
        <time>2010-01-01T07:02:21Z</time>
      </trkpt>
      <trkpt lat="38.91425" lon="1.36387">
        <ele>127</ele>
        <time>2010-01-01T07:02:25Z</time>
      </trkpt>
      <trkpt lat="38.91428" lon="1.36373">
        <ele>129</ele>
        <time>2010-01-01T07:02:30Z</time>
      </trkpt>
      <trkpt lat="38.91432" lon="1.36362">
        <ele>130</ele>
        <time>2010-01-01T07:02:34Z</time>
      </trkpt>
      <trkpt lat="38.91439" lon="1.36355">
        <ele>130</ele>
        <time>2010-01-01T07:02:37Z</time>
      </trkpt>
      <trkpt lat="38.91446" lon="1.36345">
        <ele>131</ele>
        <time>2010-01-01T07:02:41Z</time>
      </trkpt>
      <trkpt lat="38.91452" lon="1.36336">
        <ele>131</ele>
        <time>2010-01-01T07:02:45Z</time>
      </trkpt>
      <trkpt lat="38.91454" lon="1.36324">
        <ele>131</ele>
        <time>2010-01-01T07:02:49Z</time>
      </trkpt>
      <trkpt lat="38.91461" lon="1.36315">
        <ele>131</ele>
        <time>2010-01-01T07:02:53Z</time>
      </trkpt>
      <trkpt lat="38.91471" lon="1.36309">
        <ele>131</ele>
        <time>2010-01-01T07:02:57Z</time>
      </trkpt>
      <trkpt lat="38.91473" lon="1.36296">
        <ele>132</ele>
        <time>2010-01-01T07:03:01Z</time>
      </trkpt>
      <trkpt lat="38.91481" lon="1.3629">
        <ele>132</ele>
        <time>2010-01-01T07:03:05Z</time>
      </trkpt>
      <trkpt lat="38.91488" lon="1.3628">
        <ele>133</ele>
        <time>2010-01-01T07:03:09Z</time>
      </trkpt>
      <trkpt lat="38.91497" lon="1.36277">
        <ele>134</ele>
        <time>2010-01-01T07:03:13Z</time>
      </trkpt>
      <trkpt lat="38.9151" lon="1.36279">
        <ele>134</ele>
        <time>2010-01-01T07:03:18Z</time>
      </trkpt>
      <trkpt lat="38.9152" lon="1.36277">
        <ele>133</ele>
        <time>2010-01-01T07:03:22Z</time>
      </trkpt>
      <trkpt lat="38.91529" lon="1.36274">
        <ele>133</ele>
        <time>2010-01-01T07:03:26Z</time>
      </trkpt>
      <trkpt lat="38.9154" lon="1.36273">
        <ele>134</ele>
        <time>2010-01-01T07:03:30Z</time>
      </trkpt>
      <trkpt lat="38.91553" lon="1.36267">
        <ele>135</ele>
        <time>2010-01-01T07:03:36Z</time>
      </trkpt>
      <trkpt lat="38.91562" lon="1.36262">
        <ele>135</ele>
        <time>2010-01-01T07:03:40Z</time>
      </trkpt>
      <trkpt lat="38.91572" lon="1.36258">
        <ele>136</ele>
        <time>2010-01-01T07:03:44Z</time>
      </trkpt>
      <trkpt lat="38.91581" lon="1.36255">
        <ele>137</ele>
        <time>2010-01-01T07:03:48Z</time>
      </trkpt>
      <trkpt lat="38.9159" lon="1.36254">
        <ele>137</ele>
        <time>2010-01-01T07:03:52Z</time>
      </trkpt>
      <trkpt lat="38.916" lon="1.36252">
        <ele>137</ele>
        <time>2010-01-01T07:03:56Z</time>
      </trkpt>
      <trkpt lat="38.9161" lon="1.36255">
        <ele>138</ele>
        <time>2010-01-01T07:04:00Z</time>
      </trkpt>
      <trkpt lat="38.9162" lon="1.36261">
        <ele>139</ele>
        <time>2010-01-01T07:04:04Z</time>
      </trkpt>
      <trkpt lat="38.91628" lon="1.36267">
        <ele>140</ele>
        <time>2010-01-01T07:04:08Z</time>
      </trkpt>
      <trkpt lat="38.91636" lon="1.36274">
        <ele>141</ele>
        <time>2010-01-01T07:04:12Z</time>
      </trkpt>
      <trkpt lat="38.91642" lon="1.36282">
        <ele>142</ele>
        <time>2010-01-01T07:04:15Z</time>
      </trkpt>
      <trkpt lat="38.91651" lon="1.36289">
        <ele>143</ele>
        <time>2010-01-01T07:04:19Z</time>
      </trkpt>
      <trkpt lat="38.91658" lon="1.36296">
        <ele>144</ele>
        <time>2010-01-01T07:04:23Z</time>
      </trkpt>
      <trkpt lat="38.91665" lon="1.36304">
        <ele>145</ele>
        <time>2010-01-01T07:04:27Z</time>
      </trkpt>
      <trkpt lat="38.91671" lon="1.36313">
        <ele>147</ele>
        <time>2010-01-01T07:04:30Z</time>
      </trkpt>
      <trkpt lat="38.91679" lon="1.36321">
        <ele>149</ele>
        <time>2010-01-01T07:04:34Z</time>
      </trkpt>
      <trkpt lat="38.91686" lon="1.3633">
        <ele>151</ele>
        <time>2010-01-01T07:04:38Z</time>
      </trkpt>
      <trkpt lat="38.91694" lon="1.36337">
        <ele>152</ele>
        <time>2010-01-01T07:04:42Z</time>
      </trkpt>
      <trkpt lat="38.91703" lon="1.36341">
        <ele>152</ele>
        <time>2010-01-01T07:04:46Z</time>
      </trkpt>
      <trkpt lat="38.91711" lon="1.3635">
        <ele>153</ele>
        <time>2010-01-01T07:04:50Z</time>
      </trkpt>
      <trkpt lat="38.91719" lon="1.36357">
        <ele>153</ele>
        <time>2010-01-01T07:04:54Z</time>
      </trkpt>
      <trkpt lat="38.91726" lon="1.36364">
        <ele>154</ele>
        <time>2010-01-01T07:04:58Z</time>
      </trkpt>
      <trkpt lat="38.91738" lon="1.36375">
        <ele>154</ele>
        <time>2010-01-01T07:05:04Z</time>
      </trkpt>
      <trkpt lat="38.91747" lon="1.36379">
        <ele>153</ele>
        <time>2010-01-01T07:05:07Z</time>
      </trkpt>
      <trkpt lat="38.91756" lon="1.36382">
        <ele>153</ele>
        <time>2010-01-01T07:05:11Z</time>
      </trkpt>
      <trkpt lat="38.91765" lon="1.3639">
        <ele>154</ele>
        <time>2010-01-01T07:05:15Z</time>
      </trkpt>
      <trkpt lat="38.91774" lon="1.36397">
        <ele>156</ele>
        <time>2010-01-01T07:05:20Z</time>
      </trkpt>
      <trkpt lat="38.91782" lon="1.36403">
        <ele>157</ele>
        <time>2010-01-01T07:05:23Z</time>
      </trkpt>
      <trkpt lat="38.91791" lon="1.36407">
        <ele>157</ele>
        <time>2010-01-01T07:05:27Z</time>
      </trkpt>
      <trkpt lat="38.91799" lon="1.36414">
        <ele>158</ele>
        <time>2010-01-01T07:05:31Z</time>
      </trkpt>
      <trkpt lat="38.91806" lon="1.36421">
        <ele>158</ele>
        <time>2010-01-01T07:05:35Z</time>
      </trkpt>
      <trkpt lat="38.91816" lon="1.36421">
        <ele>157</ele>
        <time>2010-01-01T07:05:39Z</time>
      </trkpt>
      <trkpt lat="38.91824" lon="1.36412">
        <ele>155</ele>
        <time>2010-01-01T07:05:43Z</time>
      </trkpt>
      <trkpt lat="38.91832" lon="1.36405">
        <ele>154</ele>
        <time>2010-01-01T07:05:47Z</time>
      </trkpt>
      <trkpt lat="38.91838" lon="1.36397">
        <ele>155</ele>
        <time>2010-01-01T07:05:50Z</time>
      </trkpt>
      <trkpt lat="38.91846" lon="1.36391">
        <ele>157</ele>
        <time>2010-01-01T07:05:54Z</time>
      </trkpt>
      <trkpt lat="38.91855" lon="1.36394">
        <ele>159</ele>
        <time>2010-01-01T07:05:58Z</time>
      </trkpt>
      <trkpt lat="38.91864" lon="1.36398">
        <ele>160</ele>
        <time>2010-01-01T07:06:01Z</time>
      </trkpt>
      <trkpt lat="38.91874" lon="1.36404">
        <ele>161</ele>
        <time>2010-01-01T07:06:06Z</time>
      </trkpt>
      <trkpt lat="38.91881" lon="1.36411">
        <ele>161</ele>
        <time>2010-01-01T07:06:09Z</time>
      </trkpt>
      <trkpt lat="38.91891" lon="1.36417">
        <ele>162</ele>
        <time>2010-01-01T07:06:14Z</time>
      </trkpt>
      <trkpt lat="38.91901" lon="1.36418">
        <ele>163</ele>
        <time>2010-01-01T07:06:18Z</time>
      </trkpt>
      <trkpt lat="38.9191" lon="1.36416">
        <ele>165</ele>
        <time>2010-01-01T07:06:22Z</time>
      </trkpt>
      <trkpt lat="38.91922" lon="1.36417">
        <ele>165</ele>
        <time>2010-01-01T07:06:26Z</time>
      </trkpt>
      <trkpt lat="38.91931" lon="1.36412">
        <ele>166</ele>
        <time>2010-01-01T07:06:30Z</time>
      </trkpt>
      <trkpt lat="38.91936" lon="1.36402">
        <ele>168</ele>
        <time>2010-01-01T07:06:34Z</time>
      </trkpt>
      <trkpt lat="38.91946" lon="1.364">
        <ele>168</ele>
        <time>2010-01-01T07:06:38Z</time>
      </trkpt>
      <trkpt lat="38.91955" lon="1.36392">
        <ele>169</ele>
        <time>2010-01-01T07:06:42Z</time>
      </trkpt>
      <trkpt lat="38.91963" lon="1.36387">
        <ele>169</ele>
        <time>2010-01-01T07:06:46Z</time>
      </trkpt>
      <trkpt lat="38.91969" lon="1.36376">
        <ele>172</ele>
        <time>2010-01-01T07:06:50Z</time>
      </trkpt>
      <trkpt lat="38.91979" lon="1.36371">
        <ele>173</ele>
        <time>2010-01-01T07:06:54Z</time>
      </trkpt>
      <trkpt lat="38.91984" lon="1.36359">
        <ele>176</ele>
        <time>2010-01-01T07:06:58Z</time>
      </trkpt>
      <trkpt lat="38.91991" lon="1.3635">
        <ele>178</ele>
        <time>2010-01-01T07:07:02Z</time>
      </trkpt>
      <trkpt lat="38.92" lon="1.36344">
        <ele>178</ele>
        <time>2010-01-01T07:07:07Z</time>
      </trkpt>
      <trkpt lat="38.92009" lon="1.36342">
        <ele>177</ele>
        <time>2010-01-01T07:07:10Z</time>
      </trkpt>
      <trkpt lat="38.92019" lon="1.36341">
        <ele>175</ele>
        <time>2010-01-01T07:07:14Z</time>
      </trkpt>
      <trkpt lat="38.92027" lon="1.36335">
        <ele>175</ele>
        <time>2010-01-01T07:07:18Z</time>
      </trkpt>
      <trkpt lat="38.92034" lon="1.36327">
        <ele>177</ele>
        <time>2010-01-01T07:07:22Z</time>
      </trkpt>
      <trkpt lat="38.92039" lon="1.36317">
        <ele>180</ele>
        <time>2010-01-01T07:07:26Z</time>
      </trkpt>
      <trkpt lat="38.92048" lon="1.36309">
        <ele>181</ele>
        <time>2010-01-01T07:07:30Z</time>
      </trkpt>
      <trkpt lat="38.9205" lon="1.36295">
        <ele>184</ele>
        <time>2010-01-01T07:07:34Z</time>
      </trkpt>
      <trkpt lat="38.92059" lon="1.36297">
        <ele>182</ele>
        <time>2010-01-01T07:07:38Z</time>
      </trkpt>
      <trkpt lat="38.92069" lon="1.36291">
        <ele>183</ele>
        <time>2010-01-01T07:07:42Z</time>
      </trkpt>
      <trkpt lat="38.92066" lon="1.3628">
        <ele>186</ele>
        <time>2010-01-01T07:07:46Z</time>
      </trkpt>
      <trkpt lat="38.92063" lon="1.36268">
        <ele>189</ele>
        <time>2010-01-01T07:07:50Z</time>
      </trkpt>
      <trkpt lat="38.92067" lon="1.36256">
        <ele>191</ele>
        <time>2010-01-01T07:07:54Z</time>
      </trkpt>
      <trkpt lat="38.92076" lon="1.36254">
        <ele>191</ele>
        <time>2010-01-01T07:07:58Z</time>
      </trkpt>
      <trkpt lat="38.92079" lon="1.36242">
        <ele>194</ele>
        <time>2010-01-01T07:08:01Z</time>
      </trkpt>
      <trkpt lat="38.92083" lon="1.36231">
        <ele>197</ele>
        <time>2010-01-01T07:08:05Z</time>
      </trkpt>
      <trkpt lat="38.92087" lon="1.36219">
        <ele>201</ele>
        <time>2010-01-01T07:08:09Z</time>
      </trkpt>
      <trkpt lat="38.92093" lon="1.3621">
        <ele>203</ele>
        <time>2010-01-01T07:08:13Z</time>
      </trkpt>
      <trkpt lat="38.92099" lon="1.36202">
        <ele>206</ele>
        <time>2010-01-01T07:08:17Z</time>
      </trkpt>
      <trkpt lat="38.921" lon="1.3619">
        <ele>210</ele>
        <time>2010-01-01T07:08:20Z</time>
      </trkpt>
      <trkpt lat="38.92107" lon="1.36183">
        <ele>213</ele>
        <time>2010-01-01T07:08:24Z</time>
      </trkpt>
      <trkpt lat="38.92114" lon="1.36174">
        <ele>216</ele>
        <time>2010-01-01T07:08:28Z</time>
      </trkpt>
      <trkpt lat="38.92106" lon="1.36167">
        <ele>220</ele>
        <time>2010-01-01T07:08:32Z</time>
      </trkpt>
      <trkpt lat="38.92108" lon="1.36155">
        <ele>223</ele>
        <time>2010-01-01T07:08:36Z</time>
      </trkpt>
      <trkpt lat="38.92115" lon="1.36147">
        <ele>226</ele>
        <time>2010-01-01T07:08:39Z</time>
      </trkpt>
      <trkpt lat="38.92116" lon="1.36135">
        <ele>229</ele>
        <time>2010-01-01T07:08:43Z</time>
      </trkpt>
      <trkpt lat="38.9212" lon="1.36124">
        <ele>231</ele>
        <time>2010-01-01T07:08:47Z</time>
      </trkpt>
      <trkpt lat="38.92127" lon="1.36116">
        <ele>233</ele>
        <time>2010-01-01T07:08:51Z</time>
      </trkpt>
      <trkpt lat="38.92134" lon="1.36108">
        <ele>234</ele>
        <time>2010-01-01T07:08:54Z</time>
      </trkpt>
      <trkpt lat="38.92141" lon="1.36099">
        <ele>236</ele>
        <time>2010-01-01T07:08:58Z</time>
      </trkpt>
      <trkpt lat="38.92147" lon="1.3609">
        <ele>238</ele>
        <time>2010-01-01T07:09:02Z</time>
      </trkpt>
      <trkpt lat="38.92153" lon="1.36082">
        <ele>240</ele>
        <time>2010-01-01T07:09:05Z</time>
      </trkpt>
      <trkpt lat="38.9216" lon="1.36071">
        <ele>243</ele>
        <time>2010-01-01T07:09:10Z</time>
      </trkpt>
      <trkpt lat="38.92163" lon="1.36059">
        <ele>246</ele>
        <time>2010-01-01T07:09:14Z</time>
      </trkpt>
      <trkpt lat="38.92166" lon="1.36048">
        <ele>249</ele>
        <time>2010-01-01T07:09:17Z</time>
      </trkpt>
      <trkpt lat="38.92169" lon="1.36036">
        <ele>252</ele>
        <time>2010-01-01T07:09:21Z</time>
      </trkpt>
      <trkpt lat="38.92171" lon="1.36025">
        <ele>254</ele>
        <time>2010-01-01T07:09:25Z</time>
      </trkpt>
      <trkpt lat="38.92177" lon="1.36016">
        <ele>255</ele>
        <time>2010-01-01T07:09:29Z</time>
      </trkpt>
      <trkpt lat="38.92183" lon="1.36006">
        <ele>257</ele>
        <time>2010-01-01T07:09:32Z</time>
      </trkpt>
      <trkpt lat="38.9219" lon="1.35998">
        <ele>260</ele>
        <time>2010-01-01T07:09:36Z</time>
      </trkpt>
      <trkpt lat="38.92197" lon="1.3599">
        <ele>263</ele>
        <time>2010-01-01T07:09:40Z</time>
      </trkpt>
      <trkpt lat="38.92203" lon="1.35979">
        <ele>266</ele>
        <time>2010-01-01T07:09:44Z</time>
      </trkpt>
      <trkpt lat="38.92209" lon="1.35968">
        <ele>269</ele>
        <time>2010-01-01T07:09:48Z</time>
      </trkpt>
      <trkpt lat="38.92214" lon="1.35958">
        <ele>272</ele>
        <time>2010-01-01T07:09:52Z</time>
      </trkpt>
      <trkpt lat="38.9222" lon="1.35949">
        <ele>277</ele>
        <time>2010-01-01T07:09:56Z</time>
      </trkpt>
      <trkpt lat="38.92228" lon="1.35941">
        <ele>280</ele>
        <time>2010-01-01T07:10:00Z</time>
      </trkpt>
      <trkpt lat="38.92228" lon="1.35929">
        <ele>282</ele>
        <time>2010-01-01T07:10:03Z</time>
      </trkpt>
      <trkpt lat="38.92232" lon="1.35919">
        <ele>285</ele>
        <time>2010-01-01T07:10:07Z</time>
      </trkpt>
      <trkpt lat="38.92235" lon="1.35908">
        <ele>287</ele>
        <time>2010-01-01T07:10:11Z</time>
      </trkpt>
      <trkpt lat="38.92241" lon="1.35899">
        <ele>289</ele>
        <time>2010-01-01T07:10:14Z</time>
      </trkpt>
      <trkpt lat="38.92248" lon="1.35891">
        <ele>292</ele>
        <time>2010-01-01T07:10:18Z</time>
      </trkpt>
      <trkpt lat="38.92253" lon="1.35881">
        <ele>293</ele>
        <time>2010-01-01T07:10:22Z</time>
      </trkpt>
      <trkpt lat="38.92257" lon="1.35871">
        <ele>294</ele>
        <time>2010-01-01T07:10:25Z</time>
      </trkpt>
      <trkpt lat="38.92263" lon="1.3586">
        <ele>295</ele>
        <time>2010-01-01T07:10:29Z</time>
      </trkpt>
      <trkpt lat="38.92266" lon="1.35848">
        <ele>296</ele>
        <time>2010-01-01T07:10:33Z</time>
      </trkpt>
      <trkpt lat="38.92268" lon="1.35837">
        <ele>296</ele>
        <time>2010-01-01T07:10:37Z</time>
      </trkpt>
      <trkpt lat="38.92274" lon="1.35828">
        <ele>297</ele>
        <time>2010-01-01T07:10:40Z</time>
      </trkpt>
      <trkpt lat="38.9228" lon="1.35818">
        <ele>298</ele>
        <time>2010-01-01T07:10:44Z</time>
      </trkpt>
      <trkpt lat="38.92285" lon="1.35807">
        <ele>299</ele>
        <time>2010-01-01T07:10:48Z</time>
      </trkpt>
      <trkpt lat="38.92291" lon="1.35796">
        <ele>300</ele>
        <time>2010-01-01T07:10:52Z</time>
      </trkpt>
      <trkpt lat="38.92296" lon="1.35785">
        <ele>301</ele>
        <time>2010-01-01T07:10:56Z</time>
      </trkpt>
      <trkpt lat="38.923" lon="1.35774">
        <ele>301</ele>
        <time>2010-01-01T07:11:00Z</time>
      </trkpt>
      <trkpt lat="38.92305" lon="1.35763">
        <ele>301</ele>
        <time>2010-01-01T07:11:04Z</time>
      </trkpt>
      <trkpt lat="38.92309" lon="1.35753">
        <ele>301</ele>
        <time>2010-01-01T07:11:08Z</time>
      </trkpt>
      <trkpt lat="38.92313" lon="1.35741">
        <ele>302</ele>
        <time>2010-01-01T07:11:12Z</time>
      </trkpt>
      <trkpt lat="38.92319" lon="1.35731">
        <ele>303</ele>
        <time>2010-01-01T07:11:16Z</time>
      </trkpt>
      <trkpt lat="38.92323" lon="1.3572">
        <ele>305</ele>
        <time>2010-01-01T07:11:19Z</time>
      </trkpt>
      <trkpt lat="38.9233" lon="1.3571">
        <ele>308</ele>
        <time>2010-01-01T07:11:24Z</time>
      </trkpt>
      <trkpt lat="38.92336" lon="1.35701">
        <ele>311</ele>
        <time>2010-01-01T07:11:27Z</time>
      </trkpt>
      <trkpt lat="38.92342" lon="1.35691">
        <ele>313</ele>
        <time>2010-01-01T07:11:31Z</time>
      </trkpt>
      <trkpt lat="38.92344" lon="1.35679">
        <ele>314</ele>
        <time>2010-01-01T07:11:35Z</time>
      </trkpt>
      <trkpt lat="38.92343" lon="1.35667">
        <ele>314</ele>
        <time>2010-01-01T07:11:39Z</time>
      </trkpt>
      <trkpt lat="38.92345" lon="1.35655">
        <ele>315</ele>
        <time>2010-01-01T07:11:43Z</time>
      </trkpt>
      <trkpt lat="38.9235" lon="1.35645">
        <ele>318</ele>
        <time>2010-01-01T07:11:46Z</time>
      </trkpt>
      <trkpt lat="38.92359" lon="1.35643">
        <ele>321</ele>
        <time>2010-01-01T07:11:50Z</time>
      </trkpt>
      <trkpt lat="38.92362" lon="1.3563">
        <ele>323</ele>
        <time>2010-01-01T07:11:54Z</time>
      </trkpt>
      <trkpt lat="38.92368" lon="1.35621">
        <ele>325</ele>
        <time>2010-01-01T07:11:58Z</time>
      </trkpt>
      <trkpt lat="38.92377" lon="1.35618">
        <ele>328</ele>
        <time>2010-01-01T07:12:02Z</time>
      </trkpt>
      <trkpt lat="38.92386" lon="1.35615">
        <ele>331</ele>
        <time>2010-01-01T07:12:05Z</time>
      </trkpt>
      <trkpt lat="38.92395" lon="1.35616">
        <ele>333</ele>
        <time>2010-01-01T07:12:09Z</time>
      </trkpt>
      <trkpt lat="38.92404" lon="1.35615">
        <ele>335</ele>
        <time>2010-01-01T07:12:13Z</time>
      </trkpt>
      <trkpt lat="38.92413" lon="1.35615">
        <ele>336</ele>
        <time>2010-01-01T07:12:16Z</time>
      </trkpt>
      <trkpt lat="38.92424" lon="1.35616">
        <ele>338</ele>
        <time>2010-01-01T07:12:20Z</time>
      </trkpt>
      <trkpt lat="38.92432" lon="1.35611">
        <ele>338</ele>
        <time>2010-01-01T07:12:24Z</time>
      </trkpt>
      <trkpt lat="38.9244" lon="1.35606">
        <ele>337</ele>
        <time>2010-01-01T07:12:28Z</time>
      </trkpt>
      <trkpt lat="38.9245" lon="1.35603">
        <ele>337</ele>
        <time>2010-01-01T07:12:32Z</time>
      </trkpt>
      <trkpt lat="38.92461" lon="1.356">
        <ele>338</ele>
        <time>2010-01-01T07:12:36Z</time>
      </trkpt>
      <trkpt lat="38.92471" lon="1.35595">
        <ele>338</ele>
        <time>2010-01-01T07:12:41Z</time>
      </trkpt>
      <trkpt lat="38.9248" lon="1.35591">
        <ele>338</ele>
        <time>2010-01-01T07:12:45Z</time>
      </trkpt>
      <trkpt lat="38.92489" lon="1.35584">
        <ele>339</ele>
        <time>2010-01-01T07:12:49Z</time>
      </trkpt>
      <trkpt lat="38.92496" lon="1.35574">
        <ele>339</ele>
        <time>2010-01-01T07:12:53Z</time>
      </trkpt>
      <trkpt lat="38.92505" lon="1.3557">
        <ele>339</ele>
        <time>2010-01-01T07:12:57Z</time>
      </trkpt>
      <trkpt lat="38.92513" lon="1.35563">
        <ele>340</ele>
        <time>2010-01-01T07:13:01Z</time>
      </trkpt>
      <trkpt lat="38.92522" lon="1.35556">
        <ele>341</ele>
        <time>2010-01-01T07:13:05Z</time>
      </trkpt>
      <trkpt lat="38.9253" lon="1.3555">
        <ele>341</ele>
        <time>2010-01-01T07:13:08Z</time>
      </trkpt>
      <trkpt lat="38.92539" lon="1.35545">
        <ele>342</ele>
        <time>2010-01-01T07:13:13Z</time>
      </trkpt>
      <trkpt lat="38.92545" lon="1.35535">
        <ele>343</ele>
        <time>2010-01-01T07:13:17Z</time>
      </trkpt>
      <trkpt lat="38.92555" lon="1.3553">
        <ele>345</ele>
        <time>2010-01-01T07:13:21Z</time>
      </trkpt>
      <trkpt lat="38.92564" lon="1.35529">
        <ele>347</ele>
        <time>2010-01-01T07:13:24Z</time>
      </trkpt>
      <trkpt lat="38.92574" lon="1.35524">
        <ele>348</ele>
        <time>2010-01-01T07:13:29Z</time>
      </trkpt>
      <trkpt lat="38.92583" lon="1.35522">
        <ele>350</ele>
        <time>2010-01-01T07:13:32Z</time>
      </trkpt>
      <trkpt lat="38.92593" lon="1.35517">
        <ele>351</ele>
        <time>2010-01-01T07:13:36Z</time>
      </trkpt>
      <trkpt lat="38.926" lon="1.35509">
        <ele>352</ele>
        <time>2010-01-01T07:13:40Z</time>
      </trkpt>
      <trkpt lat="38.92609" lon="1.35513">
        <ele>353</ele>
        <time>2010-01-01T07:13:44Z</time>
      </trkpt>
      <trkpt lat="38.92616" lon="1.35522">
        <ele>354</ele>
        <time>2010-01-01T07:13:48Z</time>
      </trkpt>
      <trkpt lat="38.92623" lon="1.3553">
        <ele>355</ele>
        <time>2010-01-01T07:13:52Z</time>
      </trkpt>
      <trkpt lat="38.92632" lon="1.35543">
        <ele>355</ele>
        <time>2010-01-01T07:13:57Z</time>
      </trkpt>
      <trkpt lat="38.92637" lon="1.35554">
        <ele>354</ele>
        <time>2010-01-01T07:14:01Z</time>
      </trkpt>
      <trkpt lat="38.92643" lon="1.35564">
        <ele>354</ele>
        <time>2010-01-01T07:14:05Z</time>
      </trkpt>
      <trkpt lat="38.92649" lon="1.35574">
        <ele>353</ele>
        <time>2010-01-01T07:14:09Z</time>
      </trkpt>
      <trkpt lat="38.92653" lon="1.35584">
        <ele>353</ele>
        <time>2010-01-01T07:14:12Z</time>
      </trkpt>
      <trkpt lat="38.92657" lon="1.35595">
        <ele>352</ele>
        <time>2010-01-01T07:14:16Z</time>
      </trkpt>
      <trkpt lat="38.92663" lon="1.35606">
        <ele>352</ele>
        <time>2010-01-01T07:14:20Z</time>
      </trkpt>
      <trkpt lat="38.9267" lon="1.35613">
        <ele>353</ele>
        <time>2010-01-01T07:14:24Z</time>
      </trkpt>
      <trkpt lat="38.9268" lon="1.35615">
        <ele>354</ele>
        <time>2010-01-01T07:14:28Z</time>
      </trkpt>
      <trkpt lat="38.92688" lon="1.35618">
        <ele>355</ele>
        <time>2010-01-01T07:14:32Z</time>
      </trkpt>
      <trkpt lat="38.92698" lon="1.35616">
        <ele>356</ele>
        <time>2010-01-01T07:14:35Z</time>
      </trkpt>
      <trkpt lat="38.92708" lon="1.35621">
        <ele>356</ele>
        <time>2010-01-01T07:14:39Z</time>
      </trkpt>
      <trkpt lat="38.92716" lon="1.35615">
        <ele>359</ele>
        <time>2010-01-01T07:14:43Z</time>
      </trkpt>
      <trkpt lat="38.92726" lon="1.35615">
        <ele>360</ele>
        <time>2010-01-01T07:14:47Z</time>
      </trkpt>
      <trkpt lat="38.92735" lon="1.35618">
        <ele>360</ele>
        <time>2010-01-01T07:14:51Z</time>
      </trkpt>
      <trkpt lat="38.92744" lon="1.35621">
        <ele>359</ele>
        <time>2010-01-01T07:14:55Z</time>
      </trkpt>
      <trkpt lat="38.92753" lon="1.35622">
        <ele>360</ele>
        <time>2010-01-01T07:14:58Z</time>
      </trkpt>
      <trkpt lat="38.92764" lon="1.35625">
        <ele>359</ele>
        <time>2010-01-01T07:15:03Z</time>
      </trkpt>
      <trkpt lat="38.92773" lon="1.35624">
        <ele>361</ele>
        <time>2010-01-01T07:15:07Z</time>
      </trkpt>
      <trkpt lat="38.92783" lon="1.35622">
        <ele>362</ele>
        <time>2010-01-01T07:15:10Z</time>
      </trkpt>
      <trkpt lat="38.92793" lon="1.35619">
        <ele>365</ele>
        <time>2010-01-01T07:15:15Z</time>
      </trkpt>
      <trkpt lat="38.92803" lon="1.3562">
        <ele>366</ele>
        <time>2010-01-01T07:15:19Z</time>
      </trkpt>
      <trkpt lat="38.92813" lon="1.35617">
        <ele>367</ele>
        <time>2010-01-01T07:15:23Z</time>
      </trkpt>
      <trkpt lat="38.92822" lon="1.35612">
        <ele>369</ele>
        <time>2010-01-01T07:15:27Z</time>
      </trkpt>
      <trkpt lat="38.92832" lon="1.35609">
        <ele>370</ele>
        <time>2010-01-01T07:15:31Z</time>
      </trkpt>
      <trkpt lat="38.92843" lon="1.35609">
        <ele>371</ele>
        <time>2010-01-01T07:15:35Z</time>
      </trkpt>
      <trkpt lat="38.92853" lon="1.35615">
        <ele>372</ele>
        <time>2010-01-01T07:15:39Z</time>
      </trkpt>
      <trkpt lat="38.92861" lon="1.3562">
        <ele>372</ele>
        <time>2010-01-01T07:15:43Z</time>
      </trkpt>
      <trkpt lat="38.9287" lon="1.35626">
        <ele>374</ele>
        <time>2010-01-01T07:15:47Z</time>
      </trkpt>
      <trkpt lat="38.92874" lon="1.35637">
        <ele>373</ele>
        <time>2010-01-01T07:15:51Z</time>
      </trkpt>
      <trkpt lat="38.92879" lon="1.35649">
        <ele>374</ele>
        <time>2010-01-01T07:15:55Z</time>
      </trkpt>
      <trkpt lat="38.92885" lon="1.35658">
        <ele>375</ele>
        <time>2010-01-01T07:15:59Z</time>
      </trkpt>
      <trkpt lat="38.92891" lon="1.35666">
        <ele>376</ele>
        <time>2010-01-01T07:16:03Z</time>
      </trkpt>
      <trkpt lat="38.92892" lon="1.35679">
        <ele>377</ele>
        <time>2010-01-01T07:16:07Z</time>
      </trkpt>
      <trkpt lat="38.92893" lon="1.35691">
        <ele>377</ele>
        <time>2010-01-01T07:16:10Z</time>
      </trkpt>
      <trkpt lat="38.92894" lon="1.35703">
        <ele>377</ele>
        <time>2010-01-01T07:16:14Z</time>
      </trkpt>
      <trkpt lat="38.92894" lon="1.35715">
        <ele>377</ele>
        <time>2010-01-01T07:16:18Z</time>
      </trkpt>
      <trkpt lat="38.92895" lon="1.35727">
        <ele>376</ele>
        <time>2010-01-01T07:16:22Z</time>
      </trkpt>
      <trkpt lat="38.92898" lon="1.35737">
        <ele>375</ele>
        <time>2010-01-01T07:16:25Z</time>
      </trkpt>
      <trkpt lat="38.92903" lon="1.35749">
        <ele>375</ele>
        <time>2010-01-01T07:16:29Z</time>
      </trkpt>
      <trkpt lat="38.92907" lon="1.3576">
        <ele>375</ele>
        <time>2010-01-01T07:16:33Z</time>
      </trkpt>
      <trkpt lat="38.92911" lon="1.35771">
        <ele>376</ele>
        <time>2010-01-01T07:16:37Z</time>
      </trkpt>
      <trkpt lat="38.92915" lon="1.35782">
        <ele>376</ele>
        <time>2010-01-01T07:16:41Z</time>
      </trkpt>
      <trkpt lat="38.92921" lon="1.35792">
        <ele>377</ele>
        <time>2010-01-01T07:16:44Z</time>
      </trkpt>
      <trkpt lat="38.92927" lon="1.35802">
        <ele>378</ele>
        <time>2010-01-01T07:16:48Z</time>
      </trkpt>
      <trkpt lat="38.92933" lon="1.35812">
        <ele>378</ele>
        <time>2010-01-01T07:16:52Z</time>
      </trkpt>
      <trkpt lat="38.92937" lon="1.35822">
        <ele>378</ele>
        <time>2010-01-01T07:16:56Z</time>
      </trkpt>
      <trkpt lat="38.92942" lon="1.35835">
        <ele>377</ele>
        <time>2010-01-01T07:17:00Z</time>
      </trkpt>
      <trkpt lat="38.92944" lon="1.3585">
        <ele>376</ele>
        <time>2010-01-01T07:17:05Z</time>
      </trkpt>
      <trkpt lat="38.92945" lon="1.35863">
        <ele>376</ele>
        <time>2010-01-01T07:17:09Z</time>
      </trkpt>
      <trkpt lat="38.92951" lon="1.35874">
        <ele>376</ele>
        <time>2010-01-01T07:17:13Z</time>
      </trkpt>
      <trkpt lat="38.92957" lon="1.35884">
        <ele>377</ele>
        <time>2010-01-01T07:17:17Z</time>
      </trkpt>
      <trkpt lat="38.92964" lon="1.35897">
        <ele>378</ele>
        <time>2010-01-01T07:17:22Z</time>
      </trkpt>
      <trkpt lat="38.9297" lon="1.35908">
        <ele>379</ele>
        <time>2010-01-01T07:17:26Z</time>
      </trkpt>
      <trkpt lat="38.92975" lon="1.35919">
        <ele>378</ele>
        <time>2010-01-01T07:17:30Z</time>
      </trkpt>
      <trkpt lat="38.92982" lon="1.35927">
        <ele>378</ele>
        <time>2010-01-01T07:17:34Z</time>
      </trkpt>
      <trkpt lat="38.92989" lon="1.35934">
        <ele>378</ele>
        <time>2010-01-01T07:17:38Z</time>
      </trkpt>
      <trkpt lat="38.92999" lon="1.35939">
        <ele>379</ele>
        <time>2010-01-01T07:17:42Z</time>
      </trkpt>
      <trkpt lat="38.93009" lon="1.35943">
        <ele>378</ele>
        <time>2010-01-01T07:17:46Z</time>
      </trkpt>
      <trkpt lat="38.93017" lon="1.3595">
        <ele>377</ele>
        <time>2010-01-01T07:17:50Z</time>
      </trkpt>
      <trkpt lat="38.93027" lon="1.35958">
        <ele>376</ele>
        <time>2010-01-01T07:17:55Z</time>
      </trkpt>
      <trkpt lat="38.93034" lon="1.35967">
        <ele>373</ele>
        <time>2010-01-01T07:17:59Z</time>
      </trkpt>
      <trkpt lat="38.93044" lon="1.35972">
        <ele>371</ele>
        <time>2010-01-01T07:18:03Z</time>
      </trkpt>
      <trkpt lat="38.9305" lon="1.35981">
        <ele>370</ele>
        <time>2010-01-01T07:18:07Z</time>
      </trkpt>
      <trkpt lat="38.93054" lon="1.35995">
        <ele>369</ele>
        <time>2010-01-01T07:18:11Z</time>
      </trkpt>
      <trkpt lat="38.93057" lon="1.36009">
        <ele>368</ele>
        <time>2010-01-01T07:18:16Z</time>
      </trkpt>
      <trkpt lat="38.93058" lon="1.36022">
        <ele>368</ele>
        <time>2010-01-01T07:18:20Z</time>
      </trkpt>
      <trkpt lat="38.93063" lon="1.36034">
        <ele>368</ele>
        <time>2010-01-01T07:18:24Z</time>
      </trkpt>
      <trkpt lat="38.93068" lon="1.36045">
        <ele>367</ele>
        <time>2010-01-01T07:18:28Z</time>
      </trkpt>
      <trkpt lat="38.93071" lon="1.36059">
        <ele>368</ele>
        <time>2010-01-01T07:18:32Z</time>
      </trkpt>
      <trkpt lat="38.93075" lon="1.3607">
        <ele>368</ele>
        <time>2010-01-01T07:18:36Z</time>
      </trkpt>
      <trkpt lat="38.93082" lon="1.36078">
        <ele>368</ele>
        <time>2010-01-01T07:18:40Z</time>
      </trkpt>
      <trkpt lat="38.93086" lon="1.3609">
        <ele>368</ele>
        <time>2010-01-01T07:18:44Z</time>
      </trkpt>
      <trkpt lat="38.9309" lon="1.36101">
        <ele>367</ele>
        <time>2010-01-01T07:18:48Z</time>
      </trkpt>
      <trkpt lat="38.93097" lon="1.3611">
        <ele>367</ele>
        <time>2010-01-01T07:18:52Z</time>
      </trkpt>
      <trkpt lat="38.93103" lon="1.36119">
        <ele>366</ele>
        <time>2010-01-01T07:18:56Z</time>
      </trkpt>
      <trkpt lat="38.9311" lon="1.36129">
        <ele>367</ele>
        <time>2010-01-01T07:19:00Z</time>
      </trkpt>
      <trkpt lat="38.93119" lon="1.36135">
        <ele>367</ele>
        <time>2010-01-01T07:19:04Z</time>
      </trkpt>
      <trkpt lat="38.93127" lon="1.36143">
        <ele>367</ele>
        <time>2010-01-01T07:19:08Z</time>
      </trkpt>
      <trkpt lat="38.93127" lon="1.36156">
        <ele>366</ele>
        <time>2010-01-01T07:19:12Z</time>
      </trkpt>
      <trkpt lat="38.9313" lon="1.36168">
        <ele>366</ele>
        <time>2010-01-01T07:19:16Z</time>
      </trkpt>
      <trkpt lat="38.93134" lon="1.3618">
        <ele>366</ele>
        <time>2010-01-01T07:19:20Z</time>
      </trkpt>
      <trkpt lat="38.93139" lon="1.36191">
        <ele>366</ele>
        <time>2010-01-01T07:19:24Z</time>
      </trkpt>
      <trkpt lat="38.93142" lon="1.36205">
        <ele>364</ele>
        <time>2010-01-01T07:19:28Z</time>
      </trkpt>
      <trkpt lat="38.93143" lon="1.36218">
        <ele>362</ele>
        <time>2010-01-01T07:19:32Z</time>
      </trkpt>
      <trkpt lat="38.93144" lon="1.36232">
        <ele>360</ele>
        <time>2010-01-01T07:19:37Z</time>
      </trkpt>
      <trkpt lat="38.93147" lon="1.36245">
        <ele>359</ele>
        <time>2010-01-01T07:19:41Z</time>
      </trkpt>
      <trkpt lat="38.93151" lon="1.36257">
        <ele>358</ele>
        <time>2010-01-01T07:19:45Z</time>
      </trkpt>
      <trkpt lat="38.93155" lon="1.36267">
        <ele>358</ele>
        <time>2010-01-01T07:19:49Z</time>
      </trkpt>
      <trkpt lat="38.9316" lon="1.36277">
        <ele>359</ele>
        <time>2010-01-01T07:19:52Z</time>
      </trkpt>
      <trkpt lat="38.93165" lon="1.36288">
        <ele>360</ele>
        <time>2010-01-01T07:19:56Z</time>
      </trkpt>
      <trkpt lat="38.93166" lon="1.363">
        <ele>360</ele>
        <time>2010-01-01T07:20:00Z</time>
      </trkpt>
      <trkpt lat="38.93166" lon="1.36311">
        <ele>360</ele>
        <time>2010-01-01T07:20:04Z</time>
      </trkpt>
      <trkpt lat="38.93166" lon="1.36326">
        <ele>361</ele>
        <time>2010-01-01T07:20:08Z</time>
      </trkpt>
      <trkpt lat="38.93166" lon="1.36339">
        <ele>362</ele>
        <time>2010-01-01T07:20:12Z</time>
      </trkpt>
      <trkpt lat="38.93165" lon="1.36351">
        <ele>362</ele>
        <time>2010-01-01T07:20:16Z</time>
      </trkpt>
      <trkpt lat="38.9316" lon="1.36362">
        <ele>361</ele>
        <time>2010-01-01T07:20:20Z</time>
      </trkpt>
      <trkpt lat="38.93154" lon="1.36372">
        <ele>360</ele>
        <time>2010-01-01T07:20:24Z</time>
      </trkpt>
      <trkpt lat="38.93148" lon="1.36383">
        <ele>359</ele>
        <time>2010-01-01T07:20:28Z</time>
      </trkpt>
      <trkpt lat="38.93142" lon="1.36393">
        <ele>357</ele>
        <time>2010-01-01T07:20:32Z</time>
      </trkpt>
      <trkpt lat="38.93135" lon="1.36402">
        <ele>356</ele>
        <time>2010-01-01T07:20:36Z</time>
      </trkpt>
      <trkpt lat="38.93135" lon="1.36414">
        <ele>357</ele>
        <time>2010-01-01T07:20:40Z</time>
      </trkpt>
      <trkpt lat="38.93136" lon="1.36426">
        <ele>357</ele>
        <time>2010-01-01T07:20:43Z</time>
      </trkpt>
      <trkpt lat="38.93138" lon="1.36438">
        <ele>357</ele>
        <time>2010-01-01T07:20:47Z</time>
      </trkpt>
      <trkpt lat="38.9314" lon="1.36449">
        <ele>357</ele>
        <time>2010-01-01T07:20:51Z</time>
      </trkpt>
      <trkpt lat="38.93146" lon="1.3646">
        <ele>357</ele>
        <time>2010-01-01T07:20:55Z</time>
      </trkpt>
      <trkpt lat="38.93157" lon="1.3647">
        <ele>357</ele>
        <time>2010-01-01T07:21:00Z</time>
      </trkpt>
      <trkpt lat="38.93163" lon="1.36478">
        <ele>357</ele>
        <time>2010-01-01T07:21:04Z</time>
      </trkpt>
      <trkpt lat="38.93167" lon="1.36489">
        <ele>357</ele>
        <time>2010-01-01T07:21:07Z</time>
      </trkpt>
      <trkpt lat="38.93173" lon="1.365">
        <ele>356</ele>
        <time>2010-01-01T07:21:12Z</time>
      </trkpt>
      <trkpt lat="38.93177" lon="1.3651">
        <ele>353</ele>
        <time>2010-01-01T07:21:15Z</time>
      </trkpt>
      <trkpt lat="38.93183" lon="1.3652">
        <ele>351</ele>
        <time>2010-01-01T07:21:19Z</time>
      </trkpt>
      <trkpt lat="38.93189" lon="1.3653">
        <ele>350</ele>
        <time>2010-01-01T07:21:23Z</time>
      </trkpt>
      <trkpt lat="38.93195" lon="1.36541">
        <ele>347</ele>
        <time>2010-01-01T07:21:27Z</time>
      </trkpt>
      <trkpt lat="38.93202" lon="1.36551">
        <ele>344</ele>
        <time>2010-01-01T07:21:31Z</time>
      </trkpt>
      <trkpt lat="38.93204" lon="1.36563">
        <ele>341</ele>
        <time>2010-01-01T07:21:35Z</time>
      </trkpt>
      <trkpt lat="38.9321" lon="1.36574">
        <ele>339</ele>
        <time>2010-01-01T07:21:39Z</time>
      </trkpt>
      <trkpt lat="38.93218" lon="1.36581">
        <ele>338</ele>
        <time>2010-01-01T07:21:43Z</time>
      </trkpt>
      <trkpt lat="38.93226" lon="1.3659">
        <ele>336</ele>
        <time>2010-01-01T07:21:48Z</time>
      </trkpt>
      <trkpt lat="38.93231" lon="1.366">
        <ele>334</ele>
        <time>2010-01-01T07:21:51Z</time>
      </trkpt>
      <trkpt lat="38.93233" lon="1.36612">
        <ele>332</ele>
        <time>2010-01-01T07:21:55Z</time>
      </trkpt>
      <trkpt lat="38.93241" lon="1.36619">
        <ele>330</ele>
        <time>2010-01-01T07:21:59Z</time>
      </trkpt>
      <trkpt lat="38.93249" lon="1.36627">
        <ele>329</ele>
        <time>2010-01-01T07:22:03Z</time>
      </trkpt>
      <trkpt lat="38.93254" lon="1.36638">
        <ele>326</ele>
        <time>2010-01-01T07:22:07Z</time>
      </trkpt>
      <trkpt lat="38.9326" lon="1.36649">
        <ele>323</ele>
        <time>2010-01-01T07:22:11Z</time>
      </trkpt>
      <trkpt lat="38.93267" lon="1.36658">
        <ele>320</ele>
        <time>2010-01-01T07:22:15Z</time>
      </trkpt>
      <trkpt lat="38.93276" lon="1.36663">
        <ele>319</ele>
        <time>2010-01-01T07:22:19Z</time>
      </trkpt>
      <trkpt lat="38.93282" lon="1.36672">
        <ele>317</ele>
        <time>2010-01-01T07:22:23Z</time>
      </trkpt>
      <trkpt lat="38.93289" lon="1.36681">
        <ele>316</ele>
        <time>2010-01-01T07:22:27Z</time>
      </trkpt>
      <trkpt lat="38.93295" lon="1.3669">
        <ele>314</ele>
        <time>2010-01-01T07:22:30Z</time>
      </trkpt>
      <trkpt lat="38.93302" lon="1.36699">
        <ele>314</ele>
        <time>2010-01-01T07:22:34Z</time>
      </trkpt>
      <trkpt lat="38.93308" lon="1.36708">
        <ele>314</ele>
        <time>2010-01-01T07:22:38Z</time>
      </trkpt>
      <trkpt lat="38.93317" lon="1.36714">
        <ele>315</ele>
        <time>2010-01-01T07:22:42Z</time>
      </trkpt>
      <trkpt lat="38.93323" lon="1.36724">
        <ele>315</ele>
        <time>2010-01-01T07:22:46Z</time>
      </trkpt>
      <trkpt lat="38.93329" lon="1.36733">
        <ele>316</ele>
        <time>2010-01-01T07:22:49Z</time>
      </trkpt>
      <trkpt lat="38.93336" lon="1.36741">
        <ele>317</ele>
        <time>2010-01-01T07:22:53Z</time>
      </trkpt>
      <trkpt lat="38.93344" lon="1.36749">
        <ele>317</ele>
        <time>2010-01-01T07:22:58Z</time>
      </trkpt>
      <trkpt lat="38.93349" lon="1.36759">
        <ele>318</ele>
        <time>2010-01-01T07:23:01Z</time>
      </trkpt>
      <trkpt lat="38.93353" lon="1.3677">
        <ele>319</ele>
        <time>2010-01-01T07:23:05Z</time>
      </trkpt>
      <trkpt lat="38.93357" lon="1.36781">
        <ele>319</ele>
        <time>2010-01-01T07:23:09Z</time>
      </trkpt>
      <trkpt lat="38.9336" lon="1.36794">
        <ele>318</ele>
        <time>2010-01-01T07:23:13Z</time>
      </trkpt>
      <trkpt lat="38.93368" lon="1.36802">
        <ele>318</ele>
        <time>2010-01-01T07:23:17Z</time>
      </trkpt>
      <trkpt lat="38.93373" lon="1.36813">
        <ele>317</ele>
        <time>2010-01-01T07:23:21Z</time>
      </trkpt>
      <trkpt lat="38.93377" lon="1.36825">
        <ele>316</ele>
        <time>2010-01-01T07:23:25Z</time>
      </trkpt>
      <trkpt lat="38.93382" lon="1.36837">
        <ele>316</ele>
        <time>2010-01-01T07:23:29Z</time>
      </trkpt>
      <trkpt lat="38.93389" lon="1.36848">
        <ele>314</ele>
        <time>2010-01-01T07:23:34Z</time>
      </trkpt>
      <trkpt lat="38.93396" lon="1.36859">
        <ele>311</ele>
        <time>2010-01-01T07:23:38Z</time>
      </trkpt>
      <trkpt lat="38.93401" lon="1.36869">
        <ele>309</ele>
        <time>2010-01-01T07:23:42Z</time>
      </trkpt>
      <trkpt lat="38.93404" lon="1.36882">
        <ele>306</ele>
        <time>2010-01-01T07:23:46Z</time>
      </trkpt>
      <trkpt lat="38.93405" lon="1.36895">
        <ele>304</ele>
        <time>2010-01-01T07:23:50Z</time>
      </trkpt>
      <trkpt lat="38.93407" lon="1.36908">
        <ele>303</ele>
        <time>2010-01-01T07:23:54Z</time>
      </trkpt>
      <trkpt lat="38.9341" lon="1.3692">
        <ele>302</ele>
        <time>2010-01-01T07:23:58Z</time>
      </trkpt>
      <trkpt lat="38.93412" lon="1.36934">
        <ele>301</ele>
        <time>2010-01-01T07:24:03Z</time>
      </trkpt>
      <trkpt lat="38.93415" lon="1.36947">
        <ele>300</ele>
        <time>2010-01-01T07:24:07Z</time>
      </trkpt>
      <trkpt lat="38.93419" lon="1.36958">
        <ele>299</ele>
        <time>2010-01-01T07:24:11Z</time>
      </trkpt>
      <trkpt lat="38.93422" lon="1.36969">
        <ele>298</ele>
        <time>2010-01-01T07:24:14Z</time>
      </trkpt>
      <trkpt lat="38.93425" lon="1.36982">
        <ele>297</ele>
        <time>2010-01-01T07:24:18Z</time>
      </trkpt>
      <trkpt lat="38.9343" lon="1.36996">
        <ele>296</ele>
        <time>2010-01-01T07:24:23Z</time>
      </trkpt>
      <trkpt lat="38.93437" lon="1.37007">
        <ele>295</ele>
        <time>2010-01-01T07:24:28Z</time>
      </trkpt>
      <trkpt lat="38.9344" lon="1.37018">
        <ele>294</ele>
        <time>2010-01-01T07:24:31Z</time>
      </trkpt>
      <trkpt lat="38.93441" lon="1.37031">
        <ele>293</ele>
        <time>2010-01-01T07:24:36Z</time>
      </trkpt>
      <trkpt lat="38.93443" lon="1.37044">
        <ele>292</ele>
        <time>2010-01-01T07:24:39Z</time>
      </trkpt>
      <trkpt lat="38.93448" lon="1.37056">
        <ele>292</ele>
        <time>2010-01-01T07:24:44Z</time>
      </trkpt>
      <trkpt lat="38.93453" lon="1.37066">
        <ele>292</ele>
        <time>2010-01-01T07:24:48Z</time>
      </trkpt>
      <trkpt lat="38.93458" lon="1.37076">
        <ele>291</ele>
        <time>2010-01-01T07:24:51Z</time>
      </trkpt>
      <trkpt lat="38.93462" lon="1.37087">
        <ele>291</ele>
        <time>2010-01-01T07:24:55Z</time>
      </trkpt>
      <trkpt lat="38.93464" lon="1.37098">
        <ele>291</ele>
        <time>2010-01-01T07:24:59Z</time>
      </trkpt>
      <trkpt lat="38.93468" lon="1.3711">
        <ele>291</ele>
        <time>2010-01-01T07:25:02Z</time>
      </trkpt>
      <trkpt lat="38.93474" lon="1.3712">
        <ele>292</ele>
        <time>2010-01-01T07:25:06Z</time>
      </trkpt>
      <trkpt lat="38.93476" lon="1.37132">
        <ele>293</ele>
        <time>2010-01-01T07:25:10Z</time>
      </trkpt>
      <trkpt lat="38.93471" lon="1.37142">
        <ele>293</ele>
        <time>2010-01-01T07:25:14Z</time>
      </trkpt>
      <trkpt lat="38.93465" lon="1.37152">
        <ele>292</ele>
        <time>2010-01-01T07:25:18Z</time>
      </trkpt>
      <trkpt lat="38.93461" lon="1.37163">
        <ele>292</ele>
        <time>2010-01-01T07:25:22Z</time>
      </trkpt>
      <trkpt lat="38.93455" lon="1.37174">
        <ele>292</ele>
        <time>2010-01-01T07:25:26Z</time>
      </trkpt>
      <trkpt lat="38.9345" lon="1.37184">
        <ele>291</ele>
        <time>2010-01-01T07:25:29Z</time>
      </trkpt>
      <trkpt lat="38.93445" lon="1.37195">
        <ele>290</ele>
        <time>2010-01-01T07:25:34Z</time>
      </trkpt>
      <trkpt lat="38.93438" lon="1.37205">
        <ele>289</ele>
        <time>2010-01-01T07:25:38Z</time>
      </trkpt>
      <trkpt lat="38.93432" lon="1.37215">
        <ele>287</ele>
        <time>2010-01-01T07:25:42Z</time>
      </trkpt>
      <trkpt lat="38.93426" lon="1.37223">
        <ele>286</ele>
        <time>2010-01-01T07:25:45Z</time>
      </trkpt>
      <trkpt lat="38.93419" lon="1.37233">
        <ele>285</ele>
        <time>2010-01-01T07:25:49Z</time>
      </trkpt>
      <trkpt lat="38.93414" lon="1.37243">
        <ele>284</ele>
        <time>2010-01-01T07:25:53Z</time>
      </trkpt>
      <trkpt lat="38.93408" lon="1.37253">
        <ele>283</ele>
        <time>2010-01-01T07:25:57Z</time>
      </trkpt>
      <trkpt lat="38.93403" lon="1.37264">
        <ele>282</ele>
        <time>2010-01-01T07:26:01Z</time>
      </trkpt>
      <trkpt lat="38.93396" lon="1.37274">
        <ele>280</ele>
        <time>2010-01-01T07:26:05Z</time>
      </trkpt>
      <trkpt lat="38.9339" lon="1.37284">
        <ele>277</ele>
        <time>2010-01-01T07:26:09Z</time>
      </trkpt>
      <trkpt lat="38.93384" lon="1.37294">
        <ele>275</ele>
        <time>2010-01-01T07:26:13Z</time>
      </trkpt>
      <trkpt lat="38.93384" lon="1.37307">
        <ele>274</ele>
        <time>2010-01-01T07:26:17Z</time>
      </trkpt>
      <trkpt lat="38.93386" lon="1.37319">
        <ele>274</ele>
        <time>2010-01-01T07:26:21Z</time>
      </trkpt>
      <trkpt lat="38.93388" lon="1.37331">
        <ele>274</ele>
        <time>2010-01-01T07:26:25Z</time>
      </trkpt>
      <trkpt lat="38.93388" lon="1.37343">
        <ele>275</ele>
        <time>2010-01-01T07:26:28Z</time>
      </trkpt>
      <trkpt lat="38.93386" lon="1.37357">
        <ele>274</ele>
        <time>2010-01-01T07:26:33Z</time>
      </trkpt>
      <trkpt lat="38.93384" lon="1.37371">
        <ele>274</ele>
        <time>2010-01-01T07:26:37Z</time>
      </trkpt>
      <trkpt lat="38.93384" lon="1.37386">
        <ele>275</ele>
        <time>2010-01-01T07:26:42Z</time>
      </trkpt>
      <trkpt lat="38.93386" lon="1.37399">
        <ele>276</ele>
        <time>2010-01-01T07:26:46Z</time>
      </trkpt>
      <trkpt lat="38.93387" lon="1.37411">
        <ele>276</ele>
        <time>2010-01-01T07:26:50Z</time>
      </trkpt>
      <trkpt lat="38.93389" lon="1.37423">
        <ele>278</ele>
        <time>2010-01-01T07:26:54Z</time>
      </trkpt>
      <trkpt lat="38.93387" lon="1.37437">
        <ele>277</ele>
        <time>2010-01-01T07:26:58Z</time>
      </trkpt>
      <trkpt lat="38.9338" lon="1.37446">
        <ele>275</ele>
        <time>2010-01-01T07:27:02Z</time>
      </trkpt>
      <trkpt lat="38.93374" lon="1.37455">
        <ele>272</ele>
        <time>2010-01-01T07:27:06Z</time>
      </trkpt>
      <trkpt lat="38.93365" lon="1.37464">
        <ele>269</ele>
        <time>2010-01-01T07:27:10Z</time>
      </trkpt>
      <trkpt lat="38.9336" lon="1.37475">
        <ele>268</ele>
        <time>2010-01-01T07:27:14Z</time>
      </trkpt>
      <trkpt lat="38.93355" lon="1.37485">
        <ele>265</ele>
        <time>2010-01-01T07:27:18Z</time>
      </trkpt>
      <trkpt lat="38.93359" lon="1.37497">
        <ele>267</ele>
        <time>2010-01-01T07:27:22Z</time>
      </trkpt>
      <trkpt lat="38.93364" lon="1.37508">
        <ele>269</ele>
        <time>2010-01-01T07:27:26Z</time>
      </trkpt>
      <trkpt lat="38.93367" lon="1.37521">
        <ele>270</ele>
        <time>2010-01-01T07:27:30Z</time>
      </trkpt>
      <trkpt lat="38.93369" lon="1.37533">
        <ele>270</ele>
        <time>2010-01-01T07:27:34Z</time>
      </trkpt>
      <trkpt lat="38.93371" lon="1.37545">
        <ele>272</ele>
        <time>2010-01-01T07:27:38Z</time>
      </trkpt>
      <trkpt lat="38.9337" lon="1.37557">
        <ele>271</ele>
        <time>2010-01-01T07:27:42Z</time>
      </trkpt>
      <trkpt lat="38.93373" lon="1.3757">
        <ele>274</ele>
        <time>2010-01-01T07:27:46Z</time>
      </trkpt>
      <trkpt lat="38.93376" lon="1.37584">
        <ele>275</ele>
        <time>2010-01-01T07:27:50Z</time>
      </trkpt>
      <trkpt lat="38.93378" lon="1.37596">
        <ele>278</ele>
        <time>2010-01-01T07:27:54Z</time>
      </trkpt>
      <trkpt lat="38.93377" lon="1.37612">
        <ele>280</ele>
        <time>2010-01-01T07:27:59Z</time>
      </trkpt>
      <trkpt lat="38.93373" lon="1.37624">
        <ele>280</ele>
        <time>2010-01-01T07:28:03Z</time>
      </trkpt>
      <trkpt lat="38.93366" lon="1.37633">
        <ele>279</ele>
        <time>2010-01-01T07:28:07Z</time>
      </trkpt>
      <trkpt lat="38.93359" lon="1.37642">
        <ele>278</ele>
        <time>2010-01-01T07:28:11Z</time>
      </trkpt>
      <trkpt lat="38.93349" lon="1.37648">
        <ele>274</ele>
        <time>2010-01-01T07:28:16Z</time>
      </trkpt>
      <trkpt lat="38.9334" lon="1.37655">
        <ele>270</ele>
        <time>2010-01-01T07:28:20Z</time>
      </trkpt>
      <trkpt lat="38.93331" lon="1.37661">
        <ele>267</ele>
        <time>2010-01-01T07:28:24Z</time>
      </trkpt>
      <trkpt lat="38.93322" lon="1.37669">
        <ele>266</ele>
        <time>2010-01-01T07:28:28Z</time>
      </trkpt>
      <trkpt lat="38.93317" lon="1.37679">
        <ele>265</ele>
        <time>2010-01-01T07:28:32Z</time>
      </trkpt>
      <trkpt lat="38.93318" lon="1.37695">
        <ele>267</ele>
        <time>2010-01-01T07:28:37Z</time>
      </trkpt>
      <trkpt lat="38.93318" lon="1.37709">
        <ele>269</ele>
        <time>2010-01-01T07:28:41Z</time>
      </trkpt>
      <trkpt lat="38.93315" lon="1.37725">
        <ele>270</ele>
        <time>2010-01-01T07:28:46Z</time>
      </trkpt>
      <trkpt lat="38.93317" lon="1.37736">
        <ele>271</ele>
        <time>2010-01-01T07:28:50Z</time>
      </trkpt>
      <trkpt lat="38.93317" lon="1.37749">
        <ele>272</ele>
        <time>2010-01-01T07:28:54Z</time>
      </trkpt>
      <trkpt lat="38.93317" lon="1.37766">
        <ele>272</ele>
        <time>2010-01-01T07:28:59Z</time>
      </trkpt>
      <trkpt lat="38.93319" lon="1.37779">
        <ele>273</ele>
        <time>2010-01-01T07:29:03Z</time>
      </trkpt>
      <trkpt lat="38.93313" lon="1.37788">
        <ele>271</ele>
        <time>2010-01-01T07:29:07Z</time>
      </trkpt>
      <trkpt lat="38.93309" lon="1.37801">
        <ele>270</ele>
        <time>2010-01-01T07:29:11Z</time>
      </trkpt>
      <trkpt lat="38.93308" lon="1.37815">
        <ele>271</ele>
        <time>2010-01-01T07:29:16Z</time>
      </trkpt>
      <trkpt lat="38.93307" lon="1.37827">
        <ele>272</ele>
        <time>2010-01-01T07:29:19Z</time>
      </trkpt>
      <trkpt lat="38.93301" lon="1.37839">
        <ele>272</ele>
        <time>2010-01-01T07:29:24Z</time>
      </trkpt>
      <trkpt lat="38.93291" lon="1.37849">
        <ele>270</ele>
        <time>2010-01-01T07:29:29Z</time>
      </trkpt>
      <trkpt lat="38.93283" lon="1.37859">
        <ele>270</ele>
        <time>2010-01-01T07:29:33Z</time>
      </trkpt>
      <trkpt lat="38.93277" lon="1.37873">
        <ele>271</ele>
        <time>2010-01-01T07:29:38Z</time>
      </trkpt>
      <trkpt lat="38.9327" lon="1.37881">
        <ele>270</ele>
        <time>2010-01-01T07:29:42Z</time>
      </trkpt>
      <trkpt lat="38.93264" lon="1.3789">
        <ele>270</ele>
        <time>2010-01-01T07:29:46Z</time>
      </trkpt>
      <trkpt lat="38.93258" lon="1.37899">
        <ele>270</ele>
        <time>2010-01-01T07:29:49Z</time>
      </trkpt>
      <trkpt lat="38.93253" lon="1.37911">
        <ele>270</ele>
        <time>2010-01-01T07:29:54Z</time>
      </trkpt>
      <trkpt lat="38.93245" lon="1.3792">
        <ele>270</ele>
        <time>2010-01-01T07:29:58Z</time>
      </trkpt>
      <trkpt lat="38.93242" lon="1.37931">
        <ele>271</ele>
        <time>2010-01-01T07:30:02Z</time>
      </trkpt>
      <trkpt lat="38.9324" lon="1.37943">
        <ele>273</ele>
        <time>2010-01-01T07:30:05Z</time>
      </trkpt>
      <trkpt lat="38.93233" lon="1.37951">
        <ele>272</ele>
        <time>2010-01-01T07:30:09Z</time>
      </trkpt>
      <trkpt lat="38.93227" lon="1.37961">
        <ele>272</ele>
        <time>2010-01-01T07:30:13Z</time>
      </trkpt>
      <trkpt lat="38.93221" lon="1.37973">
        <ele>272</ele>
        <time>2010-01-01T07:30:17Z</time>
      </trkpt>
      <trkpt lat="38.93213" lon="1.37982">
        <ele>271</ele>
        <time>2010-01-01T07:30:22Z</time>
      </trkpt>
      <trkpt lat="38.93205" lon="1.37989">
        <ele>269</ele>
        <time>2010-01-01T07:30:26Z</time>
      </trkpt>
      <trkpt lat="38.93197" lon="1.37995">
        <ele>267</ele>
        <time>2010-01-01T07:30:29Z</time>
      </trkpt>
      <trkpt lat="38.93195" lon="1.38008">
        <ele>268</ele>
        <time>2010-01-01T07:30:34Z</time>
      </trkpt>
      <trkpt lat="38.93192" lon="1.38021">
        <ele>268</ele>
        <time>2010-01-01T07:30:38Z</time>
      </trkpt>
      <trkpt lat="38.93198" lon="1.38033">
        <ele>272</ele>
        <time>2010-01-01T07:30:42Z</time>
      </trkpt>
      <trkpt lat="38.93203" lon="1.38043">
        <ele>276</ele>
        <time>2010-01-01T07:30:46Z</time>
      </trkpt>
      <trkpt lat="38.93198" lon="1.38054">
        <ele>276</ele>
        <time>2010-01-01T07:30:50Z</time>
      </trkpt>
      <trkpt lat="38.93197" lon="1.38066">
        <ele>277</ele>
        <time>2010-01-01T07:30:53Z</time>
      </trkpt>
      <trkpt lat="38.93194" lon="1.38077">
        <ele>278</ele>
        <time>2010-01-01T07:30:57Z</time>
      </trkpt>
      <trkpt lat="38.93192" lon="1.38089">
        <ele>279</ele>
        <time>2010-01-01T07:31:01Z</time>
      </trkpt>
      <trkpt lat="38.93191" lon="1.38102">
        <ele>280</ele>
        <time>2010-01-01T07:31:05Z</time>
      </trkpt>
      <trkpt lat="38.93188" lon="1.38114">
        <ele>280</ele>
        <time>2010-01-01T07:31:09Z</time>
      </trkpt>
      <trkpt lat="38.93185" lon="1.38125">
        <ele>279</ele>
        <time>2010-01-01T07:31:13Z</time>
      </trkpt>
      <trkpt lat="38.93183" lon="1.38137">
        <ele>279</ele>
        <time>2010-01-01T07:31:16Z</time>
      </trkpt>
      <trkpt lat="38.93182" lon="1.38151">
        <ele>280</ele>
        <time>2010-01-01T07:31:21Z</time>
      </trkpt>
      <trkpt lat="38.93179" lon="1.38163">
        <ele>279</ele>
        <time>2010-01-01T07:31:25Z</time>
      </trkpt>
      <trkpt lat="38.93173" lon="1.38174">
        <ele>279</ele>
        <time>2010-01-01T07:31:29Z</time>
      </trkpt>
      <trkpt lat="38.93166" lon="1.38182">
        <ele>278</ele>
        <time>2010-01-01T07:31:33Z</time>
      </trkpt>
      <trkpt lat="38.9316" lon="1.38192">
        <ele>278</ele>
        <time>2010-01-01T07:31:37Z</time>
      </trkpt>
      <trkpt lat="38.93152" lon="1.382">
        <ele>278</ele>
        <time>2010-01-01T07:31:40Z</time>
      </trkpt>
      <trkpt lat="38.93144" lon="1.38207">
        <ele>278</ele>
        <time>2010-01-01T07:31:44Z</time>
      </trkpt>
      <trkpt lat="38.93137" lon="1.38215">
        <ele>279</ele>
        <time>2010-01-01T07:31:48Z</time>
      </trkpt>
      <trkpt lat="38.93132" lon="1.38226">
        <ele>279</ele>
        <time>2010-01-01T07:31:52Z</time>
      </trkpt>
      <trkpt lat="38.93125" lon="1.38235">
        <ele>279</ele>
        <time>2010-01-01T07:31:56Z</time>
      </trkpt>
      <trkpt lat="38.93122" lon="1.38246">
        <ele>279</ele>
        <time>2010-01-01T07:32:00Z</time>
      </trkpt>
      <trkpt lat="38.93121" lon="1.38258">
        <ele>279</ele>
        <time>2010-01-01T07:32:04Z</time>
      </trkpt>
      <trkpt lat="38.93114" lon="1.38268">
        <ele>280</ele>
        <time>2010-01-01T07:32:08Z</time>
      </trkpt>
      <trkpt lat="38.93106" lon="1.38274">
        <ele>280</ele>
        <time>2010-01-01T07:32:11Z</time>
      </trkpt>
      <trkpt lat="38.931" lon="1.38285">
        <ele>280</ele>
        <time>2010-01-01T07:32:15Z</time>
      </trkpt>
      <trkpt lat="38.93095" lon="1.38294">
        <ele>281</ele>
        <time>2010-01-01T07:32:19Z</time>
      </trkpt>
      <trkpt lat="38.93085" lon="1.38295">
        <ele>282</ele>
        <time>2010-01-01T07:32:23Z</time>
      </trkpt>
      <trkpt lat="38.93077" lon="1.38302">
        <ele>283</ele>
        <time>2010-01-01T07:32:27Z</time>
      </trkpt>
      <trkpt lat="38.93069" lon="1.38311">
        <ele>284</ele>
        <time>2010-01-01T07:32:31Z</time>
      </trkpt>
      <trkpt lat="38.9306" lon="1.38316">
        <ele>284</ele>
        <time>2010-01-01T07:32:35Z</time>
      </trkpt>
      <trkpt lat="38.93051" lon="1.38322">
        <ele>284</ele>
        <time>2010-01-01T07:32:39Z</time>
      </trkpt>
      <trkpt lat="38.93046" lon="1.38332">
        <ele>285</ele>
        <time>2010-01-01T07:32:43Z</time>
      </trkpt>
      <trkpt lat="38.93037" lon="1.38338">
        <ele>285</ele>
        <time>2010-01-01T07:32:47Z</time>
      </trkpt>
      <trkpt lat="38.93029" lon="1.38345">
        <ele>284</ele>
        <time>2010-01-01T07:32:51Z</time>
      </trkpt>
      <trkpt lat="38.93026" lon="1.38357">
        <ele>283</ele>
        <time>2010-01-01T07:32:54Z</time>
      </trkpt>
      <trkpt lat="38.93019" lon="1.38366">
        <ele>282</ele>
        <time>2010-01-01T07:32:58Z</time>
      </trkpt>
      <trkpt lat="38.93017" lon="1.38377">
        <ele>282</ele>
        <time>2010-01-01T07:33:02Z</time>
      </trkpt>
      <trkpt lat="38.93017" lon="1.38389">
        <ele>282</ele>
        <time>2010-01-01T07:33:06Z</time>
      </trkpt>
      <trkpt lat="38.93015" lon="1.38401">
        <ele>282</ele>
        <time>2010-01-01T07:33:09Z</time>
      </trkpt>
      <trkpt lat="38.93022" lon="1.38408">
        <ele>281</ele>
        <time>2010-01-01T07:33:13Z</time>
      </trkpt>
      <trkpt lat="38.93028" lon="1.38418">
        <ele>279</ele>
        <time>2010-01-01T07:33:17Z</time>
      </trkpt>
      <trkpt lat="38.93025" lon="1.38429">
        <ele>280</ele>
        <time>2010-01-01T07:33:21Z</time>
      </trkpt>
      <trkpt lat="38.93018" lon="1.38437">
        <ele>282</ele>
        <time>2010-01-01T07:33:25Z</time>
      </trkpt>
      <trkpt lat="38.93015" lon="1.38448">
        <ele>283</ele>
        <time>2010-01-01T07:33:28Z</time>
      </trkpt>
      <trkpt lat="38.93011" lon="1.38458">
        <ele>283</ele>
        <time>2010-01-01T07:33:32Z</time>
      </trkpt>
      <trkpt lat="38.93003" lon="1.38467">
        <ele>286</ele>
        <time>2010-01-01T07:33:36Z</time>
      </trkpt>
      <trkpt lat="38.92995" lon="1.38472">
        <ele>287</ele>
        <time>2010-01-01T07:33:40Z</time>
      </trkpt>
      <trkpt lat="38.92986" lon="1.38478">
        <ele>288</ele>
        <time>2010-01-01T07:33:43Z</time>
      </trkpt>
      <trkpt lat="38.9298" lon="1.38487">
        <ele>289</ele>
        <time>2010-01-01T07:33:47Z</time>
      </trkpt>
      <trkpt lat="38.92972" lon="1.38494">
        <ele>289</ele>
        <time>2010-01-01T07:33:51Z</time>
      </trkpt>
      <trkpt lat="38.92963" lon="1.385">
        <ele>289</ele>
        <time>2010-01-01T07:33:55Z</time>
      </trkpt>
      <trkpt lat="38.92957" lon="1.3851">
        <ele>289</ele>
        <time>2010-01-01T07:33:59Z</time>
      </trkpt>
      <trkpt lat="38.92954" lon="1.38522">
        <ele>289</ele>
        <time>2010-01-01T07:34:03Z</time>
      </trkpt>
      <trkpt lat="38.92947" lon="1.38531">
        <ele>289</ele>
        <time>2010-01-01T07:34:07Z</time>
      </trkpt>
      <trkpt lat="38.92939" lon="1.38536">
        <ele>287</ele>
        <time>2010-01-01T07:34:11Z</time>
      </trkpt>
      <trkpt lat="38.92932" lon="1.38544">
        <ele>285</ele>
        <time>2010-01-01T07:34:14Z</time>
      </trkpt>
      <trkpt lat="38.92923" lon="1.38546">
        <ele>282</ele>
        <time>2010-01-01T07:34:18Z</time>
      </trkpt>
      <trkpt lat="38.92913" lon="1.38542">
        <ele>279</ele>
        <time>2010-01-01T07:34:22Z</time>
      </trkpt>
      <trkpt lat="38.92905" lon="1.38549">
        <ele>277</ele>
        <time>2010-01-01T07:34:26Z</time>
      </trkpt>
      <trkpt lat="38.92899" lon="1.38559">
        <ele>276</ele>
        <time>2010-01-01T07:34:30Z</time>
      </trkpt>
      <trkpt lat="38.92889" lon="1.38564">
        <ele>273</ele>
        <time>2010-01-01T07:34:34Z</time>
      </trkpt>
      <trkpt lat="38.92883" lon="1.38572">
        <ele>271</ele>
        <time>2010-01-01T07:34:38Z</time>
      </trkpt>
      <trkpt lat="38.92876" lon="1.38579">
        <ele>269</ele>
        <time>2010-01-01T07:34:41Z</time>
      </trkpt>
      <trkpt lat="38.92867" lon="1.38588">
        <ele>266</ele>
        <time>2010-01-01T07:34:46Z</time>
      </trkpt>
      <trkpt lat="38.92858" lon="1.38593">
        <ele>262</ele>
        <time>2010-01-01T07:34:50Z</time>
      </trkpt>
      <trkpt lat="38.92849" lon="1.38597">
        <ele>259</ele>
        <time>2010-01-01T07:34:53Z</time>
      </trkpt>
      <trkpt lat="38.92842" lon="1.38605">
        <ele>256</ele>
        <time>2010-01-01T07:34:57Z</time>
      </trkpt>
      <trkpt lat="38.92838" lon="1.38616">
        <ele>254</ele>
        <time>2010-01-01T07:35:01Z</time>
      </trkpt>
      <trkpt lat="38.9283" lon="1.38622">
        <ele>251</ele>
        <time>2010-01-01T07:35:05Z</time>
      </trkpt>
      <trkpt lat="38.92822" lon="1.38628">
        <ele>251</ele>
        <time>2010-01-01T07:35:08Z</time>
      </trkpt>
      <trkpt lat="38.92814" lon="1.38635">
        <ele>250</ele>
        <time>2010-01-01T07:35:12Z</time>
      </trkpt>
      <trkpt lat="38.92804" lon="1.38638">
        <ele>250</ele>
        <time>2010-01-01T07:35:16Z</time>
      </trkpt>
      <trkpt lat="38.92795" lon="1.3864">
        <ele>250</ele>
        <time>2010-01-01T07:35:20Z</time>
      </trkpt>
      <trkpt lat="38.92785" lon="1.38643">
        <ele>248</ele>
        <time>2010-01-01T07:35:24Z</time>
      </trkpt>
      <trkpt lat="38.92777" lon="1.38648">
        <ele>247</ele>
        <time>2010-01-01T07:35:28Z</time>
      </trkpt>
      <trkpt lat="38.92769" lon="1.38653">
        <ele>244</ele>
        <time>2010-01-01T07:35:31Z</time>
      </trkpt>
      <trkpt lat="38.9276" lon="1.38657">
        <ele>242</ele>
        <time>2010-01-01T07:35:35Z</time>
      </trkpt>
      <trkpt lat="38.92751" lon="1.38661">
        <ele>240</ele>
        <time>2010-01-01T07:35:39Z</time>
      </trkpt>
      <trkpt lat="38.92744" lon="1.38668">
        <ele>237</ele>
        <time>2010-01-01T07:35:42Z</time>
      </trkpt>
      <trkpt lat="38.92736" lon="1.38676">
        <ele>234</ele>
        <time>2010-01-01T07:35:47Z</time>
      </trkpt>
      <trkpt lat="38.92734" lon="1.38689">
        <ele>233</ele>
        <time>2010-01-01T07:35:51Z</time>
      </trkpt>
      <trkpt lat="38.9273" lon="1.387">
        <ele>231</ele>
        <time>2010-01-01T07:35:54Z</time>
      </trkpt>
      <trkpt lat="38.92725" lon="1.3871">
        <ele>229</ele>
        <time>2010-01-01T07:35:58Z</time>
      </trkpt>
      <trkpt lat="38.9272" lon="1.3872">
        <ele>227</ele>
        <time>2010-01-01T07:36:02Z</time>
      </trkpt>
      <trkpt lat="38.92724" lon="1.38731">
        <ele>226</ele>
        <time>2010-01-01T07:36:06Z</time>
      </trkpt>
      <trkpt lat="38.92726" lon="1.38744">
        <ele>225</ele>
        <time>2010-01-01T07:36:10Z</time>
      </trkpt>
      <trkpt lat="38.92718" lon="1.38749">
        <ele>223</ele>
        <time>2010-01-01T07:36:13Z</time>
      </trkpt>
      <trkpt lat="38.92709" lon="1.38754">
        <ele>221</ele>
        <time>2010-01-01T07:36:17Z</time>
      </trkpt>
      <trkpt lat="38.92706" lon="1.38767">
        <ele>219</ele>
        <time>2010-01-01T07:36:21Z</time>
      </trkpt>
      <trkpt lat="38.92698" lon="1.38774">
        <ele>217</ele>
        <time>2010-01-01T07:36:25Z</time>
      </trkpt>
      <trkpt lat="38.9269" lon="1.38783">
        <ele>215</ele>
        <time>2010-01-01T07:36:29Z</time>
      </trkpt>
      <trkpt lat="38.92688" lon="1.38795">
        <ele>213</ele>
        <time>2010-01-01T07:36:33Z</time>
      </trkpt>
      <trkpt lat="38.92689" lon="1.38807">
        <ele>211</ele>
        <time>2010-01-01T07:36:37Z</time>
      </trkpt>
      <trkpt lat="38.92686" lon="1.3882">
        <ele>209</ele>
        <time>2010-01-01T07:36:41Z</time>
      </trkpt>
      <trkpt lat="38.92683" lon="1.38832">
        <ele>207</ele>
        <time>2010-01-01T07:36:45Z</time>
      </trkpt>
      <trkpt lat="38.92691" lon="1.38839">
        <ele>206</ele>
        <time>2010-01-01T07:36:49Z</time>
      </trkpt>
      <trkpt lat="38.92699" lon="1.38848">
        <ele>204</ele>
        <time>2010-01-01T07:36:53Z</time>
      </trkpt>
      <trkpt lat="38.92706" lon="1.38855">
        <ele>202</ele>
        <time>2010-01-01T07:36:57Z</time>
      </trkpt>
      <trkpt lat="38.92713" lon="1.38862">
        <ele>200</ele>
        <time>2010-01-01T07:37:01Z</time>
      </trkpt>
      <trkpt lat="38.92724" lon="1.38863">
        <ele>199</ele>
        <time>2010-01-01T07:37:05Z</time>
      </trkpt>
      <trkpt lat="38.92734" lon="1.38869">
        <ele>197</ele>
        <time>2010-01-01T07:37:09Z</time>
      </trkpt>
      <trkpt lat="38.92739" lon="1.38879">
        <ele>195</ele>
        <time>2010-01-01T07:37:13Z</time>
      </trkpt>
      <trkpt lat="38.9274" lon="1.38891">
        <ele>193</ele>
        <time>2010-01-01T07:37:17Z</time>
      </trkpt>
      <trkpt lat="38.92735" lon="1.38904">
        <ele>191</ele>
        <time>2010-01-01T07:37:21Z</time>
      </trkpt>
      <trkpt lat="38.92729" lon="1.38915">
        <ele>188</ele>
        <time>2010-01-01T07:37:26Z</time>
      </trkpt>
      <trkpt lat="38.92725" lon="1.38928">
        <ele>187</ele>
        <time>2010-01-01T07:37:30Z</time>
      </trkpt>
      <trkpt lat="38.92721" lon="1.38942">
        <ele>187</ele>
        <time>2010-01-01T07:37:34Z</time>
      </trkpt>
      <trkpt lat="38.92715" lon="1.38951">
        <ele>187</ele>
        <time>2010-01-01T07:37:38Z</time>
      </trkpt>
      <trkpt lat="38.92708" lon="1.3896">
        <ele>187</ele>
        <time>2010-01-01T07:37:42Z</time>
      </trkpt>
      <trkpt lat="38.92704" lon="1.38971">
        <ele>187</ele>
        <time>2010-01-01T07:37:46Z</time>
      </trkpt>
      <trkpt lat="38.92694" lon="1.38978">
        <ele>187</ele>
        <time>2010-01-01T07:37:50Z</time>
      </trkpt>
      <trkpt lat="38.92687" lon="1.38987">
        <ele>187</ele>
        <time>2010-01-01T07:37:54Z</time>
      </trkpt>
      <trkpt lat="38.92679" lon="1.38998">
        <ele>186</ele>
        <time>2010-01-01T07:37:59Z</time>
      </trkpt>
      <trkpt lat="38.9267" lon="1.39009">
        <ele>185</ele>
        <time>2010-01-01T07:38:04Z</time>
      </trkpt>
      <trkpt lat="38.92669" lon="1.39021">
        <ele>184</ele>
        <time>2010-01-01T07:38:08Z</time>
      </trkpt>
      <trkpt lat="38.92674" lon="1.39031">
        <ele>184</ele>
        <time>2010-01-01T07:38:11Z</time>
      </trkpt>
      <trkpt lat="38.92667" lon="1.39038">
        <ele>182</ele>
        <time>2010-01-01T07:38:15Z</time>
      </trkpt>
      <trkpt lat="38.92659" lon="1.39044">
        <ele>182</ele>
        <time>2010-01-01T07:38:19Z</time>
      </trkpt>
      <trkpt lat="38.92656" lon="1.39056">
        <ele>181</ele>
        <time>2010-01-01T07:38:23Z</time>
      </trkpt>
      <trkpt lat="38.92654" lon="1.39068">
        <ele>182</ele>
        <time>2010-01-01T07:38:26Z</time>
      </trkpt>
      <trkpt lat="38.92648" lon="1.39058">
        <ele>182</ele>
        <time>2010-01-01T07:38:30Z</time>
      </trkpt>
      <trkpt lat="38.92641" lon="1.39049">
        <ele>182</ele>
        <time>2010-01-01T07:38:34Z</time>
      </trkpt>
      <trkpt lat="38.92632" lon="1.39047">
        <ele>183</ele>
        <time>2010-01-01T07:38:38Z</time>
      </trkpt>
      <trkpt lat="38.92622" lon="1.39047">
        <ele>183</ele>
        <time>2010-01-01T07:38:42Z</time>
      </trkpt>
      <trkpt lat="38.92613" lon="1.39051">
        <ele>184</ele>
        <time>2010-01-01T07:38:46Z</time>
      </trkpt>
      <trkpt lat="38.92601" lon="1.39049">
        <ele>184</ele>
        <time>2010-01-01T07:38:51Z</time>
      </trkpt>
      <trkpt lat="38.92593" lon="1.39053">
        <ele>185</ele>
        <time>2010-01-01T07:38:54Z</time>
      </trkpt>
      <trkpt lat="38.92592" lon="1.39066">
        <ele>186</ele>
        <time>2010-01-01T07:38:58Z</time>
      </trkpt>
      <trkpt lat="38.92585" lon="1.39074">
        <ele>187</ele>
        <time>2010-01-01T07:39:02Z</time>
      </trkpt>
      <trkpt lat="38.92575" lon="1.39075">
        <ele>187</ele>
        <time>2010-01-01T07:39:06Z</time>
      </trkpt>
      <trkpt lat="38.92565" lon="1.39076">
        <ele>187</ele>
        <time>2010-01-01T07:39:10Z</time>
      </trkpt>
      <trkpt lat="38.92555" lon="1.39074">
        <ele>187</ele>
        <time>2010-01-01T07:39:14Z</time>
      </trkpt>
      <trkpt lat="38.92544" lon="1.39076">
        <ele>187</ele>
        <time>2010-01-01T07:39:18Z</time>
      </trkpt>
      <trkpt lat="38.92537" lon="1.39085">
        <ele>189</ele>
        <time>2010-01-01T07:39:22Z</time>
      </trkpt>
      <trkpt lat="38.92528" lon="1.39093">
        <ele>192</ele>
        <time>2010-01-01T07:39:26Z</time>
      </trkpt>
      <trkpt lat="38.9252" lon="1.391">
        <ele>192</ele>
        <time>2010-01-01T07:39:30Z</time>
      </trkpt>
      <trkpt lat="38.92516" lon="1.39112">
        <ele>194</ele>
        <time>2010-01-01T07:39:34Z</time>
      </trkpt>
      <trkpt lat="38.92514" lon="1.39123">
        <ele>195</ele>
        <time>2010-01-01T07:39:38Z</time>
      </trkpt>
      <trkpt lat="38.92513" lon="1.39135">
        <ele>196</ele>
        <time>2010-01-01T07:39:42Z</time>
      </trkpt>
      <trkpt lat="38.92515" lon="1.39147">
        <ele>197</ele>
        <time>2010-01-01T07:39:45Z</time>
      </trkpt>
      <trkpt lat="38.92517" lon="1.39159">
        <ele>198</ele>
        <time>2010-01-01T07:39:49Z</time>
      </trkpt>
      <trkpt lat="38.92517" lon="1.39171">
        <ele>198</ele>
        <time>2010-01-01T07:39:53Z</time>
      </trkpt>
      <trkpt lat="38.9251" lon="1.3918">
        <ele>198</ele>
        <time>2010-01-01T07:39:57Z</time>
      </trkpt>
      <trkpt lat="38.92502" lon="1.39186">
        <ele>197</ele>
        <time>2010-01-01T07:40:01Z</time>
      </trkpt>
      <trkpt lat="38.92492" lon="1.39192">
        <ele>195</ele>
        <time>2010-01-01T07:40:05Z</time>
      </trkpt>
      <trkpt lat="38.92489" lon="1.39202">
        <ele>195</ele>
        <time>2010-01-01T07:40:09Z</time>
      </trkpt>
      <trkpt lat="38.92491" lon="1.39215">
        <ele>195</ele>
        <time>2010-01-01T07:40:13Z</time>
      </trkpt>
      <trkpt lat="38.92493" lon="1.39227">
        <ele>194</ele>
        <time>2010-01-01T07:40:17Z</time>
      </trkpt>
      <trkpt lat="38.92488" lon="1.39237">
        <ele>193</ele>
        <time>2010-01-01T07:40:20Z</time>
      </trkpt>
      <trkpt lat="38.92486" lon="1.39249">
        <ele>192</ele>
        <time>2010-01-01T07:40:24Z</time>
      </trkpt>
      <trkpt lat="38.92482" lon="1.39261">
        <ele>190</ele>
        <time>2010-01-01T07:40:28Z</time>
      </trkpt>
      <trkpt lat="38.92476" lon="1.3927">
        <ele>189</ele>
        <time>2010-01-01T07:40:32Z</time>
      </trkpt>
      <trkpt lat="38.9247" lon="1.39279">
        <ele>188</ele>
        <time>2010-01-01T07:40:36Z</time>
      </trkpt>
      <trkpt lat="38.92464" lon="1.39292">
        <ele>188</ele>
        <time>2010-01-01T07:40:40Z</time>
      </trkpt>
      <trkpt lat="38.92459" lon="1.39303">
        <ele>188</ele>
        <time>2010-01-01T07:40:44Z</time>
      </trkpt>
      <trkpt lat="38.92454" lon="1.39314">
        <ele>188</ele>
        <time>2010-01-01T07:40:48Z</time>
      </trkpt>
      <trkpt lat="38.92451" lon="1.39325">
        <ele>188</ele>
        <time>2010-01-01T07:40:52Z</time>
      </trkpt>
      <trkpt lat="38.92448" lon="1.39337">
        <ele>188</ele>
        <time>2010-01-01T07:40:56Z</time>
      </trkpt>
      <trkpt lat="38.92444" lon="1.39348">
        <ele>190</ele>
        <time>2010-01-01T07:41:00Z</time>
      </trkpt>
      <trkpt lat="38.92438" lon="1.39357">
        <ele>190</ele>
        <time>2010-01-01T07:41:03Z</time>
      </trkpt>
      <trkpt lat="38.92432" lon="1.39368">
        <ele>190</ele>
        <time>2010-01-01T07:41:07Z</time>
      </trkpt>
      <trkpt lat="38.92424" lon="1.39375">
        <ele>191</ele>
        <time>2010-01-01T07:41:11Z</time>
      </trkpt>
      <trkpt lat="38.92419" lon="1.39385">
        <ele>191</ele>
        <time>2010-01-01T07:41:15Z</time>
      </trkpt>
      <trkpt lat="38.92414" lon="1.39396">
        <ele>193</ele>
        <time>2010-01-01T07:41:19Z</time>
      </trkpt>
      <trkpt lat="38.92406" lon="1.39403">
        <ele>194</ele>
        <time>2010-01-01T07:41:23Z</time>
      </trkpt>
      <trkpt lat="38.92398" lon="1.39411">
        <ele>195</ele>
        <time>2010-01-01T07:41:27Z</time>
      </trkpt>
      <trkpt lat="38.92393" lon="1.39422">
        <ele>197</ele>
        <time>2010-01-01T07:41:31Z</time>
      </trkpt>
      <trkpt lat="38.92385" lon="1.39428">
        <ele>198</ele>
        <time>2010-01-01T07:41:35Z</time>
      </trkpt>
      <trkpt lat="38.92376" lon="1.39436">
        <ele>198</ele>
        <time>2010-01-01T07:41:39Z</time>
      </trkpt>
      <trkpt lat="38.9237" lon="1.39446">
        <ele>199</ele>
        <time>2010-01-01T07:41:43Z</time>
      </trkpt>
      <trkpt lat="38.92365" lon="1.39455">
        <ele>200</ele>
        <time>2010-01-01T07:41:46Z</time>
      </trkpt>
      <trkpt lat="38.92361" lon="1.39467">
        <ele>202</ele>
        <time>2010-01-01T07:41:50Z</time>
      </trkpt>
      <trkpt lat="38.92352" lon="1.39471">
        <ele>201</ele>
        <time>2010-01-01T07:41:54Z</time>
      </trkpt>
      <trkpt lat="38.92343" lon="1.39478">
        <ele>202</ele>
        <time>2010-01-01T07:41:58Z</time>
      </trkpt>
      <trkpt lat="38.92335" lon="1.39488">
        <ele>203</ele>
        <time>2010-01-01T07:42:03Z</time>
      </trkpt>
      <trkpt lat="38.92327" lon="1.39494">
        <ele>203</ele>
        <time>2010-01-01T07:42:07Z</time>
      </trkpt>
      <trkpt lat="38.92318" lon="1.39497">
        <ele>204</ele>
        <time>2010-01-01T07:42:10Z</time>
      </trkpt>
      <trkpt lat="38.92311" lon="1.39505">
        <ele>205</ele>
        <time>2010-01-01T07:42:14Z</time>
      </trkpt>
      <trkpt lat="38.92302" lon="1.39509">
        <ele>204</ele>
        <time>2010-01-01T07:42:18Z</time>
      </trkpt>
      <trkpt lat="38.92294" lon="1.39515">
        <ele>204</ele>
        <time>2010-01-01T07:42:21Z</time>
      </trkpt>
      <trkpt lat="38.92286" lon="1.39521">
        <ele>203</ele>
        <time>2010-01-01T07:42:25Z</time>
      </trkpt>
      <trkpt lat="38.9228" lon="1.39531">
        <ele>203</ele>
        <time>2010-01-01T07:42:29Z</time>
      </trkpt>
      <trkpt lat="38.92273" lon="1.3954">
        <ele>202</ele>
        <time>2010-01-01T07:42:33Z</time>
      </trkpt>
      <trkpt lat="38.92266" lon="1.39547">
        <ele>203</ele>
        <time>2010-01-01T07:42:37Z</time>
      </trkpt>
      <trkpt lat="38.92258" lon="1.39557">
        <ele>204</ele>
        <time>2010-01-01T07:42:41Z</time>
      </trkpt>
      <trkpt lat="38.92254" lon="1.39567">
        <ele>205</ele>
        <time>2010-01-01T07:42:45Z</time>
      </trkpt>
      <trkpt lat="38.92246" lon="1.39576">
        <ele>207</ele>
        <time>2010-01-01T07:42:49Z</time>
      </trkpt>
      <trkpt lat="38.92239" lon="1.39583">
        <ele>208</ele>
        <time>2010-01-01T07:42:52Z</time>
      </trkpt>
      <trkpt lat="38.92231" lon="1.39588">
        <ele>210</ele>
        <time>2010-01-01T07:42:56Z</time>
      </trkpt>
      <trkpt lat="38.92222" lon="1.39594">
        <ele>213</ele>
        <time>2010-01-01T07:43:00Z</time>
      </trkpt>
      <trkpt lat="38.92213" lon="1.39597">
        <ele>215</ele>
        <time>2010-01-01T07:43:04Z</time>
      </trkpt>
      <trkpt lat="38.92205" lon="1.39604">
        <ele>218</ele>
        <time>2010-01-01T07:43:08Z</time>
      </trkpt>
      <trkpt lat="38.92197" lon="1.3961">
        <ele>222</ele>
        <time>2010-01-01T07:43:11Z</time>
      </trkpt>
      <trkpt lat="38.92188" lon="1.39613">
        <ele>224</ele>
        <time>2010-01-01T07:43:15Z</time>
      </trkpt>
      <trkpt lat="38.92179" lon="1.39609">
        <ele>225</ele>
        <time>2010-01-01T07:43:19Z</time>
      </trkpt>
      <trkpt lat="38.92169" lon="1.39607">
        <ele>225</ele>
        <time>2010-01-01T07:43:23Z</time>
      </trkpt>
      <trkpt lat="38.92159" lon="1.39607">
        <ele>227</ele>
        <time>2010-01-01T07:43:27Z</time>
      </trkpt>
      <trkpt lat="38.9215" lon="1.39606">
        <ele>228</ele>
        <time>2010-01-01T07:43:30Z</time>
      </trkpt>
      <trkpt lat="38.92141" lon="1.39606">
        <ele>230</ele>
        <time>2010-01-01T07:43:34Z</time>
      </trkpt>
      <trkpt lat="38.92132" lon="1.39605">
        <ele>230</ele>
        <time>2010-01-01T07:43:38Z</time>
      </trkpt>
      <trkpt lat="38.92123" lon="1.39605">
        <ele>230</ele>
        <time>2010-01-01T07:43:41Z</time>
      </trkpt>
      <trkpt lat="38.92113" lon="1.39605">
        <ele>231</ele>
        <time>2010-01-01T07:43:45Z</time>
      </trkpt>
      <trkpt lat="38.92105" lon="1.39612">
        <ele>233</ele>
        <time>2010-01-01T07:43:49Z</time>
      </trkpt>
      <trkpt lat="38.92094" lon="1.39615">
        <ele>233</ele>
        <time>2010-01-01T07:43:53Z</time>
      </trkpt>
      <trkpt lat="38.92084" lon="1.39619">
        <ele>233</ele>
        <time>2010-01-01T07:43:58Z</time>
      </trkpt>
      <trkpt lat="38.92076" lon="1.39626">
        <ele>233</ele>
        <time>2010-01-01T07:44:02Z</time>
      </trkpt>
      <trkpt lat="38.9207" lon="1.39635">
        <ele>233</ele>
        <time>2010-01-01T07:44:05Z</time>
      </trkpt>
      <trkpt lat="38.92068" lon="1.39647">
        <ele>234</ele>
        <time>2010-01-01T07:44:09Z</time>
      </trkpt>
      <trkpt lat="38.92069" lon="1.39659">
        <ele>235</ele>
        <time>2010-01-01T07:44:13Z</time>
      </trkpt>
      <trkpt lat="38.92068" lon="1.39672">
        <ele>235</ele>
        <time>2010-01-01T07:44:17Z</time>
      </trkpt>
      <trkpt lat="38.92067" lon="1.39684">
        <ele>236</ele>
        <time>2010-01-01T07:44:21Z</time>
      </trkpt>
      <trkpt lat="38.92067" lon="1.39697">
        <ele>236</ele>
        <time>2010-01-01T07:44:25Z</time>
      </trkpt>
      <trkpt lat="38.92066" lon="1.39709">
        <ele>235</ele>
        <time>2010-01-01T07:44:29Z</time>
      </trkpt>
      <trkpt lat="38.92068" lon="1.39721">
        <ele>235</ele>
        <time>2010-01-01T07:44:32Z</time>
      </trkpt>
      <trkpt lat="38.92077" lon="1.39726">
        <ele>235</ele>
        <time>2010-01-01T07:44:36Z</time>
      </trkpt>
      <trkpt lat="38.92085" lon="1.39733">
        <ele>235</ele>
        <time>2010-01-01T07:44:40Z</time>
      </trkpt>
      <trkpt lat="38.92093" lon="1.39739">
        <ele>236</ele>
        <time>2010-01-01T07:44:44Z</time>
      </trkpt>
      <trkpt lat="38.92103" lon="1.3974">
        <ele>239</ele>
        <time>2010-01-01T07:44:48Z</time>
      </trkpt>
      <trkpt lat="38.92106" lon="1.3975">
        <ele>238</ele>
        <time>2010-01-01T07:44:52Z</time>
      </trkpt>
      <trkpt lat="38.92113" lon="1.39758">
        <ele>239</ele>
        <time>2010-01-01T07:44:55Z</time>
      </trkpt>
      <trkpt lat="38.92118" lon="1.3977">
        <ele>240</ele>
        <time>2010-01-01T07:44:59Z</time>
      </trkpt>
      <trkpt lat="38.92123" lon="1.3978">
        <ele>240</ele>
        <time>2010-01-01T07:45:03Z</time>
      </trkpt>
      <trkpt lat="38.92129" lon="1.3979">
        <ele>241</ele>
        <time>2010-01-01T07:45:07Z</time>
      </trkpt>
      <trkpt lat="38.92137" lon="1.39797">
        <ele>243</ele>
        <time>2010-01-01T07:45:11Z</time>
      </trkpt>
      <trkpt lat="38.92138" lon="1.39809">
        <ele>242</ele>
        <time>2010-01-01T07:45:15Z</time>
      </trkpt>
      <trkpt lat="38.92145" lon="1.39817">
        <ele>244</ele>
        <time>2010-01-01T07:45:18Z</time>
      </trkpt>
      <trkpt lat="38.92148" lon="1.39829">
        <ele>244</ele>
        <time>2010-01-01T07:45:22Z</time>
      </trkpt>
      <trkpt lat="38.92152" lon="1.39841">
        <ele>244</ele>
        <time>2010-01-01T07:45:26Z</time>
      </trkpt>
      <trkpt lat="38.92159" lon="1.3985">
        <ele>246</ele>
        <time>2010-01-01T07:45:30Z</time>
      </trkpt>
      <trkpt lat="38.92167" lon="1.39857">
        <ele>247</ele>
        <time>2010-01-01T07:45:34Z</time>
      </trkpt>
      <trkpt lat="38.92174" lon="1.39864">
        <ele>248</ele>
        <time>2010-01-01T07:45:38Z</time>
      </trkpt>
      <trkpt lat="38.92182" lon="1.39869">
        <ele>249</ele>
        <time>2010-01-01T07:45:41Z</time>
      </trkpt>
      <trkpt lat="38.92182" lon="1.3988">
        <ele>249</ele>
        <time>2010-01-01T07:45:45Z</time>
      </trkpt>
      <trkpt lat="38.92184" lon="1.39892">
        <ele>250</ele>
        <time>2010-01-01T07:45:49Z</time>
      </trkpt>
      <trkpt lat="38.92179" lon="1.39904">
        <ele>249</ele>
        <time>2010-01-01T07:45:53Z</time>
      </trkpt>
      <trkpt lat="38.9218" lon="1.39916">
        <ele>250</ele>
        <time>2010-01-01T07:45:57Z</time>
      </trkpt>
      <trkpt lat="38.92179" lon="1.3993">
        <ele>250</ele>
        <time>2010-01-01T07:46:01Z</time>
      </trkpt>
      <trkpt lat="38.92179" lon="1.39943">
        <ele>251</ele>
        <time>2010-01-01T07:46:05Z</time>
      </trkpt>
      <trkpt lat="38.9218" lon="1.39956">
        <ele>251</ele>
        <time>2010-01-01T07:46:09Z</time>
      </trkpt>
      <trkpt lat="38.92181" lon="1.39968">
        <ele>250</ele>
        <time>2010-01-01T07:46:13Z</time>
      </trkpt>
      <trkpt lat="38.92183" lon="1.3998">
        <ele>249</ele>
        <time>2010-01-01T07:46:17Z</time>
      </trkpt>
      <trkpt lat="38.92182" lon="1.39992">
        <ele>247</ele>
        <time>2010-01-01T07:46:20Z</time>
      </trkpt>
      <trkpt lat="38.9218" lon="1.40003">
        <ele>244</ele>
        <time>2010-01-01T07:46:24Z</time>
      </trkpt>
      <trkpt lat="38.92179" lon="1.40016">
        <ele>241</ele>
        <time>2010-01-01T07:46:28Z</time>
      </trkpt>
      <trkpt lat="38.92175" lon="1.40027">
        <ele>236</ele>
        <time>2010-01-01T07:46:32Z</time>
      </trkpt>
      <trkpt lat="38.92176" lon="1.4004">
        <ele>234</ele>
        <time>2010-01-01T07:46:36Z</time>
      </trkpt>
      <trkpt lat="38.92174" lon="1.40052">
        <ele>229</ele>
        <time>2010-01-01T07:46:40Z</time>
      </trkpt>
      <trkpt lat="38.92173" lon="1.40065">
        <ele>226</ele>
        <time>2010-01-01T07:46:44Z</time>
      </trkpt>
      <trkpt lat="38.92171" lon="1.40077">
        <ele>222</ele>
        <time>2010-01-01T07:46:48Z</time>
      </trkpt>
      <trkpt lat="38.92171" lon="1.40091">
        <ele>220</ele>
        <time>2010-01-01T07:46:52Z</time>
      </trkpt>
      <trkpt lat="38.92171" lon="1.40103">
        <ele>220</ele>
        <time>2010-01-01T07:46:56Z</time>
      </trkpt>
      <trkpt lat="38.9217" lon="1.40116">
        <ele>219</ele>
        <time>2010-01-01T07:47:00Z</time>
      </trkpt>
      <trkpt lat="38.92167" lon="1.40129">
        <ele>219</ele>
        <time>2010-01-01T07:47:04Z</time>
      </trkpt>
      <trkpt lat="38.92171" lon="1.4014">
        <ele>221</ele>
        <time>2010-01-01T07:47:08Z</time>
      </trkpt>
      <trkpt lat="38.92171" lon="1.40152">
        <ele>224</ele>
        <time>2010-01-01T07:47:11Z</time>
      </trkpt>
      <trkpt lat="38.92172" lon="1.40164">
        <ele>226</ele>
        <time>2010-01-01T07:47:15Z</time>
      </trkpt>
      <trkpt lat="38.92176" lon="1.40175">
        <ele>230</ele>
        <time>2010-01-01T07:47:19Z</time>
      </trkpt>
      <trkpt lat="38.92175" lon="1.40188">
        <ele>232</ele>
        <time>2010-01-01T07:47:23Z</time>
      </trkpt>
      <trkpt lat="38.92174" lon="1.402">
        <ele>234</ele>
        <time>2010-01-01T07:47:27Z</time>
      </trkpt>
      <trkpt lat="38.92176" lon="1.40211">
        <ele>236</ele>
        <time>2010-01-01T07:47:30Z</time>
      </trkpt>
      <trkpt lat="38.92175" lon="1.40223">
        <ele>237</ele>
        <time>2010-01-01T07:47:34Z</time>
      </trkpt>
      <trkpt lat="38.92175" lon="1.40235">
        <ele>238</ele>
        <time>2010-01-01T07:47:38Z</time>
      </trkpt>
      <trkpt lat="38.92176" lon="1.40246">
        <ele>239</ele>
        <time>2010-01-01T07:47:41Z</time>
      </trkpt>
      <trkpt lat="38.92177" lon="1.40259">
        <ele>240</ele>
        <time>2010-01-01T07:47:45Z</time>
      </trkpt>
      <trkpt lat="38.92178" lon="1.40271">
        <ele>241</ele>
        <time>2010-01-01T07:47:49Z</time>
      </trkpt>
      <trkpt lat="38.92184" lon="1.40279">
        <ele>244</ele>
        <time>2010-01-01T07:47:53Z</time>
      </trkpt>
      <trkpt lat="38.92187" lon="1.4029">
        <ele>245</ele>
        <time>2010-01-01T07:47:56Z</time>
      </trkpt>
      <trkpt lat="38.92186" lon="1.40303">
        <ele>246</ele>
        <time>2010-01-01T07:48:00Z</time>
      </trkpt>
      <trkpt lat="38.92185" lon="1.40315">
        <ele>246</ele>
        <time>2010-01-01T07:48:04Z</time>
      </trkpt>
      <trkpt lat="38.92179" lon="1.40325">
        <ele>244</ele>
        <time>2010-01-01T07:48:08Z</time>
      </trkpt>
      <trkpt lat="38.92176" lon="1.40338">
        <ele>243</ele>
        <time>2010-01-01T07:48:12Z</time>
      </trkpt>
      <trkpt lat="38.92173" lon="1.40349">
        <ele>241</ele>
        <time>2010-01-01T07:48:16Z</time>
      </trkpt>
      <trkpt lat="38.92169" lon="1.40361">
        <ele>238</ele>
        <time>2010-01-01T07:48:20Z</time>
      </trkpt>
      <trkpt lat="38.92167" lon="1.40374">
        <ele>236</ele>
        <time>2010-01-01T07:48:24Z</time>
      </trkpt>
      <trkpt lat="38.92159" lon="1.40382">
        <ele>231</ele>
        <time>2010-01-01T07:48:28Z</time>
      </trkpt>
      <trkpt lat="38.92153" lon="1.40391">
        <ele>227</ele>
        <time>2010-01-01T07:48:32Z</time>
      </trkpt>
      <trkpt lat="38.92152" lon="1.40402">
        <ele>225</ele>
        <time>2010-01-01T07:48:35Z</time>
      </trkpt>
      <trkpt lat="38.92147" lon="1.40412">
        <ele>222</ele>
        <time>2010-01-01T07:48:39Z</time>
      </trkpt>
      <trkpt lat="38.92142" lon="1.40422">
        <ele>221</ele>
        <time>2010-01-01T07:48:43Z</time>
      </trkpt>
      <trkpt lat="38.92137" lon="1.40432">
        <ele>219</ele>
        <time>2010-01-01T07:48:46Z</time>
      </trkpt>
      <trkpt lat="38.92133" lon="1.40442">
        <ele>217</ele>
        <time>2010-01-01T07:48:50Z</time>
      </trkpt>
      <trkpt lat="38.9213" lon="1.40454">
        <ele>214</ele>
        <time>2010-01-01T07:48:54Z</time>
      </trkpt>
      <trkpt lat="38.92122" lon="1.40461">
        <ele>210</ele>
        <time>2010-01-01T07:48:58Z</time>
      </trkpt>
      <trkpt lat="38.92119" lon="1.40472">
        <ele>208</ele>
        <time>2010-01-01T07:49:01Z</time>
      </trkpt>
      <trkpt lat="38.92115" lon="1.40482">
        <ele>206</ele>
        <time>2010-01-01T07:49:05Z</time>
      </trkpt>
      <trkpt lat="38.92111" lon="1.40493">
        <ele>203</ele>
        <time>2010-01-01T07:49:09Z</time>
      </trkpt>
      <trkpt lat="38.92103" lon="1.40498">
        <ele>198</ele>
        <time>2010-01-01T07:49:12Z</time>
      </trkpt>
      <trkpt lat="38.92097" lon="1.40506">
        <ele>193</ele>
        <time>2010-01-01T07:49:16Z</time>
      </trkpt>
      <trkpt lat="38.92093" lon="1.40519">
        <ele>191</ele>
        <time>2010-01-01T07:49:20Z</time>
      </trkpt>
      <trkpt lat="38.92087" lon="1.40529">
        <ele>188</ele>
        <time>2010-01-01T07:49:24Z</time>
      </trkpt>
      <trkpt lat="38.92082" lon="1.4054">
        <ele>186</ele>
        <time>2010-01-01T07:49:28Z</time>
      </trkpt>
      <trkpt lat="38.92078" lon="1.40551">
        <ele>183</ele>
        <time>2010-01-01T07:49:32Z</time>
      </trkpt>
      <trkpt lat="38.92075" lon="1.40562">
        <ele>181</ele>
        <time>2010-01-01T07:49:36Z</time>
      </trkpt>
      <trkpt lat="38.92073" lon="1.40574">
        <ele>180</ele>
        <time>2010-01-01T07:49:39Z</time>
      </trkpt>
      <trkpt lat="38.92073" lon="1.40585">
        <ele>180</ele>
        <time>2010-01-01T07:49:43Z</time>
      </trkpt>
      <trkpt lat="38.92067" lon="1.40595">
        <ele>178</ele>
        <time>2010-01-01T07:49:47Z</time>
      </trkpt>
      <trkpt lat="38.9206" lon="1.40604">
        <ele>176</ele>
        <time>2010-01-01T07:49:50Z</time>
      </trkpt>
      <trkpt lat="38.92054" lon="1.40613">
        <ele>175</ele>
        <time>2010-01-01T07:49:54Z</time>
      </trkpt>
      <trkpt lat="38.9205" lon="1.40624">
        <ele>173</ele>
        <time>2010-01-01T07:49:58Z</time>
      </trkpt>
      <trkpt lat="38.92045" lon="1.40635">
        <ele>170</ele>
        <time>2010-01-01T07:50:02Z</time>
      </trkpt>
      <trkpt lat="38.9204" lon="1.40646">
        <ele>168</ele>
        <time>2010-01-01T07:50:06Z</time>
      </trkpt>
      <trkpt lat="38.92039" lon="1.40658">
        <ele>165</ele>
        <time>2010-01-01T07:50:10Z</time>
      </trkpt>
      <trkpt lat="38.92034" lon="1.40669">
        <ele>163</ele>
        <time>2010-01-01T07:50:14Z</time>
      </trkpt>
      <trkpt lat="38.92029" lon="1.4068">
        <ele>162</ele>
        <time>2010-01-01T07:50:18Z</time>
      </trkpt>
      <trkpt lat="38.92022" lon="1.40689">
        <ele>161</ele>
        <time>2010-01-01T07:50:22Z</time>
      </trkpt>
      <trkpt lat="38.92017" lon="1.40698">
        <ele>160</ele>
        <time>2010-01-01T07:50:25Z</time>
      </trkpt>
      <trkpt lat="38.92009" lon="1.40706">
        <ele>159</ele>
        <time>2010-01-01T07:50:29Z</time>
      </trkpt>
      <trkpt lat="38.92002" lon="1.40715">
        <ele>159</ele>
        <time>2010-01-01T07:50:33Z</time>
      </trkpt>
      <trkpt lat="38.91995" lon="1.40722">
        <ele>158</ele>
        <time>2010-01-01T07:50:37Z</time>
      </trkpt>
      <trkpt lat="38.91988" lon="1.40731">
        <ele>155</ele>
        <time>2010-01-01T07:50:41Z</time>
      </trkpt>
      <trkpt lat="38.9198" lon="1.40735">
        <ele>153</ele>
        <time>2010-01-01T07:50:44Z</time>
      </trkpt>
      <trkpt lat="38.91975" lon="1.40744">
        <ele>151</ele>
        <time>2010-01-01T07:50:48Z</time>
      </trkpt>
      <trkpt lat="38.91974" lon="1.40756">
        <ele>149</ele>
        <time>2010-01-01T07:50:51Z</time>
      </trkpt>
      <trkpt lat="38.91972" lon="1.40768">
        <ele>146</ele>
        <time>2010-01-01T07:50:55Z</time>
      </trkpt>
      <trkpt lat="38.9197" lon="1.40779">
        <ele>143</ele>
        <time>2010-01-01T07:50:59Z</time>
      </trkpt>
      <trkpt lat="38.91969" lon="1.40791">
        <ele>139</ele>
        <time>2010-01-01T07:51:03Z</time>
      </trkpt>
      <trkpt lat="38.91965" lon="1.40801">
        <ele>134</ele>
        <time>2010-01-01T07:51:06Z</time>
      </trkpt>
      <trkpt lat="38.91964" lon="1.40814">
        <ele>130</ele>
        <time>2010-01-01T07:51:10Z</time>
      </trkpt>
      <trkpt lat="38.91964" lon="1.40826">
        <ele>126</ele>
        <time>2010-01-01T07:51:14Z</time>
      </trkpt>
      <trkpt lat="38.91964" lon="1.40838">
        <ele>122</ele>
        <time>2010-01-01T07:51:18Z</time>
      </trkpt>
      <trkpt lat="38.91962" lon="1.40849">
        <ele>119</ele>
        <time>2010-01-01T07:51:21Z</time>
      </trkpt>
      <trkpt lat="38.91953" lon="1.4085">
        <ele>116</ele>
        <time>2010-01-01T07:51:25Z</time>
      </trkpt>
      <trkpt lat="38.9195" lon="1.40861">
        <ele>113</ele>
        <time>2010-01-01T07:51:29Z</time>
      </trkpt>
      <trkpt lat="38.91948" lon="1.40873">
        <ele>109</ele>
        <time>2010-01-01T07:51:32Z</time>
      </trkpt>
      <trkpt lat="38.91939" lon="1.40876">
        <ele>106</ele>
        <time>2010-01-01T07:51:36Z</time>
      </trkpt>
      <trkpt lat="38.9193" lon="1.40873">
        <ele>106</ele>
        <time>2010-01-01T07:51:40Z</time>
      </trkpt>
      <trkpt lat="38.91921" lon="1.40871">
        <ele>104</ele>
        <time>2010-01-01T07:51:44Z</time>
      </trkpt>
      <trkpt lat="38.91912" lon="1.40864">
        <ele>105</ele>
        <time>2010-01-01T07:51:47Z</time>
      </trkpt>
      <trkpt lat="38.91903" lon="1.40863">
        <ele>103</ele>
        <time>2010-01-01T07:51:51Z</time>
      </trkpt>
      <trkpt lat="38.919" lon="1.40874">
        <ele>99</ele>
        <time>2010-01-01T07:51:55Z</time>
      </trkpt>
      <trkpt lat="38.91898" lon="1.40886">
        <ele>95</ele>
        <time>2010-01-01T07:51:59Z</time>
      </trkpt>
      <trkpt lat="38.91891" lon="1.40894">
        <ele>91</ele>
        <time>2010-01-01T07:52:02Z</time>
      </trkpt>
      <trkpt lat="38.91892" lon="1.40906">
        <ele>88</ele>
        <time>2010-01-01T07:52:06Z</time>
      </trkpt>
      <trkpt lat="38.91897" lon="1.40916">
        <ele>87</ele>
        <time>2010-01-01T07:52:10Z</time>
      </trkpt>
      <trkpt lat="38.91887" lon="1.40917">
        <ele>84</ele>
        <time>2010-01-01T07:52:14Z</time>
      </trkpt>
      <trkpt lat="38.91878" lon="1.40921">
        <ele>83</ele>
        <time>2010-01-01T07:52:18Z</time>
      </trkpt>
      <trkpt lat="38.9187" lon="1.40928">
        <ele>81</ele>
        <time>2010-01-01T07:52:21Z</time>
      </trkpt>
      <trkpt lat="38.91861" lon="1.40933">
        <ele>80</ele>
        <time>2010-01-01T07:52:25Z</time>
      </trkpt>
      <trkpt lat="38.91852" lon="1.40933">
        <ele>79</ele>
        <time>2010-01-01T07:52:29Z</time>
      </trkpt>
      <trkpt lat="38.91843" lon="1.40936">
        <ele>78</ele>
        <time>2010-01-01T07:52:33Z</time>
      </trkpt>
      <trkpt lat="38.91834" lon="1.40937">
        <ele>78</ele>
        <time>2010-01-01T07:52:36Z</time>
      </trkpt>
      <trkpt lat="38.91826" lon="1.40945">
        <ele>76</ele>
        <time>2010-01-01T07:52:40Z</time>
      </trkpt>
      <trkpt lat="38.9182" lon="1.40955">
        <ele>74</ele>
        <time>2010-01-01T07:52:44Z</time>
      </trkpt>
      <trkpt lat="38.91812" lon="1.40962">
        <ele>73</ele>
        <time>2010-01-01T07:52:48Z</time>
      </trkpt>
      <trkpt lat="38.91803" lon="1.40962">
        <ele>72</ele>
        <time>2010-01-01T07:52:52Z</time>
      </trkpt>
      <trkpt lat="38.91794" lon="1.40966">
        <ele>71</ele>
        <time>2010-01-01T07:52:56Z</time>
      </trkpt>
      <trkpt lat="38.91788" lon="1.40977">
        <ele>70</ele>
        <time>2010-01-01T07:53:00Z</time>
      </trkpt>
      <trkpt lat="38.91786" lon="1.40988">
        <ele>69</ele>
        <time>2010-01-01T07:53:04Z</time>
      </trkpt>
      <trkpt lat="38.91783" lon="1.41001">
        <ele>68</ele>
        <time>2010-01-01T07:53:08Z</time>
      </trkpt>
      <trkpt lat="38.9179" lon="1.41007">
        <ele>68</ele>
        <time>2010-01-01T07:53:11Z</time>
      </trkpt>
      <trkpt lat="38.91798" lon="1.41015">
        <ele>67</ele>
        <time>2010-01-01T07:53:15Z</time>
      </trkpt>
      <trkpt lat="38.91804" lon="1.41023">
        <ele>66</ele>
        <time>2010-01-01T07:53:19Z</time>
      </trkpt>
      <trkpt lat="38.91796" lon="1.41029">
        <ele>65</ele>
        <time>2010-01-01T07:53:22Z</time>
      </trkpt>
      <trkpt lat="38.91786" lon="1.41025">
        <ele>66</ele>
        <time>2010-01-01T07:53:27Z</time>
      </trkpt>
      <trkpt lat="38.91778" lon="1.41019">
        <ele>66</ele>
        <time>2010-01-01T07:53:30Z</time>
      </trkpt>
      <trkpt lat="38.91769" lon="1.41021">
        <ele>66</ele>
        <time>2010-01-01T07:53:34Z</time>
      </trkpt>
      <trkpt lat="38.91765" lon="1.41033">
        <ele>65</ele>
        <time>2010-01-01T07:53:38Z</time>
      </trkpt>
      <trkpt lat="38.9176" lon="1.41045">
        <ele>64</ele>
        <time>2010-01-01T07:53:43Z</time>
      </trkpt>
      <trkpt lat="38.91751" lon="1.41049">
        <ele>64</ele>
        <time>2010-01-01T07:53:47Z</time>
      </trkpt>
      <trkpt lat="38.9174" lon="1.41048">
        <ele>64</ele>
        <time>2010-01-01T07:53:51Z</time>
      </trkpt>
      <trkpt lat="38.91731" lon="1.41044">
        <ele>64</ele>
        <time>2010-01-01T07:53:54Z</time>
      </trkpt>
      <trkpt lat="38.91724" lon="1.41051">
        <ele>64</ele>
        <time>2010-01-01T07:53:58Z</time>
      </trkpt>
      <trkpt lat="38.91714" lon="1.41054">
        <ele>63</ele>
        <time>2010-01-01T07:54:02Z</time>
      </trkpt>
      <trkpt lat="38.91704" lon="1.41056">
        <ele>62</ele>
        <time>2010-01-01T07:54:06Z</time>
      </trkpt>
      <trkpt lat="38.91696" lon="1.41062">
        <ele>61</ele>
        <time>2010-01-01T07:54:10Z</time>
      </trkpt>
      <trkpt lat="38.91687" lon="1.41065">
        <ele>61</ele>
        <time>2010-01-01T07:54:14Z</time>
      </trkpt>
      <trkpt lat="38.91676" lon="1.41064">
        <ele>61</ele>
        <time>2010-01-01T07:54:18Z</time>
      </trkpt>
      <trkpt lat="38.91667" lon="1.41061">
        <ele>61</ele>
        <time>2010-01-01T07:54:22Z</time>
      </trkpt>
      <trkpt lat="38.91657" lon="1.41055">
        <ele>62</ele>
        <time>2010-01-01T07:54:26Z</time>
      </trkpt>
      <trkpt lat="38.91652" lon="1.41045">
        <ele>62</ele>
        <time>2010-01-01T07:54:30Z</time>
      </trkpt>
      <trkpt lat="38.9165" lon="1.41033">
        <ele>63</ele>
        <time>2010-01-01T07:54:34Z</time>
      </trkpt>
      <trkpt lat="38.91643" lon="1.41024">
        <ele>64</ele>
        <time>2010-01-01T07:54:38Z</time>
      </trkpt>
      <trkpt lat="38.91638" lon="1.41035">
        <ele>63</ele>
        <time>2010-01-01T07:54:41Z</time>
      </trkpt>
      <trkpt lat="38.91628" lon="1.41037">
        <ele>62</ele>
        <time>2010-01-01T07:54:45Z</time>
      </trkpt>
      <trkpt lat="38.91617" lon="1.41032">
        <ele>62</ele>
        <time>2010-01-01T07:54:50Z</time>
      </trkpt>
      <trkpt lat="38.91609" lon="1.41028">
        <ele>61</ele>
        <time>2010-01-01T07:54:54Z</time>
      </trkpt>
      <trkpt lat="38.916" lon="1.41025">
        <ele>61</ele>
        <time>2010-01-01T07:54:57Z</time>
      </trkpt>
      <trkpt lat="38.91593" lon="1.41018">
        <ele>61</ele>
        <time>2010-01-01T07:55:01Z</time>
      </trkpt>
      <trkpt lat="38.91583" lon="1.41017">
        <ele>60</ele>
        <time>2010-01-01T07:55:05Z</time>
      </trkpt>
      <trkpt lat="38.91574" lon="1.4102">
        <ele>59</ele>
        <time>2010-01-01T07:55:08Z</time>
      </trkpt>
      <trkpt lat="38.91566" lon="1.41027">
        <ele>58</ele>
        <time>2010-01-01T07:55:12Z</time>
      </trkpt>
      <trkpt lat="38.91559" lon="1.41038">
        <ele>57</ele>
        <time>2010-01-01T07:55:17Z</time>
      </trkpt>
      <trkpt lat="38.91552" lon="1.41046">
        <ele>57</ele>
        <time>2010-01-01T07:55:20Z</time>
      </trkpt>
      <trkpt lat="38.91546" lon="1.41036">
        <ele>58</ele>
        <time>2010-01-01T07:55:25Z</time>
      </trkpt>
      <trkpt lat="38.91539" lon="1.41025">
        <ele>59</ele>
        <time>2010-01-01T07:55:29Z</time>
      </trkpt>
      <trkpt lat="38.91531" lon="1.41018">
        <ele>60</ele>
        <time>2010-01-01T07:55:33Z</time>
      </trkpt>
      <trkpt lat="38.91523" lon="1.41027">
        <ele>60</ele>
        <time>2010-01-01T07:55:37Z</time>
      </trkpt>
      <trkpt lat="38.91517" lon="1.41037">
        <ele>59</ele>
        <time>2010-01-01T07:55:41Z</time>
      </trkpt>
      <trkpt lat="38.91511" lon="1.41047">
        <ele>58</ele>
        <time>2010-01-01T07:55:45Z</time>
      </trkpt>
      <trkpt lat="38.91504" lon="1.41055">
        <ele>57</ele>
        <time>2010-01-01T07:55:48Z</time>
      </trkpt>
      <trkpt lat="38.91494" lon="1.41063">
        <ele>57</ele>
        <time>2010-01-01T07:55:53Z</time>
      </trkpt>
      <trkpt lat="38.91485" lon="1.41069">
        <ele>55</ele>
        <time>2010-01-01T07:55:57Z</time>
      </trkpt>
      <trkpt lat="38.91476" lon="1.41074">
        <ele>54</ele>
        <time>2010-01-01T07:56:01Z</time>
      </trkpt>
      <trkpt lat="38.91467" lon="1.41079">
        <ele>52</ele>
        <time>2010-01-01T07:56:05Z</time>
      </trkpt>
      <trkpt lat="38.91458" lon="1.41083">
        <ele>51</ele>
        <time>2010-01-01T07:56:09Z</time>
      </trkpt>
      <trkpt lat="38.91449" lon="1.41079">
        <ele>50</ele>
        <time>2010-01-01T07:56:13Z</time>
      </trkpt>
      <trkpt lat="38.9144" lon="1.41073">
        <ele>50</ele>
        <time>2010-01-01T07:56:17Z</time>
      </trkpt>
      <trkpt lat="38.91431" lon="1.4107">
        <ele>50</ele>
        <time>2010-01-01T07:56:20Z</time>
      </trkpt>
      <trkpt lat="38.91422" lon="1.41066">
        <ele>50</ele>
        <time>2010-01-01T07:56:24Z</time>
      </trkpt>
      <trkpt lat="38.91418" lon="1.41054">
        <ele>51</ele>
        <time>2010-01-01T07:56:28Z</time>
      </trkpt>
      <trkpt lat="38.91417" lon="1.41041">
        <ele>52</ele>
        <time>2010-01-01T07:56:32Z</time>
      </trkpt>
      <trkpt lat="38.9141" lon="1.41032">
        <ele>52</ele>
        <time>2010-01-01T07:56:36Z</time>
      </trkpt>
      <trkpt lat="38.91403" lon="1.41021">
        <ele>52</ele>
        <time>2010-01-01T07:56:41Z</time>
      </trkpt>
      <trkpt lat="38.91395" lon="1.41011">
        <ele>53</ele>
        <time>2010-01-01T07:56:45Z</time>
      </trkpt>
      <trkpt lat="38.91388" lon="1.41003">
        <ele>53</ele>
        <time>2010-01-01T07:56:49Z</time>
      </trkpt>
      <trkpt lat="38.9138" lon="1.40997">
        <ele>54</ele>
        <time>2010-01-01T07:56:52Z</time>
      </trkpt>
      <trkpt lat="38.91372" lon="1.4099">
        <ele>54</ele>
        <time>2010-01-01T07:56:56Z</time>
      </trkpt>
      <trkpt lat="38.91366" lon="1.40982">
        <ele>55</ele>
        <time>2010-01-01T07:57:00Z</time>
      </trkpt>
      <trkpt lat="38.91362" lon="1.40971">
        <ele>56</ele>
        <time>2010-01-01T07:57:04Z</time>
      </trkpt>
      <trkpt lat="38.91358" lon="1.4096">
        <ele>56</ele>
        <time>2010-01-01T07:57:08Z</time>
      </trkpt>
      <trkpt lat="38.91355" lon="1.40949">
        <ele>56</ele>
        <time>2010-01-01T07:57:11Z</time>
      </trkpt>
      <trkpt lat="38.91351" lon="1.40938">
        <ele>57</ele>
        <time>2010-01-01T07:57:15Z</time>
      </trkpt>
      <trkpt lat="38.91348" lon="1.40927">
        <ele>57</ele>
        <time>2010-01-01T07:57:19Z</time>
      </trkpt>
      <trkpt lat="38.91345" lon="1.40915">
        <ele>58</ele>
        <time>2010-01-01T07:57:22Z</time>
      </trkpt>
      <trkpt lat="38.91344" lon="1.40901">
        <ele>58</ele>
        <time>2010-01-01T07:57:27Z</time>
      </trkpt>
      <trkpt lat="38.91344" lon="1.40888">
        <ele>59</ele>
        <time>2010-01-01T07:57:31Z</time>
      </trkpt>
      <trkpt lat="38.91343" lon="1.40875">
        <ele>60</ele>
        <time>2010-01-01T07:57:35Z</time>
      </trkpt>
      <trkpt lat="38.91342" lon="1.40864">
        <ele>61</ele>
        <time>2010-01-01T07:57:39Z</time>
      </trkpt>
      <trkpt lat="38.91342" lon="1.40852">
        <ele>61</ele>
        <time>2010-01-01T07:57:42Z</time>
      </trkpt>
      <trkpt lat="38.91343" lon="1.40838">
        <ele>62</ele>
        <time>2010-01-01T07:57:46Z</time>
      </trkpt>
      <trkpt lat="38.91342" lon="1.40827">
        <ele>63</ele>
        <time>2010-01-01T07:57:50Z</time>
      </trkpt>
      <trkpt lat="38.91342" lon="1.40814">
        <ele>63</ele>
        <time>2010-01-01T07:57:54Z</time>
      </trkpt>
      <trkpt lat="38.91342" lon="1.40802">
        <ele>64</ele>
        <time>2010-01-01T07:57:58Z</time>
      </trkpt>
      <trkpt lat="38.91341" lon="1.40789">
        <ele>65</ele>
        <time>2010-01-01T07:58:02Z</time>
      </trkpt>
      <trkpt lat="38.9134" lon="1.40776">
        <ele>66</ele>
        <time>2010-01-01T07:58:06Z</time>
      </trkpt>
      <trkpt lat="38.91338" lon="1.40764">
        <ele>66</ele>
        <time>2010-01-01T07:58:10Z</time>
      </trkpt>
      <trkpt lat="38.91339" lon="1.40752">
        <ele>67</ele>
        <time>2010-01-01T07:58:14Z</time>
      </trkpt>
      <trkpt lat="38.91334" lon="1.4074">
        <ele>67</ele>
        <time>2010-01-01T07:58:18Z</time>
      </trkpt>
      <trkpt lat="38.91325" lon="1.40747">
        <ele>66</ele>
        <time>2010-01-01T07:58:22Z</time>
      </trkpt>
      <trkpt lat="38.91318" lon="1.40753">
        <ele>65</ele>
        <time>2010-01-01T07:58:25Z</time>
      </trkpt>
      <trkpt lat="38.91309" lon="1.40761">
        <ele>64</ele>
        <time>2010-01-01T07:58:29Z</time>
      </trkpt>
      <trkpt lat="38.91301" lon="1.40769">
        <ele>63</ele>
        <time>2010-01-01T07:58:34Z</time>
      </trkpt>
      <trkpt lat="38.91291" lon="1.40774">
        <ele>62</ele>
        <time>2010-01-01T07:58:38Z</time>
      </trkpt>
      <trkpt lat="38.91283" lon="1.4077">
        <ele>62</ele>
        <time>2010-01-01T07:58:41Z</time>
      </trkpt>
      <trkpt lat="38.91276" lon="1.4076">
        <ele>62</ele>
        <time>2010-01-01T07:58:46Z</time>
      </trkpt>
      <trkpt lat="38.91268" lon="1.40753">
        <ele>62</ele>
        <time>2010-01-01T07:58:49Z</time>
      </trkpt>
      <trkpt lat="38.91262" lon="1.40744">
        <ele>62</ele>
        <time>2010-01-01T07:58:53Z</time>
      </trkpt>
      <trkpt lat="38.91256" lon="1.40735">
        <ele>62</ele>
        <time>2010-01-01T07:58:57Z</time>
      </trkpt>
      <trkpt lat="38.9125" lon="1.40726">
        <ele>62</ele>
        <time>2010-01-01T07:59:01Z</time>
      </trkpt>
      <trkpt lat="38.91241" lon="1.40718">
        <ele>62</ele>
        <time>2010-01-01T07:59:05Z</time>
      </trkpt>
      <trkpt lat="38.91234" lon="1.40709">
        <ele>63</ele>
        <time>2010-01-01T07:59:09Z</time>
      </trkpt>
      <trkpt lat="38.91227" lon="1.407">
        <ele>63</ele>
        <time>2010-01-01T07:59:13Z</time>
      </trkpt>
      <trkpt lat="38.9122" lon="1.40692">
        <ele>63</ele>
        <time>2010-01-01T07:59:17Z</time>
      </trkpt>
      <trkpt lat="38.91211" lon="1.40685">
        <ele>63</ele>
        <time>2010-01-01T07:59:21Z</time>
      </trkpt>
      <trkpt lat="38.91204" lon="1.40678">
        <ele>62</ele>
        <time>2010-01-01T07:59:24Z</time>
      </trkpt>
      <trkpt lat="38.91196" lon="1.40667">
        <ele>62</ele>
        <time>2010-01-01T07:59:29Z</time>
      </trkpt>
      <trkpt lat="38.91189" lon="1.40657">
        <ele>61</ele>
        <time>2010-01-01T07:59:33Z</time>
      </trkpt>
      <trkpt lat="38.91183" lon="1.40647">
        <ele>60</ele>
        <time>2010-01-01T07:59:37Z</time>
      </trkpt>
      <trkpt lat="38.91176" lon="1.40637">
        <ele>59</ele>
        <time>2010-01-01T07:59:41Z</time>
      </trkpt>
      <trkpt lat="38.9117" lon="1.40628">
        <ele>59</ele>
        <time>2010-01-01T07:59:45Z</time>
      </trkpt>
      <trkpt lat="38.91162" lon="1.40617">
        <ele>59</ele>
        <time>2010-01-01T07:59:50Z</time>
      </trkpt>
      <trkpt lat="38.91156" lon="1.40606">
        <ele>58</ele>
        <time>2010-01-01T07:59:54Z</time>
      </trkpt>
      <trkpt lat="38.91152" lon="1.40593">
        <ele>59</ele>
        <time>2010-01-01T07:59:58Z</time>
      </trkpt>
      <trkpt lat="38.91148" lon="1.40582">
        <ele>59</ele>
        <time>2010-01-01T08:00:02Z</time>
      </trkpt>
      <trkpt lat="38.91145" lon="1.40571">
        <ele>59</ele>
        <time>2010-01-01T08:00:06Z</time>
      </trkpt>
      <trkpt lat="38.9114" lon="1.4056">
        <ele>59</ele>
        <time>2010-01-01T08:00:10Z</time>
      </trkpt>
      <trkpt lat="38.91136" lon="1.40549">
        <ele>59</ele>
        <time>2010-01-01T08:00:13Z</time>
      </trkpt>
      <trkpt lat="38.91131" lon="1.40536">
        <ele>59</ele>
        <time>2010-01-01T08:00:18Z</time>
      </trkpt>
      <trkpt lat="38.91128" lon="1.40524">
        <ele>59</ele>
        <time>2010-01-01T08:00:22Z</time>
      </trkpt>
      <trkpt lat="38.91127" lon="1.40511">
        <ele>59</ele>
        <time>2010-01-01T08:00:26Z</time>
      </trkpt>
      <trkpt lat="38.91125" lon="1.40499">
        <ele>60</ele>
        <time>2010-01-01T08:00:30Z</time>
      </trkpt>
      <trkpt lat="38.91124" lon="1.40487">
        <ele>60</ele>
        <time>2010-01-01T08:00:33Z</time>
      </trkpt>
      <trkpt lat="38.91123" lon="1.40475">
        <ele>61</ele>
        <time>2010-01-01T08:00:37Z</time>
      </trkpt>
      <trkpt lat="38.91122" lon="1.40461">
        <ele>62</ele>
        <time>2010-01-01T08:00:42Z</time>
      </trkpt>
      <trkpt lat="38.91122" lon="1.40448">
        <ele>62</ele>
        <time>2010-01-01T08:00:46Z</time>
      </trkpt>
      <trkpt lat="38.9112" lon="1.40436">
        <ele>62</ele>
        <time>2010-01-01T08:00:49Z</time>
      </trkpt>
      <trkpt lat="38.91118" lon="1.40425">
        <ele>62</ele>
        <time>2010-01-01T08:00:53Z</time>
      </trkpt>
      <trkpt lat="38.91118" lon="1.40412">
        <ele>62</ele>
        <time>2010-01-01T08:00:57Z</time>
      </trkpt>
      <trkpt lat="38.91115" lon="1.404">
        <ele>62</ele>
        <time>2010-01-01T08:01:01Z</time>
      </trkpt>
      <trkpt lat="38.91112" lon="1.40389">
        <ele>62</ele>
        <time>2010-01-01T08:01:05Z</time>
      </trkpt>
      <trkpt lat="38.91109" lon="1.40376">
        <ele>62</ele>
        <time>2010-01-01T08:01:09Z</time>
      </trkpt>
      <trkpt lat="38.91109" lon="1.40362">
        <ele>62</ele>
        <time>2010-01-01T08:01:13Z</time>
      </trkpt>
      <trkpt lat="38.91108" lon="1.40349">
        <ele>64</ele>
        <time>2010-01-01T08:01:17Z</time>
      </trkpt>
      <trkpt lat="38.91108" lon="1.40337">
        <ele>65</ele>
        <time>2010-01-01T08:01:21Z</time>
      </trkpt>
      <trkpt lat="38.91109" lon="1.40323">
        <ele>65</ele>
        <time>2010-01-01T08:01:26Z</time>
      </trkpt>
      <trkpt lat="38.91112" lon="1.40311">
        <ele>66</ele>
        <time>2010-01-01T08:01:29Z</time>
      </trkpt>
      <trkpt lat="38.91114" lon="1.403">
        <ele>66</ele>
        <time>2010-01-01T08:01:33Z</time>
      </trkpt>
      <trkpt lat="38.91119" lon="1.40289">
        <ele>66</ele>
        <time>2010-01-01T08:01:37Z</time>
      </trkpt>
      <trkpt lat="38.91122" lon="1.40277">
        <ele>65</ele>
        <time>2010-01-01T08:01:41Z</time>
      </trkpt>
      <trkpt lat="38.91124" lon="1.40263">
        <ele>65</ele>
        <time>2010-01-01T08:01:45Z</time>
      </trkpt>
      <trkpt lat="38.91134" lon="1.40255">
        <ele>65</ele>
        <time>2010-01-01T08:01:50Z</time>
      </trkpt>
      <trkpt lat="38.91138" lon="1.40244">
        <ele>66</ele>
        <time>2010-01-01T08:01:54Z</time>
      </trkpt>
      <trkpt lat="38.9114" lon="1.40232">
        <ele>66</ele>
        <time>2010-01-01T08:01:58Z</time>
      </trkpt>
      <trkpt lat="38.91144" lon="1.40221">
        <ele>67</ele>
        <time>2010-01-01T08:02:01Z</time>
      </trkpt>
      <trkpt lat="38.91148" lon="1.40209">
        <ele>69</ele>
        <time>2010-01-01T08:02:06Z</time>
      </trkpt>
      <trkpt lat="38.91153" lon="1.40198">
        <ele>70</ele>
        <time>2010-01-01T08:02:10Z</time>
      </trkpt>
      <trkpt lat="38.91158" lon="1.40187">
        <ele>71</ele>
        <time>2010-01-01T08:02:13Z</time>
      </trkpt>
      <trkpt lat="38.91161" lon="1.40176">
        <ele>72</ele>
        <time>2010-01-01T08:02:17Z</time>
      </trkpt>
      <trkpt lat="38.91163" lon="1.40163">
        <ele>73</ele>
        <time>2010-01-01T08:02:21Z</time>
      </trkpt>
      <trkpt lat="38.91169" lon="1.40152">
        <ele>74</ele>
        <time>2010-01-01T08:02:25Z</time>
      </trkpt>
      <trkpt lat="38.91171" lon="1.40141">
        <ele>75</ele>
        <time>2010-01-01T08:02:29Z</time>
      </trkpt>
      <trkpt lat="38.91175" lon="1.40129">
        <ele>75</ele>
        <time>2010-01-01T08:02:33Z</time>
      </trkpt>
      <trkpt lat="38.91179" lon="1.40116">
        <ele>76</ele>
        <time>2010-01-01T08:02:37Z</time>
      </trkpt>
      <trkpt lat="38.91184" lon="1.40107">
        <ele>77</ele>
        <time>2010-01-01T08:02:41Z</time>
      </trkpt>
      <trkpt lat="38.91189" lon="1.40096">
        <ele>77</ele>
        <time>2010-01-01T08:02:45Z</time>
      </trkpt>
      <trkpt lat="38.91191" lon="1.40084">
        <ele>77</ele>
        <time>2010-01-01T08:02:48Z</time>
      </trkpt>
      <trkpt lat="38.91194" lon="1.40072">
        <ele>79</ele>
        <time>2010-01-01T08:02:53Z</time>
      </trkpt>
      <trkpt lat="38.91197" lon="1.4006">
        <ele>80</ele>
        <time>2010-01-01T08:02:56Z</time>
      </trkpt>
      <trkpt lat="38.91202" lon="1.40048">
        <ele>82</ele>
        <time>2010-01-01T08:03:01Z</time>
      </trkpt>
      <trkpt lat="38.91206" lon="1.40037">
        <ele>84</ele>
        <time>2010-01-01T08:03:04Z</time>
      </trkpt>
      <trkpt lat="38.91212" lon="1.40028">
        <ele>85</ele>
        <time>2010-01-01T08:03:08Z</time>
      </trkpt>
      <trkpt lat="38.91213" lon="1.40015">
        <ele>87</ele>
        <time>2010-01-01T08:03:12Z</time>
      </trkpt>
      <trkpt lat="38.91218" lon="1.40005">
        <ele>89</ele>
        <time>2010-01-01T08:03:16Z</time>
      </trkpt>
      <trkpt lat="38.91218" lon="1.39992">
        <ele>90</ele>
        <time>2010-01-01T08:03:20Z</time>
      </trkpt>
      <trkpt lat="38.9122" lon="1.39981">
        <ele>91</ele>
        <time>2010-01-01T08:03:23Z</time>
      </trkpt>
      <trkpt lat="38.91224" lon="1.3997">
        <ele>92</ele>
        <time>2010-01-01T08:03:27Z</time>
      </trkpt>
      <trkpt lat="38.91223" lon="1.39958">
        <ele>94</ele>
        <time>2010-01-01T08:03:31Z</time>
      </trkpt>
      <trkpt lat="38.91227" lon="1.39946">
        <ele>95</ele>
        <time>2010-01-01T08:03:35Z</time>
      </trkpt>
      <trkpt lat="38.91235" lon="1.39939">
        <ele>93</ele>
        <time>2010-01-01T08:03:39Z</time>
      </trkpt>
      <trkpt lat="38.91238" lon="1.39928">
        <ele>93</ele>
        <time>2010-01-01T08:03:42Z</time>
      </trkpt>
      <trkpt lat="38.91247" lon="1.3992">
        <ele>89</ele>
        <time>2010-01-01T08:03:46Z</time>
      </trkpt>
      <trkpt lat="38.91248" lon="1.39908">
        <ele>89</ele>
        <time>2010-01-01T08:03:50Z</time>
      </trkpt>
      <trkpt lat="38.91253" lon="1.39896">
        <ele>89</ele>
        <time>2010-01-01T08:03:54Z</time>
      </trkpt>
      <trkpt lat="38.91258" lon="1.39886">
        <ele>89</ele>
        <time>2010-01-01T08:03:58Z</time>
      </trkpt>
      <trkpt lat="38.91262" lon="1.39875">
        <ele>90</ele>
        <time>2010-01-01T08:04:02Z</time>
      </trkpt>
      <trkpt lat="38.91266" lon="1.39862">
        <ele>90</ele>
        <time>2010-01-01T08:04:06Z</time>
      </trkpt>
      <trkpt lat="38.91273" lon="1.39852">
        <ele>91</ele>
        <time>2010-01-01T08:04:11Z</time>
      </trkpt>
      <trkpt lat="38.91281" lon="1.39845">
        <ele>92</ele>
        <time>2010-01-01T08:04:15Z</time>
      </trkpt>
      <trkpt lat="38.91286" lon="1.39833">
        <ele>93</ele>
        <time>2010-01-01T08:04:19Z</time>
      </trkpt>
      <trkpt lat="38.91294" lon="1.39827">
        <ele>93</ele>
        <time>2010-01-01T08:04:22Z</time>
      </trkpt>
      <trkpt lat="38.91301" lon="1.39819">
        <ele>93</ele>
        <time>2010-01-01T08:04:26Z</time>
      </trkpt>
      <trkpt lat="38.91304" lon="1.39806">
        <ele>93</ele>
        <time>2010-01-01T08:04:30Z</time>
      </trkpt>
      <trkpt lat="38.91308" lon="1.39794">
        <ele>94</ele>
        <time>2010-01-01T08:04:34Z</time>
      </trkpt>
      <trkpt lat="38.91318" lon="1.39788">
        <ele>94</ele>
        <time>2010-01-01T08:04:39Z</time>
      </trkpt>
      <trkpt lat="38.91324" lon="1.39777">
        <ele>94</ele>
        <time>2010-01-01T08:04:43Z</time>
      </trkpt>
      <trkpt lat="38.91327" lon="1.39763">
        <ele>95</ele>
        <time>2010-01-01T08:04:47Z</time>
      </trkpt>
      <trkpt lat="38.9133" lon="1.39751">
        <ele>96</ele>
        <time>2010-01-01T08:04:51Z</time>
      </trkpt>
      <trkpt lat="38.91336" lon="1.39742">
        <ele>95</ele>
        <time>2010-01-01T08:04:55Z</time>
      </trkpt>
      <trkpt lat="38.91339" lon="1.39731">
        <ele>96</ele>
        <time>2010-01-01T08:04:59Z</time>
      </trkpt>
      <trkpt lat="38.91342" lon="1.3972">
        <ele>96</ele>
        <time>2010-01-01T08:05:02Z</time>
      </trkpt>
      <trkpt lat="38.91347" lon="1.39709">
        <ele>95</ele>
        <time>2010-01-01T08:05:06Z</time>
      </trkpt>
      <trkpt lat="38.9135" lon="1.39698">
        <ele>95</ele>
        <time>2010-01-01T08:05:10Z</time>
      </trkpt>
      <trkpt lat="38.91357" lon="1.39689">
        <ele>94</ele>
        <time>2010-01-01T08:05:14Z</time>
      </trkpt>
      <trkpt lat="38.9136" lon="1.39679">
        <ele>95</ele>
        <time>2010-01-01T08:05:17Z</time>
      </trkpt>
      <trkpt lat="38.91369" lon="1.39672">
        <ele>96</ele>
        <time>2010-01-01T08:05:21Z</time>
      </trkpt>
      <trkpt lat="38.91375" lon="1.39662">
        <ele>98</ele>
        <time>2010-01-01T08:05:25Z</time>
      </trkpt>
      <trkpt lat="38.91383" lon="1.39653">
        <ele>100</ele>
        <time>2010-01-01T08:05:29Z</time>
      </trkpt>
      <trkpt lat="38.91391" lon="1.39648">
        <ele>101</ele>
        <time>2010-01-01T08:05:33Z</time>
      </trkpt>
      <trkpt lat="38.91399" lon="1.3964">
        <ele>102</ele>
        <time>2010-01-01T08:05:37Z</time>
      </trkpt>
      <trkpt lat="38.91405" lon="1.39628">
        <ele>104</ele>
        <time>2010-01-01T08:05:42Z</time>
      </trkpt>
      <trkpt lat="38.91413" lon="1.39618">
        <ele>105</ele>
        <time>2010-01-01T08:05:46Z</time>
      </trkpt>
      <trkpt lat="38.9142" lon="1.39611">
        <ele>105</ele>
        <time>2010-01-01T08:05:50Z</time>
      </trkpt>
      <trkpt lat="38.91429" lon="1.39601">
        <ele>107</ele>
        <time>2010-01-01T08:05:54Z</time>
      </trkpt>
      <trkpt lat="38.91438" lon="1.39601">
        <ele>107</ele>
        <time>2010-01-01T08:05:58Z</time>
      </trkpt>
      <trkpt lat="38.91448" lon="1.39603">
        <ele>106</ele>
        <time>2010-01-01T08:06:02Z</time>
      </trkpt>
      <trkpt lat="38.91457" lon="1.39603">
        <ele>106</ele>
        <time>2010-01-01T08:06:06Z</time>
      </trkpt>
      <trkpt lat="38.91465" lon="1.39596">
        <ele>108</ele>
        <time>2010-01-01T08:06:09Z</time>
      </trkpt>
      <trkpt lat="38.91474" lon="1.39591">
        <ele>109</ele>
        <time>2010-01-01T08:06:13Z</time>
      </trkpt>
      <trkpt lat="38.91484" lon="1.39585">
        <ele>110</ele>
        <time>2010-01-01T08:06:18Z</time>
      </trkpt>
      <trkpt lat="38.91492" lon="1.39577">
        <ele>112</ele>
        <time>2010-01-01T08:06:22Z</time>
      </trkpt>
      <trkpt lat="38.91499" lon="1.39569">
        <ele>114</ele>
        <time>2010-01-01T08:06:25Z</time>
      </trkpt>
      <trkpt lat="38.91507" lon="1.39563">
        <ele>115</ele>
        <time>2010-01-01T08:06:29Z</time>
      </trkpt>
      <trkpt lat="38.91513" lon="1.39553">
        <ele>116</ele>
        <time>2010-01-01T08:06:33Z</time>
      </trkpt>
      <trkpt lat="38.91518" lon="1.39543">
        <ele>117</ele>
        <time>2010-01-01T08:06:37Z</time>
      </trkpt>
      <trkpt lat="38.91522" lon="1.39532">
        <ele>118</ele>
        <time>2010-01-01T08:06:41Z</time>
      </trkpt>
      <trkpt lat="38.91524" lon="1.39519">
        <ele>120</ele>
        <time>2010-01-01T08:06:45Z</time>
      </trkpt>
      <trkpt lat="38.91528" lon="1.39508">
        <ele>121</ele>
        <time>2010-01-01T08:06:49Z</time>
      </trkpt>
      <trkpt lat="38.91535" lon="1.395">
        <ele>121</ele>
        <time>2010-01-01T08:06:52Z</time>
      </trkpt>
      <trkpt lat="38.91542" lon="1.39492">
        <ele>121</ele>
        <time>2010-01-01T08:06:56Z</time>
      </trkpt>
      <trkpt lat="38.91545" lon="1.3948">
        <ele>122</ele>
        <time>2010-01-01T08:07:00Z</time>
      </trkpt>
      <trkpt lat="38.91548" lon="1.39468">
        <ele>123</ele>
        <time>2010-01-01T08:07:04Z</time>
      </trkpt>
      <trkpt lat="38.91551" lon="1.39456">
        <ele>123</ele>
        <time>2010-01-01T08:07:08Z</time>
      </trkpt>
      <trkpt lat="38.91554" lon="1.39445">
        <ele>123</ele>
        <time>2010-01-01T08:07:12Z</time>
      </trkpt>
      <trkpt lat="38.91557" lon="1.39433">
        <ele>123</ele>
        <time>2010-01-01T08:07:15Z</time>
      </trkpt>
      <trkpt lat="38.91558" lon="1.39421">
        <ele>123</ele>
        <time>2010-01-01T08:07:19Z</time>
      </trkpt>
      <trkpt lat="38.91563" lon="1.39409">
        <ele>123</ele>
        <time>2010-01-01T08:07:23Z</time>
      </trkpt>
      <trkpt lat="38.91567" lon="1.39398">
        <ele>124</ele>
        <time>2010-01-01T08:07:27Z</time>
      </trkpt>
      <trkpt lat="38.91571" lon="1.39387">
        <ele>124</ele>
        <time>2010-01-01T08:07:31Z</time>
      </trkpt>
      <trkpt lat="38.91576" lon="1.39376">
        <ele>123</ele>
        <time>2010-01-01T08:07:35Z</time>
      </trkpt>
      <trkpt lat="38.91581" lon="1.39366">
        <ele>122</ele>
        <time>2010-01-01T08:07:38Z</time>
      </trkpt>
      <trkpt lat="38.91587" lon="1.39356">
        <ele>121</ele>
        <time>2010-01-01T08:07:43Z</time>
      </trkpt>
      <trkpt lat="38.91594" lon="1.39347">
        <ele>121</ele>
        <time>2010-01-01T08:07:47Z</time>
      </trkpt>
      <trkpt lat="38.91599" lon="1.39335">
        <ele>121</ele>
        <time>2010-01-01T08:07:51Z</time>
      </trkpt>
      <trkpt lat="38.91603" lon="1.39323">
        <ele>121</ele>
        <time>2010-01-01T08:07:55Z</time>
      </trkpt>
      <trkpt lat="38.91609" lon="1.39313">
        <ele>121</ele>
        <time>2010-01-01T08:07:59Z</time>
      </trkpt>
      <trkpt lat="38.91611" lon="1.39301">
        <ele>122</ele>
        <time>2010-01-01T08:08:03Z</time>
      </trkpt>
      <trkpt lat="38.91615" lon="1.3929">
        <ele>122</ele>
        <time>2010-01-01T08:08:06Z</time>
      </trkpt>
      <trkpt lat="38.91617" lon="1.39278">
        <ele>123</ele>
        <time>2010-01-01T08:08:10Z</time>
      </trkpt>
      <trkpt lat="38.91622" lon="1.39266">
        <ele>123</ele>
        <time>2010-01-01T08:08:14Z</time>
      </trkpt>
      <trkpt lat="38.91625" lon="1.39255">
        <ele>124</ele>
        <time>2010-01-01T08:08:18Z</time>
      </trkpt>
      <trkpt lat="38.91632" lon="1.39245">
        <ele>124</ele>
        <time>2010-01-01T08:08:22Z</time>
      </trkpt>
      <trkpt lat="38.91639" lon="1.39239">
        <ele>125</ele>
        <time>2010-01-01T08:08:26Z</time>
      </trkpt>
      <trkpt lat="38.91647" lon="1.3923">
        <ele>127</ele>
        <time>2010-01-01T08:08:30Z</time>
      </trkpt>
      <trkpt lat="38.91656" lon="1.39223">
        <ele>128</ele>
        <time>2010-01-01T08:08:34Z</time>
      </trkpt>
      <trkpt lat="38.91664" lon="1.39217">
        <ele>130</ele>
        <time>2010-01-01T08:08:38Z</time>
      </trkpt>
      <trkpt lat="38.91672" lon="1.39209">
        <ele>131</ele>
        <time>2010-01-01T08:08:42Z</time>
      </trkpt>
      <trkpt lat="38.91677" lon="1.39198">
        <ele>133</ele>
        <time>2010-01-01T08:08:46Z</time>
      </trkpt>
      <trkpt lat="38.91683" lon="1.3919">
        <ele>134</ele>
        <time>2010-01-01T08:08:50Z</time>
      </trkpt>
      <trkpt lat="38.91689" lon="1.39178">
        <ele>135</ele>
        <time>2010-01-01T08:08:54Z</time>
      </trkpt>
      <trkpt lat="38.9169" lon="1.39166">
        <ele>136</ele>
        <time>2010-01-01T08:08:58Z</time>
      </trkpt>
      <trkpt lat="38.91694" lon="1.39155">
        <ele>137</ele>
        <time>2010-01-01T08:09:01Z</time>
      </trkpt>
      <trkpt lat="38.91692" lon="1.39144">
        <ele>139</ele>
        <time>2010-01-01T08:09:05Z</time>
      </trkpt>
      <trkpt lat="38.91696" lon="1.39132">
        <ele>141</ele>
        <time>2010-01-01T08:09:09Z</time>
      </trkpt>
      <trkpt lat="38.917" lon="1.3912">
        <ele>143</ele>
        <time>2010-01-01T08:09:13Z</time>
      </trkpt>
      <trkpt lat="38.91704" lon="1.39109">
        <ele>145</ele>
        <time>2010-01-01T08:09:17Z</time>
      </trkpt>
      <trkpt lat="38.91708" lon="1.39097">
        <ele>146</ele>
        <time>2010-01-01T08:09:21Z</time>
      </trkpt>
      <trkpt lat="38.91712" lon="1.39085">
        <ele>148</ele>
        <time>2010-01-01T08:09:25Z</time>
      </trkpt>
      <trkpt lat="38.91716" lon="1.39073">
        <ele>148</ele>
        <time>2010-01-01T08:09:29Z</time>
      </trkpt>
      <trkpt lat="38.91719" lon="1.39061">
        <ele>149</ele>
        <time>2010-01-01T08:09:33Z</time>
      </trkpt>
      <trkpt lat="38.91726" lon="1.39051">
        <ele>148</ele>
        <time>2010-01-01T08:09:37Z</time>
      </trkpt>
      <trkpt lat="38.91734" lon="1.39042">
        <ele>147</ele>
        <time>2010-01-01T08:09:41Z</time>
      </trkpt>
      <trkpt lat="38.91741" lon="1.39034">
        <ele>146</ele>
        <time>2010-01-01T08:09:45Z</time>
      </trkpt>
      <trkpt lat="38.91747" lon="1.39023">
        <ele>144</ele>
        <time>2010-01-01T08:09:49Z</time>
      </trkpt>
      <trkpt lat="38.91755" lon="1.39013">
        <ele>143</ele>
        <time>2010-01-01T08:09:54Z</time>
      </trkpt>
      <trkpt lat="38.91762" lon="1.39003">
        <ele>142</ele>
        <time>2010-01-01T08:09:58Z</time>
      </trkpt>
      <trkpt lat="38.91769" lon="1.38995">
        <ele>141</ele>
        <time>2010-01-01T08:10:02Z</time>
      </trkpt>
      <trkpt lat="38.91775" lon="1.38985">
        <ele>138</ele>
        <time>2010-01-01T08:10:05Z</time>
      </trkpt>
      <trkpt lat="38.9178" lon="1.38973">
        <ele>136</ele>
        <time>2010-01-01T08:10:10Z</time>
      </trkpt>
      <trkpt lat="38.91786" lon="1.38962">
        <ele>133</ele>
        <time>2010-01-01T08:10:14Z</time>
      </trkpt>
      <trkpt lat="38.91793" lon="1.38952">
        <ele>130</ele>
        <time>2010-01-01T08:10:18Z</time>
      </trkpt>
      <trkpt lat="38.91801" lon="1.38943">
        <ele>129</ele>
        <time>2010-01-01T08:10:23Z</time>
      </trkpt>
      <trkpt lat="38.91804" lon="1.38931">
        <ele>127</ele>
        <time>2010-01-01T08:10:27Z</time>
      </trkpt>
      <trkpt lat="38.91803" lon="1.38918">
        <ele>125</ele>
        <time>2010-01-01T08:10:31Z</time>
      </trkpt>
      <trkpt lat="38.91801" lon="1.38905">
        <ele>123</ele>
        <time>2010-01-01T08:10:35Z</time>
      </trkpt>
      <trkpt lat="38.91802" lon="1.38891">
        <ele>121</ele>
        <time>2010-01-01T08:10:39Z</time>
      </trkpt>
      <trkpt lat="38.91805" lon="1.3888">
        <ele>120</ele>
        <time>2010-01-01T08:10:43Z</time>
      </trkpt>
      <trkpt lat="38.91807" lon="1.38865">
        <ele>119</ele>
        <time>2010-01-01T08:10:47Z</time>
      </trkpt>
      <trkpt lat="38.91811" lon="1.38854">
        <ele>118</ele>
        <time>2010-01-01T08:10:51Z</time>
      </trkpt>
      <trkpt lat="38.91815" lon="1.3884">
        <ele>116</ele>
        <time>2010-01-01T08:10:56Z</time>
      </trkpt>
      <trkpt lat="38.91817" lon="1.38829">
        <ele>114</ele>
        <time>2010-01-01T08:10:59Z</time>
      </trkpt>
      <trkpt lat="38.91821" lon="1.38819">
        <ele>113</ele>
        <time>2010-01-01T08:11:03Z</time>
      </trkpt>
      <trkpt lat="38.91823" lon="1.38807">
        <ele>112</ele>
        <time>2010-01-01T08:11:07Z</time>
      </trkpt>
      <trkpt lat="38.91823" lon="1.38793">
        <ele>111</ele>
        <time>2010-01-01T08:11:11Z</time>
      </trkpt>
      <trkpt lat="38.91818" lon="1.38781">
        <ele>110</ele>
        <time>2010-01-01T08:11:15Z</time>
      </trkpt>
      <trkpt lat="38.91812" lon="1.38772">
        <ele>110</ele>
        <time>2010-01-01T08:11:19Z</time>
      </trkpt>
      <trkpt lat="38.91807" lon="1.38763">
        <ele>110</ele>
        <time>2010-01-01T08:11:22Z</time>
      </trkpt>
      <trkpt lat="38.91809" lon="1.38751">
        <ele>110</ele>
        <time>2010-01-01T08:11:26Z</time>
      </trkpt>
      <trkpt lat="38.91812" lon="1.38739">
        <ele>109</ele>
        <time>2010-01-01T08:11:30Z</time>
      </trkpt>
      <trkpt lat="38.91816" lon="1.38728">
        <ele>108</ele>
        <time>2010-01-01T08:11:34Z</time>
      </trkpt>
      <trkpt lat="38.91817" lon="1.38716">
        <ele>107</ele>
        <time>2010-01-01T08:11:38Z</time>
      </trkpt>
      <trkpt lat="38.91815" lon="1.38704">
        <ele>106</ele>
        <time>2010-01-01T08:11:42Z</time>
      </trkpt>
      <trkpt lat="38.91813" lon="1.38692">
        <ele>105</ele>
        <time>2010-01-01T08:11:45Z</time>
      </trkpt>
      <trkpt lat="38.91811" lon="1.38679">
        <ele>103</ele>
        <time>2010-01-01T08:11:50Z</time>
      </trkpt>
      <trkpt lat="38.91805" lon="1.3867">
        <ele>104</ele>
        <time>2010-01-01T08:11:53Z</time>
      </trkpt>
      <trkpt lat="38.91797" lon="1.38664">
        <ele>105</ele>
        <time>2010-01-01T08:11:57Z</time>
      </trkpt>
      <trkpt lat="38.91788" lon="1.38659">
        <ele>105</ele>
        <time>2010-01-01T08:12:01Z</time>
      </trkpt>
      <trkpt lat="38.9178" lon="1.38655">
        <ele>106</ele>
        <time>2010-01-01T08:12:04Z</time>
      </trkpt>
      <trkpt lat="38.91772" lon="1.38647">
        <ele>105</ele>
        <time>2010-01-01T08:12:08Z</time>
      </trkpt>
      <trkpt lat="38.91763" lon="1.38644">
        <ele>106</ele>
        <time>2010-01-01T08:12:12Z</time>
      </trkpt>
      <trkpt lat="38.91754" lon="1.38639">
        <ele>106</ele>
        <time>2010-01-01T08:12:16Z</time>
      </trkpt>
      <trkpt lat="38.91746" lon="1.38635">
        <ele>107</ele>
        <time>2010-01-01T08:12:19Z</time>
      </trkpt>
      <trkpt lat="38.91736" lon="1.38631">
        <ele>108</ele>
        <time>2010-01-01T08:12:24Z</time>
      </trkpt>
      <trkpt lat="38.91728" lon="1.38626">
        <ele>109</ele>
        <time>2010-01-01T08:12:27Z</time>
      </trkpt>
      <trkpt lat="38.91719" lon="1.38622">
        <ele>109</ele>
        <time>2010-01-01T08:12:31Z</time>
      </trkpt>
      <trkpt lat="38.9171" lon="1.38617">
        <ele>110</ele>
        <time>2010-01-01T08:12:35Z</time>
      </trkpt>
      <trkpt lat="38.91701" lon="1.38614">
        <ele>111</ele>
        <time>2010-01-01T08:12:39Z</time>
      </trkpt>
      <trkpt lat="38.91693" lon="1.38608">
        <ele>111</ele>
        <time>2010-01-01T08:12:42Z</time>
      </trkpt>
      <trkpt lat="38.91684" lon="1.38606">
        <ele>111</ele>
        <time>2010-01-01T08:12:46Z</time>
      </trkpt>
      <trkpt lat="38.91674" lon="1.386">
        <ele>110</ele>
        <time>2010-01-01T08:12:50Z</time>
      </trkpt>
      <trkpt lat="38.91666" lon="1.38594">
        <ele>109</ele>
        <time>2010-01-01T08:12:54Z</time>
      </trkpt>
      <trkpt lat="38.91656" lon="1.38591">
        <ele>108</ele>
        <time>2010-01-01T08:12:58Z</time>
      </trkpt>
      <trkpt lat="38.91648" lon="1.38587">
        <ele>106</ele>
        <time>2010-01-01T08:13:02Z</time>
      </trkpt>
      <trkpt lat="38.91639" lon="1.38584">
        <ele>105</ele>
        <time>2010-01-01T08:13:05Z</time>
      </trkpt>
      <trkpt lat="38.9163" lon="1.3858">
        <ele>104</ele>
        <time>2010-01-01T08:13:09Z</time>
      </trkpt>
      <trkpt lat="38.91621" lon="1.38578">
        <ele>103</ele>
        <time>2010-01-01T08:13:13Z</time>
      </trkpt>
      <trkpt lat="38.91611" lon="1.38571">
        <ele>101</ele>
        <time>2010-01-01T08:13:17Z</time>
      </trkpt>
      <trkpt lat="38.91603" lon="1.38566">
        <ele>101</ele>
        <time>2010-01-01T08:13:21Z</time>
      </trkpt>
      <trkpt lat="38.91594" lon="1.38563">
        <ele>100</ele>
        <time>2010-01-01T08:13:25Z</time>
      </trkpt>
      <trkpt lat="38.91585" lon="1.38559">
        <ele>99</ele>
        <time>2010-01-01T08:13:29Z</time>
      </trkpt>
      <trkpt lat="38.91576" lon="1.38553">
        <ele>98</ele>
        <time>2010-01-01T08:13:32Z</time>
      </trkpt>
      <trkpt lat="38.91568" lon="1.38545">
        <ele>97</ele>
        <time>2010-01-01T08:13:36Z</time>
      </trkpt>
      <trkpt lat="38.91559" lon="1.38537">
        <ele>96</ele>
        <time>2010-01-01T08:13:41Z</time>
      </trkpt>
      <trkpt lat="38.9155" lon="1.3854">
        <ele>96</ele>
        <time>2010-01-01T08:13:45Z</time>
      </trkpt>
      <trkpt lat="38.91541" lon="1.38536">
        <ele>96</ele>
        <time>2010-01-01T08:13:49Z</time>
      </trkpt>
      <trkpt lat="38.91532" lon="1.3853">
        <ele>96</ele>
        <time>2010-01-01T08:13:52Z</time>
      </trkpt>
      <trkpt lat="38.91524" lon="1.38521">
        <ele>95</ele>
        <time>2010-01-01T08:13:57Z</time>
      </trkpt>
      <trkpt lat="38.91517" lon="1.38513">
        <ele>96</ele>
        <time>2010-01-01T08:14:01Z</time>
      </trkpt>
      <trkpt lat="38.91513" lon="1.38501">
        <ele>94</ele>
        <time>2010-01-01T08:14:05Z</time>
      </trkpt>
      <trkpt lat="38.91506" lon="1.3849">
        <ele>93</ele>
        <time>2010-01-01T08:14:09Z</time>
      </trkpt>
      <trkpt lat="38.91499" lon="1.3848">
        <ele>92</ele>
        <time>2010-01-01T08:14:13Z</time>
      </trkpt>
      <trkpt lat="38.91492" lon="1.38471">
        <ele>90</ele>
        <time>2010-01-01T08:14:17Z</time>
      </trkpt>
      <trkpt lat="38.91486" lon="1.38459">
        <ele>90</ele>
        <time>2010-01-01T08:14:22Z</time>
      </trkpt>
      <trkpt lat="38.91476" lon="1.38454">
        <ele>90</ele>
        <time>2010-01-01T08:14:26Z</time>
      </trkpt>
      <trkpt lat="38.91466" lon="1.38452">
        <ele>90</ele>
        <time>2010-01-01T08:14:30Z</time>
      </trkpt>
      <trkpt lat="38.91457" lon="1.38455">
        <ele>91</ele>
        <time>2010-01-01T08:14:34Z</time>
      </trkpt>
      <trkpt lat="38.91448" lon="1.38452">
        <ele>91</ele>
        <time>2010-01-01T08:14:38Z</time>
      </trkpt>
      <trkpt lat="38.91439" lon="1.38453">
        <ele>91</ele>
        <time>2010-01-01T08:14:41Z</time>
      </trkpt>
      <trkpt lat="38.91429" lon="1.38454">
        <ele>92</ele>
        <time>2010-01-01T08:14:45Z</time>
      </trkpt>
      <trkpt lat="38.91418" lon="1.38458">
        <ele>93</ele>
        <time>2010-01-01T08:14:50Z</time>
      </trkpt>
      <trkpt lat="38.91408" lon="1.3846">
        <ele>95</ele>
        <time>2010-01-01T08:14:54Z</time>
      </trkpt>
      <trkpt lat="38.91399" lon="1.38461">
        <ele>96</ele>
        <time>2010-01-01T08:14:58Z</time>
      </trkpt>
      <trkpt lat="38.91389" lon="1.3846">
        <ele>96</ele>
        <time>2010-01-01T08:15:01Z</time>
      </trkpt>
      <trkpt lat="38.91381" lon="1.38456">
        <ele>95</ele>
        <time>2010-01-01T08:15:05Z</time>
      </trkpt>
      <trkpt lat="38.91371" lon="1.3845">
        <ele>94</ele>
        <time>2010-01-01T08:15:09Z</time>
      </trkpt>
      <trkpt lat="38.91362" lon="1.38443">
        <ele>92</ele>
        <time>2010-01-01T08:15:13Z</time>
      </trkpt>
      <trkpt lat="38.91352" lon="1.38439">
        <ele>91</ele>
        <time>2010-01-01T08:15:17Z</time>
      </trkpt>
      <trkpt lat="38.91344" lon="1.38435">
        <ele>90</ele>
        <time>2010-01-01T08:15:21Z</time>
      </trkpt>
      <trkpt lat="38.91333" lon="1.38427">
        <ele>88</ele>
        <time>2010-01-01T08:15:26Z</time>
      </trkpt>
      <trkpt lat="38.91323" lon="1.38423">
        <ele>86</ele>
        <time>2010-01-01T08:15:30Z</time>
      </trkpt>
      <trkpt lat="38.91312" lon="1.38423">
        <ele>84</ele>
        <time>2010-01-01T08:15:35Z</time>
      </trkpt>
      <trkpt lat="38.91303" lon="1.38421">
        <ele>83</ele>
        <time>2010-01-01T08:15:38Z</time>
      </trkpt>
      <trkpt lat="38.91296" lon="1.38413">
        <ele>80</ele>
        <time>2010-01-01T08:15:42Z</time>
      </trkpt>
      <trkpt lat="38.91288" lon="1.38407">
        <ele>79</ele>
        <time>2010-01-01T08:15:46Z</time>
      </trkpt>
      <trkpt lat="38.91277" lon="1.38404">
        <ele>77</ele>
        <time>2010-01-01T08:15:50Z</time>
      </trkpt>
      <trkpt lat="38.91268" lon="1.38404">
        <ele>77</ele>
        <time>2010-01-01T08:15:54Z</time>
      </trkpt>
      <trkpt lat="38.9126" lon="1.38411">
        <ele>79</ele>
        <time>2010-01-01T08:15:58Z</time>
      </trkpt>
      <trkpt lat="38.91254" lon="1.3842">
        <ele>81</ele>
        <time>2010-01-01T08:16:01Z</time>
      </trkpt>
      <trkpt lat="38.91245" lon="1.3842">
        <ele>81</ele>
        <time>2010-01-01T08:16:05Z</time>
      </trkpt>
      <trkpt lat="38.91238" lon="1.38411">
        <ele>79</ele>
        <time>2010-01-01T08:16:09Z</time>
      </trkpt>
      <trkpt lat="38.9123" lon="1.38403">
        <ele>77</ele>
        <time>2010-01-01T08:16:13Z</time>
      </trkpt>
      <trkpt lat="38.91219" lon="1.38403">
        <ele>78</ele>
        <time>2010-01-01T08:16:18Z</time>
      </trkpt>
      <trkpt lat="38.9121" lon="1.38405">
        <ele>78</ele>
        <time>2010-01-01T08:16:21Z</time>
      </trkpt>
      <trkpt lat="38.91201" lon="1.38405">
        <ele>79</ele>
        <time>2010-01-01T08:16:25Z</time>
      </trkpt>
      <trkpt lat="38.91192" lon="1.38401">
        <ele>78</ele>
        <time>2010-01-01T08:16:29Z</time>
      </trkpt>
      <trkpt lat="38.91182" lon="1.38398">
        <ele>78</ele>
        <time>2010-01-01T08:16:33Z</time>
      </trkpt>
      <trkpt lat="38.91171" lon="1.38395">
        <ele>78</ele>
        <time>2010-01-01T08:16:37Z</time>
      </trkpt>
      <trkpt lat="38.91162" lon="1.38388">
        <ele>77</ele>
        <time>2010-01-01T08:16:41Z</time>
      </trkpt>
      <trkpt lat="38.91154" lon="1.3838">
        <ele>75</ele>
        <time>2010-01-01T08:16:45Z</time>
      </trkpt>
      <trkpt lat="38.91146" lon="1.38375">
        <ele>74</ele>
        <time>2010-01-01T08:16:49Z</time>
      </trkpt>
      <trkpt lat="38.91137" lon="1.38379">
        <ele>74</ele>
        <time>2010-01-01T08:16:53Z</time>
      </trkpt>
      <trkpt lat="38.91128" lon="1.38383">
        <ele>73</ele>
        <time>2010-01-01T08:16:57Z</time>
      </trkpt>
      <trkpt lat="38.91121" lon="1.38392">
        <ele>73</ele>
        <time>2010-01-01T08:17:00Z</time>
      </trkpt>
      <trkpt lat="38.91113" lon="1.38398">
        <ele>73</ele>
        <time>2010-01-01T08:17:04Z</time>
      </trkpt>
      <trkpt lat="38.91104" lon="1.38403">
        <ele>73</ele>
        <time>2010-01-01T08:17:08Z</time>
      </trkpt>
      <trkpt lat="38.91095" lon="1.38404">
        <ele>72</ele>
        <time>2010-01-01T08:17:12Z</time>
      </trkpt>
      <trkpt lat="38.91086" lon="1.384">
        <ele>70</ele>
        <time>2010-01-01T08:17:16Z</time>
      </trkpt>
      <trkpt lat="38.91075" lon="1.38398">
        <ele>69</ele>
        <time>2010-01-01T08:17:20Z</time>
      </trkpt>
      <trkpt lat="38.91066" lon="1.38399">
        <ele>69</ele>
        <time>2010-01-01T08:17:24Z</time>
      </trkpt>
      <trkpt lat="38.91056" lon="1.38405">
        <ele>69</ele>
        <time>2010-01-01T08:17:28Z</time>
      </trkpt>
      <trkpt lat="38.91048" lon="1.38411">
        <ele>69</ele>
        <time>2010-01-01T08:17:32Z</time>
      </trkpt>
      <trkpt lat="38.91038" lon="1.38415">
        <ele>69</ele>
        <time>2010-01-01T08:17:36Z</time>
      </trkpt>
      <trkpt lat="38.91028" lon="1.3842">
        <ele>69</ele>
        <time>2010-01-01T08:17:40Z</time>
      </trkpt>
      <trkpt lat="38.9102" lon="1.38427">
        <ele>69</ele>
        <time>2010-01-01T08:17:44Z</time>
      </trkpt>
      <trkpt lat="38.91012" lon="1.38435">
        <ele>68</ele>
        <time>2010-01-01T08:17:48Z</time>
      </trkpt>
      <trkpt lat="38.91001" lon="1.38436">
        <ele>67</ele>
        <time>2010-01-01T08:17:52Z</time>
      </trkpt>
      <trkpt lat="38.90993" lon="1.38444">
        <ele>66</ele>
        <time>2010-01-01T08:17:57Z</time>
      </trkpt>
      <trkpt lat="38.90986" lon="1.38454">
        <ele>66</ele>
        <time>2010-01-01T08:18:01Z</time>
      </trkpt>
      <trkpt lat="38.90981" lon="1.38463">
        <ele>66</ele>
        <time>2010-01-01T08:18:04Z</time>
      </trkpt>
      <trkpt lat="38.90972" lon="1.38469">
        <ele>65</ele>
        <time>2010-01-01T08:18:08Z</time>
      </trkpt>
      <trkpt lat="38.90964" lon="1.38475">
        <ele>65</ele>
        <time>2010-01-01T08:18:12Z</time>
      </trkpt>
      <trkpt lat="38.90954" lon="1.3848">
        <ele>65</ele>
        <time>2010-01-01T08:18:16Z</time>
      </trkpt>
      <trkpt lat="38.90945" lon="1.38483">
        <ele>65</ele>
        <time>2010-01-01T08:18:20Z</time>
      </trkpt>
      <trkpt lat="38.90931" lon="1.38486">
        <ele>65</ele>
        <time>2010-01-01T08:18:25Z</time>
      </trkpt>
      <trkpt lat="38.90922" lon="1.38489">
        <ele>65</ele>
        <time>2010-01-01T08:18:29Z</time>
      </trkpt>
      <trkpt lat="38.90914" lon="1.38493">
        <ele>65</ele>
        <time>2010-01-01T08:18:33Z</time>
      </trkpt>
      <trkpt lat="38.90904" lon="1.38495">
        <ele>65</ele>
        <time>2010-01-01T08:18:37Z</time>
      </trkpt>
      <trkpt lat="38.90893" lon="1.38498">
        <ele>65</ele>
        <time>2010-01-01T08:18:41Z</time>
      </trkpt>
      <trkpt lat="38.90885" lon="1.38503">
        <ele>64</ele>
        <time>2010-01-01T08:18:45Z</time>
      </trkpt>
      <trkpt lat="38.90875" lon="1.38506">
        <ele>64</ele>
        <time>2010-01-01T08:18:49Z</time>
      </trkpt>
      <trkpt lat="38.90865" lon="1.38507">
        <ele>63</ele>
        <time>2010-01-01T08:18:53Z</time>
      </trkpt>
      <trkpt lat="38.90854" lon="1.38507">
        <ele>62</ele>
        <time>2010-01-01T08:18:57Z</time>
      </trkpt>
      <trkpt lat="38.90844" lon="1.38511">
        <ele>61</ele>
        <time>2010-01-01T08:19:01Z</time>
      </trkpt>
      <trkpt lat="38.90837" lon="1.38518">
        <ele>61</ele>
        <time>2010-01-01T08:19:05Z</time>
      </trkpt>
      <trkpt lat="38.90827" lon="1.38521">
        <ele>60</ele>
        <time>2010-01-01T08:19:09Z</time>
      </trkpt>
      <trkpt lat="38.90819" lon="1.38527">
        <ele>60</ele>
        <time>2010-01-01T08:19:13Z</time>
      </trkpt>
      <trkpt lat="38.9081" lon="1.38533">
        <ele>61</ele>
        <time>2010-01-01T08:19:17Z</time>
      </trkpt>
      <trkpt lat="38.90803" lon="1.38543">
        <ele>60</ele>
        <time>2010-01-01T08:19:21Z</time>
      </trkpt>
      <trkpt lat="38.90792" lon="1.38547">
        <ele>60</ele>
        <time>2010-01-01T08:19:26Z</time>
      </trkpt>
      <trkpt lat="38.90783" lon="1.38548">
        <ele>59</ele>
        <time>2010-01-01T08:19:29Z</time>
      </trkpt>
      <trkpt lat="38.90776" lon="1.38556">
        <ele>58</ele>
        <time>2010-01-01T08:19:33Z</time>
      </trkpt>
      <trkpt lat="38.90766" lon="1.38554">
        <ele>58</ele>
        <time>2010-01-01T08:19:37Z</time>
      </trkpt>
      <trkpt lat="38.90756" lon="1.38549">
        <ele>58</ele>
        <time>2010-01-01T08:19:42Z</time>
      </trkpt>
      <trkpt lat="38.90748" lon="1.38542">
        <ele>58</ele>
        <time>2010-01-01T08:19:45Z</time>
      </trkpt>
      <trkpt lat="38.9074" lon="1.38536">
        <ele>58</ele>
        <time>2010-01-01T08:19:49Z</time>
      </trkpt>
      <trkpt lat="38.9073" lon="1.38536">
        <ele>59</ele>
        <time>2010-01-01T08:19:53Z</time>
      </trkpt>
      <trkpt lat="38.90719" lon="1.38531">
        <ele>59</ele>
        <time>2010-01-01T08:19:58Z</time>
      </trkpt>
      <trkpt lat="38.90712" lon="1.38521">
        <ele>58</ele>
        <time>2010-01-01T08:20:02Z</time>
      </trkpt>
      <trkpt lat="38.90708" lon="1.38509">
        <ele>58</ele>
        <time>2010-01-01T08:20:06Z</time>
      </trkpt>
      <trkpt lat="38.90701" lon="1.38502">
        <ele>58</ele>
        <time>2010-01-01T08:20:10Z</time>
      </trkpt>
      <trkpt lat="38.9069" lon="1.38503">
        <ele>57</ele>
        <time>2010-01-01T08:20:14Z</time>
      </trkpt>
      <trkpt lat="38.9068" lon="1.38501">
        <ele>57</ele>
        <time>2010-01-01T08:20:18Z</time>
      </trkpt>
      <trkpt lat="38.90671" lon="1.38498">
        <ele>56</ele>
        <time>2010-01-01T08:20:22Z</time>
      </trkpt>
      <trkpt lat="38.90662" lon="1.38495">
        <ele>56</ele>
        <time>2010-01-01T08:20:25Z</time>
      </trkpt>
      <trkpt lat="38.90652" lon="1.38495">
        <ele>55</ele>
        <time>2010-01-01T08:20:30Z</time>
      </trkpt>
      <trkpt lat="38.90643" lon="1.38504">
        <ele>55</ele>
        <time>2010-01-01T08:20:34Z</time>
      </trkpt>
      <trkpt lat="38.90636" lon="1.38513">
        <ele>54</ele>
        <time>2010-01-01T08:20:38Z</time>
      </trkpt>
      <trkpt lat="38.90626" lon="1.38512">
        <ele>54</ele>
        <time>2010-01-01T08:20:42Z</time>
      </trkpt>
      <trkpt lat="38.90616" lon="1.38517">
        <ele>54</ele>
        <time>2010-01-01T08:20:46Z</time>
      </trkpt>
      <trkpt lat="38.90609" lon="1.38525">
        <ele>54</ele>
        <time>2010-01-01T08:20:50Z</time>
      </trkpt>
      <trkpt lat="38.906" lon="1.38531">
        <ele>54</ele>
        <time>2010-01-01T08:20:54Z</time>
      </trkpt>
      <trkpt lat="38.90592" lon="1.38535">
        <ele>54</ele>
        <time>2010-01-01T08:20:57Z</time>
      </trkpt>
      <trkpt lat="38.90582" lon="1.38539">
        <ele>54</ele>
        <time>2010-01-01T08:21:01Z</time>
      </trkpt>
      <trkpt lat="38.90573" lon="1.38544">
        <ele>54</ele>
        <time>2010-01-01T08:21:06Z</time>
      </trkpt>
      <trkpt lat="38.90564" lon="1.38549">
        <ele>54</ele>
        <time>2010-01-01T08:21:10Z</time>
      </trkpt>
      <trkpt lat="38.90555" lon="1.38552">
        <ele>53</ele>
        <time>2010-01-01T08:21:13Z</time>
      </trkpt>
      <trkpt lat="38.90546" lon="1.38557">
        <ele>53</ele>
        <time>2010-01-01T08:21:17Z</time>
      </trkpt>
      <trkpt lat="38.90537" lon="1.3856">
        <ele>53</ele>
        <time>2010-01-01T08:21:21Z</time>
      </trkpt>
      <trkpt lat="38.90528" lon="1.38564">
        <ele>53</ele>
        <time>2010-01-01T08:21:25Z</time>
      </trkpt>
      <trkpt lat="38.90519" lon="1.38569">
        <ele>53</ele>
        <time>2010-01-01T08:21:29Z</time>
      </trkpt>
      <trkpt lat="38.9051" lon="1.38569">
        <ele>52</ele>
        <time>2010-01-01T08:21:32Z</time>
      </trkpt>
      <trkpt lat="38.905" lon="1.38571">
        <ele>52</ele>
        <time>2010-01-01T08:21:36Z</time>
      </trkpt>
      <trkpt lat="38.90492" lon="1.38574">
        <ele>51</ele>
        <time>2010-01-01T08:21:40Z</time>
      </trkpt>
      <trkpt lat="38.90482" lon="1.38576">
        <ele>51</ele>
        <time>2010-01-01T08:21:44Z</time>
      </trkpt>
      <trkpt lat="38.90473" lon="1.38577">
        <ele>51</ele>
        <time>2010-01-01T08:21:47Z</time>
      </trkpt>
      <trkpt lat="38.90463" lon="1.38574">
        <ele>51</ele>
        <time>2010-01-01T08:21:51Z</time>
      </trkpt>
      <trkpt lat="38.90454" lon="1.38571">
        <ele>51</ele>
        <time>2010-01-01T08:21:55Z</time>
      </trkpt>
      <trkpt lat="38.90447" lon="1.38563">
        <ele>51</ele>
        <time>2010-01-01T08:21:59Z</time>
      </trkpt>
      <trkpt lat="38.90439" lon="1.38555">
        <ele>50</ele>
        <time>2010-01-01T08:22:03Z</time>
      </trkpt>
      <trkpt lat="38.90431" lon="1.38548">
        <ele>50</ele>
        <time>2010-01-01T08:22:07Z</time>
      </trkpt>
      <trkpt lat="38.90423" lon="1.3854">
        <ele>50</ele>
        <time>2010-01-01T08:22:11Z</time>
      </trkpt>
      <trkpt lat="38.90415" lon="1.38533">
        <ele>49</ele>
        <time>2010-01-01T08:22:15Z</time>
      </trkpt>
      <trkpt lat="38.90406" lon="1.38529">
        <ele>49</ele>
        <time>2010-01-01T08:22:18Z</time>
      </trkpt>
      <trkpt lat="38.90398" lon="1.38523">
        <ele>49</ele>
        <time>2010-01-01T08:22:22Z</time>
      </trkpt>
      <trkpt lat="38.90391" lon="1.38514">
        <ele>48</ele>
        <time>2010-01-01T08:22:26Z</time>
      </trkpt>
      <trkpt lat="38.90382" lon="1.38512">
        <ele>48</ele>
        <time>2010-01-01T08:22:30Z</time>
      </trkpt>
      <trkpt lat="38.90372" lon="1.38506">
        <ele>47</ele>
        <time>2010-01-01T08:22:34Z</time>
      </trkpt>
      <trkpt lat="38.90362" lon="1.38503">
        <ele>46</ele>
        <time>2010-01-01T08:22:38Z</time>
      </trkpt>
      <trkpt lat="38.90353" lon="1.38504">
        <ele>45</ele>
        <time>2010-01-01T08:22:42Z</time>
      </trkpt>
      <trkpt lat="38.90343" lon="1.38508">
        <ele>45</ele>
        <time>2010-01-01T08:22:46Z</time>
      </trkpt>
      <trkpt lat="38.90334" lon="1.38513">
        <ele>45</ele>
        <time>2010-01-01T08:22:50Z</time>
      </trkpt>
      <trkpt lat="38.90324" lon="1.38519">
        <ele>45</ele>
        <time>2010-01-01T08:22:55Z</time>
      </trkpt>
      <trkpt lat="38.90316" lon="1.38525">
        <ele>44</ele>
        <time>2010-01-01T08:22:58Z</time>
      </trkpt>
      <trkpt lat="38.90307" lon="1.38532">
        <ele>44</ele>
        <time>2010-01-01T08:23:03Z</time>
      </trkpt>
      <trkpt lat="38.90297" lon="1.38537">
        <ele>44</ele>
        <time>2010-01-01T08:23:07Z</time>
      </trkpt>
      <trkpt lat="38.90288" lon="1.38545">
        <ele>45</ele>
        <time>2010-01-01T08:23:11Z</time>
      </trkpt>
      <trkpt lat="38.90279" lon="1.38548">
        <ele>45</ele>
        <time>2010-01-01T08:23:15Z</time>
      </trkpt>
      <trkpt lat="38.90269" lon="1.38547">
        <ele>45</ele>
        <time>2010-01-01T08:23:19Z</time>
      </trkpt>
      <trkpt lat="38.9026" lon="1.38545">
        <ele>45</ele>
        <time>2010-01-01T08:23:23Z</time>
      </trkpt>
      <trkpt lat="38.9025" lon="1.38547">
        <ele>44</ele>
        <time>2010-01-01T08:23:27Z</time>
      </trkpt>
      <trkpt lat="38.9024" lon="1.38546">
        <ele>44</ele>
        <time>2010-01-01T08:23:31Z</time>
      </trkpt>
      <trkpt lat="38.90228" lon="1.38551">
        <ele>44</ele>
        <time>2010-01-01T08:23:36Z</time>
      </trkpt>
      <trkpt lat="38.90218" lon="1.38553">
        <ele>44</ele>
        <time>2010-01-01T08:23:40Z</time>
      </trkpt>
      <trkpt lat="38.90209" lon="1.38554">
        <ele>44</ele>
        <time>2010-01-01T08:23:43Z</time>
      </trkpt>
      <trkpt lat="38.902" lon="1.38558">
        <ele>43</ele>
        <time>2010-01-01T08:23:47Z</time>
      </trkpt>
      <trkpt lat="38.90191" lon="1.38562">
        <ele>43</ele>
        <time>2010-01-01T08:23:51Z</time>
      </trkpt>
      <trkpt lat="38.90181" lon="1.38568">
        <ele>42</ele>
        <time>2010-01-01T08:23:55Z</time>
      </trkpt>
      <trkpt lat="38.90173" lon="1.38573">
        <ele>42</ele>
        <time>2010-01-01T08:23:59Z</time>
      </trkpt>
      <trkpt lat="38.90168" lon="1.38585">
        <ele>43</ele>
        <time>2010-01-01T08:24:03Z</time>
      </trkpt>
      <trkpt lat="38.90165" lon="1.38598">
        <ele>43</ele>
        <time>2010-01-01T08:24:07Z</time>
      </trkpt>
      <trkpt lat="38.90165" lon="1.3861">
        <ele>43</ele>
        <time>2010-01-01T08:24:11Z</time>
      </trkpt>
      <trkpt lat="38.90167" lon="1.38623">
        <ele>44</ele>
        <time>2010-01-01T08:24:16Z</time>
      </trkpt>
      <trkpt lat="38.90161" lon="1.38633">
        <ele>43</ele>
        <time>2010-01-01T08:24:19Z</time>
      </trkpt>
      <trkpt lat="38.90152" lon="1.38638">
        <ele>42</ele>
        <time>2010-01-01T08:24:23Z</time>
      </trkpt>
      <trkpt lat="38.90152" lon="1.3865">
        <ele>42</ele>
        <time>2010-01-01T08:24:27Z</time>
      </trkpt>
      <trkpt lat="38.90152" lon="1.38664">
        <ele>42</ele>
        <time>2010-01-01T08:24:31Z</time>
      </trkpt>
      <trkpt lat="38.90155" lon="1.38675">
        <ele>43</ele>
        <time>2010-01-01T08:24:35Z</time>
      </trkpt>
      <trkpt lat="38.9015" lon="1.38687">
        <ele>42</ele>
        <time>2010-01-01T08:24:39Z</time>
      </trkpt>
      <trkpt lat="38.90141" lon="1.38693">
        <ele>42</ele>
        <time>2010-01-01T08:24:43Z</time>
      </trkpt>
      <trkpt lat="38.90131" lon="1.387">
        <ele>42</ele>
        <time>2010-01-01T08:24:47Z</time>
      </trkpt>
      <trkpt lat="38.90122" lon="1.38707">
        <ele>42</ele>
        <time>2010-01-01T08:24:52Z</time>
      </trkpt>
      <trkpt lat="38.90117" lon="1.38719">
        <ele>42</ele>
        <time>2010-01-01T08:24:56Z</time>
      </trkpt>
      <trkpt lat="38.90115" lon="1.38734">
        <ele>42</ele>
        <time>2010-01-01T08:25:01Z</time>
      </trkpt>
      <trkpt lat="38.90112" lon="1.38745">
        <ele>42</ele>
        <time>2010-01-01T08:25:04Z</time>
      </trkpt>
      <trkpt lat="38.90114" lon="1.38747">
        <ele>42</ele>
        <time>2010-01-01T08:25:05Z</time>
      </trkpt>
    </trkseg>
  </trk>
</gpx>